<?xml version='1.0' encoding='UTF-8'?><gpx version="1.1" creator="JPX - https://github.com/jenetics/jpx" xmlns="http://www.topografix.com/GPX/1/1"><trk><trkseg><trkpt lat="42.57825119385219" lon="2.8474373367389973"><ele>102.0</ele><time>2026-03-23T13:07:24Z</time></trkpt><trkpt lat="42.578216758562526" lon="2.84734244049849"><ele>102.0</ele><time>2026-03-23T13:07:26Z</time></trkpt><trkpt lat="42.57820877273871" lon="2.8472272109129997"><ele>102.0</ele><time>2026-03-23T13:07:28Z</time></trkpt><trkpt lat="42.57826020556818" lon="2.8471311078073827"><ele>102.0</ele><time>2026-03-23T13:07:30Z</time></trkpt><trkpt lat="42.57833436893392" lon="2.8471300293247714"><ele>102.0</ele><time>2026-03-23T13:07:32Z</time></trkpt><trkpt lat="42.57843125030959" lon="2.8471255937612687"><ele>102.0</ele><time>2026-03-23T13:07:34Z</time></trkpt><trkpt lat="42.57850133675053" lon="2.8471136316240147"><ele>102.0</ele><time>2026-03-23T13:07:35.999Z</time></trkpt><trkpt lat="42.57854207592177" lon="2.8470301020603856"><ele>102.0</ele><time>2026-03-23T13:07:37.999Z</time></trkpt><trkpt lat="42.578632175933286" lon="2.846987417977829"><ele>102.0</ele><time>2026-03-23T13:07:40.999Z</time></trkpt><trkpt lat="42.57873071670659" lon="2.8470205492755216"><ele>102.0</ele><time>2026-03-23T13:07:42.999Z</time></trkpt><trkpt lat="42.57882329437928" lon="2.846959766466216"><ele>102.0</ele><time>2026-03-23T13:07:44.999Z</time></trkpt><trkpt lat="42.57888346385391" lon="2.8468330733184724"><ele>102.19999999999999</ele><time>2026-03-23T13:07:46.999Z</time></trkpt><trkpt lat="42.57886792731131" lon="2.846712579983881"><ele>102.4</ele><time>2026-03-23T13:07:48.999Z</time></trkpt><trkpt lat="42.57881698552072" lon="2.8466179708962795"><ele>102.6</ele><time>2026-03-23T13:07:50.999Z</time></trkpt><trkpt lat="42.57872537919362" lon="2.846600049230553"><ele>102.80000000000001</ele><time>2026-03-23T13:07:52.999Z</time></trkpt><trkpt lat="42.57864247277189" lon="2.8466422810873366"><ele>103.0</ele><time>2026-03-23T13:07:54.999Z</time></trkpt><trkpt lat="42.57856150393959" lon="2.8467061896597308"><ele>102.80000000000001</ele><time>2026-03-23T13:07:56.999Z</time></trkpt><trkpt lat="42.57856181398879" lon="2.8467980369605974"><ele>102.6</ele><time>2026-03-23T13:07:57.999Z</time></trkpt><trkpt lat="42.57861662965006" lon="2.8469846056712815"><ele>102.4</ele><time>2026-03-23T13:08:00.999Z</time></trkpt><trkpt lat="42.57866437947122" lon="2.8470872241021707"><ele>102.19999999999999</ele><time>2026-03-23T13:08:03.999Z</time></trkpt><trkpt lat="42.578737004041606" lon="2.8471126943391716"><ele>102.0</ele><time>2026-03-23T13:08:04.999Z</time></trkpt><trkpt lat="42.57866539817692" lon="2.8472061543847915"><ele>102.0</ele><time>2026-03-23T13:08:05.999Z</time></trkpt><trkpt lat="42.57861404109252" lon="2.847314706835468"><ele>102.0</ele><time>2026-03-23T13:08:07.999Z</time></trkpt><trkpt lat="42.57855245856731" lon="2.8473768054869"><ele>102.0</ele><time>2026-03-23T13:08:09.999Z</time></trkpt><trkpt lat="42.57849307493384" lon="2.8474339109386073"><ele>102.0</ele><time>2026-03-23T13:08:11.999Z</time></trkpt><trkpt lat="42.57847444187354" lon="2.8475721093488633"><ele>102.0</ele><time>2026-03-23T13:08:14.999Z</time></trkpt><trkpt lat="42.578528472879036" lon="2.8476547049256293"><ele>102.0</ele><time>2026-03-23T13:08:15.999Z</time></trkpt><trkpt lat="42.57860588854298" lon="2.8476586140262374"><ele>102.19999999999999</ele><time>2026-03-23T13:08:16.999Z</time></trkpt><trkpt lat="42.57870949261304" lon="2.8476848052338566"><ele>102.4</ele><time>2026-03-23T13:08:18.999Z</time></trkpt><trkpt lat="42.578619941310514" lon="2.8477437137226884"><ele>102.6</ele><time>2026-03-23T13:08:23.998Z</time></trkpt><trkpt lat="42.578534791272126" lon="2.8477918404719063"><ele>102.80000000000001</ele><time>2026-03-23T13:08:25.998Z</time></trkpt><trkpt lat="42.578453127493276" lon="2.847799741390863"><ele>103.0</ele><time>2026-03-23T13:08:27.998Z</time></trkpt><trkpt lat="42.578364115594745" lon="2.8478215841728787"><ele>103.00000000000001</ele><time>2026-03-23T13:08:29.998Z</time></trkpt><trkpt lat="42.578299209040246" lon="2.8478442953791263"><ele>103.0</ele><time>2026-03-23T13:08:31.998Z</time></trkpt><trkpt lat="42.57826461453503" lon="2.8479859259125426"><ele>103.0</ele><time>2026-03-23T13:08:32.998Z</time></trkpt><trkpt lat="42.57827674060108" lon="2.8481069553855014"><ele>103.0</ele><time>2026-03-23T13:08:34.998Z</time></trkpt><trkpt lat="42.57827347427898" lon="2.848210789546317"><ele>103.00000000000001</ele><time>2026-03-23T13:08:36.998Z</time></trkpt><trkpt lat="42.578234213197476" lon="2.8482946553573423"><ele>103.0</ele><time>2026-03-23T13:08:39.998Z</time></trkpt><trkpt lat="42.57815074331124" lon="2.8483042559089387"><ele>103.00000000000001</ele><time>2026-03-23T13:08:41.998Z</time></trkpt><trkpt lat="42.578057332472994" lon="2.8482601677417385"><ele>103.0</ele><time>2026-03-23T13:08:43.998Z</time></trkpt><trkpt lat="42.57796142152416" lon="2.848218137859662"><ele>103.0</ele><time>2026-03-23T13:08:45.998Z</time></trkpt><trkpt lat="42.57788116507263" lon="2.84821296458372"><ele>103.0</ele><time>2026-03-23T13:08:47.998Z</time></trkpt><trkpt lat="42.57780992733731" lon="2.848192327110015"><ele>103.00000000000001</ele><time>2026-03-23T13:08:49.998Z</time></trkpt><trkpt lat="42.577741450942696" lon="2.8481724896872587"><ele>103.0</ele><time>2026-03-23T13:08:52.998Z</time></trkpt><trkpt lat="42.57768779987256" lon="2.848078559558678"><ele>103.4</ele><time>2026-03-23T13:08:58.998Z</time></trkpt><trkpt lat="42.577602340154044" lon="2.848066546833857"><ele>103.80000000000001</ele><time>2026-03-23T13:09:05.998Z</time></trkpt><trkpt lat="42.57753011053613" lon="2.848085600511601"><ele>104.2</ele><time>2026-03-23T13:09:07.998Z</time></trkpt><trkpt lat="42.57746835616589" lon="2.8481102286771725"><ele>104.6</ele><time>2026-03-23T13:09:11.997Z</time></trkpt><trkpt lat="42.57741910530442" lon="2.847858205871886"><ele>105.0</ele><time>2026-03-23T13:09:16.999Z</time></trkpt><trkpt lat="42.57740787933116" lon="2.847771003633638"><ele>105.0</ele><time>2026-03-23T13:09:18.999Z</time></trkpt><trkpt lat="42.57735648634866" lon="2.847700383199118"><ele>105.0</ele><time>2026-03-23T13:09:20.999Z</time></trkpt><trkpt lat="42.57726797264493" lon="2.8477136984336253"><ele>105.0</ele><time>2026-03-23T13:09:22.999Z</time></trkpt><trkpt lat="42.57717141869482" lon="2.8477650920294058"><ele>105.0</ele><time>2026-03-23T13:09:24.999Z</time></trkpt><trkpt lat="42.57705261270052" lon="2.8477975971758487"><ele>105.0</ele><time>2026-03-23T13:09:26.999Z</time></trkpt><trkpt lat="42.57694447721276" lon="2.8478290523287138"><ele>105.4</ele><time>2026-03-23T13:09:28.999Z</time></trkpt><trkpt lat="42.576843279557146" lon="2.847895274662721"><ele>105.8</ele><time>2026-03-23T13:09:30.999Z</time></trkpt><trkpt lat="42.57673591809976" lon="2.847954376983109"><ele>106.19999999999999</ele><time>2026-03-23T13:09:32.999Z</time></trkpt><trkpt lat="42.576660226429695" lon="2.8480615888675485"><ele>106.6</ele><time>2026-03-23T13:09:34.999Z</time></trkpt><trkpt lat="42.57663614375468" lon="2.8481466704142573"><ele>107.0</ele><time>2026-03-23T13:09:35.999Z</time></trkpt><trkpt lat="42.57661933233802" lon="2.848240073615388"><ele>107.0</ele><time>2026-03-23T13:09:36.999Z</time></trkpt><trkpt lat="42.57661523173282" lon="2.8483356120196768"><ele>106.99999999999999</ele><time>2026-03-23T13:09:37.999Z</time></trkpt><trkpt lat="42.57661611366511" lon="2.8484326194288863"><ele>106.99999999999999</ele><time>2026-03-23T13:09:38.999Z</time></trkpt><trkpt lat="42.57660217850305" lon="2.848597620215089"><ele>107.0</ele><time>2026-03-23T13:09:40.999Z</time></trkpt><trkpt lat="42.576544772998304" lon="2.848750932214251"><ele>107.0</ele><time>2026-03-23T13:09:42.999Z</time></trkpt><trkpt lat="42.5765037637665" lon="2.848825651972073"><ele>106.6</ele><time>2026-03-23T13:09:43.999Z</time></trkpt><trkpt lat="42.57645161469963" lon="2.8488937293968393"><ele>106.19999999999999</ele><time>2026-03-23T13:09:44.999Z</time></trkpt><trkpt lat="42.57638010137131" lon="2.8489623415902834"><ele>105.8</ele><time>2026-03-23T13:09:45.999Z</time></trkpt><trkpt lat="42.57628847116976" lon="2.8489986195122676"><ele>105.4</ele><time>2026-03-23T13:09:46.999Z</time></trkpt><trkpt lat="42.57620596172942" lon="2.849048756989751"><ele>105.0</ele><time>2026-03-23T13:09:47.999Z</time></trkpt><trkpt lat="42.57609596711402" lon="2.8490713920116755"><ele>104.5</ele><time>2026-03-23T13:09:48.999Z</time></trkpt><trkpt lat="42.57597037123211" lon="2.8490775764679332"><ele>104.0</ele><time>2026-03-23T13:09:49.999Z</time></trkpt><trkpt lat="42.57584044072752" lon="2.8490718005979794"><ele>103.5</ele><time>2026-03-23T13:09:50.999Z</time></trkpt><trkpt lat="42.5757047419217" lon="2.8490738638666904"><ele>103.0</ele><time>2026-03-23T13:09:51.999Z</time></trkpt><trkpt lat="42.57540124494091" lon="2.8490785967092296"><ele>102.66666666666667</ele><time>2026-03-23T13:09:53.999Z</time></trkpt><trkpt lat="42.57524158626803" lon="2.8490828831061776"><ele>102.33333333333334</ele><time>2026-03-23T13:09:54.999Z</time></trkpt><trkpt lat="42.57507650351452" lon="2.849088763582123"><ele>102.0</ele><time>2026-03-23T13:09:55.999Z</time></trkpt><trkpt lat="42.57491126853017" lon="2.8490875699377964"><ele>102.0</ele><time>2026-03-23T13:09:56.999Z</time></trkpt><trkpt lat="42.574745933706474" lon="2.849086390273334"><ele>102.0</ele><time>2026-03-23T13:09:57.999Z</time></trkpt><trkpt lat="42.57458429064515" lon="2.8490723105788396"><ele>102.0</ele><time>2026-03-23T13:09:58.999Z</time></trkpt><trkpt lat="42.57441656468633" lon="2.8490437750792132"><ele>101.33333333333334</ele><time>2026-03-23T13:09:59.999Z</time></trkpt><trkpt lat="42.574248422354316" lon="2.8490155348636463"><ele>100.66666666666667</ele><time>2026-03-23T13:10:00.999Z</time></trkpt><trkpt lat="42.5740840425778" lon="2.8489795064423222"><ele>100.0</ele><time>2026-03-23T13:10:01.999Z</time></trkpt><trkpt lat="42.573926175855455" lon="2.8489428904527303"><ele>100.0</ele><time>2026-03-23T13:10:02.999Z</time></trkpt><trkpt lat="42.57377589835033" lon="2.848908060968235"><ele>100.0</ele><time>2026-03-23T13:10:03.999Z</time></trkpt><trkpt lat="42.5736340249696" lon="2.848879461113479"><ele>100.0</ele><time>2026-03-23T13:10:04.999Z</time></trkpt><trkpt lat="42.573505196911064" lon="2.8488651551218864"><ele>100.0</ele><time>2026-03-23T13:10:05.999Z</time></trkpt><trkpt lat="42.57340501496438" lon="2.848852925814943"><ele>99.66666666666667</ele><time>2026-03-23T13:10:06.999Z</time></trkpt><trkpt lat="42.57331001154434" lon="2.848846726391142"><ele>99.33333333333334</ele><time>2026-03-23T13:10:07.999Z</time></trkpt><trkpt lat="42.57322522886205" lon="2.848836282770398"><ele>99.0</ele><time>2026-03-23T13:10:08.999Z</time></trkpt><trkpt lat="42.57315512755954" lon="2.8488146826740244"><ele>98.66666666666666</ele><time>2026-03-23T13:10:09.999Z</time></trkpt><trkpt lat="42.57308933455347" lon="2.848804158202048"><ele>98.33333333333333</ele><time>2026-03-23T13:10:10.999Z</time></trkpt><trkpt lat="42.57303480521614" lon="2.848747582573292"><ele>98.0</ele><time>2026-03-23T13:10:11.999Z</time></trkpt><trkpt lat="42.57296239921593" lon="2.8487046243468077"><ele>98.0</ele><time>2026-03-23T13:10:12.999Z</time></trkpt><trkpt lat="42.57286261924982" lon="2.848766204762175"><ele>98.0</ele><time>2026-03-23T13:10:14.999Z</time></trkpt><trkpt lat="42.57285605122938" lon="2.8489307033175133"><ele>98.0</ele><time>2026-03-23T13:10:16.999Z</time></trkpt><trkpt lat="42.57288867713411" lon="2.849025536359993"><ele>98.0</ele><time>2026-03-23T13:10:17.999Z</time></trkpt><trkpt lat="42.572930998510884" lon="2.8491328895738195"><ele>98.0</ele><time>2026-03-23T13:10:18.999Z</time></trkpt><trkpt lat="42.57296594521888" lon="2.849266363854453"><ele>98.25</ele><time>2026-03-23T13:10:19.998Z</time></trkpt><trkpt lat="42.57298703483585" lon="2.8494118725687865"><ele>98.5</ele><time>2026-03-23T13:10:20.998Z</time></trkpt><trkpt lat="42.57299154060319" lon="2.8495643826671997"><ele>98.75</ele><time>2026-03-23T13:10:21.998Z</time></trkpt><trkpt lat="42.57300452080691" lon="2.8498663663900823"><ele>99.0</ele><time>2026-03-23T13:10:23.998Z</time></trkpt><trkpt lat="42.57301290645377" lon="2.8500015257811406"><ele>99.4</ele><time>2026-03-23T13:10:24.998Z</time></trkpt><trkpt lat="42.57301457154876" lon="2.850128261004241"><ele>99.80000000000001</ele><time>2026-03-23T13:10:25.998Z</time></trkpt><trkpt lat="42.57302102683357" lon="2.8502400871877955"><ele>100.19999999999999</ele><time>2026-03-23T13:10:26.998Z</time></trkpt><trkpt lat="42.5730264794237" lon="2.850328307551932"><ele>100.6</ele><time>2026-03-23T13:10:27.998Z</time></trkpt><trkpt lat="42.57301248730949" lon="2.8504758632732905"><ele>101.0</ele><time>2026-03-23T13:10:30.998Z</time></trkpt><trkpt lat="42.57294726016766" lon="2.8506058905570217"><ele>101.0</ele><time>2026-03-23T13:10:32.998Z</time></trkpt><trkpt lat="42.57288658935207" lon="2.8506787230771398"><ele>101.0</ele><time>2026-03-23T13:10:33.998Z</time></trkpt><trkpt lat="42.572804530459855" lon="2.8507429026791233"><ele>101.0</ele><time>2026-03-23T13:10:34.998Z</time></trkpt><trkpt lat="42.572719657229705" lon="2.85078909145878"><ele>101.0</ele><time>2026-03-23T13:10:35.998Z</time></trkpt><trkpt lat="42.572623815701775" lon="2.8508381747584735"><ele>101.0</ele><time>2026-03-23T13:10:36.998Z</time></trkpt><trkpt lat="42.57250241714405" lon="2.850826000597459"><ele>100.5</ele><time>2026-03-23T13:10:37.998Z</time></trkpt><trkpt lat="42.57237269076482" lon="2.8508340229859988"><ele>100.0</ele><time>2026-03-23T13:10:38.998Z</time></trkpt><trkpt lat="42.57223184555825" lon="2.8508499782382017"><ele>99.5</ele><time>2026-03-23T13:10:39.998Z</time></trkpt><trkpt lat="42.5720756554663" lon="2.8508698514615314"><ele>99.0</ele><time>2026-03-23T13:10:40.998Z</time></trkpt><trkpt lat="42.57190396479675" lon="2.8508884549762192"><ele>99.0</ele><time>2026-03-23T13:10:41.998Z</time></trkpt><trkpt lat="42.571721193433696" lon="2.8509046990114304"><ele>99.0</ele><time>2026-03-23T13:10:42.998Z</time></trkpt><trkpt lat="42.57154026315529" lon="2.8509200320812442"><ele>99.0</ele><time>2026-03-23T13:10:43.998Z</time></trkpt><trkpt lat="42.5713602771728" lon="2.850937944787294"><ele>99.0</ele><time>2026-03-23T13:10:44.998Z</time></trkpt><trkpt lat="42.57117798014608" lon="2.85095535250277"><ele>99.0</ele><time>2026-03-23T13:10:45.998Z</time></trkpt><trkpt lat="42.57098961713772" lon="2.8509720833191694"><ele>99.0</ele><time>2026-03-23T13:10:46.998Z</time></trkpt><trkpt lat="42.57080025758203" lon="2.8509896136780206"><ele>98.66666666666666</ele><time>2026-03-23T13:10:47.998Z</time></trkpt><trkpt lat="42.57060228225054" lon="2.851008988646442"><ele>98.33333333333333</ele><time>2026-03-23T13:10:48.998Z</time></trkpt><trkpt lat="42.57040490896068" lon="2.851029846321345"><ele>98.0</ele><time>2026-03-23T13:10:49.998Z</time></trkpt><trkpt lat="42.57020946384829" lon="2.8510484415111805"><ele>98.0</ele><time>2026-03-23T13:10:50.998Z</time></trkpt><trkpt lat="42.57001666337575" lon="2.8510635078895583"><ele>98.0</ele><time>2026-03-23T13:10:51.998Z</time></trkpt><trkpt lat="42.5698198078109" lon="2.851082417244384"><ele>98.0</ele><time>2026-03-23T13:10:52.998Z</time></trkpt><trkpt lat="42.56962628326822" lon="2.851100859225166"><ele>97.0</ele><time>2026-03-23T13:10:53.998Z</time></trkpt><trkpt lat="42.56942747484492" lon="2.8511209130902624"><ele>96.0</ele><time>2026-03-23T13:10:54.998Z</time></trkpt><trkpt lat="42.569225944948045" lon="2.8511404194904006"><ele>95.0</ele><time>2026-03-23T13:10:55.998Z</time></trkpt><trkpt lat="42.56880683053889" lon="2.8511915706765736"><ele>95.0</ele><time>2026-03-23T13:10:57.998Z</time></trkpt><trkpt lat="42.568593463523996" lon="2.8512104352291145"><ele>95.0</ele><time>2026-03-23T13:10:58.998Z</time></trkpt><trkpt lat="42.568380439877124" lon="2.851229895916516"><ele>95.0</ele><time>2026-03-23T13:10:59.998Z</time></trkpt><trkpt lat="42.568165047346156" lon="2.8512503856327402"><ele>95.0</ele><time>2026-03-23T13:11:00.998Z</time></trkpt><trkpt lat="42.56794594232025" lon="2.851274243508061"><ele>95.0</ele><time>2026-03-23T13:11:01.998Z</time></trkpt><trkpt lat="42.567726554674856" lon="2.8512982944338554"><ele>95.0</ele><time>2026-03-23T13:11:02.998Z</time></trkpt><trkpt lat="42.567510136659436" lon="2.8513203228206567"><ele>95.33333333333334</ele><time>2026-03-23T13:11:03.998Z</time></trkpt><trkpt lat="42.56729169163933" lon="2.8513428682603355"><ele>95.66666666666667</ele><time>2026-03-23T13:11:04.998Z</time></trkpt><trkpt lat="42.567075244292845" lon="2.8513628042724433"><ele>96.0</ele><time>2026-03-23T13:11:05.998Z</time></trkpt><trkpt lat="42.566860534370704" lon="2.8513838764759702"><ele>95.33333333333333</ele><time>2026-03-23T13:11:06.998Z</time></trkpt><trkpt lat="42.56664019001334" lon="2.8514055345975704"><ele>94.66666666666666</ele><time>2026-03-23T13:11:07.998Z</time></trkpt><trkpt lat="42.56642313290315" lon="2.8514281881092187"><ele>94.0</ele><time>2026-03-23T13:11:08.998Z</time></trkpt><trkpt lat="42.56622604460429" lon="2.851447237901996"><ele>93.66666666666666</ele><time>2026-03-23T13:11:09.998Z</time></trkpt><trkpt lat="42.566041835768004" lon="2.8514628344125086"><ele>93.33333333333333</ele><time>2026-03-23T13:11:10.998Z</time></trkpt><trkpt lat="42.56586733059908" lon="2.8514814356102978"><ele>93.0</ele><time>2026-03-23T13:11:11.997Z</time></trkpt><trkpt lat="42.56570425422954" lon="2.8514952799038515"><ele>93.0</ele><time>2026-03-23T13:11:12.997Z</time></trkpt><trkpt lat="42.565547958576744" lon="2.8515099651936846"><ele>93.0</ele><time>2026-03-23T13:11:13.997Z</time></trkpt><trkpt lat="42.565375738814666" lon="2.8515315933583576"><ele>93.0</ele><time>2026-03-23T13:11:14.997Z</time></trkpt><trkpt lat="42.56518963159939" lon="2.851552512032825"><ele>93.0</ele><time>2026-03-23T13:11:15.997Z</time></trkpt><trkpt lat="42.5649942548392" lon="2.8515774359843302"><ele>93.0</ele><time>2026-03-23T13:11:16.997Z</time></trkpt><trkpt lat="42.56479435467337" lon="2.851598017168643"><ele>93.0</ele><time>2026-03-23T13:11:17.997Z</time></trkpt><trkpt lat="42.56458379576892" lon="2.851619756510871"><ele>92.33333333333333</ele><time>2026-03-23T13:11:18.997Z</time></trkpt><trkpt lat="42.56436777890088" lon="2.8516411813005913"><ele>91.66666666666666</ele><time>2026-03-23T13:11:19.997Z</time></trkpt><trkpt lat="42.56415428122066" lon="2.851665782871913"><ele>91.0</ele><time>2026-03-23T13:11:20.997Z</time></trkpt><trkpt lat="42.56394449164586" lon="2.8516859725803463"><ele>91.0</ele><time>2026-03-23T13:11:21.999Z</time></trkpt><trkpt lat="42.563739310226275" lon="2.851710297742947"><ele>91.0</ele><time>2026-03-23T13:11:22.999Z</time></trkpt><trkpt lat="42.563534262702724" lon="2.8517322142571695"><ele>91.0</ele><time>2026-03-23T13:11:23.999Z</time></trkpt><trkpt lat="42.5633296416704" lon="2.8517490691700016"><ele>90.66666666666666</ele><time>2026-03-23T13:11:24.999Z</time></trkpt><trkpt lat="42.56312548952361" lon="2.8517706125212454"><ele>90.33333333333333</ele><time>2026-03-23T13:11:25.999Z</time></trkpt><trkpt lat="42.56292197834598" lon="2.8517929594162905"><ele>90.0</ele><time>2026-03-23T13:11:26.999Z</time></trkpt><trkpt lat="42.56271249126319" lon="2.851809052771306"><ele>86.66666666666667</ele><time>2026-03-23T13:11:27.999Z</time></trkpt><trkpt lat="42.56250488084955" lon="2.8518247421582212"><ele>83.33333333333334</ele><time>2026-03-23T13:11:28.999Z</time></trkpt><trkpt lat="42.56229852245021" lon="2.851847323944668"><ele>80.0</ele><time>2026-03-23T13:11:29.999Z</time></trkpt><trkpt lat="42.562093421487894" lon="2.8518699177825684"><ele>80.66666666666667</ele><time>2026-03-23T13:11:30.999Z</time></trkpt><trkpt lat="42.56188881898881" lon="2.8518967912931887"><ele>81.33333333333333</ele><time>2026-03-23T13:11:31.999Z</time></trkpt><trkpt lat="42.561679348683924" lon="2.851928638479192"><ele>82.0</ele><time>2026-03-23T13:11:32.999Z</time></trkpt><trkpt lat="42.56147540548228" lon="2.8519731668532224"><ele>82.0</ele><time>2026-03-23T13:11:33.999Z</time></trkpt><trkpt lat="42.561275588320676" lon="2.8520403240207957"><ele>82.0</ele><time>2026-03-23T13:11:34.999Z</time></trkpt><trkpt lat="42.56108459982361" lon="2.852126560898695"><ele>82.0</ele><time>2026-03-23T13:11:35.999Z</time></trkpt><trkpt lat="42.56089919622009" lon="2.852224419987698"><ele>83.66666666666666</ele><time>2026-03-23T13:11:36.999Z</time></trkpt><trkpt lat="42.56072171738957" lon="2.852341685054056"><ele>85.33333333333333</ele><time>2026-03-23T13:11:37.999Z</time></trkpt><trkpt lat="42.56055001474901" lon="2.852474777697825"><ele>87.0</ele><time>2026-03-23T13:11:38.999Z</time></trkpt><trkpt lat="42.56038138670451" lon="2.852621917386356"><ele>86.66666666666667</ele><time>2026-03-23T13:11:39.999Z</time></trkpt><trkpt lat="42.56021907544554" lon="2.852781962783273"><ele>86.33333333333334</ele><time>2026-03-23T13:11:40.999Z</time></trkpt><trkpt lat="42.56006500436188" lon="2.8529542713274934"><ele>86.0</ele><time>2026-03-23T13:11:41.999Z</time></trkpt><trkpt lat="42.559917758919205" lon="2.853138573248955"><ele>86.0</ele><time>2026-03-23T13:11:42.999Z</time></trkpt><trkpt lat="42.55977798013263" lon="2.853338921581355"><ele>86.0</ele><time>2026-03-23T13:11:43.999Z</time></trkpt><trkpt lat="42.55964357532293" lon="2.853550291877508"><ele>86.0</ele><time>2026-03-23T13:11:44.999Z</time></trkpt><trkpt lat="42.559513554818494" lon="2.853765186974171"><ele>86.0</ele><time>2026-03-23T13:11:45.999Z</time></trkpt><trkpt lat="42.559366250913826" lon="2.8539618232457347"><ele>86.0</ele><time>2026-03-23T13:11:46.999Z</time></trkpt><trkpt lat="42.559238834568156" lon="2.8541889186248937"><ele>86.0</ele><time>2026-03-23T13:11:47.999Z</time></trkpt><trkpt lat="42.55910180484393" lon="2.854392825882507"><ele>86.0</ele><time>2026-03-23T13:11:48.999Z</time></trkpt><trkpt lat="42.55896038612347" lon="2.854593687297075"><ele>86.0</ele><time>2026-03-23T13:11:49.999Z</time></trkpt><trkpt lat="42.55879713016219" lon="2.854764505781322"><ele>86.0</ele><time>2026-03-23T13:11:50.999Z</time></trkpt><trkpt lat="42.558641524662335" lon="2.8549574031077904"><ele>86.66666666666667</ele><time>2026-03-23T13:11:51.999Z</time></trkpt><trkpt lat="42.558466179993104" lon="2.855124859402508"><ele>87.33333333333333</ele><time>2026-03-23T13:11:52.999Z</time></trkpt><trkpt lat="42.55829247899492" lon="2.8552931995360966"><ele>88.0</ele><time>2026-03-23T13:11:53.999Z</time></trkpt><trkpt lat="42.5581249954798" lon="2.8554572389166837"><ele>88.0</ele><time>2026-03-23T13:11:54.999Z</time></trkpt><trkpt lat="42.55795959288313" lon="2.8556116998996"><ele>88.0</ele><time>2026-03-23T13:11:55.999Z</time></trkpt><trkpt lat="42.557791696749646" lon="2.855765482462391"><ele>88.0</ele><time>2026-03-23T13:11:56.999Z</time></trkpt><trkpt lat="42.55761932475697" lon="2.8559388108033557"><ele>87.66666666666666</ele><time>2026-03-23T13:11:57.999Z</time></trkpt><trkpt lat="42.557442209052404" lon="2.856111366997198"><ele>87.33333333333333</ele><time>2026-03-23T13:11:58.999Z</time></trkpt><trkpt lat="42.55726411719829" lon="2.8562825276794443"><ele>87.0</ele><time>2026-03-23T13:11:59.999Z</time></trkpt><trkpt lat="42.55709058485043" lon="2.856444231927756"><ele>85.66666666666667</ele><time>2026-03-23T13:12:00.999Z</time></trkpt><trkpt lat="42.5569319247125" lon="2.856594406986553"><ele>84.33333333333334</ele><time>2026-03-23T13:12:01.999Z</time></trkpt><trkpt lat="42.55676771947977" lon="2.8567521612133238"><ele>83.0</ele><time>2026-03-23T13:12:02.999Z</time></trkpt><trkpt lat="42.55660120468333" lon="2.8569129316452178"><ele>83.0</ele><time>2026-03-23T13:12:03.999Z</time></trkpt><trkpt lat="42.55643081659186" lon="2.8570730850872113"><ele>83.0</ele><time>2026-03-23T13:12:04.999Z</time></trkpt><trkpt lat="42.55625943316282" lon="2.857235095159778"><ele>83.0</ele><time>2026-03-23T13:12:05.999Z</time></trkpt><trkpt lat="42.55608362693612" lon="2.8573959356030434"><ele>81.0</ele><time>2026-03-23T13:12:06.999Z</time></trkpt><trkpt lat="42.55590859130297" lon="2.857546770079368"><ele>79.0</ele><time>2026-03-23T13:12:07.999Z</time></trkpt><trkpt lat="42.55573840870926" lon="2.8577095155404204"><ele>77.0</ele><time>2026-03-23T13:12:08.999Z</time></trkpt><trkpt lat="42.55556368730788" lon="2.8578735147967356"><ele>76.33333333333334</ele><time>2026-03-23T13:12:09.999Z</time></trkpt><trkpt lat="42.55538586786084" lon="2.8580282252080242"><ele>75.66666666666667</ele><time>2026-03-23T13:12:10.999Z</time></trkpt><trkpt lat="42.55520752947657" lon="2.858175858224784"><ele>75.0</ele><time>2026-03-23T13:12:11.999Z</time></trkpt><trkpt lat="42.555028764572185" lon="2.8583247353549113"><ele>75.33333333333333</ele><time>2026-03-23T13:12:12.999Z</time></trkpt><trkpt lat="42.554851461457936" lon="2.8584731576403724"><ele>75.66666666666666</ele><time>2026-03-23T13:12:13.999Z</time></trkpt><trkpt lat="42.55467210163668" lon="2.858611296895737"><ele>76.0</ele><time>2026-03-23T13:12:14.999Z</time></trkpt><trkpt lat="42.55448914296661" lon="2.8587466581181777"><ele>77.33333333333333</ele><time>2026-03-23T13:12:15.999Z</time></trkpt><trkpt lat="42.55430655319297" lon="2.8588665626997987"><ele>78.66666666666667</ele><time>2026-03-23T13:12:16.999Z</time></trkpt><trkpt lat="42.55411973243885" lon="2.8589633195018442"><ele>80.0</ele><time>2026-03-23T13:12:17.999Z</time></trkpt><trkpt lat="42.55392619217775" lon="2.859037932178839"><ele>80.0</ele><time>2026-03-23T13:12:18.999Z</time></trkpt><trkpt lat="42.553727912321996" lon="2.8590915382018647"><ele>80.0</ele><time>2026-03-23T13:12:19.999Z</time></trkpt><trkpt lat="42.55352548451259" lon="2.859121319369216"><ele>80.0</ele><time>2026-03-23T13:12:20.999Z</time></trkpt><trkpt lat="42.55331894241182" lon="2.859125286236369"><ele>80.33333333333334</ele><time>2026-03-23T13:12:21.999Z</time></trkpt><trkpt lat="42.553108264429596" lon="2.8591048118623266"><ele>80.66666666666667</ele><time>2026-03-23T13:12:22.999Z</time></trkpt><trkpt lat="42.55290402922184" lon="2.859055387859035"><ele>81.0</ele><time>2026-03-23T13:12:23.999Z</time></trkpt><trkpt lat="42.552708139406846" lon="2.858975540159806"><ele>80.33333333333333</ele><time>2026-03-23T13:12:24.999Z</time></trkpt><trkpt lat="42.55251044276473" lon="2.8588692801370508"><ele>79.66666666666666</ele><time>2026-03-23T13:12:25.999Z</time></trkpt><trkpt lat="42.552319287499586" lon="2.85874069654926"><ele>79.0</ele><time>2026-03-23T13:12:26.999Z</time></trkpt><trkpt lat="42.55213761149942" lon="2.858591163857594"><ele>79.33333333333333</ele><time>2026-03-23T13:12:27.999Z</time></trkpt><trkpt lat="42.55196112849322" lon="2.8584258344064115"><ele>79.66666666666667</ele><time>2026-03-23T13:12:28.999Z</time></trkpt><trkpt lat="42.55178660243858" lon="2.8582626672811005"><ele>80.0</ele><time>2026-03-23T13:12:29.999Z</time></trkpt><trkpt lat="42.551612561010735" lon="2.8581058052130546"><ele>80.0</ele><time>2026-03-23T13:12:30.999Z</time></trkpt><trkpt lat="42.55144169283713" lon="2.857954687258485"><ele>80.0</ele><time>2026-03-23T13:12:31.999Z</time></trkpt><trkpt lat="42.55126826768803" lon="2.857794270480829"><ele>80.0</ele><time>2026-03-23T13:12:32.999Z</time></trkpt><trkpt lat="42.55109835769045" lon="2.857632874233915"><ele>79.0</ele><time>2026-03-23T13:12:33.999Z</time></trkpt><trkpt lat="42.55092744886662" lon="2.8574752403912873"><ele>78.0</ele><time>2026-03-23T13:12:34.999Z</time></trkpt><trkpt lat="42.550755071103616" lon="2.8573141388262946"><ele>77.0</ele><time>2026-03-23T13:12:35.999Z</time></trkpt><trkpt lat="42.55058651397635" lon="2.857148317055723"><ele>77.0</ele><time>2026-03-23T13:12:36.999Z</time></trkpt><trkpt lat="42.55041742249696" lon="2.8569818751318894"><ele>77.0</ele><time>2026-03-23T13:12:37.999Z</time></trkpt><trkpt lat="42.550244767569566" lon="2.8568196211434382"><ele>77.0</ele><time>2026-03-23T13:12:38.999Z</time></trkpt><trkpt lat="42.55007040505228" lon="2.8566613781426646"><ele>77.0</ele><time>2026-03-23T13:12:39.999Z</time></trkpt><trkpt lat="42.549899596590784" lon="2.856500929987495"><ele>77.0</ele><time>2026-03-23T13:12:40.999Z</time></trkpt><trkpt lat="42.549730017297655" lon="2.856339034795329"><ele>77.0</ele><time>2026-03-23T13:12:41.999Z</time></trkpt><trkpt lat="42.5495580965687" lon="2.856177427860901"><ele>77.0</ele><time>2026-03-23T13:12:42.999Z</time></trkpt><trkpt lat="42.54938415311889" lon="2.8560189989862566"><ele>77.0</ele><time>2026-03-23T13:12:43.999Z</time></trkpt><trkpt lat="42.549210921275325" lon="2.855859198699341"><ele>77.0</ele><time>2026-03-23T13:12:44.998Z</time></trkpt><trkpt lat="42.549033555083994" lon="2.8556947839597284"><ele>77.0</ele><time>2026-03-23T13:12:45.998Z</time></trkpt><trkpt lat="42.54885859412958" lon="2.8555291662047386"><ele>77.0</ele><time>2026-03-23T13:12:46.998Z</time></trkpt><trkpt lat="42.54868317944066" lon="2.8553582061248846"><ele>77.0</ele><time>2026-03-23T13:12:47.998Z</time></trkpt><trkpt lat="42.548504872573936" lon="2.855194754921765"><ele>78.33333333333334</ele><time>2026-03-23T13:12:48.998Z</time></trkpt><trkpt lat="42.54832922547417" lon="2.8550229171552512"><ele>79.66666666666667</ele><time>2026-03-23T13:12:49.998Z</time></trkpt><trkpt lat="42.548151823670345" lon="2.854857348775434"><ele>81.0</ele><time>2026-03-23T13:12:50.998Z</time></trkpt><trkpt lat="42.54797192186374" lon="2.854680996683529"><ele>80.33333333333333</ele><time>2026-03-23T13:12:51.998Z</time></trkpt><trkpt lat="42.54778715008925" lon="2.8545161145989733"><ele>79.66666666666666</ele><time>2026-03-23T13:12:52.998Z</time></trkpt><trkpt lat="42.54760374103425" lon="2.854340430562713"><ele>79.0</ele><time>2026-03-23T13:12:53.998Z</time></trkpt><trkpt lat="42.547426216592406" lon="2.8541670303367206"><ele>79.0</ele><time>2026-03-23T13:12:54.998Z</time></trkpt><trkpt lat="42.54724932842837" lon="2.85398376804934"><ele>79.0</ele><time>2026-03-23T13:12:55.998Z</time></trkpt><trkpt lat="42.54708362722563" lon="2.8537963692253077"><ele>79.0</ele><time>2026-03-23T13:12:56.998Z</time></trkpt><trkpt lat="42.54693388749238" lon="2.8536222118198404"><ele>78.66666666666666</ele><time>2026-03-23T13:12:57.998Z</time></trkpt><trkpt lat="42.54679648782635" lon="2.8534566485682737"><ele>78.33333333333333</ele><time>2026-03-23T13:12:58.998Z</time></trkpt><trkpt lat="42.5466531477154" lon="2.8532792837566343"><ele>78.0</ele><time>2026-03-23T13:12:59.998Z</time></trkpt><trkpt lat="42.546513452365936" lon="2.8530941901689526"><ele>78.0</ele><time>2026-03-23T13:13:00.998Z</time></trkpt><trkpt lat="42.54637464109551" lon="2.852917579024807"><ele>78.0</ele><time>2026-03-23T13:13:01.998Z</time></trkpt><trkpt lat="42.54623552824564" lon="2.8527460014080175"><ele>78.0</ele><time>2026-03-23T13:13:02.998Z</time></trkpt><trkpt lat="42.54610099749278" lon="2.852578569964626"><ele>78.33333333333333</ele><time>2026-03-23T13:13:03.998Z</time></trkpt><trkpt lat="42.545974438338696" lon="2.8524160915291508"><ele>78.66666666666666</ele><time>2026-03-23T13:13:04.998Z</time></trkpt><trkpt lat="42.54584805298579" lon="2.852260097766366"><ele>79.0</ele><time>2026-03-23T13:13:05.998Z</time></trkpt><trkpt lat="42.54572993476572" lon="2.852113864118677"><ele>79.0</ele><time>2026-03-23T13:13:06.998Z</time></trkpt><trkpt lat="42.5456125178513" lon="2.851960008376761"><ele>79.0</ele><time>2026-03-23T13:13:07.998Z</time></trkpt><trkpt lat="42.54550101853716" lon="2.851818326716921"><ele>79.0</ele><time>2026-03-23T13:13:08.998Z</time></trkpt><trkpt lat="42.545405319947484" lon="2.8516962582792305"><ele>79.0</ele><time>2026-03-23T13:13:09.998Z</time></trkpt><trkpt lat="42.54534176841197" lon="2.851603763292622"><ele>79.25</ele><time>2026-03-23T13:13:10.998Z</time></trkpt><trkpt lat="42.545300788997515" lon="2.851529820724118"><ele>79.5</ele><time>2026-03-23T13:13:11.998Z</time></trkpt><trkpt lat="42.54509641042327" lon="2.8513002947614137"><ele>79.75</ele><time>2026-03-23T13:13:12.998Z</time></trkpt><trkpt lat="42.545023338075424" lon="2.851199473125008"><ele>80.0</ele><time>2026-03-23T13:13:13.998Z</time></trkpt><trkpt lat="42.5449632474815" lon="2.8511104507016407"><ele>80.0</ele><time>2026-03-23T13:13:14.998Z</time></trkpt><trkpt lat="42.54492131963832" lon="2.851015602639517"><ele>80.0</ele><time>2026-03-23T13:13:15.998Z</time></trkpt><trkpt lat="42.54488628891956" lon="2.850918564723761"><ele>80.0</ele><time>2026-03-23T13:13:16.998Z</time></trkpt><trkpt lat="42.54485450029236" lon="2.8508345092535747"><ele>80.0</ele><time>2026-03-23T13:13:17.998Z</time></trkpt><trkpt lat="42.544862269326934" lon="2.850718365369093"><ele>80.0</ele><time>2026-03-23T13:13:18.998Z</time></trkpt><trkpt lat="42.54487468906755" lon="2.8506055402820016"><ele>80.0</ele><time>2026-03-23T13:13:19.998Z</time></trkpt><trkpt lat="42.54486132429711" lon="2.8504968129289003"><ele>80.16666666666667</ele><time>2026-03-23T13:13:20.998Z</time></trkpt><trkpt lat="42.544810629445045" lon="2.8504021502840433"><ele>80.33333333333334</ele><time>2026-03-23T13:13:21.998Z</time></trkpt><trkpt lat="42.54474649051628" lon="2.8503203944761792"><ele>80.5</ele><time>2026-03-23T13:13:22.998Z</time></trkpt><trkpt lat="42.5446521837827" lon="2.8502947454303094"><ele>80.66666666666667</ele><time>2026-03-23T13:13:23.998Z</time></trkpt><trkpt lat="42.54456427301027" lon="2.8502906868396627"><ele>80.83333333333333</ele><time>2026-03-23T13:13:24.998Z</time></trkpt><trkpt lat="42.54447499708227" lon="2.8502683072725437"><ele>81.0</ele><time>2026-03-23T13:13:25.998Z</time></trkpt><trkpt lat="42.54442569695395" lon="2.8500706536840408"><ele>81.25</ele><time>2026-03-23T13:13:26.998Z</time></trkpt><trkpt lat="42.544375392201374" lon="2.8499227488140075"><ele>81.5</ele><time>2026-03-23T13:13:28Z</time></trkpt><trkpt lat="42.54432451618498" lon="2.849754216858945"><ele>81.75</ele><time>2026-03-23T13:13:29Z</time></trkpt><trkpt lat="42.54427011498847" lon="2.8495766760618673"><ele>82.0</ele><time>2026-03-23T13:13:30Z</time></trkpt><trkpt lat="42.544207740491785" lon="2.8493797683205653"><ele>82.66666666666666</ele><time>2026-03-23T13:13:31Z</time></trkpt><trkpt lat="42.54413991331542" lon="2.8491694079990455"><ele>83.33333333333333</ele><time>2026-03-23T13:13:32Z</time></trkpt><trkpt lat="42.544063392024924" lon="2.848937005456493"><ele>84.0</ele><time>2026-03-23T13:13:33Z</time></trkpt><trkpt lat="42.54398244211631" lon="2.8486938539250977"><ele>85.33333333333333</ele><time>2026-03-23T13:13:34Z</time></trkpt><trkpt lat="42.543903582154186" lon="2.8484505863425555"><ele>86.66666666666666</ele><time>2026-03-23T13:13:35Z</time></trkpt><trkpt lat="42.54381913063066" lon="2.8481868925983935"><ele>88.0</ele><time>2026-03-23T13:13:36Z</time></trkpt><trkpt lat="42.54374251257028" lon="2.8479527054784226"><ele>87.66666666666666</ele><time>2026-03-23T13:13:37Z</time></trkpt><trkpt lat="42.543668356899374" lon="2.8477213897648292"><ele>87.33333333333333</ele><time>2026-03-23T13:13:38Z</time></trkpt><trkpt lat="42.54359585075885" lon="2.8474934152792715"><ele>87.0</ele><time>2026-03-23T13:13:39Z</time></trkpt><trkpt lat="42.54351988723215" lon="2.847272153038605"><ele>87.0</ele><time>2026-03-23T13:13:40Z</time></trkpt><trkpt lat="42.54344360117594" lon="2.84704681561637"><ele>87.0</ele><time>2026-03-23T13:13:41Z</time></trkpt><trkpt lat="42.543368050735985" lon="2.846824836955466"><ele>87.0</ele><time>2026-03-23T13:13:42Z</time></trkpt><trkpt lat="42.54329123594177" lon="2.8466041219254787"><ele>87.66666666666667</ele><time>2026-03-23T13:13:43Z</time></trkpt><trkpt lat="42.54321530261774" lon="2.846384323364301"><ele>88.33333333333334</ele><time>2026-03-23T13:13:44Z</time></trkpt><trkpt lat="42.54314681924218" lon="2.846114759287896"><ele>89.0</ele><time>2026-03-23T13:13:45Z</time></trkpt><trkpt lat="42.54305952965139" lon="2.8458764323772994"><ele>89.0</ele><time>2026-03-23T13:13:46Z</time></trkpt><trkpt lat="42.542963953781985" lon="2.8456413296111975"><ele>89.0</ele><time>2026-03-23T13:13:47Z</time></trkpt><trkpt lat="42.54285670017556" lon="2.8454164564369573"><ele>89.0</ele><time>2026-03-23T13:13:48Z</time></trkpt><trkpt lat="42.54273563673719" lon="2.8451968316461436"><ele>89.0</ele><time>2026-03-23T13:13:49Z</time></trkpt><trkpt lat="42.542605405611525" lon="2.8449864185491496"><ele>89.0</ele><time>2026-03-23T13:13:50Z</time></trkpt><trkpt lat="42.54246196106812" lon="2.844779363921974"><ele>89.0</ele><time>2026-03-23T13:13:51Z</time></trkpt><trkpt lat="42.54230239530978" lon="2.844576790557976"><ele>89.0</ele><time>2026-03-23T13:13:52Z</time></trkpt><trkpt lat="42.542136674200016" lon="2.8443820083439038"><ele>89.0</ele><time>2026-03-23T13:13:53Z</time></trkpt><trkpt lat="42.54197282516281" lon="2.84419993542969"><ele>89.0</ele><time>2026-03-23T13:13:54Z</time></trkpt><trkpt lat="42.54180578165571" lon="2.844017355892833"><ele>88.66666666666667</ele><time>2026-03-23T13:13:55Z</time></trkpt><trkpt lat="42.54163972305179" lon="2.8438606851904766"><ele>88.33333333333333</ele><time>2026-03-23T13:13:56Z</time></trkpt><trkpt lat="42.541471433598346" lon="2.8436867766261478"><ele>88.0</ele><time>2026-03-23T13:13:57Z</time></trkpt><trkpt lat="42.541309217607896" lon="2.84351231888779"><ele>88.66666666666666</ele><time>2026-03-23T13:13:58Z</time></trkpt><trkpt lat="42.541142651769775" lon="2.8433336343067186"><ele>89.33333333333333</ele><time>2026-03-23T13:13:59Z</time></trkpt><trkpt lat="42.54097100748942" lon="2.8431515679691466"><ele>90.0</ele><time>2026-03-23T13:14:00Z</time></trkpt><trkpt lat="42.54080254672828" lon="2.842958890356226"><ele>90.0</ele><time>2026-03-23T13:14:01Z</time></trkpt><trkpt lat="42.5406418875216" lon="2.8427511739091216"><ele>90.0</ele><time>2026-03-23T13:14:02Z</time></trkpt><trkpt lat="42.54048905052427" lon="2.842542464562747"><ele>90.0</ele><time>2026-03-23T13:14:03Z</time></trkpt><trkpt lat="42.54034104065704" lon="2.842328751170454"><ele>88.66666666666667</ele><time>2026-03-23T13:14:04Z</time></trkpt><trkpt lat="42.540200077353774" lon="2.842107432240789"><ele>87.33333333333334</ele><time>2026-03-23T13:14:05Z</time></trkpt><trkpt lat="42.5400651420451" lon="2.841886142516484"><ele>86.0</ele><time>2026-03-23T13:14:06Z</time></trkpt><trkpt lat="42.539931363042975" lon="2.8416654047036674"><ele>85.66666666666667</ele><time>2026-03-23T13:14:07Z</time></trkpt><trkpt lat="42.53979713987212" lon="2.8414458472763227"><ele>85.33333333333333</ele><time>2026-03-23T13:14:08Z</time></trkpt><trkpt lat="42.539662384435985" lon="2.841225613526575"><ele>85.0</ele><time>2026-03-23T13:14:09Z</time></trkpt><trkpt lat="42.53952683433155" lon="2.8410066379869727"><ele>86.0</ele><time>2026-03-23T13:14:09.999Z</time></trkpt><trkpt lat="42.53938800759182" lon="2.84078955818756"><ele>87.0</ele><time>2026-03-23T13:14:10.999Z</time></trkpt><trkpt lat="42.53895899438736" lon="2.840105763524506"><ele>87.5</ele><time>2026-03-23T13:14:13.999Z</time></trkpt><trkpt lat="42.538815366162915" lon="2.839872870131439"><ele>88.0</ele><time>2026-03-23T13:14:14.999Z</time></trkpt><trkpt lat="42.53866977318478" lon="2.83963759411039"><ele>88.0</ele><time>2026-03-23T13:14:15.999Z</time></trkpt><trkpt lat="42.53852837672376" lon="2.83939799909696"><ele>88.0</ele><time>2026-03-23T13:14:16.999Z</time></trkpt><trkpt lat="42.53838993165833" lon="2.83915195830843"><ele>90.0</ele><time>2026-03-23T13:14:17.999Z</time></trkpt><trkpt lat="42.53825784130931" lon="2.8388991627238997"><ele>92.0</ele><time>2026-03-23T13:14:18.999Z</time></trkpt><trkpt lat="42.538134646506904" lon="2.8386382681209543"><ele>94.0</ele><time>2026-03-23T13:14:19.999Z</time></trkpt><trkpt lat="42.538013410214184" lon="2.838375223778357"><ele>96.0</ele><time>2026-03-23T13:14:20.999Z</time></trkpt><trkpt lat="42.53789085766189" lon="2.838110141689341"><ele>95.0</ele><time>2026-03-23T13:14:21.999Z</time></trkpt><trkpt lat="42.53777197562971" lon="2.837841447696506"><ele>94.0</ele><time>2026-03-23T13:14:22.999Z</time></trkpt><trkpt lat="42.53765683021557" lon="2.837569159349875"><ele>94.0</ele><time>2026-03-23T13:14:23.999Z</time></trkpt><trkpt lat="42.53754374925762" lon="2.837291687633455"><ele>94.0</ele><time>2026-03-23T13:14:24.999Z</time></trkpt><trkpt lat="42.53743766207947" lon="2.837007309481266"><ele>98.0</ele><time>2026-03-23T13:14:25.999Z</time></trkpt><trkpt lat="42.537339702593286" lon="2.8367141913362195"><ele>102.0</ele><time>2026-03-23T13:14:26.999Z</time></trkpt><trkpt lat="42.5372472293256" lon="2.8364166068367735"><ele>102.0</ele><time>2026-03-23T13:14:27.999Z</time></trkpt><trkpt lat="42.53715828751792" lon="2.8361144753647967"><ele>102.0</ele><time>2026-03-23T13:14:28.999Z</time></trkpt><trkpt lat="42.53707423209469" lon="2.83581561693263"><ele>99.5</ele><time>2026-03-23T13:14:29.999Z</time></trkpt><trkpt lat="42.5369966303573" lon="2.8355220009584845"><ele>97.0</ele><time>2026-03-23T13:14:30.999Z</time></trkpt><trkpt lat="42.5369270680148" lon="2.835232293857872"><ele>98.66666666666667</ele><time>2026-03-23T13:14:31.999Z</time></trkpt><trkpt lat="42.53686231486978" lon="2.8349436385843383"><ele>100.33333333333334</ele><time>2026-03-23T13:14:32.999Z</time></trkpt><trkpt lat="42.53680149808556" lon="2.834654822697064"><ele>102.0</ele><time>2026-03-23T13:14:33.999Z</time></trkpt><trkpt lat="42.53674737793249" lon="2.834363505602295"><ele>103.66666666666666</ele><time>2026-03-23T13:14:34.999Z</time></trkpt><trkpt lat="42.53669640647342" lon="2.8340802666726908"><ele>105.33333333333333</ele><time>2026-03-23T13:14:35.999Z</time></trkpt><trkpt lat="42.536658469281726" lon="2.8337964839863083"><ele>107.0</ele><time>2026-03-23T13:14:36.999Z</time></trkpt><trkpt lat="42.53661538607293" lon="2.833496563260474"><ele>109.33333333333333</ele><time>2026-03-23T13:14:37.999Z</time></trkpt><trkpt lat="42.536569000412705" lon="2.833206533887099"><ele>111.66666666666666</ele><time>2026-03-23T13:14:38.999Z</time></trkpt><trkpt lat="42.53651889241427" lon="2.8329148551194177"><ele>114.0</ele><time>2026-03-23T13:14:39.999Z</time></trkpt><trkpt lat="42.53646756609827" lon="2.832620565560498"><ele>115.0</ele><time>2026-03-23T13:14:40.999Z</time></trkpt><trkpt lat="42.53641763570046" lon="2.8323268628215983"><ele>116.0</ele><time>2026-03-23T13:14:41.999Z</time></trkpt><trkpt lat="42.53636752052569" lon="2.8320396731605126"><ele>117.0</ele><time>2026-03-23T13:14:42.999Z</time></trkpt><trkpt lat="42.53631776567012" lon="2.8317542682254193"><ele>117.33333333333334</ele><time>2026-03-23T13:14:43.999Z</time></trkpt><trkpt lat="42.5362672783384" lon="2.831464597509252"><ele>117.66666666666667</ele><time>2026-03-23T13:14:44.999Z</time></trkpt><trkpt lat="42.53621820293955" lon="2.8311714312354734"><ele>118.0</ele><time>2026-03-23T13:14:45.999Z</time></trkpt><trkpt lat="42.536170776610504" lon="2.830879035960525"><ele>114.66666666666667</ele><time>2026-03-23T13:14:46.999Z</time></trkpt><trkpt lat="42.536122255441725" lon="2.830583496469528"><ele>111.33333333333334</ele><time>2026-03-23T13:14:47.999Z</time></trkpt><trkpt lat="42.536073767684975" lon="2.830285899685503"><ele>108.0</ele><time>2026-03-23T13:14:48.999Z</time></trkpt><trkpt lat="42.53602445573639" lon="2.829990204301829"><ele>107.66666666666666</ele><time>2026-03-23T13:14:49.999Z</time></trkpt><trkpt lat="42.535974365747066" lon="2.829693698010646"><ele>107.33333333333333</ele><time>2026-03-23T13:14:50.999Z</time></trkpt><trkpt lat="42.53592238526431" lon="2.8293969079885946"><ele>107.0</ele><time>2026-03-23T13:14:51.999Z</time></trkpt><trkpt lat="42.535866482832766" lon="2.829100533407112"><ele>106.5</ele><time>2026-03-23T13:14:52.999Z</time></trkpt><trkpt lat="42.53580350154449" lon="2.8288068892829767"><ele>106.0</ele><time>2026-03-23T13:14:53.999Z</time></trkpt><trkpt lat="42.53573210762228" lon="2.8285162100200285"><ele>105.5</ele><time>2026-03-23T13:14:54.999Z</time></trkpt><trkpt lat="42.53565502275459" lon="2.828228366105109"><ele>105.0</ele><time>2026-03-23T13:14:55.999Z</time></trkpt><trkpt lat="42.53557489361263" lon="2.8279385928038776"><ele>105.0</ele><time>2026-03-23T13:14:56.999Z</time></trkpt><trkpt lat="42.535493332111166" lon="2.827647999555719"><ele>105.0</ele><time>2026-03-23T13:14:57.999Z</time></trkpt><trkpt lat="42.53540556298976" lon="2.827358148974113"><ele>102.0</ele><time>2026-03-23T13:14:58.999Z</time></trkpt><trkpt lat="42.535310899825134" lon="2.827067401083723"><ele>99.0</ele><time>2026-03-23T13:14:59.999Z</time></trkpt><trkpt lat="42.53521492657146" lon="2.8267799528725153"><ele>95.5</ele><time>2026-03-23T13:15:00.999Z</time></trkpt><trkpt lat="42.5351225245867" lon="2.8264939170840653"><ele>92.0</ele><time>2026-03-23T13:15:01.999Z</time></trkpt><trkpt lat="42.535032505204" lon="2.826203379105091"><ele>89.5</ele><time>2026-03-23T13:15:02.999Z</time></trkpt><trkpt lat="42.5349437369135" lon="2.8259159891617998"><ele>87.0</ele><time>2026-03-23T13:15:03.999Z</time></trkpt><trkpt lat="42.53485364089106" lon="2.825630014926524"><ele>87.0</ele><time>2026-03-23T13:15:04.999Z</time></trkpt><trkpt lat="42.53476642817683" lon="2.825344773116599"><ele>87.0</ele><time>2026-03-23T13:15:05.999Z</time></trkpt><trkpt lat="42.53467964759452" lon="2.825058965608213"><ele>86.0</ele><time>2026-03-23T13:15:06.999Z</time></trkpt><trkpt lat="42.53459443233337" lon="2.8247793220119393"><ele>85.0</ele><time>2026-03-23T13:15:07.999Z</time></trkpt><trkpt lat="42.534507869071824" lon="2.8244991430682633"><ele>84.0</ele><time>2026-03-23T13:15:08.998Z</time></trkpt><trkpt lat="42.53442091391829" lon="2.824217345823247"><ele>86.33333333333333</ele><time>2026-03-23T13:15:09.998Z</time></trkpt><trkpt lat="42.53433574267696" lon="2.8239385642110904"><ele>88.66666666666666</ele><time>2026-03-23T13:15:10.998Z</time></trkpt><trkpt lat="42.53425047072015" lon="2.823658629995871"><ele>91.0</ele><time>2026-03-23T13:15:11.998Z</time></trkpt><trkpt lat="42.53416635099585" lon="2.8233847618214774"><ele>92.33333333333333</ele><time>2026-03-23T13:15:12.998Z</time></trkpt><trkpt lat="42.53408086900371" lon="2.8231166692359295"><ele>93.66666666666667</ele><time>2026-03-23T13:15:13.998Z</time></trkpt><trkpt lat="42.533988407470865" lon="2.822851697121213"><ele>95.0</ele><time>2026-03-23T13:15:14.998Z</time></trkpt><trkpt lat="42.53388699865152" lon="2.822589008468269"><ele>95.0</ele><time>2026-03-23T13:15:15.998Z</time></trkpt><trkpt lat="42.53378339687" lon="2.8223317729865247"><ele>95.0</ele><time>2026-03-23T13:15:16.998Z</time></trkpt><trkpt lat="42.53367221202748" lon="2.822077868623993"><ele>95.0</ele><time>2026-03-23T13:15:17.998Z</time></trkpt><trkpt lat="42.53355853591844" lon="2.8218279549427727"><ele>96.0</ele><time>2026-03-23T13:15:18.998Z</time></trkpt><trkpt lat="42.53344034679937" lon="2.8215801797714484"><ele>97.0</ele><time>2026-03-23T13:15:19.998Z</time></trkpt><trkpt lat="42.533317500563165" lon="2.821336892345485"><ele>98.0</ele><time>2026-03-23T13:15:20.998Z</time></trkpt><trkpt lat="42.533186719589175" lon="2.8210983982545343"><ele>97.33333333333333</ele><time>2026-03-23T13:15:21.998Z</time></trkpt><trkpt lat="42.53305189089523" lon="2.820865221632281"><ele>96.66666666666666</ele><time>2026-03-23T13:15:22.998Z</time></trkpt><trkpt lat="42.532912570796775" lon="2.820635143504305"><ele>96.0</ele><time>2026-03-23T13:15:23.998Z</time></trkpt><trkpt lat="42.5327679640348" lon="2.820412795890584"><ele>96.0</ele><time>2026-03-23T13:15:24.998Z</time></trkpt><trkpt lat="42.53261791317399" lon="2.82019419592099"><ele>96.0</ele><time>2026-03-23T13:15:25.998Z</time></trkpt><trkpt lat="42.53246738448542" lon="2.8199779523279225"><ele>96.0</ele><time>2026-03-23T13:15:26.998Z</time></trkpt><trkpt lat="42.53231738040492" lon="2.8197613452612003"><ele>98.0</ele><time>2026-03-23T13:15:27.998Z</time></trkpt><trkpt lat="42.5321699040216" lon="2.8195422129919514"><ele>100.0</ele><time>2026-03-23T13:15:28.998Z</time></trkpt><trkpt lat="42.53202490667491" lon="2.8193220407318376"><ele>102.0</ele><time>2026-03-23T13:15:29.998Z</time></trkpt><trkpt lat="42.531884433248955" lon="2.81909533739094"><ele>103.33333333333334</ele><time>2026-03-23T13:15:30.998Z</time></trkpt><trkpt lat="42.531748259864145" lon="2.8188608096888412"><ele>104.66666666666667</ele><time>2026-03-23T13:15:31.998Z</time></trkpt><trkpt lat="42.53161870158996" lon="2.8186178571883636"><ele>106.0</ele><time>2026-03-23T13:15:32.998Z</time></trkpt><trkpt lat="42.53149373950101" lon="2.8183662728479613"><ele>108.0</ele><time>2026-03-23T13:15:34Z</time></trkpt><trkpt lat="42.53136990196865" lon="2.8181157508323302"><ele>110.0</ele><time>2026-03-23T13:15:35Z</time></trkpt><trkpt lat="42.531246195259904" lon="2.817860935248483"><ele>112.0</ele><time>2026-03-23T13:15:36Z</time></trkpt><trkpt lat="42.53112958289155" lon="2.8176058088149936"><ele>112.0</ele><time>2026-03-23T13:15:37Z</time></trkpt><trkpt lat="42.531016679481375" lon="2.817343486572856"><ele>112.0</ele><time>2026-03-23T13:15:38Z</time></trkpt><trkpt lat="42.5309087846762" lon="2.8170734980464096"><ele>114.0</ele><time>2026-03-23T13:15:39Z</time></trkpt><trkpt lat="42.53080678427591" lon="2.8167970412889134"><ele>116.0</ele><time>2026-03-23T13:15:40Z</time></trkpt><trkpt lat="42.530711039351154" lon="2.8165208787713625"><ele>116.0</ele><time>2026-03-23T13:15:41Z</time></trkpt><trkpt lat="42.5306175347177" lon="2.8162431202915696"><ele>116.0</ele><time>2026-03-23T13:15:42Z</time></trkpt><trkpt lat="42.53053138726358" lon="2.8159616052246923"><ele>116.0</ele><time>2026-03-23T13:15:43Z</time></trkpt><trkpt lat="42.53044946808329" lon="2.815677162186062"><ele>116.0</ele><time>2026-03-23T13:15:44Z</time></trkpt><trkpt lat="42.530374338674484" lon="2.8153929498923054"><ele>116.0</ele><time>2026-03-23T13:15:45Z</time></trkpt><trkpt lat="42.53030334243205" lon="2.8150998631794812"><ele>116.0</ele><time>2026-03-23T13:15:46Z</time></trkpt><trkpt lat="42.53023775376828" lon="2.8148112939858785"><ele>116.0</ele><time>2026-03-23T13:15:47Z</time></trkpt><trkpt lat="42.530176380565244" lon="2.814519439292511"><ele>116.0</ele><time>2026-03-23T13:15:48Z</time></trkpt><trkpt lat="42.530122114899314" lon="2.814227756973045"><ele>116.66666666666666</ele><time>2026-03-23T13:15:49Z</time></trkpt><trkpt lat="42.53007257477654" lon="2.8139358515462636"><ele>117.33333333333334</ele><time>2026-03-23T13:15:50Z</time></trkpt><trkpt lat="42.53002465966435" lon="2.813647507878144"><ele>118.0</ele><time>2026-03-23T13:15:51Z</time></trkpt><trkpt lat="42.529977470418565" lon="2.8133507439102616"><ele>118.0</ele><time>2026-03-23T13:15:52Z</time></trkpt><trkpt lat="42.52993945163538" lon="2.8130561180722418"><ele>118.0</ele><time>2026-03-23T13:15:53Z</time></trkpt><trkpt lat="42.529898357201546" lon="2.812763648426221"><ele>118.0</ele><time>2026-03-23T13:15:54Z</time></trkpt><trkpt lat="42.52985327180194" lon="2.812473311992241"><ele>117.66666666666667</ele><time>2026-03-23T13:15:55Z</time></trkpt><trkpt lat="42.52980013648346" lon="2.812182003602765"><ele>117.33333333333334</ele><time>2026-03-23T13:15:56Z</time></trkpt><trkpt lat="42.529741125813146" lon="2.8118961488977683"><ele>117.0</ele><time>2026-03-23T13:15:57Z</time></trkpt><trkpt lat="42.529674425672866" lon="2.81161176230397"><ele>119.66666666666666</ele><time>2026-03-23T13:15:58Z</time></trkpt><trkpt lat="42.52959958215005" lon="2.811332450757867"><ele>122.33333333333333</ele><time>2026-03-23T13:15:59Z</time></trkpt><trkpt lat="42.52951755333277" lon="2.8110547315043757"><ele>125.0</ele><time>2026-03-23T13:16:00Z</time></trkpt><trkpt lat="42.52943051547304" lon="2.810780017952341"><ele>125.33333333333333</ele><time>2026-03-23T13:16:01Z</time></trkpt><trkpt lat="42.5293347899504" lon="2.810508846761298"><ele>125.66666666666666</ele><time>2026-03-23T13:16:02Z</time></trkpt><trkpt lat="42.52922698376162" lon="2.810242600407698"><ele>126.0</ele><time>2026-03-23T13:16:03Z</time></trkpt><trkpt lat="42.529112738610884" lon="2.809981112746262"><ele>127.66666666666666</ele><time>2026-03-23T13:16:04Z</time></trkpt><trkpt lat="42.52899523847736" lon="2.8097249177236465"><ele>129.33333333333331</ele><time>2026-03-23T13:16:05Z</time></trkpt><trkpt lat="42.52887078601346" lon="2.809475951492535"><ele>131.0</ele><time>2026-03-23T13:16:06Z</time></trkpt><trkpt lat="42.52874122950336" lon="2.8092326628155964"><ele>131.0</ele><time>2026-03-23T13:16:07Z</time></trkpt><trkpt lat="42.52860477972576" lon="2.8089935581949566"><ele>131.0</ele><time>2026-03-23T13:16:08Z</time></trkpt><trkpt lat="42.528460729732465" lon="2.8087600891845317"><ele>131.0</ele><time>2026-03-23T13:16:09Z</time></trkpt><trkpt lat="42.52830876928233" lon="2.808532993639767"><ele>131.66666666666666</ele><time>2026-03-23T13:16:10Z</time></trkpt><trkpt lat="42.528151963194176" lon="2.8083135328096684"><ele>132.33333333333334</ele><time>2026-03-23T13:16:11Z</time></trkpt><trkpt lat="42.527990551556144" lon="2.808103672825983"><ele>133.0</ele><time>2026-03-23T13:16:12Z</time></trkpt><trkpt lat="42.527828042675104" lon="2.8079040198825975"><ele>133.33333333333334</ele><time>2026-03-23T13:16:13Z</time></trkpt><trkpt lat="42.52766231211229" lon="2.8077119299156443"><ele>133.66666666666666</ele><time>2026-03-23T13:16:14Z</time></trkpt><trkpt lat="42.527493754511525" lon="2.807532566084006"><ele>134.0</ele><time>2026-03-23T13:16:15Z</time></trkpt><trkpt lat="42.52733135681429" lon="2.8073750561415625"><ele>134.0</ele><time>2026-03-23T13:16:16Z</time></trkpt><trkpt lat="42.5271708071808" lon="2.8072287848653823"><ele>134.0</ele><time>2026-03-23T13:16:17Z</time></trkpt><trkpt lat="42.527009249044916" lon="2.807094992613171"><ele>134.0</ele><time>2026-03-23T13:16:18Z</time></trkpt><trkpt lat="42.52685859477161" lon="2.806974652919217"><ele>130.25</ele><time>2026-03-23T13:16:19Z</time></trkpt><trkpt lat="42.52671611205706" lon="2.8068613993482994"><ele>126.5</ele><time>2026-03-23T13:16:20Z</time></trkpt><trkpt lat="42.526591655005305" lon="2.806770059985992"><ele>122.75</ele><time>2026-03-23T13:16:21Z</time></trkpt><trkpt lat="42.52647819368542" lon="2.8067006568928865"><ele>119.0</ele><time>2026-03-23T13:16:22Z</time></trkpt><trkpt lat="42.526380274214176" lon="2.8066486814075304"><ele>117.66666666666666</ele><time>2026-03-23T13:16:23Z</time></trkpt><trkpt lat="42.52615023697518" lon="2.806476776987686"><ele>116.33333333333334</ele><time>2026-03-23T13:16:24Z</time></trkpt><trkpt lat="42.526032127012144" lon="2.806409604097595"><ele>115.0</ele><time>2026-03-23T13:16:25Z</time></trkpt><trkpt lat="42.525930745165645" lon="2.80634863748993"><ele>115.00000000000001</ele><time>2026-03-23T13:16:25.999Z</time></trkpt><trkpt lat="42.52583479818026" lon="2.806290636229897"><ele>115.0</ele><time>2026-03-23T13:16:26.999Z</time></trkpt><trkpt lat="42.525747886042396" lon="2.806235269556166"><ele>115.0</ele><time>2026-03-23T13:16:27.999Z</time></trkpt><trkpt lat="42.525677355580775" lon="2.8061767084780813"><ele>115.0</ele><time>2026-03-23T13:16:28.999Z</time></trkpt><trkpt lat="42.52565968968184" lon="2.8060706730239833"><ele>115.00000000000001</ele><time>2026-03-23T13:16:29.999Z</time></trkpt><trkpt lat="42.52562234585758" lon="2.805990748637803"><ele>115.0</ele><time>2026-03-23T13:16:30.999Z</time></trkpt><trkpt lat="42.525569624028236" lon="2.8059157056044333"><ele>115.2</ele><time>2026-03-23T13:16:31.999Z</time></trkpt><trkpt lat="42.52550777025033" lon="2.805845425425506"><ele>115.4</ele><time>2026-03-23T13:16:32.999Z</time></trkpt><trkpt lat="42.52542542696793" lon="2.8058040760319187"><ele>115.6</ele><time>2026-03-23T13:16:33.999Z</time></trkpt><trkpt lat="42.52533132092751" lon="2.8058013652136506"><ele>115.8</ele><time>2026-03-23T13:16:34.999Z</time></trkpt><trkpt lat="42.52523176844558" lon="2.8058431124895753"><ele>116.0</ele><time>2026-03-23T13:16:35.999Z</time></trkpt><trkpt lat="42.525138383456614" lon="2.805917496032872"><ele>114.5</ele><time>2026-03-23T13:16:36.999Z</time></trkpt><trkpt lat="42.52503772348435" lon="2.805973764948006"><ele>113.0</ele><time>2026-03-23T13:16:37.999Z</time></trkpt><trkpt lat="42.52492236513667" lon="2.8059865441158163"><ele>111.5</ele><time>2026-03-23T13:16:38.999Z</time></trkpt><trkpt lat="42.524786607974235" lon="2.8059666862088957"><ele>110.0</ele><time>2026-03-23T13:16:39.999Z</time></trkpt><trkpt lat="42.5246360660264" lon="2.8059259788951443"><ele>108.33333333333333</ele><time>2026-03-23T13:16:40.999Z</time></trkpt><trkpt lat="42.524473134159756" lon="2.805884603572431"><ele>106.66666666666666</ele><time>2026-03-23T13:16:41.999Z</time></trkpt><trkpt lat="42.52429438511168" lon="2.8058490804237337"><ele>105.0</ele><time>2026-03-23T13:16:42.999Z</time></trkpt><trkpt lat="42.52410789759467" lon="2.805819340038868"><ele>105.0</ele><time>2026-03-23T13:16:43.999Z</time></trkpt><trkpt lat="42.52392690023015" lon="2.8057826780773087"><ele>105.0</ele><time>2026-03-23T13:16:44.999Z</time></trkpt><trkpt lat="42.52373801930907" lon="2.805760003347667"><ele>105.0</ele><time>2026-03-23T13:16:45.999Z</time></trkpt><trkpt lat="42.523535395798454" lon="2.805794272492845"><ele>105.33333333333334</ele><time>2026-03-23T13:16:46.999Z</time></trkpt><trkpt lat="42.5233432278152" lon="2.8058110442150332"><ele>105.66666666666667</ele><time>2026-03-23T13:16:47.999Z</time></trkpt><trkpt lat="42.523153734973576" lon="2.805831569187879"><ele>106.0</ele><time>2026-03-23T13:16:48.999Z</time></trkpt><trkpt lat="42.522966853198135" lon="2.8058546107093356"><ele>103.66666666666667</ele><time>2026-03-23T13:16:49.999Z</time></trkpt><trkpt lat="42.522783807639314" lon="2.8058768839249035"><ele>101.33333333333334</ele><time>2026-03-23T13:16:50.999Z</time></trkpt><trkpt lat="42.522610347958576" lon="2.8058979531397026"><ele>99.0</ele><time>2026-03-23T13:16:51.999Z</time></trkpt><trkpt lat="42.52244191449261" lon="2.805920007315432"><ele>99.0</ele><time>2026-03-23T13:16:52.999Z</time></trkpt><trkpt lat="42.52227632948775" lon="2.805941075055508"><ele>99.0</ele><time>2026-03-23T13:16:53.999Z</time></trkpt><trkpt lat="42.52211676751619" lon="2.805957091952294"><ele>99.0</ele><time>2026-03-23T13:16:54.999Z</time></trkpt><trkpt lat="42.52195431272439" lon="2.8059750619363237"><ele>97.0</ele><time>2026-03-23T13:16:55.999Z</time></trkpt><trkpt lat="42.5217893330547" lon="2.8059944258691165"><ele>95.0</ele><time>2026-03-23T13:16:56.999Z</time></trkpt><trkpt lat="42.52163054829014" lon="2.806009746450806"><ele>93.0</ele><time>2026-03-23T13:16:57.999Z</time></trkpt><trkpt lat="42.521485713545296" lon="2.806023977061702"><ele>92.80000000000001</ele><time>2026-03-23T13:16:58.999Z</time></trkpt><trkpt lat="42.52135552902992" lon="2.806033760211528"><ele>92.6</ele><time>2026-03-23T13:16:59.999Z</time></trkpt><trkpt lat="42.52124074632291" lon="2.8060394802583857"><ele>92.4</ele><time>2026-03-23T13:17:00.999Z</time></trkpt><trkpt lat="42.521144005744205" lon="2.8060347209235066"><ele>92.19999999999999</ele><time>2026-03-23T13:17:01.999Z</time></trkpt><trkpt lat="42.52106241621297" lon="2.8060280754609215"><ele>92.0</ele><time>2026-03-23T13:17:02.999Z</time></trkpt><trkpt lat="42.52095559979798" lon="2.8060162897108727"><ele>92.0</ele><time>2026-03-23T13:17:04.999Z</time></trkpt><trkpt lat="42.52087739557477" lon="2.805975166892442"><ele>92.0</ele><time>2026-03-23T13:17:06.999Z</time></trkpt><trkpt lat="42.52076996766999" lon="2.8058214151852843"><ele>92.0</ele><time>2026-03-23T13:17:08.999Z</time></trkpt><trkpt lat="42.52072923125599" lon="2.8057169969957285"><ele>92.0</ele><time>2026-03-23T13:17:09.999Z</time></trkpt><trkpt lat="42.520707046031355" lon="2.805585412861754"><ele>92.0</ele><time>2026-03-23T13:17:10.999Z</time></trkpt><trkpt lat="42.520711762525885" lon="2.805445642615031"><ele>92.0</ele><time>2026-03-23T13:17:11.999Z</time></trkpt><trkpt lat="42.5207305288336" lon="2.805286770666236"><ele>92.0</ele><time>2026-03-23T13:17:12.999Z</time></trkpt><trkpt lat="42.52074247788639" lon="2.805099018076202"><ele>92.0</ele><time>2026-03-23T13:17:13.999Z</time></trkpt><trkpt lat="42.52073948769634" lon="2.804894067457022"><ele>92.0</ele><time>2026-03-23T13:17:14.999Z</time></trkpt><trkpt lat="42.52071847815215" lon="2.80467968635366"><ele>91.33333333333334</ele><time>2026-03-23T13:17:15.999Z</time></trkpt><trkpt lat="42.52068256503215" lon="2.8044692429581284"><ele>90.66666666666667</ele><time>2026-03-23T13:17:16.999Z</time></trkpt><trkpt lat="42.52063101905912" lon="2.8042575750720244"><ele>90.0</ele><time>2026-03-23T13:17:17.999Z</time></trkpt><trkpt lat="42.520574953669836" lon="2.804052027162472"><ele>90.0</ele><time>2026-03-23T13:17:18.999Z</time></trkpt><trkpt lat="42.52051588175451" lon="2.8038499591064525"><ele>90.0</ele><time>2026-03-23T13:17:19.999Z</time></trkpt><trkpt lat="42.52046140654687" lon="2.80365400699847"><ele>90.0</ele><time>2026-03-23T13:17:20.999Z</time></trkpt><trkpt lat="42.52040896526845" lon="2.803471195199817"><ele>89.75</ele><time>2026-03-23T13:17:21.998Z</time></trkpt><trkpt lat="42.52036184280919" lon="2.8032915497147495"><ele>89.5</ele><time>2026-03-23T13:17:22.998Z</time></trkpt><trkpt lat="42.52031695847554" lon="2.803122181537464"><ele>89.25</ele><time>2026-03-23T13:17:23.998Z</time></trkpt><trkpt lat="42.520272539969135" lon="2.8029555270639257"><ele>89.0</ele><time>2026-03-23T13:17:24.998Z</time></trkpt><trkpt lat="42.52022822251049" lon="2.8028058929925153"><ele>89.0</ele><time>2026-03-23T13:17:25.998Z</time></trkpt><trkpt lat="42.52018867254071" lon="2.802669543695653"><ele>89.0</ele><time>2026-03-23T13:17:26.998Z</time></trkpt><trkpt lat="42.52015276480753" lon="2.802531801426971"><ele>89.0</ele><time>2026-03-23T13:17:27.998Z</time></trkpt><trkpt lat="42.52011133927278" lon="2.8023864312289772"><ele>89.0</ele><time>2026-03-23T13:17:28.998Z</time></trkpt><trkpt lat="42.5200731860492" lon="2.802252812823042"><ele>89.0</ele><time>2026-03-23T13:17:29.998Z</time></trkpt><trkpt lat="42.520044190002416" lon="2.802121689321268"><ele>89.0</ele><time>2026-03-23T13:17:30.998Z</time></trkpt><trkpt lat="42.52000614947658" lon="2.8019983799471344"><ele>89.0</ele><time>2026-03-23T13:17:31.998Z</time></trkpt><trkpt lat="42.519974193431224" lon="2.8018791048041387"><ele>89.0</ele><time>2026-03-23T13:17:32.998Z</time></trkpt><trkpt lat="42.51994308869503" lon="2.801761768933418"><ele>89.0</ele><time>2026-03-23T13:17:33.998Z</time></trkpt><trkpt lat="42.51990869645505" lon="2.801639447711932"><ele>89.0</ele><time>2026-03-23T13:17:34.998Z</time></trkpt><trkpt lat="42.51988001616556" lon="2.801541563899581"><ele>89.0</ele><time>2026-03-23T13:17:35.998Z</time></trkpt><trkpt lat="42.51984159206" lon="2.8014021026983436"><ele>89.0</ele><time>2026-03-23T13:17:37.998Z</time></trkpt><trkpt lat="42.51980229934571" lon="2.8012311757194106"><ele>89.0</ele><time>2026-03-23T13:17:40Z</time></trkpt><trkpt lat="42.51977530981461" lon="2.8011366124816712"><ele>89.0</ele><time>2026-03-23T13:17:41Z</time></trkpt><trkpt lat="42.51974861087922" lon="2.8010398464067157"><ele>89.0</ele><time>2026-03-23T13:17:42Z</time></trkpt><trkpt lat="42.519721770309594" lon="2.8009380309625653"><ele>89.2</ele><time>2026-03-23T13:17:43Z</time></trkpt><trkpt lat="42.519692716886325" lon="2.8008250061307964"><ele>89.4</ele><time>2026-03-23T13:17:44Z</time></trkpt><trkpt lat="42.519661393698485" lon="2.8007056322630817"><ele>89.6</ele><time>2026-03-23T13:17:45Z</time></trkpt><trkpt lat="42.519629368680235" lon="2.800582718977085"><ele>89.8</ele><time>2026-03-23T13:17:46Z</time></trkpt><trkpt lat="42.519595696805325" lon="2.8004563142401433"><ele>90.0</ele><time>2026-03-23T13:17:47Z</time></trkpt><trkpt lat="42.51956127501777" lon="2.8003316875531334"><ele>90.2</ele><time>2026-03-23T13:17:48Z</time></trkpt><trkpt lat="42.51952445471893" lon="2.80020211971081"><ele>90.4</ele><time>2026-03-23T13:17:49Z</time></trkpt><trkpt lat="42.51948847539796" lon="2.8000716705853264"><ele>90.6</ele><time>2026-03-23T13:17:50Z</time></trkpt><trkpt lat="42.51945689773316" lon="2.7999372268423377"><ele>90.8</ele><time>2026-03-23T13:17:51Z</time></trkpt><trkpt lat="42.519414605076626" lon="2.799786690865885"><ele>91.0</ele><time>2026-03-23T13:17:52Z</time></trkpt><trkpt lat="42.519369103328565" lon="2.7996222755993014"><ele>91.0</ele><time>2026-03-23T13:17:53Z</time></trkpt><trkpt lat="42.5193184224757" lon="2.799449911958587"><ele>91.0</ele><time>2026-03-23T13:17:54Z</time></trkpt><trkpt lat="42.51926921018741" lon="2.7992686591403513"><ele>91.0</ele><time>2026-03-23T13:17:55Z</time></trkpt><trkpt lat="42.51921657988614" lon="2.799089226222935"><ele>91.0</ele><time>2026-03-23T13:17:56Z</time></trkpt><trkpt lat="42.519166166063" lon="2.7989063946731054"><ele>91.33333333333333</ele><time>2026-03-23T13:17:57Z</time></trkpt><trkpt lat="42.519109429297" lon="2.79870349667526"><ele>91.66666666666667</ele><time>2026-03-23T13:17:58Z</time></trkpt><trkpt lat="42.51905080138652" lon="2.7984934993516686"><ele>92.0</ele><time>2026-03-23T13:17:59Z</time></trkpt><trkpt lat="42.518989932372634" lon="2.798285839728899"><ele>92.66666666666667</ele><time>2026-03-23T13:18:00Z</time></trkpt><trkpt lat="42.51892655900171" lon="2.7980687892172087"><ele>93.33333333333333</ele><time>2026-03-23T13:18:01Z</time></trkpt><trkpt lat="42.51886448865643" lon="2.7978559416980513"><ele>94.0</ele><time>2026-03-23T13:18:02Z</time></trkpt><trkpt lat="42.51880436838978" lon="2.797642684788332"><ele>94.0</ele><time>2026-03-23T13:18:03Z</time></trkpt><trkpt lat="42.51873875745208" lon="2.797419043133231"><ele>94.0</ele><time>2026-03-23T13:18:04Z</time></trkpt><trkpt lat="42.51868060432422" lon="2.7972190199392832"><ele>94.0</ele><time>2026-03-23T13:18:05Z</time></trkpt><trkpt lat="42.51862359771086" lon="2.7970064732915914"><ele>93.66666666666666</ele><time>2026-03-23T13:18:06Z</time></trkpt><trkpt lat="42.51856477873074" lon="2.796806231110868"><ele>93.33333333333333</ele><time>2026-03-23T13:18:07Z</time></trkpt><trkpt lat="42.5185082595984" lon="2.79660809822583"><ele>93.0</ele><time>2026-03-23T13:18:08Z</time></trkpt><trkpt lat="42.518455069794435" lon="2.796421730086574"><ele>93.0</ele><time>2026-03-23T13:18:09Z</time></trkpt><trkpt lat="42.5184049284882" lon="2.796230916668021"><ele>93.0</ele><time>2026-03-23T13:18:10Z</time></trkpt><trkpt lat="42.51835229809251" lon="2.796047131535233"><ele>93.0</ele><time>2026-03-23T13:18:11Z</time></trkpt><trkpt lat="42.518298111006146" lon="2.7958627746473095"><ele>93.0</ele><time>2026-03-23T13:18:12Z</time></trkpt><trkpt lat="42.51824957687332" lon="2.7956716615766237"><ele>94.0</ele><time>2026-03-23T13:18:13Z</time></trkpt><trkpt lat="42.518194144123356" lon="2.795486996696408"><ele>95.0</ele><time>2026-03-23T13:18:14Z</time></trkpt><trkpt lat="42.51814455299974" lon="2.7952957303131853"><ele>96.0</ele><time>2026-03-23T13:18:15Z</time></trkpt><trkpt lat="42.51808777964567" lon="2.795103927139231"><ele>97.0</ele><time>2026-03-23T13:18:16Z</time></trkpt><trkpt lat="42.51803788975147" lon="2.794907676387447"><ele>97.0</ele><time>2026-03-23T13:18:17Z</time></trkpt><trkpt lat="42.51798577614442" lon="2.7947157353856453"><ele>97.0</ele><time>2026-03-23T13:18:18Z</time></trkpt><trkpt lat="42.51793205397433" lon="2.794520020335479"><ele>97.0</ele><time>2026-03-23T13:18:19Z</time></trkpt><trkpt lat="42.5178771116673" lon="2.794326047403745"><ele>96.0</ele><time>2026-03-23T13:18:20Z</time></trkpt><trkpt lat="42.51782352352237" lon="2.794132113132795"><ele>95.0</ele><time>2026-03-23T13:18:21Z</time></trkpt><trkpt lat="42.51776673707812" lon="2.793947243216126"><ele>94.0</ele><time>2026-03-23T13:18:22Z</time></trkpt><trkpt lat="42.51771300117094" lon="2.7937609600901165"><ele>93.0</ele><time>2026-03-23T13:18:23Z</time></trkpt><trkpt lat="42.517661995104135" lon="2.7935846788715986"><ele>94.5</ele><time>2026-03-23T13:18:24Z</time></trkpt><trkpt lat="42.5176103144674" lon="2.7933972198237282"><ele>96.0</ele><time>2026-03-23T13:18:25Z</time></trkpt><trkpt lat="42.517564009284825" lon="2.7932278638079446"><ele>97.5</ele><time>2026-03-23T13:18:26Z</time></trkpt><trkpt lat="42.51750961940992" lon="2.7930394586913168"><ele>99.0</ele><time>2026-03-23T13:18:27Z</time></trkpt><trkpt lat="42.517459520661205" lon="2.792864237985309"><ele>99.0</ele><time>2026-03-23T13:18:28Z</time></trkpt><trkpt lat="42.51740829616251" lon="2.7926868009963526"><ele>99.0</ele><time>2026-03-23T13:18:28.999Z</time></trkpt><trkpt lat="42.51735907948212" lon="2.7925087827762485"><ele>99.0</ele><time>2026-03-23T13:18:29.999Z</time></trkpt><trkpt lat="42.51730945390192" lon="2.7923282166140817"><ele>99.0</ele><time>2026-03-23T13:18:30.999Z</time></trkpt><trkpt lat="42.5172614758684" lon="2.792150055523817"><ele>100.0</ele><time>2026-03-23T13:18:31.999Z</time></trkpt><trkpt lat="42.51721165680323" lon="2.7919730603573845"><ele>101.0</ele><time>2026-03-23T13:18:32.999Z</time></trkpt><trkpt lat="42.517157868350914" lon="2.7917831910090625"><ele>102.0</ele><time>2026-03-23T13:18:33.999Z</time></trkpt><trkpt lat="42.51710819884836" lon="2.791606763618523"><ele>103.0</ele><time>2026-03-23T13:18:34.999Z</time></trkpt><trkpt lat="42.517052286224875" lon="2.791423417944628"><ele>103.0</ele><time>2026-03-23T13:18:35.999Z</time></trkpt><trkpt lat="42.51699494312233" lon="2.7912416202984347"><ele>103.0</ele><time>2026-03-23T13:18:36.999Z</time></trkpt><trkpt lat="42.51692207094935" lon="2.7910599923316988"><ele>103.0</ele><time>2026-03-23T13:18:37.999Z</time></trkpt><trkpt lat="42.51683404746144" lon="2.790875709643694"><ele>104.33333333333334</ele><time>2026-03-23T13:18:38.999Z</time></trkpt><trkpt lat="42.51674378395821" lon="2.7907112993126115"><ele>105.66666666666666</ele><time>2026-03-23T13:18:39.999Z</time></trkpt><trkpt lat="42.516639498376094" lon="2.7905571498544104"><ele>107.0</ele><time>2026-03-23T13:18:40.999Z</time></trkpt><trkpt lat="42.516535379789" lon="2.79041335335615"><ele>107.0</ele><time>2026-03-23T13:18:41.999Z</time></trkpt><trkpt lat="42.51643678734594" lon="2.790274436484171"><ele>107.0</ele><time>2026-03-23T13:18:42.999Z</time></trkpt><trkpt lat="42.5163524504844" lon="2.79012854192183"><ele>107.0</ele><time>2026-03-23T13:18:43.999Z</time></trkpt><trkpt lat="42.51626727543642" lon="2.7899868414786235"><ele>107.0</ele><time>2026-03-23T13:18:44.999Z</time></trkpt><trkpt lat="42.516188014545975" lon="2.789848925325072"><ele>108.25</ele><time>2026-03-23T13:18:45.999Z</time></trkpt><trkpt lat="42.51611285569461" lon="2.7897057804667735"><ele>109.5</ele><time>2026-03-23T13:18:46.999Z</time></trkpt><trkpt lat="42.51604740820617" lon="2.7895602696098467"><ele>110.75</ele><time>2026-03-23T13:18:47.999Z</time></trkpt><trkpt lat="42.515986885885745" lon="2.789408335126762"><ele>112.0</ele><time>2026-03-23T13:18:48.999Z</time></trkpt><trkpt lat="42.51592471677354" lon="2.7892554438020842"><ele>112.5</ele><time>2026-03-23T13:18:49.999Z</time></trkpt><trkpt lat="42.515860862541814" lon="2.7891165877507325"><ele>113.0</ele><time>2026-03-23T13:18:50.999Z</time></trkpt><trkpt lat="42.515797776695564" lon="2.788987877515548"><ele>113.5</ele><time>2026-03-23T13:18:51.999Z</time></trkpt><trkpt lat="42.51573594636989" lon="2.7888573633116582"><ele>114.0</ele><time>2026-03-23T13:18:52.999Z</time></trkpt><trkpt lat="42.51567721393626" lon="2.78873757723293"><ele>114.0</ele><time>2026-03-23T13:18:53.999Z</time></trkpt><trkpt lat="42.51562620768586" lon="2.7886095445617527"><ele>114.0</ele><time>2026-03-23T13:18:54.999Z</time></trkpt><trkpt lat="42.515569307807475" lon="2.788485517160595"><ele>114.0</ele><time>2026-03-23T13:18:55.999Z</time></trkpt><trkpt lat="42.515519208678256" lon="2.7883747208671004"><ele>114.0</ele><time>2026-03-23T13:18:56.999Z</time></trkpt><trkpt lat="42.5154707195387" lon="2.7882659699756562"><ele>114.0</ele><time>2026-03-23T13:18:57.999Z</time></trkpt><trkpt lat="42.515419555344984" lon="2.7881472124025333"><ele>114.0</ele><time>2026-03-23T13:18:58.999Z</time></trkpt><trkpt lat="42.51537225600191" lon="2.7880327339580133"><ele>114.0</ele><time>2026-03-23T13:18:59.999Z</time></trkpt><trkpt lat="42.5153266256076" lon="2.7879229725762538"><ele>114.0</ele><time>2026-03-23T13:19:00.999Z</time></trkpt><trkpt lat="42.51528396030955" lon="2.7878169860317406"><ele>114.0</ele><time>2026-03-23T13:19:01.999Z</time></trkpt><trkpt lat="42.51524021883551" lon="2.7877111155063865"><ele>114.0</ele><time>2026-03-23T13:19:02.999Z</time></trkpt><trkpt lat="42.51520125443395" lon="2.7876167064771447"><ele>114.0</ele><time>2026-03-23T13:19:03.999Z</time></trkpt><trkpt lat="42.51516848091034" lon="2.78754263176643"><ele>114.2</ele><time>2026-03-23T13:19:04.999Z</time></trkpt><trkpt lat="42.51512194862661" lon="2.787440461796434"><ele>114.4</ele><time>2026-03-23T13:19:06.999Z</time></trkpt><trkpt lat="42.5150651676214" lon="2.787336847466054"><ele>114.6</ele><time>2026-03-23T13:19:09.999Z</time></trkpt><trkpt lat="42.51500978697903" lon="2.7872659194493212"><ele>114.8</ele><time>2026-03-23T13:19:11.999Z</time></trkpt><trkpt lat="42.51492731824799" lon="2.7871796041468206"><ele>115.0</ele><time>2026-03-23T13:19:13.999Z</time></trkpt><trkpt lat="42.51485877949843" lon="2.7870705803333014"><ele>115.0</ele><time>2026-03-23T13:19:15.999Z</time></trkpt><trkpt lat="42.51486993096696" lon="2.786934307608485"><ele>115.0</ele><time>2026-03-23T13:19:17.999Z</time></trkpt><trkpt lat="42.51494064261358" lon="2.7868790727144312"><ele>115.0</ele><time>2026-03-23T13:19:19.999Z</time></trkpt><trkpt lat="42.51503404437262" lon="2.7868625838183143"><ele>115.0</ele><time>2026-03-23T13:19:21.998Z</time></trkpt><trkpt lat="42.515135957031184" lon="2.786884935926775"><ele>115.0</ele><time>2026-03-23T13:19:23.998Z</time></trkpt><trkpt lat="42.515207621615225" lon="2.78689208145589"><ele>115.0</ele><time>2026-03-23T13:19:24.998Z</time></trkpt><trkpt lat="42.51528947496364" lon="2.7868980801143426"><ele>115.0</ele><time>2026-03-23T13:19:25.998Z</time></trkpt><trkpt lat="42.515391791152" lon="2.7869029128758704"><ele>115.0</ele><time>2026-03-23T13:19:26.998Z</time></trkpt><trkpt lat="42.51550895326539" lon="2.786881174061512"><ele>115.0</ele><time>2026-03-23T13:19:27.998Z</time></trkpt><trkpt lat="42.51563629568919" lon="2.7868982291734605"><ele>115.0</ele><time>2026-03-23T13:19:28.998Z</time></trkpt><trkpt lat="42.51579261331993" lon="2.7869058440205734"><ele>115.0</ele><time>2026-03-23T13:19:29.998Z</time></trkpt><trkpt lat="42.515935460844126" lon="2.7869110929423773"><ele>115.0</ele><time>2026-03-23T13:19:30.998Z</time></trkpt><trkpt lat="42.51606686111413" lon="2.786913848915264"><ele>115.0</ele><time>2026-03-23T13:19:31.998Z</time></trkpt><trkpt lat="42.51618309685866" lon="2.7869114063288194"><ele>115.0</ele><time>2026-03-23T13:19:32.998Z</time></trkpt><trkpt lat="42.516331168651895" lon="2.7869193614473056"><ele>116.0</ele><time>2026-03-23T13:19:33.998Z</time></trkpt><trkpt lat="42.51651393803147" lon="2.7869201524244596"><ele>117.0</ele><time>2026-03-23T13:19:34.998Z</time></trkpt><trkpt lat="42.51667921797301" lon="2.7869281938610118"><ele>118.0</ele><time>2026-03-23T13:19:35.998Z</time></trkpt><trkpt lat="42.516802513253936" lon="2.786931909638703"><ele>118.0</ele><time>2026-03-23T13:19:36.998Z</time></trkpt><trkpt lat="42.516924595566906" lon="2.7869311039776528"><ele>118.0</ele><time>2026-03-23T13:19:37.998Z</time></trkpt><trkpt lat="42.51704090327431" lon="2.786950523182741"><ele>118.0</ele><time>2026-03-23T13:19:38.998Z</time></trkpt><trkpt lat="42.517170123018005" lon="2.786948278939274"><ele>118.0</ele><time>2026-03-23T13:19:39.998Z</time></trkpt><trkpt lat="42.51732653953624" lon="2.7869617608278348"><ele>117.66666666666667</ele><time>2026-03-23T13:19:40.998Z</time></trkpt><trkpt lat="42.5175126568819" lon="2.7869687113048847"><ele>117.33333333333334</ele><time>2026-03-23T13:19:41.998Z</time></trkpt><trkpt lat="42.517718909069444" lon="2.786983907819809"><ele>117.0</ele><time>2026-03-23T13:19:42.998Z</time></trkpt><trkpt lat="42.517635614070244" lon="2.786959421322666"><ele>117.0</ele><time>2026-03-23T13:19:43.998Z</time></trkpt><trkpt lat="42.517764924685935" lon="2.7869585211914316"><ele>117.0</ele><time>2026-03-23T13:19:44.998Z</time></trkpt><trkpt lat="42.51789207164288" lon="2.786961437892662"><ele>117.0</ele><time>2026-03-23T13:19:46Z</time></trkpt><trkpt lat="42.518020662004965" lon="2.786957814815282"><ele>117.0</ele><time>2026-03-23T13:19:47Z</time></trkpt><trkpt lat="42.518151120124315" lon="2.786958978608036"><ele>115.0</ele><time>2026-03-23T13:19:48Z</time></trkpt><trkpt lat="42.518283034782556" lon="2.7869481703182597"><ele>113.0</ele><time>2026-03-23T13:19:49Z</time></trkpt><trkpt lat="42.518410700721624" lon="2.7869295807171426"><ele>111.0</ele><time>2026-03-23T13:19:50Z</time></trkpt><trkpt lat="42.518530376287366" lon="2.7869122978492338"><ele>109.0</ele><time>2026-03-23T13:19:51Z</time></trkpt><trkpt lat="42.518649440186465" lon="2.786891493127487"><ele>109.0</ele><time>2026-03-23T13:19:52Z</time></trkpt><trkpt lat="42.518767644021615" lon="2.7868916267782025"><ele>109.0</ele><time>2026-03-23T13:19:53Z</time></trkpt><trkpt lat="42.51887945891142" lon="2.7868819860271183"><ele>109.0</ele><time>2026-03-23T13:19:54Z</time></trkpt><trkpt lat="42.51898791002108" lon="2.7868685028533844"><ele>109.0</ele><time>2026-03-23T13:19:55Z</time></trkpt><trkpt lat="42.5190845421613" lon="2.786831302830466"><ele>109.0</ele><time>2026-03-23T13:19:56Z</time></trkpt><trkpt lat="42.519175994295104" lon="2.7868046712437127"><ele>110.5</ele><time>2026-03-23T13:19:57Z</time></trkpt><trkpt lat="42.51927143489945" lon="2.786755944341676"><ele>112.0</ele><time>2026-03-23T13:19:58Z</time></trkpt><trkpt lat="42.519367160691495" lon="2.786685537275779"><ele>113.5</ele><time>2026-03-23T13:19:59Z</time></trkpt><trkpt lat="42.51947797855999" lon="2.786610987313797"><ele>115.0</ele><time>2026-03-23T13:20:00Z</time></trkpt><trkpt lat="42.51959485363339" lon="2.7865434183361586"><ele>115.0</ele><time>2026-03-23T13:20:01Z</time></trkpt><trkpt lat="42.51972135433378" lon="2.7865034395449095"><ele>115.0</ele><time>2026-03-23T13:20:02Z</time></trkpt><trkpt lat="42.519829129927494" lon="2.786418723253684"><ele>115.0</ele><time>2026-03-23T13:20:03Z</time></trkpt><trkpt lat="42.51994420891734" lon="2.786375095668304"><ele>115.0</ele><time>2026-03-23T13:20:04Z</time></trkpt><trkpt lat="42.520039492033725" lon="2.786330197512892"><ele>115.0</ele><time>2026-03-23T13:20:05Z</time></trkpt><trkpt lat="42.52012133634105" lon="2.7862937548495474"><ele>115.0</ele><time>2026-03-23T13:20:06Z</time></trkpt><trkpt lat="42.52020029036198" lon="2.7862386101621506"><ele>115.0</ele><time>2026-03-23T13:20:07Z</time></trkpt><trkpt lat="42.52033151609011" lon="2.7861201265817104"><ele>115.0</ele><time>2026-03-23T13:20:09Z</time></trkpt><trkpt lat="42.52037450718828" lon="2.786017699475199"><ele>115.0</ele><time>2026-03-23T13:20:10Z</time></trkpt><trkpt lat="42.520394684996944" lon="2.785901867065291"><ele>115.2</ele><time>2026-03-23T13:20:11Z</time></trkpt><trkpt lat="42.52040226339329" lon="2.7857822775662298"><ele>115.4</ele><time>2026-03-23T13:20:12Z</time></trkpt><trkpt lat="42.520408233355596" lon="2.7856428012038563"><ele>115.6</ele><time>2026-03-23T13:20:13Z</time></trkpt><trkpt lat="42.520420184255144" lon="2.7854940908594212"><ele>115.8</ele><time>2026-03-23T13:20:14Z</time></trkpt><trkpt lat="42.52042222667557" lon="2.7853237048249575"><ele>116.0</ele><time>2026-03-23T13:20:15Z</time></trkpt><trkpt lat="42.520415810940655" lon="2.785149120259028"><ele>117.0</ele><time>2026-03-23T13:20:16Z</time></trkpt><trkpt lat="42.52041500313159" lon="2.784966372375248"><ele>118.0</ele><time>2026-03-23T13:20:17Z</time></trkpt><trkpt lat="42.52041627169298" lon="2.78477253155542"><ele>119.0</ele><time>2026-03-23T13:20:18Z</time></trkpt><trkpt lat="42.52041455715928" lon="2.7845675734176765"><ele>120.0</ele><time>2026-03-23T13:20:19Z</time></trkpt><trkpt lat="42.52040847588219" lon="2.784361125414336"><ele>121.33333333333334</ele><time>2026-03-23T13:20:20Z</time></trkpt><trkpt lat="42.52041402669754" lon="2.784153301334499"><ele>122.66666666666667</ele><time>2026-03-23T13:20:21Z</time></trkpt><trkpt lat="42.52043707241368" lon="2.7839387547540864"><ele>124.0</ele><time>2026-03-23T13:20:22Z</time></trkpt><trkpt lat="42.520463307147374" lon="2.783733052581396"><ele>124.0</ele><time>2026-03-23T13:20:23Z</time></trkpt><trkpt lat="42.52048185707157" lon="2.783529396664563"><ele>124.0</ele><time>2026-03-23T13:20:24Z</time></trkpt><trkpt lat="42.520520590446544" lon="2.7833402111004513"><ele>124.0</ele><time>2026-03-23T13:20:25Z</time></trkpt><trkpt lat="42.52055764644964" lon="2.783157442396674"><ele>124.0</ele><time>2026-03-23T13:20:26Z</time></trkpt><trkpt lat="42.52058866572711" lon="2.7829785285100783"><ele>126.0</ele><time>2026-03-23T13:20:26.999Z</time></trkpt><trkpt lat="42.520623681389225" lon="2.7828149788210306"><ele>128.0</ele><time>2026-03-23T13:20:27.999Z</time></trkpt><trkpt lat="42.52069892893938" lon="2.7826533178581254"><ele>130.0</ele><time>2026-03-23T13:20:28.999Z</time></trkpt><trkpt lat="42.52074721064669" lon="2.782528850598985"><ele>132.0</ele><time>2026-03-23T13:20:29.999Z</time></trkpt><trkpt lat="42.52082754181965" lon="2.782371491101168"><ele>134.0</ele><time>2026-03-23T13:20:30.999Z</time></trkpt><trkpt lat="42.520911544027214" lon="2.782233382271718"><ele>136.0</ele><time>2026-03-23T13:20:31.999Z</time></trkpt><trkpt lat="42.52100450841549" lon="2.782088371429031"><ele>138.0</ele><time>2026-03-23T13:20:32.999Z</time></trkpt><trkpt lat="42.52109769261309" lon="2.7819315160691493"><ele>140.0</ele><time>2026-03-23T13:20:33.999Z</time></trkpt><trkpt lat="42.5211909044086" lon="2.7817809410225354"><ele>138.5</ele><time>2026-03-23T13:20:34.999Z</time></trkpt><trkpt lat="42.52128115439814" lon="2.7816280937576257"><ele>137.0</ele><time>2026-03-23T13:20:35.999Z</time></trkpt><trkpt lat="42.52138119951966" lon="2.781478941778437"><ele>135.5</ele><time>2026-03-23T13:20:36.999Z</time></trkpt><trkpt lat="42.52147332552727" lon="2.7813242875478457"><ele>134.0</ele><time>2026-03-23T13:20:37.999Z</time></trkpt><trkpt lat="42.52156263920064" lon="2.781180206373813"><ele>134.0</ele><time>2026-03-23T13:20:38.999Z</time></trkpt><trkpt lat="42.52164318701917" lon="2.7810518985302743"><ele>134.0</ele><time>2026-03-23T13:20:39.999Z</time></trkpt><trkpt lat="42.52170678246923" lon="2.7809454952199593"><ele>134.0</ele><time>2026-03-23T13:20:40.999Z</time></trkpt><trkpt lat="42.52175797426787" lon="2.7808381299983935"><ele>134.0</ele><time>2026-03-23T13:20:41.999Z</time></trkpt><trkpt lat="42.52179079973633" lon="2.7807281329821825"><ele>134.0</ele><time>2026-03-23T13:20:42.999Z</time></trkpt><trkpt lat="42.521801799689655" lon="2.7805926336249778"><ele>135.75</ele><time>2026-03-23T13:20:43.999Z</time></trkpt><trkpt lat="42.52179027102653" lon="2.7804421646689104"><ele>137.5</ele><time>2026-03-23T13:20:44.999Z</time></trkpt><trkpt lat="42.52176089032919" lon="2.7802725836035376"><ele>139.25</ele><time>2026-03-23T13:20:45.999Z</time></trkpt><trkpt lat="42.52173223736214" lon="2.780092901785654"><ele>141.0</ele><time>2026-03-23T13:20:46.999Z</time></trkpt><trkpt lat="42.52173329571763" lon="2.7799262455700133"><ele>141.0</ele><time>2026-03-23T13:20:47.999Z</time></trkpt><trkpt lat="42.521719020281225" lon="2.7797531821598005"><ele>141.0</ele><time>2026-03-23T13:20:48.999Z</time></trkpt><trkpt lat="42.52173680188059" lon="2.7795869685514014"><ele>141.0</ele><time>2026-03-23T13:20:49.999Z</time></trkpt><trkpt lat="42.521750410823145" lon="2.77942338150143"><ele>141.0</ele><time>2026-03-23T13:20:50.999Z</time></trkpt><trkpt lat="42.52178606029023" lon="2.779291228504286"><ele>141.0</ele><time>2026-03-23T13:20:51.999Z</time></trkpt><trkpt lat="42.521863542101656" lon="2.779198253644909"><ele>141.0</ele><time>2026-03-23T13:20:52.999Z</time></trkpt><trkpt lat="42.521930014877945" lon="2.7791121778196257"><ele>141.0</ele><time>2026-03-23T13:20:53.999Z</time></trkpt><trkpt lat="42.52202151696818" lon="2.779054836540981"><ele>141.0</ele><time>2026-03-23T13:20:54.999Z</time></trkpt><trkpt lat="42.522121912235704" lon="2.779007998091296"><ele>141.0</ele><time>2026-03-23T13:20:55.999Z</time></trkpt><trkpt lat="42.52223141093105" lon="2.778960148609878"><ele>141.0</ele><time>2026-03-23T13:20:56.999Z</time></trkpt><trkpt lat="42.52235136566822" lon="2.778988586060424"><ele>141.0</ele><time>2026-03-23T13:20:57.999Z</time></trkpt><trkpt lat="42.522449633353126" lon="2.7789781348326743"><ele>141.0</ele><time>2026-03-23T13:20:58.999Z</time></trkpt><trkpt lat="42.522536391267714" lon="2.778974041435326"><ele>141.0</ele><time>2026-03-23T13:20:59.999Z</time></trkpt><trkpt lat="42.52260709376848" lon="2.778916533429054"><ele>141.0</ele><time>2026-03-23T13:21:00.999Z</time></trkpt><trkpt lat="42.52265889255566" lon="2.7788156921365412"><ele>141.0</ele><time>2026-03-23T13:21:01.999Z</time></trkpt><trkpt lat="42.522677916559736" lon="2.7786938099756964"><ele>141.0</ele><time>2026-03-23T13:21:02.999Z</time></trkpt><trkpt lat="42.52267957533199" lon="2.7785507812031254"><ele>141.0</ele><time>2026-03-23T13:21:03.999Z</time></trkpt><trkpt lat="42.522662807115594" lon="2.7784022267842383"><ele>141.0</ele><time>2026-03-23T13:21:04.999Z</time></trkpt><trkpt lat="42.52262502292857" lon="2.7782406664774464"><ele>141.0</ele><time>2026-03-23T13:21:05.999Z</time></trkpt><trkpt lat="42.52258001204701" lon="2.7780970052119964"><ele>143.0</ele><time>2026-03-23T13:21:06.999Z</time></trkpt><trkpt lat="42.52253639308753" lon="2.7779602881056458"><ele>145.0</ele><time>2026-03-23T13:21:07.999Z</time></trkpt><trkpt lat="42.522511398196464" lon="2.777834587221335"><ele>147.0</ele><time>2026-03-23T13:21:08.999Z</time></trkpt><trkpt lat="42.52253277887186" lon="2.777723713039115"><ele>149.0</ele><time>2026-03-23T13:21:09.999Z</time></trkpt><trkpt lat="42.522574032482396" lon="2.7776366930263627"><ele>151.0</ele><time>2026-03-23T13:21:10.999Z</time></trkpt><trkpt lat="42.522627778732435" lon="2.7775465754730795"><ele>151.0</ele><time>2026-03-23T13:21:11.999Z</time></trkpt><trkpt lat="42.522688987460654" lon="2.7774746676650848"><ele>151.0</ele><time>2026-03-23T13:21:12.999Z</time></trkpt><trkpt lat="42.5227592811292" lon="2.777376332402914"><ele>151.0</ele><time>2026-03-23T13:21:13.999Z</time></trkpt><trkpt lat="42.52285667510548" lon="2.777297038618009"><ele>151.0</ele><time>2026-03-23T13:21:14.999Z</time></trkpt><trkpt lat="42.522953364173894" lon="2.7772361378106214"><ele>151.0</ele><time>2026-03-23T13:21:15.999Z</time></trkpt><trkpt lat="42.523051292165135" lon="2.777180269401736"><ele>151.0</ele><time>2026-03-23T13:21:16.999Z</time></trkpt><trkpt lat="42.523134505366606" lon="2.7771126909002444"><ele>151.0</ele><time>2026-03-23T13:21:17.999Z</time></trkpt><trkpt lat="42.52320662814998" lon="2.777039301417006"><ele>151.0</ele><time>2026-03-23T13:21:18.999Z</time></trkpt><trkpt lat="42.52326579724871" lon="2.776945648159256"><ele>151.0</ele><time>2026-03-23T13:21:19.998Z</time></trkpt><trkpt lat="42.52329384866407" lon="2.7768224908530086"><ele>151.0</ele><time>2026-03-23T13:21:20.998Z</time></trkpt><trkpt lat="42.52328301004163" lon="2.7766959822543815"><ele>153.75</ele><time>2026-03-23T13:21:21.998Z</time></trkpt><trkpt lat="42.52324694571977" lon="2.7765550733225637"><ele>156.5</ele><time>2026-03-23T13:21:22.998Z</time></trkpt><trkpt lat="42.52321002179999" lon="2.7764022617033626"><ele>159.25</ele><time>2026-03-23T13:21:23.998Z</time></trkpt><trkpt lat="42.52317859589447" lon="2.7762509557133503"><ele>162.0</ele><time>2026-03-23T13:21:24.998Z</time></trkpt><trkpt lat="42.52316123080391" lon="2.7761030435681744"><ele>163.0</ele><time>2026-03-23T13:21:25.998Z</time></trkpt><trkpt lat="42.52319404920709" lon="2.7759764893495973"><ele>164.0</ele><time>2026-03-23T13:21:26.998Z</time></trkpt><trkpt lat="42.52321964193479" lon="2.7758634307208125"><ele>165.0</ele><time>2026-03-23T13:21:27.998Z</time></trkpt><trkpt lat="42.5232714383289" lon="2.7756917923249143"><ele>166.0</ele><time>2026-03-23T13:21:28.998Z</time></trkpt><trkpt lat="42.52333455808297" lon="2.775548548340636"><ele>167.0</ele><time>2026-03-23T13:21:29.998Z</time></trkpt><trkpt lat="42.52342358000115" lon="2.775438025421824"><ele>167.0</ele><time>2026-03-23T13:21:30.998Z</time></trkpt><trkpt lat="42.52351275676548" lon="2.775330548068341"><ele>167.0</ele><time>2026-03-23T13:21:31.998Z</time></trkpt><trkpt lat="42.523605657675006" lon="2.7752252850248627"><ele>167.0</ele><time>2026-03-23T13:21:32.998Z</time></trkpt><trkpt lat="42.5237001266655" lon="2.775150623231219"><ele>167.0</ele><time>2026-03-23T13:21:33.998Z</time></trkpt><trkpt lat="42.52379080120367" lon="2.775069856635265"><ele>165.0</ele><time>2026-03-23T13:21:34.998Z</time></trkpt><trkpt lat="42.52390119310546" lon="2.7750265138515826"><ele>163.0</ele><time>2026-03-23T13:21:35.998Z</time></trkpt><trkpt lat="42.52400137758947" lon="2.774962988546485"><ele>161.0</ele><time>2026-03-23T13:21:36.998Z</time></trkpt><trkpt lat="42.52409925515804" lon="2.7748580696903002"><ele>159.0</ele><time>2026-03-23T13:21:37.998Z</time></trkpt><trkpt lat="42.52417574437925" lon="2.774741006713342"><ele>159.0</ele><time>2026-03-23T13:21:38.998Z</time></trkpt><trkpt lat="42.5242294753331" lon="2.7746348826340985"><ele>159.0</ele><time>2026-03-23T13:21:39.998Z</time></trkpt><trkpt lat="42.52427678021816" lon="2.774536022920269"><ele>159.0</ele><time>2026-03-23T13:21:40.998Z</time></trkpt><trkpt lat="42.5243074741531" lon="2.7744362513895626"><ele>159.0</ele><time>2026-03-23T13:21:41.998Z</time></trkpt><trkpt lat="42.524302141547416" lon="2.7743257529865515"><ele>159.0</ele><time>2026-03-23T13:21:42.998Z</time></trkpt><trkpt lat="42.524265016819285" lon="2.7742143309814424"><ele>159.0</ele><time>2026-03-23T13:21:43.998Z</time></trkpt><trkpt lat="42.5242108108172" lon="2.774113109052406"><ele>160.33333333333334</ele><time>2026-03-23T13:21:44.998Z</time></trkpt><trkpt lat="42.52417143396093" lon="2.7739944792700184"><ele>161.66666666666666</ele><time>2026-03-23T13:21:45.998Z</time></trkpt><trkpt lat="42.52415049211792" lon="2.7739013020612755"><ele>163.0</ele><time>2026-03-23T13:21:46.998Z</time></trkpt><trkpt lat="42.52414363279499" lon="2.7738106001321117"><ele>164.33333333333331</ele><time>2026-03-23T13:21:47.998Z</time></trkpt><trkpt lat="42.52416018058778" lon="2.773727421537469"><ele>165.66666666666666</ele><time>2026-03-23T13:21:48.998Z</time></trkpt><trkpt lat="42.52422461859118" lon="2.773680843094731"><ele>167.0</ele><time>2026-03-23T13:21:49.998Z</time></trkpt><trkpt lat="42.52435734201694" lon="2.7736665351134806"><ele>167.0</ele><time>2026-03-23T13:21:52Z</time></trkpt><trkpt lat="42.52444487311085" lon="2.773681941551964"><ele>167.0</ele><time>2026-03-23T13:21:53Z</time></trkpt><trkpt lat="42.52454064075037" lon="2.7736860324860406"><ele>167.0</ele><time>2026-03-23T13:21:54Z</time></trkpt><trkpt lat="42.52462992783584" lon="2.7736962522591972"><ele>167.0</ele><time>2026-03-23T13:21:55Z</time></trkpt><trkpt lat="42.52471204100028" lon="2.7736746476088956"><ele>167.0</ele><time>2026-03-23T13:21:56Z</time></trkpt><trkpt lat="42.524774295677425" lon="2.773616328374378"><ele>167.0</ele><time>2026-03-23T13:21:57Z</time></trkpt><trkpt lat="42.524851621569965" lon="2.773537129795461"><ele>166.6</ele><time>2026-03-23T13:21:58Z</time></trkpt><trkpt lat="42.524929845811435" lon="2.7734329968176543"><ele>166.2</ele><time>2026-03-23T13:21:59Z</time></trkpt><trkpt lat="42.525005103439575" lon="2.7733237144707568"><ele>165.8</ele><time>2026-03-23T13:22:00Z</time></trkpt><trkpt lat="42.525071130847735" lon="2.7732189039589983"><ele>165.4</ele><time>2026-03-23T13:22:01Z</time></trkpt><trkpt lat="42.52513321971709" lon="2.773117007181351"><ele>165.0</ele><time>2026-03-23T13:22:02Z</time></trkpt><trkpt lat="42.52518894024589" lon="2.773017509031494"><ele>165.0</ele><time>2026-03-23T13:22:03Z</time></trkpt><trkpt lat="42.52523600029298" lon="2.772921837357487"><ele>165.0</ele><time>2026-03-23T13:22:04Z</time></trkpt><trkpt lat="42.525261486175296" lon="2.7728118812737472"><ele>165.0</ele><time>2026-03-23T13:22:05Z</time></trkpt><trkpt lat="42.52527453609905" lon="2.7726785327038606"><ele>165.0</ele><time>2026-03-23T13:22:06Z</time></trkpt><trkpt lat="42.525273805606375" lon="2.772538933888491"><ele>165.0</ele><time>2026-03-23T13:22:07Z</time></trkpt><trkpt lat="42.52526874996183" lon="2.772413836653248"><ele>166.5</ele><time>2026-03-23T13:22:08Z</time></trkpt><trkpt lat="42.52524303122206" lon="2.7723027670765172"><ele>168.0</ele><time>2026-03-23T13:22:09Z</time></trkpt><trkpt lat="42.52519864619491" lon="2.7722002535416026"><ele>169.5</ele><time>2026-03-23T13:22:10Z</time></trkpt><trkpt lat="42.525139779023014" lon="2.77209545501209"><ele>171.0</ele><time>2026-03-23T13:22:11Z</time></trkpt><trkpt lat="42.52509331995913" lon="2.772007692230503"><ele>172.5</ele><time>2026-03-23T13:22:12Z</time></trkpt><trkpt lat="42.52508196536848" lon="2.7719006353397546"><ele>174.0</ele><time>2026-03-23T13:22:13Z</time></trkpt><trkpt lat="42.5251273236997" lon="2.7717414751522034"><ele>174.0</ele><time>2026-03-23T13:22:15Z</time></trkpt><trkpt lat="42.525180814291936" lon="2.771677471072661"><ele>174.0</ele><time>2026-03-23T13:22:16Z</time></trkpt><trkpt lat="42.52525548587388" lon="2.7716730209611704"><ele>174.0</ele><time>2026-03-23T13:22:17Z</time></trkpt><trkpt lat="42.52532295879846" lon="2.771680063469661"><ele>174.0</ele><time>2026-03-23T13:22:18Z</time></trkpt><trkpt lat="42.52540001173135" lon="2.7716898886531967"><ele>174.0</ele><time>2026-03-23T13:22:19Z</time></trkpt><trkpt lat="42.52549043617531" lon="2.771706444661485"><ele>174.0</ele><time>2026-03-23T13:22:20Z</time></trkpt><trkpt lat="42.52557775422222" lon="2.7717202077420953"><ele>171.83333333333334</ele><time>2026-03-23T13:22:21Z</time></trkpt><trkpt lat="42.52566353774645" lon="2.7717247044039075"><ele>169.66666666666666</ele><time>2026-03-23T13:22:22Z</time></trkpt><trkpt lat="42.52573992870817" lon="2.771708922778205"><ele>167.5</ele><time>2026-03-23T13:22:23Z</time></trkpt><trkpt lat="42.52580958335953" lon="2.7716604696523874"><ele>165.33333333333331</ele><time>2026-03-23T13:22:24Z</time></trkpt><trkpt lat="42.52587345952391" lon="2.771581896228681"><ele>163.16666666666666</ele><time>2026-03-23T13:22:25Z</time></trkpt><trkpt lat="42.52593191380184" lon="2.7714614002483446"><ele>161.0</ele><time>2026-03-23T13:22:26Z</time></trkpt><trkpt lat="42.52598603931077" lon="2.771329201692804"><ele>161.0</ele><time>2026-03-23T13:22:27Z</time></trkpt><trkpt lat="42.52603756786716" lon="2.7711849562522652"><ele>161.0</ele><time>2026-03-23T13:22:28Z</time></trkpt><trkpt lat="42.526085643033376" lon="2.7710225105511843"><ele>161.0</ele><time>2026-03-23T13:22:29Z</time></trkpt><trkpt lat="42.52612931281788" lon="2.770855791271717"><ele>161.0</ele><time>2026-03-23T13:22:30Z</time></trkpt><trkpt lat="42.52617267287086" lon="2.770693079759146"><ele>162.0</ele><time>2026-03-23T13:22:30.999Z</time></trkpt><trkpt lat="42.526218266281596" lon="2.770548006914354"><ele>163.0</ele><time>2026-03-23T13:22:31.999Z</time></trkpt><trkpt lat="42.52627083821809" lon="2.7704129572635665"><ele>164.0</ele><time>2026-03-23T13:22:32.999Z</time></trkpt><trkpt lat="42.526347095184946" lon="2.7703091890936142"><ele>165.0</ele><time>2026-03-23T13:22:33.999Z</time></trkpt><trkpt lat="42.52640242903297" lon="2.7701854575916216"><ele>166.0</ele><time>2026-03-23T13:22:34.999Z</time></trkpt><trkpt lat="42.52647161555923" lon="2.770080751358216"><ele>164.0</ele><time>2026-03-23T13:22:35.999Z</time></trkpt><trkpt lat="42.52653835599249" lon="2.7699700715041957"><ele>162.0</ele><time>2026-03-23T13:22:36.999Z</time></trkpt><trkpt lat="42.52659407867935" lon="2.7698520902343216"><ele>160.0</ele><time>2026-03-23T13:22:37.999Z</time></trkpt><trkpt lat="42.52663816203533" lon="2.7697320730249197"><ele>158.0</ele><time>2026-03-23T13:22:38.999Z</time></trkpt><trkpt lat="42.5266710920311" lon="2.7696136768338495"><ele>156.0</ele><time>2026-03-23T13:22:39.999Z</time></trkpt><trkpt lat="42.526699899913716" lon="2.769486187316993"><ele>156.6</ele><time>2026-03-23T13:22:40.999Z</time></trkpt><trkpt lat="42.526728108041205" lon="2.769352732790824"><ele>157.2</ele><time>2026-03-23T13:22:41.999Z</time></trkpt><trkpt lat="42.5267479636527" lon="2.769226497799156"><ele>157.8</ele><time>2026-03-23T13:22:42.999Z</time></trkpt><trkpt lat="42.52676675384587" lon="2.769098981667714"><ele>158.4</ele><time>2026-03-23T13:22:43.999Z</time></trkpt><trkpt lat="42.526788342845315" lon="2.7689820564915664"><ele>159.0</ele><time>2026-03-23T13:22:44.999Z</time></trkpt><trkpt lat="42.52680860461941" lon="2.768877780179278"><ele>159.0</ele><time>2026-03-23T13:22:45.999Z</time></trkpt><trkpt lat="42.52684539621157" lon="2.7687778536723924"><ele>159.0</ele><time>2026-03-23T13:22:46.999Z</time></trkpt><trkpt lat="42.526860295073135" lon="2.7686630010237883"><ele>159.0</ele><time>2026-03-23T13:22:47.999Z</time></trkpt><trkpt lat="42.52689083305295" lon="2.7685612145185234"><ele>159.0</ele><time>2026-03-23T13:22:48.999Z</time></trkpt><trkpt lat="42.52692696957064" lon="2.7684734387056924"><ele>159.0</ele><time>2026-03-23T13:22:49.999Z</time></trkpt><trkpt lat="42.526974768631234" lon="2.7683949803331234"><ele>159.0</ele><time>2026-03-23T13:22:50.999Z</time></trkpt><trkpt lat="42.52705147408736" lon="2.7683514340533986"><ele>158.16666666666666</ele><time>2026-03-23T13:22:51.999Z</time></trkpt><trkpt lat="42.527127010652094" lon="2.7682974006097965"><ele>157.33333333333334</ele><time>2026-03-23T13:22:52.999Z</time></trkpt><trkpt lat="42.52719820073129" lon="2.7682253814644033"><ele>156.5</ele><time>2026-03-23T13:22:53.999Z</time></trkpt><trkpt lat="42.527274769889665" lon="2.7681631122842782"><ele>155.66666666666669</ele><time>2026-03-23T13:22:54.999Z</time></trkpt><trkpt lat="42.527333455044364" lon="2.768076151379926"><ele>154.83333333333334</ele><time>2026-03-23T13:22:55.999Z</time></trkpt><trkpt lat="42.527373478976116" lon="2.7679582218046055"><ele>154.0</ele><time>2026-03-23T13:22:56.999Z</time></trkpt><trkpt lat="42.52738340128283" lon="2.7678302629109752"><ele>154.4</ele><time>2026-03-23T13:22:57.999Z</time></trkpt><trkpt lat="42.5273847132797" lon="2.767679392415977"><ele>154.8</ele><time>2026-03-23T13:22:58.999Z</time></trkpt><trkpt lat="42.527393866214936" lon="2.7675556797174443"><ele>155.2</ele><time>2026-03-23T13:22:59.999Z</time></trkpt><trkpt lat="42.52740889032566" lon="2.76744441198737"><ele>155.6</ele><time>2026-03-23T13:23:00.999Z</time></trkpt><trkpt lat="42.52744644942964" lon="2.7673202923352394"><ele>156.0</ele><time>2026-03-23T13:23:01.999Z</time></trkpt><trkpt lat="42.52748946068361" lon="2.7671868023851682"><ele>156.0</ele><time>2026-03-23T13:23:02.999Z</time></trkpt><trkpt lat="42.527526358017845" lon="2.767034234318711"><ele>156.0</ele><time>2026-03-23T13:23:03.999Z</time></trkpt><trkpt lat="42.52759688786738" lon="2.766883237288531"><ele>156.0</ele><time>2026-03-23T13:23:04.999Z</time></trkpt><trkpt lat="42.52766600631316" lon="2.766728776589722"><ele>156.0</ele><time>2026-03-23T13:23:05.999Z</time></trkpt><trkpt lat="42.52772687020152" lon="2.766559418268012"><ele>156.25</ele><time>2026-03-23T13:23:06.999Z</time></trkpt><trkpt lat="42.52777374041217" lon="2.7663836492303533"><ele>156.5</ele><time>2026-03-23T13:23:07.999Z</time></trkpt><trkpt lat="42.527798759283584" lon="2.7661956729629162"><ele>156.75</ele><time>2026-03-23T13:23:08.999Z</time></trkpt><trkpt lat="42.5278137838582" lon="2.7660178521329746"><ele>157.0</ele><time>2026-03-23T13:23:09.999Z</time></trkpt><trkpt lat="42.52783164559271" lon="2.765868446484266"><ele>157.33333333333334</ele><time>2026-03-23T13:23:10.999Z</time></trkpt><trkpt lat="42.52785477776818" lon="2.7657359723846864"><ele>157.66666666666669</ele><time>2026-03-23T13:23:11.999Z</time></trkpt><trkpt lat="42.52787887696794" lon="2.765618130503156"><ele>158.0</ele><time>2026-03-23T13:23:12.999Z</time></trkpt><trkpt lat="42.52792110626981" lon="2.7655124320982245"><ele>158.33333333333334</ele><time>2026-03-23T13:23:13.999Z</time></trkpt><trkpt lat="42.52795980721917" lon="2.7654201675187555"><ele>158.66666666666666</ele><time>2026-03-23T13:23:14.999Z</time></trkpt><trkpt lat="42.528014719752605" lon="2.765335984524916"><ele>159.0</ele><time>2026-03-23T13:23:15.999Z</time></trkpt><trkpt lat="42.52808506689314" lon="2.7652673409438777"><ele>160.2</ele><time>2026-03-23T13:23:16.999Z</time></trkpt><trkpt lat="42.52816111883636" lon="2.765184926607239"><ele>161.4</ele><time>2026-03-23T13:23:17.999Z</time></trkpt><trkpt lat="42.52824345398396" lon="2.765137769349039"><ele>162.6</ele><time>2026-03-23T13:23:18.999Z</time></trkpt><trkpt lat="42.52833324315605" lon="2.7650869214607994"><ele>163.8</ele><time>2026-03-23T13:23:19.999Z</time></trkpt><trkpt lat="42.52841391908921" lon="2.7650374442858023"><ele>165.0</ele><time>2026-03-23T13:23:20.999Z</time></trkpt><trkpt lat="42.5284945529056" lon="2.764993290071725"><ele>165.0</ele><time>2026-03-23T13:23:21.999Z</time></trkpt><trkpt lat="42.528567681719935" lon="2.764932714357728"><ele>165.0</ele><time>2026-03-23T13:23:22.998Z</time></trkpt><trkpt lat="42.52863653200988" lon="2.764871025798986"><ele>165.0</ele><time>2026-03-23T13:23:23.998Z</time></trkpt><trkpt lat="42.528694588835485" lon="2.7648148190927784"><ele>165.0</ele><time>2026-03-23T13:23:24.998Z</time></trkpt><trkpt lat="42.52876081367297" lon="2.7647033010999755"><ele>165.0</ele><time>2026-03-23T13:23:26.998Z</time></trkpt><trkpt lat="42.528777955073764" lon="2.7646122540840397"><ele>165.0</ele><time>2026-03-23T13:23:27.998Z</time></trkpt><trkpt lat="42.52881774353189" lon="2.764532950310781"><ele>165.33333333333334</ele><time>2026-03-23T13:23:28.998Z</time></trkpt><trkpt lat="42.52879420012423" lon="2.7644126578072625"><ele>165.66666666666666</ele><time>2026-03-23T13:23:29.998Z</time></trkpt><trkpt lat="42.52881871675276" lon="2.7643252916731686"><ele>166.0</ele><time>2026-03-23T13:23:30.998Z</time></trkpt><trkpt lat="42.52885115517358" lon="2.7642367466888094"><ele>166.33333333333331</ele><time>2026-03-23T13:23:31.998Z</time></trkpt><trkpt lat="42.52890048432738" lon="2.7641527012903127"><ele>166.66666666666666</ele><time>2026-03-23T13:23:32.998Z</time></trkpt><trkpt lat="42.52896524614024" lon="2.7640813069546324"><ele>167.0</ele><time>2026-03-23T13:23:33.998Z</time></trkpt><trkpt lat="42.529038547732135" lon="2.7640234385666447"><ele>167.0</ele><time>2026-03-23T13:23:34.998Z</time></trkpt><trkpt lat="42.529114940005634" lon="2.763980067562131"><ele>167.0</ele><time>2026-03-23T13:23:35.998Z</time></trkpt><trkpt lat="42.52918920019007" lon="2.7639652606805383"><ele>167.0</ele><time>2026-03-23T13:23:36.998Z</time></trkpt><trkpt lat="42.52925510965977" lon="2.7639778368928036"><ele>167.0</ele><time>2026-03-23T13:23:37.998Z</time></trkpt><trkpt lat="42.52931869055608" lon="2.7640376756968004"><ele>167.0</ele><time>2026-03-23T13:23:38.998Z</time></trkpt><trkpt lat="42.5293947407792" lon="2.7640646790430776"><ele>167.0</ele><time>2026-03-23T13:23:39.998Z</time></trkpt><trkpt lat="42.52945512465622" lon="2.7641189394690864"><ele>167.0</ele><time>2026-03-23T13:23:40.998Z</time></trkpt><trkpt lat="42.52952545774079" lon="2.764168936864413"><ele>167.0</ele><time>2026-03-23T13:23:41.998Z</time></trkpt><trkpt lat="42.52959841354517" lon="2.7642206900168413"><ele>167.0</ele><time>2026-03-23T13:23:42.998Z</time></trkpt><trkpt lat="42.52967152137994" lon="2.7642705052032763"><ele>167.0</ele><time>2026-03-23T13:23:43.998Z</time></trkpt><trkpt lat="42.52975106275718" lon="2.7643152111442593"><ele>167.0</ele><time>2026-03-23T13:23:44.998Z</time></trkpt><trkpt lat="42.52983376564998" lon="2.7643933774309133"><ele>167.0</ele><time>2026-03-23T13:23:45.998Z</time></trkpt><trkpt lat="42.52991966428209" lon="2.764459551753429"><ele>167.42857142857142</ele><time>2026-03-23T13:23:46.998Z</time></trkpt><trkpt lat="42.53000464948485" lon="2.764492969604348"><ele>167.85714285714286</ele><time>2026-03-23T13:23:47.998Z</time></trkpt><trkpt lat="42.53006144907593" lon="2.7645545836498506"><ele>168.28571428571428</ele><time>2026-03-23T13:23:48.998Z</time></trkpt><trkpt lat="42.53013088021178" lon="2.76457679185476"><ele>168.71428571428572</ele><time>2026-03-23T13:23:49.998Z</time></trkpt><trkpt lat="42.53019648469082" lon="2.7645838255901682"><ele>169.14285714285714</ele><time>2026-03-23T13:23:50.998Z</time></trkpt><trkpt lat="42.53025887734589" lon="2.7645558685677107"><ele>169.57142857142858</ele><time>2026-03-23T13:23:51.998Z</time></trkpt><trkpt lat="42.530307803254686" lon="2.7644936420832247"><ele>170.0</ele><time>2026-03-23T13:23:52.998Z</time></trkpt><trkpt lat="42.53037080990303" lon="2.7644714650110487"><ele>170.0</ele><time>2026-03-23T13:23:53.998Z</time></trkpt><trkpt lat="42.53037125239079" lon="2.7642925934391465"><ele>170.0</ele><time>2026-03-23T13:23:54.998Z</time></trkpt><trkpt lat="42.53038111493073" lon="2.7641812808301984"><ele>170.0</ele><time>2026-03-23T13:23:55.998Z</time></trkpt><trkpt lat="42.53041468148415" lon="2.764092505865626"><ele>170.0</ele><time>2026-03-23T13:23:56.998Z</time></trkpt><trkpt lat="42.53046365184504" lon="2.763959787093251"><ele>170.0</ele><time>2026-03-23T13:23:59Z</time></trkpt><trkpt lat="42.530531500272645" lon="2.7639394511866233"><ele>170.66666666666666</ele><time>2026-03-23T13:24:00Z</time></trkpt><trkpt lat="42.53059318563404" lon="2.763910930926247"><ele>171.33333333333331</ele><time>2026-03-23T13:24:01Z</time></trkpt><trkpt lat="42.530666142938585" lon="2.763908636563009"><ele>172.0</ele><time>2026-03-23T13:24:02Z</time></trkpt><trkpt lat="42.530747862444564" lon="2.7639289604527604"><ele>172.66666666666666</ele><time>2026-03-23T13:24:03Z</time></trkpt><trkpt lat="42.53084856241915" lon="2.7639304814211854"><ele>173.33333333333334</ele><time>2026-03-23T13:24:04Z</time></trkpt><trkpt lat="42.53093621980717" lon="2.7639457415745388"><ele>174.0</ele><time>2026-03-23T13:24:05Z</time></trkpt><trkpt lat="42.5310272823416" lon="2.7639399341119915"><ele>174.0</ele><time>2026-03-23T13:24:06Z</time></trkpt><trkpt lat="42.531111861845105" lon="2.763910362680371"><ele>174.0</ele><time>2026-03-23T13:24:07Z</time></trkpt><trkpt lat="42.5311925821435" lon="2.76386103384117"><ele>174.0</ele><time>2026-03-23T13:24:08Z</time></trkpt><trkpt lat="42.53126489282767" lon="2.763801055860227"><ele>174.0</ele><time>2026-03-23T13:24:09Z</time></trkpt><trkpt lat="42.53133464543217" lon="2.7637242295441085"><ele>174.0</ele><time>2026-03-23T13:24:10Z</time></trkpt><trkpt lat="42.53139435355004" lon="2.763630505802001"><ele>174.0</ele><time>2026-03-23T13:24:11Z</time></trkpt><trkpt lat="42.53143915401085" lon="2.7635235625479497"><ele>175.66666666666666</ele><time>2026-03-23T13:24:12Z</time></trkpt><trkpt lat="42.53146727618838" lon="2.763422861624134"><ele>177.33333333333334</ele><time>2026-03-23T13:24:13Z</time></trkpt><trkpt lat="42.531539516984935" lon="2.763282546009184"><ele>179.0</ele><time>2026-03-23T13:24:15Z</time></trkpt><trkpt lat="42.5315950326664" lon="2.763228388452948"><ele>180.66666666666669</ele><time>2026-03-23T13:24:16Z</time></trkpt><trkpt lat="42.53166769450448" lon="2.763224664328895"><ele>182.33333333333334</ele><time>2026-03-23T13:24:17Z</time></trkpt><trkpt lat="42.531730623341126" lon="2.7632088172551947"><ele>184.0</ele><time>2026-03-23T13:24:18Z</time></trkpt><trkpt lat="42.53179563234862" lon="2.763242728844799"><ele>184.0</ele><time>2026-03-23T13:24:19Z</time></trkpt><trkpt lat="42.531842730526506" lon="2.7633324235678733"><ele>184.0</ele><time>2026-03-23T13:24:20Z</time></trkpt><trkpt lat="42.53188356376763" lon="2.7634080527299045"><ele>184.0</ele><time>2026-03-23T13:24:21Z</time></trkpt><trkpt lat="42.53193675864166" lon="2.763465276142266"><ele>184.0</ele><time>2026-03-23T13:24:22Z</time></trkpt><trkpt lat="42.53199193861559" lon="2.763511152109354"><ele>184.0</ele><time>2026-03-23T13:24:23Z</time></trkpt><trkpt lat="42.53206124327207" lon="2.763528963881316"><ele>184.0</ele><time>2026-03-23T13:24:24Z</time></trkpt><trkpt lat="42.53213789884414" lon="2.763512695870134"><ele>184.0</ele><time>2026-03-23T13:24:25Z</time></trkpt><trkpt lat="42.532218350456475" lon="2.763470994953305"><ele>185.6</ele><time>2026-03-23T13:24:26Z</time></trkpt><trkpt lat="42.532307239431816" lon="2.763410700230076"><ele>187.2</ele><time>2026-03-23T13:24:27Z</time></trkpt><trkpt lat="42.53240531128051" lon="2.7633980800120637"><ele>188.79999999999998</ele><time>2026-03-23T13:24:28Z</time></trkpt><trkpt lat="42.532506598991404" lon="2.7633579591895328"><ele>190.39999999999998</ele><time>2026-03-23T13:24:29Z</time></trkpt><trkpt lat="42.53260222899541" lon="2.7633357419978246"><ele>192.0</ele><time>2026-03-23T13:24:30Z</time></trkpt><trkpt lat="42.532697737904016" lon="2.7633020349617214"><ele>192.0</ele><time>2026-03-23T13:24:31Z</time></trkpt><trkpt lat="42.5327823909692" lon="2.763249165873284"><ele>192.0</ele><time>2026-03-23T13:24:32Z</time></trkpt><trkpt lat="42.53287958432478" lon="2.7631696621589352"><ele>192.0</ele><time>2026-03-23T13:24:33Z</time></trkpt><trkpt lat="42.53297503004049" lon="2.7630717427917064"><ele>192.0</ele><time>2026-03-23T13:24:34Z</time></trkpt><trkpt lat="42.53308173730881" lon="2.7629793250345283"><ele>193.5</ele><time>2026-03-23T13:24:35Z</time></trkpt><trkpt lat="42.53317776964296" lon="2.762871302447228"><ele>195.0</ele><time>2026-03-23T13:24:36Z</time></trkpt><trkpt lat="42.53326653986409" lon="2.7627611664801437"><ele>196.5</ele><time>2026-03-23T13:24:37Z</time></trkpt><trkpt lat="42.533372022952015" lon="2.7627251689579113"><ele>198.0</ele><time>2026-03-23T13:24:37.999Z</time></trkpt><trkpt lat="42.53347155913094" lon="2.762667564421755"><ele>199.60000000000002</ele><time>2026-03-23T13:24:38.999Z</time></trkpt><trkpt lat="42.533575402941615" lon="2.7626096191830967"><ele>201.20000000000002</ele><time>2026-03-23T13:24:39.999Z</time></trkpt><trkpt lat="42.53364959110119" lon="2.7625276752139314"><ele>202.8</ele><time>2026-03-23T13:24:40.999Z</time></trkpt><trkpt lat="42.53371641235179" lon="2.762450146274"><ele>204.4</ele><time>2026-03-23T13:24:41.999Z</time></trkpt><trkpt lat="42.53376981339409" lon="2.762374819460779"><ele>206.0</ele><time>2026-03-23T13:24:42.999Z</time></trkpt><trkpt lat="42.533849694578635" lon="2.7622993011700223"><ele>207.4</ele><time>2026-03-23T13:24:44.999Z</time></trkpt><trkpt lat="42.53394603882881" lon="2.7623606547126656"><ele>208.8</ele><time>2026-03-23T13:24:46.999Z</time></trkpt><trkpt lat="42.53397292998633" lon="2.7625328528531288"><ele>210.20000000000002</ele><time>2026-03-23T13:24:48.999Z</time></trkpt><trkpt lat="42.533942648153264" lon="2.7626303963237677"><ele>211.60000000000002</ele><time>2026-03-23T13:24:49.999Z</time></trkpt><trkpt lat="42.53388913195484" lon="2.7627236946687685"><ele>213.0</ele><time>2026-03-23T13:24:50.999Z</time></trkpt><trkpt lat="42.533813217908886" lon="2.7628189932987257"><ele>213.5</ele><time>2026-03-23T13:24:51.999Z</time></trkpt><trkpt lat="42.53374314278462" lon="2.7629067715641176"><ele>214.0</ele><time>2026-03-23T13:24:52.999Z</time></trkpt><trkpt lat="42.53369118693996" lon="2.7630003615824994"><ele>214.5</ele><time>2026-03-23T13:24:53.999Z</time></trkpt><trkpt lat="42.53365607926072" lon="2.763081954557393"><ele>215.0</ele><time>2026-03-23T13:24:54.999Z</time></trkpt><trkpt lat="42.53362981575862" lon="2.763176595801399"><ele>215.5</ele><time>2026-03-23T13:24:55.999Z</time></trkpt><trkpt lat="42.53361786873588" lon="2.763282235593935"><ele>216.0</ele><time>2026-03-23T13:24:56.999Z</time></trkpt><trkpt lat="42.533622423325305" lon="2.7633873385883323"><ele>213.8</ele><time>2026-03-23T13:24:57.999Z</time></trkpt><trkpt lat="42.53364836037103" lon="2.7634908588968603"><ele>211.60000000000002</ele><time>2026-03-23T13:24:58.999Z</time></trkpt><trkpt lat="42.53369563939428" lon="2.763584860284892"><ele>209.4</ele><time>2026-03-23T13:24:59.999Z</time></trkpt><trkpt lat="42.53376167387969" lon="2.7636685503696206"><ele>207.2</ele><time>2026-03-23T13:25:00.999Z</time></trkpt><trkpt lat="42.53385101974485" lon="2.763748527386843"><ele>205.0</ele><time>2026-03-23T13:25:01.999Z</time></trkpt><trkpt lat="42.533944687287175" lon="2.763816993622855"><ele>205.0</ele><time>2026-03-23T13:25:02.999Z</time></trkpt><trkpt lat="42.5340442767526" lon="2.763856274510374"><ele>205.0</ele><time>2026-03-23T13:25:03.999Z</time></trkpt><trkpt lat="42.53414890036242" lon="2.763869639169977"><ele>205.0</ele><time>2026-03-23T13:25:04.999Z</time></trkpt><trkpt lat="42.534249298617425" lon="2.7639027659067303"><ele>205.0</ele><time>2026-03-23T13:25:05.999Z</time></trkpt><trkpt lat="42.53435331810098" lon="2.7638986433294694"><ele>205.0</ele><time>2026-03-23T13:25:06.999Z</time></trkpt><trkpt lat="42.53443893901388" lon="2.7639151685168737"><ele>204.99999999999997</ele><time>2026-03-23T13:25:07.999Z</time></trkpt><trkpt lat="42.53450212548935" lon="2.7639642685368435"><ele>205.0</ele><time>2026-03-23T13:25:08.999Z</time></trkpt><trkpt lat="42.534583431052766" lon="2.764095178252125"><ele>205.0</ele><time>2026-03-23T13:25:10.999Z</time></trkpt><trkpt lat="42.53458663816504" lon="2.764193223820988"><ele>205.0</ele><time>2026-03-23T13:25:11.999Z</time></trkpt><trkpt lat="42.53461644999638" lon="2.7642831165207715"><ele>204.99999999999997</ele><time>2026-03-23T13:25:12.999Z</time></trkpt><trkpt lat="42.53464347415455" lon="2.764375141947242"><ele>205.0</ele><time>2026-03-23T13:25:13.999Z</time></trkpt><trkpt lat="42.53469821346193" lon="2.764445713634988"><ele>207.0</ele><time>2026-03-23T13:25:14.999Z</time></trkpt><trkpt lat="42.53478848187459" lon="2.764481673570467"><ele>209.0</ele><time>2026-03-23T13:25:15.999Z</time></trkpt><trkpt lat="42.53488482097926" lon="2.7645226727019834"><ele>211.0</ele><time>2026-03-23T13:25:16.999Z</time></trkpt><trkpt lat="42.53495998526907" lon="2.7645348076710623"><ele>213.0</ele><time>2026-03-23T13:25:17.999Z</time></trkpt><trkpt lat="42.535041570332716" lon="2.764554716762892"><ele>215.0</ele><time>2026-03-23T13:25:18.999Z</time></trkpt><trkpt lat="42.535117280796854" lon="2.7646368987094263"><ele>215.0</ele><time>2026-03-23T13:25:19.999Z</time></trkpt><trkpt lat="42.53515395681467" lon="2.7647493164410704"><ele>215.0</ele><time>2026-03-23T13:25:20.999Z</time></trkpt><trkpt lat="42.53520288133086" lon="2.764862363937934"><ele>215.0</ele><time>2026-03-23T13:25:21.999Z</time></trkpt><trkpt lat="42.53525708672062" lon="2.764977007300458"><ele>215.0</ele><time>2026-03-23T13:25:22.999Z</time></trkpt><trkpt lat="42.535303168572845" lon="2.765103155169192"><ele>215.0</ele><time>2026-03-23T13:25:23.999Z</time></trkpt><trkpt lat="42.53535059900876" lon="2.765223706372522"><ele>216.00000000000003</ele><time>2026-03-23T13:25:24.999Z</time></trkpt><trkpt lat="42.535397083463394" lon="2.7653384127179352"><ele>217.0</ele><time>2026-03-23T13:25:25.999Z</time></trkpt><trkpt lat="42.5354361289359" lon="2.765444883625681"><ele>218.0</ele><time>2026-03-23T13:25:26.999Z</time></trkpt><trkpt lat="42.535473920904046" lon="2.765535534633096"><ele>219.0</ele><time>2026-03-23T13:25:27.999Z</time></trkpt><trkpt lat="42.53552617270221" lon="2.765593620646816"><ele>220.00000000000003</ele><time>2026-03-23T13:25:28.998Z</time></trkpt><trkpt lat="42.535567671997406" lon="2.7656628685557294"><ele>221.0</ele><time>2026-03-23T13:25:29.998Z</time></trkpt><trkpt lat="42.5356822016264" lon="2.7656203944358726"><ele>221.0</ele><time>2026-03-23T13:25:30.998Z</time></trkpt><trkpt lat="42.535767728324196" lon="2.7655844062441783"><ele>221.00000000000003</ele><time>2026-03-23T13:25:31.998Z</time></trkpt><trkpt lat="42.53584323864279" lon="2.7655319545835564"><ele>221.00000000000003</ele><time>2026-03-23T13:25:32.998Z</time></trkpt><trkpt lat="42.53590719046942" lon="2.76544578437693"><ele>221.0</ele><time>2026-03-23T13:25:33.998Z</time></trkpt><trkpt lat="42.535949595801995" lon="2.765331575380745"><ele>221.0</ele><time>2026-03-23T13:25:34.998Z</time></trkpt><trkpt lat="42.53596677202686" lon="2.7652018053743164"><ele>221.8</ele><time>2026-03-23T13:25:35.998Z</time></trkpt><trkpt lat="42.53595741880295" lon="2.7650544491049547"><ele>222.60000000000002</ele><time>2026-03-23T13:25:36.998Z</time></trkpt><trkpt lat="42.53592483807207" lon="2.764905048160724"><ele>223.4</ele><time>2026-03-23T13:25:37.998Z</time></trkpt><trkpt lat="42.53589721495933" lon="2.764757285388392"><ele>224.2</ele><time>2026-03-23T13:25:38.998Z</time></trkpt><trkpt lat="42.5358738251311" lon="2.764612420413612"><ele>225.0</ele><time>2026-03-23T13:25:39.998Z</time></trkpt><trkpt lat="42.535858799746165" lon="2.76447850991016"><ele>225.0</ele><time>2026-03-23T13:25:40.998Z</time></trkpt><trkpt lat="42.535835010811375" lon="2.7643711442247376"><ele>225.0</ele><time>2026-03-23T13:25:41.998Z</time></trkpt><trkpt lat="42.53584815351506" lon="2.7642638315708092"><ele>225.0</ele><time>2026-03-23T13:25:42.998Z</time></trkpt><trkpt lat="42.535853285206905" lon="2.7641783396676307"><ele>225.0</ele><time>2026-03-23T13:25:43.998Z</time></trkpt><trkpt lat="42.53589676834885" lon="2.764101944504319"><ele>225.0</ele><time>2026-03-23T13:25:44.998Z</time></trkpt><trkpt lat="42.53597620444949" lon="2.764083453805281"><ele>225.0</ele><time>2026-03-23T13:25:45.998Z</time></trkpt><trkpt lat="42.53604966247134" lon="2.76409799302283"><ele>225.4</ele><time>2026-03-23T13:25:46.998Z</time></trkpt><trkpt lat="42.536146485268496" lon="2.764098625607411"><ele>225.8</ele><time>2026-03-23T13:25:47.998Z</time></trkpt><trkpt lat="42.536251479210584" lon="2.7640944978663144"><ele>226.2</ele><time>2026-03-23T13:25:48.998Z</time></trkpt><trkpt lat="42.536358349985115" lon="2.764068332112305"><ele>226.6</ele><time>2026-03-23T13:25:49.998Z</time></trkpt><trkpt lat="42.53645157691214" lon="2.7640852700375547"><ele>227.0</ele><time>2026-03-23T13:25:50.998Z</time></trkpt><trkpt lat="42.53653464886993" lon="2.764042012642158"><ele>227.0</ele><time>2026-03-23T13:25:51.998Z</time></trkpt><trkpt lat="42.53662313346261" lon="2.7639943145212262"><ele>227.0</ele><time>2026-03-23T13:25:52.998Z</time></trkpt><trkpt lat="42.53670635896614" lon="2.763915864263672"><ele>227.0</ele><time>2026-03-23T13:25:53.998Z</time></trkpt><trkpt lat="42.53678783903679" lon="2.763803828094245"><ele>227.0</ele><time>2026-03-23T13:25:54.998Z</time></trkpt><trkpt lat="42.53686381864219" lon="2.7636679712882612"><ele>227.0</ele><time>2026-03-23T13:25:55.998Z</time></trkpt><trkpt lat="42.53694396104751" lon="2.763529581316709"><ele>227.25</ele><time>2026-03-23T13:25:56.998Z</time></trkpt><trkpt lat="42.53702407454819" lon="2.7633837394678307"><ele>227.5</ele><time>2026-03-23T13:25:57.998Z</time></trkpt><trkpt lat="42.537109743032886" lon="2.7632373322835395"><ele>227.75</ele><time>2026-03-23T13:25:58.998Z</time></trkpt><trkpt lat="42.53719490532108" lon="2.7630972693722744"><ele>228.0</ele><time>2026-03-23T13:25:59.998Z</time></trkpt><trkpt lat="42.53727905083935" lon="2.7629603898147663"><ele>228.0</ele><time>2026-03-23T13:26:00.998Z</time></trkpt><trkpt lat="42.53735932738107" lon="2.7628296103847214"><ele>228.0</ele><time>2026-03-23T13:26:01.998Z</time></trkpt><trkpt lat="42.53743784316375" lon="2.76270408504023"><ele>228.0</ele><time>2026-03-23T13:26:02.998Z</time></trkpt><trkpt lat="42.53751721918106" lon="2.762578734701636"><ele>228.0</ele><time>2026-03-23T13:26:04Z</time></trkpt><trkpt lat="42.537595431968214" lon="2.7624626788702598"><ele>230.0</ele><time>2026-03-23T13:26:05Z</time></trkpt><trkpt lat="42.53765958377245" lon="2.7623480294619585"><ele>232.0</ele><time>2026-03-23T13:26:06Z</time></trkpt><trkpt lat="42.53772723660162" lon="2.7622371268251102"><ele>234.0</ele><time>2026-03-23T13:26:07Z</time></trkpt><trkpt lat="42.537774538575434" lon="2.762153384837893"><ele>236.0</ele><time>2026-03-23T13:26:08Z</time></trkpt><trkpt lat="42.53781457336879" lon="2.7620671859376427"><ele>238.0</ele><time>2026-03-23T13:26:09Z</time></trkpt><trkpt lat="42.53784124168873" lon="2.7619711779128764"><ele>240.0</ele><time>2026-03-23T13:26:10Z</time></trkpt><trkpt lat="42.537853671492435" lon="2.761870270324011"><ele>242.0</ele><time>2026-03-23T13:26:11Z</time></trkpt><trkpt lat="42.53784065225562" lon="2.7617758791490292"><ele>244.0</ele><time>2026-03-23T13:26:12Z</time></trkpt><trkpt lat="42.53780073557626" lon="2.7616809140010594"><ele>246.0</ele><time>2026-03-23T13:26:13Z</time></trkpt><trkpt lat="42.53774648823233" lon="2.7615869248344764"><ele>248.0</ele><time>2026-03-23T13:26:14Z</time></trkpt><trkpt lat="42.53768397876726" lon="2.761469453361837"><ele>250.0</ele><time>2026-03-23T13:26:15Z</time></trkpt><trkpt lat="42.53762221365137" lon="2.761340754596325"><ele>250.0</ele><time>2026-03-23T13:26:16Z</time></trkpt><trkpt lat="42.5375498279604" lon="2.7611994831274758"><ele>250.0</ele><time>2026-03-23T13:26:17Z</time></trkpt><trkpt lat="42.53747092586384" lon="2.761074546112024"><ele>250.0</ele><time>2026-03-23T13:26:18Z</time></trkpt><trkpt lat="42.53739544294554" lon="2.7609553493227086"><ele>250.0</ele><time>2026-03-23T13:26:19Z</time></trkpt><trkpt lat="42.53732366788133" lon="2.7608421349952277"><ele>249.2</ele><time>2026-03-23T13:26:20Z</time></trkpt><trkpt lat="42.5372581153267" lon="2.7607292071369085"><ele>248.4</ele><time>2026-03-23T13:26:21Z</time></trkpt><trkpt lat="42.537197819745366" lon="2.760619938259798"><ele>247.60000000000002</ele><time>2026-03-23T13:26:22Z</time></trkpt><trkpt lat="42.537135852392076" lon="2.7605074824761595"><ele>246.8</ele><time>2026-03-23T13:26:23Z</time></trkpt><trkpt lat="42.53711649518425" lon="2.7603684895389273"><ele>246.0</ele><time>2026-03-23T13:26:24Z</time></trkpt><trkpt lat="42.53707691625113" lon="2.7602399380089966"><ele>246.60000000000002</ele><time>2026-03-23T13:26:25Z</time></trkpt><trkpt lat="42.53705473873966" lon="2.7601083439639313"><ele>247.20000000000002</ele><time>2026-03-23T13:26:26Z</time></trkpt><trkpt lat="42.53704178232889" lon="2.7599857241170294"><ele>247.79999999999998</ele><time>2026-03-23T13:26:27Z</time></trkpt><trkpt lat="42.53704726025427" lon="2.759868524094239"><ele>248.39999999999998</ele><time>2026-03-23T13:26:28Z</time></trkpt><trkpt lat="42.53709347875448" lon="2.759754890564427"><ele>249.0</ele><time>2026-03-23T13:26:29Z</time></trkpt><trkpt lat="42.53712562540419" lon="2.759615394945201"><ele>249.0</ele><time>2026-03-23T13:26:30Z</time></trkpt><trkpt lat="42.53719014952601" lon="2.7594760304012267"><ele>248.99999999999997</ele><time>2026-03-23T13:26:31Z</time></trkpt><trkpt lat="42.53725629023109" lon="2.759345485587185"><ele>248.99999999999997</ele><time>2026-03-23T13:26:32Z</time></trkpt><trkpt lat="42.53730472885647" lon="2.759214569047851"><ele>249.0</ele><time>2026-03-23T13:26:33Z</time></trkpt><trkpt lat="42.537331627477116" lon="2.7590898397009487"><ele>249.0</ele><time>2026-03-23T13:26:34Z</time></trkpt><trkpt lat="42.5373661842884" lon="2.7589699830482677"><ele>250.16666666666666</ele><time>2026-03-23T13:26:35Z</time></trkpt><trkpt lat="42.537401686189604" lon="2.7588560013633017"><ele>251.33333333333331</ele><time>2026-03-23T13:26:36Z</time></trkpt><trkpt lat="42.53744375045298" lon="2.758755134719566"><ele>252.5</ele><time>2026-03-23T13:26:37Z</time></trkpt><trkpt lat="42.53749109132601" lon="2.758672868244402"><ele>253.66666666666666</ele><time>2026-03-23T13:26:38Z</time></trkpt><trkpt lat="42.53754303171873" lon="2.758619565791177"><ele>254.83333333333331</ele><time>2026-03-23T13:26:39Z</time></trkpt><trkpt lat="42.53765626390804" lon="2.7586169303011165"><ele>256.0</ele><time>2026-03-23T13:26:41Z</time></trkpt><trkpt lat="42.537713468256875" lon="2.75865464403546"><ele>256.0</ele><time>2026-03-23T13:26:42Z</time></trkpt><trkpt lat="42.53774875229884" lon="2.7587281465488975"><ele>255.99999999999997</ele><time>2026-03-23T13:26:43Z</time></trkpt><trkpt lat="42.53773845900145" lon="2.7588260202209858"><ele>256.0</ele><time>2026-03-23T13:26:44Z</time></trkpt><trkpt lat="42.53771267035763" lon="2.758913157599434"><ele>256.0</ele><time>2026-03-23T13:26:45Z</time></trkpt><trkpt lat="42.53767355147271" lon="2.758991858916033"><ele>255.99999999999997</ele><time>2026-03-23T13:26:45.999Z</time></trkpt><trkpt lat="42.53765430531116" lon="2.759099349692506"><ele>256.0</ele><time>2026-03-23T13:26:46.999Z</time></trkpt><trkpt lat="42.537646961823626" lon="2.7592075725826324"><ele>256.0</ele><time>2026-03-23T13:26:47.999Z</time></trkpt><trkpt lat="42.5376580416652" lon="2.75932106984285"><ele>255.8</ele><time>2026-03-23T13:26:48.999Z</time></trkpt><trkpt lat="42.53769188578253" lon="2.7594243408096384"><ele>255.60000000000002</ele><time>2026-03-23T13:26:49.999Z</time></trkpt><trkpt lat="42.537743681695154" lon="2.7595164558044387"><ele>255.4</ele><time>2026-03-23T13:26:50.999Z</time></trkpt><trkpt lat="42.537787421247096" lon="2.7596127908133368"><ele>255.2</ele><time>2026-03-23T13:26:51.999Z</time></trkpt><trkpt lat="42.53787211556917" lon="2.7596773922387143"><ele>255.0</ele><time>2026-03-23T13:26:52.999Z</time></trkpt><trkpt lat="42.53797332877222" lon="2.7597371475748234"><ele>255.0</ele><time>2026-03-23T13:26:53.999Z</time></trkpt><trkpt lat="42.53808283706312" lon="2.759806593660352"><ele>255.0</ele><time>2026-03-23T13:26:54.999Z</time></trkpt><trkpt lat="42.538178425656994" lon="2.7598620237627784"><ele>255.0</ele><time>2026-03-23T13:26:55.999Z</time></trkpt><trkpt lat="42.538265612146276" lon="2.7599009810790696"><ele>255.0</ele><time>2026-03-23T13:26:56.999Z</time></trkpt><trkpt lat="42.53833851866012" lon="2.759918584089298"><ele>255.0</ele><time>2026-03-23T13:26:57.999Z</time></trkpt><trkpt lat="42.538425095722886" lon="2.7599287911030923"><ele>255.0</ele><time>2026-03-23T13:26:59.999Z</time></trkpt><trkpt lat="42.53847394575096" lon="2.759862819763423"><ele>255.0</ele><time>2026-03-23T13:28:08.998Z</time></trkpt><trkpt lat="42.53851590362401" lon="2.759794128205147"><ele>255.0</ele><time>2026-03-23T13:28:09.999Z</time></trkpt><trkpt lat="42.53855949937486" lon="2.7596939333160657"><ele>255.0</ele><time>2026-03-23T13:28:10.999Z</time></trkpt><trkpt lat="42.53860600835149" lon="2.7595858458017846"><ele>255.0</ele><time>2026-03-23T13:28:11.999Z</time></trkpt><trkpt lat="42.53867076033777" lon="2.759476305201962"><ele>255.0</ele><time>2026-03-23T13:28:12.999Z</time></trkpt><trkpt lat="42.53870829892778" lon="2.7593507467270655"><ele>256.4</ele><time>2026-03-23T13:28:13.999Z</time></trkpt><trkpt lat="42.53877316996109" lon="2.759226557411112"><ele>257.8</ele><time>2026-03-23T13:28:14.999Z</time></trkpt><trkpt lat="42.538855408968416" lon="2.759124315497507"><ele>259.2</ele><time>2026-03-23T13:28:15.999Z</time></trkpt><trkpt lat="42.53891548883413" lon="2.759000051755746"><ele>260.6</ele><time>2026-03-23T13:28:16.999Z</time></trkpt><trkpt lat="42.5390054563581" lon="2.7589085418177537"><ele>262.0</ele><time>2026-03-23T13:28:17.999Z</time></trkpt><trkpt lat="42.53907170459622" lon="2.758822194581583"><ele>262.0</ele><time>2026-03-23T13:28:18.999Z</time></trkpt><trkpt lat="42.53914424754625" lon="2.7587135590795384"><ele>262.0</ele><time>2026-03-23T13:28:19.999Z</time></trkpt><trkpt lat="42.53922657197349" lon="2.758651230367768"><ele>262.0</ele><time>2026-03-23T13:28:20.999Z</time></trkpt><trkpt lat="42.53931316802317" lon="2.7586378576250943"><ele>262.0</ele><time>2026-03-23T13:28:21.999Z</time></trkpt><trkpt lat="42.53939675823246" lon="2.7586158647364023"><ele>262.0</ele><time>2026-03-23T13:28:22.999Z</time></trkpt><trkpt lat="42.53947678349016" lon="2.7586221769685113"><ele>262.0</ele><time>2026-03-23T13:28:23.999Z</time></trkpt><trkpt lat="42.539549823441774" lon="2.758654635890302"><ele>262.0</ele><time>2026-03-23T13:28:24.999Z</time></trkpt><trkpt lat="42.5396037136361" lon="2.758726570683764"><ele>262.0</ele><time>2026-03-23T13:28:25.999Z</time></trkpt><trkpt lat="42.53965964042602" lon="2.75881386142513"><ele>262.0</ele><time>2026-03-23T13:28:26.999Z</time></trkpt><trkpt lat="42.53972953839341" lon="2.7588909979422365"><ele>262.0</ele><time>2026-03-23T13:28:27.999Z</time></trkpt><trkpt lat="42.53979031960875" lon="2.7589750992297493"><ele>262.0</ele><time>2026-03-23T13:28:28.999Z</time></trkpt><trkpt lat="42.53985836160383" lon="2.759038908395866"><ele>263.5</ele><time>2026-03-23T13:28:29.999Z</time></trkpt><trkpt lat="42.53993101748451" lon="2.7590815382389193"><ele>265.0</ele><time>2026-03-23T13:28:30.999Z</time></trkpt><trkpt lat="42.54000860052369" lon="2.7591119654003817"><ele>266.5</ele><time>2026-03-23T13:28:31.999Z</time></trkpt><trkpt lat="42.54008337215921" lon="2.759116293284448"><ele>268.0</ele><time>2026-03-23T13:28:32.999Z</time></trkpt><trkpt lat="42.54014617641794" lon="2.759087470295461"><ele>269.5</ele><time>2026-03-23T13:28:33.999Z</time></trkpt><trkpt lat="42.54021032357493" lon="2.7590665548225446"><ele>271.0</ele><time>2026-03-23T13:28:34.999Z</time></trkpt><trkpt lat="42.54025871350954" lon="2.7589614972426793"><ele>271.0</ele><time>2026-03-23T13:28:35.999Z</time></trkpt><trkpt lat="42.540313582907935" lon="2.758859929113079"><ele>271.0</ele><time>2026-03-23T13:28:36.999Z</time></trkpt><trkpt lat="42.5403597982155" lon="2.758739380120792"><ele>271.0</ele><time>2026-03-23T13:28:37.999Z</time></trkpt><trkpt lat="42.540400204320306" lon="2.758605897413071"><ele>271.0</ele><time>2026-03-23T13:28:38.999Z</time></trkpt><trkpt lat="42.5404358545227" lon="2.758463144025193"><ele>271.0</ele><time>2026-03-23T13:28:39.999Z</time></trkpt><trkpt lat="42.54045765376635" lon="2.75830961106217"><ele>270.2</ele><time>2026-03-23T13:28:40.999Z</time></trkpt><trkpt lat="42.54046426443728" lon="2.7581639075137425"><ele>269.40000000000003</ele><time>2026-03-23T13:28:41.999Z</time></trkpt><trkpt lat="42.54047070296232" lon="2.7580208448988848"><ele>268.6</ele><time>2026-03-23T13:28:42.999Z</time></trkpt><trkpt lat="42.54046852892745" lon="2.7578911227936524"><ele>267.8</ele><time>2026-03-23T13:28:43.999Z</time></trkpt><trkpt lat="42.540461126136435" lon="2.757763079628385"><ele>267.0</ele><time>2026-03-23T13:28:44.999Z</time></trkpt><trkpt lat="42.54043181140464" lon="2.757634902693872"><ele>267.0</ele><time>2026-03-23T13:28:45.999Z</time></trkpt><trkpt lat="42.54038450172902" lon="2.7575116758994627"><ele>267.0</ele><time>2026-03-23T13:28:46.999Z</time></trkpt><trkpt lat="42.54032653857123" lon="2.7573927595478454"><ele>267.0</ele><time>2026-03-23T13:28:47.999Z</time></trkpt><trkpt lat="42.54026590348792" lon="2.757268610852712"><ele>267.0</ele><time>2026-03-23T13:28:48.999Z</time></trkpt><trkpt lat="42.54021101296069" lon="2.7571415034680222"><ele>267.0</ele><time>2026-03-23T13:28:49.999Z</time></trkpt><trkpt lat="42.54014519992787" lon="2.757004793683567"><ele>270.75</ele><time>2026-03-23T13:28:50.999Z</time></trkpt><trkpt lat="42.54011520870078" lon="2.7568511458162237"><ele>274.5</ele><time>2026-03-23T13:28:51.999Z</time></trkpt><trkpt lat="42.54008256449298" lon="2.7566940575470893"><ele>278.25</ele><time>2026-03-23T13:28:52.999Z</time></trkpt><trkpt lat="42.54005209126002" lon="2.7565345854616257"><ele>282.0</ele><time>2026-03-23T13:28:53.999Z</time></trkpt><trkpt lat="42.54004037372083" lon="2.7563725947787425"><ele>282.0</ele><time>2026-03-23T13:28:54.999Z</time></trkpt><trkpt lat="42.540035659289124" lon="2.756212939057173"><ele>282.0</ele><time>2026-03-23T13:28:55.999Z</time></trkpt><trkpt lat="42.54003975023135" lon="2.7560515852688474"><ele>282.0</ele><time>2026-03-23T13:28:56.999Z</time></trkpt><trkpt lat="42.54005709336583" lon="2.755871116125398"><ele>282.0</ele><time>2026-03-23T13:28:57.999Z</time></trkpt><trkpt lat="42.540092234906744" lon="2.755681262043667"><ele>282.5</ele><time>2026-03-23T13:28:58.999Z</time></trkpt><trkpt lat="42.540126944876086" lon="2.7554935994902188"><ele>283.0</ele><time>2026-03-23T13:28:59.999Z</time></trkpt><trkpt lat="42.54015125990362" lon="2.7553099411966246"><ele>283.5</ele><time>2026-03-23T13:29:00.999Z</time></trkpt><trkpt lat="42.54017148307704" lon="2.755129445235914"><ele>284.0</ele><time>2026-03-23T13:29:01.999Z</time></trkpt><trkpt lat="42.540176821838735" lon="2.754954181127068"><ele>284.5</ele><time>2026-03-23T13:29:02.999Z</time></trkpt><trkpt lat="42.54019193511313" lon="2.754786537155097"><ele>285.0</ele><time>2026-03-23T13:29:03.999Z</time></trkpt><trkpt lat="42.540207019213504" lon="2.754612671054237"><ele>285.5</ele><time>2026-03-23T13:29:04.999Z</time></trkpt><trkpt lat="42.54021924133805" lon="2.7544462200879742"><ele>286.0</ele><time>2026-03-23T13:29:05.999Z</time></trkpt><trkpt lat="42.54023211895629" lon="2.7542788691454745"><ele>286.75</ele><time>2026-03-23T13:29:06.999Z</time></trkpt><trkpt lat="42.54024539949049" lon="2.754107376447995"><ele>287.5</ele><time>2026-03-23T13:29:07.999Z</time></trkpt><trkpt lat="42.540259792041645" lon="2.753939862141736"><ele>288.25</ele><time>2026-03-23T13:29:08.999Z</time></trkpt><trkpt lat="42.540270013226404" lon="2.7537780583119313"><ele>289.0</ele><time>2026-03-23T13:29:09.999Z</time></trkpt><trkpt lat="42.54027616463957" lon="2.75363234305751"><ele>289.4</ele><time>2026-03-23T13:29:10.999Z</time></trkpt><trkpt lat="42.540271856989925" lon="2.7534945392702004"><ele>289.79999999999995</ele><time>2026-03-23T13:29:11.999Z</time></trkpt><trkpt lat="42.54026778600412" lon="2.7533635300938353"><ele>290.20000000000005</ele><time>2026-03-23T13:29:12.999Z</time></trkpt><trkpt lat="42.54026306902135" lon="2.753252129389185"><ele>290.6</ele><time>2026-03-23T13:29:13.999Z</time></trkpt><trkpt lat="42.54026292976452" lon="2.7531644350203734"><ele>291.0</ele><time>2026-03-23T13:29:14.999Z</time></trkpt><trkpt lat="42.54030011505297" lon="2.7530182830037644"><ele>289.8333333333333</ele><time>2026-03-23T13:29:16.998Z</time></trkpt><trkpt lat="42.54039965369754" lon="2.752925839763587"><ele>288.6666666666667</ele><time>2026-03-23T13:29:18.998Z</time></trkpt><trkpt lat="42.54046305656466" lon="2.7529220282010742"><ele>287.5</ele><time>2026-03-23T13:29:19.998Z</time></trkpt><trkpt lat="42.540530393107915" lon="2.7529559719246177"><ele>286.33333333333337</ele><time>2026-03-23T13:29:20.998Z</time></trkpt><trkpt lat="42.54056813587747" lon="2.7530510094665415"><ele>285.1666666666667</ele><time>2026-03-23T13:29:21.998Z</time></trkpt><trkpt lat="42.54061776672503" lon="2.753122314141333"><ele>284.0</ele><time>2026-03-23T13:29:22.998Z</time></trkpt><trkpt lat="42.540686731564584" lon="2.7531812137208402"><ele>284.0</ele><time>2026-03-23T13:29:23.998Z</time></trkpt><trkpt lat="42.54081127395148" lon="2.7532218758099676"><ele>284.0</ele><time>2026-03-23T13:29:25.998Z</time></trkpt><trkpt lat="42.54088772799773" lon="2.753201993666476"><ele>284.0</ele><time>2026-03-23T13:29:26.998Z</time></trkpt><trkpt lat="42.54096474203322" lon="2.7531550981258364"><ele>284.0</ele><time>2026-03-23T13:29:27.998Z</time></trkpt><trkpt lat="42.54104226506763" lon="2.7530913855862438"><ele>284.0</ele><time>2026-03-23T13:29:28.998Z</time></trkpt><trkpt lat="42.54112341682088" lon="2.753026657934644"><ele>285.0</ele><time>2026-03-23T13:29:29.998Z</time></trkpt><trkpt lat="42.54124619653449" lon="2.7529383240200334"><ele>286.0</ele><time>2026-03-23T13:29:30.998Z</time></trkpt><trkpt lat="42.54135288657972" lon="2.7528497743207145"><ele>287.0</ele><time>2026-03-23T13:29:31.998Z</time></trkpt><trkpt lat="42.54145942195467" lon="2.7527624139323716"><ele>288.0</ele><time>2026-03-23T13:29:32.998Z</time></trkpt><trkpt lat="42.54155779831077" lon="2.752684626880598"><ele>289.8</ele><time>2026-03-23T13:29:33.998Z</time></trkpt><trkpt lat="42.541656399425015" lon="2.752648462626953"><ele>291.6</ele><time>2026-03-23T13:29:34.998Z</time></trkpt><trkpt lat="42.541757680053685" lon="2.7526239391869374"><ele>293.4</ele><time>2026-03-23T13:29:35.998Z</time></trkpt><trkpt lat="42.5418724987453" lon="2.7526036037399093"><ele>295.2</ele><time>2026-03-23T13:29:36.998Z</time></trkpt><trkpt lat="42.541982804167496" lon="2.7525604953231664"><ele>297.0</ele><time>2026-03-23T13:29:37.998Z</time></trkpt><trkpt lat="42.54208181011717" lon="2.752539886426352"><ele>297.0</ele><time>2026-03-23T13:29:38.998Z</time></trkpt><trkpt lat="42.542178276468746" lon="2.752495078401746"><ele>297.0</ele><time>2026-03-23T13:29:39.998Z</time></trkpt><trkpt lat="42.542281585911574" lon="2.75242005724678"><ele>297.0</ele><time>2026-03-23T13:29:40.998Z</time></trkpt><trkpt lat="42.54237665085243" lon="2.752319871701795"><ele>297.0</ele><time>2026-03-23T13:29:41.998Z</time></trkpt><trkpt lat="42.54246413973903" lon="2.7522327370787054"><ele>297.0</ele><time>2026-03-23T13:29:42.998Z</time></trkpt><trkpt lat="42.542534867604225" lon="2.752163210558855"><ele>297.0</ele><time>2026-03-23T13:29:43.998Z</time></trkpt><trkpt lat="42.54259853155912" lon="2.7521195579312097"><ele>297.0</ele><time>2026-03-23T13:29:44.998Z</time></trkpt><trkpt lat="42.54266243072598" lon="2.752104460334483"><ele>297.0</ele><time>2026-03-23T13:29:45.998Z</time></trkpt><trkpt lat="42.54272100043356" lon="2.7521697324672907"><ele>297.0</ele><time>2026-03-23T13:29:46.998Z</time></trkpt><trkpt lat="42.542780876478936" lon="2.752311189525708"><ele>297.0</ele><time>2026-03-23T13:29:48.998Z</time></trkpt><trkpt lat="42.542768836616496" lon="2.7524141934516493"><ele>297.0</ele><time>2026-03-23T13:29:49.998Z</time></trkpt><trkpt lat="42.54276358193673" lon="2.7525352672399066"><ele>297.0</ele><time>2026-03-23T13:29:50.998Z</time></trkpt><trkpt lat="42.54274296994248" lon="2.7526591518473156"><ele>297.0</ele><time>2026-03-23T13:29:51.998Z</time></trkpt><trkpt lat="42.542692757834004" lon="2.752769698845516"><ele>297.0</ele><time>2026-03-23T13:29:52.998Z</time></trkpt><trkpt lat="42.54263313630257" lon="2.7528787799249224"><ele>297.0</ele><time>2026-03-23T13:29:53.998Z</time></trkpt><trkpt lat="42.54256839100359" lon="2.7529889919033614"><ele>297.0</ele><time>2026-03-23T13:29:54.998Z</time></trkpt><trkpt lat="42.542516731079864" lon="2.753114285126027"><ele>297.1666666666667</ele><time>2026-03-23T13:29:55.998Z</time></trkpt><trkpt lat="42.54245358943594" lon="2.753220131594156"><ele>297.3333333333333</ele><time>2026-03-23T13:29:56.998Z</time></trkpt><trkpt lat="42.542401237845205" lon="2.753308406112813"><ele>297.5</ele><time>2026-03-23T13:29:57.998Z</time></trkpt><trkpt lat="42.54235624052917" lon="2.7533886857593317"><ele>297.66666666666663</ele><time>2026-03-23T13:29:58.998Z</time></trkpt><trkpt lat="42.54232874722041" lon="2.7534749106135323"><ele>297.8333333333333</ele><time>2026-03-23T13:29:59.998Z</time></trkpt><trkpt lat="42.54232349715787" lon="2.753574559802958"><ele>298.0</ele><time>2026-03-23T13:30:00.998Z</time></trkpt><trkpt lat="42.542369584281374" lon="2.75368233500092"><ele>297.5</ele><time>2026-03-23T13:30:01.998Z</time></trkpt><trkpt lat="42.5424169574564" lon="2.75375682546223"><ele>297.0</ele><time>2026-03-23T13:30:02.998Z</time></trkpt><trkpt lat="42.54248326585285" lon="2.7537934904237567"><ele>296.5</ele><time>2026-03-23T13:30:03.998Z</time></trkpt><trkpt lat="42.54255959639284" lon="2.7538033086230285"><ele>296.0</ele><time>2026-03-23T13:30:04.998Z</time></trkpt><trkpt lat="42.54264345949282" lon="2.7537702281886567"><ele>295.5</ele><time>2026-03-23T13:30:05.998Z</time></trkpt><trkpt lat="42.54274354669033" lon="2.7537182365685315"><ele>295.0</ele><time>2026-03-23T13:30:06.998Z</time></trkpt><trkpt lat="42.542874400113924" lon="2.753701993831067"><ele>296.5</ele><time>2026-03-23T13:30:07.998Z</time></trkpt><trkpt lat="42.54297864695894" lon="2.753662638925144"><ele>298.0</ele><time>2026-03-23T13:30:08.998Z</time></trkpt><trkpt lat="42.54310046336769" lon="2.753638355770319"><ele>299.5</ele><time>2026-03-23T13:30:09.998Z</time></trkpt><trkpt lat="42.54322284259551" lon="2.753606545209097"><ele>301.0</ele><time>2026-03-23T13:30:10.998Z</time></trkpt><trkpt lat="42.543331219972444" lon="2.7535817775185385"><ele>301.0</ele><time>2026-03-23T13:30:11.998Z</time></trkpt><trkpt lat="42.54342700383798" lon="2.753569218812404"><ele>301.0</ele><time>2026-03-23T13:30:12.998Z</time></trkpt><trkpt lat="42.54351122809747" lon="2.753593554176057"><ele>301.0</ele><time>2026-03-23T13:30:13.998Z</time></trkpt><trkpt lat="42.54357720165532" lon="2.7535869044637296"><ele>301.0</ele><time>2026-03-23T13:30:14.998Z</time></trkpt><trkpt lat="42.54364492453884" lon="2.7535666065434476"><ele>301.0</ele><time>2026-03-23T13:30:15.999Z</time></trkpt><trkpt lat="42.5437093704141" lon="2.7535140364821076"><ele>301.0</ele><time>2026-03-23T13:30:16.999Z</time></trkpt><trkpt lat="42.543752013082745" lon="2.753436259758881"><ele>299.0</ele><time>2026-03-23T13:30:17.999Z</time></trkpt><trkpt lat="42.54376545363425" lon="2.753345746889694"><ele>297.0</ele><time>2026-03-23T13:30:18.999Z</time></trkpt><trkpt lat="42.54376144550765" lon="2.753231629614794"><ele>295.0</ele><time>2026-03-23T13:30:19.999Z</time></trkpt><trkpt lat="42.54374533404051" lon="2.753093232042589"><ele>293.0</ele><time>2026-03-23T13:30:20.999Z</time></trkpt><trkpt lat="42.54373339894525" lon="2.7529503883358752"><ele>291.0</ele><time>2026-03-23T13:30:21.999Z</time></trkpt><trkpt lat="42.54372749049691" lon="2.752804695237083"><ele>292.2</ele><time>2026-03-23T13:30:22.999Z</time></trkpt><trkpt lat="42.543721533681634" lon="2.752663708793482"><ele>293.40000000000003</ele><time>2026-03-23T13:30:23.999Z</time></trkpt><trkpt lat="42.543731157141984" lon="2.752525988598443"><ele>294.6</ele><time>2026-03-23T13:30:24.999Z</time></trkpt><trkpt lat="42.54375582514517" lon="2.75239188534286"><ele>295.8</ele><time>2026-03-23T13:30:25.999Z</time></trkpt><trkpt lat="42.54379502410493" lon="2.752254769160621"><ele>297.0</ele><time>2026-03-23T13:30:26.999Z</time></trkpt><trkpt lat="42.543843530832206" lon="2.752127331120161"><ele>297.0</ele><time>2026-03-23T13:30:27.999Z</time></trkpt><trkpt lat="42.543886770367706" lon="2.751991900929503"><ele>297.0</ele><time>2026-03-23T13:30:28.999Z</time></trkpt><trkpt lat="42.5439326898608" lon="2.751840491414289"><ele>297.0</ele><time>2026-03-23T13:30:29.999Z</time></trkpt><trkpt lat="42.54396705986907" lon="2.7516989023662317"><ele>297.0</ele><time>2026-03-23T13:30:30.999Z</time></trkpt><trkpt lat="42.5440055910788" lon="2.751564377897178"><ele>297.0</ele><time>2026-03-23T13:30:31.999Z</time></trkpt><trkpt lat="42.54399786932419" lon="2.7514420648000257"><ele>298.1666666666667</ele><time>2026-03-23T13:30:32.999Z</time></trkpt><trkpt lat="42.54401692911169" lon="2.751296035061262"><ele>299.3333333333333</ele><time>2026-03-23T13:30:33.999Z</time></trkpt><trkpt lat="42.54399907108824" lon="2.7511540760489415"><ele>300.5</ele><time>2026-03-23T13:30:34.999Z</time></trkpt><trkpt lat="42.544009276312224" lon="2.7510426688535508"><ele>301.66666666666663</ele><time>2026-03-23T13:30:35.999Z</time></trkpt><trkpt lat="42.54398861430237" lon="2.750935598609931"><ele>302.8333333333333</ele><time>2026-03-23T13:30:36.999Z</time></trkpt><trkpt lat="42.54399872666442" lon="2.750851104647155"><ele>304.0</ele><time>2026-03-23T13:30:37.999Z</time></trkpt><trkpt lat="42.5440238518922" lon="2.75077272255413"><ele>305.3333333333333</ele><time>2026-03-23T13:30:38.999Z</time></trkpt><trkpt lat="42.54407629811496" lon="2.75071383816698"><ele>306.66666666666663</ele><time>2026-03-23T13:30:39.999Z</time></trkpt><trkpt lat="42.54414733250672" lon="2.750685246116366"><ele>308.0</ele><time>2026-03-23T13:30:40.999Z</time></trkpt><trkpt lat="42.54422715698819" lon="2.7506940526292047"><ele>309.3333333333333</ele><time>2026-03-23T13:30:41.999Z</time></trkpt><trkpt lat="42.54430741074199" lon="2.7507542356067547"><ele>310.6666666666667</ele><time>2026-03-23T13:30:42.999Z</time></trkpt><trkpt lat="42.54439327208726" lon="2.75076976984277"><ele>312.0</ele><time>2026-03-23T13:30:43.999Z</time></trkpt><trkpt lat="42.544466664636" lon="2.750810762829699"><ele>312.0</ele><time>2026-03-23T13:30:44.999Z</time></trkpt><trkpt lat="42.54451170996956" lon="2.750919585090357"><ele>312.0</ele><time>2026-03-23T13:30:45.999Z</time></trkpt><trkpt lat="42.54455652038739" lon="2.750987325968871"><ele>312.0</ele><time>2026-03-23T13:30:46.999Z</time></trkpt><trkpt lat="42.54451237363921" lon="2.751093300292534"><ele>312.0</ele><time>2026-03-23T13:30:47.999Z</time></trkpt><trkpt lat="42.54450240381403" lon="2.7512059924208025"><ele>312.0</ele><time>2026-03-23T13:30:48.999Z</time></trkpt><trkpt lat="42.54451393845802" lon="2.751319559160121"><ele>312.0</ele><time>2026-03-23T13:30:49.999Z</time></trkpt><trkpt lat="42.54451984298895" lon="2.751429260882157"><ele>311.6666666666667</ele><time>2026-03-23T13:30:50.999Z</time></trkpt><trkpt lat="42.54453707167629" lon="2.7515437102270033"><ele>311.3333333333333</ele><time>2026-03-23T13:30:51.999Z</time></trkpt><trkpt lat="42.54458383639365" lon="2.751628309640729"><ele>311.0</ele><time>2026-03-23T13:30:52.999Z</time></trkpt><trkpt lat="42.54462430698646" lon="2.751694585833346"><ele>310.66666666666663</ele><time>2026-03-23T13:30:53.999Z</time></trkpt><trkpt lat="42.54471095010849" lon="2.751740711722871"><ele>310.3333333333333</ele><time>2026-03-23T13:30:54.999Z</time></trkpt><trkpt lat="42.5448105841423" lon="2.751709624520723"><ele>310.0</ele><time>2026-03-23T13:30:55.999Z</time></trkpt><trkpt lat="42.54488749383417" lon="2.75167373019019"><ele>310.0</ele><time>2026-03-23T13:30:56.999Z</time></trkpt><trkpt lat="42.544941098352616" lon="2.7515849584359873"><ele>310.0</ele><time>2026-03-23T13:30:57.999Z</time></trkpt><trkpt lat="42.54498768102427" lon="2.7515166072108888"><ele>310.0</ele><time>2026-03-23T13:30:58.999Z</time></trkpt><trkpt lat="42.545055047077206" lon="2.7514493753607963"><ele>310.0</ele><time>2026-03-23T13:30:59.999Z</time></trkpt><trkpt lat="42.54516092508623" lon="2.751453080957308"><ele>310.0</ele><time>2026-03-23T13:31:01.999Z</time></trkpt><trkpt lat="42.54522956366023" lon="2.751547029382188"><ele>310.0</ele><time>2026-03-23T13:31:03.999Z</time></trkpt><trkpt lat="42.545246087635746" lon="2.751718945841753"><ele>310.0</ele><time>2026-03-23T13:31:05.999Z</time></trkpt><trkpt lat="42.54525494044264" lon="2.7518422374678995"><ele>310.0</ele><time>2026-03-23T13:31:06.999Z</time></trkpt><trkpt lat="42.54526391091031" lon="2.751967167831384"><ele>310.0</ele><time>2026-03-23T13:31:07.999Z</time></trkpt><trkpt lat="42.545283431304526" lon="2.752117028282761"><ele>310.0</ele><time>2026-03-23T13:31:08.999Z</time></trkpt><trkpt lat="42.545277527616875" lon="2.7522708683275026"><ele>310.0</ele><time>2026-03-23T13:31:09.999Z</time></trkpt><trkpt lat="42.545298417121465" lon="2.752428241165719"><ele>309.5</ele><time>2026-03-23T13:31:10.999Z</time></trkpt><trkpt lat="42.54529933524853" lon="2.752574403993624"><ele>309.0</ele><time>2026-03-23T13:31:11.999Z</time></trkpt><trkpt lat="42.545304570672954" lon="2.752704695984877"><ele>308.5</ele><time>2026-03-23T13:31:12.999Z</time></trkpt><trkpt lat="42.54531581676118" lon="2.7528190489502546"><ele>308.0</ele><time>2026-03-23T13:31:13.999Z</time></trkpt><trkpt lat="42.54534361994626" lon="2.7529092702798916"><ele>307.5</ele><time>2026-03-23T13:31:14.999Z</time></trkpt><trkpt lat="42.545391792805724" lon="2.7529954693679404"><ele>307.0</ele><time>2026-03-23T13:31:15.999Z</time></trkpt><trkpt lat="42.54545261939896" lon="2.7530824012178234"><ele>307.0</ele><time>2026-03-23T13:31:16.999Z</time></trkpt><trkpt lat="42.54551998064642" lon="2.753149800888105"><ele>307.0</ele><time>2026-03-23T13:31:17.999Z</time></trkpt><trkpt lat="42.5456404367808" lon="2.753186561740487"><ele>307.0</ele><time>2026-03-23T13:31:19.999Z</time></trkpt><trkpt lat="42.54571053747855" lon="2.7531852887884747"><ele>307.0</ele><time>2026-03-23T13:31:20.999Z</time></trkpt><trkpt lat="42.54578457690645" lon="2.7531323990641297"><ele>307.0</ele><time>2026-03-23T13:31:21.999Z</time></trkpt><trkpt lat="42.54583660487814" lon="2.7530273276899457"><ele>307.0</ele><time>2026-03-23T13:31:22.999Z</time></trkpt><trkpt lat="42.54589676414503" lon="2.7529276665255504"><ele>307.0</ele><time>2026-03-23T13:31:23.999Z</time></trkpt><trkpt lat="42.545954151312074" lon="2.752806012397172"><ele>307.0</ele><time>2026-03-23T13:31:24.999Z</time></trkpt><trkpt lat="42.54600993621799" lon="2.752691931181708"><ele>307.0</ele><time>2026-03-23T13:31:25.999Z</time></trkpt><trkpt lat="42.546057875704236" lon="2.7525727664976425"><ele>307.0</ele><time>2026-03-23T13:31:26.999Z</time></trkpt><trkpt lat="42.546099537382275" lon="2.7524405540006898"><ele>306.5</ele><time>2026-03-23T13:31:27.999Z</time></trkpt><trkpt lat="42.54613817484094" lon="2.7522903780551697"><ele>306.0</ele><time>2026-03-23T13:31:28.999Z</time></trkpt><trkpt lat="42.54617163239909" lon="2.7521393381114487"><ele>305.5</ele><time>2026-03-23T13:31:29.999Z</time></trkpt><trkpt lat="42.54620876506035" lon="2.7519886178006363"><ele>305.0</ele><time>2026-03-23T13:31:30.999Z</time></trkpt><trkpt lat="42.54624297713934" lon="2.751844340900674"><ele>305.0</ele><time>2026-03-23T13:31:31.999Z</time></trkpt><trkpt lat="42.54629721694567" lon="2.75171009419625"><ele>305.0</ele><time>2026-03-23T13:31:32.999Z</time></trkpt><trkpt lat="42.54633155721017" lon="2.7515926660314367"><ele>305.0</ele><time>2026-03-23T13:31:33.999Z</time></trkpt><trkpt lat="42.546381263841305" lon="2.751502607051289"><ele>305.0</ele><time>2026-03-23T13:31:34.999Z</time></trkpt><trkpt lat="42.54645355148748" lon="2.7514060040504815"><ele>305.0</ele><time>2026-03-23T13:31:35.999Z</time></trkpt><trkpt lat="42.546551806863604" lon="2.7513071360595"><ele>305.0</ele><time>2026-03-23T13:31:36.999Z</time></trkpt><trkpt lat="42.546649007156645" lon="2.751214868866993"><ele>305.0</ele><time>2026-03-23T13:31:37.999Z</time></trkpt><trkpt lat="42.54674121328551" lon="2.7511331409289235"><ele>305.0</ele><time>2026-03-23T13:31:38.999Z</time></trkpt><trkpt lat="42.54691776884364" lon="2.75098124762045"><ele>305.0</ele><time>2026-03-23T13:31:40.999Z</time></trkpt><trkpt lat="42.54698708775406" lon="2.750915983462074"><ele>305.8</ele><time>2026-03-23T13:31:41.999Z</time></trkpt><trkpt lat="42.54704266268369" lon="2.750817573157217"><ele>306.6</ele><time>2026-03-23T13:31:42.999Z</time></trkpt><trkpt lat="42.54710267447086" lon="2.7507187472923627"><ele>307.4</ele><time>2026-03-23T13:31:43.999Z</time></trkpt><trkpt lat="42.54714263733626" lon="2.7505759950981923"><ele>308.2</ele><time>2026-03-23T13:31:44.999Z</time></trkpt><trkpt lat="42.547200270705545" lon="2.7504594904219286"><ele>309.0</ele><time>2026-03-23T13:31:45.999Z</time></trkpt><trkpt lat="42.5472926062861" lon="2.750364554969206"><ele>309.0</ele><time>2026-03-23T13:31:46.999Z</time></trkpt><trkpt lat="42.54737582032134" lon="2.750250568591987"><ele>309.0</ele><time>2026-03-23T13:31:47.999Z</time></trkpt><trkpt lat="42.54745628969288" lon="2.7501607420123784"><ele>309.0</ele><time>2026-03-23T13:31:48.999Z</time></trkpt><trkpt lat="42.547551117768656" lon="2.7500561725541948"><ele>309.0</ele><time>2026-03-23T13:31:49.998Z</time></trkpt><trkpt lat="42.547631236578454" lon="2.7499636125630387"><ele>308.4</ele><time>2026-03-23T13:31:50.998Z</time></trkpt><trkpt lat="42.54773795534609" lon="2.7498625871545608"><ele>307.79999999999995</ele><time>2026-03-23T13:31:51.998Z</time></trkpt><trkpt lat="42.54783041967421" lon="2.7497289640874705"><ele>307.20000000000005</ele><time>2026-03-23T13:31:52.998Z</time></trkpt><trkpt lat="42.547902734862475" lon="2.7496748004057503"><ele>306.6</ele><time>2026-03-23T13:31:53.998Z</time></trkpt><trkpt lat="42.547976388022704" lon="2.7496173447542795"><ele>306.0</ele><time>2026-03-23T13:31:54.998Z</time></trkpt><trkpt lat="42.54809095002" lon="2.749559553837833"><ele>306.0</ele><time>2026-03-23T13:31:55.998Z</time></trkpt><trkpt lat="42.54822270506793" lon="2.749467612041349"><ele>306.0</ele><time>2026-03-23T13:31:56.998Z</time></trkpt><trkpt lat="42.548306321710236" lon="2.7494025831146924"><ele>306.0</ele><time>2026-03-23T13:31:58.998Z</time></trkpt><trkpt lat="42.54836991664061" lon="2.749321344652552"><ele>306.0</ele><time>2026-03-23T13:31:59.998Z</time></trkpt><trkpt lat="42.54843418781498" lon="2.7492124435091605"><ele>306.0</ele><time>2026-03-23T13:32:00.998Z</time></trkpt><trkpt lat="42.54849012785088" lon="2.74910792476887"><ele>307.1666666666667</ele><time>2026-03-23T13:32:01.998Z</time></trkpt><trkpt lat="42.54854748943909" lon="2.7490241648177496"><ele>308.3333333333333</ele><time>2026-03-23T13:32:02.998Z</time></trkpt><trkpt lat="42.54859133004226" lon="2.7489605623091964"><ele>309.5</ele><time>2026-03-23T13:32:03.998Z</time></trkpt><trkpt lat="42.54869384031164" lon="2.7488933252269057"><ele>310.66666666666663</ele><time>2026-03-23T13:32:05.998Z</time></trkpt><trkpt lat="42.54876231282711" lon="2.748925391690812"><ele>311.8333333333333</ele><time>2026-03-23T13:32:06.998Z</time></trkpt><trkpt lat="42.54882762156831" lon="2.7489478717125913"><ele>313.0</ele><time>2026-03-23T13:32:07.998Z</time></trkpt><trkpt lat="42.54887962579871" lon="2.7490131823815793"><ele>313.0</ele><time>2026-03-23T13:32:08.998Z</time></trkpt><trkpt lat="42.548921307260294" lon="2.7490837480582715"><ele>313.0</ele><time>2026-03-23T13:32:09.998Z</time></trkpt><trkpt lat="42.54897284140073" lon="2.7491482450745717"><ele>313.0</ele><time>2026-03-23T13:32:10.998Z</time></trkpt><trkpt lat="42.54908164746995" lon="2.749229931700278"><ele>313.0</ele><time>2026-03-23T13:32:12.998Z</time></trkpt><trkpt lat="42.54914610060681" lon="2.749251425416918"><ele>313.0</ele><time>2026-03-23T13:32:13.998Z</time></trkpt><trkpt lat="42.549210981324805" lon="2.749248084983174"><ele>313.0</ele><time>2026-03-23T13:32:14.998Z</time></trkpt><trkpt lat="42.54926986224763" lon="2.7492135489914085"><ele>313.0</ele><time>2026-03-23T13:32:15.998Z</time></trkpt><trkpt lat="42.549312384027616" lon="2.749146685667753"><ele>313.0</ele><time>2026-03-23T13:32:16.998Z</time></trkpt><trkpt lat="42.54939563058255" lon="2.7490476246742612"><ele>313.0</ele><time>2026-03-23T13:32:19.998Z</time></trkpt><trkpt lat="42.549428329023534" lon="2.7489108158272217"><ele>313.0</ele><time>2026-03-23T13:32:33Z</time></trkpt><trkpt lat="42.54943058138654" lon="2.7488060054376073"><ele>313.0</ele><time>2026-03-23T13:32:34Z</time></trkpt><trkpt lat="42.549441995608355" lon="2.748698376108995"><ele>313.0</ele><time>2026-03-23T13:32:35Z</time></trkpt><trkpt lat="42.54946004221046" lon="2.7485793940897914"><ele>314.8</ele><time>2026-03-23T13:32:36Z</time></trkpt><trkpt lat="42.549478371383636" lon="2.7484342923491143"><ele>316.6</ele><time>2026-03-23T13:32:37Z</time></trkpt><trkpt lat="42.54950166276021" lon="2.748276957038123"><ele>318.40000000000003</ele><time>2026-03-23T13:32:38Z</time></trkpt><trkpt lat="42.549526913928375" lon="2.7481336450619755"><ele>320.20000000000005</ele><time>2026-03-23T13:32:39Z</time></trkpt><trkpt lat="42.54954886200474" lon="2.748005335126729"><ele>322.0</ele><time>2026-03-23T13:32:40Z</time></trkpt><trkpt lat="42.549565247132335" lon="2.747892575278462"><ele>323.66666666666663</ele><time>2026-03-23T13:32:41Z</time></trkpt><trkpt lat="42.54957961879879" lon="2.747790554450404"><ele>325.3333333333333</ele><time>2026-03-23T13:32:42Z</time></trkpt><trkpt lat="42.54957677066054" lon="2.7476768189700445"><ele>327.0</ele><time>2026-03-23T13:32:43Z</time></trkpt><trkpt lat="42.549547261258844" lon="2.747561441977441"><ele>328.6666666666667</ele><time>2026-03-23T13:32:44Z</time></trkpt><trkpt lat="42.549503406734836" lon="2.747444942423573"><ele>330.33333333333337</ele><time>2026-03-23T13:32:45Z</time></trkpt><trkpt lat="42.54947709831291" lon="2.747325637213028"><ele>332.0</ele><time>2026-03-23T13:32:46Z</time></trkpt><trkpt lat="42.54947666195064" lon="2.7471988252502966"><ele>332.0</ele><time>2026-03-23T13:32:47Z</time></trkpt><trkpt lat="42.54950024302218" lon="2.747062383783522"><ele>332.0</ele><time>2026-03-23T13:32:48Z</time></trkpt><trkpt lat="42.549532027838296" lon="2.746917192125333"><ele>332.0</ele><time>2026-03-23T13:32:49Z</time></trkpt><trkpt lat="42.549553128627316" lon="2.746759332792757"><ele>332.0</ele><time>2026-03-23T13:32:50Z</time></trkpt><trkpt lat="42.54954944501571" lon="2.746602622716848"><ele>332.0</ele><time>2026-03-23T13:32:51Z</time></trkpt><trkpt lat="42.549540220426366" lon="2.746446459895017"><ele>333.20000000000005</ele><time>2026-03-23T13:32:52Z</time></trkpt><trkpt lat="42.54953357262543" lon="2.746293034552456"><ele>334.4</ele><time>2026-03-23T13:32:53Z</time></trkpt><trkpt lat="42.54952907763477" lon="2.7461623139817837"><ele>335.6</ele><time>2026-03-23T13:32:54Z</time></trkpt><trkpt lat="42.54952549744615" lon="2.746033266081468"><ele>336.79999999999995</ele><time>2026-03-23T13:32:55Z</time></trkpt><trkpt lat="42.54952480569715" lon="2.7459060065880587"><ele>338.0</ele><time>2026-03-23T13:32:56Z</time></trkpt><trkpt lat="42.549520865309965" lon="2.745779258980919"><ele>338.79999999999995</ele><time>2026-03-23T13:32:57Z</time></trkpt><trkpt lat="42.549521726188786" lon="2.7456547236775384"><ele>339.6</ele><time>2026-03-23T13:32:58Z</time></trkpt><trkpt lat="42.54952162488583" lon="2.745532470572169"><ele>340.4</ele><time>2026-03-23T13:32:59Z</time></trkpt><trkpt lat="42.549522863410715" lon="2.7454284171080396"><ele>341.20000000000005</ele><time>2026-03-23T13:33:00Z</time></trkpt><trkpt lat="42.54953686897052" lon="2.7453062483276436"><ele>342.0</ele><time>2026-03-23T13:33:02Z</time></trkpt><trkpt lat="42.54962840580107" lon="2.7452484748490837"><ele>338.5</ele><time>2026-03-23T13:33:05Z</time></trkpt><trkpt lat="42.549709071433256" lon="2.745129297143368"><ele>335.0</ele><time>2026-03-23T13:33:07Z</time></trkpt><trkpt lat="42.54975662548706" lon="2.7450446262798707"><ele>331.5</ele><time>2026-03-23T13:33:08Z</time></trkpt><trkpt lat="42.5498029170146" lon="2.7449593798833414"><ele>328.0</ele><time>2026-03-23T13:33:09Z</time></trkpt><trkpt lat="42.549845395468786" lon="2.7448815874658252"><ele>324.5</ele><time>2026-03-23T13:33:10Z</time></trkpt><trkpt lat="42.54988230633145" lon="2.7448121262657494"><ele>321.0</ele><time>2026-03-23T13:33:11Z</time></trkpt><trkpt lat="42.54992260710579" lon="2.744665270473619"><ele>321.0</ele><time>2026-03-23T13:33:12.999Z</time></trkpt><trkpt lat="42.549932260341315" lon="2.744574892691672"><ele>321.0</ele><time>2026-03-23T13:33:13.999Z</time></trkpt><trkpt lat="42.54993763085819" lon="2.7444807752298446"><ele>321.0</ele><time>2026-03-23T13:33:14.999Z</time></trkpt><trkpt lat="42.54995332437102" lon="2.744394549885575"><ele>321.0</ele><time>2026-03-23T13:33:15.999Z</time></trkpt><trkpt lat="42.54996224916422" lon="2.744242872510357"><ele>321.0</ele><time>2026-03-23T13:33:17.999Z</time></trkpt><trkpt lat="42.549947097756565" lon="2.7440872420598064"><ele>321.0</ele><time>2026-03-23T13:33:19.999Z</time></trkpt><trkpt lat="42.54993592382528" lon="2.7439915915971453"><ele>321.3333333333333</ele><time>2026-03-23T13:33:20.999Z</time></trkpt><trkpt lat="42.5499172714397" lon="2.7438372352996416"><ele>321.6666666666667</ele><time>2026-03-23T13:33:22.999Z</time></trkpt><trkpt lat="42.54991775556601" lon="2.743710155651934"><ele>322.0</ele><time>2026-03-23T13:33:24.999Z</time></trkpt><trkpt lat="42.54992331560277" lon="2.7436174814430774"><ele>322.33333333333337</ele><time>2026-03-23T13:33:26.999Z</time></trkpt><trkpt lat="42.54989424886003" lon="2.7435378067282854"><ele>322.6666666666667</ele><time>2026-03-23T13:33:29.999Z</time></trkpt><trkpt lat="42.54989901609696" lon="2.743623186686332"><ele>323.0</ele><time>2026-03-23T13:33:37.999Z</time></trkpt><trkpt lat="42.54991052718495" lon="2.7438013083788073"><ele>323.0</ele><time>2026-03-23T13:33:39.999Z</time></trkpt><trkpt lat="42.54990830678957" lon="2.7438890250240284"><ele>323.0</ele><time>2026-03-23T13:33:40.999Z</time></trkpt><trkpt lat="42.54991696344741" lon="2.7440023613987683"><ele>323.0</ele><time>2026-03-23T13:33:41.999Z</time></trkpt><trkpt lat="42.54993201706444" lon="2.7441053033221543"><ele>323.0</ele><time>2026-03-23T13:33:42.999Z</time></trkpt><trkpt lat="42.54994273442431" lon="2.7442058156600058"><ele>323.0</ele><time>2026-03-23T13:33:43.999Z</time></trkpt><trkpt lat="42.549940612697384" lon="2.7443108639269203"><ele>323.0</ele><time>2026-03-23T13:33:44.999Z</time></trkpt><trkpt lat="42.54993466781806" lon="2.7444093371863754"><ele>322.6666666666667</ele><time>2026-03-23T13:33:45.999Z</time></trkpt><trkpt lat="42.54991469027008" lon="2.744520136476139"><ele>322.33333333333337</ele><time>2026-03-23T13:33:46.999Z</time></trkpt><trkpt lat="42.54988405373279" lon="2.7446253274980243"><ele>322.0</ele><time>2026-03-23T13:33:47.999Z</time></trkpt><trkpt lat="42.549875367557206" lon="2.744720178096384"><ele>321.6666666666667</ele><time>2026-03-23T13:33:48.999Z</time></trkpt><trkpt lat="42.54984854159254" lon="2.744813626349402"><ele>321.3333333333333</ele><time>2026-03-23T13:33:49.999Z</time></trkpt><trkpt lat="42.54981360548318" lon="2.744892718572232"><ele>321.0</ele><time>2026-03-23T13:33:50.999Z</time></trkpt><trkpt lat="42.549762786096636" lon="2.7449679696292053"><ele>321.0</ele><time>2026-03-23T13:33:51.999Z</time></trkpt><trkpt lat="42.549713239270616" lon="2.74505090332857"><ele>321.0</ele><time>2026-03-23T13:33:52.999Z</time></trkpt><trkpt lat="42.54966121407653" lon="2.7451364814433727"><ele>321.0</ele><time>2026-03-23T13:33:53.999Z</time></trkpt><trkpt lat="42.5496189969766" lon="2.745202338215707"><ele>321.0</ele><time>2026-03-23T13:33:54.999Z</time></trkpt><trkpt lat="42.549554149269575" lon="2.7452427329675237"><ele>321.0</ele><time>2026-03-23T13:33:56.999Z</time></trkpt><trkpt lat="42.54955030491771" lon="2.7450344012805736"><ele>321.0</ele><time>2026-03-23T13:34:04.999Z</time></trkpt><trkpt lat="42.54958505899865" lon="2.7449107208361747"><ele>321.0</ele><time>2026-03-23T13:34:06.999Z</time></trkpt><trkpt lat="42.54960080058921" lon="2.744809576154761"><ele>321.0</ele><time>2026-03-23T13:34:08.999Z</time></trkpt><trkpt lat="42.54961068561516" lon="2.744658092053556"><ele>321.0</ele><time>2026-03-23T13:34:10.999Z</time></trkpt><trkpt lat="42.549611878095" lon="2.7445694677159107"><ele>321.0</ele><time>2026-03-23T13:34:11.999Z</time></trkpt><trkpt lat="42.54957026802881" lon="2.744428507151987"><ele>324.6</ele><time>2026-03-23T13:34:13.999Z</time></trkpt><trkpt lat="42.54951626208721" lon="2.744275574438622"><ele>328.20000000000005</ele><time>2026-03-23T13:34:15.999Z</time></trkpt><trkpt lat="42.54949261277644" lon="2.7441903749039946"><ele>331.79999999999995</ele><time>2026-03-23T13:34:16.999Z</time></trkpt><trkpt lat="42.54947060382668" lon="2.7441068124570966"><ele>335.4</ele><time>2026-03-23T13:34:17.999Z</time></trkpt><trkpt lat="42.5494305759609" lon="2.743961243908153"><ele>339.0</ele><time>2026-03-23T13:34:19.999Z</time></trkpt><trkpt lat="42.549402301956675" lon="2.7438182510369558"><ele>339.0</ele><time>2026-03-23T13:34:21.998Z</time></trkpt><trkpt lat="42.54939204584501" lon="2.743689556707399"><ele>339.0</ele><time>2026-03-23T13:34:23.998Z</time></trkpt><trkpt lat="42.54940028663227" lon="2.743586139824253"><ele>339.0</ele><time>2026-03-23T13:34:25.998Z</time></trkpt><trkpt lat="42.549397802800044" lon="2.7434994024264503"><ele>339.0</ele><time>2026-03-23T13:34:28.001Z</time></trkpt><trkpt lat="42.54935061307908" lon="2.743441547003165"><ele>339.0</ele><time>2026-03-23T13:34:31.001Z</time></trkpt><trkpt lat="42.54927360838996" lon="2.7434690572513727"><ele>339.0</ele><time>2026-03-23T13:34:33.001Z</time></trkpt><trkpt lat="42.54923064058127" lon="2.7435747110137676"><ele>339.0</ele><time>2026-03-23T13:34:36Z</time></trkpt><trkpt lat="42.549216008840844" lon="2.7436683920102727"><ele>339.0</ele><time>2026-03-23T13:34:38Z</time></trkpt><trkpt lat="42.54920814681361" lon="2.7435644004588746"><ele>339.0</ele><time>2026-03-23T13:35:01Z</time></trkpt><trkpt lat="42.54924200649203" lon="2.743450896644661"><ele>339.0</ele><time>2026-03-23T13:35:06Z</time></trkpt><trkpt lat="42.54930446167491" lon="2.743414358437697"><ele>339.0</ele><time>2026-03-23T13:35:08Z</time></trkpt><trkpt lat="42.54937029052946" lon="2.743407680089273"><ele>339.0</ele><time>2026-03-23T13:35:11Z</time></trkpt><trkpt lat="42.54941279185661" lon="2.743180423182863"><ele>339.0</ele><time>2026-03-23T13:35:15Z</time></trkpt><trkpt lat="42.54936512444578" lon="2.743359654354492"><ele>339.0</ele><time>2026-03-23T13:35:18Z</time></trkpt><trkpt lat="42.5492450466441" lon="2.7434367500121293"><ele>339.0</ele><time>2026-03-23T13:35:19Z</time></trkpt><trkpt lat="42.549215029831856" lon="2.7436904060880156"><ele>339.0</ele><time>2026-03-23T13:35:20Z</time></trkpt><trkpt lat="42.54926949642598" lon="2.742564898023992"><ele>339.0</ele><time>2026-03-23T13:35:21Z</time></trkpt><trkpt lat="42.549237715553026" lon="2.74248214665237"><ele>339.0</ele><time>2026-03-23T13:35:22Z</time></trkpt><trkpt lat="42.549202296976205" lon="2.7424051647720886"><ele>339.0</ele><time>2026-03-23T13:35:23Z</time></trkpt><trkpt lat="42.54915290993998" lon="2.7423383240451957"><ele>339.0</ele><time>2026-03-23T13:35:24Z</time></trkpt><trkpt lat="42.549063508341916" lon="2.7422474820653826"><ele>339.0</ele><time>2026-03-23T13:35:25.999Z</time></trkpt><trkpt lat="42.54901069869577" lon="2.742198493468738"><ele>339.0</ele><time>2026-03-23T13:35:26.999Z</time></trkpt><trkpt lat="42.548949919452504" lon="2.74213881864299"><ele>339.0</ele><time>2026-03-23T13:35:27.999Z</time></trkpt><trkpt lat="42.54886236547583" lon="2.7420429129162667"><ele>339.0</ele><time>2026-03-23T13:35:29.999Z</time></trkpt><trkpt lat="42.54876129052806" lon="2.741944320791676"><ele>339.0</ele><time>2026-03-23T13:35:31.999Z</time></trkpt><trkpt lat="42.5487053781755" lon="2.7418954331548697"><ele>339.0</ele><time>2026-03-23T13:35:32.999Z</time></trkpt><trkpt lat="42.54860660191054" lon="2.7417982061168846"><ele>339.0</ele><time>2026-03-23T13:35:34.999Z</time></trkpt><trkpt lat="42.54855415525971" lon="2.741738542078788"><ele>339.6666666666667</ele><time>2026-03-23T13:35:35.999Z</time></trkpt><trkpt lat="42.54849758362808" lon="2.741682091993177"><ele>340.3333333333333</ele><time>2026-03-23T13:35:36.999Z</time></trkpt><trkpt lat="42.54844000796912" lon="2.7416235894146452"><ele>341.0</ele><time>2026-03-23T13:35:37.999Z</time></trkpt><trkpt lat="42.54837048480075" lon="2.7415665696544647"><ele>341.66666666666663</ele><time>2026-03-23T13:35:38.999Z</time></trkpt><trkpt lat="42.54829776272629" lon="2.7414893817465953"><ele>342.3333333333333</ele><time>2026-03-23T13:35:39.999Z</time></trkpt><trkpt lat="42.548207474146544" lon="2.7414471625109043"><ele>343.0</ele><time>2026-03-23T13:35:40.999Z</time></trkpt><trkpt lat="42.5481202199273" lon="2.74136597280075"><ele>343.0</ele><time>2026-03-23T13:35:41.999Z</time></trkpt><trkpt lat="42.5480231493454" lon="2.7413102746351754"><ele>343.0</ele><time>2026-03-23T13:35:42.999Z</time></trkpt><trkpt lat="42.54794742192137" lon="2.741265353092294"><ele>343.0</ele><time>2026-03-23T13:35:43.999Z</time></trkpt><trkpt lat="42.54779352549099" lon="2.741155222689188"><ele>343.0</ele><time>2026-03-23T13:35:45.999Z</time></trkpt><trkpt lat="42.547751041444805" lon="2.74105059032106"><ele>343.2</ele><time>2026-03-23T13:35:46.999Z</time></trkpt><trkpt lat="42.54769270032843" lon="2.74095360288215"><ele>343.4</ele><time>2026-03-23T13:35:47.999Z</time></trkpt><trkpt lat="42.54766540043679" lon="2.7408343775439272"><ele>343.59999999999997</ele><time>2026-03-23T13:35:48.999Z</time></trkpt><trkpt lat="42.54763886254968" lon="2.740708190935709"><ele>343.79999999999995</ele><time>2026-03-23T13:35:49.999Z</time></trkpt><trkpt lat="42.547598669538914" lon="2.7405953161081062"><ele>344.0</ele><time>2026-03-23T13:35:50.999Z</time></trkpt><trkpt lat="42.54754154974554" lon="2.7404872651668755"><ele>344.0</ele><time>2026-03-23T13:35:51.999Z</time></trkpt><trkpt lat="42.54746571138868" lon="2.7403834035619288"><ele>344.0</ele><time>2026-03-23T13:35:52.999Z</time></trkpt><trkpt lat="42.547377751264335" lon="2.740283564326991"><ele>344.0</ele><time>2026-03-23T13:35:53.999Z</time></trkpt><trkpt lat="42.54728744503562" lon="2.7401822235498288"><ele>344.0</ele><time>2026-03-23T13:35:54.999Z</time></trkpt><trkpt lat="42.54718414277645" lon="2.7400852810235734"><ele>346.5</ele><time>2026-03-23T13:35:55.999Z</time></trkpt><trkpt lat="42.54707869302684" lon="2.7400050980023223"><ele>349.0</ele><time>2026-03-23T13:35:56.999Z</time></trkpt><trkpt lat="42.546963620454065" lon="2.7399397049494363"><ele>351.5</ele><time>2026-03-23T13:35:57.999Z</time></trkpt><trkpt lat="42.54683595416509" lon="2.739878010357544"><ele>354.0</ele><time>2026-03-23T13:35:58.999Z</time></trkpt><trkpt lat="42.546711089049275" lon="2.739816101441811"><ele>354.0</ele><time>2026-03-23T13:35:59.999Z</time></trkpt><trkpt lat="42.54658502849119" lon="2.7397587420192333"><ele>354.0</ele><time>2026-03-23T13:36:00.999Z</time></trkpt><trkpt lat="42.54646802352294" lon="2.739699383643927"><ele>354.0</ele><time>2026-03-23T13:36:01.999Z</time></trkpt><trkpt lat="42.54635300986773" lon="2.7396464728639325"><ele>354.0</ele><time>2026-03-23T13:36:02.999Z</time></trkpt><trkpt lat="42.54623973012794" lon="2.739592803563714"><ele>356.0</ele><time>2026-03-23T13:36:03.999Z</time></trkpt><trkpt lat="42.54614170924692" lon="2.7395436247112133"><ele>358.0</ele><time>2026-03-23T13:36:04.999Z</time></trkpt><trkpt lat="42.546037747963446" lon="2.7394980147109638"><ele>360.0</ele><time>2026-03-23T13:36:05.999Z</time></trkpt><trkpt lat="42.54595148344123" lon="2.739463592768495"><ele>362.0</ele><time>2026-03-23T13:36:06.999Z</time></trkpt><trkpt lat="42.54585669421933" lon="2.739456938138457"><ele>364.0</ele><time>2026-03-23T13:36:07.999Z</time></trkpt><trkpt lat="42.54575513568476" lon="2.7394736363460517"><ele>364.0</ele><time>2026-03-23T13:36:08.999Z</time></trkpt><trkpt lat="42.54566057533218" lon="2.7394776014802993"><ele>364.0</ele><time>2026-03-23T13:36:09.999Z</time></trkpt><trkpt lat="42.545600952540916" lon="2.7394487751383774"><ele>364.0</ele><time>2026-03-23T13:36:10.999Z</time></trkpt><trkpt lat="42.54552120602408" lon="2.7393738572463366"><ele>364.0</ele><time>2026-03-23T13:36:11.999Z</time></trkpt><trkpt lat="42.54549937954172" lon="2.7392621148868943"><ele>364.0</ele><time>2026-03-23T13:36:12.999Z</time></trkpt><trkpt lat="42.54544571232224" lon="2.7391929986448322"><ele>364.0</ele><time>2026-03-23T13:36:13.999Z</time></trkpt><trkpt lat="42.54538630656578" lon="2.739126259535168"><ele>362.0</ele><time>2026-03-23T13:36:14.999Z</time></trkpt><trkpt lat="42.54530021336346" lon="2.7390764077185557"><ele>360.0</ele><time>2026-03-23T13:36:15.999Z</time></trkpt><trkpt lat="42.54519413200777" lon="2.739053788627545"><ele>358.0</ele><time>2026-03-23T13:36:16.999Z</time></trkpt><trkpt lat="42.54508123865582" lon="2.7390261830035723"><ele>356.0</ele><time>2026-03-23T13:36:17.999Z</time></trkpt><trkpt lat="42.54495519333779" lon="2.7390152264857286"><ele>354.0</ele><time>2026-03-23T13:36:18.999Z</time></trkpt><trkpt lat="42.54483375596805" lon="2.738992105008677"><ele>354.0</ele><time>2026-03-23T13:36:19.999Z</time></trkpt><trkpt lat="42.54471868171435" lon="2.7389305602970953"><ele>354.0</ele><time>2026-03-23T13:36:20.999Z</time></trkpt><trkpt lat="42.54458514597199" lon="2.738848166521712"><ele>354.0</ele><time>2026-03-23T13:36:21.999Z</time></trkpt><trkpt lat="42.54444657367683" lon="2.7387048878302815"><ele>354.0</ele><time>2026-03-23T13:36:22.999Z</time></trkpt><trkpt lat="42.54432891139172" lon="2.738599392340339"><ele>354.0</ele><time>2026-03-23T13:36:23.999Z</time></trkpt><trkpt lat="42.54423052964389" lon="2.7385116592954493"><ele>354.0</ele><time>2026-03-23T13:36:24.999Z</time></trkpt><trkpt lat="42.54413406418069" lon="2.7384345338768994"><ele>354.0</ele><time>2026-03-23T13:36:25.999Z</time></trkpt><trkpt lat="42.54403282725025" lon="2.738350621105266"><ele>354.0</ele><time>2026-03-23T13:36:26.999Z</time></trkpt><trkpt lat="42.54393679766207" lon="2.7382546787190085"><ele>354.0</ele><time>2026-03-23T13:36:27.999Z</time></trkpt><trkpt lat="42.54384893432879" lon="2.7381939060820866"><ele>354.0</ele><time>2026-03-23T13:36:28.998Z</time></trkpt><trkpt lat="42.543805653094516" lon="2.7381164739948254"><ele>354.0</ele><time>2026-03-23T13:36:29.998Z</time></trkpt><trkpt lat="42.54358775359264" lon="2.7380632037661945"><ele>354.0</ele><time>2026-03-23T13:36:31.998Z</time></trkpt><trkpt lat="42.543467109218554" lon="2.738083580038122"><ele>356.5</ele><time>2026-03-23T13:36:32.998Z</time></trkpt><trkpt lat="42.5433115936685" lon="2.738155280790851"><ele>359.0</ele><time>2026-03-23T13:36:34Z</time></trkpt><trkpt lat="42.54316541741982" lon="2.7382400928740562"><ele>361.5</ele><time>2026-03-23T13:36:35.001Z</time></trkpt><trkpt lat="42.543053859538894" lon="2.7382821625030926"><ele>364.0</ele><time>2026-03-23T13:36:37Z</time></trkpt><trkpt lat="42.54296847852991" lon="2.7382983036449393"><ele>364.0</ele><time>2026-03-23T13:36:38Z</time></trkpt><trkpt lat="42.54288392315257" lon="2.7382988980153264"><ele>364.0</ele><time>2026-03-23T13:36:39Z</time></trkpt><trkpt lat="42.54279856051857" lon="2.738230353748072"><ele>364.0</ele><time>2026-03-23T13:36:40Z</time></trkpt><trkpt lat="42.542742254088935" lon="2.7381057254548535"><ele>364.0</ele><time>2026-03-23T13:36:41Z</time></trkpt><trkpt lat="42.54267792351268" lon="2.7379742836559022"><ele>364.0</ele><time>2026-03-23T13:36:42Z</time></trkpt><trkpt lat="42.54259221026525" lon="2.7378581784945313"><ele>363.75</ele><time>2026-03-23T13:36:43Z</time></trkpt><trkpt lat="42.542498287417146" lon="2.7377475711879913"><ele>363.5</ele><time>2026-03-23T13:36:44Z</time></trkpt><trkpt lat="42.54239947072677" lon="2.7376539688355535"><ele>363.25</ele><time>2026-03-23T13:36:45Z</time></trkpt><trkpt lat="42.54233781183535" lon="2.737547869003705"><ele>363.0</ele><time>2026-03-23T13:36:46Z</time></trkpt><trkpt lat="42.542280304917604" lon="2.7374171336266024"><ele>363.0</ele><time>2026-03-23T13:36:47Z</time></trkpt><trkpt lat="42.54223497035854" lon="2.737261081305232"><ele>363.0</ele><time>2026-03-23T13:36:48Z</time></trkpt><trkpt lat="42.54217142278188" lon="2.737100283271401"><ele>363.0</ele><time>2026-03-23T13:36:49Z</time></trkpt><trkpt lat="42.54210098488219" lon="2.7369600069945954"><ele>363.0</ele><time>2026-03-23T13:36:50Z</time></trkpt><trkpt lat="42.542027057194936" lon="2.7368306184660187"><ele>366.4</ele><time>2026-03-23T13:36:51Z</time></trkpt><trkpt lat="42.54197191349639" lon="2.7367110346277004"><ele>369.79999999999995</ele><time>2026-03-23T13:36:52Z</time></trkpt><trkpt lat="42.54191542195629" lon="2.73658936589996"><ele>373.2</ele><time>2026-03-23T13:36:53Z</time></trkpt><trkpt lat="42.54185116959326" lon="2.736491050733943"><ele>376.6</ele><time>2026-03-23T13:36:54Z</time></trkpt><trkpt lat="42.541767206729986" lon="2.7364053439616773"><ele>380.0</ele><time>2026-03-23T13:36:55Z</time></trkpt><trkpt lat="42.54169900161631" lon="2.7363424660152442"><ele>380.0</ele><time>2026-03-23T13:36:56Z</time></trkpt><trkpt lat="42.54163685855329" lon="2.736235514456017"><ele>380.0</ele><time>2026-03-23T13:36:57Z</time></trkpt><trkpt lat="42.54160703541619" lon="2.736155951169587"><ele>380.0</ele><time>2026-03-23T13:36:58Z</time></trkpt><trkpt lat="42.54158562481116" lon="2.736041249617212"><ele>380.0</ele><time>2026-03-23T13:36:59Z</time></trkpt><trkpt lat="42.54163394573144" lon="2.7359345170665144"><ele>380.0</ele><time>2026-03-23T13:37:00Z</time></trkpt><trkpt lat="42.541638671979086" lon="2.7358091786069814"><ele>380.0</ele><time>2026-03-23T13:37:01Z</time></trkpt><trkpt lat="42.54163496401043" lon="2.7356840914452163"><ele>377.75</ele><time>2026-03-23T13:37:02Z</time></trkpt><trkpt lat="42.54160411562403" lon="2.7355505507095375"><ele>375.5</ele><time>2026-03-23T13:37:03Z</time></trkpt><trkpt lat="42.54155424646447" lon="2.735403835602093"><ele>373.25</ele><time>2026-03-23T13:37:04Z</time></trkpt><trkpt lat="42.54149754248291" lon="2.7352489764466252"><ele>371.0</ele><time>2026-03-23T13:37:05Z</time></trkpt><trkpt lat="42.54144548643605" lon="2.7350938947309187"><ele>370.4</ele><time>2026-03-23T13:37:06Z</time></trkpt><trkpt lat="42.54139313839986" lon="2.7349410722079956"><ele>369.8</ele><time>2026-03-23T13:37:07Z</time></trkpt><trkpt lat="42.541352606265725" lon="2.7348102538536274"><ele>369.2</ele><time>2026-03-23T13:37:08Z</time></trkpt><trkpt lat="42.5413092128027" lon="2.7346994288674384"><ele>368.59999999999997</ele><time>2026-03-23T13:37:09Z</time></trkpt><trkpt lat="42.54125811449609" lon="2.7345972841507034"><ele>368.0</ele><time>2026-03-23T13:37:10Z</time></trkpt><trkpt lat="42.541189869240505" lon="2.7345041402038905"><ele>369.79999999999995</ele><time>2026-03-23T13:37:11Z</time></trkpt><trkpt lat="42.54111101292006" lon="2.7344354841508642"><ele>371.6</ele><time>2026-03-23T13:37:12Z</time></trkpt><trkpt lat="42.54101036800594" lon="2.734385524376794"><ele>373.4</ele><time>2026-03-23T13:37:13Z</time></trkpt><trkpt lat="42.54090013761141" lon="2.7343598816639427"><ele>375.20000000000005</ele><time>2026-03-23T13:37:14Z</time></trkpt><trkpt lat="42.540769916033014" lon="2.734361000205982"><ele>377.0</ele><time>2026-03-23T13:37:15Z</time></trkpt><trkpt lat="42.540638314897556" lon="2.7343833732670113"><ele>377.0</ele><time>2026-03-23T13:37:16Z</time></trkpt><trkpt lat="42.54053191470001" lon="2.7343905754582636"><ele>377.0</ele><time>2026-03-23T13:37:17Z</time></trkpt><trkpt lat="42.54043757410874" lon="2.734373780704958"><ele>377.0</ele><time>2026-03-23T13:37:18Z</time></trkpt><trkpt lat="42.54036569666195" lon="2.7343319717408856"><ele>377.0</ele><time>2026-03-23T13:37:19Z</time></trkpt><trkpt lat="42.54026304975756" lon="2.7342169482850522"><ele>377.0</ele><time>2026-03-23T13:37:21Z</time></trkpt><trkpt lat="42.54023639059325" lon="2.73403847416763"><ele>377.0</ele><time>2026-03-23T13:37:23Z</time></trkpt><trkpt lat="42.540287219708304" lon="2.73386826112656"><ele>377.0</ele><time>2026-03-23T13:37:25Z</time></trkpt><trkpt lat="42.54033859655281" lon="2.7337661233132806"><ele>377.0</ele><time>2026-03-23T13:37:26Z</time></trkpt><trkpt lat="42.54040582263898" lon="2.7336318893500224"><ele>377.0</ele><time>2026-03-23T13:37:27Z</time></trkpt><trkpt lat="42.540471725819735" lon="2.7334663687313525"><ele>377.0</ele><time>2026-03-23T13:37:28Z</time></trkpt><trkpt lat="42.54053765413146" lon="2.733302025174343"><ele>377.0</ele><time>2026-03-23T13:37:29Z</time></trkpt><trkpt lat="42.54060429880913" lon="2.733124572430399"><ele>377.0</ele><time>2026-03-23T13:37:30Z</time></trkpt><trkpt lat="42.54067175105789" lon="2.7329329334071635"><ele>377.0</ele><time>2026-03-23T13:37:30.999Z</time></trkpt><trkpt lat="42.54073130326269" lon="2.7327346195187734"><ele>379.33333333333337</ele><time>2026-03-23T13:37:31.999Z</time></trkpt><trkpt lat="42.540793345307364" lon="2.732532061772049"><ele>381.6666666666667</ele><time>2026-03-23T13:37:32.999Z</time></trkpt><trkpt lat="42.54085330869065" lon="2.7323312201715675"><ele>384.0</ele><time>2026-03-23T13:37:33.999Z</time></trkpt><trkpt lat="42.54090946923039" lon="2.732130592866762"><ele>384.0</ele><time>2026-03-23T13:37:34.999Z</time></trkpt><trkpt lat="42.54096245028224" lon="2.731963219031077"><ele>384.0</ele><time>2026-03-23T13:37:35.999Z</time></trkpt><trkpt lat="42.541008020008675" lon="2.7318076129244098"><ele>384.0</ele><time>2026-03-23T13:37:36.999Z</time></trkpt><trkpt lat="42.54104530205122" lon="2.7316724854539705"><ele>384.0</ele><time>2026-03-23T13:37:37.999Z</time></trkpt><trkpt lat="42.54108066674039" lon="2.731535381285907"><ele>386.0</ele><time>2026-03-23T13:37:38.999Z</time></trkpt><trkpt lat="42.54110208060819" lon="2.731388698791858"><ele>388.0</ele><time>2026-03-23T13:37:39.999Z</time></trkpt><trkpt lat="42.54109217850752" lon="2.7312682188228172"><ele>390.0</ele><time>2026-03-23T13:37:40.999Z</time></trkpt><trkpt lat="42.54102674847161" lon="2.731091978562054"><ele>392.0</ele><time>2026-03-23T13:37:42.999Z</time></trkpt><trkpt lat="42.540928806886214" lon="2.7308106335021063"><ele>394.25</ele><time>2026-03-23T13:37:43.999Z</time></trkpt><trkpt lat="42.54089494636633" lon="2.7306243989364782"><ele>396.5</ele><time>2026-03-23T13:37:44.999Z</time></trkpt><trkpt lat="42.540869094385705" lon="2.7304590301375975"><ele>398.75</ele><time>2026-03-23T13:37:45.999Z</time></trkpt><trkpt lat="42.540844253858445" lon="2.7302978805805163"><ele>401.0</ele><time>2026-03-23T13:37:46.999Z</time></trkpt><trkpt lat="42.540833832653604" lon="2.73013706069595"><ele>402.25</ele><time>2026-03-23T13:37:47.999Z</time></trkpt><trkpt lat="42.54084595038489" lon="2.729944716216488"><ele>403.5</ele><time>2026-03-23T13:37:48.999Z</time></trkpt><trkpt lat="42.540857305131546" lon="2.7297911540460973"><ele>404.75</ele><time>2026-03-23T13:37:49.999Z</time></trkpt><trkpt lat="42.54089097735421" lon="2.729610097807751"><ele>406.0</ele><time>2026-03-23T13:37:50.999Z</time></trkpt><trkpt lat="42.54092398538942" lon="2.729443741088681"><ele>408.20000000000005</ele><time>2026-03-23T13:37:51.999Z</time></trkpt><trkpt lat="42.54095149353047" lon="2.7292907757022467"><ele>410.40000000000003</ele><time>2026-03-23T13:37:52.999Z</time></trkpt><trkpt lat="42.540982750077475" lon="2.729157086539727"><ele>412.6</ele><time>2026-03-23T13:37:53.999Z</time></trkpt><trkpt lat="42.541023281376155" lon="2.729042770654384"><ele>414.8</ele><time>2026-03-23T13:37:54.999Z</time></trkpt><trkpt lat="42.54107426892445" lon="2.728936510318402"><ele>417.0</ele><time>2026-03-23T13:37:55.999Z</time></trkpt><trkpt lat="42.54113123870457" lon="2.7288665883327314"><ele>417.0</ele><time>2026-03-23T13:37:56.999Z</time></trkpt><trkpt lat="42.541214924293335" lon="2.7287918634627095"><ele>417.0</ele><time>2026-03-23T13:37:57.999Z</time></trkpt><trkpt lat="42.54130779203853" lon="2.728738115414657"><ele>417.0</ele><time>2026-03-23T13:37:58.999Z</time></trkpt><trkpt lat="42.54138148250772" lon="2.728692795231071"><ele>417.0</ele><time>2026-03-23T13:37:59.999Z</time></trkpt><trkpt lat="42.541450700467394" lon="2.7286190664981698"><ele>417.0</ele><time>2026-03-23T13:38:00.999Z</time></trkpt><trkpt lat="42.54150488754269" lon="2.7285110469460974"><ele>417.20000000000005</ele><time>2026-03-23T13:38:01.999Z</time></trkpt><trkpt lat="42.54154878162045" lon="2.728363633961638"><ele>417.4</ele><time>2026-03-23T13:38:02.999Z</time></trkpt><trkpt lat="42.541584959471855" lon="2.728221824997728"><ele>417.6</ele><time>2026-03-23T13:38:03.999Z</time></trkpt><trkpt lat="42.54161490963043" lon="2.7281154899197833"><ele>417.79999999999995</ele><time>2026-03-23T13:38:04.999Z</time></trkpt><trkpt lat="42.541667984679876" lon="2.728014085453991"><ele>418.0</ele><time>2026-03-23T13:38:05.999Z</time></trkpt><trkpt lat="42.54173165017195" lon="2.727922641544477"><ele>418.00000000000006</ele><time>2026-03-23T13:38:06.999Z</time></trkpt><trkpt lat="42.54178300303456" lon="2.727811609024948"><ele>418.0</ele><time>2026-03-23T13:38:07.999Z</time></trkpt><trkpt lat="42.54181427710873" lon="2.7276771179827026"><ele>418.0</ele><time>2026-03-23T13:38:08.999Z</time></trkpt><trkpt lat="42.54184533323517" lon="2.727572559043862"><ele>418.0</ele><time>2026-03-23T13:38:09.999Z</time></trkpt><trkpt lat="42.54186920490313" lon="2.7274758810429622"><ele>418.00000000000006</ele><time>2026-03-23T13:38:10.999Z</time></trkpt><trkpt lat="42.541880412722534" lon="2.7273763199120125"><ele>418.0</ele><time>2026-03-23T13:38:11.999Z</time></trkpt><trkpt lat="42.541974722559665" lon="2.7273343393961405"><ele>418.00000000000006</ele><time>2026-03-23T13:38:13.999Z</time></trkpt><trkpt lat="42.542070779595925" lon="2.7274009573128617"><ele>418.0</ele><time>2026-03-23T13:38:15.999Z</time></trkpt><trkpt lat="42.54208345757538" lon="2.7274950179893467"><ele>418.0</ele><time>2026-03-23T13:38:16.999Z</time></trkpt><trkpt lat="42.5420781910598" lon="2.727581806303716"><ele>418.0</ele><time>2026-03-23T13:38:17.999Z</time></trkpt><trkpt lat="42.54205262092283" lon="2.7276678721877916"><ele>418.00000000000006</ele><time>2026-03-23T13:38:18.999Z</time></trkpt><trkpt lat="42.54202556311963" lon="2.7277815035894117"><ele>418.0</ele><time>2026-03-23T13:38:19.999Z</time></trkpt><trkpt lat="42.542002413667824" lon="2.7279189596411353"><ele>418.0</ele><time>2026-03-23T13:38:20.999Z</time></trkpt><trkpt lat="42.541969679828156" lon="2.728077394136662"><ele>418.0</ele><time>2026-03-23T13:38:21.999Z</time></trkpt><trkpt lat="42.541944307224895" lon="2.728258898201971"><ele>418.0</ele><time>2026-03-23T13:38:22.999Z</time></trkpt><trkpt lat="42.541924779343574" lon="2.7284219121836473"><ele>418.0</ele><time>2026-03-23T13:38:23.999Z</time></trkpt><trkpt lat="42.54191476418667" lon="2.728568558483179"><ele>417.2</ele><time>2026-03-23T13:38:24.999Z</time></trkpt><trkpt lat="42.54191058146809" lon="2.728701615828476"><ele>416.4</ele><time>2026-03-23T13:38:25.999Z</time></trkpt><trkpt lat="42.54190425968505" lon="2.7288153513190845"><ele>415.59999999999997</ele><time>2026-03-23T13:38:26.999Z</time></trkpt><trkpt lat="42.5419066816707" lon="2.72891590618489"><ele>414.79999999999995</ele><time>2026-03-23T13:38:27.999Z</time></trkpt><trkpt lat="42.541964760456594" lon="2.7290614867045973"><ele>414.0</ele><time>2026-03-23T13:38:29.998Z</time></trkpt><trkpt lat="42.54209600786292" lon="2.729093838917058"><ele>414.0</ele><time>2026-03-23T13:38:31.998Z</time></trkpt><trkpt lat="42.542169395043146" lon="2.7290506838655775"><ele>414.0</ele><time>2026-03-23T13:38:32.998Z</time></trkpt><trkpt lat="42.54224738556375" lon="2.72897213440992"><ele>414.0</ele><time>2026-03-23T13:38:33.998Z</time></trkpt><trkpt lat="42.54232003779055" lon="2.7288752679534616"><ele>414.0</ele><time>2026-03-23T13:38:34.998Z</time></trkpt><trkpt lat="42.54240818351825" lon="2.7287077954530568"><ele>414.0</ele><time>2026-03-23T13:38:35.998Z</time></trkpt><trkpt lat="42.54248854242667" lon="2.7285631469070717"><ele>417.25</ele><time>2026-03-23T13:38:36.998Z</time></trkpt><trkpt lat="42.542566923831046" lon="2.728401910437361"><ele>420.5</ele><time>2026-03-23T13:38:37.998Z</time></trkpt><trkpt lat="42.54264197812038" lon="2.7282323171355003"><ele>423.75</ele><time>2026-03-23T13:38:39.001Z</time></trkpt><trkpt lat="42.542719310561424" lon="2.7280596480361345"><ele>427.0</ele><time>2026-03-23T13:38:40.001Z</time></trkpt><trkpt lat="42.54278358612907" lon="2.7278892712530745"><ele>427.0</ele><time>2026-03-23T13:38:41Z</time></trkpt><trkpt lat="42.54285094253504" lon="2.727736780477592"><ele>427.0</ele><time>2026-03-23T13:38:42Z</time></trkpt><trkpt lat="42.54292632121816" lon="2.727614642963228"><ele>427.0</ele><time>2026-03-23T13:38:43Z</time></trkpt><trkpt lat="42.54303672639837" lon="2.7275360408868807"><ele>427.0</ele><time>2026-03-23T13:38:44Z</time></trkpt><trkpt lat="42.5431499882417" lon="2.7274650469232853"><ele>429.5</ele><time>2026-03-23T13:38:45Z</time></trkpt><trkpt lat="42.543276089234276" lon="2.727377765816374"><ele>432.0</ele><time>2026-03-23T13:38:46Z</time></trkpt><trkpt lat="42.5434141526663" lon="2.7273122302445305"><ele>434.5</ele><time>2026-03-23T13:38:47Z</time></trkpt><trkpt lat="42.54354632325674" lon="2.7272469210623878"><ele>437.0</ele><time>2026-03-23T13:38:48Z</time></trkpt><trkpt lat="42.54366163438667" lon="2.7271716493822353"><ele>438.0</ele><time>2026-03-23T13:38:49Z</time></trkpt><trkpt lat="42.54377757908188" lon="2.7270913016283314"><ele>439.0</ele><time>2026-03-23T13:38:50Z</time></trkpt><trkpt lat="42.543887283335444" lon="2.7270026384879573"><ele>440.0</ele><time>2026-03-23T13:38:51Z</time></trkpt><trkpt lat="42.54399771103022" lon="2.7269103094950946"><ele>441.0</ele><time>2026-03-23T13:38:52Z</time></trkpt><trkpt lat="42.54409858087049" lon="2.7268075825857285"><ele>441.5</ele><time>2026-03-23T13:38:53Z</time></trkpt><trkpt lat="42.54419175142098" lon="2.7266772761515163"><ele>442.0</ele><time>2026-03-23T13:38:54Z</time></trkpt><trkpt lat="42.544271423267965" lon="2.7265157116130245"><ele>442.5</ele><time>2026-03-23T13:38:55Z</time></trkpt><trkpt lat="42.54433769006169" lon="2.726326494942516"><ele>443.0</ele><time>2026-03-23T13:38:56Z</time></trkpt><trkpt lat="42.54439139789421" lon="2.726144341732267"><ele>445.0</ele><time>2026-03-23T13:38:57Z</time></trkpt><trkpt lat="42.54443443723313" lon="2.7259530265466014"><ele>447.0</ele><time>2026-03-23T13:38:58Z</time></trkpt><trkpt lat="42.54445962356877" lon="2.7257609106770655"><ele>449.0</ele><time>2026-03-23T13:38:59Z</time></trkpt><trkpt lat="42.5444622361271" lon="2.725566859619985"><ele>451.0</ele><time>2026-03-23T13:39:00Z</time></trkpt><trkpt lat="42.544468588540205" lon="2.7253772253748907"><ele>452.75</ele><time>2026-03-23T13:39:01Z</time></trkpt><trkpt lat="42.544508354162815" lon="2.7252132767975166"><ele>454.5</ele><time>2026-03-23T13:39:02Z</time></trkpt><trkpt lat="42.54456120881911" lon="2.7250610788885696"><ele>456.25</ele><time>2026-03-23T13:39:03Z</time></trkpt><trkpt lat="42.5445898034691" lon="2.724894859157556"><ele>458.0</ele><time>2026-03-23T13:39:04Z</time></trkpt><trkpt lat="42.544586621934336" lon="2.7247018056203394"><ele>459.0</ele><time>2026-03-23T13:39:05Z</time></trkpt><trkpt lat="42.54455997051206" lon="2.7244982390490735"><ele>460.0</ele><time>2026-03-23T13:39:06Z</time></trkpt><trkpt lat="42.544516560787464" lon="2.724290851449482"><ele>461.0</ele><time>2026-03-23T13:39:07Z</time></trkpt><trkpt lat="42.544474290773536" lon="2.724088138959343"><ele>461.0</ele><time>2026-03-23T13:39:08Z</time></trkpt><trkpt lat="42.54443346053192" lon="2.723885119529969"><ele>461.0</ele><time>2026-03-23T13:39:09Z</time></trkpt><trkpt lat="42.544394785192324" lon="2.7236809699989624"><ele>461.0</ele><time>2026-03-23T13:39:10Z</time></trkpt><trkpt lat="42.54435597763583" lon="2.7234773653990327"><ele>460.25</ele><time>2026-03-23T13:39:11Z</time></trkpt><trkpt lat="42.54430635108819" lon="2.723290017418555"><ele>459.5</ele><time>2026-03-23T13:39:12Z</time></trkpt><trkpt lat="42.544255034523374" lon="2.723126618405084"><ele>458.75</ele><time>2026-03-23T13:39:13Z</time></trkpt><trkpt lat="42.544211211427836" lon="2.722957607319772"><ele>458.0</ele><time>2026-03-23T13:39:14Z</time></trkpt><trkpt lat="42.54418439260369" lon="2.7227799443216893"><ele>457.5</ele><time>2026-03-23T13:39:15Z</time></trkpt><trkpt lat="42.544150608317764" lon="2.7226033140900676"><ele>457.0</ele><time>2026-03-23T13:39:16Z</time></trkpt><trkpt lat="42.54408807186361" lon="2.722424378813687"><ele>456.5</ele><time>2026-03-23T13:39:17Z</time></trkpt><trkpt lat="42.54400457818485" lon="2.722253258233348"><ele>456.0</ele><time>2026-03-23T13:39:18Z</time></trkpt><trkpt lat="42.54392609717333" lon="2.72207186027903"><ele>455.25</ele><time>2026-03-23T13:39:19Z</time></trkpt><trkpt lat="42.543868552201594" lon="2.7218870333051326"><ele>454.5</ele><time>2026-03-23T13:39:20Z</time></trkpt><trkpt lat="42.543822490987104" lon="2.721710506628314"><ele>453.75</ele><time>2026-03-23T13:39:21Z</time></trkpt><trkpt lat="42.543750662280736" lon="2.721555867081199"><ele>453.0</ele><time>2026-03-23T13:39:22Z</time></trkpt><trkpt lat="42.5436731828243" lon="2.7214121849400326"><ele>457.5</ele><time>2026-03-23T13:39:23Z</time></trkpt><trkpt lat="42.54362901623729" lon="2.721240871329338"><ele>462.0</ele><time>2026-03-23T13:39:24Z</time></trkpt><trkpt lat="42.54361724954016" lon="2.721059606488193"><ele>466.5</ele><time>2026-03-23T13:39:25Z</time></trkpt><trkpt lat="42.54357562518117" lon="2.720924435652512"><ele>471.0</ele><time>2026-03-23T13:39:25.999Z</time></trkpt><trkpt lat="42.54354409286576" lon="2.7207219930240556"><ele>471.0</ele><time>2026-03-23T13:39:27.999Z</time></trkpt><trkpt lat="42.543526809080056" lon="2.720481924818281"><ele>471.0</ele><time>2026-03-23T13:39:28.999Z</time></trkpt><trkpt lat="42.543550468357154" lon="2.7203349573230984"><ele>471.0</ele><time>2026-03-23T13:39:29.999Z</time></trkpt><trkpt lat="42.543574614209255" lon="2.7202031486498472"><ele>471.0</ele><time>2026-03-23T13:39:30.999Z</time></trkpt><trkpt lat="42.543570318558416" lon="2.720070593208424"><ele>469.75</ele><time>2026-03-23T13:39:31.999Z</time></trkpt><trkpt lat="42.54353727809765" lon="2.719935531785949"><ele>468.5</ele><time>2026-03-23T13:39:32.999Z</time></trkpt><trkpt lat="42.54346119962258" lon="2.7198078301696222"><ele>467.25</ele><time>2026-03-23T13:39:33.999Z</time></trkpt><trkpt lat="42.54334903156855" lon="2.7197117018388823"><ele>466.0</ele><time>2026-03-23T13:39:34.999Z</time></trkpt><trkpt lat="42.54325139628621" lon="2.719628235795583"><ele>466.0</ele><time>2026-03-23T13:39:35.999Z</time></trkpt><trkpt lat="42.54315622984042" lon="2.7195423314567635"><ele>466.0</ele><time>2026-03-23T13:39:36.999Z</time></trkpt><trkpt lat="42.54307650509877" lon="2.719454173147016"><ele>466.0</ele><time>2026-03-23T13:39:37.999Z</time></trkpt><trkpt lat="42.54299558045027" lon="2.719354676658384"><ele>466.0</ele><time>2026-03-23T13:39:38.999Z</time></trkpt><trkpt lat="42.54293177850879" lon="2.7192334478722615"><ele>466.0</ele><time>2026-03-23T13:39:39.999Z</time></trkpt><trkpt lat="42.542887057565636" lon="2.719076920324265"><ele>466.75</ele><time>2026-03-23T13:39:40.999Z</time></trkpt><trkpt lat="42.54284241543862" lon="2.718912533547875"><ele>467.5</ele><time>2026-03-23T13:39:41.999Z</time></trkpt><trkpt lat="42.54277785837697" lon="2.7187472447307353"><ele>468.25</ele><time>2026-03-23T13:39:42.999Z</time></trkpt><trkpt lat="42.542673612977026" lon="2.718616983391726"><ele>469.0</ele><time>2026-03-23T13:39:43.999Z</time></trkpt><trkpt lat="42.542583865494954" lon="2.718473975457195"><ele>469.0</ele><time>2026-03-23T13:39:44.999Z</time></trkpt><trkpt lat="42.54248872370444" lon="2.7183574200562086"><ele>469.0</ele><time>2026-03-23T13:39:45.999Z</time></trkpt><trkpt lat="42.54240371047062" lon="2.7182585445144674"><ele>469.0</ele><time>2026-03-23T13:39:46.999Z</time></trkpt><trkpt lat="42.542324821287956" lon="2.718161398659613"><ele>469.0</ele><time>2026-03-23T13:39:47.999Z</time></trkpt><trkpt lat="42.54228268220684" lon="2.7180695227715166"><ele>469.0</ele><time>2026-03-23T13:39:48.999Z</time></trkpt><trkpt lat="42.54225048463689" lon="2.717965478329206"><ele>469.0</ele><time>2026-03-23T13:39:49.999Z</time></trkpt><trkpt lat="42.542252400229316" lon="2.7178248124476325"><ele>469.0</ele><time>2026-03-23T13:39:50.999Z</time></trkpt><trkpt lat="42.542264372627464" lon="2.7176717441769442"><ele>469.0</ele><time>2026-03-23T13:39:51.999Z</time></trkpt><trkpt lat="42.54226720714275" lon="2.7175188201408784"><ele>469.0</ele><time>2026-03-23T13:39:52.999Z</time></trkpt><trkpt lat="42.54225555062308" lon="2.717387296933832"><ele>469.0</ele><time>2026-03-23T13:39:53.999Z</time></trkpt><trkpt lat="42.542317558070515" lon="2.717163994672017"><ele>469.0</ele><time>2026-03-23T13:39:55.999Z</time></trkpt><trkpt lat="42.54239264760279" lon="2.717068933177848"><ele>469.0</ele><time>2026-03-23T13:39:56.999Z</time></trkpt><trkpt lat="42.542483131632814" lon="2.7169843880844335"><ele>469.0</ele><time>2026-03-23T13:39:57.999Z</time></trkpt><trkpt lat="42.54256969998556" lon="2.716870641738502"><ele>469.0</ele><time>2026-03-23T13:39:58.999Z</time></trkpt><trkpt lat="42.542630470493705" lon="2.716736065891623"><ele>469.0</ele><time>2026-03-23T13:39:59.999Z</time></trkpt><trkpt lat="42.54266844874972" lon="2.716592836606039"><ele>471.25</ele><time>2026-03-23T13:40:00.999Z</time></trkpt><trkpt lat="42.54267988535333" lon="2.7164130956587402"><ele>473.5</ele><time>2026-03-23T13:40:01.999Z</time></trkpt><trkpt lat="42.54267375835483" lon="2.716230119551664"><ele>475.75</ele><time>2026-03-23T13:40:02.999Z</time></trkpt><trkpt lat="42.54266460667405" lon="2.716056336572477"><ele>478.0</ele><time>2026-03-23T13:40:03.999Z</time></trkpt><trkpt lat="42.542656286893745" lon="2.715915089039581"><ele>478.0</ele><time>2026-03-23T13:40:04.999Z</time></trkpt><trkpt lat="42.54266017181922" lon="2.7157854673069357"><ele>477.99999999999994</ele><time>2026-03-23T13:40:05.999Z</time></trkpt><trkpt lat="42.54268473104817" lon="2.715630528855959"><ele>477.99999999999994</ele><time>2026-03-23T13:40:06.999Z</time></trkpt><trkpt lat="42.542734910353374" lon="2.715502476093917"><ele>478.0</ele><time>2026-03-23T13:40:07.999Z</time></trkpt><trkpt lat="42.542805849629396" lon="2.715358959538907"><ele>478.0</ele><time>2026-03-23T13:40:08.999Z</time></trkpt><trkpt lat="42.542884469262596" lon="2.715217764873604"><ele>478.0</ele><time>2026-03-23T13:40:09.999Z</time></trkpt><trkpt lat="42.542968066500386" lon="2.7150630546433616"><ele>478.0</ele><time>2026-03-23T13:40:10.999Z</time></trkpt><trkpt lat="42.54302787341406" lon="2.714890956615424"><ele>478.0</ele><time>2026-03-23T13:40:11.999Z</time></trkpt><trkpt lat="42.5430925971579" lon="2.714711650571592"><ele>478.0</ele><time>2026-03-23T13:40:12.999Z</time></trkpt><trkpt lat="42.543159768254675" lon="2.714530174575682"><ele>480.25</ele><time>2026-03-23T13:40:13.999Z</time></trkpt><trkpt lat="42.54322860707376" lon="2.714368819792396"><ele>482.5</ele><time>2026-03-23T13:40:14.999Z</time></trkpt><trkpt lat="42.543301008891824" lon="2.7142198372464863"><ele>484.75</ele><time>2026-03-23T13:40:15.999Z</time></trkpt><trkpt lat="42.54338990468145" lon="2.714099852666784"><ele>487.0</ele><time>2026-03-23T13:40:16.999Z</time></trkpt><trkpt lat="42.5434851721033" lon="2.713998245235188"><ele>487.0</ele><time>2026-03-23T13:40:17.999Z</time></trkpt><trkpt lat="42.543598993019174" lon="2.7139123833715315"><ele>487.0</ele><time>2026-03-23T13:40:18.998Z</time></trkpt><trkpt lat="42.543722154762456" lon="2.7138395871524312"><ele>487.0</ele><time>2026-03-23T13:40:19.998Z</time></trkpt><trkpt lat="42.543846725878495" lon="2.7137875301931986"><ele>487.0</ele><time>2026-03-23T13:40:20.998Z</time></trkpt><trkpt lat="42.54396868520524" lon="2.713751175670353"><ele>487.25</ele><time>2026-03-23T13:40:21.998Z</time></trkpt><trkpt lat="42.54408066862016" lon="2.7137098372111232"><ele>487.5</ele><time>2026-03-23T13:40:22.998Z</time></trkpt><trkpt lat="42.54418017714066" lon="2.7136264245092265"><ele>487.75</ele><time>2026-03-23T13:40:23.998Z</time></trkpt><trkpt lat="42.54427144173436" lon="2.7135191471750573"><ele>488.0</ele><time>2026-03-23T13:40:24.998Z</time></trkpt><trkpt lat="42.54436532456287" lon="2.713398593326022"><ele>488.0</ele><time>2026-03-23T13:40:25.998Z</time></trkpt><trkpt lat="42.544445016523674" lon="2.7132677572827855"><ele>488.0</ele><time>2026-03-23T13:40:26.998Z</time></trkpt><trkpt lat="42.544508157147675" lon="2.713121264997351"><ele>488.0</ele><time>2026-03-23T13:40:27.998Z</time></trkpt><trkpt lat="42.54456629332651" lon="2.7129553314396277"><ele>488.0</ele><time>2026-03-23T13:40:28.998Z</time></trkpt><trkpt lat="42.544633444953" lon="2.7127828190559122"><ele>489.3333333333333</ele><time>2026-03-23T13:40:29.998Z</time></trkpt><trkpt lat="42.544715532096724" lon="2.71261252988175"><ele>490.66666666666663</ele><time>2026-03-23T13:40:30.998Z</time></trkpt><trkpt lat="42.5448042372698" lon="2.71242986151434"><ele>492.0</ele><time>2026-03-23T13:40:31.998Z</time></trkpt><trkpt lat="42.54488826267635" lon="2.7122562886809614"><ele>492.0</ele><time>2026-03-23T13:40:32.998Z</time></trkpt><trkpt lat="42.54496830556485" lon="2.712089617709512"><ele>492.0</ele><time>2026-03-23T13:40:33.998Z</time></trkpt><trkpt lat="42.54504629260874" lon="2.7119270374084468"><ele>492.0</ele><time>2026-03-23T13:40:34.998Z</time></trkpt><trkpt lat="42.5451192778453" lon="2.7117831482828687"><ele>492.0</ele><time>2026-03-23T13:40:35.998Z</time></trkpt><trkpt lat="42.5451859631002" lon="2.711628279984301"><ele>491.8</ele><time>2026-03-23T13:40:36.998Z</time></trkpt><trkpt lat="42.545253294325306" lon="2.7114697258385143"><ele>491.6</ele><time>2026-03-23T13:40:37.998Z</time></trkpt><trkpt lat="42.54530932215487" lon="2.7113429931339867"><ele>491.40000000000003</ele><time>2026-03-23T13:40:38.998Z</time></trkpt><trkpt lat="42.545358458738946" lon="2.711231565561209"><ele>491.20000000000005</ele><time>2026-03-23T13:40:39.998Z</time></trkpt><trkpt lat="42.54540553860344" lon="2.71112320893922"><ele>491.0</ele><time>2026-03-23T13:40:40.998Z</time></trkpt><trkpt lat="42.545434741747805" lon="2.7110109795791195"><ele>489.20000000000005</ele><time>2026-03-23T13:40:41.998Z</time></trkpt><trkpt lat="42.54544183956612" lon="2.710887559525552"><ele>487.40000000000003</ele><time>2026-03-23T13:40:42.998Z</time></trkpt><trkpt lat="42.545420960034775" lon="2.7107673375802452"><ele>485.6</ele><time>2026-03-23T13:40:43.998Z</time></trkpt><trkpt lat="42.545378679951845" lon="2.710654599979952"><ele>483.8</ele><time>2026-03-23T13:40:45Z</time></trkpt><trkpt lat="42.545308278811376" lon="2.710538943842158"><ele>482.0</ele><time>2026-03-23T13:40:46Z</time></trkpt><trkpt lat="42.54522628703576" lon="2.7104109139743318"><ele>481.75</ele><time>2026-03-23T13:40:47Z</time></trkpt><trkpt lat="42.545156658860684" lon="2.710282991919345"><ele>481.5</ele><time>2026-03-23T13:40:48Z</time></trkpt><trkpt lat="42.54511809105022" lon="2.7101310446815883"><ele>481.25</ele><time>2026-03-23T13:40:49Z</time></trkpt><trkpt lat="42.545066711604306" lon="2.709994550995281"><ele>481.0</ele><time>2026-03-23T13:40:50Z</time></trkpt><trkpt lat="42.54503168022638" lon="2.7098543443626077"><ele>481.00000000000006</ele><time>2026-03-23T13:40:51Z</time></trkpt><trkpt lat="42.54499048508011" lon="2.709758506043063"><ele>481.0</ele><time>2026-03-23T13:40:52Z</time></trkpt><trkpt lat="42.54493572119852" lon="2.709683125518214"><ele>481.0</ele><time>2026-03-23T13:40:53Z</time></trkpt><trkpt lat="42.544865722789744" lon="2.709637115761087"><ele>481.0</ele><time>2026-03-23T13:40:54Z</time></trkpt><trkpt lat="42.54478305838366" lon="2.709603842328855"><ele>481.00000000000006</ele><time>2026-03-23T13:40:55Z</time></trkpt><trkpt lat="42.544681841500264" lon="2.7096000353996517"><ele>481.0</ele><time>2026-03-23T13:40:56Z</time></trkpt><trkpt lat="42.54457073559351" lon="2.7096184025191286"><ele>479.8</ele><time>2026-03-23T13:40:57Z</time></trkpt><trkpt lat="42.544465587955195" lon="2.709653941279078"><ele>478.6</ele><time>2026-03-23T13:40:58Z</time></trkpt><trkpt lat="42.544370466138105" lon="2.7096748756531652"><ele>477.4</ele><time>2026-03-23T13:40:59Z</time></trkpt><trkpt lat="42.544279095498915" lon="2.709661467615057"><ele>476.2</ele><time>2026-03-23T13:41:00Z</time></trkpt><trkpt lat="42.54418805414346" lon="2.7096232592923175"><ele>475.0</ele><time>2026-03-23T13:41:01Z</time></trkpt><trkpt lat="42.54409806613998" lon="2.709558147997842"><ele>475.0</ele><time>2026-03-23T13:41:02Z</time></trkpt><trkpt lat="42.54400694758752" lon="2.709471880741611"><ele>475.0</ele><time>2026-03-23T13:41:03Z</time></trkpt><trkpt lat="42.543918661380566" lon="2.709387452793369"><ele>475.0</ele><time>2026-03-23T13:41:04Z</time></trkpt><trkpt lat="42.54383085010481" lon="2.7093336585774943"><ele>475.0</ele><time>2026-03-23T13:41:05Z</time></trkpt><trkpt lat="42.54367702374906" lon="2.7092956367535614"><ele>476.0</ele><time>2026-03-23T13:41:07Z</time></trkpt><trkpt lat="42.543479066959414" lon="2.7093101306658784"><ele>477.0</ele><time>2026-03-23T13:41:08Z</time></trkpt><trkpt lat="42.54336944355867" lon="2.709287515544877"><ele>478.0</ele><time>2026-03-23T13:41:09Z</time></trkpt><trkpt lat="42.54328973249476" lon="2.7092713157188664"><ele>479.0</ele><time>2026-03-23T13:41:10Z</time></trkpt><trkpt lat="42.54321034777363" lon="2.7092550486524063"><ele>478.99999999999994</ele><time>2026-03-23T13:41:11Z</time></trkpt><trkpt lat="42.543145765009136" lon="2.70919598323927"><ele>479.0</ele><time>2026-03-23T13:41:12Z</time></trkpt><trkpt lat="42.54309426915535" lon="2.709118346697456"><ele>479.0</ele><time>2026-03-23T13:41:13Z</time></trkpt><trkpt lat="42.54305492244669" lon="2.709025549627453"><ele>479.0</ele><time>2026-03-23T13:41:14Z</time></trkpt><trkpt lat="42.54303980268455" lon="2.7089183459558903"><ele>478.99999999999994</ele><time>2026-03-23T13:41:15Z</time></trkpt><trkpt lat="42.543051379036434" lon="2.708806742783663"><ele>479.0</ele><time>2026-03-23T13:41:16Z</time></trkpt><trkpt lat="42.54308949036059" lon="2.708690343798277"><ele>478.25</ele><time>2026-03-23T13:41:17Z</time></trkpt><trkpt lat="42.5431537971101" lon="2.7085701616335314"><ele>477.5</ele><time>2026-03-23T13:41:18Z</time></trkpt><trkpt lat="42.54324009547042" lon="2.708444118044609"><ele>476.75</ele><time>2026-03-23T13:41:19Z</time></trkpt><trkpt lat="42.543322170387086" lon="2.7083152596425775"><ele>476.0</ele><time>2026-03-23T13:41:20Z</time></trkpt><trkpt lat="42.54341277856963" lon="2.7081878953131575"><ele>476.0</ele><time>2026-03-23T13:41:21Z</time></trkpt><trkpt lat="42.54349396088979" lon="2.7080585557840764"><ele>476.0</ele><time>2026-03-23T13:41:22Z</time></trkpt><trkpt lat="42.543570623371636" lon="2.7079293804384044"><ele>476.0</ele><time>2026-03-23T13:41:23Z</time></trkpt><trkpt lat="42.5436434263274" lon="2.707801343808171"><ele>476.0</ele><time>2026-03-23T13:41:24Z</time></trkpt><trkpt lat="42.54371770040259" lon="2.7076750506612504"><ele>479.75</ele><time>2026-03-23T13:41:25Z</time></trkpt><trkpt lat="42.54377979627956" lon="2.7075250943746854"><ele>483.5</ele><time>2026-03-23T13:41:26Z</time></trkpt><trkpt lat="42.54382597045664" lon="2.7073517498762194"><ele>487.25</ele><time>2026-03-23T13:41:27Z</time></trkpt><trkpt lat="42.54385510309605" lon="2.7071704501714255"><ele>491.0</ele><time>2026-03-23T13:41:28Z</time></trkpt><trkpt lat="42.5438753436453" lon="2.7069962630728015"><ele>490.4</ele><time>2026-03-23T13:41:29Z</time></trkpt><trkpt lat="42.543893920900686" lon="2.706832580107442"><ele>489.8</ele><time>2026-03-23T13:41:30Z</time></trkpt><trkpt lat="42.54390528222707" lon="2.7066793958928823"><ele>489.19999999999993</ele><time>2026-03-23T13:41:31Z</time></trkpt><trkpt lat="42.54390908417795" lon="2.706557647296018"><ele>488.59999999999997</ele><time>2026-03-23T13:41:32Z</time></trkpt><trkpt lat="42.54392272994595" lon="2.7064425889162904"><ele>488.0</ele><time>2026-03-23T13:41:32.999Z</time></trkpt><trkpt lat="42.54395892205681" lon="2.7063210087437706"><ele>488.0</ele><time>2026-03-23T13:41:33.999Z</time></trkpt><trkpt lat="42.54401774761556" lon="2.7061953933289664"><ele>488.0</ele><time>2026-03-23T13:41:34.999Z</time></trkpt><trkpt lat="42.54408920610259" lon="2.7060405704907735"><ele>488.0</ele><time>2026-03-23T13:41:35.999Z</time></trkpt><trkpt lat="42.54416039637274" lon="2.705882324013662"><ele>488.0</ele><time>2026-03-23T13:41:36.999Z</time></trkpt><trkpt lat="42.544219917109814" lon="2.705734612968439"><ele>486.4</ele><time>2026-03-23T13:41:37.999Z</time></trkpt><trkpt lat="42.544273542471174" lon="2.705598873486234"><ele>484.79999999999995</ele><time>2026-03-23T13:41:38.999Z</time></trkpt><trkpt lat="42.544318446241384" lon="2.705469225889203"><ele>483.2</ele><time>2026-03-23T13:41:39.999Z</time></trkpt><trkpt lat="42.54436079521231" lon="2.705347641907165"><ele>481.6</ele><time>2026-03-23T13:41:40.999Z</time></trkpt><trkpt lat="42.544382187071996" lon="2.705225993989943"><ele>480.0</ele><time>2026-03-23T13:41:41.999Z</time></trkpt><trkpt lat="42.544379223840515" lon="2.7051011337803748"><ele>479.2</ele><time>2026-03-23T13:41:42.999Z</time></trkpt><trkpt lat="42.54434087627776" lon="2.7049845839847"><ele>478.4</ele><time>2026-03-23T13:41:43.999Z</time></trkpt><trkpt lat="42.54426833873048" lon="2.7048880024790716"><ele>477.6</ele><time>2026-03-23T13:41:44.999Z</time></trkpt><trkpt lat="42.54417628823912" lon="2.7048185501041946"><ele>476.8</ele><time>2026-03-23T13:41:45.999Z</time></trkpt><trkpt lat="42.544088378095594" lon="2.7047223796554585"><ele>476.0</ele><time>2026-03-23T13:41:46.999Z</time></trkpt><trkpt lat="42.54404360817441" lon="2.704571226972291"><ele>476.0</ele><time>2026-03-23T13:41:47.999Z</time></trkpt><trkpt lat="42.544003442587766" lon="2.704430141066517"><ele>476.0</ele><time>2026-03-23T13:41:48.999Z</time></trkpt><trkpt lat="42.54396746304101" lon="2.704317968965594"><ele>476.0</ele><time>2026-03-23T13:41:49.999Z</time></trkpt><trkpt lat="42.543964301116425" lon="2.704176220815674"><ele>476.0</ele><time>2026-03-23T13:41:50.999Z</time></trkpt><trkpt lat="42.54398450243706" lon="2.7040372078790367"><ele>476.0</ele><time>2026-03-23T13:41:51.999Z</time></trkpt><trkpt lat="42.54402210315127" lon="2.703876639040129"><ele>475.5</ele><time>2026-03-23T13:41:52.999Z</time></trkpt><trkpt lat="42.54407296784964" lon="2.7037329245537203"><ele>475.0</ele><time>2026-03-23T13:41:53.999Z</time></trkpt><trkpt lat="42.544122965544595" lon="2.7035639386255363"><ele>474.5</ele><time>2026-03-23T13:41:54.999Z</time></trkpt><trkpt lat="42.54416754262067" lon="2.703412832990211"><ele>474.0</ele><time>2026-03-23T13:41:55.999Z</time></trkpt><trkpt lat="42.54424236964626" lon="2.7031811162982975"><ele>474.0</ele><time>2026-03-23T13:41:57.999Z</time></trkpt><trkpt lat="42.544270229971374" lon="2.703092029493604"><ele>474.0</ele><time>2026-03-23T13:41:58.999Z</time></trkpt><trkpt lat="42.5442933731184" lon="2.702983701326794"><ele>474.0</ele><time>2026-03-23T13:42:00.999Z</time></trkpt><trkpt lat="42.544315312274655" lon="2.702844894970512"><ele>474.0</ele><time>2026-03-23T13:42:03.999Z</time></trkpt><trkpt lat="42.544335041145104" lon="2.7026656105076254"><ele>474.0</ele><time>2026-03-23T13:42:05.999Z</time></trkpt><trkpt lat="42.54435117747046" lon="2.702552346428291"><ele>474.4</ele><time>2026-03-23T13:42:06.999Z</time></trkpt><trkpt lat="42.54437166663115" lon="2.7024171742691507"><ele>474.79999999999995</ele><time>2026-03-23T13:42:07.999Z</time></trkpt><trkpt lat="42.544402176320695" lon="2.702278206785205"><ele>475.20000000000005</ele><time>2026-03-23T13:42:08.999Z</time></trkpt><trkpt lat="42.54442328003241" lon="2.7021328386828825"><ele>475.6</ele><time>2026-03-23T13:42:09.999Z</time></trkpt><trkpt lat="42.54443684813675" lon="2.7019967295921576"><ele>476.0</ele><time>2026-03-23T13:42:10.999Z</time></trkpt><trkpt lat="42.54445237193933" lon="2.7018636341757665"><ele>476.0</ele><time>2026-03-23T13:42:11.999Z</time></trkpt><trkpt lat="42.54445688335729" lon="2.701729283833455"><ele>476.0</ele><time>2026-03-23T13:42:12.999Z</time></trkpt><trkpt lat="42.54444119598975" lon="2.70159353818424"><ele>476.0</ele><time>2026-03-23T13:42:13.999Z</time></trkpt><trkpt lat="42.54440753614121" lon="2.70146098606512"><ele>476.0</ele><time>2026-03-23T13:42:14.999Z</time></trkpt><trkpt lat="42.54435947812584" lon="2.7013381114224133"><ele>476.0</ele><time>2026-03-23T13:42:15.999Z</time></trkpt><trkpt lat="42.54430082839484" lon="2.7012155904322857"><ele>476.0</ele><time>2026-03-23T13:42:16.999Z</time></trkpt><trkpt lat="42.54422526789736" lon="2.701087766445529"><ele>476.0</ele><time>2026-03-23T13:42:17.999Z</time></trkpt><trkpt lat="42.54413737833312" lon="2.7009670922996554"><ele>476.0</ele><time>2026-03-23T13:42:18.999Z</time></trkpt><trkpt lat="42.54405684682042" lon="2.7008604073945697"><ele>476.0</ele><time>2026-03-23T13:42:19.999Z</time></trkpt><trkpt lat="42.543987776548704" lon="2.700748602223354"><ele>476.6</ele><time>2026-03-23T13:42:20.999Z</time></trkpt><trkpt lat="42.54393234665118" lon="2.7006369381072948"><ele>477.20000000000005</ele><time>2026-03-23T13:42:21.999Z</time></trkpt><trkpt lat="42.54389909721088" lon="2.700514153338992"><ele>477.79999999999995</ele><time>2026-03-23T13:42:22.999Z</time></trkpt><trkpt lat="42.54390045429404" lon="2.7003713867909602"><ele>478.4</ele><time>2026-03-23T13:42:23.998Z</time></trkpt><trkpt lat="42.54389977475958" lon="2.70022530842258"><ele>479.0</ele><time>2026-03-23T13:42:24.998Z</time></trkpt><trkpt lat="42.54392757717642" lon="2.7000650318737014"><ele>479.0</ele><time>2026-03-23T13:42:25.998Z</time></trkpt><trkpt lat="42.543951459757096" lon="2.699898432515018"><ele>479.0</ele><time>2026-03-23T13:42:26.998Z</time></trkpt><trkpt lat="42.5439775066977" lon="2.6997342376259543"><ele>479.0</ele><time>2026-03-23T13:42:27.998Z</time></trkpt><trkpt lat="42.54400195792375" lon="2.6995707725681406"><ele>479.0</ele><time>2026-03-23T13:42:28.998Z</time></trkpt><trkpt lat="42.544019447675375" lon="2.6994091797439332"><ele>480.0</ele><time>2026-03-23T13:42:29.998Z</time></trkpt><trkpt lat="42.54403755905558" lon="2.69926597714167"><ele>481.0</ele><time>2026-03-23T13:42:30.998Z</time></trkpt><trkpt lat="42.544058437567735" lon="2.699122366802369"><ele>482.0</ele><time>2026-03-23T13:42:31.998Z</time></trkpt><trkpt lat="42.544114656012894" lon="2.6989196051902655"><ele>483.0</ele><time>2026-03-23T13:42:32.998Z</time></trkpt><trkpt lat="42.54408187958045" lon="2.698843720221666"><ele>484.0</ele><time>2026-03-23T13:42:33.998Z</time></trkpt><trkpt lat="42.54414480090927" lon="2.6985853743615213"><ele>485.4</ele><time>2026-03-23T13:42:35.998Z</time></trkpt><trkpt lat="42.54420363205504" lon="2.698469809408307"><ele>486.79999999999995</ele><time>2026-03-23T13:42:36.998Z</time></trkpt><trkpt lat="42.5442716411634" lon="2.6983569209976896"><ele>488.20000000000005</ele><time>2026-03-23T13:42:37.998Z</time></trkpt><trkpt lat="42.54433041340991" lon="2.698253052588459"><ele>489.6</ele><time>2026-03-23T13:42:38.998Z</time></trkpt><trkpt lat="42.544376748481056" lon="2.698160198348772"><ele>491.0</ele><time>2026-03-23T13:42:39.998Z</time></trkpt><trkpt lat="42.54440705371216" lon="2.6980647171133523"><ele>490.99999999999994</ele><time>2026-03-23T13:42:40.998Z</time></trkpt><trkpt lat="42.54441246125341" lon="2.6979653010370854"><ele>491.0</ele><time>2026-03-23T13:42:41.998Z</time></trkpt><trkpt lat="42.54438897642898" lon="2.697857006696392"><ele>491.0</ele><time>2026-03-23T13:42:42.998Z</time></trkpt><trkpt lat="42.54433492085175" lon="2.69776335201513"><ele>491.0</ele><time>2026-03-23T13:42:43.998Z</time></trkpt><trkpt lat="42.54426612906923" lon="2.697673733541278"><ele>490.99999999999994</ele><time>2026-03-23T13:42:44.998Z</time></trkpt><trkpt lat="42.544189721691524" lon="2.6975820694098114"><ele>491.0</ele><time>2026-03-23T13:42:45.998Z</time></trkpt><trkpt lat="42.54410983990078" lon="2.6974680459688365"><ele>491.16666666666663</ele><time>2026-03-23T13:42:46.998Z</time></trkpt><trkpt lat="42.544045425807084" lon="2.6973552036678687"><ele>491.3333333333333</ele><time>2026-03-23T13:42:47.998Z</time></trkpt><trkpt lat="42.543987929572715" lon="2.6972629631032268"><ele>491.5</ele><time>2026-03-23T13:42:48.998Z</time></trkpt><trkpt lat="42.54394520035278" lon="2.697186268458074"><ele>491.66666666666663</ele><time>2026-03-23T13:42:49.998Z</time></trkpt><trkpt lat="42.54388626894441" lon="2.6971003352802594"><ele>491.8333333333333</ele><time>2026-03-23T13:42:52Z</time></trkpt><trkpt lat="42.543801602549436" lon="2.6970578697109833"><ele>492.0</ele><time>2026-03-23T13:42:54Z</time></trkpt><trkpt lat="42.54367376881874" lon="2.6970402630926213"><ele>493.7142857142858</ele><time>2026-03-23T13:42:56Z</time></trkpt><trkpt lat="42.54360981689815" lon="2.6970175294334786"><ele>495.42857142857144</ele><time>2026-03-23T13:42:57Z</time></trkpt><trkpt lat="42.543508456850475" lon="2.6970205433445296"><ele>497.14285714285717</ele><time>2026-03-23T13:42:59Z</time></trkpt><trkpt lat="42.54344503994905" lon="2.6970199566125053"><ele>498.8571428571429</ele><time>2026-03-23T13:43:00Z</time></trkpt><trkpt lat="42.54337714601355" lon="2.697026765539414"><ele>500.57142857142856</ele><time>2026-03-23T13:43:01Z</time></trkpt><trkpt lat="42.54330621399279" lon="2.697006772076228"><ele>502.2857142857143</ele><time>2026-03-23T13:43:02Z</time></trkpt><trkpt lat="42.543245849226906" lon="2.6969528909365477"><ele>504.0</ele><time>2026-03-23T13:43:03Z</time></trkpt><trkpt lat="42.5431752885941" lon="2.6969220272825756"><ele>503.6666666666667</ele><time>2026-03-23T13:43:04Z</time></trkpt><trkpt lat="42.543105212938926" lon="2.6968913757468824"><ele>503.33333333333337</ele><time>2026-03-23T13:43:05Z</time></trkpt><trkpt lat="42.54302847605115" lon="2.696875417370219"><ele>503.0</ele><time>2026-03-23T13:43:06Z</time></trkpt><trkpt lat="42.54295765913987" lon="2.6968411879028653"><ele>502.6666666666667</ele><time>2026-03-23T13:43:07Z</time></trkpt><trkpt lat="42.54288394669269" lon="2.696815307680014"><ele>502.33333333333337</ele><time>2026-03-23T13:43:08Z</time></trkpt><trkpt lat="42.5428096865447" lon="2.696794961702994"><ele>502.0</ele><time>2026-03-23T13:43:09Z</time></trkpt><trkpt lat="42.54273258267948" lon="2.696773675661947"><ele>501.99999999999994</ele><time>2026-03-23T13:43:10Z</time></trkpt><trkpt lat="42.54265957591883" lon="2.696751125653489"><ele>502.0</ele><time>2026-03-23T13:43:11Z</time></trkpt><trkpt lat="42.54258754680418" lon="2.6967358989610513"><ele>501.99999999999994</ele><time>2026-03-23T13:43:12Z</time></trkpt><trkpt lat="42.54252836233693" lon="2.6967005056167723"><ele>501.99999999999994</ele><time>2026-03-23T13:43:13Z</time></trkpt><trkpt lat="42.542473920527954" lon="2.696657317285876"><ele>502.0</ele><time>2026-03-23T13:43:14Z</time></trkpt><trkpt lat="42.54243092256464" lon="2.6965901942785253"><ele>501.99999999999994</ele><time>2026-03-23T13:43:15Z</time></trkpt><trkpt lat="42.542386617423645" lon="2.69652333688446"><ele>501.99999999999994</ele><time>2026-03-23T13:43:16Z</time></trkpt><trkpt lat="42.54235415097217" lon="2.696325046214378"><ele>502.00000000000006</ele><time>2026-03-23T13:43:18Z</time></trkpt><trkpt lat="42.54235354627984" lon="2.6962008535392123"><ele>502.0</ele><time>2026-03-23T13:43:19Z</time></trkpt><trkpt lat="42.54236988244291" lon="2.6960639095134433"><ele>502.0</ele><time>2026-03-23T13:43:20Z</time></trkpt><trkpt lat="42.54238304031807" lon="2.6959454678456956"><ele>502.0</ele><time>2026-03-23T13:43:21Z</time></trkpt><trkpt lat="42.54239987114233" lon="2.6958298162468286"><ele>502.00000000000006</ele><time>2026-03-23T13:43:22Z</time></trkpt><trkpt lat="42.54241022068415" lon="2.6957380601211125"><ele>502.0</ele><time>2026-03-23T13:43:23Z</time></trkpt><trkpt lat="42.54242134915315" lon="2.695614756573418"><ele>501.6666666666667</ele><time>2026-03-23T13:43:24Z</time></trkpt><trkpt lat="42.542451515762735" lon="2.695486869271642"><ele>501.33333333333337</ele><time>2026-03-23T13:43:25Z</time></trkpt><trkpt lat="42.542468316411956" lon="2.6953724071968823"><ele>501.0</ele><time>2026-03-23T13:43:26Z</time></trkpt><trkpt lat="42.542481431660654" lon="2.6952612008160615"><ele>500.66666666666663</ele><time>2026-03-23T13:43:27Z</time></trkpt><trkpt lat="42.54249315248942" lon="2.6951485016658543"><ele>500.3333333333333</ele><time>2026-03-23T13:43:28Z</time></trkpt><trkpt lat="42.54249261201818" lon="2.6950461060535966"><ele>500.0</ele><time>2026-03-23T13:43:29Z</time></trkpt><trkpt lat="42.542480530416746" lon="2.694934869724258"><ele>500.66666666666663</ele><time>2026-03-23T13:43:30Z</time></trkpt><trkpt lat="42.54244565886267" lon="2.694834409649014"><ele>501.3333333333333</ele><time>2026-03-23T13:43:31Z</time></trkpt><trkpt lat="42.54238516712844" lon="2.694761059300391"><ele>502.0</ele><time>2026-03-23T13:43:32Z</time></trkpt><trkpt lat="42.54230795244945" lon="2.6947100208723613"><ele>502.66666666666663</ele><time>2026-03-23T13:43:33Z</time></trkpt><trkpt lat="42.542215887306874" lon="2.694674637024699"><ele>503.3333333333333</ele><time>2026-03-23T13:43:34Z</time></trkpt><trkpt lat="42.54213537992112" lon="2.6946146350303173"><ele>504.0</ele><time>2026-03-23T13:43:35Z</time></trkpt><trkpt lat="42.542058039362225" lon="2.6945774659930706"><ele>505.8333333333333</ele><time>2026-03-23T13:43:36Z</time></trkpt><trkpt lat="42.54199941615451" lon="2.6944903310127426"><ele>507.66666666666663</ele><time>2026-03-23T13:43:37Z</time></trkpt><trkpt lat="42.54197047944872" lon="2.6943918467042924"><ele>509.5</ele><time>2026-03-23T13:43:37.999Z</time></trkpt><trkpt lat="42.54196099612598" lon="2.694270482896969"><ele>511.3333333333333</ele><time>2026-03-23T13:43:38.999Z</time></trkpt><trkpt lat="42.54197440183081" lon="2.694157526960029"><ele>513.1666666666666</ele><time>2026-03-23T13:43:39.999Z</time></trkpt><trkpt lat="42.541992463436706" lon="2.6940475691758614"><ele>515.0</ele><time>2026-03-23T13:43:40.999Z</time></trkpt><trkpt lat="42.54199102995018" lon="2.6939275252738595"><ele>515.0</ele><time>2026-03-23T13:43:41.999Z</time></trkpt><trkpt lat="42.54195908969837" lon="2.6937670339238857"><ele>515.0</ele><time>2026-03-23T13:43:42.999Z</time></trkpt><trkpt lat="42.54189435413251" lon="2.6937020352188337"><ele>515.0</ele><time>2026-03-23T13:43:43.999Z</time></trkpt><trkpt lat="42.541809728237176" lon="2.693707996195401"><ele>515.0</ele><time>2026-03-23T13:43:44.999Z</time></trkpt><trkpt lat="42.54153909075931" lon="2.6935974358070234"><ele>513.8</ele><time>2026-03-23T13:43:46.999Z</time></trkpt><trkpt lat="42.54144290927731" lon="2.6935011410593988"><ele>512.6</ele><time>2026-03-23T13:43:49.999Z</time></trkpt><trkpt lat="42.54141629799716" lon="2.6933919280051533"><ele>511.4</ele><time>2026-03-23T13:43:50.999Z</time></trkpt><trkpt lat="42.54142036324612" lon="2.6932854979710057"><ele>510.2</ele><time>2026-03-23T13:43:51.999Z</time></trkpt><trkpt lat="42.54141553135335" lon="2.6931639511503818"><ele>509.0</ele><time>2026-03-23T13:43:52.999Z</time></trkpt><trkpt lat="42.541405586785814" lon="2.6930420664250065"><ele>509.0</ele><time>2026-03-23T13:43:53.999Z</time></trkpt><trkpt lat="42.54138381355034" lon="2.6929374959684047"><ele>509.0</ele><time>2026-03-23T13:43:54.999Z</time></trkpt><trkpt lat="42.541340890403895" lon="2.692837264438477"><ele>509.0</ele><time>2026-03-23T13:43:55.999Z</time></trkpt><trkpt lat="42.54127433338389" lon="2.692765917521366"><ele>509.0</ele><time>2026-03-23T13:43:56.999Z</time></trkpt><trkpt lat="42.54118441177824" lon="2.6927226439928607"><ele>509.0</ele><time>2026-03-23T13:43:57.999Z</time></trkpt><trkpt lat="42.54107662540892" lon="2.6927090700407805"><ele>510.79999999999995</ele><time>2026-03-23T13:43:58.999Z</time></trkpt><trkpt lat="42.54096593246193" lon="2.692705327624606"><ele>512.5999999999999</ele><time>2026-03-23T13:43:59.999Z</time></trkpt><trkpt lat="42.540862514149154" lon="2.6926901987208027"><ele>514.4</ele><time>2026-03-23T13:44:00.999Z</time></trkpt><trkpt lat="42.5407713370304" lon="2.692652433228955"><ele>516.1999999999999</ele><time>2026-03-23T13:44:01.999Z</time></trkpt><trkpt lat="42.540689710079846" lon="2.692563107686039"><ele>518.0</ele><time>2026-03-23T13:44:02.999Z</time></trkpt><trkpt lat="42.54059197856477" lon="2.692503404452912"><ele>518.0</ele><time>2026-03-23T13:44:03.999Z</time></trkpt><trkpt lat="42.54051078697652" lon="2.69243076650572"><ele>518.0</ele><time>2026-03-23T13:44:04.999Z</time></trkpt><trkpt lat="42.540411883776656" lon="2.6923849668644957"><ele>518.0</ele><time>2026-03-23T13:44:05.999Z</time></trkpt><trkpt lat="42.54030422208375" lon="2.6923716383152665"><ele>518.0</ele><time>2026-03-23T13:44:06.999Z</time></trkpt><trkpt lat="42.54019066163097" lon="2.6923914516603813"><ele>518.0</ele><time>2026-03-23T13:44:07.999Z</time></trkpt><trkpt lat="42.54008039548089" lon="2.692423950458532"><ele>518.6</ele><time>2026-03-23T13:44:08.999Z</time></trkpt><trkpt lat="42.539983996646946" lon="2.692439739849391"><ele>519.1999999999999</ele><time>2026-03-23T13:44:09.999Z</time></trkpt><trkpt lat="42.539894520687426" lon="2.692433722159946"><ele>519.8</ele><time>2026-03-23T13:44:10.999Z</time></trkpt><trkpt lat="42.539803999341075" lon="2.692367606936416"><ele>520.4</ele><time>2026-03-23T13:44:11.999Z</time></trkpt><trkpt lat="42.53971426298293" lon="2.6922917638185004"><ele>521.0</ele><time>2026-03-23T13:44:12.999Z</time></trkpt><trkpt lat="42.5396216313442" lon="2.692207637640997"><ele>522.8</ele><time>2026-03-23T13:44:13.999Z</time></trkpt><trkpt lat="42.53952476568367" lon="2.692124527614639"><ele>524.6</ele><time>2026-03-23T13:44:14.999Z</time></trkpt><trkpt lat="42.53944219605489" lon="2.6920508544130097"><ele>526.4</ele><time>2026-03-23T13:44:15.999Z</time></trkpt><trkpt lat="42.539370505197056" lon="2.6919585061267393"><ele>528.2</ele><time>2026-03-23T13:44:16.999Z</time></trkpt><trkpt lat="42.53931408641134" lon="2.691849629627067"><ele>530.0</ele><time>2026-03-23T13:44:17.999Z</time></trkpt><trkpt lat="42.539290992270786" lon="2.691716519014542"><ele>530.0</ele><time>2026-03-23T13:44:18.999Z</time></trkpt><trkpt lat="42.539281910798074" lon="2.691574993604805"><ele>530.0</ele><time>2026-03-23T13:44:19.999Z</time></trkpt><trkpt lat="42.53925766999909" lon="2.6914513722290296"><ele>530.0</ele><time>2026-03-23T13:44:20.999Z</time></trkpt><trkpt lat="42.53922492697478" lon="2.6913304694326863"><ele>530.0</ele><time>2026-03-23T13:44:21.999Z</time></trkpt><trkpt lat="42.53915126950417" lon="2.6912327478868394"><ele>530.0</ele><time>2026-03-23T13:44:22.999Z</time></trkpt><trkpt lat="42.53908215959009" lon="2.691126898810737"><ele>529.0</ele><time>2026-03-23T13:44:23.999Z</time></trkpt><trkpt lat="42.53898858692444" lon="2.691029754667867"><ele>528.0</ele><time>2026-03-23T13:44:24.999Z</time></trkpt><trkpt lat="42.53888469165045" lon="2.6909299972600436"><ele>527.0</ele><time>2026-03-23T13:44:25.999Z</time></trkpt><trkpt lat="42.53878068860399" lon="2.6908373824754444"><ele>526.0</ele><time>2026-03-23T13:44:26.998Z</time></trkpt><trkpt lat="42.53868003645836" lon="2.690749763100497"><ele>528.6</ele><time>2026-03-23T13:44:27.998Z</time></trkpt><trkpt lat="42.53857534106914" lon="2.690682772213797"><ele>531.2</ele><time>2026-03-23T13:44:28.998Z</time></trkpt><trkpt lat="42.53848489629701" lon="2.690610503245688"><ele>533.8</ele><time>2026-03-23T13:44:29.998Z</time></trkpt><trkpt lat="42.53841476619066" lon="2.690531044731876"><ele>536.4</ele><time>2026-03-23T13:44:30.998Z</time></trkpt><trkpt lat="42.53834775382673" lon="2.6904777721206483"><ele>539.0</ele><time>2026-03-23T13:44:31.998Z</time></trkpt><trkpt lat="42.53827863358015" lon="2.6904315235590572"><ele>539.0</ele><time>2026-03-23T13:44:32.998Z</time></trkpt><trkpt lat="42.53824273070304" lon="2.6903369621503113"><ele>539.0</ele><time>2026-03-23T13:44:33.998Z</time></trkpt><trkpt lat="42.53822600073633" lon="2.690225817695366"><ele>539.0</ele><time>2026-03-23T13:44:34.998Z</time></trkpt><trkpt lat="42.53823597456832" lon="2.6900946398936414"><ele>539.0</ele><time>2026-03-23T13:44:35.998Z</time></trkpt><trkpt lat="42.53827640671848" lon="2.6899646057685556"><ele>539.0</ele><time>2026-03-23T13:44:36.998Z</time></trkpt><trkpt lat="42.53825250544624" lon="2.6898100798581863"><ele>538.6</ele><time>2026-03-23T13:44:37.998Z</time></trkpt><trkpt lat="42.53823148667356" lon="2.6896513885437305"><ele>538.2</ele><time>2026-03-23T13:44:38.998Z</time></trkpt><trkpt lat="42.538189521082735" lon="2.68951338724859"><ele>537.8000000000001</ele><time>2026-03-23T13:44:39.998Z</time></trkpt><trkpt lat="42.538161300578686" lon="2.689412131399486"><ele>537.4</ele><time>2026-03-23T13:44:40.998Z</time></trkpt><trkpt lat="42.538163765044715" lon="2.6892787448078392"><ele>537.0</ele><time>2026-03-23T13:44:41.998Z</time></trkpt><trkpt lat="42.53819758303341" lon="2.6891516807619387"><ele>537.0</ele><time>2026-03-23T13:44:42.998Z</time></trkpt><trkpt lat="42.5382535556155" lon="2.6890242301890757"><ele>537.0</ele><time>2026-03-23T13:44:43.998Z</time></trkpt><trkpt lat="42.53831040837353" lon="2.688888509060834"><ele>537.0</ele><time>2026-03-23T13:44:44.998Z</time></trkpt><trkpt lat="42.538352069466946" lon="2.6887426714805436"><ele>537.0</ele><time>2026-03-23T13:44:45.998Z</time></trkpt><trkpt lat="42.53837424417716" lon="2.6886205273191117"><ele>537.0</ele><time>2026-03-23T13:44:46.998Z</time></trkpt><trkpt lat="42.53837829103518" lon="2.688506108725521"><ele>537.6</ele><time>2026-03-23T13:44:47.998Z</time></trkpt><trkpt lat="42.538359800909014" lon="2.688380064737868"><ele>538.2</ele><time>2026-03-23T13:44:48.998Z</time></trkpt><trkpt lat="42.53831657038066" lon="2.6882539286636606"><ele>538.8</ele><time>2026-03-23T13:44:49.998Z</time></trkpt><trkpt lat="42.53829808237587" lon="2.6881237943284253"><ele>539.4</ele><time>2026-03-23T13:44:50.998Z</time></trkpt><trkpt lat="42.538271037409295" lon="2.6880094505649503"><ele>540.0</ele><time>2026-03-23T13:44:51.998Z</time></trkpt><trkpt lat="42.538291928443975" lon="2.687878658604247"><ele>540.75</ele><time>2026-03-23T13:44:52.998Z</time></trkpt><trkpt lat="42.538342463190936" lon="2.6877492045844376"><ele>541.5</ele><time>2026-03-23T13:44:53.998Z</time></trkpt><trkpt lat="42.53840144417905" lon="2.6876239589759368"><ele>542.25</ele><time>2026-03-23T13:44:54.998Z</time></trkpt><trkpt lat="42.53847162919914" lon="2.6874921170652923"><ele>543.0</ele><time>2026-03-23T13:44:55.998Z</time></trkpt><trkpt lat="42.538556584847235" lon="2.687371003799239"><ele>543.0</ele><time>2026-03-23T13:44:57Z</time></trkpt><trkpt lat="42.538629463426965" lon="2.687318687474312"><ele>543.0</ele><time>2026-03-23T13:44:58Z</time></trkpt><trkpt lat="42.538696292892496" lon="2.6872245668842605"><ele>543.0</ele><time>2026-03-23T13:44:59Z</time></trkpt><trkpt lat="42.5387519676014" lon="2.6871003627893777"><ele>543.0</ele><time>2026-03-23T13:45:00Z</time></trkpt><trkpt lat="42.53880611648329" lon="2.6869520865344274"><ele>543.0</ele><time>2026-03-23T13:45:01Z</time></trkpt><trkpt lat="42.53886640699066" lon="2.6868324476469354"><ele>542.25</ele><time>2026-03-23T13:45:02Z</time></trkpt><trkpt lat="42.538956638716925" lon="2.68673491659763"><ele>541.5</ele><time>2026-03-23T13:45:03Z</time></trkpt><trkpt lat="42.53906053640583" lon="2.68664190677608"><ele>540.75</ele><time>2026-03-23T13:45:04Z</time></trkpt><trkpt lat="42.53915916339425" lon="2.686560922007101"><ele>540.0</ele><time>2026-03-23T13:45:05Z</time></trkpt><trkpt lat="42.53926165894017" lon="2.6864776424917833"><ele>540.0</ele><time>2026-03-23T13:45:06Z</time></trkpt><trkpt lat="42.5393598907545" lon="2.6864116464572745"><ele>540.0</ele><time>2026-03-23T13:45:07Z</time></trkpt><trkpt lat="42.53945753149106" lon="2.686346609926456"><ele>540.0</ele><time>2026-03-23T13:45:08Z</time></trkpt><trkpt lat="42.539551667993436" lon="2.6862935094908473"><ele>540.0</ele><time>2026-03-23T13:45:09Z</time></trkpt><trkpt lat="42.53963651872239" lon="2.6862226037850325"><ele>540.0</ele><time>2026-03-23T13:45:10Z</time></trkpt><trkpt lat="42.539706799092535" lon="2.6861343794169072"><ele>540.5</ele><time>2026-03-23T13:45:11Z</time></trkpt><trkpt lat="42.539774440878034" lon="2.6860182915268673"><ele>541.0</ele><time>2026-03-23T13:45:12Z</time></trkpt><trkpt lat="42.53983089695393" lon="2.6858732597555743"><ele>541.5</ele><time>2026-03-23T13:45:13Z</time></trkpt><trkpt lat="42.539867021602504" lon="2.6857204775080823"><ele>542.0</ele><time>2026-03-23T13:45:14Z</time></trkpt><trkpt lat="42.53991200988367" lon="2.6855836675365246"><ele>542.0</ele><time>2026-03-23T13:45:15Z</time></trkpt><trkpt lat="42.53995269888847" lon="2.6854758870362367"><ele>542.0</ele><time>2026-03-23T13:45:16Z</time></trkpt><trkpt lat="42.53999884239465" lon="2.6853861512828274"><ele>542.0</ele><time>2026-03-23T13:45:17Z</time></trkpt><trkpt lat="42.5400599452502" lon="2.685311544046742"><ele>542.0</ele><time>2026-03-23T13:45:18Z</time></trkpt><trkpt lat="42.540151754272486" lon="2.6852445525264894"><ele>542.0</ele><time>2026-03-23T13:45:19Z</time></trkpt><trkpt lat="42.5402440415887" lon="2.6851537095648665"><ele>542.0</ele><time>2026-03-23T13:45:20Z</time></trkpt><trkpt lat="42.5403364395018" lon="2.6850355386043314"><ele>542.0</ele><time>2026-03-23T13:45:21Z</time></trkpt><trkpt lat="42.54042330769269" lon="2.6849347375947934"><ele>542.0</ele><time>2026-03-23T13:45:22Z</time></trkpt><trkpt lat="42.54053549886442" lon="2.6848247629290642"><ele>542.0</ele><time>2026-03-23T13:45:23Z</time></trkpt><trkpt lat="42.54062580533085" lon="2.684728573765022"><ele>542.0</ele><time>2026-03-23T13:45:24Z</time></trkpt><trkpt lat="42.540704286276544" lon="2.68464095861349"><ele>542.0</ele><time>2026-03-23T13:45:25Z</time></trkpt><trkpt lat="42.54077602093578" lon="2.6845611646243435"><ele>542.0</ele><time>2026-03-23T13:45:26Z</time></trkpt><trkpt lat="42.54086269319506" lon="2.684481403764444"><ele>542.0</ele><time>2026-03-23T13:45:27Z</time></trkpt><trkpt lat="42.54095386495237" lon="2.684429135789432"><ele>542.0</ele><time>2026-03-23T13:45:28Z</time></trkpt><trkpt lat="42.54106348936135" lon="2.6844229389757377"><ele>542.0</ele><time>2026-03-23T13:45:29Z</time></trkpt><trkpt lat="42.541171312872514" lon="2.684449543454677"><ele>542.0</ele><time>2026-03-23T13:45:30Z</time></trkpt><trkpt lat="42.541280901070444" lon="2.6845262055444943"><ele>542.0</ele><time>2026-03-23T13:45:31Z</time></trkpt><trkpt lat="42.54141941560329" lon="2.6846384905471297"><ele>542.0</ele><time>2026-03-23T13:45:32Z</time></trkpt><trkpt lat="42.5415369088597" lon="2.6846883361445366"><ele>540.8333333333333</ele><time>2026-03-23T13:45:34Z</time></trkpt><trkpt lat="42.541619487494785" lon="2.68463686256786"><ele>539.6666666666666</ele><time>2026-03-23T13:45:35Z</time></trkpt><trkpt lat="42.54169995146849" lon="2.684548461339279"><ele>538.5</ele><time>2026-03-23T13:45:36Z</time></trkpt><trkpt lat="42.541762618825416" lon="2.6844594964373223"><ele>537.3333333333334</ele><time>2026-03-23T13:45:37Z</time></trkpt><trkpt lat="42.54181142341848" lon="2.6843891591587314"><ele>536.1666666666667</ele><time>2026-03-23T13:45:37.999Z</time></trkpt><trkpt lat="42.54187204981707" lon="2.6843583024516913"><ele>535.0</ele><time>2026-03-23T13:45:38.999Z</time></trkpt><trkpt lat="42.54195863618283" lon="2.684371757250384"><ele>535.0</ele><time>2026-03-23T13:45:39.999Z</time></trkpt><trkpt lat="42.542032911380055" lon="2.68444962117201"><ele>535.0</ele><time>2026-03-23T13:45:40.999Z</time></trkpt><trkpt lat="42.54212616781048" lon="2.684516761638853"><ele>535.0</ele><time>2026-03-23T13:45:41.999Z</time></trkpt><trkpt lat="42.542226326602766" lon="2.684584127704897"><ele>535.0</ele><time>2026-03-23T13:45:42.999Z</time></trkpt><trkpt lat="42.54234484879284" lon="2.684631630534717"><ele>535.0</ele><time>2026-03-23T13:45:43.999Z</time></trkpt><trkpt lat="42.54247524275825" lon="2.684650853754645"><ele>535.75</ele><time>2026-03-23T13:45:44.999Z</time></trkpt><trkpt lat="42.54260829754725" lon="2.684667271557692"><ele>536.5</ele><time>2026-03-23T13:45:45.999Z</time></trkpt><trkpt lat="42.542745139916164" lon="2.684678921359935"><ele>537.25</ele><time>2026-03-23T13:45:46.999Z</time></trkpt><trkpt lat="42.54288102196313" lon="2.6846819242889977"><ele>538.0</ele><time>2026-03-23T13:45:47.999Z</time></trkpt><trkpt lat="42.542996529606256" lon="2.6846815222707905"><ele>538.6</ele><time>2026-03-23T13:45:48.999Z</time></trkpt><trkpt lat="42.543106752831804" lon="2.684665767962866"><ele>539.1999999999999</ele><time>2026-03-23T13:45:49.999Z</time></trkpt><trkpt lat="42.543212812689625" lon="2.6846332598283262"><ele>539.8</ele><time>2026-03-23T13:45:50.999Z</time></trkpt><trkpt lat="42.54331233304368" lon="2.6845984378840315"><ele>540.4</ele><time>2026-03-23T13:45:51.999Z</time></trkpt><trkpt lat="42.54339453441124" lon="2.6845868564998643"><ele>541.0</ele><time>2026-03-23T13:45:52.999Z</time></trkpt><trkpt lat="42.5434810836792" lon="2.684618115052053"><ele>541.0</ele><time>2026-03-23T13:45:53.999Z</time></trkpt><trkpt lat="42.54355597435759" lon="2.6847116937768076"><ele>541.0</ele><time>2026-03-23T13:45:54.999Z</time></trkpt><trkpt lat="42.54364992396938" lon="2.684775601748765"><ele>541.0</ele><time>2026-03-23T13:45:55.999Z</time></trkpt><trkpt lat="42.54374552069107" lon="2.6848239791945008"><ele>541.0</ele><time>2026-03-23T13:45:56.999Z</time></trkpt><trkpt lat="42.543859082521294" lon="2.6848319613666947"><ele>541.0</ele><time>2026-03-23T13:45:57.999Z</time></trkpt><trkpt lat="42.54397938448343" lon="2.6848249326270603"><ele>540.0</ele><time>2026-03-23T13:45:58.999Z</time></trkpt><trkpt lat="42.544087434019836" lon="2.6848089364677725"><ele>539.0</ele><time>2026-03-23T13:45:59.999Z</time></trkpt><trkpt lat="42.5442050059964" lon="2.6847672540353287"><ele>538.0</ele><time>2026-03-23T13:46:00.999Z</time></trkpt><trkpt lat="42.54434331118684" lon="2.6846620814269047"><ele>537.0</ele><time>2026-03-23T13:46:01.999Z</time></trkpt><trkpt lat="42.544385462832345" lon="2.6845829945677657"><ele>537.0</ele><time>2026-03-23T13:46:03.999Z</time></trkpt><trkpt lat="42.544441425508644" lon="2.6845012152093317"><ele>537.0</ele><time>2026-03-23T13:46:04.999Z</time></trkpt><trkpt lat="42.544558530583686" lon="2.6843994334301122"><ele>537.0</ele><time>2026-03-23T13:46:05.999Z</time></trkpt><trkpt lat="42.54465322997329" lon="2.6844284065915422"><ele>537.0</ele><time>2026-03-23T13:46:06.999Z</time></trkpt><trkpt lat="42.54475999955942" lon="2.6844446401611393"><ele>537.0</ele><time>2026-03-23T13:46:07.999Z</time></trkpt><trkpt lat="42.544870065957184" lon="2.68450548338184"><ele>536.75</ele><time>2026-03-23T13:46:08.999Z</time></trkpt><trkpt lat="42.54499544260676" lon="2.6845540405665504"><ele>536.5</ele><time>2026-03-23T13:46:09.999Z</time></trkpt><trkpt lat="42.54514073518032" lon="2.6845874800568876"><ele>536.25</ele><time>2026-03-23T13:46:10.999Z</time></trkpt><trkpt lat="42.545294312676134" lon="2.684622004505505"><ele>536.0</ele><time>2026-03-23T13:46:11.999Z</time></trkpt><trkpt lat="42.545445766662965" lon="2.684663208162285"><ele>539.0</ele><time>2026-03-23T13:46:12.999Z</time></trkpt><trkpt lat="42.54559872815754" lon="2.6846968058995575"><ele>542.0</ele><time>2026-03-23T13:46:13.999Z</time></trkpt><trkpt lat="42.54575504906096" lon="2.684704800048038"><ele>545.0</ele><time>2026-03-23T13:46:14.999Z</time></trkpt><trkpt lat="42.545909373565074" lon="2.6846980755986376"><ele>545.0</ele><time>2026-03-23T13:46:15.999Z</time></trkpt><trkpt lat="42.54605965815026" lon="2.6846920830207193"><ele>545.0</ele><time>2026-03-23T13:46:16.999Z</time></trkpt><trkpt lat="42.546202615075075" lon="2.6847186865134423"><ele>545.0</ele><time>2026-03-23T13:46:17.999Z</time></trkpt><trkpt lat="42.54633941281856" lon="2.684751583895814"><ele>545.0</ele><time>2026-03-23T13:46:18.999Z</time></trkpt><trkpt lat="42.54647995119611" lon="2.6847595153719284"><ele>545.0</ele><time>2026-03-23T13:46:19.999Z</time></trkpt><trkpt lat="42.54663228763453" lon="2.6847372452296376"><ele>545.0</ele><time>2026-03-23T13:46:20.999Z</time></trkpt><trkpt lat="42.546784652215486" lon="2.6847079521455663"><ele>545.0</ele><time>2026-03-23T13:46:21.999Z</time></trkpt><trkpt lat="42.546940598263134" lon="2.684678154845317"><ele>543.6666666666666</ele><time>2026-03-23T13:46:22.999Z</time></trkpt><trkpt lat="42.54709978851864" lon="2.6846439987595856"><ele>542.3333333333334</ele><time>2026-03-23T13:46:23.999Z</time></trkpt><trkpt lat="42.54724987705725" lon="2.684599344098929"><ele>541.0</ele><time>2026-03-23T13:46:24.998Z</time></trkpt><trkpt lat="42.547408555525216" lon="2.6845461019277814"><ele>541.0</ele><time>2026-03-23T13:46:25.998Z</time></trkpt><trkpt lat="42.54755313035487" lon="2.6844912124148705"><ele>541.0</ele><time>2026-03-23T13:46:26.998Z</time></trkpt><trkpt lat="42.547691140945396" lon="2.684440932825278"><ele>541.0</ele><time>2026-03-23T13:46:27.998Z</time></trkpt><trkpt lat="42.54782860603195" lon="2.684394811138979"><ele>541.0</ele><time>2026-03-23T13:46:28.998Z</time></trkpt><trkpt lat="42.547943224384476" lon="2.6843514331570932"><ele>542.8</ele><time>2026-03-23T13:46:29.998Z</time></trkpt><trkpt lat="42.54804378539139" lon="2.6843152321938235"><ele>544.6</ele><time>2026-03-23T13:46:30.998Z</time></trkpt><trkpt lat="42.548143502314005" lon="2.6842805797026457"><ele>546.4</ele><time>2026-03-23T13:46:31.998Z</time></trkpt><trkpt lat="42.54823264640996" lon="2.68423243361758"><ele>548.2</ele><time>2026-03-23T13:46:32.998Z</time></trkpt><trkpt lat="42.548329504737374" lon="2.6841508194831993"><ele>550.0</ele><time>2026-03-23T13:46:33.998Z</time></trkpt><trkpt lat="42.54841957491392" lon="2.684046800941869"><ele>550.0</ele><time>2026-03-23T13:46:34.998Z</time></trkpt><trkpt lat="42.548499981030865" lon="2.68391423912349"><ele>550.0</ele><time>2026-03-23T13:46:35.998Z</time></trkpt><trkpt lat="42.54858015613464" lon="2.6837790985342798"><ele>550.0</ele><time>2026-03-23T13:46:36.998Z</time></trkpt><trkpt lat="42.54866623994487" lon="2.6836590361027026"><ele>550.0</ele><time>2026-03-23T13:46:37.998Z</time></trkpt><trkpt lat="42.54875891249717" lon="2.683551551809584"><ele>549.8</ele><time>2026-03-23T13:46:38.998Z</time></trkpt><trkpt lat="42.54883964259004" lon="2.683454647945939"><ele>549.6</ele><time>2026-03-23T13:46:39.998Z</time></trkpt><trkpt lat="42.54891754286917" lon="2.683364752515827"><ele>549.4</ele><time>2026-03-23T13:46:40.998Z</time></trkpt><trkpt lat="42.54898011542917" lon="2.6832815956088223"><ele>549.2</ele><time>2026-03-23T13:46:41.998Z</time></trkpt><trkpt lat="42.54903581737929" lon="2.6832009810770874"><ele>549.0</ele><time>2026-03-23T13:46:42.998Z</time></trkpt><trkpt lat="42.54907673502308" lon="2.683112075177801"><ele>549.0</ele><time>2026-03-23T13:46:43.998Z</time></trkpt><trkpt lat="42.54909411709394" lon="2.683007195302874"><ele>549.0</ele><time>2026-03-23T13:46:44.998Z</time></trkpt><trkpt lat="42.54908467597019" lon="2.6828925203609852"><ele>549.0</ele><time>2026-03-23T13:46:45.998Z</time></trkpt><trkpt lat="42.54904445977739" lon="2.6827808289765698"><ele>549.0</ele><time>2026-03-23T13:46:46.998Z</time></trkpt><trkpt lat="42.54897187821768" lon="2.6826842214051942"><ele>549.0</ele><time>2026-03-23T13:46:47.998Z</time></trkpt><trkpt lat="42.548879699465616" lon="2.682592018440818"><ele>548.6</ele><time>2026-03-23T13:46:48.998Z</time></trkpt><trkpt lat="42.548775142048235" lon="2.682508941176089"><ele>548.2</ele><time>2026-03-23T13:46:49.998Z</time></trkpt><trkpt lat="42.54868687113552" lon="2.6824255858042734"><ele>547.8000000000001</ele><time>2026-03-23T13:46:50.998Z</time></trkpt><trkpt lat="42.548603744718896" lon="2.6823454132295397"><ele>547.4</ele><time>2026-03-23T13:46:51.998Z</time></trkpt><trkpt lat="42.54852000858512" lon="2.68230511856802"><ele>547.0</ele><time>2026-03-23T13:46:52.998Z</time></trkpt><trkpt lat="42.54842204725532" lon="2.6822966999997755"><ele>547.0</ele><time>2026-03-23T13:46:53.998Z</time></trkpt><trkpt lat="42.54831034599206" lon="2.682321503041011"><ele>547.0</ele><time>2026-03-23T13:46:54.998Z</time></trkpt><trkpt lat="42.548194454665975" lon="2.6823677464746982"><ele>547.0</ele><time>2026-03-23T13:46:55.998Z</time></trkpt><trkpt lat="42.548079600723426" lon="2.6823943991669643"><ele>547.0</ele><time>2026-03-23T13:46:56.998Z</time></trkpt><trkpt lat="42.54796022213227" lon="2.6824157371436264"><ele>547.25</ele><time>2026-03-23T13:46:57.998Z</time></trkpt><trkpt lat="42.547846806047644" lon="2.682421074020885"><ele>547.5</ele><time>2026-03-23T13:46:58.998Z</time></trkpt><trkpt lat="42.54773308507172" lon="2.6824015577964455"><ele>547.75</ele><time>2026-03-23T13:46:59.998Z</time></trkpt><trkpt lat="42.54762491049115" lon="2.6823646942375086"><ele>548.0</ele><time>2026-03-23T13:47:00.998Z</time></trkpt><trkpt lat="42.54751134822745" lon="2.682318710613113"><ele>548.0</ele><time>2026-03-23T13:47:01.998Z</time></trkpt><trkpt lat="42.547387093577804" lon="2.6822749869725455"><ele>548.0</ele><time>2026-03-23T13:47:03Z</time></trkpt><trkpt lat="42.54727142799982" lon="2.682254214516084"><ele>548.0</ele><time>2026-03-23T13:47:04Z</time></trkpt><trkpt lat="42.54716351586969" lon="2.682236965505792"><ele>548.0</ele><time>2026-03-23T13:47:05Z</time></trkpt><trkpt lat="42.547071295073145" lon="2.682231894941572"><ele>548.0</ele><time>2026-03-23T13:47:06Z</time></trkpt><trkpt lat="42.546970624717865" lon="2.682229936605922"><ele>548.4</ele><time>2026-03-23T13:47:07Z</time></trkpt><trkpt lat="42.54687400360435" lon="2.6822557294490568"><ele>548.8</ele><time>2026-03-23T13:47:08Z</time></trkpt><trkpt lat="42.54678417026881" lon="2.6823020344959794"><ele>549.2</ele><time>2026-03-23T13:47:09Z</time></trkpt><trkpt lat="42.54669963231847" lon="2.6823465959498587"><ele>549.6</ele><time>2026-03-23T13:47:10Z</time></trkpt><trkpt lat="42.54661263500087" lon="2.682372149855352"><ele>550.0</ele><time>2026-03-23T13:47:11Z</time></trkpt><trkpt lat="42.546529859986265" lon="2.682373016111376"><ele>550.0</ele><time>2026-03-23T13:47:12Z</time></trkpt><trkpt lat="42.5464496570446" lon="2.682348840214356"><ele>550.0</ele><time>2026-03-23T13:47:13Z</time></trkpt><trkpt lat="42.54638416154558" lon="2.6823005213483677"><ele>550.0</ele><time>2026-03-23T13:47:14Z</time></trkpt><trkpt lat="42.54634005367295" lon="2.6822322035257438"><ele>550.0</ele><time>2026-03-23T13:47:15Z</time></trkpt><trkpt lat="42.54630146009767" lon="2.682148683456248"><ele>550.0</ele><time>2026-03-23T13:47:16Z</time></trkpt><trkpt lat="42.54627893892081" lon="2.6820569426350214"><ele>550.0</ele><time>2026-03-23T13:47:17Z</time></trkpt><trkpt lat="42.54628171554626" lon="2.681962245818101"><ele>550.0</ele><time>2026-03-23T13:47:18Z</time></trkpt><trkpt lat="42.546317832915335" lon="2.6818718487474387"><ele>548.4</ele><time>2026-03-23T13:47:19Z</time></trkpt><trkpt lat="42.546385031948425" lon="2.6817842014332687"><ele>546.8</ele><time>2026-03-23T13:47:20Z</time></trkpt><trkpt lat="42.546486457421594" lon="2.6817288592885995"><ele>545.2</ele><time>2026-03-23T13:47:21Z</time></trkpt><trkpt lat="42.54658865838709" lon="2.681653172605244"><ele>543.6</ele><time>2026-03-23T13:47:22Z</time></trkpt><trkpt lat="42.54670213629142" lon="2.6815677995740765"><ele>542.0</ele><time>2026-03-23T13:47:23Z</time></trkpt><trkpt lat="42.5468297905961" lon="2.681462473401696"><ele>542.0</ele><time>2026-03-23T13:47:24Z</time></trkpt><trkpt lat="42.54698198928179" lon="2.6814146157109553"><ele>542.0</ele><time>2026-03-23T13:47:25Z</time></trkpt><trkpt lat="42.54711899350363" lon="2.6813739489655197"><ele>542.0</ele><time>2026-03-23T13:47:26Z</time></trkpt><trkpt lat="42.54725727335622" lon="2.6813318939212922"><ele>542.0</ele><time>2026-03-23T13:47:27Z</time></trkpt><trkpt lat="42.547378734861084" lon="2.68127315838466"><ele>539.0</ele><time>2026-03-23T13:47:28Z</time></trkpt><trkpt lat="42.54750408778158" lon="2.6812464702153145"><ele>536.0</ele><time>2026-03-23T13:47:29Z</time></trkpt><trkpt lat="42.547616200358355" lon="2.6812151186681743"><ele>533.0</ele><time>2026-03-23T13:47:30Z</time></trkpt><trkpt lat="42.547733207747825" lon="2.6811781924378133"><ele>530.0</ele><time>2026-03-23T13:47:31Z</time></trkpt><trkpt lat="42.54783483222603" lon="2.681131549035052"><ele>527.8333333333333</ele><time>2026-03-23T13:47:32Z</time></trkpt><trkpt lat="42.547940109975976" lon="2.681071089644599"><ele>525.6666666666666</ele><time>2026-03-23T13:47:33Z</time></trkpt><trkpt lat="42.54801860244898" lon="2.681001084207532"><ele>523.5</ele><time>2026-03-23T13:47:34Z</time></trkpt><trkpt lat="42.54808771430824" lon="2.680926536651376"><ele>521.3333333333334</ele><time>2026-03-23T13:47:35Z</time></trkpt><trkpt lat="42.54814793628665" lon="2.6808601143532194"><ele>519.1666666666667</ele><time>2026-03-23T13:47:36Z</time></trkpt><trkpt lat="42.548198675776355" lon="2.6807879329584723"><ele>517.0</ele><time>2026-03-23T13:47:37Z</time></trkpt><trkpt lat="42.54823955451416" lon="2.680695992696521"><ele>517.0</ele><time>2026-03-23T13:47:38Z</time></trkpt><trkpt lat="42.54826478936396" lon="2.6805830894128717"><ele>517.0</ele><time>2026-03-23T13:47:39Z</time></trkpt><trkpt lat="42.548286293771" lon="2.68045083325233"><ele>517.0</ele><time>2026-03-23T13:47:40Z</time></trkpt><trkpt lat="42.54830083153017" lon="2.680336402574619"><ele>517.0</ele><time>2026-03-23T13:47:41Z</time></trkpt><trkpt lat="42.548313168919485" lon="2.680216084901711"><ele>517.0</ele><time>2026-03-23T13:47:42Z</time></trkpt><trkpt lat="42.54831966788673" lon="2.6800955328585805"><ele>517.6666666666667</ele><time>2026-03-23T13:47:43Z</time></trkpt><trkpt lat="42.54830840479305" lon="2.6799746099244985"><ele>518.3333333333334</ele><time>2026-03-23T13:47:44Z</time></trkpt><trkpt lat="42.54828159458355" lon="2.679859727885901"><ele>519.0</ele><time>2026-03-23T13:47:45Z</time></trkpt><trkpt lat="42.54824707942312" lon="2.6797550905464433"><ele>519.6666666666666</ele><time>2026-03-23T13:47:45.999Z</time></trkpt><trkpt lat="42.54821989471321" lon="2.6796528623993208"><ele>520.3333333333333</ele><time>2026-03-23T13:47:46.999Z</time></trkpt><trkpt lat="42.54820737808569" lon="2.6795578798992326"><ele>521.0</ele><time>2026-03-23T13:47:47.999Z</time></trkpt><trkpt lat="42.54821660935223" lon="2.6794592949182703"><ele>520.6</ele><time>2026-03-23T13:47:48.999Z</time></trkpt><trkpt lat="42.54827818368569" lon="2.6793794320936173"><ele>520.2</ele><time>2026-03-23T13:47:49.999Z</time></trkpt><trkpt lat="42.54832946747747" lon="2.679290248185556"><ele>519.8</ele><time>2026-03-23T13:47:50.999Z</time></trkpt><trkpt lat="42.54838547359593" lon="2.679176770358185"><ele>519.4</ele><time>2026-03-23T13:47:51.999Z</time></trkpt><trkpt lat="42.548456008786445" lon="2.6790619402539106"><ele>519.0</ele><time>2026-03-23T13:47:52.999Z</time></trkpt><trkpt lat="42.54852330545933" lon="2.678943994104725"><ele>519.0</ele><time>2026-03-23T13:47:53.999Z</time></trkpt><trkpt lat="42.54858132480546" lon="2.67883475125465"><ele>519.0</ele><time>2026-03-23T13:47:54.999Z</time></trkpt><trkpt lat="42.548648034708584" lon="2.6787300119637316"><ele>519.0</ele><time>2026-03-23T13:47:55.999Z</time></trkpt><trkpt lat="42.54870816889259" lon="2.6786236156485463"><ele>519.0</ele><time>2026-03-23T13:47:56.999Z</time></trkpt><trkpt lat="42.54876786277957" lon="2.6785106929083775"><ele>519.0</ele><time>2026-03-23T13:47:57.999Z</time></trkpt><trkpt lat="42.54882631058224" lon="2.6784041547277386"><ele>516.0</ele><time>2026-03-23T13:47:58.999Z</time></trkpt><trkpt lat="42.548915124795016" lon="2.678305280715183"><ele>513.0</ele><time>2026-03-23T13:47:59.999Z</time></trkpt><trkpt lat="42.5490163648374" lon="2.678206109374708"><ele>510.0</ele><time>2026-03-23T13:48:00.999Z</time></trkpt><trkpt lat="42.549100215296114" lon="2.6781235202232136"><ele>507.0</ele><time>2026-03-23T13:48:01.999Z</time></trkpt><trkpt lat="42.5491473876447" lon="2.6780453803302042"><ele>504.0</ele><time>2026-03-23T13:48:02.999Z</time></trkpt><trkpt lat="42.549214825675676" lon="2.6779908575608777"><ele>504.0</ele><time>2026-03-23T13:48:03.999Z</time></trkpt><trkpt lat="42.54930175872765" lon="2.6778178409166227"><ele>504.0</ele><time>2026-03-23T13:48:04.999Z</time></trkpt><trkpt lat="42.549402858105296" lon="2.6776685669808002"><ele>504.0</ele><time>2026-03-23T13:48:05.999Z</time></trkpt><trkpt lat="42.549482926538566" lon="2.67754500583699"><ele>504.0</ele><time>2026-03-23T13:48:06.999Z</time></trkpt><trkpt lat="42.549558458064894" lon="2.677426278976047"><ele>499.75</ele><time>2026-03-23T13:48:07.999Z</time></trkpt><trkpt lat="42.549632001396375" lon="2.6773129905373305"><ele>495.5</ele><time>2026-03-23T13:48:08.999Z</time></trkpt><trkpt lat="42.54970510904445" lon="2.677197053999679"><ele>491.25</ele><time>2026-03-23T13:48:09.999Z</time></trkpt><trkpt lat="42.54978073386397" lon="2.677080221974808"><ele>487.0</ele><time>2026-03-23T13:48:10.999Z</time></trkpt><trkpt lat="42.54986489317844" lon="2.676955379444256"><ele>490.25</ele><time>2026-03-23T13:48:11.999Z</time></trkpt><trkpt lat="42.54995408569966" lon="2.676827606510557"><ele>493.5</ele><time>2026-03-23T13:48:12.999Z</time></trkpt><trkpt lat="42.55002921082872" lon="2.6766931158308567"><ele>496.75</ele><time>2026-03-23T13:48:13.999Z</time></trkpt><trkpt lat="42.550101955764" lon="2.6765713453459674"><ele>500.0</ele><time>2026-03-23T13:48:14.999Z</time></trkpt><trkpt lat="42.55017006764389" lon="2.6764471469874294"><ele>500.0</ele><time>2026-03-23T13:48:15.999Z</time></trkpt><trkpt lat="42.55022677715754" lon="2.676308516114073"><ele>500.0</ele><time>2026-03-23T13:48:16.999Z</time></trkpt><trkpt lat="42.55026808189012" lon="2.6761780966396476"><ele>500.0</ele><time>2026-03-23T13:48:17.999Z</time></trkpt><trkpt lat="42.55032188744785" lon="2.6760512970606345"><ele>500.0</ele><time>2026-03-23T13:48:18.999Z</time></trkpt><trkpt lat="42.550392270809226" lon="2.6759446528817543"><ele>500.0</ele><time>2026-03-23T13:48:19.999Z</time></trkpt><trkpt lat="42.55047470015997" lon="2.6758494898432925"><ele>497.2</ele><time>2026-03-23T13:48:20.999Z</time></trkpt><trkpt lat="42.55057857766808" lon="2.675758623871678"><ele>494.4</ele><time>2026-03-23T13:48:21.999Z</time></trkpt><trkpt lat="42.5506645212417" lon="2.6756615901715595"><ele>491.6</ele><time>2026-03-23T13:48:22.999Z</time></trkpt><trkpt lat="42.55072056761936" lon="2.675601101180618"><ele>488.8</ele><time>2026-03-23T13:48:23.999Z</time></trkpt><trkpt lat="42.550797846822626" lon="2.6755245844478956"><ele>486.0</ele><time>2026-03-23T13:48:24.999Z</time></trkpt><trkpt lat="42.550859785078835" lon="2.6754616969390974"><ele>486.0</ele><time>2026-03-23T13:48:25.999Z</time></trkpt><trkpt lat="42.55092238473227" lon="2.675386144317415"><ele>486.0</ele><time>2026-03-23T13:48:26.999Z</time></trkpt><trkpt lat="42.55096525467206" lon="2.67531554012893"><ele>486.0</ele><time>2026-03-23T13:48:27.999Z</time></trkpt><trkpt lat="42.551012213524565" lon="2.67525264068756"><ele>486.0</ele><time>2026-03-23T13:48:28.999Z</time></trkpt><trkpt lat="42.551018463284876" lon="2.6751348476180747"><ele>486.0</ele><time>2026-03-23T13:48:29.999Z</time></trkpt><trkpt lat="42.55100161864614" lon="2.6750155941458997"><ele>486.0</ele><time>2026-03-23T13:48:30.999Z</time></trkpt><trkpt lat="42.550933609548565" lon="2.6749105779988307"><ele>486.4</ele><time>2026-03-23T13:48:31.999Z</time></trkpt><trkpt lat="42.55086792199163" lon="2.674804658295867"><ele>486.8</ele><time>2026-03-23T13:48:32.998Z</time></trkpt><trkpt lat="42.5507944690205" lon="2.6746963998691955"><ele>487.19999999999993</ele><time>2026-03-23T13:48:33.998Z</time></trkpt><trkpt lat="42.55072757083639" lon="2.674575094750017"><ele>487.59999999999997</ele><time>2026-03-23T13:48:34.998Z</time></trkpt><trkpt lat="42.550661769406936" lon="2.674439767211107"><ele>488.0</ele><time>2026-03-23T13:48:35.998Z</time></trkpt><trkpt lat="42.55060738301237" lon="2.6742845417373684"><ele>488.0</ele><time>2026-03-23T13:48:36.998Z</time></trkpt><trkpt lat="42.55055496589868" lon="2.674141626720736"><ele>488.0</ele><time>2026-03-23T13:48:37.998Z</time></trkpt><trkpt lat="42.55049688874554" lon="2.6740074175222532"><ele>488.0</ele><time>2026-03-23T13:48:38.998Z</time></trkpt><trkpt lat="42.55042053209811" lon="2.6738872062903973"><ele>488.0</ele><time>2026-03-23T13:48:39.998Z</time></trkpt><trkpt lat="42.550346909419886" lon="2.6737876686481603"><ele>491.4</ele><time>2026-03-23T13:48:40.998Z</time></trkpt><trkpt lat="42.55029030831038" lon="2.6736956721462977"><ele>494.79999999999995</ele><time>2026-03-23T13:48:41.998Z</time></trkpt><trkpt lat="42.55028028702948" lon="2.6735812508701566"><ele>498.2</ele><time>2026-03-23T13:48:42.998Z</time></trkpt><trkpt lat="42.55027345065137" lon="2.6734581296115314"><ele>501.6</ele><time>2026-03-23T13:48:43.998Z</time></trkpt><trkpt lat="42.55027773444581" lon="2.6733246047711643"><ele>505.0</ele><time>2026-03-23T13:48:44.998Z</time></trkpt><trkpt lat="42.55028702506809" lon="2.6731745429167284"><ele>505.0</ele><time>2026-03-23T13:48:45.998Z</time></trkpt><trkpt lat="42.55028354832245" lon="2.673008951688396"><ele>505.0</ele><time>2026-03-23T13:48:46.998Z</time></trkpt><trkpt lat="42.55031768959146" lon="2.67284943055553"><ele>505.0</ele><time>2026-03-23T13:48:47.998Z</time></trkpt><trkpt lat="42.55033665062627" lon="2.6726879322648895"><ele>505.0</ele><time>2026-03-23T13:48:48.998Z</time></trkpt><trkpt lat="42.55037677694513" lon="2.67254660411119"><ele>502.6</ele><time>2026-03-23T13:48:49.998Z</time></trkpt><trkpt lat="42.55040607035463" lon="2.672431650782635"><ele>500.2</ele><time>2026-03-23T13:48:50.998Z</time></trkpt><trkpt lat="42.550430569666666" lon="2.6722990332409386"><ele>497.79999999999995</ele><time>2026-03-23T13:48:51.998Z</time></trkpt><trkpt lat="42.550447331638196" lon="2.6721667354656957"><ele>495.4</ele><time>2026-03-23T13:48:52.998Z</time></trkpt><trkpt lat="42.550447866340214" lon="2.6720329958630056"><ele>493.0</ele><time>2026-03-23T13:48:53.998Z</time></trkpt><trkpt lat="42.55042971755743" lon="2.67189225763799"><ele>493.0</ele><time>2026-03-23T13:48:54.998Z</time></trkpt><trkpt lat="42.55039009800962" lon="2.6717377434185163"><ele>493.0</ele><time>2026-03-23T13:48:55.998Z</time></trkpt><trkpt lat="42.55033816824426" lon="2.671577446169907"><ele>493.0</ele><time>2026-03-23T13:48:56.998Z</time></trkpt><trkpt lat="42.550287299837606" lon="2.6714034260919215"><ele>493.0</ele><time>2026-03-23T13:48:57.998Z</time></trkpt><trkpt lat="42.550237276959805" lon="2.6712381555814093"><ele>497.75</ele><time>2026-03-23T13:48:58.998Z</time></trkpt><trkpt lat="42.55019103124326" lon="2.671076108765286"><ele>502.5</ele><time>2026-03-23T13:48:59.998Z</time></trkpt><trkpt lat="42.550147682083974" lon="2.670918077428632"><ele>507.25</ele><time>2026-03-23T13:49:00.998Z</time></trkpt><trkpt lat="42.55010572238424" lon="2.6707659042386553"><ele>512.0</ele><time>2026-03-23T13:49:01.998Z</time></trkpt><trkpt lat="42.55006521121953" lon="2.670614887706578"><ele>512.0</ele><time>2026-03-23T13:49:02.998Z</time></trkpt><trkpt lat="42.55002929399948" lon="2.6704529313304635"><ele>512.0</ele><time>2026-03-23T13:49:03.998Z</time></trkpt><trkpt lat="42.55000295041657" lon="2.6702859089407087"><ele>512.0</ele><time>2026-03-23T13:49:04.998Z</time></trkpt><trkpt lat="42.549995045881914" lon="2.670118689632755"><ele>512.0</ele><time>2026-03-23T13:49:05.998Z</time></trkpt><trkpt lat="42.55000742297008" lon="2.6699484537583524"><ele>513.75</ele><time>2026-03-23T13:49:06.998Z</time></trkpt><trkpt lat="42.550025643312665" lon="2.669762144451088"><ele>515.5</ele><time>2026-03-23T13:49:07.998Z</time></trkpt><trkpt lat="42.550034876036996" lon="2.669586158999541"><ele>517.25</ele><time>2026-03-23T13:49:09Z</time></trkpt><trkpt lat="42.550041637473505" lon="2.6694201788735437"><ele>519.0</ele><time>2026-03-23T13:49:10Z</time></trkpt><trkpt lat="42.55004888620474" lon="2.669243230661113"><ele>520.75</ele><time>2026-03-23T13:49:11Z</time></trkpt><trkpt lat="42.55006505752834" lon="2.6690687566113307"><ele>522.5</ele><time>2026-03-23T13:49:12Z</time></trkpt><trkpt lat="42.5500769215579" lon="2.668888136637299"><ele>524.25</ele><time>2026-03-23T13:49:13Z</time></trkpt><trkpt lat="42.55009910911367" lon="2.6687145844169913"><ele>526.0</ele><time>2026-03-23T13:49:14Z</time></trkpt><trkpt lat="42.550139394256405" lon="2.668548903112104"><ele>528.0</ele><time>2026-03-23T13:49:15Z</time></trkpt><trkpt lat="42.55017079660549" lon="2.6683995922394623"><ele>530.0</ele><time>2026-03-23T13:49:16Z</time></trkpt><trkpt lat="42.55019552053047" lon="2.668264855889963"><ele>532.0</ele><time>2026-03-23T13:49:17Z</time></trkpt><trkpt lat="42.55021955470715" lon="2.6681489634896276"><ele>534.0</ele><time>2026-03-23T13:49:18Z</time></trkpt><trkpt lat="42.550245775576116" lon="2.668056111545905"><ele>536.0</ele><time>2026-03-23T13:49:19Z</time></trkpt><trkpt lat="42.550320617524754" lon="2.667941437919625"><ele>535.5</ele><time>2026-03-23T13:49:21Z</time></trkpt><trkpt lat="42.55039564434981" lon="2.667915846163846"><ele>535.0</ele><time>2026-03-23T13:49:22Z</time></trkpt><trkpt lat="42.55047140306154" lon="2.6679280731095885"><ele>534.5</ele><time>2026-03-23T13:49:23Z</time></trkpt><trkpt lat="42.550543931956334" lon="2.667979215199546"><ele>534.0</ele><time>2026-03-23T13:49:24Z</time></trkpt><trkpt lat="42.5506144008365" lon="2.6680882666540584"><ele>533.5</ele><time>2026-03-23T13:49:25Z</time></trkpt><trkpt lat="42.55069190774647" lon="2.6681769088569496"><ele>533.0</ele><time>2026-03-23T13:49:26Z</time></trkpt><trkpt lat="42.55077020403504" lon="2.6682771962761613"><ele>533.0</ele><time>2026-03-23T13:49:27Z</time></trkpt><trkpt lat="42.55084090063286" lon="2.668385277033591"><ele>533.0</ele><time>2026-03-23T13:49:28Z</time></trkpt><trkpt lat="42.55091148439368" lon="2.6684953272318634"><ele>533.0</ele><time>2026-03-23T13:49:29Z</time></trkpt><trkpt lat="42.55095980930026" lon="2.6686146914019018"><ele>533.0</ele><time>2026-03-23T13:49:30Z</time></trkpt><trkpt lat="42.551008806295584" lon="2.6687113754045146"><ele>533.0</ele><time>2026-03-23T13:49:31Z</time></trkpt><trkpt lat="42.551064267352416" lon="2.668795451640305"><ele>531.8</ele><time>2026-03-23T13:49:32Z</time></trkpt><trkpt lat="42.55112953884955" lon="2.6688591027933355"><ele>530.5999999999999</ele><time>2026-03-23T13:49:33Z</time></trkpt><trkpt lat="42.551209917642005" lon="2.6689143370754453"><ele>529.4000000000001</ele><time>2026-03-23T13:49:34Z</time></trkpt><trkpt lat="42.551309974175794" lon="2.6689378557258965"><ele>528.2</ele><time>2026-03-23T13:49:35Z</time></trkpt><trkpt lat="42.55141576831277" lon="2.6689613244457218"><ele>527.0</ele><time>2026-03-23T13:49:36Z</time></trkpt><trkpt lat="42.55151544466543" lon="2.668975170910574"><ele>527.0</ele><time>2026-03-23T13:49:37Z</time></trkpt><trkpt lat="42.55161022864642" lon="2.668978480946372"><ele>527.0</ele><time>2026-03-23T13:49:38Z</time></trkpt><trkpt lat="42.55170223569097" lon="2.668957676115025"><ele>527.0</ele><time>2026-03-23T13:49:39Z</time></trkpt><trkpt lat="42.55179122944188" lon="2.668904640603478"><ele>527.0</ele><time>2026-03-23T13:49:40Z</time></trkpt><trkpt lat="42.55188402691815" lon="2.6688218802623354"><ele>527.0</ele><time>2026-03-23T13:49:41Z</time></trkpt><trkpt lat="42.55197230211194" lon="2.668707529659361"><ele>529.25</ele><time>2026-03-23T13:49:42Z</time></trkpt><trkpt lat="42.55205845473627" lon="2.6685867193850696"><ele>531.5</ele><time>2026-03-23T13:49:43Z</time></trkpt><trkpt lat="42.552160952978475" lon="2.6684666262011913"><ele>533.75</ele><time>2026-03-23T13:49:44Z</time></trkpt><trkpt lat="42.55227541837273" lon="2.6683624837137407"><ele>536.0</ele><time>2026-03-23T13:49:45Z</time></trkpt><trkpt lat="42.55240109115004" lon="2.6682705276101455"><ele>536.0</ele><time>2026-03-23T13:49:46Z</time></trkpt><trkpt lat="42.552503948281775" lon="2.6681890180601244"><ele>536.0</ele><time>2026-03-23T13:49:47Z</time></trkpt><trkpt lat="42.55258864457764" lon="2.668115950692762"><ele>536.0</ele><time>2026-03-23T13:49:48Z</time></trkpt><trkpt lat="42.55266116100583" lon="2.668046285611838"><ele>536.0</ele><time>2026-03-23T13:49:48.999Z</time></trkpt><trkpt lat="42.5527269652977" lon="2.667975105730752"><ele>536.0</ele><time>2026-03-23T13:49:49.999Z</time></trkpt><trkpt lat="42.55278831352111" lon="2.6678751926951176"><ele>536.25</ele><time>2026-03-23T13:49:50.999Z</time></trkpt><trkpt lat="42.5528318758005" lon="2.667734976235561"><ele>536.5</ele><time>2026-03-23T13:49:51.999Z</time></trkpt><trkpt lat="42.55287821454634" lon="2.6675811597608123"><ele>536.75</ele><time>2026-03-23T13:49:52.999Z</time></trkpt><trkpt lat="42.55292180983953" lon="2.6674341936576527"><ele>537.0</ele><time>2026-03-23T13:49:53.999Z</time></trkpt><trkpt lat="42.55297879879147" lon="2.667293970318587"><ele>537.0</ele><time>2026-03-23T13:49:54.999Z</time></trkpt><trkpt lat="42.55304730014616" lon="2.667162656428486"><ele>537.0</ele><time>2026-03-23T13:49:55.999Z</time></trkpt><trkpt lat="42.55314128405926" lon="2.667068027286886"><ele>537.0</ele><time>2026-03-23T13:49:56.999Z</time></trkpt><trkpt lat="42.55323549376361" lon="2.6669692256458712"><ele>537.0</ele><time>2026-03-23T13:49:57.999Z</time></trkpt><trkpt lat="42.55331977346662" lon="2.6668579264283214"><ele>541.5</ele><time>2026-03-23T13:49:58.999Z</time></trkpt><trkpt lat="42.553394836994464" lon="2.6667409950693686"><ele>546.0</ele><time>2026-03-23T13:49:59.999Z</time></trkpt><trkpt lat="42.553486734535014" lon="2.6665942299496073"><ele>550.5</ele><time>2026-03-23T13:50:00.999Z</time></trkpt><trkpt lat="42.553553661530465" lon="2.6663683584104807"><ele>555.0</ele><time>2026-03-23T13:50:02.999Z</time></trkpt><trkpt lat="42.55357289976208" lon="2.6662059123306987"><ele>553.4</ele><time>2026-03-23T13:50:03.999Z</time></trkpt><trkpt lat="42.55357721244567" lon="2.6660430086204134"><ele>551.8</ele><time>2026-03-23T13:50:04.999Z</time></trkpt><trkpt lat="42.55358045746653" lon="2.6659067966518952"><ele>550.2</ele><time>2026-03-23T13:50:05.999Z</time></trkpt><trkpt lat="42.55360406954479" lon="2.665780372812007"><ele>548.6</ele><time>2026-03-23T13:50:06.999Z</time></trkpt><trkpt lat="42.55365518224074" lon="2.665652964169364"><ele>547.0</ele><time>2026-03-23T13:50:07.999Z</time></trkpt><trkpt lat="42.55374597435563" lon="2.665558233140153"><ele>547.0</ele><time>2026-03-23T13:50:08.999Z</time></trkpt><trkpt lat="42.5538043308216" lon="2.6654238562022936"><ele>547.0</ele><time>2026-03-23T13:50:09.999Z</time></trkpt><trkpt lat="42.553854683429435" lon="2.6652740247904316"><ele>547.0</ele><time>2026-03-23T13:50:10.999Z</time></trkpt><trkpt lat="42.553885484348505" lon="2.6651229693836727"><ele>547.0</ele><time>2026-03-23T13:50:11.999Z</time></trkpt><trkpt lat="42.55392510151525" lon="2.665002573058375"><ele>547.0</ele><time>2026-03-23T13:50:12.999Z</time></trkpt><trkpt lat="42.55400604134314" lon="2.664921358386486"><ele>550.0</ele><time>2026-03-23T13:50:13.999Z</time></trkpt><trkpt lat="42.554089044558964" lon="2.664846557531276"><ele>553.0</ele><time>2026-03-23T13:50:14.999Z</time></trkpt><trkpt lat="42.5541735615109" lon="2.664779841688953"><ele>556.0</ele><time>2026-03-23T13:50:15.999Z</time></trkpt><trkpt lat="42.55425342701555" lon="2.664730115734324"><ele>559.0</ele><time>2026-03-23T13:50:16.999Z</time></trkpt><trkpt lat="42.55432148901335" lon="2.6647151945972083"><ele>562.0</ele><time>2026-03-23T13:50:17.999Z</time></trkpt><trkpt lat="42.55438728799223" lon="2.6647241238896022"><ele>565.0</ele><time>2026-03-23T13:50:18.999Z</time></trkpt><trkpt lat="42.554468244783955" lon="2.664753875304616"><ele>563.6</ele><time>2026-03-23T13:50:19.999Z</time></trkpt><trkpt lat="42.55455344029291" lon="2.664746345691386"><ele>562.2</ele><time>2026-03-23T13:50:20.999Z</time></trkpt><trkpt lat="42.55464071384385" lon="2.6647397022694497"><ele>560.8</ele><time>2026-03-23T13:50:21.999Z</time></trkpt><trkpt lat="42.5547328307696" lon="2.664684778495429"><ele>559.4</ele><time>2026-03-23T13:50:22.999Z</time></trkpt><trkpt lat="42.55481901240788" lon="2.664613804451038"><ele>558.0</ele><time>2026-03-23T13:50:23.999Z</time></trkpt><trkpt lat="42.55489620376386" lon="2.6645596308013437"><ele>564.3333333333334</ele><time>2026-03-23T13:50:24.999Z</time></trkpt><trkpt lat="42.55505760315738" lon="2.6644105738381327"><ele>570.6666666666667</ele><time>2026-03-23T13:50:25.999Z</time></trkpt><trkpt lat="42.555165616020105" lon="2.6642982941017177"><ele>577.0</ele><time>2026-03-23T13:50:26.999Z</time></trkpt><trkpt lat="42.555262669721856" lon="2.664168867130389"><ele>577.0</ele><time>2026-03-23T13:50:27.999Z</time></trkpt><trkpt lat="42.555340984821136" lon="2.6640537739375985"><ele>577.0</ele><time>2026-03-23T13:50:28.999Z</time></trkpt><trkpt lat="42.555407955569216" lon="2.663953437753396"><ele>577.0</ele><time>2026-03-23T13:50:29.999Z</time></trkpt><trkpt lat="42.55546490710669" lon="2.6638504105281195"><ele>577.0</ele><time>2026-03-23T13:50:30.999Z</time></trkpt><trkpt lat="42.555514736840145" lon="2.663752361135237"><ele>577.0</ele><time>2026-03-23T13:50:31.999Z</time></trkpt><trkpt lat="42.555559111491256" lon="2.6636356346131813"><ele>578.2</ele><time>2026-03-23T13:50:32.999Z</time></trkpt><trkpt lat="42.555591642557495" lon="2.6635053364440493"><ele>579.4000000000001</ele><time>2026-03-23T13:50:33.998Z</time></trkpt><trkpt lat="42.555602362195785" lon="2.6633562075480715"><ele>580.5999999999999</ele><time>2026-03-23T13:50:34.998Z</time></trkpt><trkpt lat="42.55559628649176" lon="2.663210045539007"><ele>581.8</ele><time>2026-03-23T13:50:35.998Z</time></trkpt><trkpt lat="42.555583100516756" lon="2.663042588840308"><ele>583.0</ele><time>2026-03-23T13:50:36.998Z</time></trkpt><trkpt lat="42.55550690810399" lon="2.6629248170452393"><ele>583.0</ele><time>2026-03-23T13:50:37.998Z</time></trkpt><trkpt lat="42.55540807519868" lon="2.6628080277927775"><ele>583.0</ele><time>2026-03-23T13:50:38.998Z</time></trkpt><trkpt lat="42.555315594339085" lon="2.6626789648511595"><ele>583.0</ele><time>2026-03-23T13:50:39.998Z</time></trkpt><trkpt lat="42.555209794470684" lon="2.6625672746366167"><ele>583.0</ele><time>2026-03-23T13:50:40.998Z</time></trkpt><trkpt lat="42.55510078388496" lon="2.6624835642453344"><ele>582.8</ele><time>2026-03-23T13:50:41.998Z</time></trkpt><trkpt lat="42.554993539246176" lon="2.66242737097849"><ele>582.5999999999999</ele><time>2026-03-23T13:50:42.998Z</time></trkpt><trkpt lat="42.554894337832714" lon="2.662392800226719"><ele>582.4000000000001</ele><time>2026-03-23T13:50:43.998Z</time></trkpt><trkpt lat="42.55479580707591" lon="2.662342811428694"><ele>582.2</ele><time>2026-03-23T13:50:44.998Z</time></trkpt><trkpt lat="42.554697470109055" lon="2.6622714665969625"><ele>582.0</ele><time>2026-03-23T13:50:45.998Z</time></trkpt><trkpt lat="42.554631806678714" lon="2.662140621161349"><ele>582.0</ele><time>2026-03-23T13:50:46.998Z</time></trkpt><trkpt lat="42.55454626303349" lon="2.6620206390139605"><ele>582.0</ele><time>2026-03-23T13:50:47.998Z</time></trkpt><trkpt lat="42.5544721942013" lon="2.6618672434077797"><ele>582.0</ele><time>2026-03-23T13:50:48.998Z</time></trkpt><trkpt lat="42.55439701474881" lon="2.6617367016323854"><ele>582.0</ele><time>2026-03-23T13:50:49.998Z</time></trkpt><trkpt lat="42.55432444478479" lon="2.6616275320748795"><ele>581.8000000000001</ele><time>2026-03-23T13:50:50.998Z</time></trkpt><trkpt lat="42.55424841757845" lon="2.6615223325563693"><ele>581.6</ele><time>2026-03-23T13:50:51.998Z</time></trkpt><trkpt lat="42.55418638214702" lon="2.6614283393863274"><ele>581.4000000000001</ele><time>2026-03-23T13:50:52.998Z</time></trkpt><trkpt lat="42.55413226981555" lon="2.6613286380963306"><ele>581.2</ele><time>2026-03-23T13:50:53.998Z</time></trkpt><trkpt lat="42.55409555163911" lon="2.661203225302962"><ele>581.0</ele><time>2026-03-23T13:50:54.998Z</time></trkpt><trkpt lat="42.55408665982215" lon="2.6610546462955686"><ele>582.75</ele><time>2026-03-23T13:50:55.998Z</time></trkpt><trkpt lat="42.5541196176959" lon="2.660898814294933"><ele>584.5</ele><time>2026-03-23T13:50:56.998Z</time></trkpt><trkpt lat="42.55412474515924" lon="2.660721134065955"><ele>586.25</ele><time>2026-03-23T13:50:57.998Z</time></trkpt><trkpt lat="42.55415010093244" lon="2.660540248715395"><ele>588.0</ele><time>2026-03-23T13:50:58.998Z</time></trkpt><trkpt lat="42.554174144403696" lon="2.660353700263992"><ele>588.5</ele><time>2026-03-23T13:50:59.998Z</time></trkpt><trkpt lat="42.554188485316956" lon="2.660178252947827"><ele>589.0</ele><time>2026-03-23T13:51:00.998Z</time></trkpt><trkpt lat="42.55420920789826" lon="2.660014688091777"><ele>589.5</ele><time>2026-03-23T13:51:01.998Z</time></trkpt><trkpt lat="42.55423288648016" lon="2.6598641901540905"><ele>590.0</ele><time>2026-03-23T13:51:02.998Z</time></trkpt><trkpt lat="42.55425865865057" lon="2.659723235829314"><ele>590.0</ele><time>2026-03-23T13:51:03.998Z</time></trkpt><trkpt lat="42.55428745699767" lon="2.659580094655727"><ele>590.0</ele><time>2026-03-23T13:51:04.998Z</time></trkpt><trkpt lat="42.55434166832054" lon="2.659437820841784"><ele>590.0</ele><time>2026-03-23T13:51:05.998Z</time></trkpt><trkpt lat="42.55441600851918" lon="2.6592855145336474"><ele>590.0</ele><time>2026-03-23T13:51:06.998Z</time></trkpt><trkpt lat="42.5544923099471" lon="2.6591433132507043"><ele>593.25</ele><time>2026-03-23T13:51:07.998Z</time></trkpt><trkpt lat="42.55456860219688" lon="2.659000400761604"><ele>596.5</ele><time>2026-03-23T13:51:08.998Z</time></trkpt><trkpt lat="42.554637981670176" lon="2.6588601828077514"><ele>599.75</ele><time>2026-03-23T13:51:09.998Z</time></trkpt><trkpt lat="42.5547062058126" lon="2.6587202675733748"><ele>603.0</ele><time>2026-03-23T13:51:10.998Z</time></trkpt><trkpt lat="42.55477095734635" lon="2.658588941814209"><ele>603.0</ele><time>2026-03-23T13:51:11.998Z</time></trkpt><trkpt lat="42.55483694702454" lon="2.6584697296526083"><ele>603.0</ele><time>2026-03-23T13:51:12.998Z</time></trkpt><trkpt lat="42.55491152244386" lon="2.6583674093650096"><ele>603.0</ele><time>2026-03-23T13:51:13.998Z</time></trkpt><trkpt lat="42.554976658491135" lon="2.6582946509584016"><ele>603.0</ele><time>2026-03-23T13:51:15Z</time></trkpt><trkpt lat="42.55503422710664" lon="2.6582355766420194"><ele>603.0</ele><time>2026-03-23T13:51:16Z</time></trkpt><trkpt lat="42.55508379701633" lon="2.6581654973164195"><ele>603.0</ele><time>2026-03-23T13:51:17Z</time></trkpt><trkpt lat="42.555117692828055" lon="2.6580770871026096"><ele>603.0</ele><time>2026-03-23T13:51:18Z</time></trkpt><trkpt lat="42.555121905176975" lon="2.657968368670985"><ele>603.0</ele><time>2026-03-23T13:51:19Z</time></trkpt><trkpt lat="42.555085005516446" lon="2.6578597807233044"><ele>603.0</ele><time>2026-03-23T13:51:20Z</time></trkpt><trkpt lat="42.555017351870795" lon="2.6577797182450156"><ele>603.0</ele><time>2026-03-23T13:51:21Z</time></trkpt><trkpt lat="42.55493429446679" lon="2.6577454353425174"><ele>603.0</ele><time>2026-03-23T13:51:22Z</time></trkpt><trkpt lat="42.554841547188225" lon="2.657736945741153"><ele>603.0</ele><time>2026-03-23T13:51:23Z</time></trkpt><trkpt lat="42.554730011916696" lon="2.6577628362922328"><ele>603.0</ele><time>2026-03-23T13:51:24Z</time></trkpt><trkpt lat="42.55461823497948" lon="2.657799392464928"><ele>603.0</ele><time>2026-03-23T13:51:25Z</time></trkpt><trkpt lat="42.55451213366196" lon="2.6578137790458154"><ele>603.0</ele><time>2026-03-23T13:51:26Z</time></trkpt><trkpt lat="42.55441533031146" lon="2.6578594045821515"><ele>603.0</ele><time>2026-03-23T13:51:27Z</time></trkpt><trkpt lat="42.55431399024389" lon="2.6578852832006903"><ele>603.0</ele><time>2026-03-23T13:51:28Z</time></trkpt><trkpt lat="42.55420987492767" lon="2.6579104341591937"><ele>601.5</ele><time>2026-03-23T13:51:29Z</time></trkpt><trkpt lat="42.554107694240486" lon="2.6579208248929165"><ele>600.0</ele><time>2026-03-23T13:51:30Z</time></trkpt><trkpt lat="42.55401418901446" lon="2.6579212995767363"><ele>598.5</ele><time>2026-03-23T13:51:31Z</time></trkpt><trkpt lat="42.55393706774078" lon="2.6579161722014377"><ele>597.0</ele><time>2026-03-23T13:51:32Z</time></trkpt><trkpt lat="42.55386208970458" lon="2.657906837416452"><ele>595.5</ele><time>2026-03-23T13:51:33Z</time></trkpt><trkpt lat="42.553793869599424" lon="2.6578797626794697"><ele>594.0</ele><time>2026-03-23T13:51:34Z</time></trkpt><trkpt lat="42.553738622676526" lon="2.6578266658604743"><ele>594.0</ele><time>2026-03-23T13:51:35Z</time></trkpt><trkpt lat="42.553704217475364" lon="2.657751040931524"><ele>594.0</ele><time>2026-03-23T13:51:36Z</time></trkpt><trkpt lat="42.553699138364735" lon="2.6576538414748003"><ele>594.0</ele><time>2026-03-23T13:51:37Z</time></trkpt><trkpt lat="42.55372331068122" lon="2.6575479553163524"><ele>594.0</ele><time>2026-03-23T13:51:38Z</time></trkpt><trkpt lat="42.55376972227985" lon="2.6574537318549716"><ele>594.0</ele><time>2026-03-23T13:51:39Z</time></trkpt><trkpt lat="42.55383789997497" lon="2.6573709158139236"><ele>594.0</ele><time>2026-03-23T13:51:40Z</time></trkpt><trkpt lat="42.5539324867774" lon="2.6573421827597046"><ele>596.6</ele><time>2026-03-23T13:51:41Z</time></trkpt><trkpt lat="42.55402707658873" lon="2.6573163297900306"><ele>599.2</ele><time>2026-03-23T13:51:42Z</time></trkpt><trkpt lat="42.554117455411266" lon="2.657271156643108"><ele>601.8000000000001</ele><time>2026-03-23T13:51:43Z</time></trkpt><trkpt lat="42.55420467869069" lon="2.657213173992535"><ele>604.4</ele><time>2026-03-23T13:51:44Z</time></trkpt><trkpt lat="42.55428628969811" lon="2.6571149301530466"><ele>607.0</ele><time>2026-03-23T13:51:45Z</time></trkpt><trkpt lat="42.55437066129034" lon="2.6569940221935124"><ele>606.0</ele><time>2026-03-23T13:51:46Z</time></trkpt><trkpt lat="42.55446232739457" lon="2.6568687877581896"><ele>605.0</ele><time>2026-03-23T13:51:47Z</time></trkpt><trkpt lat="42.55456104364516" lon="2.6567483055335313"><ele>604.0</ele><time>2026-03-23T13:51:48Z</time></trkpt><trkpt lat="42.55466459616513" lon="2.656630676629384"><ele>603.0</ele><time>2026-03-23T13:51:49Z</time></trkpt><trkpt lat="42.55476136007681" lon="2.656508218644905"><ele>604.25</ele><time>2026-03-23T13:51:50Z</time></trkpt><trkpt lat="42.554855930366365" lon="2.656394143279816"><ele>605.5</ele><time>2026-03-23T13:51:51Z</time></trkpt><trkpt lat="42.55495255857128" lon="2.6562830503866244"><ele>606.75</ele><time>2026-03-23T13:51:51.999Z</time></trkpt><trkpt lat="42.55504455522847" lon="2.656174037108252"><ele>608.0</ele><time>2026-03-23T13:51:52.999Z</time></trkpt><trkpt lat="42.55512894946634" lon="2.65606698875697"><ele>608.0</ele><time>2026-03-23T13:51:53.999Z</time></trkpt><trkpt lat="42.55520446982414" lon="2.6559715123117416"><ele>608.0</ele><time>2026-03-23T13:51:54.999Z</time></trkpt><trkpt lat="42.55527491369854" lon="2.6558886036022096"><ele>608.0</ele><time>2026-03-23T13:51:55.999Z</time></trkpt><trkpt lat="42.55534941307051" lon="2.6558191973336442"><ele>608.0</ele><time>2026-03-23T13:51:56.999Z</time></trkpt><trkpt lat="42.55544627546352" lon="2.655793999526045"><ele>608.0</ele><time>2026-03-23T13:51:57.999Z</time></trkpt><trkpt lat="42.555540884096985" lon="2.6557695274098037"><ele>610.0</ele><time>2026-03-23T13:51:58.999Z</time></trkpt><trkpt lat="42.55565559410246" lon="2.6557583042904893"><ele>612.0</ele><time>2026-03-23T13:51:59.999Z</time></trkpt><trkpt lat="42.55577867270542" lon="2.6557247750462274"><ele>614.0</ele><time>2026-03-23T13:52:00.999Z</time></trkpt><trkpt lat="42.555902718138924" lon="2.6557012574952332"><ele>616.0</ele><time>2026-03-23T13:52:01.999Z</time></trkpt><trkpt lat="42.556037083435356" lon="2.6556793099712275"><ele>616.0</ele><time>2026-03-23T13:52:02.999Z</time></trkpt><trkpt lat="42.55616086423077" lon="2.6556647497646764"><ele>616.0</ele><time>2026-03-23T13:52:03.999Z</time></trkpt><trkpt lat="42.55627500470589" lon="2.6556500276900197"><ele>616.0</ele><time>2026-03-23T13:52:04.999Z</time></trkpt><trkpt lat="42.556386462528906" lon="2.6556402860295507"><ele>616.0</ele><time>2026-03-23T13:52:05.999Z</time></trkpt><trkpt lat="42.55649614859099" lon="2.6556313594806618"><ele>616.8</ele><time>2026-03-23T13:52:06.999Z</time></trkpt><trkpt lat="42.55660622647437" lon="2.6556314229009983"><ele>617.6</ele><time>2026-03-23T13:52:07.999Z</time></trkpt><trkpt lat="42.55671401280578" lon="2.65564620973297"><ele>618.4</ele><time>2026-03-23T13:52:08.999Z</time></trkpt><trkpt lat="42.55679873783754" lon="2.6556911695161074"><ele>619.2</ele><time>2026-03-23T13:52:09.999Z</time></trkpt><trkpt lat="42.55691216792632" lon="2.655737823511749"><ele>620.0</ele><time>2026-03-23T13:52:10.999Z</time></trkpt><trkpt lat="42.55702683882631" lon="2.655791620401827"><ele>620.0</ele><time>2026-03-23T13:52:11.999Z</time></trkpt><trkpt lat="42.55711485978517" lon="2.655843254147717"><ele>620.0</ele><time>2026-03-23T13:52:12.999Z</time></trkpt><trkpt lat="42.55719793007462" lon="2.6559030262624685"><ele>620.0</ele><time>2026-03-23T13:52:13.999Z</time></trkpt><trkpt lat="42.557272744131225" lon="2.6559790118286437"><ele>620.0</ele><time>2026-03-23T13:52:14.999Z</time></trkpt><trkpt lat="42.557353820722334" lon="2.6560458508556213"><ele>620.0</ele><time>2026-03-23T13:52:15.999Z</time></trkpt><trkpt lat="42.55740348144939" lon="2.6561172949037384"><ele>620.0</ele><time>2026-03-23T13:52:16.999Z</time></trkpt><trkpt lat="42.5575269373976" lon="2.656145156383295"><ele>620.0</ele><time>2026-03-23T13:52:18.999Z</time></trkpt><trkpt lat="42.55759667210718" lon="2.6560971151694464"><ele>620.0</ele><time>2026-03-23T13:52:19.999Z</time></trkpt><trkpt lat="42.55765255029572" lon="2.656014002877565"><ele>620.0</ele><time>2026-03-23T13:52:20.999Z</time></trkpt><trkpt lat="42.55769592535163" lon="2.6559024497371704"><ele>620.0</ele><time>2026-03-23T13:52:21.999Z</time></trkpt><trkpt lat="42.557744233252635" lon="2.655789124153119"><ele>620.0</ele><time>2026-03-23T13:52:22.999Z</time></trkpt><trkpt lat="42.557796647089845" lon="2.655715514273436"><ele>620.0</ele><time>2026-03-23T13:52:23.999Z</time></trkpt><trkpt lat="42.55787155553822" lon="2.6556396104761335"><ele>620.0</ele><time>2026-03-23T13:52:24.999Z</time></trkpt><trkpt lat="42.55795404548334" lon="2.6555956004872474"><ele>620.0</ele><time>2026-03-23T13:52:25.999Z</time></trkpt><trkpt lat="42.55804749807487" lon="2.655594323069816"><ele>620.0</ele><time>2026-03-23T13:52:26.999Z</time></trkpt><trkpt lat="42.558138050471555" lon="2.655593065501773"><ele>620.0</ele><time>2026-03-23T13:52:27.999Z</time></trkpt><trkpt lat="42.55821991143011" lon="2.655567736468588"><ele>619.3333333333333</ele><time>2026-03-23T13:52:28.999Z</time></trkpt><trkpt lat="42.55829702004528" lon="2.655560235073633"><ele>618.6666666666666</ele><time>2026-03-23T13:52:29.999Z</time></trkpt><trkpt lat="42.558359534218404" lon="2.655527942254107"><ele>618.0</ele><time>2026-03-23T13:52:30.999Z</time></trkpt><trkpt lat="42.55841703103933" lon="2.6554802898113863"><ele>617.3333333333334</ele><time>2026-03-23T13:52:31.999Z</time></trkpt><trkpt lat="42.55843701198303" lon="2.6553512089046847"><ele>616.6666666666667</ele><time>2026-03-23T13:52:32.999Z</time></trkpt><trkpt lat="42.55843966561424" lon="2.655237729694422"><ele>616.0</ele><time>2026-03-23T13:52:33.999Z</time></trkpt><trkpt lat="42.558431141441595" lon="2.655128770126406"><ele>616.0</ele><time>2026-03-23T13:52:34.999Z</time></trkpt><trkpt lat="42.55845198960689" lon="2.6550256651227264"><ele>616.0</ele><time>2026-03-23T13:52:35.999Z</time></trkpt><trkpt lat="42.55849971939588" lon="2.6549320587942313"><ele>616.0</ele><time>2026-03-23T13:52:36.998Z</time></trkpt><trkpt lat="42.55858764103332" lon="2.654874930773666"><ele>616.0</ele><time>2026-03-23T13:52:37.998Z</time></trkpt><trkpt lat="42.558670339126444" lon="2.6547829433448844"><ele>616.0</ele><time>2026-03-23T13:52:38.998Z</time></trkpt><trkpt lat="42.55877008120352" lon="2.6547028682585574"><ele>618.75</ele><time>2026-03-23T13:52:39.998Z</time></trkpt><trkpt lat="42.55887378260749" lon="2.654614229250957"><ele>621.5</ele><time>2026-03-23T13:52:40.998Z</time></trkpt><trkpt lat="42.558987020607034" lon="2.6545157885800807"><ele>624.25</ele><time>2026-03-23T13:52:41.998Z</time></trkpt><trkpt lat="42.55909069122757" lon="2.654432412399858"><ele>627.0</ele><time>2026-03-23T13:52:42.998Z</time></trkpt><trkpt lat="42.559169519385975" lon="2.6543712969392144"><ele>627.0</ele><time>2026-03-23T13:52:43.998Z</time></trkpt><trkpt lat="42.559250253601526" lon="2.6543191626205545"><ele>627.0</ele><time>2026-03-23T13:52:44.998Z</time></trkpt><trkpt lat="42.559321860304976" lon="2.65428017203814"><ele>627.0</ele><time>2026-03-23T13:52:45.998Z</time></trkpt><trkpt lat="42.5593895231765" lon="2.654249442003023"><ele>627.0</ele><time>2026-03-23T13:52:46.998Z</time></trkpt><trkpt lat="42.55948338179091" lon="2.6541268812297045"><ele>627.0</ele><time>2026-03-23T13:52:48.998Z</time></trkpt><trkpt lat="42.55950374542455" lon="2.654026231856113"><ele>627.0</ele><time>2026-03-23T13:52:49.998Z</time></trkpt><trkpt lat="42.55948425572307" lon="2.6539223800169593"><ele>627.0</ele><time>2026-03-23T13:52:50.998Z</time></trkpt><trkpt lat="42.559440325831" lon="2.653817993331117"><ele>627.0</ele><time>2026-03-23T13:52:51.998Z</time></trkpt><trkpt lat="42.55939689155648" lon="2.653719255608676"><ele>627.0</ele><time>2026-03-23T13:52:52.998Z</time></trkpt><trkpt lat="42.55937234299567" lon="2.6536229888442495"><ele>627.0</ele><time>2026-03-23T13:52:53.998Z</time></trkpt><trkpt lat="42.559377841343384" lon="2.6535083476220427"><ele>627.0</ele><time>2026-03-23T13:52:54.998Z</time></trkpt><trkpt lat="42.55941573662393" lon="2.653388230881441"><ele>627.0</ele><time>2026-03-23T13:52:55.998Z</time></trkpt><trkpt lat="42.55946512450684" lon="2.653266143768992"><ele>625.5</ele><time>2026-03-23T13:52:56.998Z</time></trkpt><trkpt lat="42.559526140345405" lon="2.653161004241871"><ele>624.0</ele><time>2026-03-23T13:52:57.998Z</time></trkpt><trkpt lat="42.55961025382876" lon="2.6530482136715867"><ele>622.5</ele><time>2026-03-23T13:52:58.998Z</time></trkpt><trkpt lat="42.55969050750661" lon="2.652926710153011"><ele>621.0</ele><time>2026-03-23T13:52:59.998Z</time></trkpt><trkpt lat="42.55977732567103" lon="2.6527992489831225"><ele>622.4</ele><time>2026-03-23T13:53:00.998Z</time></trkpt><trkpt lat="42.55986518784312" lon="2.6526668610294046"><ele>623.8</ele><time>2026-03-23T13:53:01.998Z</time></trkpt><trkpt lat="42.559938380374035" lon="2.6525406695761458"><ele>625.1999999999999</ele><time>2026-03-23T13:53:02.998Z</time></trkpt><trkpt lat="42.56000213429298" lon="2.652436013080028"><ele>626.6</ele><time>2026-03-23T13:53:03.998Z</time></trkpt><trkpt lat="42.56006990104712" lon="2.6523456385572564"><ele>628.0</ele><time>2026-03-23T13:53:04.998Z</time></trkpt><trkpt lat="42.560163972232615" lon="2.6522870001151424"><ele>628.0</ele><time>2026-03-23T13:53:05.998Z</time></trkpt><trkpt lat="42.56026700309069" lon="2.652242215715184"><ele>628.0</ele><time>2026-03-23T13:53:06.998Z</time></trkpt><trkpt lat="42.56036990014799" lon="2.652200385380203"><ele>628.0</ele><time>2026-03-23T13:53:07.998Z</time></trkpt><trkpt lat="42.56046484629016" lon="2.6521711041857086"><ele>628.0</ele><time>2026-03-23T13:53:08.998Z</time></trkpt><trkpt lat="42.56055727910235" lon="2.6521612808216672"><ele>628.0</ele><time>2026-03-23T13:53:09.998Z</time></trkpt><trkpt lat="42.56065924691532" lon="2.652164966120673"><ele>630.6666666666667</ele><time>2026-03-23T13:53:10.998Z</time></trkpt><trkpt lat="42.56075718212008" lon="2.6521804711735975"><ele>633.3333333333334</ele><time>2026-03-23T13:53:11.998Z</time></trkpt><trkpt lat="42.56085691883887" lon="2.6522022715619755"><ele>636.0</ele><time>2026-03-23T13:53:12.998Z</time></trkpt><trkpt lat="42.560943801097125" lon="2.652200542927132"><ele>638.6666666666666</ele><time>2026-03-23T13:53:13.998Z</time></trkpt><trkpt lat="42.561020614068944" lon="2.6522277238148915"><ele>641.3333333333333</ele><time>2026-03-23T13:53:14.998Z</time></trkpt><trkpt lat="42.56108644263344" lon="2.6522240045463406"><ele>644.0</ele><time>2026-03-23T13:53:15.998Z</time></trkpt><trkpt lat="42.56115260780249" lon="2.6521857031454292"><ele>645.8333333333333</ele><time>2026-03-23T13:53:16.998Z</time></trkpt><trkpt lat="42.56121552421013" lon="2.6521201048747765"><ele>647.6666666666666</ele><time>2026-03-23T13:53:17.998Z</time></trkpt><trkpt lat="42.5612520507465" lon="2.652022855051743"><ele>649.5</ele><time>2026-03-23T13:53:18.998Z</time></trkpt><trkpt lat="42.561267620887115" lon="2.6519050471754806"><ele>651.3333333333334</ele><time>2026-03-23T13:53:19.998Z</time></trkpt><trkpt lat="42.56126246992095" lon="2.6517784714258887"><ele>653.1666666666667</ele><time>2026-03-23T13:53:21Z</time></trkpt><trkpt lat="42.56125195330034" lon="2.6516390688893225"><ele>655.0</ele><time>2026-03-23T13:53:22Z</time></trkpt><trkpt lat="42.56125029432525" lon="2.6515045447773966"><ele>655.0</ele><time>2026-03-23T13:53:23Z</time></trkpt><trkpt lat="42.561251357774076" lon="2.6513711531600896"><ele>655.0</ele><time>2026-03-23T13:53:24Z</time></trkpt><trkpt lat="42.561254364062535" lon="2.6512410078620334"><ele>655.0</ele><time>2026-03-23T13:53:25Z</time></trkpt><trkpt lat="42.5612531318921" lon="2.6511110332673367"><ele>655.0</ele><time>2026-03-23T13:53:26Z</time></trkpt><trkpt lat="42.56125258250136" lon="2.6509918116634323"><ele>655.0</ele><time>2026-03-23T13:53:27Z</time></trkpt><trkpt lat="42.56126372266621" lon="2.650880594334293"><ele>653.6</ele><time>2026-03-23T13:53:28Z</time></trkpt><trkpt lat="42.561285607616504" lon="2.650765481267153"><ele>652.2</ele><time>2026-03-23T13:53:29Z</time></trkpt><trkpt lat="42.56131038775119" lon="2.6506444722264493"><ele>650.8</ele><time>2026-03-23T13:53:30Z</time></trkpt><trkpt lat="42.56135620969137" lon="2.6505301976569466"><ele>649.4</ele><time>2026-03-23T13:53:31Z</time></trkpt><trkpt lat="42.56141133530702" lon="2.650406170332671"><ele>648.0</ele><time>2026-03-23T13:53:32Z</time></trkpt><trkpt lat="42.56147957292673" lon="2.650277400730747"><ele>644.75</ele><time>2026-03-23T13:53:33Z</time></trkpt><trkpt lat="42.561557706041825" lon="2.6501530342568724"><ele>641.5</ele><time>2026-03-23T13:53:34Z</time></trkpt><trkpt lat="42.561644662907646" lon="2.6500225152865164"><ele>638.25</ele><time>2026-03-23T13:53:35Z</time></trkpt><trkpt lat="42.56172927933309" lon="2.6498784002795968"><ele>635.0</ele><time>2026-03-23T13:53:36Z</time></trkpt><trkpt lat="42.561817830764575" lon="2.649741050164627"><ele>635.0</ele><time>2026-03-23T13:53:37Z</time></trkpt><trkpt lat="42.56190873478371" lon="2.649620770092217"><ele>635.0</ele><time>2026-03-23T13:53:38Z</time></trkpt><trkpt lat="42.562009786649156" lon="2.649511139422458"><ele>635.0</ele><time>2026-03-23T13:53:39Z</time></trkpt><trkpt lat="42.562103818231535" lon="2.6494270133475477"><ele>635.0</ele><time>2026-03-23T13:53:40Z</time></trkpt><trkpt lat="42.562186415970736" lon="2.6493553400696075"><ele>635.25</ele><time>2026-03-23T13:53:41Z</time></trkpt><trkpt lat="42.56227942831697" lon="2.6493205815435803"><ele>635.5</ele><time>2026-03-23T13:53:42Z</time></trkpt><trkpt lat="42.56238594146512" lon="2.6492879170840764"><ele>635.75</ele><time>2026-03-23T13:53:43Z</time></trkpt><trkpt lat="42.56251569881264" lon="2.649255524178114"><ele>636.0</ele><time>2026-03-23T13:53:44Z</time></trkpt><trkpt lat="42.56263753894354" lon="2.649215493810361"><ele>636.0</ele><time>2026-03-23T13:53:45Z</time></trkpt><trkpt lat="42.562766615181275" lon="2.649170097636662"><ele>636.0</ele><time>2026-03-23T13:53:46Z</time></trkpt><trkpt lat="42.56289287721339" lon="2.6491224645971387"><ele>636.0</ele><time>2026-03-23T13:53:47Z</time></trkpt><trkpt lat="42.563017355295244" lon="2.649088578732944"><ele>636.0</ele><time>2026-03-23T13:53:48Z</time></trkpt><trkpt lat="42.56313975517955" lon="2.6490543799548574"><ele>638.3333333333334</ele><time>2026-03-23T13:53:49Z</time></trkpt><trkpt lat="42.56323946557167" lon="2.649025261397833"><ele>640.6666666666666</ele><time>2026-03-23T13:53:50Z</time></trkpt><trkpt lat="42.563322620042285" lon="2.6490107125086158"><ele>643.0</ele><time>2026-03-23T13:53:51Z</time></trkpt><trkpt lat="42.56338727609021" lon="2.648982073351647"><ele>645.3333333333333</ele><time>2026-03-23T13:53:52Z</time></trkpt><trkpt lat="42.56345530015058" lon="2.648949963853371"><ele>647.6666666666666</ele><time>2026-03-23T13:53:53Z</time></trkpt><trkpt lat="42.563551013298564" lon="2.6488745170157886"><ele>650.0</ele><time>2026-03-23T13:53:54Z</time></trkpt><trkpt lat="42.56363253976591" lon="2.6487108559517174"><ele>648.0</ele><time>2026-03-23T13:53:55Z</time></trkpt><trkpt lat="42.56367667381347" lon="2.6486023187896355"><ele>646.0</ele><time>2026-03-23T13:53:56Z</time></trkpt><trkpt lat="42.56362441449759" lon="2.648518538571437"><ele>644.0</ele><time>2026-03-23T13:53:57Z</time></trkpt><trkpt lat="42.56360921629633" lon="2.6484045723595337"><ele>642.0</ele><time>2026-03-23T13:53:58Z</time></trkpt><trkpt lat="42.56356502482451" lon="2.6482953210001603"><ele>640.0</ele><time>2026-03-23T13:53:58.999Z</time></trkpt><trkpt lat="42.563494982411534" lon="2.6482296821292755"><ele>638.0</ele><time>2026-03-23T13:53:59.999Z</time></trkpt><trkpt lat="42.56342107610037" lon="2.648195216392626"><ele>638.0</ele><time>2026-03-23T13:54:00.999Z</time></trkpt><trkpt lat="42.56336387858452" lon="2.6481102895278767"><ele>638.0</ele><time>2026-03-23T13:54:01.999Z</time></trkpt><trkpt lat="42.56333803988137" lon="2.6480187122070533"><ele>638.0</ele><time>2026-03-23T13:54:02.999Z</time></trkpt><trkpt lat="42.563326282180675" lon="2.647913910119639"><ele>638.0</ele><time>2026-03-23T13:54:03.999Z</time></trkpt><trkpt lat="42.56334068751813" lon="2.6477985584302015"><ele>638.0</ele><time>2026-03-23T13:54:04.999Z</time></trkpt><trkpt lat="42.56337197570821" lon="2.6476778584849803"><ele>638.0</ele><time>2026-03-23T13:54:05.999Z</time></trkpt><trkpt lat="42.563417263622625" lon="2.6475668587093426"><ele>638.25</ele><time>2026-03-23T13:54:06.999Z</time></trkpt><trkpt lat="42.563480855565096" lon="2.6474433835254314"><ele>638.5</ele><time>2026-03-23T13:54:07.999Z</time></trkpt><trkpt lat="42.56354817858515" lon="2.6473027962355045"><ele>638.75</ele><time>2026-03-23T13:54:08.999Z</time></trkpt><trkpt lat="42.563623188699296" lon="2.6471714726191187"><ele>639.0</ele><time>2026-03-23T13:54:09.999Z</time></trkpt><trkpt lat="42.56369760639527" lon="2.6470671632232268"><ele>640.8</ele><time>2026-03-23T13:54:10.999Z</time></trkpt><trkpt lat="42.56376948600721" lon="2.6469874339353794"><ele>642.5999999999999</ele><time>2026-03-23T13:54:11.999Z</time></trkpt><trkpt lat="42.56386246636498" lon="2.646892074596475"><ele>644.4</ele><time>2026-03-23T13:54:12.999Z</time></trkpt><trkpt lat="42.563983128075066" lon="2.6467871115202732"><ele>646.1999999999999</ele><time>2026-03-23T13:54:13.999Z</time></trkpt><trkpt lat="42.56405460756337" lon="2.6467283822037424"><ele>648.0</ele><time>2026-03-23T13:54:14.999Z</time></trkpt><trkpt lat="42.56414408353743" lon="2.64665260474016"><ele>648.0</ele><time>2026-03-23T13:54:15.999Z</time></trkpt><trkpt lat="42.56422498594263" lon="2.646594437613883"><ele>648.0</ele><time>2026-03-23T13:54:16.999Z</time></trkpt><trkpt lat="42.564326480930916" lon="2.6465740973798986"><ele>648.0</ele><time>2026-03-23T13:54:17.999Z</time></trkpt><trkpt lat="42.56442612457374" lon="2.6465421663352053"><ele>648.0</ele><time>2026-03-23T13:54:18.999Z</time></trkpt><trkpt lat="42.56452781848872" lon="2.646490776708753"><ele>648.0</ele><time>2026-03-23T13:54:19.999Z</time></trkpt><trkpt lat="42.56461879051122" lon="2.6464606665593178"><ele>648.0</ele><time>2026-03-23T13:54:20.999Z</time></trkpt><trkpt lat="42.5647009464509" lon="2.6464169783228377"><ele>648.0</ele><time>2026-03-23T13:54:21.999Z</time></trkpt><trkpt lat="42.56477161370002" lon="2.646362922415912"><ele>648.0</ele><time>2026-03-23T13:54:22.999Z</time></trkpt><trkpt lat="42.56483111857908" lon="2.6463041807474967"><ele>648.0</ele><time>2026-03-23T13:54:23.999Z</time></trkpt><trkpt lat="42.56487742086975" lon="2.6462390314801323"><ele>648.0</ele><time>2026-03-23T13:54:24.999Z</time></trkpt><trkpt lat="42.56493024737389" lon="2.646170877902156"><ele>648.0</ele><time>2026-03-23T13:54:26.999Z</time></trkpt><trkpt lat="42.56498992528641" lon="2.6461177221389565"><ele>648.0</ele><time>2026-03-23T13:54:50.998Z</time></trkpt><trkpt lat="42.56501947815689" lon="2.646002275290007"><ele>648.0</ele><time>2026-03-23T13:54:54.998Z</time></trkpt><trkpt lat="42.56505770328394" lon="2.645911616100402"><ele>648.0</ele><time>2026-03-23T13:54:56.998Z</time></trkpt><trkpt lat="42.56512527871781" lon="2.6457811233846216"><ele>648.0</ele><time>2026-03-23T13:54:58.998Z</time></trkpt><trkpt lat="42.56516578877685" lon="2.64569665152168"><ele>648.0</ele><time>2026-03-23T13:54:59.998Z</time></trkpt><trkpt lat="42.56521091236875" lon="2.645603713018028"><ele>648.0</ele><time>2026-03-23T13:55:00.998Z</time></trkpt><trkpt lat="42.565250104255846" lon="2.645518912279742"><ele>648.0</ele><time>2026-03-23T13:55:01.998Z</time></trkpt><trkpt lat="42.565297598924914" lon="2.6454220246979134"><ele>648.0</ele><time>2026-03-23T13:55:02.998Z</time></trkpt><trkpt lat="42.565345454975585" lon="2.645327714650603"><ele>648.0</ele><time>2026-03-23T13:55:03.998Z</time></trkpt><trkpt lat="42.56539220576861" lon="2.6452339029817753"><ele>648.0</ele><time>2026-03-23T13:55:04.998Z</time></trkpt><trkpt lat="42.56543052941651" lon="2.6451522422230775"><ele>648.0</ele><time>2026-03-23T13:55:05.998Z</time></trkpt><trkpt lat="42.56547056592207" lon="2.645075901450675"><ele>648.0</ele><time>2026-03-23T13:55:06.998Z</time></trkpt><trkpt lat="42.56551871635973" lon="2.6450005773280516"><ele>646.6666666666666</ele><time>2026-03-23T13:55:07.998Z</time></trkpt><trkpt lat="42.56558427053747" lon="2.6449427621939"><ele>645.3333333333334</ele><time>2026-03-23T13:55:08.998Z</time></trkpt><trkpt lat="42.56565830828348" lon="2.644895604611589"><ele>644.0</ele><time>2026-03-23T13:55:09.998Z</time></trkpt><trkpt lat="42.56574536112367" lon="2.6448433461972183"><ele>642.6666666666667</ele><time>2026-03-23T13:55:10.998Z</time></trkpt><trkpt lat="42.56583671119066" lon="2.644837291776687"><ele>641.3333333333334</ele><time>2026-03-23T13:55:11.998Z</time></trkpt><trkpt lat="42.565938250919515" lon="2.644822007220436"><ele>640.0</ele><time>2026-03-23T13:55:12.998Z</time></trkpt><trkpt lat="42.56604308816443" lon="2.6448017611901236"><ele>640.0</ele><time>2026-03-23T13:55:13.998Z</time></trkpt><trkpt lat="42.566146598898165" lon="2.644781235256881"><ele>640.0</ele><time>2026-03-23T13:55:14.998Z</time></trkpt><trkpt lat="42.56623613742482" lon="2.644763837401694"><ele>640.0</ele><time>2026-03-23T13:55:15.998Z</time></trkpt><trkpt lat="42.56632166443315" lon="2.644742386454246"><ele>640.0</ele><time>2026-03-23T13:55:16.998Z</time></trkpt><trkpt lat="42.566414018831004" lon="2.644698242501263"><ele>640.0</ele><time>2026-03-23T13:55:17.998Z</time></trkpt><trkpt lat="42.56650619490761" lon="2.644648456281723"><ele>640.25</ele><time>2026-03-23T13:55:18.998Z</time></trkpt><trkpt lat="42.56659778871697" lon="2.6445741108235614"><ele>640.5</ele><time>2026-03-23T13:55:19.998Z</time></trkpt><trkpt lat="42.56668567531667" lon="2.644489759763811"><ele>640.75</ele><time>2026-03-23T13:55:20.998Z</time></trkpt><trkpt lat="42.56678141018605" lon="2.6443918098823382"><ele>641.0</ele><time>2026-03-23T13:55:21.998Z</time></trkpt><trkpt lat="42.56688808064041" lon="2.6442732054727713"><ele>641.0</ele><time>2026-03-23T13:55:22.998Z</time></trkpt><trkpt lat="42.5670011015379" lon="2.644141157768957"><ele>641.0</ele><time>2026-03-23T13:55:23.998Z</time></trkpt><trkpt lat="42.56711381387111" lon="2.643983748926269"><ele>641.0</ele><time>2026-03-23T13:55:24.998Z</time></trkpt><trkpt lat="42.56720403528019" lon="2.6438110784381"><ele>637.0</ele><time>2026-03-23T13:55:25.998Z</time></trkpt><trkpt lat="42.5672950651663" lon="2.6436053416829637"><ele>633.0</ele><time>2026-03-23T13:55:27Z</time></trkpt><trkpt lat="42.567212615234524" lon="2.643736067676237"><ele>629.0</ele><time>2026-03-23T13:55:28Z</time></trkpt><trkpt lat="42.56726295857761" lon="2.643623023184251"><ele>625.0</ele><time>2026-03-23T13:55:29Z</time></trkpt><trkpt lat="42.56729730166269" lon="2.6434985159250335"><ele>625.0</ele><time>2026-03-23T13:55:30Z</time></trkpt><trkpt lat="42.56731879838458" lon="2.6433740671375054"><ele>625.0</ele><time>2026-03-23T13:55:31Z</time></trkpt><trkpt lat="42.56732489392331" lon="2.643238150927292"><ele>625.0</ele><time>2026-03-23T13:55:32Z</time></trkpt><trkpt lat="42.567313570337184" lon="2.6431104262074396"><ele>625.0</ele><time>2026-03-23T13:55:33Z</time></trkpt><trkpt lat="42.56728432813278" lon="2.642987854581082"><ele>625.0</ele><time>2026-03-23T13:55:34Z</time></trkpt><trkpt lat="42.567274074102095" lon="2.6428894758093633"><ele>626.3333333333334</ele><time>2026-03-23T13:55:35Z</time></trkpt><trkpt lat="42.567293230051156" lon="2.642795122209417"><ele>627.6666666666667</ele><time>2026-03-23T13:55:36Z</time></trkpt><trkpt lat="42.56732864161786" lon="2.642720400143164"><ele>629.0</ele><time>2026-03-23T13:55:37Z</time></trkpt><trkpt lat="42.56740397920065" lon="2.6426752070176933"><ele>630.3333333333334</ele><time>2026-03-23T13:55:38Z</time></trkpt><trkpt lat="42.567483918745495" lon="2.6426672980465082"><ele>631.6666666666666</ele><time>2026-03-23T13:55:39Z</time></trkpt><trkpt lat="42.56757525430952" lon="2.6426605227136126"><ele>633.0</ele><time>2026-03-23T13:55:40Z</time></trkpt><trkpt lat="42.56767525720033" lon="2.6426257677847356"><ele>633.0</ele><time>2026-03-23T13:55:41Z</time></trkpt><trkpt lat="42.567763044664105" lon="2.6426031510574832"><ele>633.0</ele><time>2026-03-23T13:55:42Z</time></trkpt><trkpt lat="42.567848801600945" lon="2.642557991072209"><ele>633.0</ele><time>2026-03-23T13:55:43Z</time></trkpt><trkpt lat="42.56794311561769" lon="2.6424950618055423"><ele>633.0</ele><time>2026-03-23T13:55:44Z</time></trkpt><trkpt lat="42.5680368600981" lon="2.6424059534143303"><ele>633.0</ele><time>2026-03-23T13:55:45Z</time></trkpt><trkpt lat="42.56812542365589" lon="2.6422750657640375"><ele>629.75</ele><time>2026-03-23T13:55:46Z</time></trkpt><trkpt lat="42.56820038683634" lon="2.64211863472775"><ele>626.5</ele><time>2026-03-23T13:55:47Z</time></trkpt><trkpt lat="42.56826264418213" lon="2.6419702593262615"><ele>623.25</ele><time>2026-03-23T13:55:48Z</time></trkpt><trkpt lat="42.5683221453088" lon="2.6418381288767816"><ele>620.0</ele><time>2026-03-23T13:55:49Z</time></trkpt><trkpt lat="42.568381105136375" lon="2.6417169937560283"><ele>620.0</ele><time>2026-03-23T13:55:50Z</time></trkpt><trkpt lat="42.56843763562724" lon="2.641601556684111"><ele>620.0</ele><time>2026-03-23T13:55:51Z</time></trkpt><trkpt lat="42.56847872692422" lon="2.641457750158515"><ele>620.0</ele><time>2026-03-23T13:55:52Z</time></trkpt><trkpt lat="42.56849269833169" lon="2.6412893883155055"><ele>620.0</ele><time>2026-03-23T13:55:53Z</time></trkpt><trkpt lat="42.56850653617554" lon="2.6411305116571073"><ele>619.75</ele><time>2026-03-23T13:55:54Z</time></trkpt><trkpt lat="42.56852242551354" lon="2.640975278317336"><ele>619.5</ele><time>2026-03-23T13:55:55Z</time></trkpt><trkpt lat="42.568540640723015" lon="2.6408195083063055"><ele>619.25</ele><time>2026-03-23T13:55:56Z</time></trkpt><trkpt lat="42.568555507280834" lon="2.6406620891684294"><ele>619.0</ele><time>2026-03-23T13:55:57Z</time></trkpt><trkpt lat="42.56856033225307" lon="2.6404939012605837"><ele>619.0</ele><time>2026-03-23T13:55:58Z</time></trkpt><trkpt lat="42.568538824787694" lon="2.640320916775845"><ele>619.0</ele><time>2026-03-23T13:55:59Z</time></trkpt><trkpt lat="42.56850092583838" lon="2.6401490512800376"><ele>619.0</ele><time>2026-03-23T13:56:00Z</time></trkpt><trkpt lat="42.56846495949171" lon="2.639973452546899"><ele>619.0</ele><time>2026-03-23T13:56:01Z</time></trkpt><trkpt lat="42.568432556522026" lon="2.6398059187391913"><ele>618.4</ele><time>2026-03-23T13:56:01.999Z</time></trkpt><trkpt lat="42.56840219597426" lon="2.6396491811490135"><ele>617.8</ele><time>2026-03-23T13:56:02.999Z</time></trkpt><trkpt lat="42.56837206833498" lon="2.639498109996476"><ele>617.2</ele><time>2026-03-23T13:56:03.999Z</time></trkpt><trkpt lat="42.56834512779725" lon="2.639363546573722"><ele>616.6</ele><time>2026-03-23T13:56:04.999Z</time></trkpt><trkpt lat="42.56832101945628" lon="2.6392519092116804"><ele>616.0</ele><time>2026-03-23T13:56:05.999Z</time></trkpt><trkpt lat="42.56832237519803" lon="2.639118434478883"><ele>615.5</ele><time>2026-03-23T13:56:06.999Z</time></trkpt><trkpt lat="42.568316904744016" lon="2.638979545292526"><ele>615.0</ele><time>2026-03-23T13:56:07.999Z</time></trkpt><trkpt lat="42.56838351659869" lon="2.6388644167411317"><ele>614.5</ele><time>2026-03-23T13:56:08.999Z</time></trkpt><trkpt lat="42.568422060985526" lon="2.638710745266959"><ele>614.0</ele><time>2026-03-23T13:56:09.999Z</time></trkpt><trkpt lat="42.568481986233394" lon="2.6385536471897337"><ele>614.0</ele><time>2026-03-23T13:56:10.999Z</time></trkpt><trkpt lat="42.56852611223592" lon="2.6384040304807734"><ele>614.0</ele><time>2026-03-23T13:56:11.999Z</time></trkpt><trkpt lat="42.568563275844824" lon="2.6382510320412087"><ele>614.0</ele><time>2026-03-23T13:56:12.999Z</time></trkpt><trkpt lat="42.56860900872598" lon="2.6381032034090013"><ele>614.0</ele><time>2026-03-23T13:56:13.999Z</time></trkpt><trkpt lat="42.568646498002266" lon="2.63795764358998"><ele>614.0</ele><time>2026-03-23T13:56:14.999Z</time></trkpt><trkpt lat="42.56868993378892" lon="2.6378246975982362"><ele>614.0</ele><time>2026-03-23T13:56:15.999Z</time></trkpt><trkpt lat="42.568737504003565" lon="2.637708448960115"><ele>614.0</ele><time>2026-03-23T13:56:16.999Z</time></trkpt><trkpt lat="42.56880264157864" lon="2.637587879943666"><ele>614.0</ele><time>2026-03-23T13:56:17.999Z</time></trkpt><trkpt lat="42.568877777098386" lon="2.6375000849251515"><ele>614.0</ele><time>2026-03-23T13:56:18.999Z</time></trkpt><trkpt lat="42.56895059714457" lon="2.6374211357066653"><ele>610.2</ele><time>2026-03-23T13:56:19.999Z</time></trkpt><trkpt lat="42.569000798466355" lon="2.637338880017739"><ele>606.4</ele><time>2026-03-23T13:56:20.999Z</time></trkpt><trkpt lat="42.56906246645909" lon="2.637221064150331"><ele>602.6</ele><time>2026-03-23T13:56:21.999Z</time></trkpt><trkpt lat="42.56905546113787" lon="2.637047406776632"><ele>598.8</ele><time>2026-03-23T13:56:23.999Z</time></trkpt><trkpt lat="42.569028336508445" lon="2.6369481109085733"><ele>595.0</ele><time>2026-03-23T13:56:24.999Z</time></trkpt><trkpt lat="42.56899516144768" lon="2.6368599563099777"><ele>594.3333333333334</ele><time>2026-03-23T13:56:25.999Z</time></trkpt><trkpt lat="42.5689103935373" lon="2.6368298572064783"><ele>593.6666666666667</ele><time>2026-03-23T13:56:26.999Z</time></trkpt><trkpt lat="42.568826394827234" lon="2.636817455437603"><ele>593.0</ele><time>2026-03-23T13:56:27.999Z</time></trkpt><trkpt lat="42.568746486339805" lon="2.6368480434916366"><ele>592.3333333333334</ele><time>2026-03-23T13:56:28.999Z</time></trkpt><trkpt lat="42.56867988871611" lon="2.636872415076025"><ele>591.6666666666666</ele><time>2026-03-23T13:56:29.999Z</time></trkpt><trkpt lat="42.56856244653522" lon="2.6369188012941316"><ele>591.0</ele><time>2026-03-23T13:56:31.999Z</time></trkpt><trkpt lat="42.568459803069906" lon="2.6368498166177563"><ele>594.5</ele><time>2026-03-23T13:56:33.999Z</time></trkpt><trkpt lat="42.568416496560104" lon="2.6367164965343584"><ele>598.0</ele><time>2026-03-23T13:56:35.999Z</time></trkpt><trkpt lat="42.5684227901734" lon="2.6366308712504702"><ele>601.5</ele><time>2026-03-23T13:56:36.999Z</time></trkpt><trkpt lat="42.568471137663515" lon="2.636561407089001"><ele>605.0</ele><time>2026-03-23T13:56:37.999Z</time></trkpt><trkpt lat="42.568498373807884" lon="2.6364668394200494"><ele>608.5</ele><time>2026-03-23T13:56:38.999Z</time></trkpt><trkpt lat="42.568550068717144" lon="2.636381421662543"><ele>612.0</ele><time>2026-03-23T13:56:39.999Z</time></trkpt><trkpt lat="42.56860382896821" lon="2.6362603356447787"><ele>611.75</ele><time>2026-03-23T13:56:40.999Z</time></trkpt><trkpt lat="42.5685990362349" lon="2.636101152001533"><ele>611.5</ele><time>2026-03-23T13:56:41.999Z</time></trkpt><trkpt lat="42.56862453534544" lon="2.6359595147255432"><ele>611.25</ele><time>2026-03-23T13:56:42.999Z</time></trkpt><trkpt lat="42.56868235575544" lon="2.635820143725802"><ele>611.0</ele><time>2026-03-23T13:56:43.999Z</time></trkpt><trkpt lat="42.56874884286602" lon="2.635673186036233"><ele>606.0</ele><time>2026-03-23T13:56:44.999Z</time></trkpt><trkpt lat="42.56882454528705" lon="2.635555026958806"><ele>601.0</ele><time>2026-03-23T13:56:45.999Z</time></trkpt><trkpt lat="42.568883883315884" lon="2.635423501224342"><ele>596.0</ele><time>2026-03-23T13:56:46.998Z</time></trkpt><trkpt lat="42.56893398755188" lon="2.6352894267937073"><ele>591.0</ele><time>2026-03-23T13:56:47.998Z</time></trkpt><trkpt lat="42.56897829773723" lon="2.6351656564683026"><ele>586.0</ele><time>2026-03-23T13:56:48.998Z</time></trkpt><trkpt lat="42.56902124009184" lon="2.635042348634383"><ele>586.0</ele><time>2026-03-23T13:56:49.998Z</time></trkpt><trkpt lat="42.569065697198425" lon="2.634917678153895"><ele>586.0</ele><time>2026-03-23T13:56:50.998Z</time></trkpt><trkpt lat="42.569132721126074" lon="2.6348168132823666"><ele>586.0</ele><time>2026-03-23T13:56:51.998Z</time></trkpt><trkpt lat="42.56920878096624" lon="2.63473722473669"><ele>586.0</ele><time>2026-03-23T13:56:52.998Z</time></trkpt><trkpt lat="42.569292777465" lon="2.6346669667259475"><ele>586.0</ele><time>2026-03-23T13:56:53.998Z</time></trkpt><trkpt lat="42.56935525035963" lon="2.6346067018540884"><ele>586.0</ele><time>2026-03-23T13:56:54.998Z</time></trkpt><trkpt lat="42.569400736876915" lon="2.6345395172623967"><ele>586.0</ele><time>2026-03-23T13:56:55.998Z</time></trkpt><trkpt lat="42.56942012068832" lon="2.6344468157216983"><ele>586.0</ele><time>2026-03-23T13:56:56.998Z</time></trkpt><trkpt lat="42.56942908767825" lon="2.6343312464282818"><ele>586.0</ele><time>2026-03-23T13:56:57.998Z</time></trkpt><trkpt lat="42.56943547741552" lon="2.6342091437182953"><ele>586.0</ele><time>2026-03-23T13:56:58.998Z</time></trkpt><trkpt lat="42.569448500048395" lon="2.634089428952285"><ele>586.0</ele><time>2026-03-23T13:56:59.998Z</time></trkpt><trkpt lat="42.56946983753489" lon="2.6339882321640564"><ele>588.4</ele><time>2026-03-23T13:57:00.998Z</time></trkpt><trkpt lat="42.569486364889705" lon="2.633880280766992"><ele>590.8</ele><time>2026-03-23T13:57:01.998Z</time></trkpt><trkpt lat="42.569487150934094" lon="2.6337533931495947"><ele>593.1999999999999</ele><time>2026-03-23T13:57:02.998Z</time></trkpt><trkpt lat="42.569486921685154" lon="2.6336241390159905"><ele>595.6</ele><time>2026-03-23T13:57:03.998Z</time></trkpt><trkpt lat="42.569447092467044" lon="2.6334936551448647"><ele>598.0</ele><time>2026-03-23T13:57:04.998Z</time></trkpt><trkpt lat="42.56943618090103" lon="2.633350642597826"><ele>598.0</ele><time>2026-03-23T13:57:05.998Z</time></trkpt><trkpt lat="42.56941760428501" lon="2.6332140511978834"><ele>598.0</ele><time>2026-03-23T13:57:06.998Z</time></trkpt><trkpt lat="42.56941354181325" lon="2.633068243691376"><ele>598.0</ele><time>2026-03-23T13:57:07.998Z</time></trkpt><trkpt lat="42.56940119888495" lon="2.632924692286188"><ele>598.0</ele><time>2026-03-23T13:57:08.998Z</time></trkpt><trkpt lat="42.56939696713238" lon="2.6327979323668256"><ele>598.0</ele><time>2026-03-23T13:57:09.998Z</time></trkpt><trkpt lat="42.56939338922186" lon="2.632674308067642"><ele>596.0</ele><time>2026-03-23T13:57:10.998Z</time></trkpt><trkpt lat="42.56938624375301" lon="2.6325557949146563"><ele>594.0</ele><time>2026-03-23T13:57:11.998Z</time></trkpt><trkpt lat="42.569391805845456" lon="2.6324473449138597"><ele>592.0</ele><time>2026-03-23T13:57:12.998Z</time></trkpt><trkpt lat="42.56941294902421" lon="2.6323438578772684"><ele>590.0</ele><time>2026-03-23T13:57:13.998Z</time></trkpt><trkpt lat="42.56945043189196" lon="2.6322590370992995"><ele>588.0</ele><time>2026-03-23T13:57:14.998Z</time></trkpt><trkpt lat="42.56949260768126" lon="2.6321868675865048"><ele>586.0</ele><time>2026-03-23T13:57:15.998Z</time></trkpt><trkpt lat="42.56951572007664" lon="2.6321054233954593"><ele>586.0</ele><time>2026-03-23T13:57:18.998Z</time></trkpt><trkpt lat="42.569485201678674" lon="2.631979424310248"><ele>586.0</ele><time>2026-03-23T13:58:04Z</time></trkpt><trkpt lat="42.56944015045036" lon="2.6318653001059946"><ele>586.0</ele><time>2026-03-23T13:58:05.999Z</time></trkpt><trkpt lat="42.569375688539665" lon="2.631776901517901"><ele>586.0</ele><time>2026-03-23T13:58:07.999Z</time></trkpt><trkpt lat="42.5692765899185" lon="2.6317159121806415"><ele>586.0</ele><time>2026-03-23T13:58:09.999Z</time></trkpt><trkpt lat="42.56921832582562" lon="2.6316786708438116"><ele>583.1428571428571</ele><time>2026-03-23T13:58:10.999Z</time></trkpt><trkpt lat="42.56914467871351" lon="2.631680175386956"><ele>580.2857142857142</ele><time>2026-03-23T13:58:11.999Z</time></trkpt><trkpt lat="42.56907486790603" lon="2.6316925394250315"><ele>577.4285714285714</ele><time>2026-03-23T13:58:12.999Z</time></trkpt><trkpt lat="42.56900204260876" lon="2.631709871540054"><ele>574.5714285714286</ele><time>2026-03-23T13:58:13.999Z</time></trkpt><trkpt lat="42.56892989275577" lon="2.631729864200307"><ele>571.7142857142858</ele><time>2026-03-23T13:58:14.999Z</time></trkpt><trkpt lat="42.568852940579646" lon="2.6317532790331155"><ele>568.8571428571429</ele><time>2026-03-23T13:58:15.999Z</time></trkpt><trkpt lat="42.56878203606369" lon="2.6317766277676458"><ele>566.0</ele><time>2026-03-23T13:58:16.999Z</time></trkpt><trkpt lat="42.568711983170225" lon="2.6318006193886494"><ele>565.3333333333333</ele><time>2026-03-23T13:58:17.999Z</time></trkpt><trkpt lat="42.56864531928003" lon="2.631846543894177"><ele>564.6666666666666</ele><time>2026-03-23T13:58:18.999Z</time></trkpt><trkpt lat="42.56857874379974" lon="2.631873919363246"><ele>564.0</ele><time>2026-03-23T13:58:19.999Z</time></trkpt><trkpt lat="42.5685090471232" lon="2.631885889141677"><ele>563.3333333333334</ele><time>2026-03-23T13:58:20.999Z</time></trkpt><trkpt lat="42.568444722032666" lon="2.6319222485951954"><ele>562.6666666666667</ele><time>2026-03-23T13:58:21.999Z</time></trkpt><trkpt lat="42.56838394248004" lon="2.6319717771295634"><ele>562.0</ele><time>2026-03-23T13:58:22.999Z</time></trkpt><trkpt lat="42.56829092848125" lon="2.632066066455628"><ele>562.0</ele><time>2026-03-23T13:58:24.999Z</time></trkpt><trkpt lat="42.56820593537805" lon="2.632140172619718"><ele>562.0</ele><time>2026-03-23T13:58:26.999Z</time></trkpt><trkpt lat="42.56809610450252" lon="2.632071117863628"><ele>562.0</ele><time>2026-03-23T13:58:28.999Z</time></trkpt><trkpt lat="42.56804888933153" lon="2.63194423696643"><ele>562.0</ele><time>2026-03-23T13:58:30.999Z</time></trkpt><trkpt lat="42.568046246363465" lon="2.6318585244343105"><ele>562.0</ele><time>2026-03-23T13:58:31.999Z</time></trkpt><trkpt lat="42.56807929831383" lon="2.631780329361735"><ele>562.0</ele><time>2026-03-23T13:58:32.999Z</time></trkpt><trkpt lat="42.568100855946255" lon="2.6316147659101814"><ele>562.0</ele><time>2026-03-23T13:58:34.999Z</time></trkpt><trkpt lat="42.56808960376674" lon="2.6315184478063824"><ele>562.0</ele><time>2026-03-23T13:58:35.999Z</time></trkpt><trkpt lat="42.56805755124077" lon="2.6314246777410606"><ele>562.0</ele><time>2026-03-23T13:58:36.999Z</time></trkpt><trkpt lat="42.568015161569306" lon="2.631333603429949"><ele>562.0</ele><time>2026-03-23T13:58:37.999Z</time></trkpt><trkpt lat="42.56798110455714" lon="2.631231437904557"><ele>562.0</ele><time>2026-03-23T13:58:38.999Z</time></trkpt><trkpt lat="42.567914583035886" lon="2.631143027220584"><ele>564.5</ele><time>2026-03-23T13:58:39.999Z</time></trkpt><trkpt lat="42.56783057741346" lon="2.6310675927771316"><ele>567.0</ele><time>2026-03-23T13:58:40.999Z</time></trkpt><trkpt lat="42.567706351500874" lon="2.6310046020114006"><ele>569.5</ele><time>2026-03-23T13:58:41.999Z</time></trkpt><trkpt lat="42.56757873487833" lon="2.6309105478504673"><ele>572.0</ele><time>2026-03-23T13:58:42.999Z</time></trkpt><trkpt lat="42.56743372263127" lon="2.6308310760995743"><ele>572.0</ele><time>2026-03-23T13:58:43.999Z</time></trkpt><trkpt lat="42.56751858728664" lon="2.630933248256662"><ele>572.0</ele><time>2026-03-23T13:58:44.999Z</time></trkpt><trkpt lat="42.567451070511694" lon="2.630903305398838"><ele>572.0</ele><time>2026-03-23T13:58:45.999Z</time></trkpt><trkpt lat="42.567346210935085" lon="2.6308323619968608"><ele>572.0</ele><time>2026-03-23T13:58:47.999Z</time></trkpt><trkpt lat="42.567335723336925" lon="2.6307081411738107"><ele>572.0</ele><time>2026-03-23T13:58:49.999Z</time></trkpt><trkpt lat="42.56738471132574" lon="2.630592288000347"><ele>572.0</ele><time>2026-03-23T13:58:51.998Z</time></trkpt><trkpt lat="42.56752041844504" lon="2.6305743307171543"><ele>572.0</ele><time>2026-03-23T13:58:53.998Z</time></trkpt><trkpt lat="42.56764231552702" lon="2.630559377185547"><ele>572.0</ele><time>2026-03-23T13:58:54.998Z</time></trkpt><trkpt lat="42.5677657813597" lon="2.6304928213210124"><ele>572.0</ele><time>2026-03-23T13:58:55.998Z</time></trkpt><trkpt lat="42.567904949886575" lon="2.630416930322033"><ele>567.6666666666666</ele><time>2026-03-23T13:58:56.998Z</time></trkpt><trkpt lat="42.5680595896052" lon="2.630319629363518"><ele>563.3333333333334</ele><time>2026-03-23T13:58:57.998Z</time></trkpt><trkpt lat="42.56820231080784" lon="2.630225462991668"><ele>559.0</ele><time>2026-03-23T13:58:58.998Z</time></trkpt><trkpt lat="42.56832968863849" lon="2.6301372548451467"><ele>559.0</ele><time>2026-03-23T13:58:59.998Z</time></trkpt><trkpt lat="42.56845389434692" lon="2.6300553612616016"><ele>559.0</ele><time>2026-03-23T13:59:00.998Z</time></trkpt><trkpt lat="42.56856205417391" lon="2.629984886244693"><ele>559.0</ele><time>2026-03-23T13:59:01.998Z</time></trkpt><trkpt lat="42.56865799309768" lon="2.6299282467832437"><ele>559.0</ele><time>2026-03-23T13:59:02.998Z</time></trkpt><trkpt lat="42.56873988151235" lon="2.629845175559179"><ele>555.25</ele><time>2026-03-23T13:59:03.998Z</time></trkpt><trkpt lat="42.56882010592641" lon="2.629742189211246"><ele>551.5</ele><time>2026-03-23T13:59:04.998Z</time></trkpt><trkpt lat="42.568889660932676" lon="2.6296060747736933"><ele>547.75</ele><time>2026-03-23T13:59:05.998Z</time></trkpt><trkpt lat="42.56896666868278" lon="2.6294439660644247"><ele>544.0</ele><time>2026-03-23T13:59:06.998Z</time></trkpt><trkpt lat="42.569020439233434" lon="2.629255284097243"><ele>544.0</ele><time>2026-03-23T13:59:07.998Z</time></trkpt><trkpt lat="42.56908090936203" lon="2.6291001538755427"><ele>544.0</ele><time>2026-03-23T13:59:08.998Z</time></trkpt><trkpt lat="42.56914236382345" lon="2.628947433309194"><ele>544.0</ele><time>2026-03-23T13:59:09.998Z</time></trkpt><trkpt lat="42.569184717855386" lon="2.6287868269562473"><ele>544.0</ele><time>2026-03-23T13:59:10.998Z</time></trkpt><trkpt lat="42.56922988887371" lon="2.6286150337723426"><ele>545.0</ele><time>2026-03-23T13:59:11.998Z</time></trkpt><trkpt lat="42.56927011829812" lon="2.6284241425209993"><ele>546.0</ele><time>2026-03-23T13:59:12.998Z</time></trkpt><trkpt lat="42.56930930847173" lon="2.62823345090004"><ele>547.0</ele><time>2026-03-23T13:59:13.998Z</time></trkpt><trkpt lat="42.569335647072016" lon="2.6280519785894083"><ele>548.0</ele><time>2026-03-23T13:59:14.998Z</time></trkpt><trkpt lat="42.56936372055316" lon="2.6278831493726305"><ele>548.0</ele><time>2026-03-23T13:59:15.998Z</time></trkpt><trkpt lat="42.56939727773727" lon="2.6277291916289856"><ele>548.0</ele><time>2026-03-23T13:59:16.998Z</time></trkpt><trkpt lat="42.56942741690747" lon="2.6275838132185565"><ele>548.0</ele><time>2026-03-23T13:59:17.998Z</time></trkpt><trkpt lat="42.56945496086214" lon="2.6274559074482706"><ele>548.0</ele><time>2026-03-23T13:59:18.998Z</time></trkpt><trkpt lat="42.56947532635938" lon="2.627335982277759"><ele>548.0</ele><time>2026-03-23T13:59:19.998Z</time></trkpt><trkpt lat="42.56948955737169" lon="2.627234867903445"><ele>548.0</ele><time>2026-03-23T13:59:20.998Z</time></trkpt><trkpt lat="42.56949050682446" lon="2.627140096795188"><ele>548.0</ele><time>2026-03-23T13:59:21.998Z</time></trkpt><trkpt lat="42.569480568600184" lon="2.6270454678495927"><ele>548.0</ele><time>2026-03-23T13:59:22.998Z</time></trkpt><trkpt lat="42.56945342644074" lon="2.626939456642799"><ele>548.0</ele><time>2026-03-23T13:59:23.998Z</time></trkpt><trkpt lat="42.569402516519595" lon="2.6268352741368948"><ele>548.0</ele><time>2026-03-23T13:59:24.998Z</time></trkpt><trkpt lat="42.569340284398244" lon="2.626725631559162"><ele>548.0</ele><time>2026-03-23T13:59:25.998Z</time></trkpt><trkpt lat="42.56930251763979" lon="2.626627923345157"><ele>546.0</ele><time>2026-03-23T13:59:26.998Z</time></trkpt><trkpt lat="42.56923996150339" lon="2.6265618854846156"><ele>544.0</ele><time>2026-03-23T13:59:27.998Z</time></trkpt><trkpt lat="42.569184459267625" lon="2.62646994111167"><ele>542.0</ele><time>2026-03-23T13:59:28.998Z</time></trkpt><trkpt lat="42.56909261942955" lon="2.626417870336216"><ele>540.0</ele><time>2026-03-23T13:59:29.998Z</time></trkpt><trkpt lat="42.56902424054745" lon="2.6263705349693507"><ele>538.0</ele><time>2026-03-23T13:59:30.998Z</time></trkpt><trkpt lat="42.56894285955981" lon="2.6263418086986774"><ele>536.0</ele><time>2026-03-23T13:59:31.998Z</time></trkpt><trkpt lat="42.56887316064324" lon="2.626293722133575"><ele>536.0</ele><time>2026-03-23T13:59:32.998Z</time></trkpt><trkpt lat="42.568711969386264" lon="2.626218317425251"><ele>536.0</ele><time>2026-03-23T13:59:34.998Z</time></trkpt><trkpt lat="42.568635332197395" lon="2.626180191951356"><ele>536.0</ele><time>2026-03-23T13:59:35.997Z</time></trkpt><trkpt lat="42.56853239618803" lon="2.626133556379929"><ele>536.0</ele><time>2026-03-23T13:59:37.997Z</time></trkpt><trkpt lat="42.568529355987216" lon="2.625998377951828"><ele>538.0</ele><time>2026-03-23T13:59:40Z</time></trkpt><trkpt lat="42.56860924129471" lon="2.625917511484677"><ele>540.0</ele><time>2026-03-23T13:59:42Z</time></trkpt><trkpt lat="42.56872774152236" lon="2.625920954030241"><ele>542.0</ele><time>2026-03-23T13:59:44Z</time></trkpt><trkpt lat="42.56879753216357" lon="2.6259052634885833"><ele>544.0</ele><time>2026-03-23T13:59:45Z</time></trkpt><trkpt lat="42.56885237274969" lon="2.6258501236642053"><ele>546.0</ele><time>2026-03-23T13:59:46Z</time></trkpt><trkpt lat="42.56889569079094" lon="2.6257723887720426"><ele>548.0</ele><time>2026-03-23T13:59:47Z</time></trkpt><trkpt lat="42.5689271894304" lon="2.625667870751875"><ele>543.5</ele><time>2026-03-23T13:59:48Z</time></trkpt><trkpt lat="42.56891369074667" lon="2.625553813138942"><ele>539.0</ele><time>2026-03-23T13:59:49Z</time></trkpt><trkpt lat="42.568901518071456" lon="2.6254406373364967"><ele>534.5</ele><time>2026-03-23T13:59:50Z</time></trkpt><trkpt lat="42.56885768109827" lon="2.625350193583653"><ele>530.0</ele><time>2026-03-23T13:59:51Z</time></trkpt><trkpt lat="42.568822640216716" lon="2.6252583606823516"><ele>525.5</ele><time>2026-03-23T13:59:52Z</time></trkpt><trkpt lat="42.568772290603285" lon="2.6251336826647584"><ele>521.0</ele><time>2026-03-23T13:59:54Z</time></trkpt><trkpt lat="42.56876717164316" lon="2.6250064229892396"><ele>520.8333333333333</ele><time>2026-03-23T13:59:56Z</time></trkpt><trkpt lat="42.568875573890935" lon="2.624942415104232"><ele>520.6666666666666</ele><time>2026-03-23T13:59:58Z</time></trkpt><trkpt lat="42.56894034225898" lon="2.6249556640470226"><ele>520.5</ele><time>2026-03-23T13:59:59Z</time></trkpt><trkpt lat="42.569006007832144" lon="2.6249845380065095"><ele>520.3333333333334</ele><time>2026-03-23T14:00:00Z</time></trkpt><trkpt lat="42.56907816559518" lon="2.624995965678538"><ele>520.1666666666667</ele><time>2026-03-23T14:00:01Z</time></trkpt><trkpt lat="42.56914382899872" lon="2.624961584193091"><ele>520.0</ele><time>2026-03-23T14:00:02Z</time></trkpt><trkpt lat="42.5691943887166" lon="2.6248877132830435"><ele>520.0</ele><time>2026-03-23T14:00:03Z</time></trkpt><trkpt lat="42.56922143010453" lon="2.6247867564827385"><ele>520.0</ele><time>2026-03-23T14:00:04Z</time></trkpt><trkpt lat="42.56922215868583" lon="2.6246869772737758"><ele>520.0</ele><time>2026-03-23T14:00:05Z</time></trkpt><trkpt lat="42.569262201665154" lon="2.6245410267184464"><ele>520.0</ele><time>2026-03-23T14:00:07Z</time></trkpt><trkpt lat="42.56931625846883" lon="2.6244792863597985"><ele>520.0</ele><time>2026-03-23T14:00:08Z</time></trkpt><trkpt lat="42.56939377677344" lon="2.6244533123532023"><ele>520.0</ele><time>2026-03-23T14:00:09Z</time></trkpt><trkpt lat="42.569477715774546" lon="2.624437591270745"><ele>521.6666666666667</ele><time>2026-03-23T14:00:10Z</time></trkpt><trkpt lat="42.56955854514987" lon="2.6243978182345247"><ele>523.3333333333334</ele><time>2026-03-23T14:00:11Z</time></trkpt><trkpt lat="42.56964623816783" lon="2.6243971348409665"><ele>525.0</ele><time>2026-03-23T14:00:12Z</time></trkpt><trkpt lat="42.56972456389733" lon="2.6243580003497815"><ele>526.6666666666666</ele><time>2026-03-23T14:00:13Z</time></trkpt><trkpt lat="42.56980370909552" lon="2.6243472979534745"><ele>528.3333333333333</ele><time>2026-03-23T14:00:13.999Z</time></trkpt><trkpt lat="42.56988875358125" lon="2.624376217525681"><ele>530.0</ele><time>2026-03-23T14:00:14.999Z</time></trkpt><trkpt lat="42.56997372426519" lon="2.624408971186734"><ele>525.8</ele><time>2026-03-23T14:00:15.999Z</time></trkpt><trkpt lat="42.570048114554574" lon="2.6244822701161863"><ele>521.6</ele><time>2026-03-23T14:00:16.999Z</time></trkpt><trkpt lat="42.57013975058462" lon="2.624539221768026"><ele>517.4</ele><time>2026-03-23T14:00:17.999Z</time></trkpt><trkpt lat="42.57021774893914" lon="2.6245900877432287"><ele>513.2</ele><time>2026-03-23T14:00:18.999Z</time></trkpt><trkpt lat="42.57030212474658" lon="2.6246242876372965"><ele>509.0</ele><time>2026-03-23T14:00:19.999Z</time></trkpt><trkpt lat="42.57039225538641" lon="2.6246564169840245"><ele>508.2</ele><time>2026-03-23T14:00:20.999Z</time></trkpt><trkpt lat="42.570481944834874" lon="2.6247084961739735"><ele>507.4</ele><time>2026-03-23T14:00:21.999Z</time></trkpt><trkpt lat="42.57057409743442" lon="2.6247583476370773"><ele>506.6</ele><time>2026-03-23T14:00:22.999Z</time></trkpt><trkpt lat="42.57066197260231" lon="2.62482066453266"><ele>505.8</ele><time>2026-03-23T14:00:23.999Z</time></trkpt><trkpt lat="42.57075948080137" lon="2.6248660044886694"><ele>505.0</ele><time>2026-03-23T14:00:24.999Z</time></trkpt><trkpt lat="42.57086019927077" lon="2.6248931502522663"><ele>505.00000000000006</ele><time>2026-03-23T14:00:25.999Z</time></trkpt><trkpt lat="42.57095540403413" lon="2.624902824057579"><ele>505.0</ele><time>2026-03-23T14:00:26.999Z</time></trkpt><trkpt lat="42.57104463715274" lon="2.6249283878426466"><ele>505.0</ele><time>2026-03-23T14:00:27.999Z</time></trkpt><trkpt lat="42.57112641202351" lon="2.62495171310498"><ele>505.0</ele><time>2026-03-23T14:00:28.999Z</time></trkpt><trkpt lat="42.57120553907581" lon="2.624968656977017"><ele>505.00000000000006</ele><time>2026-03-23T14:00:29.999Z</time></trkpt><trkpt lat="42.571271406688126" lon="2.624984542122233"><ele>505.0</ele><time>2026-03-23T14:00:30.999Z</time></trkpt><trkpt lat="42.57133563190659" lon="2.6249767204648586"><ele>502.6</ele><time>2026-03-23T14:00:31.999Z</time></trkpt><trkpt lat="42.57140248454519" lon="2.6249382459306534"><ele>500.2</ele><time>2026-03-23T14:00:32.999Z</time></trkpt><trkpt lat="42.57147143335882" lon="2.624861111556454"><ele>497.79999999999995</ele><time>2026-03-23T14:00:33.999Z</time></trkpt><trkpt lat="42.57153351631139" lon="2.6247484790172617"><ele>495.4</ele><time>2026-03-23T14:00:34.999Z</time></trkpt><trkpt lat="42.5715952130364" lon="2.6246220409885592"><ele>493.0</ele><time>2026-03-23T14:00:35.999Z</time></trkpt><trkpt lat="42.57164849647409" lon="2.624504441338125"><ele>495.00000000000006</ele><time>2026-03-23T14:00:36.999Z</time></trkpt><trkpt lat="42.571699425454696" lon="2.6243959712740086"><ele>497.0</ele><time>2026-03-23T14:00:37.999Z</time></trkpt><trkpt lat="42.57174854058859" lon="2.6242970285770144"><ele>499.0</ele><time>2026-03-23T14:00:38.999Z</time></trkpt><trkpt lat="42.571792793068276" lon="2.624199674392285"><ele>501.0</ele><time>2026-03-23T14:00:39.999Z</time></trkpt><trkpt lat="42.5718303711791" lon="2.6241057890095134"><ele>503.00000000000006</ele><time>2026-03-23T14:00:40.999Z</time></trkpt><trkpt lat="42.571851336038826" lon="2.624022853338512"><ele>505.0</ele><time>2026-03-23T14:00:41.999Z</time></trkpt><trkpt lat="42.571850729698205" lon="2.623922778208386"><ele>505.0</ele><time>2026-03-23T14:00:42.999Z</time></trkpt><trkpt lat="42.571830947965715" lon="2.6237991913482"><ele>505.0</ele><time>2026-03-23T14:00:43.999Z</time></trkpt><trkpt lat="42.57181966331426" lon="2.623663838779709"><ele>505.0</ele><time>2026-03-23T14:00:44.999Z</time></trkpt><trkpt lat="42.571794768219604" lon="2.623527309842734"><ele>505.0</ele><time>2026-03-23T14:00:45.999Z</time></trkpt><trkpt lat="42.57178093292187" lon="2.6233976823435703"><ele>505.0</ele><time>2026-03-23T14:00:46.999Z</time></trkpt><trkpt lat="42.57177484855466" lon="2.623281951906108"><ele>505.2</ele><time>2026-03-23T14:00:47.999Z</time></trkpt><trkpt lat="42.57176115741865" lon="2.6231667327643304"><ele>505.4</ele><time>2026-03-23T14:00:48.999Z</time></trkpt><trkpt lat="42.57174052464729" lon="2.623064521071501"><ele>505.6</ele><time>2026-03-23T14:00:49.999Z</time></trkpt><trkpt lat="42.57171603894182" lon="2.6229095807672484"><ele>505.8</ele><time>2026-03-23T14:00:51.999Z</time></trkpt><trkpt lat="42.57175898026037" lon="2.6227529820465914"><ele>506.0</ele><time>2026-03-23T14:00:53.999Z</time></trkpt><trkpt lat="42.5718807714759" lon="2.6227100033454294"><ele>506.0</ele><time>2026-03-23T14:00:55.999Z</time></trkpt><trkpt lat="42.571943751587106" lon="2.622767176159432"><ele>506.0</ele><time>2026-03-23T14:00:56.999Z</time></trkpt><trkpt lat="42.57198665444411" lon="2.622864452692047"><ele>506.0</ele><time>2026-03-23T14:00:57.999Z</time></trkpt><trkpt lat="42.57206637077944" lon="2.6229580844991593"><ele>506.0</ele><time>2026-03-23T14:00:58.998Z</time></trkpt><trkpt lat="42.572149004536044" lon="2.623048600249019"><ele>506.0</ele><time>2026-03-23T14:00:59.998Z</time></trkpt><trkpt lat="42.572239728767954" lon="2.623135212733297"><ele>503.8</ele><time>2026-03-23T14:01:00.998Z</time></trkpt><trkpt lat="42.57232121624383" lon="2.623201786453231"><ele>501.6</ele><time>2026-03-23T14:01:01.998Z</time></trkpt><trkpt lat="42.57239725340878" lon="2.623272710117143"><ele>499.4</ele><time>2026-03-23T14:01:02.998Z</time></trkpt><trkpt lat="42.57246740518666" lon="2.6233577232557477"><ele>497.2</ele><time>2026-03-23T14:01:03.998Z</time></trkpt><trkpt lat="42.5725376803482" lon="2.623455685291135"><ele>495.0</ele><time>2026-03-23T14:01:04.998Z</time></trkpt><trkpt lat="42.572613597899284" lon="2.623551315048353"><ele>495.0</ele><time>2026-03-23T14:01:05.998Z</time></trkpt><trkpt lat="42.57269147088505" lon="2.6236250084947508"><ele>495.0</ele><time>2026-03-23T14:01:06.998Z</time></trkpt><trkpt lat="42.572760820210156" lon="2.623692801434436"><ele>495.0</ele><time>2026-03-23T14:01:07.998Z</time></trkpt><trkpt lat="42.57281933622006" lon="2.62375363498142"><ele>495.0</ele><time>2026-03-23T14:01:08.998Z</time></trkpt><trkpt lat="42.57287745351625" lon="2.623803225341381"><ele>495.0</ele><time>2026-03-23T14:01:09.998Z</time></trkpt><trkpt lat="42.57295438590526" lon="2.623815009821004"><ele>495.0</ele><time>2026-03-23T14:01:10.998Z</time></trkpt><trkpt lat="42.5730339290788" lon="2.6237924068754417"><ele>491.8</ele><time>2026-03-23T14:01:11.998Z</time></trkpt><trkpt lat="42.57310571254796" lon="2.6237302723942273"><ele>488.6</ele><time>2026-03-23T14:01:12.998Z</time></trkpt><trkpt lat="42.57316154683093" lon="2.6236305592820104"><ele>485.4</ele><time>2026-03-23T14:01:13.998Z</time></trkpt><trkpt lat="42.573225203969464" lon="2.623505090691141"><ele>482.2</ele><time>2026-03-23T14:01:14.998Z</time></trkpt><trkpt lat="42.573282047012746" lon="2.6233800988019182"><ele>479.0</ele><time>2026-03-23T14:01:15.998Z</time></trkpt><trkpt lat="42.57333597243738" lon="2.623261823973112"><ele>479.0</ele><time>2026-03-23T14:01:16.998Z</time></trkpt><trkpt lat="42.5733791302035" lon="2.6231494408208955"><ele>479.0</ele><time>2026-03-23T14:01:17.998Z</time></trkpt><trkpt lat="42.57341027009806" lon="2.623023672384796"><ele>479.0</ele><time>2026-03-23T14:01:18.998Z</time></trkpt><trkpt lat="42.57344094070479" lon="2.6229000064656294"><ele>479.0</ele><time>2026-03-23T14:01:19.998Z</time></trkpt><trkpt lat="42.573485086277564" lon="2.6227783358455126"><ele>479.0</ele><time>2026-03-23T14:01:20.998Z</time></trkpt><trkpt lat="42.57356503318578" lon="2.6226876777821726"><ele>476.0</ele><time>2026-03-23T14:01:21.998Z</time></trkpt><trkpt lat="42.57362460730839" lon="2.622574312094352"><ele>473.0</ele><time>2026-03-23T14:01:22.998Z</time></trkpt><trkpt lat="42.57370429399607" lon="2.6224860033989703"><ele>470.0</ele><time>2026-03-23T14:01:23.998Z</time></trkpt><trkpt lat="42.573783071632384" lon="2.622391699364063"><ele>467.0</ele><time>2026-03-23T14:01:24.998Z</time></trkpt><trkpt lat="42.573859301830716" lon="2.6223150780484605"><ele>464.0</ele><time>2026-03-23T14:01:25.998Z</time></trkpt><trkpt lat="42.57394344808127" lon="2.622253889681811"><ele>464.0</ele><time>2026-03-23T14:01:26.998Z</time></trkpt><trkpt lat="42.57402484484907" lon="2.622211750731726"><ele>464.0</ele><time>2026-03-23T14:01:27.998Z</time></trkpt><trkpt lat="42.574110961461486" lon="2.6222083327584813"><ele>464.0</ele><time>2026-03-23T14:01:28.998Z</time></trkpt><trkpt lat="42.57419726992662" lon="2.622168496923562"><ele>464.0</ele><time>2026-03-23T14:01:29.998Z</time></trkpt><trkpt lat="42.57429504144269" lon="2.622148263108558"><ele>464.0</ele><time>2026-03-23T14:01:30.998Z</time></trkpt><trkpt lat="42.57439285581227" lon="2.6221133578391616"><ele>464.0</ele><time>2026-03-23T14:01:31.998Z</time></trkpt><trkpt lat="42.57449510054882" lon="2.6220531007834067"><ele>464.0</ele><time>2026-03-23T14:01:32.998Z</time></trkpt><trkpt lat="42.574591353036105" lon="2.6219782161689342"><ele>464.0</ele><time>2026-03-23T14:01:33.998Z</time></trkpt><trkpt lat="42.57467079175594" lon="2.6219186936542314"><ele>464.0</ele><time>2026-03-23T14:01:34.998Z</time></trkpt><trkpt lat="42.5747378378845" lon="2.6218557760339514"><ele>464.0</ele><time>2026-03-23T14:01:35.998Z</time></trkpt><trkpt lat="42.57479832963276" lon="2.6217884190330953"><ele>462.79999999999995</ele><time>2026-03-23T14:01:36.998Z</time></trkpt><trkpt lat="42.57486913836252" lon="2.621693254688968"><ele>461.59999999999997</ele><time>2026-03-23T14:01:37.998Z</time></trkpt><trkpt lat="42.574925112035736" lon="2.6215544099728327"><ele>460.4</ele><time>2026-03-23T14:01:38.998Z</time></trkpt><trkpt lat="42.574975571652864" lon="2.621428610867478"><ele>459.2</ele><time>2026-03-23T14:01:39.998Z</time></trkpt><trkpt lat="42.5750167547704" lon="2.6213259386722108"><ele>458.0</ele><time>2026-03-23T14:01:40.998Z</time></trkpt><trkpt lat="42.575037690443615" lon="2.6212286254598953"><ele>458.0</ele><time>2026-03-23T14:01:41.998Z</time></trkpt><trkpt lat="42.575079634626356" lon="2.6211557446218086"><ele>457.99999999999994</ele><time>2026-03-23T14:01:42.998Z</time></trkpt><trkpt lat="42.57510540411188" lon="2.6210657581890775"><ele>457.99999999999994</ele><time>2026-03-23T14:01:43.997Z</time></trkpt><trkpt lat="42.57505427532717" lon="2.620935656240889"><ele>458.0</ele><time>2026-03-23T14:01:45Z</time></trkpt><trkpt lat="42.57503448120031" lon="2.620804357740753"><ele>458.0</ele><time>2026-03-23T14:01:46Z</time></trkpt><trkpt lat="42.574970944469364" lon="2.6206892295762123"><ele>459.49999999999994</ele><time>2026-03-23T14:01:47Z</time></trkpt><trkpt lat="42.574963788126134" lon="2.6205682836494333"><ele>461.0</ele><time>2026-03-23T14:01:48Z</time></trkpt><trkpt lat="42.57495969000869" lon="2.62045840957873"><ele>462.5</ele><time>2026-03-23T14:01:49Z</time></trkpt><trkpt lat="42.57496698570373" lon="2.6203561668331905"><ele>464.0</ele><time>2026-03-23T14:01:50Z</time></trkpt><trkpt lat="42.57501273500733" lon="2.6202378152840806"><ele>465.49999999999994</ele><time>2026-03-23T14:01:52Z</time></trkpt><trkpt lat="42.57509649389426" lon="2.620158170513357"><ele>467.0</ele><time>2026-03-23T14:01:54Z</time></trkpt><trkpt lat="42.575158423807004" lon="2.620179048362561"><ele>466.16666666666663</ele><time>2026-03-23T14:01:55Z</time></trkpt><trkpt lat="42.575241346910886" lon="2.6201835683959858"><ele>465.3333333333333</ele><time>2026-03-23T14:01:56Z</time></trkpt><trkpt lat="42.57532201141691" lon="2.6201596806602976"><ele>464.5</ele><time>2026-03-23T14:01:57Z</time></trkpt><trkpt lat="42.57539118139757" lon="2.6201709456473727"><ele>463.66666666666663</ele><time>2026-03-23T14:01:58Z</time></trkpt><trkpt lat="42.57545820975154" lon="2.62020042381216"><ele>462.8333333333333</ele><time>2026-03-23T14:01:59Z</time></trkpt><trkpt lat="42.575519860115364" lon="2.620258831358246"><ele>462.0</ele><time>2026-03-23T14:02:00Z</time></trkpt><trkpt lat="42.57558606378251" lon="2.620306399646371"><ele>462.0</ele><time>2026-03-23T14:02:01Z</time></trkpt><trkpt lat="42.575661333789455" lon="2.6203255839136155"><ele>462.00000000000006</ele><time>2026-03-23T14:02:02Z</time></trkpt><trkpt lat="42.575740048104805" lon="2.620317470469419"><ele>462.00000000000006</ele><time>2026-03-23T14:02:03Z</time></trkpt><trkpt lat="42.57582839115175" lon="2.620280628178819"><ele>462.0</ele><time>2026-03-23T14:02:04Z</time></trkpt><trkpt lat="42.57592909903097" lon="2.6202148382785837"><ele>462.0</ele><time>2026-03-23T14:02:05Z</time></trkpt><trkpt lat="42.57604329160388" lon="2.62013659600074"><ele>462.0</ele><time>2026-03-23T14:02:06Z</time></trkpt><trkpt lat="42.57617821581928" lon="2.620058134083759"><ele>462.0</ele><time>2026-03-23T14:02:07Z</time></trkpt><trkpt lat="42.57631672843273" lon="2.6199831314436084"><ele>462.0</ele><time>2026-03-23T14:02:08Z</time></trkpt><trkpt lat="42.576442687023885" lon="2.619931095357295"><ele>462.0</ele><time>2026-03-23T14:02:09Z</time></trkpt><trkpt lat="42.57656225688839" lon="2.619882555691866"><ele>458.20000000000005</ele><time>2026-03-23T14:02:10Z</time></trkpt><trkpt lat="42.57666074514997" lon="2.6198411881988446"><ele>454.40000000000003</ele><time>2026-03-23T14:02:11Z</time></trkpt><trkpt lat="42.57676240463314" lon="2.6197934415795086"><ele>450.59999999999997</ele><time>2026-03-23T14:02:12Z</time></trkpt><trkpt lat="42.576849845687605" lon="2.6197567366414214"><ele>446.79999999999995</ele><time>2026-03-23T14:02:13Z</time></trkpt><trkpt lat="42.57692475232849" lon="2.6197204611253713"><ele>443.0</ele><time>2026-03-23T14:02:14Z</time></trkpt><trkpt lat="42.576999723065015" lon="2.619666676159532"><ele>441.5</ele><time>2026-03-23T14:02:15Z</time></trkpt><trkpt lat="42.57706827517238" lon="2.6195691502155665"><ele>440.0</ele><time>2026-03-23T14:02:16Z</time></trkpt><trkpt lat="42.57713327865675" lon="2.6194346181267774"><ele>438.5</ele><time>2026-03-23T14:02:17Z</time></trkpt><trkpt lat="42.57719618602338" lon="2.6192901918262117"><ele>437.0</ele><time>2026-03-23T14:02:18Z</time></trkpt><trkpt lat="42.57725755273562" lon="2.6191373485767646"><ele>436.75</ele><time>2026-03-23T14:02:19Z</time></trkpt><trkpt lat="42.57730823770879" lon="2.618991064364247"><ele>436.5</ele><time>2026-03-23T14:02:19.999Z</time></trkpt><trkpt lat="42.577353301633" lon="2.6188432902812724"><ele>436.25</ele><time>2026-03-23T14:02:20.999Z</time></trkpt><trkpt lat="42.577389233679654" lon="2.6187002840807803"><ele>436.0</ele><time>2026-03-23T14:02:21.999Z</time></trkpt><trkpt lat="42.57745933495186" lon="2.6185834191281807"><ele>438.4</ele><time>2026-03-23T14:02:22.999Z</time></trkpt><trkpt lat="42.57752223732254" lon="2.618451979680989"><ele>440.8</ele><time>2026-03-23T14:02:23.999Z</time></trkpt><trkpt lat="42.57759428311539" lon="2.618340379555564"><ele>443.19999999999993</ele><time>2026-03-23T14:02:24.999Z</time></trkpt><trkpt lat="42.57766276890906" lon="2.618221007315214"><ele>445.59999999999997</ele><time>2026-03-23T14:02:25.999Z</time></trkpt><trkpt lat="42.577738555251514" lon="2.618107444416775"><ele>448.0</ele><time>2026-03-23T14:02:26.999Z</time></trkpt><trkpt lat="42.5778087548346" lon="2.618016980443388"><ele>446.0</ele><time>2026-03-23T14:02:27.999Z</time></trkpt><trkpt lat="42.57785287655089" lon="2.617912100389272"><ele>443.99999999999994</ele><time>2026-03-23T14:02:28.999Z</time></trkpt><trkpt lat="42.577897287575" lon="2.617810292929394"><ele>441.99999999999994</ele><time>2026-03-23T14:02:29.999Z</time></trkpt><trkpt lat="42.57792695144354" lon="2.6177140239694623"><ele>440.0</ele><time>2026-03-23T14:02:30.999Z</time></trkpt><trkpt lat="42.57800926797417" lon="2.617586552850551"><ele>438.0</ele><time>2026-03-23T14:02:32.999Z</time></trkpt><trkpt lat="42.57810161961746" lon="2.617592665547598"><ele>438.0</ele><time>2026-03-23T14:02:33.999Z</time></trkpt><trkpt lat="42.57820580761603" lon="2.6175593735188434"><ele>437.99999999999994</ele><time>2026-03-23T14:02:34.999Z</time></trkpt><trkpt lat="42.578291953237496" lon="2.617452914145052"><ele>437.99999999999994</ele><time>2026-03-23T14:02:35.999Z</time></trkpt><trkpt lat="42.57838782506314" lon="2.617400971395609"><ele>438.0</ele><time>2026-03-23T14:02:36.999Z</time></trkpt><trkpt lat="42.57848029164102" lon="2.6173766656174946"><ele>438.0</ele><time>2026-03-23T14:02:37.999Z</time></trkpt><trkpt lat="42.5786217121384" lon="2.6173242574621285"><ele>433.4</ele><time>2026-03-23T14:02:38.999Z</time></trkpt><trkpt lat="42.57872685458037" lon="2.6172740183755927"><ele>428.79999999999995</ele><time>2026-03-23T14:02:39.999Z</time></trkpt><trkpt lat="42.57882116785452" lon="2.6172255765593744"><ele>424.2</ele><time>2026-03-23T14:02:40.999Z</time></trkpt><trkpt lat="42.578901672801365" lon="2.617174909791462"><ele>419.6</ele><time>2026-03-23T14:02:41.999Z</time></trkpt><trkpt lat="42.57897466319893" lon="2.6171190870666856"><ele>415.0</ele><time>2026-03-23T14:02:42.999Z</time></trkpt><trkpt lat="42.57904382098467" lon="2.6170433216011553"><ele>418.25</ele><time>2026-03-23T14:02:43.999Z</time></trkpt><trkpt lat="42.57910776375935" lon="2.6169320397281424"><ele>421.5</ele><time>2026-03-23T14:02:44.999Z</time></trkpt><trkpt lat="42.579169917977055" lon="2.616775805243997"><ele>424.75</ele><time>2026-03-23T14:02:45.999Z</time></trkpt><trkpt lat="42.57922931284752" lon="2.616621918768694"><ele>428.0</ele><time>2026-03-23T14:02:46.999Z</time></trkpt><trkpt lat="42.57928073296218" lon="2.6164762665696233"><ele>428.0</ele><time>2026-03-23T14:02:47.999Z</time></trkpt><trkpt lat="42.57933652124759" lon="2.6163441346074583"><ele>427.99999999999994</ele><time>2026-03-23T14:02:48.999Z</time></trkpt><trkpt lat="42.57937467742389" lon="2.6162151194906067"><ele>427.99999999999994</ele><time>2026-03-23T14:02:49.999Z</time></trkpt><trkpt lat="42.57942886873994" lon="2.6160891495501244"><ele>428.0</ele><time>2026-03-23T14:02:50.999Z</time></trkpt><trkpt lat="42.57949245409406" lon="2.6159924703672526"><ele>428.0</ele><time>2026-03-23T14:02:51.999Z</time></trkpt><trkpt lat="42.579529015466655" lon="2.6158772598653464"><ele>425.3333333333333</ele><time>2026-03-23T14:02:52.999Z</time></trkpt><trkpt lat="42.57957988308367" lon="2.6157726751110673"><ele>422.66666666666663</ele><time>2026-03-23T14:02:53.999Z</time></trkpt><trkpt lat="42.57962623008025" lon="2.615671294502564"><ele>420.0</ele><time>2026-03-23T14:02:54.999Z</time></trkpt><trkpt lat="42.57966799108298" lon="2.6155682384720413"><ele>417.33333333333337</ele><time>2026-03-23T14:02:55.999Z</time></trkpt><trkpt lat="42.57970410563168" lon="2.6154713135615104"><ele>414.6666666666667</ele><time>2026-03-23T14:02:56.999Z</time></trkpt><trkpt lat="42.579733684572645" lon="2.615384686033793"><ele>412.0</ele><time>2026-03-23T14:02:57.999Z</time></trkpt><trkpt lat="42.57978011910956" lon="2.615242297972915"><ele>412.00000000000006</ele><time>2026-03-23T14:02:59.999Z</time></trkpt><trkpt lat="42.579802361800525" lon="2.6151216707236546"><ele>412.0</ele><time>2026-03-23T14:03:01.999Z</time></trkpt><trkpt lat="42.579785677779384" lon="2.615029850519275"><ele>412.0</ele><time>2026-03-23T14:03:03.999Z</time></trkpt><trkpt lat="42.57970982920398" lon="2.6149800883301086"><ele>412.0</ele><time>2026-03-23T14:03:05.998Z</time></trkpt><trkpt lat="42.579604119612746" lon="2.615010978955246"><ele>412.00000000000006</ele><time>2026-03-23T14:03:07.998Z</time></trkpt><trkpt lat="42.579508659350175" lon="2.615018473156909"><ele>412.0</ele><time>2026-03-23T14:03:09.998Z</time></trkpt><trkpt lat="42.579443698610135" lon="2.6149234223830615"><ele>413.0</ele><time>2026-03-23T14:03:11.998Z</time></trkpt><trkpt lat="42.579363460329354" lon="2.614828780161439"><ele>414.0</ele><time>2026-03-23T14:03:13.998Z</time></trkpt><trkpt lat="42.579270961094416" lon="2.6147115410103035"><ele>415.0</ele><time>2026-03-23T14:03:15.998Z</time></trkpt><trkpt lat="42.57923123896105" lon="2.6145728101508006"><ele>416.0</ele><time>2026-03-23T14:03:17.998Z</time></trkpt><trkpt lat="42.579214224857694" lon="2.6144248109318977"><ele>416.49999999999994</ele><time>2026-03-23T14:03:19.998Z</time></trkpt><trkpt lat="42.57928365373068" lon="2.6142985260125875"><ele>417.0</ele><time>2026-03-23T14:03:21.998Z</time></trkpt><trkpt lat="42.579350543973305" lon="2.6142543408583494"><ele>417.5</ele><time>2026-03-23T14:03:22.998Z</time></trkpt><trkpt lat="42.57941227276182" lon="2.614197076196425"><ele>418.0</ele><time>2026-03-23T14:03:23.998Z</time></trkpt><trkpt lat="42.57947767324063" lon="2.614146199841972"><ele>418.49999999999994</ele><time>2026-03-23T14:03:24.998Z</time></trkpt><trkpt lat="42.57954150878465" lon="2.6141152364904428"><ele>419.0</ele><time>2026-03-23T14:03:25.998Z</time></trkpt><trkpt lat="42.5796113959162" lon="2.61406302918333"><ele>419.4</ele><time>2026-03-23T14:03:26.998Z</time></trkpt><trkpt lat="42.579692909378984" lon="2.614066925449515"><ele>419.79999999999995</ele><time>2026-03-23T14:03:27.998Z</time></trkpt><trkpt lat="42.57977456793288" lon="2.6140403659264786"><ele>420.20000000000005</ele><time>2026-03-23T14:03:28.998Z</time></trkpt><trkpt lat="42.57985976751726" lon="2.6140631847839138"><ele>420.6</ele><time>2026-03-23T14:03:29.998Z</time></trkpt><trkpt lat="42.579945554286226" lon="2.6140702467597494"><ele>421.0</ele><time>2026-03-23T14:03:30.998Z</time></trkpt><trkpt lat="42.5800584451727" lon="2.6140911184305975"><ele>421.0</ele><time>2026-03-23T14:03:31.998Z</time></trkpt><trkpt lat="42.580162118323955" lon="2.614119884420509"><ele>421.0</ele><time>2026-03-23T14:03:32.998Z</time></trkpt><trkpt lat="42.58027422666793" lon="2.614190889796233"><ele>421.0</ele><time>2026-03-23T14:03:33.998Z</time></trkpt><trkpt lat="42.580384272050814" lon="2.6142734896390034"><ele>421.0</ele><time>2026-03-23T14:03:34.998Z</time></trkpt><trkpt lat="42.58048332255713" lon="2.6143784517560245"><ele>423.50000000000006</ele><time>2026-03-23T14:03:35.998Z</time></trkpt><trkpt lat="42.580560486527915" lon="2.614495879709395"><ele>426.0</ele><time>2026-03-23T14:03:36.998Z</time></trkpt><trkpt lat="42.58052219596437" lon="2.614427285329294"><ele>428.5</ele><time>2026-03-23T14:03:37.998Z</time></trkpt><trkpt lat="42.58057694964547" lon="2.61452192896152"><ele>431.0</ele><time>2026-03-23T14:03:38.998Z</time></trkpt><trkpt lat="42.58060375613763" lon="2.6146146895796294"><ele>433.50000000000006</ele><time>2026-03-23T14:03:39.998Z</time></trkpt><trkpt lat="42.58063492040927" lon="2.614709439189081"><ele>436.0</ele><time>2026-03-23T14:03:40.998Z</time></trkpt><trkpt lat="42.58065413675113" lon="2.614805302887202"><ele>436.00000000000006</ele><time>2026-03-23T14:03:41.998Z</time></trkpt><trkpt lat="42.58065361608692" lon="2.614898967546494"><ele>436.0</ele><time>2026-03-23T14:03:42.998Z</time></trkpt><trkpt lat="42.580654647096466" lon="2.6150054954615567"><ele>436.0</ele><time>2026-03-23T14:03:43.998Z</time></trkpt><trkpt lat="42.58065632604292" lon="2.6151250629369542"><ele>436.0</ele><time>2026-03-23T14:03:44.998Z</time></trkpt><trkpt lat="42.580661222973376" lon="2.615244730386973"><ele>436.00000000000006</ele><time>2026-03-23T14:03:45.998Z</time></trkpt><trkpt lat="42.58065526388429" lon="2.6153678465439625"><ele>436.0</ele><time>2026-03-23T14:03:46.998Z</time></trkpt><trkpt lat="42.58066631242707" lon="2.6154997751536424"><ele>435.0</ele><time>2026-03-23T14:03:47.998Z</time></trkpt><trkpt lat="42.58065016998441" lon="2.6156400302840352"><ele>434.0</ele><time>2026-03-23T14:03:48.998Z</time></trkpt><trkpt lat="42.58064219000274" lon="2.615793769503502"><ele>433.0</ele><time>2026-03-23T14:03:49.998Z</time></trkpt><trkpt lat="42.58063391930355" lon="2.6159549749524817"><ele>432.0</ele><time>2026-03-23T14:03:51Z</time></trkpt><trkpt lat="42.580616747931415" lon="2.6161005066081127"><ele>431.0</ele><time>2026-03-23T14:03:52Z</time></trkpt><trkpt lat="42.580600824783915" lon="2.6162284392466253"><ele>429.4</ele><time>2026-03-23T14:03:53Z</time></trkpt><trkpt lat="42.580568824055426" lon="2.616359057906602"><ele>427.8</ele><time>2026-03-23T14:03:54Z</time></trkpt><trkpt lat="42.580540469053275" lon="2.616484699329781"><ele>426.2</ele><time>2026-03-23T14:03:55Z</time></trkpt><trkpt lat="42.580514059218835" lon="2.6166052390720345"><ele>424.59999999999997</ele><time>2026-03-23T14:03:56Z</time></trkpt><trkpt lat="42.58050641069327" lon="2.6167284109474465"><ele>423.0</ele><time>2026-03-23T14:03:57Z</time></trkpt><trkpt lat="42.58050350206146" lon="2.6168403863044274"><ele>423.0</ele><time>2026-03-23T14:03:58Z</time></trkpt><trkpt lat="42.58049974638674" lon="2.616941439781925"><ele>423.0</ele><time>2026-03-23T14:03:59Z</time></trkpt><trkpt lat="42.58050759507841" lon="2.617032677309391"><ele>423.0</ele><time>2026-03-23T14:04:00Z</time></trkpt><trkpt lat="42.58058585190574" lon="2.617167589735461"><ele>423.0</ele><time>2026-03-23T14:04:02Z</time></trkpt><trkpt lat="42.58066678676944" lon="2.617214995028734"><ele>423.0</ele><time>2026-03-23T14:04:03Z</time></trkpt><trkpt lat="42.580755774550745" lon="2.617252636026995"><ele>420.59999999999997</ele><time>2026-03-23T14:04:04Z</time></trkpt><trkpt lat="42.58084474981681" lon="2.6173017927610283"><ele>418.2</ele><time>2026-03-23T14:04:05Z</time></trkpt><trkpt lat="42.580925239672716" lon="2.6173454311556"><ele>415.8</ele><time>2026-03-23T14:04:06Z</time></trkpt><trkpt lat="42.58100535125407" lon="2.6173786038595805"><ele>413.4</ele><time>2026-03-23T14:04:07Z</time></trkpt><trkpt lat="42.58108563424049" lon="2.6173670124306856"><ele>411.0</ele><time>2026-03-23T14:04:08Z</time></trkpt><trkpt lat="42.581186351293034" lon="2.6173415538946534"><ele>411.0</ele><time>2026-03-23T14:04:09Z</time></trkpt><trkpt lat="42.58128769658578" lon="2.617270522042919"><ele>411.0</ele><time>2026-03-23T14:04:10Z</time></trkpt><trkpt lat="42.58139085190105" lon="2.617203671214199"><ele>411.0</ele><time>2026-03-23T14:04:11Z</time></trkpt><trkpt lat="42.58149696017021" lon="2.6171969102937975"><ele>411.0</ele><time>2026-03-23T14:04:12Z</time></trkpt><trkpt lat="42.581616292931216" lon="2.6172086405248716"><ele>411.0</ele><time>2026-03-23T14:04:13Z</time></trkpt><trkpt lat="42.58174245837091" lon="2.6171948099503743"><ele>411.0</ele><time>2026-03-23T14:04:14Z</time></trkpt><trkpt lat="42.58186201819555" lon="2.617151742086961"><ele>411.0</ele><time>2026-03-23T14:04:15Z</time></trkpt><trkpt lat="42.58199479891165" lon="2.6170916397041086"><ele>411.0</ele><time>2026-03-23T14:04:16Z</time></trkpt><trkpt lat="42.58212386277594" lon="2.61704419579472"><ele>409.25</ele><time>2026-03-23T14:04:17Z</time></trkpt><trkpt lat="42.58224034201857" lon="2.6169988203991728"><ele>407.5</ele><time>2026-03-23T14:04:18Z</time></trkpt><trkpt lat="42.58235385311973" lon="2.6169700308405943"><ele>405.75</ele><time>2026-03-23T14:04:19Z</time></trkpt><trkpt lat="42.58246756912288" lon="2.616938786841088"><ele>404.0</ele><time>2026-03-23T14:04:20Z</time></trkpt><trkpt lat="42.58257105954942" lon="2.6169093314319856"><ele>406.4</ele><time>2026-03-23T14:04:21Z</time></trkpt><trkpt lat="42.58268268278145" lon="2.616883593016296"><ele>408.79999999999995</ele><time>2026-03-23T14:04:22Z</time></trkpt><trkpt lat="42.58278954514236" lon="2.6168425667794497"><ele>411.20000000000005</ele><time>2026-03-23T14:04:23Z</time></trkpt><trkpt lat="42.58289367383261" lon="2.6168075092099246"><ele>413.6</ele><time>2026-03-23T14:04:24Z</time></trkpt><trkpt lat="42.583003367987985" lon="2.616781089007666"><ele>416.0</ele><time>2026-03-23T14:04:25Z</time></trkpt><trkpt lat="42.58311398115281" lon="2.616779685170741"><ele>416.0</ele><time>2026-03-23T14:04:26Z</time></trkpt><trkpt lat="42.583230326586836" lon="2.616788397615866"><ele>416.0</ele><time>2026-03-23T14:04:27Z</time></trkpt><trkpt lat="42.58333004457358" lon="2.616817313529079"><ele>416.0</ele><time>2026-03-23T14:04:27.999Z</time></trkpt><trkpt lat="42.5834285636953" lon="2.616871465994587"><ele>416.0</ele><time>2026-03-23T14:04:28.999Z</time></trkpt><trkpt lat="42.5835232964152" lon="2.6168932917571297"><ele>416.0</ele><time>2026-03-23T14:04:29.999Z</time></trkpt><trkpt lat="42.58361137595018" lon="2.6168830666901006"><ele>415.99999999999994</ele><time>2026-03-23T14:04:30.999Z</time></trkpt><trkpt lat="42.583678012801016" lon="2.616860587353179"><ele>416.0</ele><time>2026-03-23T14:04:31.999Z</time></trkpt><trkpt lat="42.58375597961595" lon="2.6168438437388724"><ele>416.0</ele><time>2026-03-23T14:04:32.999Z</time></trkpt><trkpt lat="42.58382883695486" lon="2.61685879319924"><ele>416.0</ele><time>2026-03-23T14:04:33.999Z</time></trkpt><trkpt lat="42.583897747659826" lon="2.6169172888025143"><ele>415.99999999999994</ele><time>2026-03-23T14:04:34.999Z</time></trkpt><trkpt lat="42.58394512166519" lon="2.617009439443277"><ele>416.0</ele><time>2026-03-23T14:04:35.999Z</time></trkpt><trkpt lat="42.58393738064268" lon="2.6171359827758427"><ele>415.66666666666663</ele><time>2026-03-23T14:04:36.999Z</time></trkpt><trkpt lat="42.58393859232591" lon="2.617255809438614"><ele>415.3333333333333</ele><time>2026-03-23T14:04:37.999Z</time></trkpt><trkpt lat="42.58394140070899" lon="2.617385875454314"><ele>415.0</ele><time>2026-03-23T14:04:38.999Z</time></trkpt><trkpt lat="42.58393947606492" lon="2.6175040868789377"><ele>414.66666666666663</ele><time>2026-03-23T14:04:39.999Z</time></trkpt><trkpt lat="42.58394650995026" lon="2.617603442451563"><ele>414.3333333333333</ele><time>2026-03-23T14:04:40.999Z</time></trkpt><trkpt lat="42.58395877989558" lon="2.6176928593429474"><ele>414.0</ele><time>2026-03-23T14:04:41.999Z</time></trkpt><trkpt lat="42.58399166237416" lon="2.6177831731737187"><ele>411.2</ele><time>2026-03-23T14:04:42.999Z</time></trkpt><trkpt lat="42.584041255084266" lon="2.6178683659203985"><ele>408.4</ele><time>2026-03-23T14:04:43.999Z</time></trkpt><trkpt lat="42.58410390238618" lon="2.617952945289588"><ele>405.6</ele><time>2026-03-23T14:04:44.999Z</time></trkpt><trkpt lat="42.58418117786262" lon="2.6180309941077815"><ele>402.8</ele><time>2026-03-23T14:04:45.999Z</time></trkpt><trkpt lat="42.584261317975795" lon="2.6181131749332165"><ele>400.0</ele><time>2026-03-23T14:04:46.999Z</time></trkpt><trkpt lat="42.5843317593034" lon="2.618192578564306"><ele>400.00000000000006</ele><time>2026-03-23T14:04:47.999Z</time></trkpt><trkpt lat="42.584391100179495" lon="2.6182657868294896"><ele>400.0</ele><time>2026-03-23T14:04:48.999Z</time></trkpt><trkpt lat="42.58444121644874" lon="2.6183278603866804"><ele>400.0</ele><time>2026-03-23T14:04:49.999Z</time></trkpt><trkpt lat="42.58453892262646" lon="2.61842047528687"><ele>400.0</ele><time>2026-03-23T14:04:51.999Z</time></trkpt><trkpt lat="42.584596516968226" lon="2.61846774532099"><ele>400.00000000000006</ele><time>2026-03-23T14:04:52.999Z</time></trkpt><trkpt lat="42.58468708155526" lon="2.61844026174038"><ele>400.0</ele><time>2026-03-23T14:04:53.999Z</time></trkpt><trkpt lat="42.58477496785994" lon="2.61841100924707"><ele>401.33333333333337</ele><time>2026-03-23T14:04:54.999Z</time></trkpt><trkpt lat="42.58484762626507" lon="2.6183900929463264"><ele>402.6666666666667</ele><time>2026-03-23T14:04:55.999Z</time></trkpt><trkpt lat="42.58492108193091" lon="2.618416882247226"><ele>404.0</ele><time>2026-03-23T14:04:56.999Z</time></trkpt><trkpt lat="42.584983727695196" lon="2.618487018681447"><ele>405.33333333333337</ele><time>2026-03-23T14:04:57.999Z</time></trkpt><trkpt lat="42.58503560098942" lon="2.6185740100093575"><ele>406.6666666666667</ele><time>2026-03-23T14:04:58.999Z</time></trkpt><trkpt lat="42.58509295265964" lon="2.618620569059605"><ele>408.0</ele><time>2026-03-23T14:04:59.999Z</time></trkpt><trkpt lat="42.58516541610138" lon="2.618638979250603"><ele>408.0</ele><time>2026-03-23T14:05:00.999Z</time></trkpt><trkpt lat="42.58524302105093" lon="2.6186247436484353"><ele>408.0</ele><time>2026-03-23T14:05:01.999Z</time></trkpt><trkpt lat="42.58532029103338" lon="2.6185758536942814"><ele>408.0</ele><time>2026-03-23T14:05:02.999Z</time></trkpt><trkpt lat="42.585413039723946" lon="2.618497517372902"><ele>408.0</ele><time>2026-03-23T14:05:03.999Z</time></trkpt><trkpt lat="42.58550745120555" lon="2.618409546484448"><ele>408.0</ele><time>2026-03-23T14:05:04.999Z</time></trkpt><trkpt lat="42.58561485718383" lon="2.6183158331135794"><ele>406.66666666666663</ele><time>2026-03-23T14:05:05.999Z</time></trkpt><trkpt lat="42.58574451967455" lon="2.618235247736331"><ele>405.3333333333333</ele><time>2026-03-23T14:05:06.999Z</time></trkpt><trkpt lat="42.585885297338734" lon="2.618161924751535"><ele>404.0</ele><time>2026-03-23T14:05:07.999Z</time></trkpt><trkpt lat="42.58604018662679" lon="2.6180940661588825"><ele>401.0</ele><time>2026-03-23T14:05:08.999Z</time></trkpt><trkpt lat="42.58619634237354" lon="2.618026971965099"><ele>398.0</ele><time>2026-03-23T14:05:09.999Z</time></trkpt><trkpt lat="42.58635810156859" lon="2.617960022108669"><ele>395.0</ele><time>2026-03-23T14:05:10.999Z</time></trkpt><trkpt lat="42.58651517505058" lon="2.617906249612699"><ele>395.0</ele><time>2026-03-23T14:05:11.999Z</time></trkpt><trkpt lat="42.586674872197946" lon="2.6178712497681476"><ele>395.0</ele><time>2026-03-23T14:05:12.999Z</time></trkpt><trkpt lat="42.58682900777093" lon="2.6178310827432267"><ele>395.0</ele><time>2026-03-23T14:05:13.998Z</time></trkpt><trkpt lat="42.58696947531887" lon="2.617773909723002"><ele>397.75</ele><time>2026-03-23T14:05:14.998Z</time></trkpt><trkpt lat="42.5871008184367" lon="2.6177161741889265"><ele>400.5</ele><time>2026-03-23T14:05:15.998Z</time></trkpt><trkpt lat="42.587226329242476" lon="2.617673959237426"><ele>403.25</ele><time>2026-03-23T14:05:16.998Z</time></trkpt><trkpt lat="42.58733578596937" lon="2.6176560932519366"><ele>406.0</ele><time>2026-03-23T14:05:17.998Z</time></trkpt><trkpt lat="42.58743804724409" lon="2.617660417125825"><ele>406.0</ele><time>2026-03-23T14:05:18.998Z</time></trkpt><trkpt lat="42.58753697629455" lon="2.6176686394038398"><ele>406.0</ele><time>2026-03-23T14:05:19.998Z</time></trkpt><trkpt lat="42.58763688998161" lon="2.617676378716513"><ele>406.0</ele><time>2026-03-23T14:05:20.998Z</time></trkpt><trkpt lat="42.587732573054666" lon="2.617656868676103"><ele>406.0</ele><time>2026-03-23T14:05:21.998Z</time></trkpt><trkpt lat="42.58782064827294" lon="2.6176022943127775"><ele>406.0</ele><time>2026-03-23T14:05:22.998Z</time></trkpt><trkpt lat="42.58790532605038" lon="2.6175197459216095"><ele>404.75</ele><time>2026-03-23T14:05:23.998Z</time></trkpt><trkpt lat="42.58799113801781" lon="2.617391758210584"><ele>403.5</ele><time>2026-03-23T14:05:24.998Z</time></trkpt><trkpt lat="42.58805769723095" lon="2.617260966776323"><ele>402.25</ele><time>2026-03-23T14:05:25.998Z</time></trkpt><trkpt lat="42.58811772365784" lon="2.6171206656225623"><ele>401.0</ele><time>2026-03-23T14:05:26.998Z</time></trkpt><trkpt lat="42.58816889983064" lon="2.616961506987665"><ele>401.0</ele><time>2026-03-23T14:05:27.998Z</time></trkpt><trkpt lat="42.588206245279274" lon="2.616794558143649"><ele>401.0</ele><time>2026-03-23T14:05:28.998Z</time></trkpt><trkpt lat="42.58823927198896" lon="2.616621275112903"><ele>401.0</ele><time>2026-03-23T14:05:29.998Z</time></trkpt><trkpt lat="42.58826974421192" lon="2.616453724320678"><ele>401.0</ele><time>2026-03-23T14:05:30.998Z</time></trkpt><trkpt lat="42.588292926639475" lon="2.616282092056861"><ele>401.0</ele><time>2026-03-23T14:05:31.998Z</time></trkpt><trkpt lat="42.58830507767371" lon="2.616107609421181"><ele>401.0</ele><time>2026-03-23T14:05:32.998Z</time></trkpt><trkpt lat="42.58831535855266" lon="2.6159314673572367"><ele>401.0</ele><time>2026-03-23T14:05:33.998Z</time></trkpt><trkpt lat="42.58832617337471" lon="2.6157555972378996"><ele>401.0</ele><time>2026-03-23T14:05:34.998Z</time></trkpt><trkpt lat="42.58833560204401" lon="2.6155878385878193"><ele>401.0</ele><time>2026-03-23T14:05:35.998Z</time></trkpt><trkpt lat="42.588342818595876" lon="2.6154177057972756"><ele>401.0</ele><time>2026-03-23T14:05:36.998Z</time></trkpt><trkpt lat="42.588354820429956" lon="2.6152564796293625"><ele>401.0</ele><time>2026-03-23T14:05:37.998Z</time></trkpt><trkpt lat="42.58836363456696" lon="2.615102428005286"><ele>401.0</ele><time>2026-03-23T14:05:38.998Z</time></trkpt><trkpt lat="42.58837437766146" lon="2.6149503175434403"><ele>401.0</ele><time>2026-03-23T14:05:39.998Z</time></trkpt><trkpt lat="42.588386916909265" lon="2.614802578355124"><ele>401.0</ele><time>2026-03-23T14:05:40.998Z</time></trkpt><trkpt lat="42.58839709564957" lon="2.6146463373193236"><ele>401.0</ele><time>2026-03-23T14:05:41.998Z</time></trkpt><trkpt lat="42.588404819569185" lon="2.6144918261194032"><ele>401.0</ele><time>2026-03-23T14:05:42.998Z</time></trkpt><trkpt lat="42.588417722568494" lon="2.614343723814069"><ele>401.0</ele><time>2026-03-23T14:05:43.998Z</time></trkpt><trkpt lat="42.58842636540755" lon="2.6141932831219807"><ele>401.4</ele><time>2026-03-23T14:05:44.998Z</time></trkpt><trkpt lat="42.58843190218403" lon="2.61405773953784"><ele>401.8</ele><time>2026-03-23T14:05:45.998Z</time></trkpt><trkpt lat="42.588438337540545" lon="2.61392393571616"><ele>402.2</ele><time>2026-03-23T14:05:46.998Z</time></trkpt><trkpt lat="42.58845580922852" lon="2.6137806480604766"><ele>402.59999999999997</ele><time>2026-03-23T14:05:47.998Z</time></trkpt><trkpt lat="42.588491458122135" lon="2.613636100785424"><ele>403.0</ele><time>2026-03-23T14:05:48.998Z</time></trkpt><trkpt lat="42.588529343562115" lon="2.613520046843165"><ele>402.50000000000006</ele><time>2026-03-23T14:05:49.998Z</time></trkpt><trkpt lat="42.588574020549245" lon="2.6134257152755436"><ele>402.0</ele><time>2026-03-23T14:05:50.998Z</time></trkpt><trkpt lat="42.58862389152227" lon="2.613347064126866"><ele>401.5</ele><time>2026-03-23T14:05:51.998Z</time></trkpt><trkpt lat="42.58868597418836" lon="2.613288743902355"><ele>401.0</ele><time>2026-03-23T14:05:52.998Z</time></trkpt><trkpt lat="42.58876240826686" lon="2.613249238232481"><ele>400.50000000000006</ele><time>2026-03-23T14:05:53.998Z</time></trkpt><trkpt lat="42.588855215958674" lon="2.613241128187776"><ele>400.0</ele><time>2026-03-23T14:05:54.998Z</time></trkpt><trkpt lat="42.58896686802021" lon="2.6132425047033063"><ele>400.0</ele><time>2026-03-23T14:05:55.998Z</time></trkpt><trkpt lat="42.589075495179245" lon="2.6132539135881583"><ele>400.0</ele><time>2026-03-23T14:05:57Z</time></trkpt><trkpt lat="42.589173677303755" lon="2.613277996533898"><ele>400.0</ele><time>2026-03-23T14:05:58Z</time></trkpt><trkpt lat="42.58926274612583" lon="2.6132973046465313"><ele>400.0</ele><time>2026-03-23T14:05:59Z</time></trkpt><trkpt lat="42.589341743870676" lon="2.6133622921476554"><ele>400.0</ele><time>2026-03-23T14:06:00Z</time></trkpt><trkpt lat="42.589411156136784" lon="2.6134620415029555"><ele>400.00000000000006</ele><time>2026-03-23T14:06:01Z</time></trkpt><trkpt lat="42.5894721203311" lon="2.613558318888854"><ele>400.0</ele><time>2026-03-23T14:06:02Z</time></trkpt><trkpt lat="42.58953176461344" lon="2.61362817121183"><ele>400.0</ele><time>2026-03-23T14:06:03Z</time></trkpt><trkpt lat="42.5895975402657" lon="2.613676303419541"><ele>400.0</ele><time>2026-03-23T14:06:04Z</time></trkpt><trkpt lat="42.58966652810484" lon="2.613696760059499"><ele>400.00000000000006</ele><time>2026-03-23T14:06:05Z</time></trkpt><trkpt lat="42.58974723144169" lon="2.613693795929878"><ele>400.0</ele><time>2026-03-23T14:06:06Z</time></trkpt><trkpt lat="42.58981841698123" lon="2.613644913873371"><ele>397.6</ele><time>2026-03-23T14:06:07Z</time></trkpt><trkpt lat="42.58987809563629" lon="2.6135589907494574"><ele>395.2</ele><time>2026-03-23T14:06:08Z</time></trkpt><trkpt lat="42.58992588252828" lon="2.613439121543497"><ele>392.79999999999995</ele><time>2026-03-23T14:06:09Z</time></trkpt><trkpt lat="42.589947294029955" lon="2.613297006026596"><ele>390.4</ele><time>2026-03-23T14:06:10Z</time></trkpt><trkpt lat="42.589952854059376" lon="2.6131351509112553"><ele>388.0</ele><time>2026-03-23T14:06:11Z</time></trkpt><trkpt lat="42.5899620493744" lon="2.6129623084825626"><ele>389.2</ele><time>2026-03-23T14:06:12Z</time></trkpt><trkpt lat="42.58996100908545" lon="2.6127864994391654"><ele>390.4</ele><time>2026-03-23T14:06:13Z</time></trkpt><trkpt lat="42.589942355324936" lon="2.6126240898242887"><ele>391.59999999999997</ele><time>2026-03-23T14:06:14Z</time></trkpt><trkpt lat="42.589936861968866" lon="2.612482553340017"><ele>392.79999999999995</ele><time>2026-03-23T14:06:15Z</time></trkpt><trkpt lat="42.58994710330998" lon="2.612378634847436"><ele>394.0</ele><time>2026-03-23T14:06:16Z</time></trkpt><trkpt lat="42.58994410326261" lon="2.612281108382113"><ele>394.00000000000006</ele><time>2026-03-23T14:06:17Z</time></trkpt><trkpt lat="42.589991325963425" lon="2.612121386988136"><ele>394.0</ele><time>2026-03-23T14:06:19Z</time></trkpt><trkpt lat="42.59005166667877" lon="2.6120652049827413"><ele>394.0</ele><time>2026-03-23T14:06:20Z</time></trkpt><trkpt lat="42.59011739518195" lon="2.6120037301702266"><ele>394.0</ele><time>2026-03-23T14:06:21Z</time></trkpt><trkpt lat="42.590186182026784" lon="2.611968556065429"><ele>394.00000000000006</ele><time>2026-03-23T14:06:22Z</time></trkpt><trkpt lat="42.59025570656114" lon="2.6119621957146015"><ele>394.0</ele><time>2026-03-23T14:06:23Z</time></trkpt><trkpt lat="42.59033784409655" lon="2.6119590386736427"><ele>392.79999999999995</ele><time>2026-03-23T14:06:24Z</time></trkpt><trkpt lat="42.590399818919934" lon="2.6120400745146077"><ele>391.59999999999997</ele><time>2026-03-23T14:06:25Z</time></trkpt><trkpt lat="42.59047075773519" lon="2.61209959038909"><ele>390.4</ele><time>2026-03-23T14:06:26Z</time></trkpt><trkpt lat="42.590539647039314" lon="2.612163083780222"><ele>389.2</ele><time>2026-03-23T14:06:27Z</time></trkpt><trkpt lat="42.59063027052182" lon="2.6122050067518603"><ele>388.0</ele><time>2026-03-23T14:06:28Z</time></trkpt><trkpt lat="42.59073911907667" lon="2.612223105753902"><ele>388.0</ele><time>2026-03-23T14:06:29Z</time></trkpt><trkpt lat="42.59085433664106" lon="2.6122208895190804"><ele>388.0</ele><time>2026-03-23T14:06:30Z</time></trkpt><trkpt lat="42.59096527183775" lon="2.6122600497470208"><ele>388.0</ele><time>2026-03-23T14:06:31Z</time></trkpt><trkpt lat="42.59104906880236" lon="2.61230244085001"><ele>388.0</ele><time>2026-03-23T14:06:32Z</time></trkpt><trkpt lat="42.59113759582445" lon="2.612362543870519"><ele>388.0</ele><time>2026-03-23T14:06:33Z</time></trkpt><trkpt lat="42.59123815678002" lon="2.612378166506585"><ele>393.4</ele><time>2026-03-23T14:06:33.999Z</time></trkpt><trkpt lat="42.59133083407561" lon="2.6124076751995817"><ele>398.79999999999995</ele><time>2026-03-23T14:06:34.999Z</time></trkpt><trkpt lat="42.59142127679258" lon="2.612437907213434"><ele>404.2</ele><time>2026-03-23T14:06:35.999Z</time></trkpt><trkpt lat="42.59148462330772" lon="2.612544187270481"><ele>409.6</ele><time>2026-03-23T14:06:36.999Z</time></trkpt><trkpt lat="42.59157288265597" lon="2.612657789927487"><ele>415.0</ele><time>2026-03-23T14:06:37.999Z</time></trkpt><trkpt lat="42.591666811934395" lon="2.612772211081528"><ele>415.75</ele><time>2026-03-23T14:06:38.999Z</time></trkpt><trkpt lat="42.59176431028611" lon="2.6128914031062074"><ele>416.5</ele><time>2026-03-23T14:06:39.999Z</time></trkpt><trkpt lat="42.591850025750496" lon="2.612997706679445"><ele>417.25</ele><time>2026-03-23T14:06:40.999Z</time></trkpt><trkpt lat="42.59192953000732" lon="2.613096307270548"><ele>418.0</ele><time>2026-03-23T14:06:41.999Z</time></trkpt><trkpt lat="42.59201571687213" lon="2.6131924533173927"><ele>418.0</ele><time>2026-03-23T14:06:42.999Z</time></trkpt><trkpt lat="42.59209308710207" lon="2.613298465199897"><ele>418.0</ele><time>2026-03-23T14:06:43.999Z</time></trkpt><trkpt lat="42.59215420776898" lon="2.613435811214787"><ele>418.0</ele><time>2026-03-23T14:06:44.999Z</time></trkpt><trkpt lat="42.5922113227296" lon="2.613581727593108"><ele>418.0</ele><time>2026-03-23T14:06:45.999Z</time></trkpt><trkpt lat="42.592260459675444" lon="2.613729127350984"><ele>414.0</ele><time>2026-03-23T14:06:46.999Z</time></trkpt><trkpt lat="42.59230508181043" lon="2.613861956050416"><ele>410.0</ele><time>2026-03-23T14:06:47.999Z</time></trkpt><trkpt lat="42.592346765260615" lon="2.613997397159229"><ele>406.0</ele><time>2026-03-23T14:06:48.999Z</time></trkpt><trkpt lat="42.5923760513632" lon="2.6141053245309234"><ele>402.0</ele><time>2026-03-23T14:06:49.999Z</time></trkpt><trkpt lat="42.592422623636494" lon="2.6142130996645165"><ele>398.0</ele><time>2026-03-23T14:06:50.999Z</time></trkpt><trkpt lat="42.59248459345767" lon="2.6143194109091077"><ele>398.0</ele><time>2026-03-23T14:06:51.999Z</time></trkpt><trkpt lat="42.592559381994214" lon="2.614418301243884"><ele>398.0</ele><time>2026-03-23T14:06:52.999Z</time></trkpt><trkpt lat="42.59265089052583" lon="2.6145068153514397"><ele>398.0</ele><time>2026-03-23T14:06:53.999Z</time></trkpt><trkpt lat="42.59275309839558" lon="2.61459069031872"><ele>398.0</ele><time>2026-03-23T14:06:54.999Z</time></trkpt><trkpt lat="42.59286721206951" lon="2.6146701408113975"><ele>397.5</ele><time>2026-03-23T14:06:55.999Z</time></trkpt><trkpt lat="42.592985552224114" lon="2.6147507059931647"><ele>397.0</ele><time>2026-03-23T14:06:56.999Z</time></trkpt><trkpt lat="42.59309298707093" lon="2.61482544993017"><ele>396.5</ele><time>2026-03-23T14:06:57.999Z</time></trkpt><trkpt lat="42.59318521343294" lon="2.614899518917765"><ele>396.0</ele><time>2026-03-23T14:06:58.999Z</time></trkpt><trkpt lat="42.5932648686416" lon="2.6149717385636797"><ele>396.0</ele><time>2026-03-23T14:06:59.999Z</time></trkpt><trkpt lat="42.59334578836685" lon="2.6150574583740114"><ele>396.0</ele><time>2026-03-23T14:07:00.999Z</time></trkpt><trkpt lat="42.59340986440861" lon="2.6151516237959838"><ele>396.0</ele><time>2026-03-23T14:07:01.999Z</time></trkpt><trkpt lat="42.59345237074073" lon="2.615247299179515"><ele>396.0</ele><time>2026-03-23T14:07:02.999Z</time></trkpt><trkpt lat="42.59348752184727" lon="2.615328699880304"><ele>396.0</ele><time>2026-03-23T14:07:03.999Z</time></trkpt><trkpt lat="42.59352493645253" lon="2.6153980064336197"><ele>396.0</ele><time>2026-03-23T14:07:04.999Z</time></trkpt><trkpt lat="42.593579787981824" lon="2.6154548084409512"><ele>394.6666666666667</ele><time>2026-03-23T14:07:05.999Z</time></trkpt><trkpt lat="42.593647812462464" lon="2.61549263203895"><ele>393.33333333333337</ele><time>2026-03-23T14:07:06.999Z</time></trkpt><trkpt lat="42.5937315934479" lon="2.6155034294688275"><ele>392.0</ele><time>2026-03-23T14:07:07.999Z</time></trkpt><trkpt lat="42.5938196265775" lon="2.61547612444098"><ele>390.6666666666667</ele><time>2026-03-23T14:07:08.999Z</time></trkpt><trkpt lat="42.59390331378405" lon="2.6154414606370713"><ele>389.33333333333337</ele><time>2026-03-23T14:07:09.999Z</time></trkpt><trkpt lat="42.59397756531736" lon="2.615425267216453"><ele>388.0</ele><time>2026-03-23T14:07:10.999Z</time></trkpt><trkpt lat="42.594050959531764" lon="2.615418497604143"><ele>388.00000000000006</ele><time>2026-03-23T14:07:11.999Z</time></trkpt><trkpt lat="42.5941105981969" lon="2.615496488541658"><ele>388.0</ele><time>2026-03-23T14:07:12.999Z</time></trkpt><trkpt lat="42.594174634896795" lon="2.6155615099656657"><ele>388.0</ele><time>2026-03-23T14:07:13.999Z</time></trkpt><trkpt lat="42.59419244775116" lon="2.615684507950609"><ele>388.0</ele><time>2026-03-23T14:07:14.999Z</time></trkpt><trkpt lat="42.5942451220624" lon="2.615778194257898"><ele>388.00000000000006</ele><time>2026-03-23T14:07:15.999Z</time></trkpt><trkpt lat="42.59431533188795" lon="2.6158846916153267"><ele>388.0</ele><time>2026-03-23T14:07:16.999Z</time></trkpt><trkpt lat="42.594412065769525" lon="2.615981569613784"><ele>388.0</ele><time>2026-03-23T14:07:17.999Z</time></trkpt><trkpt lat="42.594494723406555" lon="2.61606123128669"><ele>388.0</ele><time>2026-03-23T14:07:18.998Z</time></trkpt><trkpt lat="42.594579680185255" lon="2.6161458574437813"><ele>388.0</ele><time>2026-03-23T14:07:19.998Z</time></trkpt><trkpt lat="42.594662043655084" lon="2.61622301208486"><ele>388.0</ele><time>2026-03-23T14:07:20.998Z</time></trkpt><trkpt lat="42.59472981363903" lon="2.6163038281754156"><ele>388.0</ele><time>2026-03-23T14:07:21.998Z</time></trkpt><trkpt lat="42.5947932914853" lon="2.6163874558211897"><ele>387.00000000000006</ele><time>2026-03-23T14:07:22.998Z</time></trkpt><trkpt lat="42.59484200620979" lon="2.616468464605367"><ele>386.0</ele><time>2026-03-23T14:07:23.998Z</time></trkpt><trkpt lat="42.59487603870438" lon="2.6165441916578245"><ele>385.0</ele><time>2026-03-23T14:07:24.998Z</time></trkpt><trkpt lat="42.59498384283342" lon="2.6166057468229535"><ele>384.0</ele><time>2026-03-23T14:07:26.998Z</time></trkpt><trkpt lat="42.595049445820685" lon="2.6165632584904093"><ele>383.0</ele><time>2026-03-23T14:07:27.998Z</time></trkpt><trkpt lat="42.595115796073344" lon="2.616465190760221"><ele>382.0</ele><time>2026-03-23T14:07:28.998Z</time></trkpt><trkpt lat="42.595178429666035" lon="2.6163311881327385"><ele>382.0</ele><time>2026-03-23T14:07:29.998Z</time></trkpt><trkpt lat="42.59524170525501" lon="2.616182443007667"><ele>382.0</ele><time>2026-03-23T14:07:30.998Z</time></trkpt><trkpt lat="42.59532827140729" lon="2.6160513556916305"><ele>382.0</ele><time>2026-03-23T14:07:31.998Z</time></trkpt><trkpt lat="42.59542744060258" lon="2.6159310700543927"><ele>382.0</ele><time>2026-03-23T14:07:32.998Z</time></trkpt><trkpt lat="42.595532535520874" lon="2.6158259671167423"><ele>381.75</ele><time>2026-03-23T14:07:33.998Z</time></trkpt><trkpt lat="42.59564392906252" lon="2.6157634973355934"><ele>381.5</ele><time>2026-03-23T14:07:34.998Z</time></trkpt><trkpt lat="42.5957561677011" lon="2.615694141758577"><ele>381.25</ele><time>2026-03-23T14:07:35.998Z</time></trkpt><trkpt lat="42.595854077190374" lon="2.6156072016551057"><ele>381.0</ele><time>2026-03-23T14:07:36.998Z</time></trkpt><trkpt lat="42.59595480472188" lon="2.6155435380293635"><ele>381.0</ele><time>2026-03-23T14:07:37.998Z</time></trkpt><trkpt lat="42.59605009525371" lon="2.615501733769131"><ele>381.0</ele><time>2026-03-23T14:07:38.998Z</time></trkpt><trkpt lat="42.59614806712148" lon="2.615527604103764"><ele>381.0</ele><time>2026-03-23T14:07:39.998Z</time></trkpt><trkpt lat="42.596254521177976" lon="2.615541434238928"><ele>381.0</ele><time>2026-03-23T14:07:40.998Z</time></trkpt><trkpt lat="42.59637265056465" lon="2.6155697234079023"><ele>381.0</ele><time>2026-03-23T14:07:41.998Z</time></trkpt><trkpt lat="42.596485694157586" lon="2.6156180306614125"><ele>380.0</ele><time>2026-03-23T14:07:42.998Z</time></trkpt><trkpt lat="42.596587568250044" lon="2.6156713625581416"><ele>379.0</ele><time>2026-03-23T14:07:43.998Z</time></trkpt><trkpt lat="42.59668251339517" lon="2.615713554615994"><ele>378.0</ele><time>2026-03-23T14:07:44.998Z</time></trkpt><trkpt lat="42.5967731325873" lon="2.615757295132751"><ele>377.0</ele><time>2026-03-23T14:07:45.998Z</time></trkpt><trkpt lat="42.59685247087545" lon="2.615810642042256"><ele>376.0</ele><time>2026-03-23T14:07:46.998Z</time></trkpt><trkpt lat="42.59693406478909" lon="2.615844821964665"><ele>373.75</ele><time>2026-03-23T14:07:47.998Z</time></trkpt><trkpt lat="42.59702703608263" lon="2.6158376736577407"><ele>371.5</ele><time>2026-03-23T14:07:48.998Z</time></trkpt><trkpt lat="42.59712718643487" lon="2.6157837705025107"><ele>369.25</ele><time>2026-03-23T14:07:49.998Z</time></trkpt><trkpt lat="42.59723889449066" lon="2.615693247669544"><ele>367.0</ele><time>2026-03-23T14:07:50.998Z</time></trkpt><trkpt lat="42.597339996173496" lon="2.615600777035793"><ele>367.0</ele><time>2026-03-23T14:07:51.998Z</time></trkpt><trkpt lat="42.597444984802195" lon="2.615517459852598"><ele>367.0</ele><time>2026-03-23T14:07:52.998Z</time></trkpt><trkpt lat="42.59754814957393" lon="2.6154394511397814"><ele>367.0</ele><time>2026-03-23T14:07:53.998Z</time></trkpt><trkpt lat="42.59764612378702" lon="2.6153689729747174"><ele>367.0</ele><time>2026-03-23T14:07:54.998Z</time></trkpt><trkpt lat="42.59774317534916" lon="2.6152932207092983"><ele>368.20000000000005</ele><time>2026-03-23T14:07:55.998Z</time></trkpt><trkpt lat="42.59782923065362" lon="2.615221925423814"><ele>369.4</ele><time>2026-03-23T14:07:56.998Z</time></trkpt><trkpt lat="42.59790968772976" lon="2.6151621528349374"><ele>370.6</ele><time>2026-03-23T14:07:57.998Z</time></trkpt><trkpt lat="42.598006811396075" lon="2.6151392700288203"><ele>371.79999999999995</ele><time>2026-03-23T14:07:58.998Z</time></trkpt><trkpt lat="42.59811434819822" lon="2.615128501530639"><ele>373.0</ele><time>2026-03-23T14:07:59.998Z</time></trkpt><trkpt lat="42.598222842607846" lon="2.615110809720237"><ele>373.0</ele><time>2026-03-23T14:08:00.998Z</time></trkpt><trkpt lat="42.59832102700933" lon="2.6150621431772114"><ele>373.0</ele><time>2026-03-23T14:08:01.998Z</time></trkpt><trkpt lat="42.59840943839692" lon="2.615023138544199"><ele>373.0</ele><time>2026-03-23T14:08:03Z</time></trkpt><trkpt lat="42.59849860869003" lon="2.6149995874286867"><ele>373.0</ele><time>2026-03-23T14:08:04Z</time></trkpt><trkpt lat="42.59857812030165" lon="2.614969331939692"><ele>373.0</ele><time>2026-03-23T14:08:05Z</time></trkpt><trkpt lat="42.598648962495986" lon="2.614918233206005"><ele>372.8333333333333</ele><time>2026-03-23T14:08:06Z</time></trkpt><trkpt lat="42.598698083432225" lon="2.614842514071913"><ele>372.66666666666663</ele><time>2026-03-23T14:08:07Z</time></trkpt><trkpt lat="42.59872864169533" lon="2.6147492710991105"><ele>372.5</ele><time>2026-03-23T14:08:08Z</time></trkpt><trkpt lat="42.59874180561248" lon="2.6146395948681964"><ele>372.3333333333333</ele><time>2026-03-23T14:08:09Z</time></trkpt><trkpt lat="42.598730535744444" lon="2.6145122659946627"><ele>372.1666666666667</ele><time>2026-03-23T14:08:10Z</time></trkpt><trkpt lat="42.59870762712872" lon="2.6143737369983246"><ele>372.0</ele><time>2026-03-23T14:08:11Z</time></trkpt><trkpt lat="42.59872911508656" lon="2.6142271423602614"><ele>372.0</ele><time>2026-03-23T14:08:12Z</time></trkpt><trkpt lat="42.59875148415619" lon="2.6140633716543706"><ele>372.0</ele><time>2026-03-23T14:08:13Z</time></trkpt><trkpt lat="42.59876057439089" lon="2.6139064461117036"><ele>372.0</ele><time>2026-03-23T14:08:14Z</time></trkpt><trkpt lat="42.59879892234343" lon="2.6137668802511125"><ele>372.0</ele><time>2026-03-23T14:08:15Z</time></trkpt><trkpt lat="42.5988112317614" lon="2.6136406678565263"><ele>372.0</ele><time>2026-03-23T14:08:16Z</time></trkpt><trkpt lat="42.59884136721507" lon="2.613526262440485"><ele>373.3333333333333</ele><time>2026-03-23T14:08:17Z</time></trkpt><trkpt lat="42.59886649515176" lon="2.6134188425388274"><ele>374.6666666666667</ele><time>2026-03-23T14:08:18Z</time></trkpt><trkpt lat="42.59889075261692" lon="2.613338823022832"><ele>376.0</ele><time>2026-03-23T14:08:19Z</time></trkpt><trkpt lat="42.598980970127286" lon="2.6132394291946763"><ele>377.33333333333337</ele><time>2026-03-23T14:08:21Z</time></trkpt><trkpt lat="42.59905121189397" lon="2.613266701018562"><ele>378.6666666666667</ele><time>2026-03-23T14:08:22Z</time></trkpt><trkpt lat="42.59911742010095" lon="2.6132664404353934"><ele>380.0</ele><time>2026-03-23T14:08:23Z</time></trkpt><trkpt lat="42.59921404608609" lon="2.6133525865577574"><ele>380.0</ele><time>2026-03-23T14:08:25Z</time></trkpt><trkpt lat="42.59922598380676" lon="2.6134503642190534"><ele>380.0</ele><time>2026-03-23T14:08:26Z</time></trkpt><trkpt lat="42.599230919603635" lon="2.6135742181090404"><ele>380.0</ele><time>2026-03-23T14:08:27Z</time></trkpt><trkpt lat="42.59923431620432" lon="2.6137234112521757"><ele>380.0</ele><time>2026-03-23T14:08:28Z</time></trkpt><trkpt lat="42.599244932796836" lon="2.6138783175912144"><ele>380.0</ele><time>2026-03-23T14:08:29Z</time></trkpt><trkpt lat="42.59926584708867" lon="2.6140322747434146"><ele>378.4</ele><time>2026-03-23T14:08:30Z</time></trkpt><trkpt lat="42.59930008837843" lon="2.614179433237591"><ele>376.8</ele><time>2026-03-23T14:08:31Z</time></trkpt><trkpt lat="42.59933515631963" lon="2.614326671499107"><ele>375.20000000000005</ele><time>2026-03-23T14:08:32Z</time></trkpt><trkpt lat="42.599365877351396" lon="2.614437116044609"><ele>373.6</ele><time>2026-03-23T14:08:33Z</time></trkpt><trkpt lat="42.59939423391203" lon="2.614543137201907"><ele>372.0</ele><time>2026-03-23T14:08:34Z</time></trkpt><trkpt lat="42.5994263048994" lon="2.6146416663591063"><ele>370.1666666666667</ele><time>2026-03-23T14:08:35Z</time></trkpt><trkpt lat="42.599467310574965" lon="2.6147231965340767"><ele>368.3333333333333</ele><time>2026-03-23T14:08:36Z</time></trkpt><trkpt lat="42.599527464119774" lon="2.6147929135452626"><ele>366.5</ele><time>2026-03-23T14:08:37Z</time></trkpt><trkpt lat="42.59960789031456" lon="2.6148365004970158"><ele>364.66666666666663</ele><time>2026-03-23T14:08:38Z</time></trkpt><trkpt lat="42.59970578783483" lon="2.614856745343622"><ele>362.8333333333333</ele><time>2026-03-23T14:08:39Z</time></trkpt><trkpt lat="42.59981228194858" lon="2.6148555828497844"><ele>361.0</ele><time>2026-03-23T14:08:39.999Z</time></trkpt><trkpt lat="42.59991131056758" lon="2.614843585470238"><ele>361.0</ele><time>2026-03-23T14:08:40.999Z</time></trkpt><trkpt lat="42.59999460786514" lon="2.6148024379561434"><ele>361.0</ele><time>2026-03-23T14:08:41.999Z</time></trkpt><trkpt lat="42.60007709320285" lon="2.614729565332635"><ele>361.0</ele><time>2026-03-23T14:08:42.999Z</time></trkpt><trkpt lat="42.60016251779388" lon="2.6146247215111242"><ele>361.0</ele><time>2026-03-23T14:08:43.999Z</time></trkpt><trkpt lat="42.60024332652801" lon="2.614491037736136"><ele>361.0</ele><time>2026-03-23T14:08:44.999Z</time></trkpt><trkpt lat="42.60032494382135" lon="2.614385927373047"><ele>360.4</ele><time>2026-03-23T14:08:45.999Z</time></trkpt><trkpt lat="42.600415973620684" lon="2.614272689539566"><ele>359.8</ele><time>2026-03-23T14:08:46.999Z</time></trkpt><trkpt lat="42.600496003236756" lon="2.6141786666881712"><ele>359.2</ele><time>2026-03-23T14:08:47.999Z</time></trkpt><trkpt lat="42.60056908186666" lon="2.614086931514583"><ele>358.59999999999997</ele><time>2026-03-23T14:08:48.999Z</time></trkpt><trkpt lat="42.60062924749646" lon="2.6139851830322045"><ele>358.0</ele><time>2026-03-23T14:08:49.999Z</time></trkpt><trkpt lat="42.60067839396868" lon="2.61386975940346"><ele>358.0</ele><time>2026-03-23T14:08:50.999Z</time></trkpt><trkpt lat="42.60070336232431" lon="2.613728695703745"><ele>358.0</ele><time>2026-03-23T14:08:51.999Z</time></trkpt><trkpt lat="42.60070749603264" lon="2.6135637159743395"><ele>358.0</ele><time>2026-03-23T14:08:52.999Z</time></trkpt><trkpt lat="42.60071535809332" lon="2.6134062979807275"><ele>358.0</ele><time>2026-03-23T14:08:53.999Z</time></trkpt><trkpt lat="42.60074794274586" lon="2.613237772174644"><ele>360.5</ele><time>2026-03-23T14:08:54.999Z</time></trkpt><trkpt lat="42.6007908790134" lon="2.613075441380791"><ele>363.0</ele><time>2026-03-23T14:08:55.999Z</time></trkpt><trkpt lat="42.60083950258388" lon="2.612913120272489"><ele>365.5</ele><time>2026-03-23T14:08:56.999Z</time></trkpt><trkpt lat="42.60089420481858" lon="2.6127585431662057"><ele>368.0</ele><time>2026-03-23T14:08:57.999Z</time></trkpt><trkpt lat="42.60096569309977" lon="2.612617883651667"><ele>372.0</ele><time>2026-03-23T14:08:58.999Z</time></trkpt><trkpt lat="42.60100032119035" lon="2.6124603128362263"><ele>376.0</ele><time>2026-03-23T14:08:59.999Z</time></trkpt><trkpt lat="42.60103147839459" lon="2.6123052857423525"><ele>380.0</ele><time>2026-03-23T14:09:00.999Z</time></trkpt><trkpt lat="42.60106012834675" lon="2.6121556880379178"><ele>384.0</ele><time>2026-03-23T14:09:01.999Z</time></trkpt><trkpt lat="42.601107969478804" lon="2.6120226857079776"><ele>381.2</ele><time>2026-03-23T14:09:02.999Z</time></trkpt><trkpt lat="42.60114736733045" lon="2.6118943160892325"><ele>378.4</ele><time>2026-03-23T14:09:03.999Z</time></trkpt><trkpt lat="42.60121140611461" lon="2.6117617243769704"><ele>375.6</ele><time>2026-03-23T14:09:04.999Z</time></trkpt><trkpt lat="42.60126083767842" lon="2.6116523294767324"><ele>372.8</ele><time>2026-03-23T14:09:05.999Z</time></trkpt><trkpt lat="42.60131679506834" lon="2.611553548602546"><ele>370.0</ele><time>2026-03-23T14:09:06.999Z</time></trkpt><trkpt lat="42.60134412448749" lon="2.611439845020769"><ele>370.0</ele><time>2026-03-23T14:09:07.999Z</time></trkpt><trkpt lat="42.60132681893384" lon="2.611334651939582"><ele>370.0</ele><time>2026-03-23T14:09:08.999Z</time></trkpt><trkpt lat="42.601357706028466" lon="2.6112115731003365"><ele>370.0</ele><time>2026-03-23T14:09:10.999Z</time></trkpt><trkpt lat="42.601486246911165" lon="2.6111634155551986"><ele>370.0</ele><time>2026-03-23T14:09:12.999Z</time></trkpt><trkpt lat="42.6015590083531" lon="2.6112189449856844"><ele>370.0</ele><time>2026-03-23T14:09:13.999Z</time></trkpt><trkpt lat="42.60164484619604" lon="2.6112483197306764"><ele>370.0</ele><time>2026-03-23T14:09:14.999Z</time></trkpt><trkpt lat="42.60173570690473" lon="2.611298376565137"><ele>370.0</ele><time>2026-03-23T14:09:15.999Z</time></trkpt><trkpt lat="42.60183477345196" lon="2.6113270279461513"><ele>370.0</ele><time>2026-03-23T14:09:16.999Z</time></trkpt><trkpt lat="42.601941346389104" lon="2.611340505341108"><ele>370.0</ele><time>2026-03-23T14:09:17.999Z</time></trkpt><trkpt lat="42.602038109344704" lon="2.611376561780034"><ele>370.0</ele><time>2026-03-23T14:09:18.999Z</time></trkpt><trkpt lat="42.602124297261874" lon="2.6114416597110113"><ele>371.16666666666663</ele><time>2026-03-23T14:09:19.999Z</time></trkpt><trkpt lat="42.60219781023509" lon="2.6115236865069664"><ele>372.3333333333333</ele><time>2026-03-23T14:09:20.999Z</time></trkpt><trkpt lat="42.60227935900897" lon="2.6115791249052136"><ele>373.5</ele><time>2026-03-23T14:09:21.999Z</time></trkpt><trkpt lat="42.60236841080512" lon="2.6116057802892656"><ele>374.6666666666667</ele><time>2026-03-23T14:09:22.999Z</time></trkpt><trkpt lat="42.60245547630261" lon="2.6116257834869794"><ele>375.83333333333337</ele><time>2026-03-23T14:09:23.999Z</time></trkpt><trkpt lat="42.602533780367814" lon="2.611645138103989"><ele>377.0</ele><time>2026-03-23T14:09:24.999Z</time></trkpt><trkpt lat="42.60259589224319" lon="2.6116935612411183"><ele>377.0</ele><time>2026-03-23T14:09:25.998Z</time></trkpt><trkpt lat="42.60265899884074" lon="2.6117619979949978"><ele>377.0</ele><time>2026-03-23T14:09:26.998Z</time></trkpt><trkpt lat="42.602723822797046" lon="2.611834024456992"><ele>377.0</ele><time>2026-03-23T14:09:27.998Z</time></trkpt><trkpt lat="42.60279151603053" lon="2.6119146016449952"><ele>377.0</ele><time>2026-03-23T14:09:28.998Z</time></trkpt><trkpt lat="42.602862008105205" lon="2.612008475261259"><ele>377.0</ele><time>2026-03-23T14:09:29.998Z</time></trkpt><trkpt lat="42.60292678083124" lon="2.612104377419316"><ele>377.0</ele><time>2026-03-23T14:09:30.998Z</time></trkpt><trkpt lat="42.602985943786415" lon="2.6122074243959994"><ele>377.0</ele><time>2026-03-23T14:09:31.998Z</time></trkpt><trkpt lat="42.60303866279633" lon="2.612291244301378"><ele>377.0</ele><time>2026-03-23T14:09:32.998Z</time></trkpt><trkpt lat="42.60310825991956" lon="2.6123815402332657"><ele>377.0</ele><time>2026-03-23T14:09:33.998Z</time></trkpt><trkpt lat="42.60318633067448" lon="2.612464075678008"><ele>377.0</ele><time>2026-03-23T14:09:34.998Z</time></trkpt><trkpt lat="42.60326378929021" lon="2.612539825770494"><ele>377.0</ele><time>2026-03-23T14:09:35.998Z</time></trkpt><trkpt lat="42.603337529770606" lon="2.6126260650990307"><ele>377.0</ele><time>2026-03-23T14:09:36.998Z</time></trkpt><trkpt lat="42.60340678682388" lon="2.6127042395809914"><ele>377.0</ele><time>2026-03-23T14:09:37.998Z</time></trkpt><trkpt lat="42.603472152810006" lon="2.612781475570575"><ele>377.0</ele><time>2026-03-23T14:09:38.998Z</time></trkpt><trkpt lat="42.603534426564636" lon="2.6128562242693456"><ele>377.0</ele><time>2026-03-23T14:09:39.998Z</time></trkpt><trkpt lat="42.603587737845096" lon="2.6129359129987093"><ele>377.0</ele><time>2026-03-23T14:09:40.998Z</time></trkpt><trkpt lat="42.60363779156851" lon="2.6130147088457893"><ele>377.0</ele><time>2026-03-23T14:09:41.998Z</time></trkpt><trkpt lat="42.60367836055071" lon="2.6130871282701476"><ele>372.20000000000005</ele><time>2026-03-23T14:09:42.998Z</time></trkpt><trkpt lat="42.60374373497823" lon="2.613206552753915"><ele>367.4</ele><time>2026-03-23T14:09:44.998Z</time></trkpt><trkpt lat="42.60383549508708" lon="2.6132525443611994"><ele>362.6</ele><time>2026-03-23T14:09:46.998Z</time></trkpt><trkpt lat="42.60395546300792" lon="2.613207484852"><ele>357.79999999999995</ele><time>2026-03-23T14:09:48.998Z</time></trkpt><trkpt lat="42.60400747785316" lon="2.6131376828715385"><ele>353.0</ele><time>2026-03-23T14:09:49.998Z</time></trkpt><trkpt lat="42.60404520807429" lon="2.6130341491117406"><ele>353.0</ele><time>2026-03-23T14:09:50.998Z</time></trkpt><trkpt lat="42.60406376183276" lon="2.612908960001543"><ele>353.0</ele><time>2026-03-23T14:09:51.998Z</time></trkpt><trkpt lat="42.6040776024724" lon="2.6127680620602263"><ele>353.0</ele><time>2026-03-23T14:09:52.998Z</time></trkpt><trkpt lat="42.60410193025673" lon="2.6126287730217004"><ele>353.0</ele><time>2026-03-23T14:09:53.998Z</time></trkpt><trkpt lat="42.60411491789877" lon="2.6124980321012066"><ele>353.0</ele><time>2026-03-23T14:09:54.998Z</time></trkpt><trkpt lat="42.60413169903313" lon="2.612373396681187"><ele>354.83333333333337</ele><time>2026-03-23T14:09:55.998Z</time></trkpt><trkpt lat="42.60415190546919" lon="2.612265181793665"><ele>356.6666666666667</ele><time>2026-03-23T14:09:56.998Z</time></trkpt><trkpt lat="42.604167987974094" lon="2.612165807535757"><ele>358.5</ele><time>2026-03-23T14:09:57.998Z</time></trkpt><trkpt lat="42.60419980359377" lon="2.612084393748945"><ele>360.3333333333333</ele><time>2026-03-23T14:09:58.998Z</time></trkpt><trkpt lat="42.604246019479746" lon="2.6120049126082"><ele>362.16666666666663</ele><time>2026-03-23T14:09:59.998Z</time></trkpt><trkpt lat="42.604304366771785" lon="2.611930098643524"><ele>364.0</ele><time>2026-03-23T14:10:00.998Z</time></trkpt><trkpt lat="42.60438287169548" lon="2.6118585918478536"><ele>362.5</ele><time>2026-03-23T14:10:01.998Z</time></trkpt><trkpt lat="42.604432203795824" lon="2.6117563147982783"><ele>361.0</ele><time>2026-03-23T14:10:02.998Z</time></trkpt><trkpt lat="42.604464004647475" lon="2.611668016923136"><ele>359.5</ele><time>2026-03-23T14:10:03.998Z</time></trkpt><trkpt lat="42.60448270743156" lon="2.6115746998254545"><ele>358.0</ele><time>2026-03-23T14:10:04.998Z</time></trkpt><trkpt lat="42.604597393028904" lon="2.6114884786098402"><ele>356.5</ele><time>2026-03-23T14:10:06.998Z</time></trkpt><trkpt lat="42.60466584779516" lon="2.611495314544833"><ele>355.0</ele><time>2026-03-23T14:10:07.998Z</time></trkpt><trkpt lat="42.6047640061179" lon="2.611480638933896"><ele>355.0</ele><time>2026-03-23T14:10:09Z</time></trkpt><trkpt lat="42.60487387905777" lon="2.6114478196234026"><ele>355.0</ele><time>2026-03-23T14:10:10Z</time></trkpt><trkpt lat="42.604990963922795" lon="2.6113926356217667"><ele>355.0</ele><time>2026-03-23T14:10:11Z</time></trkpt><trkpt lat="42.60510505770859" lon="2.6113277332699067"><ele>355.0</ele><time>2026-03-23T14:10:12Z</time></trkpt><trkpt lat="42.60520459386155" lon="2.6112476563699123"><ele>355.0</ele><time>2026-03-23T14:10:13Z</time></trkpt><trkpt lat="42.605308743852405" lon="2.6112033893587827"><ele>355.0</ele><time>2026-03-23T14:10:14Z</time></trkpt><trkpt lat="42.605404616039124" lon="2.611162790971287"><ele>355.0</ele><time>2026-03-23T14:10:15Z</time></trkpt><trkpt lat="42.60550378068785" lon="2.6111485885323056"><ele>355.0</ele><time>2026-03-23T14:10:16Z</time></trkpt><trkpt lat="42.60560247692125" lon="2.611134516063507"><ele>355.0</ele><time>2026-03-23T14:10:17Z</time></trkpt><trkpt lat="42.6056880026387" lon="2.6111190715710895"><ele>356.2</ele><time>2026-03-23T14:10:18Z</time></trkpt><trkpt lat="42.60576740877483" lon="2.611101679842265"><ele>357.4</ele><time>2026-03-23T14:10:19Z</time></trkpt><trkpt lat="42.60584806500705" lon="2.6110648118954836"><ele>358.6</ele><time>2026-03-23T14:10:20Z</time></trkpt><trkpt lat="42.60592248115964" lon="2.611005896382027"><ele>359.8</ele><time>2026-03-23T14:10:21Z</time></trkpt><trkpt lat="42.60599492776685" lon="2.6109179704759184"><ele>361.0</ele><time>2026-03-23T14:10:22Z</time></trkpt><trkpt lat="42.606064671559956" lon="2.6107978168616337"><ele>361.0</ele><time>2026-03-23T14:10:23Z</time></trkpt><trkpt lat="42.60612514808718" lon="2.6106663427097705"><ele>361.0</ele><time>2026-03-23T14:10:24Z</time></trkpt><trkpt lat="42.60617544253323" lon="2.610550634755552"><ele>361.0</ele><time>2026-03-23T14:10:25Z</time></trkpt><trkpt lat="42.60621885686871" lon="2.6104367704804705"><ele>361.0</ele><time>2026-03-23T14:10:26Z</time></trkpt><trkpt lat="42.6062468701628" lon="2.6103360649056797"><ele>361.0</ele><time>2026-03-23T14:10:27Z</time></trkpt><trkpt lat="42.60625224359628" lon="2.6102193778336042"><ele>361.0</ele><time>2026-03-23T14:10:28Z</time></trkpt><trkpt lat="42.606235894283465" lon="2.6100981162913204"><ele>361.0</ele><time>2026-03-23T14:10:29Z</time></trkpt><trkpt lat="42.60617011804953" lon="2.6099879310392"><ele>361.0</ele><time>2026-03-23T14:10:30Z</time></trkpt><trkpt lat="42.60612610512237" lon="2.609870863664609"><ele>361.0</ele><time>2026-03-23T14:10:31Z</time></trkpt><trkpt lat="42.60606471932738" lon="2.6097820085593777"><ele>361.0</ele><time>2026-03-23T14:10:32Z</time></trkpt><trkpt lat="42.60599772242349" lon="2.609696200215612"><ele>361.0</ele><time>2026-03-23T14:10:33Z</time></trkpt><trkpt lat="42.60594096506707" lon="2.6096190146735085"><ele>361.0</ele><time>2026-03-23T14:10:34Z</time></trkpt><trkpt lat="42.605861879889574" lon="2.609492743809106"><ele>361.0</ele><time>2026-03-23T14:10:36Z</time></trkpt><trkpt lat="42.60581338937497" lon="2.609366207399127"><ele>361.0</ele><time>2026-03-23T14:10:38Z</time></trkpt><trkpt lat="42.60582853770329" lon="2.6092289436590477"><ele>361.0</ele><time>2026-03-23T14:10:40Z</time></trkpt><trkpt lat="42.605916800884344" lon="2.6090910613797185"><ele>360.66666666666663</ele><time>2026-03-23T14:10:42Z</time></trkpt><trkpt lat="42.606004361044384" lon="2.6090687551645293"><ele>360.3333333333333</ele><time>2026-03-23T14:10:43Z</time></trkpt><trkpt lat="42.60609047168242" lon="2.60906671121263"><ele>360.0</ele><time>2026-03-23T14:10:43.999Z</time></trkpt><trkpt lat="42.606174742070465" lon="2.609072889472866"><ele>359.6666666666667</ele><time>2026-03-23T14:10:44.999Z</time></trkpt><trkpt lat="42.60626423098214" lon="2.609082539645133"><ele>359.33333333333337</ele><time>2026-03-23T14:10:45.999Z</time></trkpt><trkpt lat="42.60635388961049" lon="2.609106353583339"><ele>359.0</ele><time>2026-03-23T14:10:46.999Z</time></trkpt><trkpt lat="42.606431610523295" lon="2.609132007637306"><ele>355.79999999999995</ele><time>2026-03-23T14:10:47.999Z</time></trkpt><trkpt lat="42.60650678936104" lon="2.609150968642712"><ele>352.59999999999997</ele><time>2026-03-23T14:10:48.999Z</time></trkpt><trkpt lat="42.606591978869176" lon="2.6091406722996817"><ele>349.4</ele><time>2026-03-23T14:10:49.999Z</time></trkpt><trkpt lat="42.606688008725754" lon="2.609099133983041"><ele>346.2</ele><time>2026-03-23T14:10:50.999Z</time></trkpt><trkpt lat="42.60678718187852" lon="2.6090315184333726"><ele>343.0</ele><time>2026-03-23T14:10:51.999Z</time></trkpt><trkpt lat="42.60688733279796" lon="2.6089358644751464"><ele>343.0</ele><time>2026-03-23T14:10:52.999Z</time></trkpt><trkpt lat="42.6069792085938" lon="2.6088428802588135"><ele>343.0</ele><time>2026-03-23T14:10:53.999Z</time></trkpt><trkpt lat="42.607075120741385" lon="2.6087923472004038"><ele>343.0</ele><time>2026-03-23T14:10:54.999Z</time></trkpt><trkpt lat="42.607160121330246" lon="2.608737273159358"><ele>343.0</ele><time>2026-03-23T14:10:55.999Z</time></trkpt><trkpt lat="42.60724165575838" lon="2.6086606912245203"><ele>343.0</ele><time>2026-03-23T14:10:56.999Z</time></trkpt><trkpt lat="42.60732477360592" lon="2.6085675122064647"><ele>342.2</ele><time>2026-03-23T14:10:57.999Z</time></trkpt><trkpt lat="42.607412460484575" lon="2.608463664506671"><ele>341.4</ele><time>2026-03-23T14:10:58.999Z</time></trkpt><trkpt lat="42.60749895492505" lon="2.6083534450702364"><ele>340.59999999999997</ele><time>2026-03-23T14:10:59.999Z</time></trkpt><trkpt lat="42.607563045605346" lon="2.6082718552456523"><ele>339.79999999999995</ele><time>2026-03-23T14:11:00.999Z</time></trkpt><trkpt lat="42.607614403605055" lon="2.6082173587008533"><ele>339.0</ele><time>2026-03-23T14:11:01.999Z</time></trkpt><trkpt lat="42.60772103891902" lon="2.6080957591224996"><ele>339.0</ele><time>2026-03-23T14:11:02.999Z</time></trkpt><trkpt lat="42.60779982453242" lon="2.6080217253467124"><ele>339.0</ele><time>2026-03-23T14:11:03.999Z</time></trkpt><trkpt lat="42.60785933254128" lon="2.6079404241596063"><ele>339.0</ele><time>2026-03-23T14:11:04.999Z</time></trkpt><trkpt lat="42.60790080861983" lon="2.607842323111284"><ele>339.0</ele><time>2026-03-23T14:11:05.999Z</time></trkpt><trkpt lat="42.607923277995766" lon="2.60772808572978"><ele>339.0</ele><time>2026-03-23T14:11:06.999Z</time></trkpt><trkpt lat="42.60792245401715" lon="2.6076133191022155"><ele>339.0</ele><time>2026-03-23T14:11:07.999Z</time></trkpt><trkpt lat="42.60788786020818" lon="2.607501332821168"><ele>338.79999999999995</ele><time>2026-03-23T14:11:08.999Z</time></trkpt><trkpt lat="42.607825940419865" lon="2.607405684216687"><ele>338.59999999999997</ele><time>2026-03-23T14:11:09.999Z</time></trkpt><trkpt lat="42.60773283947669" lon="2.607329053702871"><ele>338.4</ele><time>2026-03-23T14:11:10.999Z</time></trkpt><trkpt lat="42.60763904481236" lon="2.60726248783513"><ele>338.2</ele><time>2026-03-23T14:11:11.999Z</time></trkpt><trkpt lat="42.607563320226085" lon="2.6071775036090346"><ele>338.0</ele><time>2026-03-23T14:11:12.999Z</time></trkpt><trkpt lat="42.60748568950626" lon="2.607113208678583"><ele>338.0</ele><time>2026-03-23T14:11:13.999Z</time></trkpt><trkpt lat="42.607420740637" lon="2.607053048288178"><ele>338.0</ele><time>2026-03-23T14:11:14.999Z</time></trkpt><trkpt lat="42.60736981872046" lon="2.6069972179781105"><ele>338.0</ele><time>2026-03-23T14:11:15.999Z</time></trkpt><trkpt lat="42.607325920549506" lon="2.6068551870003023"><ele>338.0</ele><time>2026-03-23T14:11:17.999Z</time></trkpt><trkpt lat="42.60736803176512" lon="2.6066975479000067"><ele>338.0</ele><time>2026-03-23T14:11:19.999Z</time></trkpt><trkpt lat="42.607404803066" lon="2.606627557223525"><ele>338.0</ele><time>2026-03-23T14:11:20.999Z</time></trkpt><trkpt lat="42.60752683308932" lon="2.60658724414875"><ele>337.33333333333337</ele><time>2026-03-23T14:11:22.999Z</time></trkpt><trkpt lat="42.60759448325228" lon="2.6066263285263878"><ele>336.6666666666667</ele><time>2026-03-23T14:11:23.999Z</time></trkpt><trkpt lat="42.60766971854613" lon="2.6066585960658104"><ele>336.0</ele><time>2026-03-23T14:11:24.999Z</time></trkpt><trkpt lat="42.60773923449473" lon="2.6067149983034485"><ele>335.3333333333333</ele><time>2026-03-23T14:11:25.999Z</time></trkpt><trkpt lat="42.607819932629006" lon="2.6067344970136848"><ele>334.66666666666663</ele><time>2026-03-23T14:11:26.999Z</time></trkpt><trkpt lat="42.60790368717674" lon="2.606718781922315"><ele>334.0</ele><time>2026-03-23T14:11:27.998Z</time></trkpt><trkpt lat="42.60799460474478" lon="2.6066760953642065"><ele>332.4</ele><time>2026-03-23T14:11:28.998Z</time></trkpt><trkpt lat="42.608066002346945" lon="2.6066456200634027"><ele>330.79999999999995</ele><time>2026-03-23T14:11:29.998Z</time></trkpt><trkpt lat="42.60814174762653" lon="2.606619089267235"><ele>329.20000000000005</ele><time>2026-03-23T14:11:30.998Z</time></trkpt><trkpt lat="42.6082621651092" lon="2.606593319258093"><ele>327.6</ele><time>2026-03-23T14:11:32.998Z</time></trkpt><trkpt lat="42.608359043054215" lon="2.6064847609481663"><ele>326.0</ele><time>2026-03-23T14:11:34.998Z</time></trkpt><trkpt lat="42.60837207610852" lon="2.6063907681983207"><ele>326.0</ele><time>2026-03-23T14:11:35.998Z</time></trkpt><trkpt lat="42.6083828039222" lon="2.6062786209713678"><ele>326.0</ele><time>2026-03-23T14:11:36.998Z</time></trkpt><trkpt lat="42.60834710029933" lon="2.606156416162183"><ele>326.0</ele><time>2026-03-23T14:11:37.998Z</time></trkpt><trkpt lat="42.608349087886126" lon="2.6060410094038646"><ele>326.0</ele><time>2026-03-23T14:11:38.998Z</time></trkpt><trkpt lat="42.60831482062746" lon="2.6059108424887407"><ele>326.0</ele><time>2026-03-23T14:11:39.998Z</time></trkpt><trkpt lat="42.608304844126295" lon="2.6057951338884866"><ele>327.20000000000005</ele><time>2026-03-23T14:11:40.998Z</time></trkpt><trkpt lat="42.608314479547076" lon="2.6056768275549356"><ele>328.40000000000003</ele><time>2026-03-23T14:11:41.998Z</time></trkpt><trkpt lat="42.60835190431024" lon="2.605560201814329"><ele>329.6</ele><time>2026-03-23T14:11:42.998Z</time></trkpt><trkpt lat="42.60839532381552" lon="2.6054479010370946"><ele>330.8</ele><time>2026-03-23T14:11:43.998Z</time></trkpt><trkpt lat="42.60844393494337" lon="2.6053254324665205"><ele>332.0</ele><time>2026-03-23T14:11:44.998Z</time></trkpt><trkpt lat="42.60852772896711" lon="2.6052267992386846"><ele>330.6</ele><time>2026-03-23T14:11:45.998Z</time></trkpt><trkpt lat="42.608627673866685" lon="2.605137343411255"><ele>329.20000000000005</ele><time>2026-03-23T14:11:46.998Z</time></trkpt><trkpt lat="42.60871156745422" lon="2.605047787975765"><ele>327.8</ele><time>2026-03-23T14:11:47.998Z</time></trkpt><trkpt lat="42.6087878739096" lon="2.604970984271717"><ele>326.4</ele><time>2026-03-23T14:11:48.998Z</time></trkpt><trkpt lat="42.60885356213314" lon="2.604891377577895"><ele>325.0</ele><time>2026-03-23T14:11:49.998Z</time></trkpt><trkpt lat="42.60892210531931" lon="2.604788372404893"><ele>325.0</ele><time>2026-03-23T14:11:50.998Z</time></trkpt><trkpt lat="42.608981862135664" lon="2.604658544513304"><ele>325.0</ele><time>2026-03-23T14:11:51.998Z</time></trkpt><trkpt lat="42.6090417170678" lon="2.6045336041738363"><ele>325.0</ele><time>2026-03-23T14:11:52.998Z</time></trkpt><trkpt lat="42.60908682445111" lon="2.604462172597489"><ele>325.0</ele><time>2026-03-23T14:11:53.998Z</time></trkpt><trkpt lat="42.6091305736821" lon="2.6043778528949706"><ele>325.0</ele><time>2026-03-23T14:11:54.998Z</time></trkpt><trkpt lat="42.609210351087675" lon="2.6042181478633473"><ele>326.0</ele><time>2026-03-23T14:11:55.998Z</time></trkpt><trkpt lat="42.6092794524124" lon="2.6041148616579686"><ele>327.0</ele><time>2026-03-23T14:11:56.998Z</time></trkpt><trkpt lat="42.609358125346624" lon="2.604030743534992"><ele>328.0</ele><time>2026-03-23T14:11:57.998Z</time></trkpt><trkpt lat="42.60944531135151" lon="2.603952579902873"><ele>329.0</ele><time>2026-03-23T14:11:58.998Z</time></trkpt><trkpt lat="42.609535380964786" lon="2.6038826638420405"><ele>330.0</ele><time>2026-03-23T14:11:59.998Z</time></trkpt><trkpt lat="42.60965821799353" lon="2.6038195225924374"><ele>331.6</ele><time>2026-03-23T14:12:00.998Z</time></trkpt><trkpt lat="42.60977492022551" lon="2.6037622897490627"><ele>333.2</ele><time>2026-03-23T14:12:01.998Z</time></trkpt><trkpt lat="42.60988376768934" lon="2.6037197682483924"><ele>334.79999999999995</ele><time>2026-03-23T14:12:02.998Z</time></trkpt><trkpt lat="42.6099854695605" lon="2.603693094316836"><ele>336.4</ele><time>2026-03-23T14:12:03.998Z</time></trkpt><trkpt lat="42.6100772440737" lon="2.603668133508591"><ele>338.0</ele><time>2026-03-23T14:12:04.998Z</time></trkpt><trkpt lat="42.61016990786311" lon="2.603636746035028"><ele>338.0</ele><time>2026-03-23T14:12:05.998Z</time></trkpt><trkpt lat="42.61025386961023" lon="2.603619238592458"><ele>338.0</ele><time>2026-03-23T14:12:06.998Z</time></trkpt><trkpt lat="42.61033422704719" lon="2.603627116932231"><ele>338.0</ele><time>2026-03-23T14:12:07.998Z</time></trkpt><trkpt lat="42.61041046190904" lon="2.603645915211589"><ele>338.0</ele><time>2026-03-23T14:12:08.998Z</time></trkpt><trkpt lat="42.61049803568239" lon="2.6036969973198634"><ele>338.0</ele><time>2026-03-23T14:12:09.998Z</time></trkpt><trkpt lat="42.61059985374066" lon="2.6037569180807543"><ele>338.0</ele><time>2026-03-23T14:12:10.998Z</time></trkpt><trkpt lat="42.610699443106455" lon="2.603814630158595"><ele>334.0</ele><time>2026-03-23T14:12:11.998Z</time></trkpt><trkpt lat="42.610797496264695" lon="2.6038964264481637"><ele>330.0</ele><time>2026-03-23T14:12:12.998Z</time></trkpt><trkpt lat="42.61088144206696" lon="2.603973525557422"><ele>326.0</ele><time>2026-03-23T14:12:13.997Z</time></trkpt><trkpt lat="42.61096585866805" lon="2.6040579073976216"><ele>322.0</ele><time>2026-03-23T14:12:15Z</time></trkpt><trkpt lat="42.611055647353865" lon="2.6041365689898566"><ele>318.0</ele><time>2026-03-23T14:12:16Z</time></trkpt><trkpt lat="42.61114524323407" lon="2.6042057999369863"><ele>317.5</ele><time>2026-03-23T14:12:17Z</time></trkpt><trkpt lat="42.61123483416127" lon="2.604267348649611"><ele>317.0</ele><time>2026-03-23T14:12:18Z</time></trkpt><trkpt lat="42.61132177918359" lon="2.6043201167352827"><ele>316.5</ele><time>2026-03-23T14:12:19Z</time></trkpt><trkpt lat="42.61140231951287" lon="2.6043579115535365"><ele>316.0</ele><time>2026-03-23T14:12:20Z</time></trkpt><trkpt lat="42.611483848078244" lon="2.6043818277091964"><ele>315.5</ele><time>2026-03-23T14:12:21Z</time></trkpt><trkpt lat="42.611559032172316" lon="2.604387516833493"><ele>315.0</ele><time>2026-03-23T14:12:22Z</time></trkpt><trkpt lat="42.61162223689892" lon="2.6043564988374563"><ele>315.0</ele><time>2026-03-23T14:12:23Z</time></trkpt><trkpt lat="42.611679833261576" lon="2.6042965206858937"><ele>315.0</ele><time>2026-03-23T14:12:24Z</time></trkpt><trkpt lat="42.61173064134341" lon="2.6042259322596277"><ele>315.0</ele><time>2026-03-23T14:12:25Z</time></trkpt><trkpt lat="42.61175236086245" lon="2.60410560529016"><ele>315.0</ele><time>2026-03-23T14:12:26Z</time></trkpt><trkpt lat="42.61175005070887" lon="2.6039671031757234"><ele>315.0</ele><time>2026-03-23T14:12:27Z</time></trkpt><trkpt lat="42.61173796681826" lon="2.6038284744261353"><ele>315.0</ele><time>2026-03-23T14:12:28Z</time></trkpt><trkpt lat="42.61170890400742" lon="2.6036875300202733"><ele>314.4</ele><time>2026-03-23T14:12:29Z</time></trkpt><trkpt lat="42.611678561864444" lon="2.6035543895216913"><ele>313.8</ele><time>2026-03-23T14:12:30Z</time></trkpt><trkpt lat="42.61163305426686" lon="2.603427506656895"><ele>313.2</ele><time>2026-03-23T14:12:31Z</time></trkpt><trkpt lat="42.611563271259364" lon="2.6033088984184256"><ele>312.6</ele><time>2026-03-23T14:12:32Z</time></trkpt><trkpt lat="42.61147848739399" lon="2.6031915102067065"><ele>312.0</ele><time>2026-03-23T14:12:33Z</time></trkpt><trkpt lat="42.61139598763358" lon="2.603035490761416"><ele>312.0</ele><time>2026-03-23T14:12:34Z</time></trkpt><trkpt lat="42.611319230927414" lon="2.602881302319681"><ele>312.0</ele><time>2026-03-23T14:12:36Z</time></trkpt><trkpt lat="42.61127919938657" lon="2.6027787163756066"><ele>312.0</ele><time>2026-03-23T14:12:37Z</time></trkpt><trkpt lat="42.61124024296418" lon="2.602673887024339"><ele>312.0</ele><time>2026-03-23T14:12:38Z</time></trkpt><trkpt lat="42.61121960030187" lon="2.6025667581655076"><ele>312.0</ele><time>2026-03-23T14:12:39Z</time></trkpt><trkpt lat="42.61121287408505" lon="2.602445996261134"><ele>312.4</ele><time>2026-03-23T14:12:40Z</time></trkpt><trkpt lat="42.611205174593" lon="2.60231007047905"><ele>312.79999999999995</ele><time>2026-03-23T14:12:41Z</time></trkpt><trkpt lat="42.611222067955985" lon="2.6021700744996004"><ele>313.2</ele><time>2026-03-23T14:12:42Z</time></trkpt><trkpt lat="42.61126855368028" lon="2.6020409798948214"><ele>313.59999999999997</ele><time>2026-03-23T14:12:43Z</time></trkpt><trkpt lat="42.61131072013875" lon="2.601891708222642"><ele>314.0</ele><time>2026-03-23T14:12:44Z</time></trkpt><trkpt lat="42.611399994442316" lon="2.6017986793829126"><ele>314.0</ele><time>2026-03-23T14:12:45Z</time></trkpt><trkpt lat="42.611478915574025" lon="2.601687185358947"><ele>314.0</ele><time>2026-03-23T14:12:46Z</time></trkpt><trkpt lat="42.61158117814815" lon="2.601608430132437"><ele>314.0</ele><time>2026-03-23T14:12:47Z</time></trkpt><trkpt lat="42.61168780499847" lon="2.6015484985921664"><ele>314.0</ele><time>2026-03-23T14:12:48Z</time></trkpt><trkpt lat="42.61179363257158" lon="2.601508410763077"><ele>314.0</ele><time>2026-03-23T14:12:49Z</time></trkpt><trkpt lat="42.61190550152061" lon="2.6014862051989422"><ele>314.0</ele><time>2026-03-23T14:12:49.999Z</time></trkpt><trkpt lat="42.61200051730203" lon="2.601502078952398"><ele>314.0</ele><time>2026-03-23T14:12:50.999Z</time></trkpt><trkpt lat="42.61208307238079" lon="2.601583886606888"><ele>314.0</ele><time>2026-03-23T14:12:51.999Z</time></trkpt><trkpt lat="42.61214451706095" lon="2.6016770230381496"><ele>314.0</ele><time>2026-03-23T14:12:52.999Z</time></trkpt><trkpt lat="42.61222214115603" lon="2.6017761771217445"><ele>314.2</ele><time>2026-03-23T14:12:53.999Z</time></trkpt><trkpt lat="42.61230349086978" lon="2.601869365137583"><ele>314.4</ele><time>2026-03-23T14:12:54.999Z</time></trkpt><trkpt lat="42.612393843272564" lon="2.6019585176228457"><ele>314.6</ele><time>2026-03-23T14:12:55.999Z</time></trkpt><trkpt lat="42.61249126744082" lon="2.602046915909701"><ele>314.8</ele><time>2026-03-23T14:12:56.999Z</time></trkpt><trkpt lat="42.612582376366085" lon="2.602128353640314"><ele>315.0</ele><time>2026-03-23T14:12:57.999Z</time></trkpt><trkpt lat="42.61267779950575" lon="2.6022118013388407"><ele>312.4</ele><time>2026-03-23T14:12:58.999Z</time></trkpt><trkpt lat="42.61275967836613" lon="2.602274552907583"><ele>309.8</ele><time>2026-03-23T14:12:59.999Z</time></trkpt><trkpt lat="42.61285174848072" lon="2.602339072784516"><ele>307.2</ele><time>2026-03-23T14:13:00.999Z</time></trkpt><trkpt lat="42.6129524913468" lon="2.602372171108478"><ele>304.6</ele><time>2026-03-23T14:13:01.999Z</time></trkpt><trkpt lat="42.61305783814739" lon="2.602366886845767"><ele>302.0</ele><time>2026-03-23T14:13:02.999Z</time></trkpt><trkpt lat="42.613167564889395" lon="2.6023331166322774"><ele>302.0</ele><time>2026-03-23T14:13:03.999Z</time></trkpt><trkpt lat="42.61328579034086" lon="2.602287495343313"><ele>302.0</ele><time>2026-03-23T14:13:04.999Z</time></trkpt><trkpt lat="42.613376333416674" lon="2.602268422057299"><ele>302.0</ele><time>2026-03-23T14:13:05.999Z</time></trkpt><trkpt lat="42.61348889635781" lon="2.602288739146237"><ele>302.0</ele><time>2026-03-23T14:13:06.999Z</time></trkpt><trkpt lat="42.61360195712444" lon="2.602330705433295"><ele>302.0</ele><time>2026-03-23T14:13:07.999Z</time></trkpt><trkpt lat="42.61371787866875" lon="2.602351510199485"><ele>303.5</ele><time>2026-03-23T14:13:08.999Z</time></trkpt><trkpt lat="42.61381781480094" lon="2.602359979980558"><ele>305.0</ele><time>2026-03-23T14:13:09.999Z</time></trkpt><trkpt lat="42.61393563353382" lon="2.6023569687500534"><ele>306.5</ele><time>2026-03-23T14:13:10.999Z</time></trkpt><trkpt lat="42.61407056517207" lon="2.6023303711499497"><ele>308.0</ele><time>2026-03-23T14:13:11.999Z</time></trkpt><trkpt lat="42.6142132221894" lon="2.60229321167467"><ele>308.0</ele><time>2026-03-23T14:13:12.999Z</time></trkpt><trkpt lat="42.61433278310558" lon="2.6022663745787025"><ele>308.0</ele><time>2026-03-23T14:13:13.999Z</time></trkpt><trkpt lat="42.61445416474951" lon="2.602243138623686"><ele>308.0</ele><time>2026-03-23T14:13:14.999Z</time></trkpt><trkpt lat="42.614577218719056" lon="2.6022186233556557"><ele>308.0</ele><time>2026-03-23T14:13:15.999Z</time></trkpt><trkpt lat="42.61470117104268" lon="2.602206566833899"><ele>308.0</ele><time>2026-03-23T14:13:16.999Z</time></trkpt><trkpt lat="42.614826852495376" lon="2.6021995839417085"><ele>308.0</ele><time>2026-03-23T14:13:17.999Z</time></trkpt><trkpt lat="42.61495595754614" lon="2.602210366734598"><ele>308.0</ele><time>2026-03-23T14:13:18.999Z</time></trkpt><trkpt lat="42.61508056933601" lon="2.6022388946059656"><ele>308.0</ele><time>2026-03-23T14:13:19.999Z</time></trkpt><trkpt lat="42.615203101393256" lon="2.6022806740150792"><ele>306.5</ele><time>2026-03-23T14:13:20.999Z</time></trkpt><trkpt lat="42.61532740441905" lon="2.6023169038726577"><ele>305.0</ele><time>2026-03-23T14:13:21.999Z</time></trkpt><trkpt lat="42.61544733613241" lon="2.6023545552828122"><ele>303.5</ele><time>2026-03-23T14:13:22.999Z</time></trkpt><trkpt lat="42.615565081205936" lon="2.6023922171276097"><ele>302.0</ele><time>2026-03-23T14:13:23.999Z</time></trkpt><trkpt lat="42.61567115467313" lon="2.6024228646063627"><ele>302.0</ele><time>2026-03-23T14:13:24.999Z</time></trkpt><trkpt lat="42.61577114293272" lon="2.6024473231516874"><ele>302.0</ele><time>2026-03-23T14:13:25.999Z</time></trkpt><trkpt lat="42.615883401413434" lon="2.602473463301761"><ele>302.0</ele><time>2026-03-23T14:13:26.999Z</time></trkpt><trkpt lat="42.61598872731042" lon="2.6024658924052977"><ele>302.0</ele><time>2026-03-23T14:13:27.999Z</time></trkpt><trkpt lat="42.616089254286656" lon="2.6024591302051117"><ele>302.0</ele><time>2026-03-23T14:13:28.999Z</time></trkpt><trkpt lat="42.61617934578919" lon="2.6024349189907077"><ele>301.6666666666667</ele><time>2026-03-23T14:13:29.999Z</time></trkpt><trkpt lat="42.61625141632096" lon="2.6024038950330293"><ele>301.33333333333337</ele><time>2026-03-23T14:13:30.999Z</time></trkpt><trkpt lat="42.6163306000086" lon="2.602369865393406"><ele>301.0</ele><time>2026-03-23T14:13:31.999Z</time></trkpt><trkpt lat="42.6163887058558" lon="2.6023095247854715"><ele>300.6666666666667</ele><time>2026-03-23T14:13:32.999Z</time></trkpt><trkpt lat="42.616437941643206" lon="2.602227155703206"><ele>300.3333333333333</ele><time>2026-03-23T14:13:33.999Z</time></trkpt><trkpt lat="42.61647565746378" lon="2.6021190164686803"><ele>300.0</ele><time>2026-03-23T14:13:34.998Z</time></trkpt><trkpt lat="42.616501228945786" lon="2.6020016151176386"><ele>299.25</ele><time>2026-03-23T14:13:35.998Z</time></trkpt><trkpt lat="42.61651147533738" lon="2.601874826904367"><ele>298.5</ele><time>2026-03-23T14:13:36.998Z</time></trkpt><trkpt lat="42.61650455788931" lon="2.6017206672383386"><ele>297.75</ele><time>2026-03-23T14:13:37.998Z</time></trkpt><trkpt lat="42.61648987061454" lon="2.601556125940558"><ele>297.0</ele><time>2026-03-23T14:13:38.998Z</time></trkpt><trkpt lat="42.61647095771716" lon="2.6013757747351147"><ele>297.0</ele><time>2026-03-23T14:13:39.998Z</time></trkpt><trkpt lat="42.616464838385504" lon="2.6012090769990452"><ele>297.0</ele><time>2026-03-23T14:13:40.998Z</time></trkpt><trkpt lat="42.61645289394333" lon="2.601047285545695"><ele>297.0</ele><time>2026-03-23T14:13:41.998Z</time></trkpt><trkpt lat="42.616441542477126" lon="2.600874482633819"><ele>297.0</ele><time>2026-03-23T14:13:42.998Z</time></trkpt><trkpt lat="42.61643748389641" lon="2.600704006418994"><ele>296.8</ele><time>2026-03-23T14:13:43.998Z</time></trkpt><trkpt lat="42.61644236549724" lon="2.6005409589717634"><ele>296.6</ele><time>2026-03-23T14:13:44.998Z</time></trkpt><trkpt lat="42.61648542213595" lon="2.6004030986802578"><ele>296.40000000000003</ele><time>2026-03-23T14:13:45.998Z</time></trkpt><trkpt lat="42.61650068341686" lon="2.6002740991256874"><ele>296.2</ele><time>2026-03-23T14:13:46.998Z</time></trkpt><trkpt lat="42.616534803184415" lon="2.60015464653227"><ele>296.0</ele><time>2026-03-23T14:13:47.998Z</time></trkpt><trkpt lat="42.61658420315442" lon="2.6000592272645244"><ele>296.0</ele><time>2026-03-23T14:13:48.998Z</time></trkpt><trkpt lat="42.616661712006405" lon="2.5999968929426074"><ele>296.0</ele><time>2026-03-23T14:13:49.998Z</time></trkpt><trkpt lat="42.616717860766606" lon="2.59992037293712"><ele>296.0</ele><time>2026-03-23T14:13:50.998Z</time></trkpt><trkpt lat="42.616788871739516" lon="2.5998966715438367"><ele>296.0</ele><time>2026-03-23T14:13:51.998Z</time></trkpt><trkpt lat="42.61687256518126" lon="2.5999221468117395"><ele>296.0</ele><time>2026-03-23T14:13:52.998Z</time></trkpt><trkpt lat="42.61695795348895" lon="2.599960856769462"><ele>296.0</ele><time>2026-03-23T14:13:53.998Z</time></trkpt><trkpt lat="42.617049282194856" lon="2.599987732480986"><ele>294.6666666666667</ele><time>2026-03-23T14:13:54.998Z</time></trkpt><trkpt lat="42.6171389138464" lon="2.6000098476252926"><ele>293.33333333333337</ele><time>2026-03-23T14:13:55.998Z</time></trkpt><trkpt lat="42.61723511037221" lon="2.6000001384043676"><ele>292.0</ele><time>2026-03-23T14:13:56.998Z</time></trkpt><trkpt lat="42.61731673896205" lon="2.599971932021743"><ele>290.6666666666667</ele><time>2026-03-23T14:13:57.998Z</time></trkpt><trkpt lat="42.617371871211695" lon="2.599920908143649"><ele>289.3333333333333</ele><time>2026-03-23T14:13:58.998Z</time></trkpt><trkpt lat="42.61743395787295" lon="2.599806340940881"><ele>288.0</ele><time>2026-03-23T14:14:00.998Z</time></trkpt><trkpt lat="42.61742725623471" lon="2.599717988698913"><ele>288.0</ele><time>2026-03-23T14:14:01.998Z</time></trkpt><trkpt lat="42.61735484252082" lon="2.599646063980175"><ele>288.0</ele><time>2026-03-23T14:14:02.998Z</time></trkpt><trkpt lat="42.61727382004087" lon="2.5995961561052567"><ele>288.0</ele><time>2026-03-23T14:14:03.998Z</time></trkpt><trkpt lat="42.61717715839526" lon="2.5995553366891926"><ele>288.0</ele><time>2026-03-23T14:14:04.998Z</time></trkpt><trkpt lat="42.61709540284058" lon="2.5995065316197374"><ele>288.0</ele><time>2026-03-23T14:14:05.998Z</time></trkpt><trkpt lat="42.61702093883325" lon="2.5994507656408747"><ele>290.8</ele><time>2026-03-23T14:14:06.998Z</time></trkpt><trkpt lat="42.61696547584673" lon="2.599373000093873"><ele>293.6</ele><time>2026-03-23T14:14:07.998Z</time></trkpt><trkpt lat="42.61689087653448" lon="2.5993121298803876"><ele>296.4</ele><time>2026-03-23T14:14:08.998Z</time></trkpt><trkpt lat="42.616823111152904" lon="2.599200883378144"><ele>299.2</ele><time>2026-03-23T14:14:09.998Z</time></trkpt><trkpt lat="42.616766137508584" lon="2.599076463740032"><ele>302.0</ele><time>2026-03-23T14:14:10.998Z</time></trkpt><trkpt lat="42.61674192769957" lon="2.5989378601496287"><ele>302.0</ele><time>2026-03-23T14:14:11.998Z</time></trkpt><trkpt lat="42.61669916114377" lon="2.5988229432038863"><ele>302.0</ele><time>2026-03-23T14:14:12.998Z</time></trkpt><trkpt lat="42.61666163273094" lon="2.5987204744173287"><ele>302.0</ele><time>2026-03-23T14:14:13.998Z</time></trkpt><trkpt lat="42.616619204382" lon="2.5985943387789185"><ele>302.0</ele><time>2026-03-23T14:14:15.998Z</time></trkpt><trkpt lat="42.61659945816072" lon="2.5984723911270176"><ele>302.0</ele><time>2026-03-23T14:14:17.998Z</time></trkpt><trkpt lat="42.616592549727265" lon="2.5983801308150856"><ele>302.0</ele><time>2026-03-23T14:14:18.998Z</time></trkpt><trkpt lat="42.61659833139605" lon="2.5982724394849708"><ele>301.0</ele><time>2026-03-23T14:14:19.998Z</time></trkpt><trkpt lat="42.61660895067447" lon="2.5981503595412363"><ele>300.0</ele><time>2026-03-23T14:14:21Z</time></trkpt><trkpt lat="42.616633805566885" lon="2.598042358747027"><ele>299.0</ele><time>2026-03-23T14:14:22Z</time></trkpt><trkpt lat="42.61666440656432" lon="2.5979428592641907"><ele>298.0</ele><time>2026-03-23T14:14:23Z</time></trkpt><trkpt lat="42.61671238881577" lon="2.5978476582650245"><ele>297.0</ele><time>2026-03-23T14:14:24Z</time></trkpt><trkpt lat="42.61677321095915" lon="2.597776457280071"><ele>296.0</ele><time>2026-03-23T14:14:25Z</time></trkpt><trkpt lat="42.61683475355599" lon="2.5977108632105965"><ele>296.6666666666667</ele><time>2026-03-23T14:14:26Z</time></trkpt><trkpt lat="42.61692656276879" lon="2.5976634401264294"><ele>297.33333333333337</ele><time>2026-03-23T14:14:27Z</time></trkpt><trkpt lat="42.617012814784694" lon="2.597639015069001"><ele>298.0</ele><time>2026-03-23T14:14:28Z</time></trkpt><trkpt lat="42.617105494744514" lon="2.5976317036684673"><ele>298.6666666666667</ele><time>2026-03-23T14:14:29Z</time></trkpt><trkpt lat="42.61718117569833" lon="2.597633435974996"><ele>299.3333333333333</ele><time>2026-03-23T14:14:30Z</time></trkpt><trkpt lat="42.61726677228766" lon="2.597628453058623"><ele>300.0</ele><time>2026-03-23T14:14:31Z</time></trkpt><trkpt lat="42.61735363909207" lon="2.5976351188359845"><ele>300.0</ele><time>2026-03-23T14:14:32Z</time></trkpt><trkpt lat="42.617456625592254" lon="2.597647194752275"><ele>300.0</ele><time>2026-03-23T14:14:33Z</time></trkpt><trkpt lat="42.61756632947341" lon="2.597668868744995"><ele>300.0</ele><time>2026-03-23T14:14:34Z</time></trkpt><trkpt lat="42.61767815252943" lon="2.597704863300035"><ele>300.0</ele><time>2026-03-23T14:14:35Z</time></trkpt><trkpt lat="42.617781944817644" lon="2.5977290652491107"><ele>300.0</ele><time>2026-03-23T14:14:36Z</time></trkpt><trkpt lat="42.617875154237204" lon="2.5977577719902647"><ele>298.8</ele><time>2026-03-23T14:14:37Z</time></trkpt><trkpt lat="42.61796770283135" lon="2.5977826692252375"><ele>297.6</ele><time>2026-03-23T14:14:38Z</time></trkpt><trkpt lat="42.61806436929157" lon="2.597808663048075"><ele>296.4</ele><time>2026-03-23T14:14:39Z</time></trkpt><trkpt lat="42.618165818557884" lon="2.5978212662614193"><ele>295.2</ele><time>2026-03-23T14:14:40Z</time></trkpt><trkpt lat="42.61826542029161" lon="2.5978287449841218"><ele>294.0</ele><time>2026-03-23T14:14:41Z</time></trkpt><trkpt lat="42.618353353593676" lon="2.5978246561578433"><ele>294.0</ele><time>2026-03-23T14:14:42Z</time></trkpt><trkpt lat="42.61843904755752" lon="2.5978135277068235"><ele>294.0</ele><time>2026-03-23T14:14:43Z</time></trkpt><trkpt lat="42.618516445822365" lon="2.597794367542234"><ele>294.0</ele><time>2026-03-23T14:14:44Z</time></trkpt><trkpt lat="42.61859670663552" lon="2.597746284731277"><ele>294.0</ele><time>2026-03-23T14:14:45Z</time></trkpt><trkpt lat="42.61867769286783" lon="2.5976885032616206"><ele>294.0</ele><time>2026-03-23T14:14:46Z</time></trkpt><trkpt lat="42.618748299489376" lon="2.5976106180816365"><ele>294.0</ele><time>2026-03-23T14:14:47Z</time></trkpt><trkpt lat="42.6188092028727" lon="2.5975179822033807"><ele>294.0</ele><time>2026-03-23T14:14:48Z</time></trkpt><trkpt lat="42.61886837400469" lon="2.597418839039647"><ele>294.0</ele><time>2026-03-23T14:14:49Z</time></trkpt><trkpt lat="42.618918089316246" lon="2.597308940604315"><ele>294.0</ele><time>2026-03-23T14:14:50Z</time></trkpt><trkpt lat="42.61895748092631" lon="2.597207138049905"><ele>294.0</ele><time>2026-03-23T14:14:51Z</time></trkpt><trkpt lat="42.61899483737175" lon="2.597117479537151"><ele>294.0</ele><time>2026-03-23T14:14:52Z</time></trkpt><trkpt lat="42.61904010912695" lon="2.5970341563990114"><ele>294.0</ele><time>2026-03-23T14:14:52.999Z</time></trkpt><trkpt lat="42.61908927294891" lon="2.596947466815946"><ele>294.0</ele><time>2026-03-23T14:14:53.999Z</time></trkpt><trkpt lat="42.61914053911629" lon="2.596870520306774"><ele>294.0</ele><time>2026-03-23T14:14:54.999Z</time></trkpt><trkpt lat="42.61921170784675" lon="2.5967971013949143"><ele>294.0</ele><time>2026-03-23T14:14:55.999Z</time></trkpt><trkpt lat="42.6192916709009" lon="2.596735269483829"><ele>294.0</ele><time>2026-03-23T14:14:56.999Z</time></trkpt><trkpt lat="42.61939943685601" lon="2.5966644491079123"><ele>294.0</ele><time>2026-03-23T14:14:57.999Z</time></trkpt><trkpt lat="42.61950741660116" lon="2.5965935792965547"><ele>289.75</ele><time>2026-03-23T14:14:58.999Z</time></trkpt><trkpt lat="42.61963181253556" lon="2.5965120376845894"><ele>285.5</ele><time>2026-03-23T14:14:59.999Z</time></trkpt><trkpt lat="42.61974307214554" lon="2.596428516676884"><ele>281.25</ele><time>2026-03-23T14:15:00.999Z</time></trkpt><trkpt lat="42.619839866330246" lon="2.5963580652848757"><ele>277.0</ele><time>2026-03-23T14:15:01.999Z</time></trkpt><trkpt lat="42.61993264636051" lon="2.596275450368951"><ele>277.0</ele><time>2026-03-23T14:15:02.999Z</time></trkpt><trkpt lat="42.62001360423091" lon="2.5961938957224775"><ele>277.0</ele><time>2026-03-23T14:15:03.999Z</time></trkpt><trkpt lat="42.6200950706243" lon="2.596128299181003"><ele>277.0</ele><time>2026-03-23T14:15:04.999Z</time></trkpt><trkpt lat="42.62018402236785" lon="2.5960637347494226"><ele>277.0</ele><time>2026-03-23T14:15:05.999Z</time></trkpt><trkpt lat="42.62025733156987" lon="2.596018341913475"><ele>277.0</ele><time>2026-03-23T14:15:06.999Z</time></trkpt><trkpt lat="42.62031609930182" lon="2.5959847007265555"><ele>277.0</ele><time>2026-03-23T14:15:07.999Z</time></trkpt><trkpt lat="42.62040885034242" lon="2.5959006632372112"><ele>278.8</ele><time>2026-03-23T14:15:09.999Z</time></trkpt><trkpt lat="42.6204584461924" lon="2.5957592547328656"><ele>280.6</ele><time>2026-03-23T14:15:11.999Z</time></trkpt><trkpt lat="42.620449646326946" lon="2.5956692167115047"><ele>282.40000000000003</ele><time>2026-03-23T14:15:12.999Z</time></trkpt><trkpt lat="42.620413984974206" lon="2.595575018675672"><ele>284.2</ele><time>2026-03-23T14:15:13.999Z</time></trkpt><trkpt lat="42.620347224256726" lon="2.595484608849324"><ele>286.0</ele><time>2026-03-23T14:15:14.999Z</time></trkpt><trkpt lat="42.62028248040932" lon="2.5953677501485246"><ele>285.6</ele><time>2026-03-23T14:15:15.999Z</time></trkpt><trkpt lat="42.62020190590463" lon="2.5952515385182515"><ele>285.20000000000005</ele><time>2026-03-23T14:15:16.999Z</time></trkpt><trkpt lat="42.62011284922045" lon="2.5951261088609505"><ele>284.79999999999995</ele><time>2026-03-23T14:15:17.999Z</time></trkpt><trkpt lat="42.62005828599192" lon="2.595054467368716"><ele>284.4</ele><time>2026-03-23T14:15:18.999Z</time></trkpt><trkpt lat="42.61997547826313" lon="2.5949354821025508"><ele>284.0</ele><time>2026-03-23T14:15:19.999Z</time></trkpt><trkpt lat="42.619918832019515" lon="2.594819712803247"><ele>284.0</ele><time>2026-03-23T14:15:20.999Z</time></trkpt><trkpt lat="42.61986980258244" lon="2.5946976154813797"><ele>284.0</ele><time>2026-03-23T14:15:21.999Z</time></trkpt><trkpt lat="42.6198216739003" lon="2.5945887815617015"><ele>284.0</ele><time>2026-03-23T14:15:22.999Z</time></trkpt><trkpt lat="42.61977498219948" lon="2.5944703415122126"><ele>284.0</ele><time>2026-03-23T14:15:23.999Z</time></trkpt><trkpt lat="42.61974907445569" lon="2.59434955765887"><ele>284.0</ele><time>2026-03-23T14:15:24.999Z</time></trkpt><trkpt lat="42.619717339551684" lon="2.594237110739185"><ele>282.83333333333337</ele><time>2026-03-23T14:15:25.999Z</time></trkpt><trkpt lat="42.619696765570644" lon="2.594113259153364"><ele>281.6666666666667</ele><time>2026-03-23T14:15:26.999Z</time></trkpt><trkpt lat="42.619696253134194" lon="2.5939936995049337"><ele>280.5</ele><time>2026-03-23T14:15:27.999Z</time></trkpt><trkpt lat="42.61970305473347" lon="2.5938822797060412"><ele>279.3333333333333</ele><time>2026-03-23T14:15:28.999Z</time></trkpt><trkpt lat="42.61972257781457" lon="2.593765460089854"><ele>278.16666666666663</ele><time>2026-03-23T14:15:29.999Z</time></trkpt><trkpt lat="42.61976183718737" lon="2.5936596827344878"><ele>277.0</ele><time>2026-03-23T14:15:30.999Z</time></trkpt><trkpt lat="42.619828327426355" lon="2.5935826476444728"><ele>279.8</ele><time>2026-03-23T14:15:31.999Z</time></trkpt><trkpt lat="42.6198909682094" lon="2.593503595159502"><ele>282.6</ele><time>2026-03-23T14:15:32.999Z</time></trkpt><trkpt lat="42.6199714357785" lon="2.593459723547862"><ele>285.40000000000003</ele><time>2026-03-23T14:15:33.999Z</time></trkpt><trkpt lat="42.62006962819079" lon="2.5934342465857716"><ele>288.2</ele><time>2026-03-23T14:15:34.999Z</time></trkpt><trkpt lat="42.620176166103995" lon="2.593359692010876"><ele>291.0</ele><time>2026-03-23T14:15:35.999Z</time></trkpt><trkpt lat="42.620287971672425" lon="2.5932785775971685"><ele>287.40000000000003</ele><time>2026-03-23T14:15:36.999Z</time></trkpt><trkpt lat="42.62039517396551" lon="2.593225922229769"><ele>283.8</ele><time>2026-03-23T14:15:37.998Z</time></trkpt><trkpt lat="42.62049419044523" lon="2.5931891145038923"><ele>280.20000000000005</ele><time>2026-03-23T14:15:38.998Z</time></trkpt><trkpt lat="42.62058931635906" lon="2.5931326724078794"><ele>276.6</ele><time>2026-03-23T14:15:39.998Z</time></trkpt><trkpt lat="42.620688873508186" lon="2.593088820588567"><ele>273.0</ele><time>2026-03-23T14:15:40.998Z</time></trkpt><trkpt lat="42.62075821344724" lon="2.593020171925271"><ele>273.0</ele><time>2026-03-23T14:15:41.998Z</time></trkpt><trkpt lat="42.62082535581258" lon="2.5929846235200578"><ele>273.0</ele><time>2026-03-23T14:15:42.998Z</time></trkpt><trkpt lat="42.620887305102" lon="2.5929491052078837"><ele>273.0</ele><time>2026-03-23T14:15:43.998Z</time></trkpt><trkpt lat="42.62100956895689" lon="2.5929580070295684"><ele>273.0</ele><time>2026-03-23T14:15:45.998Z</time></trkpt><trkpt lat="42.62109180992889" lon="2.593068803142686"><ele>273.0</ele><time>2026-03-23T14:15:47.998Z</time></trkpt><trkpt lat="42.6210910534298" lon="2.5931577981666467"><ele>273.0</ele><time>2026-03-23T14:15:48.998Z</time></trkpt><trkpt lat="42.62109922655061" lon="2.5932532762467204"><ele>273.0</ele><time>2026-03-23T14:15:49.998Z</time></trkpt><trkpt lat="42.62114075366749" lon="2.5933343665238477"><ele>273.0</ele><time>2026-03-23T14:15:50.998Z</time></trkpt><trkpt lat="42.621218883689984" lon="2.59340047261637"><ele>273.0</ele><time>2026-03-23T14:15:51.998Z</time></trkpt><trkpt lat="42.62131644175884" lon="2.5934193384918283"><ele>273.0</ele><time>2026-03-23T14:15:52.998Z</time></trkpt><trkpt lat="42.6214146728668" lon="2.5934203998010386"><ele>273.0</ele><time>2026-03-23T14:15:53.998Z</time></trkpt><trkpt lat="42.62150628296425" lon="2.5934257769679707"><ele>273.0</ele><time>2026-03-23T14:15:54.998Z</time></trkpt><trkpt lat="42.62160572342782" lon="2.59341933177834"><ele>273.0</ele><time>2026-03-23T14:15:55.998Z</time></trkpt><trkpt lat="42.6217077375156" lon="2.593380733938917"><ele>273.0</ele><time>2026-03-23T14:15:56.998Z</time></trkpt><trkpt lat="42.62180149237998" lon="2.59334317043196"><ele>273.0</ele><time>2026-03-23T14:15:57.998Z</time></trkpt><trkpt lat="42.621881231209514" lon="2.5933368939488717"><ele>273.0</ele><time>2026-03-23T14:15:58.998Z</time></trkpt><trkpt lat="42.62195886267038" lon="2.5933573817267535"><ele>272.0</ele><time>2026-03-23T14:15:59.998Z</time></trkpt><trkpt lat="42.622039317829376" lon="2.5933664131082645"><ele>271.0</ele><time>2026-03-23T14:16:00.998Z</time></trkpt><trkpt lat="42.622112556920456" lon="2.5933517621390867"><ele>270.0</ele><time>2026-03-23T14:16:01.998Z</time></trkpt><trkpt lat="42.622187595351306" lon="2.593323036774559"><ele>269.0</ele><time>2026-03-23T14:16:02.998Z</time></trkpt><trkpt lat="42.62225764424699" lon="2.5932658108501303"><ele>268.0</ele><time>2026-03-23T14:16:03.998Z</time></trkpt><trkpt lat="42.62232346300284" lon="2.5931911477634717"><ele>267.0</ele><time>2026-03-23T14:16:04.998Z</time></trkpt><trkpt lat="42.622388406411304" lon="2.5931203160431866"><ele>267.0</ele><time>2026-03-23T14:16:05.998Z</time></trkpt><trkpt lat="42.62241945800517" lon="2.5930041941928086"><ele>267.0</ele><time>2026-03-23T14:16:06.998Z</time></trkpt><trkpt lat="42.62244307666109" lon="2.5929097609468323"><ele>267.0</ele><time>2026-03-23T14:16:07.998Z</time></trkpt><trkpt lat="42.62245398431009" lon="2.5928154598999003"><ele>267.0</ele><time>2026-03-23T14:16:08.998Z</time></trkpt><trkpt lat="42.62249101048304" lon="2.5926661187718967"><ele>267.0</ele><time>2026-03-23T14:16:10.998Z</time></trkpt><trkpt lat="42.622529346276266" lon="2.5925588370821946"><ele>267.0</ele><time>2026-03-23T14:16:12.998Z</time></trkpt><trkpt lat="42.62260449590565" lon="2.592531732472288"><ele>266.6666666666667</ele><time>2026-03-23T14:16:14.998Z</time></trkpt><trkpt lat="42.62271318629347" lon="2.5925519852951657"><ele>266.3333333333333</ele><time>2026-03-23T14:16:16.998Z</time></trkpt><trkpt lat="42.6227896582813" lon="2.592564345278756"><ele>266.0</ele><time>2026-03-23T14:16:17.998Z</time></trkpt><trkpt lat="42.62285751001274" lon="2.592553294857384"><ele>265.66666666666663</ele><time>2026-03-23T14:16:18.998Z</time></trkpt><trkpt lat="42.62292309694877" lon="2.592523207300366"><ele>265.3333333333333</ele><time>2026-03-23T14:16:19.998Z</time></trkpt><trkpt lat="42.622975099273404" lon="2.592420375828245"><ele>265.0</ele><time>2026-03-23T14:16:20.998Z</time></trkpt><trkpt lat="42.62299522434162" lon="2.592268904685206"><ele>266.25</ele><time>2026-03-23T14:16:21.998Z</time></trkpt><trkpt lat="42.623005521042806" lon="2.5921188412688916"><ele>267.5</ele><time>2026-03-23T14:16:22.998Z</time></trkpt><trkpt lat="42.623008161698216" lon="2.5919640063080784"><ele>268.75</ele><time>2026-03-23T14:16:23.997Z</time></trkpt><trkpt lat="42.623043644305575" lon="2.5918074629279575"><ele>270.0</ele><time>2026-03-23T14:16:24.997Z</time></trkpt><trkpt lat="42.623113264713155" lon="2.591656333320771"><ele>270.0</ele><time>2026-03-23T14:16:25.997Z</time></trkpt><trkpt lat="42.623166564379396" lon="2.591514664273932"><ele>270.0</ele><time>2026-03-23T14:16:27Z</time></trkpt><trkpt lat="42.62321703272888" lon="2.59138451182958"><ele>270.0</ele><time>2026-03-23T14:16:28Z</time></trkpt><trkpt lat="42.623252362497496" lon="2.591264506134652"><ele>270.0</ele><time>2026-03-23T14:16:29Z</time></trkpt><trkpt lat="42.62331848735649" lon="2.591175956972288"><ele>270.0</ele><time>2026-03-23T14:16:30Z</time></trkpt><trkpt lat="42.623400356069695" lon="2.5910924690501176"><ele>268.6</ele><time>2026-03-23T14:16:31Z</time></trkpt><trkpt lat="42.623492562876756" lon="2.5910115115509393"><ele>267.2</ele><time>2026-03-23T14:16:32Z</time></trkpt><trkpt lat="42.62359556560744" lon="2.590943187598678"><ele>265.8</ele><time>2026-03-23T14:16:33Z</time></trkpt><trkpt lat="42.62369840020791" lon="2.590896052515219"><ele>264.4</ele><time>2026-03-23T14:16:34Z</time></trkpt><trkpt lat="42.623800544795095" lon="2.5908478914877007"><ele>263.0</ele><time>2026-03-23T14:16:35Z</time></trkpt><trkpt lat="42.62389447295894" lon="2.5908256302385126"><ele>263.0</ele><time>2026-03-23T14:16:36Z</time></trkpt><trkpt lat="42.62398027909222" lon="2.5908341791721217"><ele>263.0</ele><time>2026-03-23T14:16:37Z</time></trkpt><trkpt lat="42.6240620230716" lon="2.5908831106371704"><ele>263.0</ele><time>2026-03-23T14:16:38Z</time></trkpt><trkpt lat="42.62415113649913" lon="2.5909672807297723"><ele>263.0</ele><time>2026-03-23T14:16:39Z</time></trkpt><trkpt lat="42.624246357257135" lon="2.5910866384421802"><ele>263.0</ele><time>2026-03-23T14:16:40Z</time></trkpt><trkpt lat="42.62433487248203" lon="2.591209769737365"><ele>262.75</ele><time>2026-03-23T14:16:41Z</time></trkpt><trkpt lat="42.624427975009944" lon="2.591319229132912"><ele>262.5</ele><time>2026-03-23T14:16:42Z</time></trkpt><trkpt lat="42.62452935174582" lon="2.5914154189835443"><ele>262.25</ele><time>2026-03-23T14:16:43Z</time></trkpt><trkpt lat="42.62463621477277" lon="2.591503423238894"><ele>262.0</ele><time>2026-03-23T14:16:44Z</time></trkpt><trkpt lat="42.6247415221862" lon="2.5915831796938993"><ele>262.0</ele><time>2026-03-23T14:16:45Z</time></trkpt><trkpt lat="42.62484651808307" lon="2.591650683101081"><ele>262.0</ele><time>2026-03-23T14:16:46Z</time></trkpt><trkpt lat="42.624954487707804" lon="2.5917010482114207"><ele>262.0</ele><time>2026-03-23T14:16:47Z</time></trkpt><trkpt lat="42.62505817993061" lon="2.5917441840139563"><ele>262.0</ele><time>2026-03-23T14:16:48Z</time></trkpt><trkpt lat="42.625173013016216" lon="2.591778249385616"><ele>262.0</ele><time>2026-03-23T14:16:49Z</time></trkpt><trkpt lat="42.625268030130414" lon="2.5917797046612736"><ele>262.0</ele><time>2026-03-23T14:16:50Z</time></trkpt><trkpt lat="42.62535895589722" lon="2.5917515122248593"><ele>262.0</ele><time>2026-03-23T14:16:51Z</time></trkpt><trkpt lat="42.625462822963144" lon="2.5917204507682663"><ele>262.0</ele><time>2026-03-23T14:16:52Z</time></trkpt><trkpt lat="42.62553476431362" lon="2.591612855765792"><ele>262.0</ele><time>2026-03-23T14:16:53Z</time></trkpt><trkpt lat="42.625607685784864" lon="2.591534369706067"><ele>261.16666666666663</ele><time>2026-03-23T14:16:54Z</time></trkpt><trkpt lat="42.62567092226033" lon="2.5914747294902143"><ele>260.3333333333333</ele><time>2026-03-23T14:16:55Z</time></trkpt><trkpt lat="42.625733477116604" lon="2.5914408520872123"><ele>259.5</ele><time>2026-03-23T14:16:56Z</time></trkpt><trkpt lat="42.625799785029535" lon="2.591428287438406"><ele>258.6666666666667</ele><time>2026-03-23T14:16:57Z</time></trkpt><trkpt lat="42.625916774085" lon="2.5915150074904085"><ele>257.83333333333337</ele><time>2026-03-23T14:16:59Z</time></trkpt><trkpt lat="42.62596711645591" lon="2.5916042109450124"><ele>257.0</ele><time>2026-03-23T14:17:00Z</time></trkpt><trkpt lat="42.62601901491451" lon="2.5917166773874163"><ele>257.0</ele><time>2026-03-23T14:17:01Z</time></trkpt><trkpt lat="42.62606624717001" lon="2.5918408453951156"><ele>257.0</ele><time>2026-03-23T14:17:02Z</time></trkpt><trkpt lat="42.626109319824714" lon="2.591943241129613"><ele>257.0</ele><time>2026-03-23T14:17:02.999Z</time></trkpt><trkpt lat="42.62615762133181" lon="2.5920318256511923"><ele>257.0</ele><time>2026-03-23T14:17:03.999Z</time></trkpt><trkpt lat="42.62622692661574" lon="2.592107897374242"><ele>257.0</ele><time>2026-03-23T14:17:04.999Z</time></trkpt><trkpt lat="42.62632641396037" lon="2.592137822044001"><ele>256.0</ele><time>2026-03-23T14:17:05.999Z</time></trkpt><trkpt lat="42.6264318683317" lon="2.5921276697505014"><ele>255.0</ele><time>2026-03-23T14:17:06.999Z</time></trkpt><trkpt lat="42.626524758395895" lon="2.592151459946907"><ele>254.0</ele><time>2026-03-23T14:17:07.999Z</time></trkpt><trkpt lat="42.6266051030763" lon="2.592192341966056"><ele>253.0</ele><time>2026-03-23T14:17:08.999Z</time></trkpt><trkpt lat="42.62668028045965" lon="2.5922706489967178"><ele>252.0</ele><time>2026-03-23T14:17:09.999Z</time></trkpt><trkpt lat="42.62673713746249" lon="2.592395502424941"><ele>252.0</ele><time>2026-03-23T14:17:10.999Z</time></trkpt><trkpt lat="42.62679490048062" lon="2.592521405693138"><ele>252.0</ele><time>2026-03-23T14:17:11.999Z</time></trkpt><trkpt lat="42.62686747430202" lon="2.5926537252934496"><ele>252.0</ele><time>2026-03-23T14:17:12.999Z</time></trkpt><trkpt lat="42.62693941434067" lon="2.592772906921193"><ele>252.0</ele><time>2026-03-23T14:17:13.999Z</time></trkpt><trkpt lat="42.62701011435638" lon="2.5928834545722195"><ele>250.16666666666666</ele><time>2026-03-23T14:17:14.999Z</time></trkpt><trkpt lat="42.62707063289577" lon="2.592970171262"><ele>248.33333333333331</ele><time>2026-03-23T14:17:15.999Z</time></trkpt><trkpt lat="42.627126626470144" lon="2.593046026942089"><ele>246.5</ele><time>2026-03-23T14:17:16.999Z</time></trkpt><trkpt lat="42.62718366040142" lon="2.5931098258630105"><ele>244.66666666666666</ele><time>2026-03-23T14:17:17.999Z</time></trkpt><trkpt lat="42.62725146010147" lon="2.5931534690879285"><ele>242.83333333333331</ele><time>2026-03-23T14:17:18.999Z</time></trkpt><trkpt lat="42.6273301688228" lon="2.593172001602058"><ele>241.0</ele><time>2026-03-23T14:17:19.999Z</time></trkpt><trkpt lat="42.6274177747861" lon="2.593157261243413"><ele>241.0</ele><time>2026-03-23T14:17:20.999Z</time></trkpt><trkpt lat="42.62750293575173" lon="2.593114648507524"><ele>241.00000000000003</ele><time>2026-03-23T14:17:21.999Z</time></trkpt><trkpt lat="42.62758154333114" lon="2.5930365179842316"><ele>241.00000000000003</ele><time>2026-03-23T14:17:22.999Z</time></trkpt><trkpt lat="42.627652603485934" lon="2.592930457506462"><ele>241.0</ele><time>2026-03-23T14:17:23.999Z</time></trkpt><trkpt lat="42.627697049062455" lon="2.5927951700931486"><ele>241.0</ele><time>2026-03-23T14:17:24.999Z</time></trkpt><trkpt lat="42.6277237262446" lon="2.592626120664468"><ele>240.20000000000002</ele><time>2026-03-23T14:17:25.999Z</time></trkpt><trkpt lat="42.62773816081158" lon="2.592452024953003"><ele>239.40000000000003</ele><time>2026-03-23T14:17:26.999Z</time></trkpt><trkpt lat="42.627762100768756" lon="2.5922980515953546"><ele>238.6</ele><time>2026-03-23T14:17:27.999Z</time></trkpt><trkpt lat="42.62779232740858" lon="2.592180659811435"><ele>237.8</ele><time>2026-03-23T14:17:28.999Z</time></trkpt><trkpt lat="42.627823320141225" lon="2.5920791502922524"><ele>237.0</ele><time>2026-03-23T14:17:29.999Z</time></trkpt><trkpt lat="42.62786358043854" lon="2.5919625573789555"><ele>236.39999999999998</ele><time>2026-03-23T14:17:31.999Z</time></trkpt><trkpt lat="42.627860153853305" lon="2.5918276998770575"><ele>235.79999999999998</ele><time>2026-03-23T14:17:34.999Z</time></trkpt><trkpt lat="42.62786106940923" lon="2.591732114974244"><ele>235.2</ele><time>2026-03-23T14:17:35.999Z</time></trkpt><trkpt lat="42.62786349783553" lon="2.591618160482572"><ele>234.6</ele><time>2026-03-23T14:17:36.999Z</time></trkpt><trkpt lat="42.62785865891027" lon="2.5914816364731266"><ele>234.0</ele><time>2026-03-23T14:17:37.999Z</time></trkpt><trkpt lat="42.62785164892491" lon="2.591326766795356"><ele>236.25</ele><time>2026-03-23T14:17:38.999Z</time></trkpt><trkpt lat="42.62784288460837" lon="2.5911574173375636"><ele>238.5</ele><time>2026-03-23T14:17:39.999Z</time></trkpt><trkpt lat="42.62782025258097" lon="2.5909794171214795"><ele>240.75</ele><time>2026-03-23T14:17:40.999Z</time></trkpt><trkpt lat="42.627778007019934" lon="2.5907872150596774"><ele>243.0</ele><time>2026-03-23T14:17:41.999Z</time></trkpt><trkpt lat="42.62773850575133" lon="2.5906033922674334"><ele>248.0</ele><time>2026-03-23T14:17:42.999Z</time></trkpt><trkpt lat="42.62771211779935" lon="2.590439888492747"><ele>253.0</ele><time>2026-03-23T14:17:43.999Z</time></trkpt><trkpt lat="42.62768588075902" lon="2.590285213330142"><ele>258.0</ele><time>2026-03-23T14:17:44.999Z</time></trkpt><trkpt lat="42.62764910085579" lon="2.5901242883014413"><ele>263.0</ele><time>2026-03-23T14:17:45.999Z</time></trkpt><trkpt lat="42.62759888489368" lon="2.58997461640826"><ele>263.0</ele><time>2026-03-23T14:17:46.999Z</time></trkpt><trkpt lat="42.627532549033326" lon="2.589834563949125"><ele>263.0</ele><time>2026-03-23T14:17:47.999Z</time></trkpt><trkpt lat="42.627476806226035" lon="2.5897060940476155"><ele>263.0</ele><time>2026-03-23T14:17:48.998Z</time></trkpt><trkpt lat="42.62742328633412" lon="2.5895882850383636"><ele>263.0</ele><time>2026-03-23T14:17:49.998Z</time></trkpt><trkpt lat="42.627387934486755" lon="2.589472793067138"><ele>263.0</ele><time>2026-03-23T14:17:50.998Z</time></trkpt><trkpt lat="42.627354016965015" lon="2.5893558500839178"><ele>263.33333333333337</ele><time>2026-03-23T14:17:51.998Z</time></trkpt><trkpt lat="42.627328877344475" lon="2.5892483002980256"><ele>263.6666666666667</ele><time>2026-03-23T14:17:52.998Z</time></trkpt><trkpt lat="42.62731931705321" lon="2.5891575109085414"><ele>264.0</ele><time>2026-03-23T14:17:53.998Z</time></trkpt><trkpt lat="42.62735602876149" lon="2.5889960339160423"><ele>264.3333333333333</ele><time>2026-03-23T14:17:55.998Z</time></trkpt><trkpt lat="42.627414648190424" lon="2.5889483628101964"><ele>264.66666666666663</ele><time>2026-03-23T14:17:56.998Z</time></trkpt><trkpt lat="42.627496808965624" lon="2.588974044950409"><ele>265.0</ele><time>2026-03-23T14:17:57.998Z</time></trkpt><trkpt lat="42.62756698878549" lon="2.5889681195348566"><ele>265.0</ele><time>2026-03-23T14:17:58.998Z</time></trkpt><trkpt lat="42.627630357360125" lon="2.5889766613528233"><ele>265.0</ele><time>2026-03-23T14:17:59.998Z</time></trkpt><trkpt lat="42.62767133553052" lon="2.589075903269377"><ele>265.0</ele><time>2026-03-23T14:18:00.998Z</time></trkpt><trkpt lat="42.6277172263158" lon="2.5891652547688055"><ele>265.0</ele><time>2026-03-23T14:18:01.998Z</time></trkpt><trkpt lat="42.62777162403381" lon="2.5892481356524004"><ele>265.0</ele><time>2026-03-23T14:18:02.998Z</time></trkpt><trkpt lat="42.62781587846555" lon="2.5893795877484624"><ele>265.0</ele><time>2026-03-23T14:18:03.998Z</time></trkpt><trkpt lat="42.62787068510039" lon="2.589497212183617"><ele>263.8</ele><time>2026-03-23T14:18:04.998Z</time></trkpt><trkpt lat="42.627924045456595" lon="2.5895699948744677"><ele>262.6</ele><time>2026-03-23T14:18:05.998Z</time></trkpt><trkpt lat="42.62800717470464" lon="2.589676420016563"><ele>261.4</ele><time>2026-03-23T14:18:06.998Z</time></trkpt><trkpt lat="42.628097151029365" lon="2.5897619830048564"><ele>260.2</ele><time>2026-03-23T14:18:07.998Z</time></trkpt><trkpt lat="42.62818974985564" lon="2.589829258999482"><ele>259.0</ele><time>2026-03-23T14:18:08.998Z</time></trkpt><trkpt lat="42.62826239618442" lon="2.5898843765271526"><ele>259.0</ele><time>2026-03-23T14:18:09.998Z</time></trkpt><trkpt lat="42.62833390034578" lon="2.5899214058403217"><ele>259.0</ele><time>2026-03-23T14:18:10.998Z</time></trkpt><trkpt lat="42.6284049099496" lon="2.589943744431952"><ele>259.0</ele><time>2026-03-23T14:18:11.998Z</time></trkpt><trkpt lat="42.628514256504324" lon="2.5899158798326987"><ele>259.0</ele><time>2026-03-23T14:18:13.998Z</time></trkpt><trkpt lat="42.62856792325523" lon="2.5897607074284488"><ele>259.0</ele><time>2026-03-23T14:18:15.998Z</time></trkpt><trkpt lat="42.62855932937137" lon="2.5896470524787634"><ele>259.0</ele><time>2026-03-23T14:18:16.998Z</time></trkpt><trkpt lat="42.62853949892587" lon="2.589520044908363"><ele>259.0</ele><time>2026-03-23T14:18:17.998Z</time></trkpt><trkpt lat="42.628523649572585" lon="2.589380183225121"><ele>259.0</ele><time>2026-03-23T14:18:18.998Z</time></trkpt><trkpt lat="42.628508753078975" lon="2.5892305155250543"><ele>259.0</ele><time>2026-03-23T14:18:19.998Z</time></trkpt><trkpt lat="42.62849604205177" lon="2.589080712903447"><ele>259.0</ele><time>2026-03-23T14:18:20.998Z</time></trkpt><trkpt lat="42.62848713580845" lon="2.5889556047893296"><ele>261.2</ele><time>2026-03-23T14:18:21.998Z</time></trkpt><trkpt lat="42.62846569059083" lon="2.58883248464397"><ele>263.4</ele><time>2026-03-23T14:18:22.998Z</time></trkpt><trkpt lat="42.62842288860477" lon="2.5887175665776376"><ele>265.6</ele><time>2026-03-23T14:18:23.998Z</time></trkpt><trkpt lat="42.62837287632074" lon="2.5886106054593947"><ele>267.8</ele><time>2026-03-23T14:18:24.998Z</time></trkpt><trkpt lat="42.6283368433719" lon="2.5885025186752935"><ele>270.0</ele><time>2026-03-23T14:18:25.998Z</time></trkpt><trkpt lat="42.62833146045791" lon="2.588383125189409"><ele>270.8</ele><time>2026-03-23T14:18:26.998Z</time></trkpt><trkpt lat="42.628348562893535" lon="2.5882442952000653"><ele>271.6</ele><time>2026-03-23T14:18:27.998Z</time></trkpt><trkpt lat="42.628410450517556" lon="2.5881157897932168"><ele>272.4</ele><time>2026-03-23T14:18:28.998Z</time></trkpt><trkpt lat="42.62841917320326" lon="2.5879657045601707"><ele>273.2</ele><time>2026-03-23T14:18:29.998Z</time></trkpt><trkpt lat="42.62842863807045" lon="2.5878349667271148"><ele>274.0</ele><time>2026-03-23T14:18:30.998Z</time></trkpt><trkpt lat="42.628440647619996" lon="2.587710029686258"><ele>273.4</ele><time>2026-03-23T14:18:31.998Z</time></trkpt><trkpt lat="42.628467585214935" lon="2.587588594905661"><ele>272.79999999999995</ele><time>2026-03-23T14:18:33Z</time></trkpt><trkpt lat="42.62852774156583" lon="2.5874709566179197"><ele>272.20000000000005</ele><time>2026-03-23T14:18:34Z</time></trkpt><trkpt lat="42.62861504772041" lon="2.5873649139219195"><ele>271.6</ele><time>2026-03-23T14:18:35Z</time></trkpt><trkpt lat="42.62869861779538" lon="2.5872759339379106"><ele>271.0</ele><time>2026-03-23T14:18:36Z</time></trkpt><trkpt lat="42.628783662940286" lon="2.587208258588842"><ele>271.0</ele><time>2026-03-23T14:18:37Z</time></trkpt><trkpt lat="42.6288666674108" lon="2.5871683634561067"><ele>271.0</ele><time>2026-03-23T14:18:38Z</time></trkpt><trkpt lat="42.6289583718542" lon="2.5871553717652302"><ele>271.0</ele><time>2026-03-23T14:18:39Z</time></trkpt><trkpt lat="42.629059519669134" lon="2.587197731877203"><ele>271.0</ele><time>2026-03-23T14:18:40Z</time></trkpt><trkpt lat="42.62916090591603" lon="2.5871989294799684"><ele>271.0</ele><time>2026-03-23T14:18:41Z</time></trkpt><trkpt lat="42.62926013055138" lon="2.5872331752248625"><ele>271.0</ele><time>2026-03-23T14:18:42Z</time></trkpt><trkpt lat="42.62933372049916" lon="2.587272356892215"><ele>271.0</ele><time>2026-03-23T14:18:43Z</time></trkpt><trkpt lat="42.62939343335046" lon="2.587315182067382"><ele>271.0</ele><time>2026-03-23T14:18:44Z</time></trkpt><trkpt lat="42.62946147549304" lon="2.587343775860828"><ele>271.0</ele><time>2026-03-23T14:18:45Z</time></trkpt><trkpt lat="42.62952859315572" lon="2.587329919835295"><ele>271.0</ele><time>2026-03-23T14:18:46Z</time></trkpt><trkpt lat="42.629590808597676" lon="2.587270043968294"><ele>271.0</ele><time>2026-03-23T14:18:47Z</time></trkpt><trkpt lat="42.62963206027314" lon="2.587167820720855"><ele>271.0</ele><time>2026-03-23T14:18:48Z</time></trkpt><trkpt lat="42.629644211615364" lon="2.587056319778793"><ele>275.40000000000003</ele><time>2026-03-23T14:18:49Z</time></trkpt><trkpt lat="42.62965216079866" lon="2.586940398783227"><ele>279.8</ele><time>2026-03-23T14:18:50Z</time></trkpt><trkpt lat="42.62968428076809" lon="2.5868478123462992"><ele>284.20000000000005</ele><time>2026-03-23T14:18:51Z</time></trkpt><trkpt lat="42.62974549804668" lon="2.586791538890344"><ele>288.6</ele><time>2026-03-23T14:18:52Z</time></trkpt><trkpt lat="42.62986061338713" lon="2.586799969226216"><ele>293.0</ele><time>2026-03-23T14:18:53Z</time></trkpt><trkpt lat="42.629959944764344" lon="2.5867278202637056"><ele>293.0</ele><time>2026-03-23T14:18:54Z</time></trkpt><trkpt lat="42.630046279477156" lon="2.586650468178673"><ele>293.0</ele><time>2026-03-23T14:18:55Z</time></trkpt><trkpt lat="42.63013633241091" lon="2.5865907749473442"><ele>293.0</ele><time>2026-03-23T14:18:56Z</time></trkpt><trkpt lat="42.63021968823825" lon="2.5865419458110916"><ele>293.0</ele><time>2026-03-23T14:18:57Z</time></trkpt><trkpt lat="42.63030028799443" lon="2.5864961005742253"><ele>293.0</ele><time>2026-03-23T14:18:58Z</time></trkpt><trkpt lat="42.63036637914407" lon="2.5864814397334106"><ele>293.0</ele><time>2026-03-23T14:18:59Z</time></trkpt><trkpt lat="42.630449297601324" lon="2.5865019456515146"><ele>290.6666666666667</ele><time>2026-03-23T14:19:00Z</time></trkpt><trkpt lat="42.6305277410876" lon="2.5865506223264085"><ele>288.33333333333337</ele><time>2026-03-23T14:19:01Z</time></trkpt><trkpt lat="42.63061300874781" lon="2.5866145926296253"><ele>286.0</ele><time>2026-03-23T14:19:02Z</time></trkpt><trkpt lat="42.6306968081515" lon="2.586636345578031"><ele>283.6666666666667</ele><time>2026-03-23T14:19:03Z</time></trkpt><trkpt lat="42.630779754421404" lon="2.5866179443685793"><ele>281.3333333333333</ele><time>2026-03-23T14:19:04Z</time></trkpt><trkpt lat="42.630856162178176" lon="2.5865890092519446"><ele>279.0</ele><time>2026-03-23T14:19:05Z</time></trkpt><trkpt lat="42.630921026800436" lon="2.5865841212971197"><ele>279.0</ele><time>2026-03-23T14:19:06Z</time></trkpt><trkpt lat="42.63098547332804" lon="2.5865998368589174"><ele>279.0</ele><time>2026-03-23T14:19:07Z</time></trkpt><trkpt lat="42.63104405232465" lon="2.5866394248769233"><ele>279.0</ele><time>2026-03-23T14:19:08Z</time></trkpt><trkpt lat="42.63113046617667" lon="2.5867502041423087"><ele>279.0</ele><time>2026-03-23T14:19:09.999Z</time></trkpt><trkpt lat="42.63119211353044" lon="2.586768871653234"><ele>279.0</ele><time>2026-03-23T14:19:10.999Z</time></trkpt><trkpt lat="42.63125987297216" lon="2.5867439117832594"><ele>279.0</ele><time>2026-03-23T14:19:11.999Z</time></trkpt><trkpt lat="42.631314265182056" lon="2.5866658802956968"><ele>279.8333333333333</ele><time>2026-03-23T14:19:12.999Z</time></trkpt><trkpt lat="42.63135461885246" lon="2.5865907965938373"><ele>280.6666666666667</ele><time>2026-03-23T14:19:13.999Z</time></trkpt><trkpt lat="42.63135308074487" lon="2.586479701391322"><ele>281.5</ele><time>2026-03-23T14:19:14.999Z</time></trkpt><trkpt lat="42.631334664299324" lon="2.5863617105395913"><ele>282.33333333333337</ele><time>2026-03-23T14:19:15.999Z</time></trkpt><trkpt lat="42.63133354763162" lon="2.5862538375137394"><ele>283.1666666666667</ele><time>2026-03-23T14:19:16.999Z</time></trkpt><trkpt lat="42.631315067587536" lon="2.586160072241067"><ele>284.0</ele><time>2026-03-23T14:19:17.999Z</time></trkpt><trkpt lat="42.63133337200642" lon="2.5860737476879954"><ele>284.0</ele><time>2026-03-23T14:19:18.999Z</time></trkpt><trkpt lat="42.63137419639785" lon="2.5859934489620913"><ele>284.0</ele><time>2026-03-23T14:19:19.999Z</time></trkpt><trkpt lat="42.631447302731345" lon="2.585938988536816"><ele>284.0</ele><time>2026-03-23T14:19:20.999Z</time></trkpt><trkpt lat="42.631541145356096" lon="2.58592664669919"><ele>284.0</ele><time>2026-03-23T14:19:21.999Z</time></trkpt><trkpt lat="42.63161851215095" lon="2.5858473851789263"><ele>284.0</ele><time>2026-03-23T14:19:22.999Z</time></trkpt><trkpt lat="42.63170969331953" lon="2.585772199859574"><ele>284.0</ele><time>2026-03-23T14:19:23.999Z</time></trkpt><trkpt lat="42.631770006543135" lon="2.5856930230290605"><ele>284.0</ele><time>2026-03-23T14:19:24.999Z</time></trkpt><trkpt lat="42.63182803951806" lon="2.585607488159745"><ele>284.0</ele><time>2026-03-23T14:19:25.999Z</time></trkpt><trkpt lat="42.63188276239068" lon="2.5855123976084053"><ele>284.0</ele><time>2026-03-23T14:19:26.999Z</time></trkpt><trkpt lat="42.63193981797312" lon="2.585456461257865"><ele>284.0</ele><time>2026-03-23T14:19:27.999Z</time></trkpt><trkpt lat="42.63200434955155" lon="2.5853817284179423"><ele>284.0</ele><time>2026-03-23T14:19:28.999Z</time></trkpt><trkpt lat="42.63207096042423" lon="2.5853228786283307"><ele>285.85714285714283</ele><time>2026-03-23T14:19:29.999Z</time></trkpt><trkpt lat="42.63212965914493" lon="2.585270492280497"><ele>287.71428571428567</ele><time>2026-03-23T14:19:30.999Z</time></trkpt><trkpt lat="42.63219690566721" lon="2.58527508201461"><ele>289.57142857142856</ele><time>2026-03-23T14:19:31.999Z</time></trkpt><trkpt lat="42.63224735394603" lon="2.585357321669739"><ele>291.42857142857144</ele><time>2026-03-23T14:19:32.999Z</time></trkpt><trkpt lat="42.63229385353047" lon="2.585433800515983"><ele>293.28571428571433</ele><time>2026-03-23T14:19:33.999Z</time></trkpt><trkpt lat="42.6323373836359" lon="2.5855145998421367"><ele>295.14285714285717</ele><time>2026-03-23T14:19:34.999Z</time></trkpt><trkpt lat="42.63237745009328" lon="2.5855914109189495"><ele>297.0</ele><time>2026-03-23T14:19:35.999Z</time></trkpt><trkpt lat="42.63244179174828" lon="2.5856426552120397"><ele>293.0</ele><time>2026-03-23T14:19:36.999Z</time></trkpt><trkpt lat="42.63253175482431" lon="2.5856500151910344"><ele>289.0</ele><time>2026-03-23T14:19:37.999Z</time></trkpt><trkpt lat="42.63261845696226" lon="2.5856376829134886"><ele>285.0</ele><time>2026-03-23T14:19:38.999Z</time></trkpt><trkpt lat="42.63270540410754" lon="2.5856337735901818"><ele>281.0</ele><time>2026-03-23T14:19:39.999Z</time></trkpt><trkpt lat="42.63278100767851" lon="2.5856718953191162"><ele>277.0</ele><time>2026-03-23T14:19:40.999Z</time></trkpt><trkpt lat="42.6328337504715" lon="2.5857649013850676"><ele>273.0</ele><time>2026-03-23T14:19:41.999Z</time></trkpt><trkpt lat="42.63289628542203" lon="2.585823904755281"><ele>273.0</ele><time>2026-03-23T14:19:42.999Z</time></trkpt><trkpt lat="42.63296318469317" lon="2.5858795115004947"><ele>273.0</ele><time>2026-03-23T14:19:43.999Z</time></trkpt><trkpt lat="42.63306642860926" lon="2.585906098781184"><ele>273.0</ele><time>2026-03-23T14:19:44.999Z</time></trkpt><trkpt lat="42.633214846175605" lon="2.5859068755565855"><ele>273.0</ele><time>2026-03-23T14:19:45.999Z</time></trkpt><trkpt lat="42.633296853612634" lon="2.585942451965643"><ele>273.0</ele><time>2026-03-23T14:19:47.999Z</time></trkpt><trkpt lat="42.63336615543863" lon="2.586001121549497"><ele>273.0</ele><time>2026-03-23T14:19:48.999Z</time></trkpt><trkpt lat="42.6334340752939" lon="2.5860784247335618"><ele>273.0</ele><time>2026-03-23T14:19:49.999Z</time></trkpt><trkpt lat="42.63349217731761" lon="2.5861472641933907"><ele>273.0</ele><time>2026-03-23T14:19:50.999Z</time></trkpt><trkpt lat="42.633553822225295" lon="2.586197341396538"><ele>273.0</ele><time>2026-03-23T14:19:51.999Z</time></trkpt><trkpt lat="42.63362242597251" lon="2.5862339210148106"><ele>273.0</ele><time>2026-03-23T14:19:52.999Z</time></trkpt><trkpt lat="42.63368459544243" lon="2.5862657333685752"><ele>273.0</ele><time>2026-03-23T14:19:53.999Z</time></trkpt><trkpt lat="42.63377580344139" lon="2.586327823213681"><ele>265.6</ele><time>2026-03-23T14:19:55.998Z</time></trkpt><trkpt lat="42.63383171459323" lon="2.586373232757325"><ele>258.20000000000005</ele><time>2026-03-23T14:19:57.998Z</time></trkpt><trkpt lat="42.63394349247572" lon="2.5863600489477276"><ele>250.8</ele><time>2026-03-23T14:22:37.998Z</time></trkpt><trkpt lat="42.6340658213496" lon="2.5863629436606237"><ele>243.4</ele><time>2026-03-23T14:22:39.998Z</time></trkpt><trkpt lat="42.63418793305787" lon="2.5863395789046417"><ele>236.0</ele><time>2026-03-23T14:22:41.998Z</time></trkpt><trkpt lat="42.63425178984388" lon="2.586309532504023"><ele>236.0</ele><time>2026-03-23T14:22:42.998Z</time></trkpt><trkpt lat="42.63430764786469" lon="2.5862642781524037"><ele>236.00000000000003</ele><time>2026-03-23T14:22:43.998Z</time></trkpt><trkpt lat="42.63437186932476" lon="2.5861913351015158"><ele>236.00000000000003</ele><time>2026-03-23T14:22:44.996Z</time></trkpt><trkpt lat="42.63443818959567" lon="2.5860840066448474"><ele>236.0</ele><time>2026-03-23T14:22:45.996Z</time></trkpt><trkpt lat="42.63449364169019" lon="2.585965823110608"><ele>236.0</ele><time>2026-03-23T14:22:46.996Z</time></trkpt><trkpt lat="42.6345428041313" lon="2.585829082486037"><ele>233.75</ele><time>2026-03-23T14:22:47.996Z</time></trkpt><trkpt lat="42.63459759870023" lon="2.5856892595519887"><ele>231.5</ele><time>2026-03-23T14:22:48.996Z</time></trkpt><trkpt lat="42.63466278300745" lon="2.585553251865459"><ele>229.25</ele><time>2026-03-23T14:22:49.997Z</time></trkpt><trkpt lat="42.634746281203945" lon="2.5853861680893107"><ele>227.0</ele><time>2026-03-23T14:22:50.997Z</time></trkpt><trkpt lat="42.63479709933783" lon="2.585217830877803"><ele>233.39999999999998</ele><time>2026-03-23T14:22:52.997Z</time></trkpt><trkpt lat="42.634847609008624" lon="2.585112800665946"><ele>239.79999999999998</ele><time>2026-03-23T14:22:53.997Z</time></trkpt><trkpt lat="42.63490252582427" lon="2.5850226929064752"><ele>246.2</ele><time>2026-03-23T14:22:54.997Z</time></trkpt><trkpt lat="42.63497346148052" lon="2.584940591497725"><ele>252.6</ele><time>2026-03-23T14:22:55.997Z</time></trkpt><trkpt lat="42.63507047170334" lon="2.584894975625666"><ele>259.0</ele><time>2026-03-23T14:22:56.997Z</time></trkpt><trkpt lat="42.63513478767864" lon="2.5848050614952407"><ele>259.0</ele><time>2026-03-23T14:22:57.997Z</time></trkpt><trkpt lat="42.63520740075381" lon="2.584736266530332"><ele>259.0</ele><time>2026-03-23T14:22:58.997Z</time></trkpt><trkpt lat="42.63528794693508" lon="2.584689257790734"><ele>259.0</ele><time>2026-03-23T14:22:59.997Z</time></trkpt><trkpt lat="42.63538294694288" lon="2.5847210507626768"><ele>259.0</ele><time>2026-03-23T14:23:00.997Z</time></trkpt><trkpt lat="42.63547795909776" lon="2.5847233987650777"><ele>259.0</ele><time>2026-03-23T14:23:01.997Z</time></trkpt><trkpt lat="42.635567280833115" lon="2.584760967254392"><ele>256.4</ele><time>2026-03-23T14:23:02.998Z</time></trkpt><trkpt lat="42.6356430310811" lon="2.5848318239886834"><ele>253.79999999999998</ele><time>2026-03-23T14:23:03.998Z</time></trkpt><trkpt lat="42.635726411987875" lon="2.584894280596196"><ele>251.20000000000002</ele><time>2026-03-23T14:23:04.998Z</time></trkpt><trkpt lat="42.63581132552139" lon="2.584957885226083"><ele>248.60000000000002</ele><time>2026-03-23T14:23:05.998Z</time></trkpt><trkpt lat="42.63589360172043" lon="2.5850287770882394"><ele>246.0</ele><time>2026-03-23T14:23:06.998Z</time></trkpt><trkpt lat="42.63597823197374" lon="2.585087687763607"><ele>246.0</ele><time>2026-03-23T14:23:07.998Z</time></trkpt><trkpt lat="42.63605582640044" lon="2.5851213452772677"><ele>246.0</ele><time>2026-03-23T14:23:08.998Z</time></trkpt><trkpt lat="42.636121228278604" lon="2.585162332327481"><ele>246.0</ele><time>2026-03-23T14:23:09.998Z</time></trkpt><trkpt lat="42.636205114346" lon="2.5852298414620467"><ele>246.0</ele><time>2026-03-23T14:23:11.998Z</time></trkpt><trkpt lat="42.63629013045597" lon="2.5851829627208605"><ele>246.0</ele><time>2026-03-23T14:23:13.998Z</time></trkpt><trkpt lat="42.6363354977811" lon="2.5851092643907183"><ele>246.0</ele><time>2026-03-23T14:23:14.998Z</time></trkpt><trkpt lat="42.63638536993972" lon="2.5850144996817757"><ele>248.66666666666666</ele><time>2026-03-23T14:23:15.998Z</time></trkpt><trkpt lat="42.63643937377254" lon="2.5849127014287827"><ele>251.33333333333331</ele><time>2026-03-23T14:23:16.998Z</time></trkpt><trkpt lat="42.63649750187257" lon="2.584808329158709"><ele>254.0</ele><time>2026-03-23T14:23:17.998Z</time></trkpt><trkpt lat="42.63654792583773" lon="2.584714037172559"><ele>256.66666666666663</ele><time>2026-03-23T14:23:18.998Z</time></trkpt><trkpt lat="42.63659860304305" lon="2.584623085595316"><ele>259.3333333333333</ele><time>2026-03-23T14:23:19.998Z</time></trkpt><trkpt lat="42.636646578756434" lon="2.584545941628893"><ele>262.0</ele><time>2026-03-23T14:23:20.998Z</time></trkpt><trkpt lat="42.636725018412214" lon="2.584469952490616"><ele>262.0</ele><time>2026-03-23T14:23:21.998Z</time></trkpt><trkpt lat="42.63680624239536" lon="2.584414673866526"><ele>262.0</ele><time>2026-03-23T14:23:22.998Z</time></trkpt><trkpt lat="42.636893858818674" lon="2.584365109444073"><ele>262.0</ele><time>2026-03-23T14:23:23.998Z</time></trkpt><trkpt lat="42.63698420388192" lon="2.584314856225868"><ele>262.0</ele><time>2026-03-23T14:23:24.998Z</time></trkpt><trkpt lat="42.637076814328935" lon="2.584265934388098"><ele>262.0</ele><time>2026-03-23T14:23:25.998Z</time></trkpt><trkpt lat="42.637163357411275" lon="2.584223071635281"><ele>255.2857142857143</ele><time>2026-03-23T14:23:26.998Z</time></trkpt><trkpt lat="42.63724505384417" lon="2.5841832914354077"><ele>248.5714285714286</ele><time>2026-03-23T14:23:27.998Z</time></trkpt><trkpt lat="42.637304085616364" lon="2.5841475581506743"><ele>241.85714285714286</ele><time>2026-03-23T14:23:28.998Z</time></trkpt><trkpt lat="42.63736682014709" lon="2.58410928968911"><ele>235.14285714285717</ele><time>2026-03-23T14:23:29.998Z</time></trkpt><trkpt lat="42.63741673279069" lon="2.584049458866672"><ele>228.42857142857144</ele><time>2026-03-23T14:23:30.998Z</time></trkpt><trkpt lat="42.63746052763049" lon="2.583962937506821"><ele>221.71428571428572</ele><time>2026-03-23T14:23:31.998Z</time></trkpt><trkpt lat="42.637490489559916" lon="2.58385709314015"><ele>215.0</ele><time>2026-03-23T14:23:32.998Z</time></trkpt><trkpt lat="42.63750128834156" lon="2.58373578760453"><ele>218.25</ele><time>2026-03-23T14:23:33.998Z</time></trkpt><trkpt lat="42.63750448036899" lon="2.583596450654641"><ele>221.5</ele><time>2026-03-23T14:23:34.998Z</time></trkpt><trkpt lat="42.63748863574353" lon="2.583453717620375"><ele>224.75</ele><time>2026-03-23T14:23:35.998Z</time></trkpt><trkpt lat="42.637484578256405" lon="2.583310162727202"><ele>228.0</ele><time>2026-03-23T14:23:36.998Z</time></trkpt><trkpt lat="42.63754456564281" lon="2.5830000029655285"><ele>228.4</ele><time>2026-03-23T14:23:38.998Z</time></trkpt><trkpt lat="42.63758538588769" lon="2.582831159685434"><ele>228.8</ele><time>2026-03-23T14:23:39.998Z</time></trkpt><trkpt lat="42.63759502439311" lon="2.5826972074959715"><ele>229.2</ele><time>2026-03-23T14:23:40.998Z</time></trkpt><trkpt lat="42.6375934349167" lon="2.582547892421829"><ele>229.6</ele><time>2026-03-23T14:23:41.998Z</time></trkpt><trkpt lat="42.63759095956594" lon="2.5824047411100812"><ele>230.0</ele><time>2026-03-23T14:23:42.998Z</time></trkpt><trkpt lat="42.63760020031974" lon="2.5822589847262343"><ele>230.0</ele><time>2026-03-23T14:23:43.998Z</time></trkpt><trkpt lat="42.63761137920855" lon="2.5821030512732057"><ele>230.0</ele><time>2026-03-23T14:23:44.998Z</time></trkpt><trkpt lat="42.63762338777047" lon="2.5819582815238316"><ele>230.0</ele><time>2026-03-23T14:23:45.998Z</time></trkpt><trkpt lat="42.63762954607826" lon="2.581841155269165"><ele>230.0</ele><time>2026-03-23T14:23:46.998Z</time></trkpt><trkpt lat="42.637626678527646" lon="2.5817221904550394"><ele>230.0</ele><time>2026-03-23T14:23:47.998Z</time></trkpt><trkpt lat="42.637605020121555" lon="2.5816082314193056"><ele>231.0</ele><time>2026-03-23T14:23:48.998Z</time></trkpt><trkpt lat="42.637562397338044" lon="2.581494733010796"><ele>232.0</ele><time>2026-03-23T14:23:49.998Z</time></trkpt><trkpt lat="42.63752024604318" lon="2.5813778538768335"><ele>233.0</ele><time>2026-03-23T14:23:50.998Z</time></trkpt><trkpt lat="42.63749354501541" lon="2.581279225071492"><ele>234.0</ele><time>2026-03-23T14:23:51.998Z</time></trkpt><trkpt lat="42.63749074913496" lon="2.581133225504114"><ele>235.0</ele><time>2026-03-23T14:23:53.998Z</time></trkpt><trkpt lat="42.63760008646947" lon="2.5810592068652642"><ele>235.8</ele><time>2026-03-23T14:23:55.998Z</time></trkpt><trkpt lat="42.63767015048269" lon="2.581076305916882"><ele>236.6</ele><time>2026-03-23T14:23:56.998Z</time></trkpt><trkpt lat="42.63775335466133" lon="2.581077756058809"><ele>237.39999999999998</ele><time>2026-03-23T14:23:57.998Z</time></trkpt><trkpt lat="42.63782979453636" lon="2.581174182594265"><ele>238.2</ele><time>2026-03-23T14:23:58.998Z</time></trkpt><trkpt lat="42.63790177034342" lon="2.581278584359644"><ele>239.0</ele><time>2026-03-23T14:23:59.998Z</time></trkpt><trkpt lat="42.63798451170621" lon="2.5813973389540794"><ele>240.25</ele><time>2026-03-23T14:24:00.998Z</time></trkpt><trkpt lat="42.63806025824315" lon="2.5815219814111763"><ele>241.5</ele><time>2026-03-23T14:24:01.998Z</time></trkpt><trkpt lat="42.63813514021443" lon="2.5816525642992976"><ele>242.75</ele><time>2026-03-23T14:24:02.998Z</time></trkpt><trkpt lat="42.63820350772393" lon="2.5817839090479806"><ele>244.0</ele><time>2026-03-23T14:24:03.998Z</time></trkpt><trkpt lat="42.63826178838487" lon="2.5819021345009374"><ele>238.39999999999998</ele><time>2026-03-23T14:24:04.998Z</time></trkpt><trkpt lat="42.63831646998075" lon="2.5820259923651614"><ele>232.79999999999998</ele><time>2026-03-23T14:24:05.998Z</time></trkpt><trkpt lat="42.63837454084806" lon="2.5821465673380497"><ele>227.20000000000002</ele><time>2026-03-23T14:24:06.998Z</time></trkpt><trkpt lat="42.63845122496865" lon="2.5822444620193656"><ele>221.60000000000002</ele><time>2026-03-23T14:24:07.998Z</time></trkpt><trkpt lat="42.63851833649145" lon="2.5823295243961963"><ele>216.0</ele><time>2026-03-23T14:24:08.998Z</time></trkpt><trkpt lat="42.63859304546288" lon="2.582402982308449"><ele>217.0</ele><time>2026-03-23T14:24:09.998Z</time></trkpt><trkpt lat="42.63867820810602" lon="2.58245113901171"><ele>218.00000000000003</ele><time>2026-03-23T14:24:10.998Z</time></trkpt><trkpt lat="42.63877247131245" lon="2.582477082955809"><ele>219.00000000000003</ele><time>2026-03-23T14:24:11.998Z</time></trkpt><trkpt lat="42.63887485824304" lon="2.582470493698873"><ele>220.0</ele><time>2026-03-23T14:24:12.998Z</time></trkpt><trkpt lat="42.63899516993101" lon="2.5824455946250935"><ele>221.0</ele><time>2026-03-23T14:24:13.998Z</time></trkpt><trkpt lat="42.639122361740014" lon="2.582421786787236"><ele>221.0</ele><time>2026-03-23T14:24:14.998Z</time></trkpt><trkpt lat="42.639248019843734" lon="2.582407940004658"><ele>221.0</ele><time>2026-03-23T14:24:15.998Z</time></trkpt><trkpt lat="42.639369522099294" lon="2.5823820575105576"><ele>221.0</ele><time>2026-03-23T14:24:16.998Z</time></trkpt><trkpt lat="42.639478604786184" lon="2.582397670530153"><ele>221.0</ele><time>2026-03-23T14:24:17.998Z</time></trkpt><trkpt lat="42.639585278001825" lon="2.5824315442435553"><ele>225.4</ele><time>2026-03-23T14:24:18.998Z</time></trkpt><trkpt lat="42.6396922666957" lon="2.5824986621329407"><ele>229.8</ele><time>2026-03-23T14:24:19.998Z</time></trkpt><trkpt lat="42.63978068994373" lon="2.582559328803298"><ele>234.20000000000002</ele><time>2026-03-23T14:24:20.998Z</time></trkpt><trkpt lat="42.63986238733056" lon="2.582623293240753"><ele>238.60000000000002</ele><time>2026-03-23T14:24:21.998Z</time></trkpt><trkpt lat="42.63993865665759" lon="2.5827055701410186"><ele>243.0</ele><time>2026-03-23T14:24:22.998Z</time></trkpt><trkpt lat="42.6399982734967" lon="2.582821514961815"><ele>244.0</ele><time>2026-03-23T14:24:23.998Z</time></trkpt><trkpt lat="42.640077406412615" lon="2.5829607524594707"><ele>245.0</ele><time>2026-03-23T14:24:24.998Z</time></trkpt><trkpt lat="42.64017592481769" lon="2.583097257683853"><ele>246.0</ele><time>2026-03-23T14:24:25.998Z</time></trkpt><trkpt lat="42.64025048815143" lon="2.583222490419791"><ele>247.0</ele><time>2026-03-23T14:24:26.998Z</time></trkpt><trkpt lat="42.64032051337761" lon="2.583329239772088"><ele>247.0</ele><time>2026-03-23T14:24:27.998Z</time></trkpt><trkpt lat="42.640365736864126" lon="2.583440782169557"><ele>247.0</ele><time>2026-03-23T14:24:28.998Z</time></trkpt><trkpt lat="42.6404035010881" lon="2.583558033646147"><ele>247.0</ele><time>2026-03-23T14:24:29.998Z</time></trkpt><trkpt lat="42.64041244498241" lon="2.583688059971658"><ele>247.0</ele><time>2026-03-23T14:24:30.998Z</time></trkpt><trkpt lat="42.640427277703964" lon="2.5838289163083306"><ele>247.0</ele><time>2026-03-23T14:24:31.998Z</time></trkpt><trkpt lat="42.640460287137046" lon="2.583962011336261"><ele>243.75</ele><time>2026-03-23T14:24:32.998Z</time></trkpt><trkpt lat="42.640483986976285" lon="2.5841005451513177"><ele>240.5</ele><time>2026-03-23T14:24:33.998Z</time></trkpt><trkpt lat="42.640527324223676" lon="2.584245935261728"><ele>237.25</ele><time>2026-03-23T14:24:34.997Z</time></trkpt><trkpt lat="42.640586498225886" lon="2.584420061030819"><ele>234.0</ele><time>2026-03-23T14:24:35.997Z</time></trkpt><trkpt lat="42.64063131264049" lon="2.5845988091526126"><ele>231.25</ele><time>2026-03-23T14:24:36.997Z</time></trkpt><trkpt lat="42.64068233534926" lon="2.5847423270502445"><ele>228.5</ele><time>2026-03-23T14:24:37.997Z</time></trkpt><trkpt lat="42.64073437148935" lon="2.5848726921546414"><ele>225.75</ele><time>2026-03-23T14:24:38.997Z</time></trkpt><trkpt lat="42.640796077689124" lon="2.585005604034109"><ele>223.0</ele><time>2026-03-23T14:24:39.997Z</time></trkpt><trkpt lat="42.640867919890525" lon="2.585118234708002"><ele>222.99999999999997</ele><time>2026-03-23T14:24:40.997Z</time></trkpt><trkpt lat="42.64091531811028" lon="2.5852544144608793"><ele>223.0</ele><time>2026-03-23T14:24:41.997Z</time></trkpt><trkpt lat="42.6409422976032" lon="2.585355811269496"><ele>223.0</ele><time>2026-03-23T14:24:42.997Z</time></trkpt><trkpt lat="42.6409575979113" lon="2.5854395453215333"><ele>223.0</ele><time>2026-03-23T14:24:43.997Z</time></trkpt><trkpt lat="42.64097653327786" lon="2.585560163324808"><ele>222.99999999999997</ele><time>2026-03-23T14:24:45.997Z</time></trkpt><trkpt lat="42.64099267326461" lon="2.5856449258330234"><ele>223.0</ele><time>2026-03-23T14:24:47.997Z</time></trkpt><trkpt lat="42.64100750965139" lon="2.585739813277768"><ele>221.4</ele><time>2026-03-23T14:24:50.999Z</time></trkpt><trkpt lat="42.64097069847818" lon="2.5858730369498955"><ele>219.8</ele><time>2026-03-23T14:24:53.999Z</time></trkpt><trkpt lat="42.64094845178265" lon="2.586035290944854"><ele>218.2</ele><time>2026-03-23T14:24:55.999Z</time></trkpt><trkpt lat="42.6409282801516" lon="2.5861323789831254"><ele>216.6</ele><time>2026-03-23T14:24:56.999Z</time></trkpt><trkpt lat="42.640920387504096" lon="2.5862389747775847"><ele>215.0</ele><time>2026-03-23T14:24:57.999Z</time></trkpt><trkpt lat="42.640938399422495" lon="2.58636302417538"><ele>214.75</ele><time>2026-03-23T14:24:58.999Z</time></trkpt><trkpt lat="42.64094900859588" lon="2.586539929003513"><ele>214.5</ele><time>2026-03-23T14:24:59.999Z</time></trkpt><trkpt lat="42.64096288144317" lon="2.586713697474932"><ele>214.25</ele><time>2026-03-23T14:25:00.999Z</time></trkpt><trkpt lat="42.640966816638205" lon="2.586902639675823"><ele>214.0</ele><time>2026-03-23T14:25:01.999Z</time></trkpt><trkpt lat="42.64102395710795" lon="2.587071454498947"><ele>212.39999999999998</ele><time>2026-03-23T14:25:02.999Z</time></trkpt><trkpt lat="42.64107094030863" lon="2.587221399166953"><ele>210.79999999999998</ele><time>2026-03-23T14:25:03.999Z</time></trkpt><trkpt lat="42.6410978951723" lon="2.587369127981237"><ele>209.2</ele><time>2026-03-23T14:25:04.999Z</time></trkpt><trkpt lat="42.641135368410744" lon="2.5875015545020466"><ele>207.60000000000002</ele><time>2026-03-23T14:25:05.999Z</time></trkpt><trkpt lat="42.64116483893018" lon="2.5876253570985415"><ele>206.0</ele><time>2026-03-23T14:25:06.999Z</time></trkpt><trkpt lat="42.64117896573361" lon="2.587750988450196"><ele>207.66666666666669</ele><time>2026-03-23T14:25:07.999Z</time></trkpt><trkpt lat="42.64118167947938" lon="2.587879443660169"><ele>209.33333333333334</ele><time>2026-03-23T14:25:08.999Z</time></trkpt><trkpt lat="42.64117327642801" lon="2.5880056802254496"><ele>211.0</ele><time>2026-03-23T14:25:09.999Z</time></trkpt><trkpt lat="42.64117631317267" lon="2.5881234285037253"><ele>212.66666666666669</ele><time>2026-03-23T14:25:10.999Z</time></trkpt><trkpt lat="42.64118113822626" lon="2.588222089709862"><ele>214.33333333333334</ele><time>2026-03-23T14:25:11.999Z</time></trkpt><trkpt lat="42.64119729023458" lon="2.588323456339935"><ele>216.0</ele><time>2026-03-23T14:25:12.999Z</time></trkpt><trkpt lat="42.64127481777537" lon="2.5883906637221075"><ele>216.0</ele><time>2026-03-23T14:25:13.999Z</time></trkpt><trkpt lat="42.641368874999166" lon="2.588448880924471"><ele>216.00000000000003</ele><time>2026-03-23T14:25:14.999Z</time></trkpt><trkpt lat="42.641477842788795" lon="2.5884915639324957"><ele>216.00000000000003</ele><time>2026-03-23T14:25:15.999Z</time></trkpt><trkpt lat="42.64158973853297" lon="2.5885438292331897"><ele>216.0</ele><time>2026-03-23T14:25:16.999Z</time></trkpt><trkpt lat="42.64168783879878" lon="2.588616399856218"><ele>216.0</ele><time>2026-03-23T14:25:17.999Z</time></trkpt><trkpt lat="42.64177691182268" lon="2.588691866760454"><ele>214.8</ele><time>2026-03-23T14:25:18.999Z</time></trkpt><trkpt lat="42.641874140156744" lon="2.588747632981347"><ele>213.60000000000002</ele><time>2026-03-23T14:25:19.999Z</time></trkpt><trkpt lat="42.64196914437173" lon="2.588777615876383"><ele>212.4</ele><time>2026-03-23T14:25:20.999Z</time></trkpt><trkpt lat="42.64205964087177" lon="2.588767935437676"><ele>211.2</ele><time>2026-03-23T14:25:21.999Z</time></trkpt><trkpt lat="42.64215264488558" lon="2.588725944608941"><ele>210.0</ele><time>2026-03-23T14:25:22.999Z</time></trkpt><trkpt lat="42.64221907134965" lon="2.58865223319673"><ele>210.0</ele><time>2026-03-23T14:25:23.999Z</time></trkpt><trkpt lat="42.64226701470726" lon="2.5885540556817226"><ele>210.0</ele><time>2026-03-23T14:25:24.999Z</time></trkpt><trkpt lat="42.64230026300904" lon="2.588428092795706"><ele>210.0</ele><time>2026-03-23T14:25:25.999Z</time></trkpt><trkpt lat="42.64231222661106" lon="2.5882907195723606"><ele>210.0</ele><time>2026-03-23T14:25:26.999Z</time></trkpt><trkpt lat="42.64231883222814" lon="2.5881515602411294"><ele>210.0</ele><time>2026-03-23T14:25:27.999Z</time></trkpt><trkpt lat="42.642351831077875" lon="2.5880273274710923"><ele>210.0</ele><time>2026-03-23T14:25:28.999Z</time></trkpt><trkpt lat="42.6424164301243" lon="2.5879241978134284"><ele>210.0</ele><time>2026-03-23T14:25:29.999Z</time></trkpt><trkpt lat="42.64252157576479" lon="2.587873166163118"><ele>210.0</ele><time>2026-03-23T14:25:30.999Z</time></trkpt><trkpt lat="42.64262159595044" lon="2.587773985183823"><ele>210.0</ele><time>2026-03-23T14:25:31.999Z</time></trkpt><trkpt lat="42.64273294144603" lon="2.5877035674498052"><ele>208.75</ele><time>2026-03-23T14:25:32.999Z</time></trkpt><trkpt lat="42.64283131725354" lon="2.587623486001401"><ele>207.5</ele><time>2026-03-23T14:25:33.999Z</time></trkpt><trkpt lat="42.64293931503886" lon="2.587555896059225"><ele>206.25</ele><time>2026-03-23T14:25:34.999Z</time></trkpt><trkpt lat="42.64305389141114" lon="2.587496026289641"><ele>205.0</ele><time>2026-03-23T14:25:35.999Z</time></trkpt><trkpt lat="42.64316578120849" lon="2.5874361726656234"><ele>205.0</ele><time>2026-03-23T14:25:36.999Z</time></trkpt><trkpt lat="42.64328061301758" lon="2.587368991179848"><ele>205.0</ele><time>2026-03-23T14:25:37.999Z</time></trkpt><trkpt lat="42.64339299861799" lon="2.587323126307702"><ele>205.0</ele><time>2026-03-23T14:25:38.999Z</time></trkpt><trkpt lat="42.64350375186049" lon="2.587330698088171"><ele>205.0</ele><time>2026-03-23T14:25:39.999Z</time></trkpt><trkpt lat="42.643616051541" lon="2.5872948684149075"><ele>203.4</ele><time>2026-03-23T14:25:40.999Z</time></trkpt><trkpt lat="42.64372845252994" lon="2.5872765184482707"><ele>201.8</ele><time>2026-03-23T14:25:41.999Z</time></trkpt><trkpt lat="42.64382708737253" lon="2.5872473098367728"><ele>200.2</ele><time>2026-03-23T14:25:42.999Z</time></trkpt><trkpt lat="42.64394197937822" lon="2.587225625128614"><ele>198.6</ele><time>2026-03-23T14:25:43.999Z</time></trkpt><trkpt lat="42.64405251726006" lon="2.587218396457888"><ele>197.0</ele><time>2026-03-23T14:25:44.999Z</time></trkpt><trkpt lat="42.64416228610438" lon="2.5872135784173294"><ele>197.0</ele><time>2026-03-23T14:25:45.999Z</time></trkpt><trkpt lat="42.64425540295913" lon="2.5871718831645345"><ele>197.0</ele><time>2026-03-23T14:25:46.999Z</time></trkpt><trkpt lat="42.644347131438565" lon="2.587122573595435"><ele>197.0</ele><time>2026-03-23T14:25:47.999Z</time></trkpt><trkpt lat="42.64443894978039" lon="2.58709861072311"><ele>197.0</ele><time>2026-03-23T14:25:48.999Z</time></trkpt><trkpt lat="42.64454475711601" lon="2.587126514257953"><ele>197.0</ele><time>2026-03-23T14:25:49.999Z</time></trkpt><trkpt lat="42.64466660170555" lon="2.5871793475733194"><ele>196.5</ele><time>2026-03-23T14:25:50.999Z</time></trkpt><trkpt lat="42.6447871413402" lon="2.5872265411298683"><ele>196.0</ele><time>2026-03-23T14:25:51.999Z</time></trkpt><trkpt lat="42.6449020900102" lon="2.587251552974665"><ele>195.5</ele><time>2026-03-23T14:25:52.999Z</time></trkpt><trkpt lat="42.64501053051783" lon="2.5872719977773087"><ele>195.0</ele><time>2026-03-23T14:25:53.999Z</time></trkpt><trkpt lat="42.64512096096776" lon="2.587305995902736"><ele>195.0</ele><time>2026-03-23T14:25:54.999Z</time></trkpt><trkpt lat="42.64522822043158" lon="2.5873331171031544"><ele>195.0</ele><time>2026-03-23T14:25:55.999Z</time></trkpt><trkpt lat="42.64533124135521" lon="2.5873505971354698"><ele>195.0</ele><time>2026-03-23T14:25:56.999Z</time></trkpt><trkpt lat="42.64544118582823" lon="2.5873662039557286"><ele>195.0</ele><time>2026-03-23T14:25:57.999Z</time></trkpt><trkpt lat="42.64553667125724" lon="2.587367898741383"><ele>195.0</ele><time>2026-03-23T14:25:58.999Z</time></trkpt><trkpt lat="42.64563448559509" lon="2.5873516764447"><ele>195.4</ele><time>2026-03-23T14:25:59.999Z</time></trkpt><trkpt lat="42.645737037597804" lon="2.5873406404854395"><ele>195.8</ele><time>2026-03-23T14:26:00.999Z</time></trkpt><trkpt lat="42.64582948355663" lon="2.58735640187888"><ele>196.2</ele><time>2026-03-23T14:26:01.999Z</time></trkpt><trkpt lat="42.64591542720714" lon="2.587406651045618"><ele>196.6</ele><time>2026-03-23T14:26:02.999Z</time></trkpt><trkpt lat="42.64598824421159" lon="2.58747643927163"><ele>197.0</ele><time>2026-03-23T14:26:03.999Z</time></trkpt><trkpt lat="42.646057260524124" lon="2.5875352887082963"><ele>197.00000000000003</ele><time>2026-03-23T14:26:04.999Z</time></trkpt><trkpt lat="42.646130418973065" lon="2.5875594823704318"><ele>197.0</ele><time>2026-03-23T14:26:05.999Z</time></trkpt><trkpt lat="42.646213845153596" lon="2.5875454704378953"><ele>197.0</ele><time>2026-03-23T14:26:06.999Z</time></trkpt><trkpt lat="42.646293525369714" lon="2.5875000759300533"><ele>197.0</ele><time>2026-03-23T14:26:07.999Z</time></trkpt><trkpt lat="42.64637082046117" lon="2.587450272101882"><ele>197.00000000000003</ele><time>2026-03-23T14:26:08.999Z</time></trkpt><trkpt lat="42.64644276448649" lon="2.58742051295814"><ele>197.0</ele><time>2026-03-23T14:26:09.999Z</time></trkpt><trkpt lat="42.64652269181605" lon="2.587426570892942"><ele>197.0</ele><time>2026-03-23T14:26:10.999Z</time></trkpt><trkpt lat="42.64660083867188" lon="2.587494760753137"><ele>197.0</ele><time>2026-03-23T14:26:11.999Z</time></trkpt><trkpt lat="42.64669409739732" lon="2.587519843127537"><ele>197.0</ele><time>2026-03-23T14:26:12.999Z</time></trkpt><trkpt lat="42.646785663229586" lon="2.587548054218951"><ele>197.0</ele><time>2026-03-23T14:26:13.999Z</time></trkpt><trkpt lat="42.64688088484014" lon="2.5875500006888683"><ele>197.0</ele><time>2026-03-23T14:26:14.999Z</time></trkpt><trkpt lat="42.646975800421515" lon="2.587535777007265"><ele>196.0</ele><time>2026-03-23T14:26:15.999Z</time></trkpt><trkpt lat="42.6470767366048" lon="2.5875437551531024"><ele>195.0</ele><time>2026-03-23T14:26:16.999Z</time></trkpt><trkpt lat="42.64717193980506" lon="2.587541520163121"><ele>194.0</ele><time>2026-03-23T14:26:17.999Z</time></trkpt><trkpt lat="42.647272696223745" lon="2.58754494193955"><ele>193.0</ele><time>2026-03-23T14:26:18.999Z</time></trkpt><trkpt lat="42.647370749340446" lon="2.587541204439776"><ele>192.0</ele><time>2026-03-23T14:26:19.999Z</time></trkpt><trkpt lat="42.647453867311874" lon="2.587523143982625"><ele>192.0</ele><time>2026-03-23T14:26:20.999Z</time></trkpt><trkpt lat="42.64752290976253" lon="2.5875027440495977"><ele>192.0</ele><time>2026-03-23T14:26:21.999Z</time></trkpt><trkpt lat="42.647608415120914" lon="2.587484007362274"><ele>192.0</ele><time>2026-03-23T14:26:22.999Z</time></trkpt><trkpt lat="42.64768003998412" lon="2.587487352769088"><ele>192.0</ele><time>2026-03-23T14:26:23.999Z</time></trkpt><trkpt lat="42.64774802508129" lon="2.5875024150276733"><ele>192.0</ele><time>2026-03-23T14:26:24.999Z</time></trkpt><trkpt lat="42.64782277739321" lon="2.5875306881495956"><ele>192.0</ele><time>2026-03-23T14:26:25.999Z</time></trkpt><trkpt lat="42.64790103516499" lon="2.587559660302229"><ele>191.83333333333334</ele><time>2026-03-23T14:26:26.999Z</time></trkpt><trkpt lat="42.64798636225701" lon="2.5875904335049844"><ele>191.66666666666666</ele><time>2026-03-23T14:26:27.999Z</time></trkpt><trkpt lat="42.64807788950168" lon="2.587622567551315"><ele>191.5</ele><time>2026-03-23T14:26:28.999Z</time></trkpt><trkpt lat="42.64817203290543" lon="2.5876599980676023"><ele>191.33333333333331</ele><time>2026-03-23T14:26:29.999Z</time></trkpt><trkpt lat="42.64825597799684" lon="2.587692314593134"><ele>191.16666666666666</ele><time>2026-03-23T14:26:30.999Z</time></trkpt><trkpt lat="42.648333077426486" lon="2.5877232435519315"><ele>191.0</ele><time>2026-03-23T14:26:31.999Z</time></trkpt><trkpt lat="42.64839648590429" lon="2.5877446937440074"><ele>191.0</ele><time>2026-03-23T14:26:32.999Z</time></trkpt><trkpt lat="42.64846204420347" lon="2.5877605928644405"><ele>191.0</ele><time>2026-03-23T14:26:33.999Z</time></trkpt><trkpt lat="42.64853661949513" lon="2.5877591226915087"><ele>191.0</ele><time>2026-03-23T14:26:34.999Z</time></trkpt><trkpt lat="42.64861496168574" lon="2.587733634781866"><ele>191.0</ele><time>2026-03-23T14:26:35.999Z</time></trkpt><trkpt lat="42.6487030424501" lon="2.5876917684622827"><ele>191.0</ele><time>2026-03-23T14:26:36.999Z</time></trkpt><trkpt lat="42.64878812990006" lon="2.5876433353161694"><ele>191.0</ele><time>2026-03-23T14:26:37.999Z</time></trkpt><trkpt lat="42.64886638917607" lon="2.587612273286087"><ele>191.0</ele><time>2026-03-23T14:26:38.999Z</time></trkpt><trkpt lat="42.648934188071365" lon="2.587584239075407"><ele>191.0</ele><time>2026-03-23T14:26:39.999Z</time></trkpt><trkpt lat="42.64902903478115" lon="2.5875684648338453"><ele>191.0</ele><time>2026-03-23T14:26:41.999Z</time></trkpt><trkpt lat="42.64907806744372" lon="2.5876396383798133"><ele>191.0</ele><time>2026-03-23T14:26:43.999Z</time></trkpt><trkpt lat="42.64913405117302" lon="2.5877168075537775"><ele>191.0</ele><time>2026-03-23T14:26:45.999Z</time></trkpt><trkpt lat="42.64913411275972" lon="2.587844131595843"><ele>191.0</ele><time>2026-03-23T14:27:02Z</time></trkpt><trkpt lat="42.64912087842291" lon="2.587975028778197"><ele>189.8</ele><time>2026-03-23T14:27:04Z</time></trkpt><trkpt lat="42.64910825637104" lon="2.5880766693204365"><ele>188.60000000000002</ele><time>2026-03-23T14:27:05Z</time></trkpt><trkpt lat="42.649093937534964" lon="2.588191973882264"><ele>187.4</ele><time>2026-03-23T14:27:06Z</time></trkpt><trkpt lat="42.64907527284754" lon="2.5883449568895043"><ele>186.2</ele><time>2026-03-23T14:27:07Z</time></trkpt><trkpt lat="42.64905434166071" lon="2.5885159437562306"><ele>185.0</ele><time>2026-03-23T14:27:08Z</time></trkpt><trkpt lat="42.64903440987039" lon="2.5886749197534797"><ele>184.2</ele><time>2026-03-23T14:27:09Z</time></trkpt><trkpt lat="42.64901439101874" lon="2.5888341450415187"><ele>183.4</ele><time>2026-03-23T14:27:10Z</time></trkpt><trkpt lat="42.6489957473799" lon="2.588988896704035"><ele>182.60000000000002</ele><time>2026-03-23T14:27:11Z</time></trkpt><trkpt lat="42.648979612089114" lon="2.5891240534812443"><ele>181.8</ele><time>2026-03-23T14:27:12Z</time></trkpt><trkpt lat="42.64896755643722" lon="2.5892204318612193"><ele>181.0</ele><time>2026-03-23T14:27:13Z</time></trkpt><trkpt lat="42.64894169404517" lon="2.5894848372872143"><ele>180.83333333333334</ele><time>2026-03-23T14:27:15Z</time></trkpt><trkpt lat="42.64893329416181" lon="2.5895949351576966"><ele>180.66666666666669</ele><time>2026-03-23T14:27:16Z</time></trkpt><trkpt lat="42.64893753906041" lon="2.589699391039122"><ele>180.5</ele><time>2026-03-23T14:27:17Z</time></trkpt><trkpt lat="42.64894972420717" lon="2.589811823518885"><ele>180.33333333333334</ele><time>2026-03-23T14:27:18Z</time></trkpt><trkpt lat="42.648970653364096" lon="2.5899346024650267"><ele>180.16666666666666</ele><time>2026-03-23T14:27:19Z</time></trkpt><trkpt lat="42.648989725993964" lon="2.590078780987815"><ele>180.0</ele><time>2026-03-23T14:27:20Z</time></trkpt><trkpt lat="42.649008440994706" lon="2.5902330013824537"><ele>180.0</ele><time>2026-03-23T14:27:21Z</time></trkpt><trkpt lat="42.64902296900955" lon="2.590382553631861"><ele>180.0</ele><time>2026-03-23T14:27:22Z</time></trkpt><trkpt lat="42.649037763223305" lon="2.590535308324104"><ele>180.0</ele><time>2026-03-23T14:27:23Z</time></trkpt><trkpt lat="42.64905574469785" lon="2.590683256480403"><ele>180.0</ele><time>2026-03-23T14:27:24Z</time></trkpt><trkpt lat="42.64907587147259" lon="2.5908300359424516"><ele>180.0</ele><time>2026-03-23T14:27:25Z</time></trkpt><trkpt lat="42.64910669813223" lon="2.590979460949418"><ele>180.0</ele><time>2026-03-23T14:27:26Z</time></trkpt><trkpt lat="42.64916074946207" lon="2.5911276308587103"><ele>180.0</ele><time>2026-03-23T14:27:27Z</time></trkpt><trkpt lat="42.64921963275203" lon="2.5912867720605957"><ele>180.0</ele><time>2026-03-23T14:27:28Z</time></trkpt><trkpt lat="42.64928194420881" lon="2.5914532424200014"><ele>180.0</ele><time>2026-03-23T14:27:29Z</time></trkpt><trkpt lat="42.64934595996422" lon="2.59162754599389"><ele>179.66666666666666</ele><time>2026-03-23T14:27:30Z</time></trkpt><trkpt lat="42.64941448607239" lon="2.5918092122943093"><ele>179.33333333333331</ele><time>2026-03-23T14:27:31Z</time></trkpt><trkpt lat="42.64948615827066" lon="2.5920070583408976"><ele>179.0</ele><time>2026-03-23T14:27:32Z</time></trkpt><trkpt lat="42.64955531144156" lon="2.592204372262148"><ele>179.0</ele><time>2026-03-23T14:27:33Z</time></trkpt><trkpt lat="42.64961220840723" lon="2.5924291549385163"><ele>179.0</ele><time>2026-03-23T14:27:34Z</time></trkpt><trkpt lat="42.64969225367983" lon="2.5926443078037336"><ele>179.0</ele><time>2026-03-23T14:27:35Z</time></trkpt><trkpt lat="42.64976797095647" lon="2.5928709960577407"><ele>179.0</ele><time>2026-03-23T14:27:36Z</time></trkpt><trkpt lat="42.64983368239879" lon="2.5931112044894316"><ele>179.0</ele><time>2026-03-23T14:27:37Z</time></trkpt><trkpt lat="42.649912793648745" lon="2.593358628326479"><ele>179.0</ele><time>2026-03-23T14:27:38Z</time></trkpt><trkpt lat="42.64998425219856" lon="2.593596551058396"><ele>179.0</ele><time>2026-03-23T14:27:39Z</time></trkpt><trkpt lat="42.65003904054856" lon="2.5938338387508484"><ele>179.0</ele><time>2026-03-23T14:27:40Z</time></trkpt><trkpt lat="42.650099483891914" lon="2.594073609336834"><ele>179.0</ele><time>2026-03-23T14:27:41Z</time></trkpt><trkpt lat="42.65016509050671" lon="2.594318697295447"><ele>178.66666666666666</ele><time>2026-03-23T14:27:42Z</time></trkpt><trkpt lat="42.65023358773007" lon="2.594530107697661"><ele>178.33333333333334</ele><time>2026-03-23T14:27:43Z</time></trkpt><trkpt lat="42.650318161438925" lon="2.5947477933139065"><ele>178.0</ele><time>2026-03-23T14:27:44Z</time></trkpt><trkpt lat="42.65040961823435" lon="2.5949632549511206"><ele>177.0</ele><time>2026-03-23T14:27:45Z</time></trkpt><trkpt lat="42.65050128691346" lon="2.595168844743948"><ele>176.0</ele><time>2026-03-23T14:27:46Z</time></trkpt><trkpt lat="42.6505942936202" lon="2.5953722699047184"><ele>175.0</ele><time>2026-03-23T14:27:47Z</time></trkpt><trkpt lat="42.65068115769735" lon="2.5955800159304765"><ele>175.0</ele><time>2026-03-23T14:27:48Z</time></trkpt><trkpt lat="42.650729493268024" lon="2.5958046590169253"><ele>175.0</ele><time>2026-03-23T14:27:49Z</time></trkpt><trkpt lat="42.65079137519785" lon="2.596033761804981"><ele>175.0</ele><time>2026-03-23T14:27:50Z</time></trkpt><trkpt lat="42.6508201643712" lon="2.5962665767962942"><ele>176.0</ele><time>2026-03-23T14:27:51Z</time></trkpt><trkpt lat="42.650855753906555" lon="2.596482227140737"><ele>177.0</ele><time>2026-03-23T14:27:52Z</time></trkpt><trkpt lat="42.65086592421436" lon="2.5967049331826098"><ele>178.0</ele><time>2026-03-23T14:27:53Z</time></trkpt><trkpt lat="42.65090740149834" lon="2.596932652656312"><ele>177.0</ele><time>2026-03-23T14:27:54Z</time></trkpt><trkpt lat="42.650933225672944" lon="2.597163965177212"><ele>176.0</ele><time>2026-03-23T14:27:55Z</time></trkpt><trkpt lat="42.65094561935846" lon="2.5973861859844662"><ele>175.0</ele><time>2026-03-23T14:27:56Z</time></trkpt><trkpt lat="42.65096888434904" lon="2.5976005614043687"><ele>175.0</ele><time>2026-03-23T14:27:57Z</time></trkpt><trkpt lat="42.65098781859487" lon="2.5978166094459456"><ele>175.0</ele><time>2026-03-23T14:27:58Z</time></trkpt><trkpt lat="42.65099740278925" lon="2.598027884921044"><ele>175.0</ele><time>2026-03-23T14:27:59Z</time></trkpt><trkpt lat="42.65101772886866" lon="2.5982571843821427"><ele>176.66666666666669</ele><time>2026-03-23T14:28:00Z</time></trkpt><trkpt lat="42.65100189139537" lon="2.5984931691849913"><ele>178.33333333333334</ele><time>2026-03-23T14:28:01Z</time></trkpt><trkpt lat="42.65099675279856" lon="2.598713282849386"><ele>180.0</ele><time>2026-03-23T14:28:02Z</time></trkpt><trkpt lat="42.65100139765467" lon="2.5989391486814473"><ele>181.33333333333334</ele><time>2026-03-23T14:28:03Z</time></trkpt><trkpt lat="42.650991681183854" lon="2.599161077500142"><ele>182.66666666666669</ele><time>2026-03-23T14:28:04Z</time></trkpt><trkpt lat="42.65096323456306" lon="2.5994051984376902"><ele>184.0</ele><time>2026-03-23T14:28:04.999Z</time></trkpt><trkpt lat="42.65096516314814" lon="2.599669165739599"><ele>184.33333333333334</ele><time>2026-03-23T14:28:05.999Z</time></trkpt><trkpt lat="42.650959923789344" lon="2.599928695187037"><ele>184.66666666666666</ele><time>2026-03-23T14:28:06.999Z</time></trkpt><trkpt lat="42.6509593812517" lon="2.6001711261178997"><ele>185.0</ele><time>2026-03-23T14:28:07.999Z</time></trkpt><trkpt lat="42.65096360307437" lon="2.6004186996776486"><ele>184.33333333333331</ele><time>2026-03-23T14:28:08.999Z</time></trkpt><trkpt lat="42.65097543367053" lon="2.6006712778097425"><ele>183.66666666666666</ele><time>2026-03-23T14:28:09.999Z</time></trkpt><trkpt lat="42.65100149866145" lon="2.6009234705954034"><ele>183.0</ele><time>2026-03-23T14:28:10.999Z</time></trkpt><trkpt lat="42.65102992692343" lon="2.6011753101263433"><ele>183.0</ele><time>2026-03-23T14:28:11.999Z</time></trkpt><trkpt lat="42.6510521628871" lon="2.6014265753594477"><ele>183.0</ele><time>2026-03-23T14:28:12.999Z</time></trkpt><trkpt lat="42.651058692198475" lon="2.6016782042407476"><ele>183.0</ele><time>2026-03-23T14:28:13.999Z</time></trkpt><trkpt lat="42.651081025439495" lon="2.601926099744314"><ele>184.33333333333334</ele><time>2026-03-23T14:28:14.999Z</time></trkpt><trkpt lat="42.6511034538526" lon="2.6021750516373943"><ele>185.66666666666669</ele><time>2026-03-23T14:28:15.999Z</time></trkpt><trkpt lat="42.65114401726985" lon="2.6024209253169497"><ele>187.0</ele><time>2026-03-23T14:28:16.999Z</time></trkpt><trkpt lat="42.65118266395363" lon="2.60266727368464"><ele>183.0</ele><time>2026-03-23T14:28:17.999Z</time></trkpt><trkpt lat="42.65122662546261" lon="2.6029129200592873"><ele>179.0</ele><time>2026-03-23T14:28:18.999Z</time></trkpt><trkpt lat="42.65127251836953" lon="2.6031559655555627"><ele>175.0</ele><time>2026-03-23T14:28:19.999Z</time></trkpt><trkpt lat="42.65131832549841" lon="2.6033983028182193"><ele>175.0</ele><time>2026-03-23T14:28:20.999Z</time></trkpt><trkpt lat="42.65136169541209" lon="2.603634515687241"><ele>175.0</ele><time>2026-03-23T14:28:21.999Z</time></trkpt><trkpt lat="42.65140346512319" lon="2.6038676453181164"><ele>175.0</ele><time>2026-03-23T14:28:22.999Z</time></trkpt><trkpt lat="42.651454959933375" lon="2.6040947983101232"><ele>175.0</ele><time>2026-03-23T14:28:23.999Z</time></trkpt><trkpt lat="42.65152135976006" lon="2.6043179513980803"><ele>175.0</ele><time>2026-03-23T14:28:24.999Z</time></trkpt><trkpt lat="42.65160787433965" lon="2.6045438600903617"><ele>175.0</ele><time>2026-03-23T14:28:25.999Z</time></trkpt><trkpt lat="42.651703158872884" lon="2.6047653137103755"><ele>176.0</ele><time>2026-03-23T14:28:26.999Z</time></trkpt><trkpt lat="42.65179426372879" lon="2.6049785002282904"><ele>177.0</ele><time>2026-03-23T14:28:27.999Z</time></trkpt><trkpt lat="42.651882757757605" lon="2.605185145425742"><ele>178.0</ele><time>2026-03-23T14:28:28.999Z</time></trkpt><trkpt lat="42.65197168782061" lon="2.605397624525443"><ele>175.33333333333334</ele><time>2026-03-23T14:28:29.999Z</time></trkpt><trkpt lat="42.65206305992416" lon="2.60560671430625"><ele>172.66666666666666</ele><time>2026-03-23T14:28:30.999Z</time></trkpt><trkpt lat="42.65213817509417" lon="2.6058310287427338"><ele>170.0</ele><time>2026-03-23T14:28:31.999Z</time></trkpt><trkpt lat="42.65222917098424" lon="2.606054404954469"><ele>171.66666666666666</ele><time>2026-03-23T14:28:32.999Z</time></trkpt><trkpt lat="42.652318965346595" lon="2.6062803563291235"><ele>173.33333333333334</ele><time>2026-03-23T14:28:33.999Z</time></trkpt><trkpt lat="42.65240820241383" lon="2.6065059022656896"><ele>175.0</ele><time>2026-03-23T14:28:34.999Z</time></trkpt><trkpt lat="42.652508028103505" lon="2.6067198440958914"><ele>175.0</ele><time>2026-03-23T14:28:35.999Z</time></trkpt><trkpt lat="42.65259542316472" lon="2.6069401020324587"><ele>175.0</ele><time>2026-03-23T14:28:36.999Z</time></trkpt><trkpt lat="42.652690582837366" lon="2.607153865162097"><ele>175.0</ele><time>2026-03-23T14:28:37.999Z</time></trkpt><trkpt lat="42.65279360673984" lon="2.6073469205099724"><ele>171.66666666666669</ele><time>2026-03-23T14:28:38.999Z</time></trkpt><trkpt lat="42.652914584961614" lon="2.6075174115579953"><ele>168.33333333333334</ele><time>2026-03-23T14:28:39.999Z</time></trkpt><trkpt lat="42.653044995470395" lon="2.607668808609685"><ele>165.0</ele><time>2026-03-23T14:28:40.999Z</time></trkpt><trkpt lat="42.653190718617104" lon="2.6077930282508"><ele>165.33333333333334</ele><time>2026-03-23T14:28:41.999Z</time></trkpt><trkpt lat="42.65334666230783" lon="2.60788714540871"><ele>165.66666666666669</ele><time>2026-03-23T14:28:42.999Z</time></trkpt><trkpt lat="42.65350092171387" lon="2.607978898297207"><ele>166.0</ele><time>2026-03-23T14:28:43.999Z</time></trkpt><trkpt lat="42.6536399152187" lon="2.6081025567200666"><ele>166.0</ele><time>2026-03-23T14:28:44.999Z</time></trkpt><trkpt lat="42.65375472939919" lon="2.6082796337650014"><ele>166.0</ele><time>2026-03-23T14:28:45.999Z</time></trkpt><trkpt lat="42.65389464215432" lon="2.6084368435694856"><ele>166.0</ele><time>2026-03-23T14:28:46.999Z</time></trkpt><trkpt lat="42.6540240632328" lon="2.608615751469371"><ele>169.66666666666669</ele><time>2026-03-23T14:28:47.999Z</time></trkpt><trkpt lat="42.65415618284362" lon="2.6087948469582964"><ele>173.33333333333334</ele><time>2026-03-23T14:28:48.999Z</time></trkpt><trkpt lat="42.654285944074324" lon="2.608971403978258"><ele>177.0</ele><time>2026-03-23T14:28:49.999Z</time></trkpt><trkpt lat="42.6544138840957" lon="2.6091445925632377"><ele>174.0</ele><time>2026-03-23T14:28:50.999Z</time></trkpt><trkpt lat="42.654543678445734" lon="2.6093159017513865"><ele>171.0</ele><time>2026-03-23T14:28:51.999Z</time></trkpt><trkpt lat="42.65467064792247" lon="2.609486584286057"><ele>168.0</ele><time>2026-03-23T14:28:52.999Z</time></trkpt><trkpt lat="42.654799220164755" lon="2.6096530571450045"><ele>168.0</ele><time>2026-03-23T14:28:53.999Z</time></trkpt><trkpt lat="42.65492553682541" lon="2.609817873495777"><ele>168.0</ele><time>2026-03-23T14:28:54.999Z</time></trkpt><trkpt lat="42.65504795131509" lon="2.6099879071951237"><ele>168.0</ele><time>2026-03-23T14:28:55.999Z</time></trkpt><trkpt lat="42.655176779558744" lon="2.6101476233161724"><ele>166.33333333333334</ele><time>2026-03-23T14:28:56.999Z</time></trkpt><trkpt lat="42.65531781650063" lon="2.6102903177982366"><ele>164.66666666666669</ele><time>2026-03-23T14:28:57.999Z</time></trkpt><trkpt lat="42.65546490292661" lon="2.6104148689095292"><ele>163.0</ele><time>2026-03-23T14:28:58.999Z</time></trkpt><trkpt lat="42.65561990285445" lon="2.6105341380607534"><ele>163.0</ele><time>2026-03-23T14:28:59.999Z</time></trkpt><trkpt lat="42.655772305865504" lon="2.6106415925437605"><ele>163.0</ele><time>2026-03-23T14:29:00.999Z</time></trkpt><trkpt lat="42.65593018300087" lon="2.6107470701378834"><ele>163.0</ele><time>2026-03-23T14:29:01.999Z</time></trkpt><trkpt lat="42.656078623569876" lon="2.610850826452533"><ele>163.0</ele><time>2026-03-23T14:29:03.001Z</time></trkpt><trkpt lat="42.65621899573685" lon="2.610952742109127"><ele>163.0</ele><time>2026-03-23T14:29:04.001Z</time></trkpt><trkpt lat="42.65635116442194" lon="2.611041118117554"><ele>163.0</ele><time>2026-03-23T14:29:05.001Z</time></trkpt><trkpt lat="42.656472645317194" lon="2.6111245178213163"><ele>163.0</ele><time>2026-03-23T14:29:06.001Z</time></trkpt><trkpt lat="42.65658943809166" lon="2.611223159114242"><ele>163.0</ele><time>2026-03-23T14:29:07.001Z</time></trkpt><trkpt lat="42.656665382907796" lon="2.6113377464183913"><ele>163.0</ele><time>2026-03-23T14:29:08.001Z</time></trkpt><trkpt lat="42.65675210185546" lon="2.6114920746679835"><ele>163.0</ele><time>2026-03-23T14:29:09.001Z</time></trkpt><trkpt lat="42.656796252875615" lon="2.6116413591872503"><ele>163.0</ele><time>2026-03-23T14:29:10.001Z</time></trkpt><trkpt lat="42.65680976060569" lon="2.611732817669414"><ele>163.0</ele><time>2026-03-23T14:29:11.001Z</time></trkpt><trkpt lat="42.65686217990414" lon="2.6120303041422415"><ele>162.33333333333334</ele><time>2026-03-23T14:29:12.001Z</time></trkpt><trkpt lat="42.656836213747404" lon="2.612236788805252"><ele>161.66666666666666</ele><time>2026-03-23T14:29:13.001Z</time></trkpt><trkpt lat="42.65679040570067" lon="2.6124539835378777"><ele>161.0</ele><time>2026-03-23T14:29:14.001Z</time></trkpt><trkpt lat="42.656693393328965" lon="2.6126579366555758"><ele>160.66666666666666</ele><time>2026-03-23T14:29:15.001Z</time></trkpt><trkpt lat="42.65663969201434" lon="2.612883302798296"><ele>160.33333333333334</ele><time>2026-03-23T14:29:16.001Z</time></trkpt><trkpt lat="42.6565867731736" lon="2.6131040656010085"><ele>160.0</ele><time>2026-03-23T14:29:17.001Z</time></trkpt><trkpt lat="42.65653444534768" lon="2.613322362852374"><ele>160.0</ele><time>2026-03-23T14:29:18.001Z</time></trkpt><trkpt lat="42.65648195213311" lon="2.613548640923771"><ele>160.0</ele><time>2026-03-23T14:29:19.001Z</time></trkpt><trkpt lat="42.65644405598527" lon="2.6137884003720524"><ele>160.0</ele><time>2026-03-23T14:29:20.001Z</time></trkpt><trkpt lat="42.65641142501112" lon="2.614029616976345"><ele>160.0</ele><time>2026-03-23T14:29:21.001Z</time></trkpt><trkpt lat="42.656403104059905" lon="2.614274226002324"><ele>160.0</ele><time>2026-03-23T14:29:22.001Z</time></trkpt><trkpt lat="42.656395286355625" lon="2.6145115128429413"><ele>160.0</ele><time>2026-03-23T14:29:23.001Z</time></trkpt><trkpt lat="42.65638417506497" lon="2.614761601518277"><ele>160.0</ele><time>2026-03-23T14:29:24Z</time></trkpt><trkpt lat="42.65635698101849" lon="2.615010297907716"><ele>160.0</ele><time>2026-03-23T14:29:25Z</time></trkpt><trkpt lat="42.656340231954125" lon="2.6152640729503043"><ele>160.0</ele><time>2026-03-23T14:29:26Z</time></trkpt><trkpt lat="42.65631472599711" lon="2.615489499315687"><ele>160.33333333333334</ele><time>2026-03-23T14:29:27Z</time></trkpt><trkpt lat="42.65626852818383" lon="2.615702863726012"><ele>160.66666666666666</ele><time>2026-03-23T14:29:28Z</time></trkpt><trkpt lat="42.65620137747036" lon="2.61591312657639"><ele>161.0</ele><time>2026-03-23T14:29:29Z</time></trkpt><trkpt lat="42.65611234607595" lon="2.616111916651887"><ele>160.66666666666666</ele><time>2026-03-23T14:29:30Z</time></trkpt><trkpt lat="42.65601106226948" lon="2.6163094029914515"><ele>160.33333333333334</ele><time>2026-03-23T14:29:31Z</time></trkpt><trkpt lat="42.65590896535409" lon="2.6165062155727363"><ele>160.0</ele><time>2026-03-23T14:29:32Z</time></trkpt><trkpt lat="42.65581010726149" lon="2.616701132499862"><ele>160.0</ele><time>2026-03-23T14:29:33Z</time></trkpt><trkpt lat="42.65572076204228" lon="2.616898579668529"><ele>160.0</ele><time>2026-03-23T14:29:34Z</time></trkpt><trkpt lat="42.6556644232443" lon="2.617089497044011"><ele>160.0</ele><time>2026-03-23T14:29:35Z</time></trkpt><trkpt lat="42.655609990360986" lon="2.6172968516464925"><ele>159.66666666666669</ele><time>2026-03-23T14:29:36Z</time></trkpt><trkpt lat="42.65557539482056" lon="2.617513820683435"><ele>159.33333333333334</ele><time>2026-03-23T14:29:37Z</time></trkpt><trkpt lat="42.655565807031" lon="2.6177487154279295"><ele>159.0</ele><time>2026-03-23T14:29:38Z</time></trkpt><trkpt lat="42.65556738933578" lon="2.617983227998129"><ele>159.0</ele><time>2026-03-23T14:29:39Z</time></trkpt><trkpt lat="42.65555725966137" lon="2.6182218178421133"><ele>159.0</ele><time>2026-03-23T14:29:40Z</time></trkpt><trkpt lat="42.6555585400359" lon="2.618459537391148"><ele>159.0</ele><time>2026-03-23T14:29:41Z</time></trkpt><trkpt lat="42.65556175537449" lon="2.618692747849715"><ele>159.66666666666666</ele><time>2026-03-23T14:29:42Z</time></trkpt><trkpt lat="42.655570580607645" lon="2.618943060236687"><ele>160.33333333333331</ele><time>2026-03-23T14:29:43Z</time></trkpt><trkpt lat="42.65560577513869" lon="2.619199694857217"><ele>161.0</ele><time>2026-03-23T14:29:44Z</time></trkpt><trkpt lat="42.65561389887813" lon="2.6194499345346838"><ele>161.0</ele><time>2026-03-23T14:29:45Z</time></trkpt><trkpt lat="42.655634731324376" lon="2.6196680200049904"><ele>161.0</ele><time>2026-03-23T14:29:46Z</time></trkpt><trkpt lat="42.65565395547359" lon="2.6198692689489795"><ele>161.0</ele><time>2026-03-23T14:29:47Z</time></trkpt><trkpt lat="42.6556723708335" lon="2.6200620510452213"><ele>161.0</ele><time>2026-03-23T14:29:48Z</time></trkpt><trkpt lat="42.65569075991513" lon="2.620259879028721"><ele>161.0</ele><time>2026-03-23T14:29:49Z</time></trkpt><trkpt lat="42.65570933760902" lon="2.6204602168707654"><ele>161.0</ele><time>2026-03-23T14:29:50Z</time></trkpt><trkpt lat="42.655726215321806" lon="2.620642222469304"><ele>161.0</ele><time>2026-03-23T14:29:51Z</time></trkpt><trkpt lat="42.65574332351441" lon="2.6208217403448506"><ele>161.25</ele><time>2026-03-23T14:29:52Z</time></trkpt><trkpt lat="42.655775411085976" lon="2.6210000704132916"><ele>161.5</ele><time>2026-03-23T14:29:53Z</time></trkpt><trkpt lat="42.65578820863773" lon="2.6211588701080633"><ele>161.75</ele><time>2026-03-23T14:29:54Z</time></trkpt><trkpt lat="42.655808128369436" lon="2.621318973332423"><ele>162.0</ele><time>2026-03-23T14:29:55Z</time></trkpt><trkpt lat="42.65583424510715" lon="2.6214577356682423"><ele>162.2</ele><time>2026-03-23T14:29:56Z</time></trkpt><trkpt lat="42.65586316107069" lon="2.6215862439235313"><ele>162.39999999999998</ele><time>2026-03-23T14:29:57Z</time></trkpt><trkpt lat="42.65588238411538" lon="2.6217059771596904"><ele>162.60000000000002</ele><time>2026-03-23T14:29:58Z</time></trkpt><trkpt lat="42.65584396794498" lon="2.6218405856439313"><ele>162.8</ele><time>2026-03-23T14:29:59Z</time></trkpt><trkpt lat="42.65585739990022" lon="2.622003699499978"><ele>163.0</ele><time>2026-03-23T14:30:00Z</time></trkpt><trkpt lat="42.65585895140712" lon="2.622098962510792"><ele>163.0</ele><time>2026-03-23T14:30:01Z</time></trkpt><trkpt lat="42.65584820660316" lon="2.6222344033485134"><ele>163.0</ele><time>2026-03-23T14:30:02Z</time></trkpt><trkpt lat="42.655827633728656" lon="2.6223835000214253"><ele>163.0</ele><time>2026-03-23T14:30:03Z</time></trkpt><trkpt lat="42.65579663029862" lon="2.6225498318493403"><ele>163.0</ele><time>2026-03-23T14:30:04Z</time></trkpt><trkpt lat="42.655757351473156" lon="2.622703125478304"><ele>163.25</ele><time>2026-03-23T14:30:05Z</time></trkpt><trkpt lat="42.65572178367397" lon="2.622857189637572"><ele>163.5</ele><time>2026-03-23T14:30:06Z</time></trkpt><trkpt lat="42.65568117951691" lon="2.623017757059994"><ele>163.75</ele><time>2026-03-23T14:30:07Z</time></trkpt><trkpt lat="42.65564022080288" lon="2.6231721645554202"><ele>164.0</ele><time>2026-03-23T14:30:08Z</time></trkpt><trkpt lat="42.65560308106346" lon="2.6233342358209244"><ele>164.0</ele><time>2026-03-23T14:30:09Z</time></trkpt><trkpt lat="42.655550928805454" lon="2.6234895697483673"><ele>164.0</ele><time>2026-03-23T14:30:10Z</time></trkpt><trkpt lat="42.655534022276385" lon="2.6236631970711777"><ele>164.0</ele><time>2026-03-23T14:30:11Z</time></trkpt><trkpt lat="42.6555098348129" lon="2.623838173317187"><ele>164.0</ele><time>2026-03-23T14:30:12Z</time></trkpt><trkpt lat="42.65548679036216" lon="2.624010728822534"><ele>164.0</ele><time>2026-03-23T14:30:13Z</time></trkpt><trkpt lat="42.655449228913405" lon="2.6241690316419133"><ele>164.0</ele><time>2026-03-23T14:30:14Z</time></trkpt><trkpt lat="42.65542517351225" lon="2.624330393105817"><ele>164.0</ele><time>2026-03-23T14:30:15Z</time></trkpt><trkpt lat="42.65541420899941" lon="2.624502372301322"><ele>164.0</ele><time>2026-03-23T14:30:16Z</time></trkpt><trkpt lat="42.65536920668478" lon="2.6246641215760036"><ele>164.0</ele><time>2026-03-23T14:30:17Z</time></trkpt><trkpt lat="42.655352721175376" lon="2.624822323284627"><ele>164.0</ele><time>2026-03-23T14:30:18Z</time></trkpt><trkpt lat="42.65531820232202" lon="2.6249791771538566"><ele>164.0</ele><time>2026-03-23T14:30:19Z</time></trkpt><trkpt lat="42.65528665903407" lon="2.6251431610383977"><ele>164.0</ele><time>2026-03-23T14:30:20Z</time></trkpt><trkpt lat="42.65527160752684" lon="2.6253287869459365"><ele>163.75</ele><time>2026-03-23T14:30:21Z</time></trkpt><trkpt lat="42.65524415690671" lon="2.6254828573123477"><ele>163.5</ele><time>2026-03-23T14:30:22Z</time></trkpt><trkpt lat="42.65522853211651" lon="2.6256813518910644"><ele>163.25</ele><time>2026-03-23T14:30:22.999Z</time></trkpt><trkpt lat="42.65521091731173" lon="2.625900192719921"><ele>163.0</ele><time>2026-03-23T14:30:23.999Z</time></trkpt><trkpt lat="42.65519183668056" lon="2.626126722317606"><ele>164.0</ele><time>2026-03-23T14:30:24.999Z</time></trkpt><trkpt lat="42.655169326940594" lon="2.62636578977404"><ele>165.0</ele><time>2026-03-23T14:30:25.999Z</time></trkpt><trkpt lat="42.65514716953455" lon="2.6266090409543024"><ele>166.0</ele><time>2026-03-23T14:30:26.999Z</time></trkpt><trkpt lat="42.6551324170311" lon="2.626830863065685"><ele>165.66666666666669</ele><time>2026-03-23T14:30:27.999Z</time></trkpt><trkpt lat="42.65513247323049" lon="2.6270779180205506"><ele>165.33333333333334</ele><time>2026-03-23T14:30:28.999Z</time></trkpt><trkpt lat="42.655134271279366" lon="2.6272998487691352"><ele>165.0</ele><time>2026-03-23T14:30:29.999Z</time></trkpt><trkpt lat="42.65513194599515" lon="2.6275252291173246"><ele>165.0</ele><time>2026-03-23T14:30:30.999Z</time></trkpt><trkpt lat="42.65513537707271" lon="2.6277632151931223"><ele>165.0</ele><time>2026-03-23T14:30:31.999Z</time></trkpt><trkpt lat="42.65515105898648" lon="2.628009519813963"><ele>165.0</ele><time>2026-03-23T14:30:32.999Z</time></trkpt><trkpt lat="42.65517490715709" lon="2.628261328425249"><ele>165.33333333333334</ele><time>2026-03-23T14:30:33.999Z</time></trkpt><trkpt lat="42.65521357597626" lon="2.6285195997968476"><ele>165.66666666666669</ele><time>2026-03-23T14:30:34.999Z</time></trkpt><trkpt lat="42.655257795008396" lon="2.628766127765171"><ele>166.0</ele><time>2026-03-23T14:30:35.999Z</time></trkpt><trkpt lat="42.65530145967111" lon="2.6290032831555674"><ele>166.0</ele><time>2026-03-23T14:30:36.999Z</time></trkpt><trkpt lat="42.65534897166052" lon="2.6292464130419764"><ele>166.0</ele><time>2026-03-23T14:30:37.999Z</time></trkpt><trkpt lat="42.65537986538128" lon="2.6294953111304387"><ele>166.0</ele><time>2026-03-23T14:30:38.999Z</time></trkpt><trkpt lat="42.65542743379932" lon="2.6297480376100566"><ele>166.0</ele><time>2026-03-23T14:30:39.999Z</time></trkpt><trkpt lat="42.65548866282473" lon="2.630000535421189"><ele>166.0</ele><time>2026-03-23T14:30:40.999Z</time></trkpt><trkpt lat="42.65553897484807" lon="2.6302703282649356"><ele>166.0</ele><time>2026-03-23T14:30:41.999Z</time></trkpt><trkpt lat="42.65558860146864" lon="2.6305374829773043"><ele>166.0</ele><time>2026-03-23T14:30:42.999Z</time></trkpt><trkpt lat="42.655637675920964" lon="2.6308086815537517"><ele>166.0</ele><time>2026-03-23T14:30:43.999Z</time></trkpt><trkpt lat="42.65568827016228" lon="2.63107515776064"><ele>166.0</ele><time>2026-03-23T14:30:44.999Z</time></trkpt><trkpt lat="42.65573848828509" lon="2.6313414762961647"><ele>166.0</ele><time>2026-03-23T14:30:45.999Z</time></trkpt><trkpt lat="42.655791579755416" lon="2.6316049899347145"><ele>166.0</ele><time>2026-03-23T14:30:46.999Z</time></trkpt><trkpt lat="42.65583531766411" lon="2.6318683403807306"><ele>166.0</ele><time>2026-03-23T14:30:47.999Z</time></trkpt><trkpt lat="42.65590189303631" lon="2.6321211713587083"><ele>166.0</ele><time>2026-03-23T14:30:48.999Z</time></trkpt><trkpt lat="42.655955815700715" lon="2.632384385377515"><ele>166.0</ele><time>2026-03-23T14:30:49.999Z</time></trkpt><trkpt lat="42.656014829407845" lon="2.6326457302333264"><ele>166.0</ele><time>2026-03-23T14:30:50.999Z</time></trkpt><trkpt lat="42.656083262233246" lon="2.6329026902737187"><ele>166.0</ele><time>2026-03-23T14:30:51.999Z</time></trkpt><trkpt lat="42.656150627597896" lon="2.6331653911987534"><ele>166.0</ele><time>2026-03-23T14:30:52.999Z</time></trkpt><trkpt lat="42.65622179886441" lon="2.6334191339145345"><ele>166.0</ele><time>2026-03-23T14:30:53.999Z</time></trkpt><trkpt lat="42.656294813692504" lon="2.6336566598089584"><ele>166.0</ele><time>2026-03-23T14:30:54.999Z</time></trkpt><trkpt lat="42.65636676036513" lon="2.633890075430093"><ele>166.0</ele><time>2026-03-23T14:30:55.999Z</time></trkpt><trkpt lat="42.656423987497185" lon="2.634131918088739"><ele>166.0</ele><time>2026-03-23T14:30:56.999Z</time></trkpt><trkpt lat="42.656457731781295" lon="2.634380748655864"><ele>165.66666666666669</ele><time>2026-03-23T14:30:57.999Z</time></trkpt><trkpt lat="42.65648167614338" lon="2.634643571081483"><ele>165.33333333333334</ele><time>2026-03-23T14:30:58.999Z</time></trkpt><trkpt lat="42.65650132685116" lon="2.634922304520748"><ele>165.0</ele><time>2026-03-23T14:30:59.999Z</time></trkpt><trkpt lat="42.656525560713845" lon="2.6351976091326175"><ele>164.66666666666666</ele><time>2026-03-23T14:31:00.999Z</time></trkpt><trkpt lat="42.65654867220112" lon="2.6354741653369063"><ele>164.33333333333331</ele><time>2026-03-23T14:31:01.999Z</time></trkpt><trkpt lat="42.65657312670479" lon="2.6357494628920253"><ele>164.0</ele><time>2026-03-23T14:31:02.999Z</time></trkpt><trkpt lat="42.65660462215437" lon="2.636028742315636"><ele>164.33333333333331</ele><time>2026-03-23T14:31:03.999Z</time></trkpt><trkpt lat="42.656635703948176" lon="2.63630585666105"><ele>164.66666666666666</ele><time>2026-03-23T14:31:04.999Z</time></trkpt><trkpt lat="42.656657385137116" lon="2.6365829570351185"><ele>165.0</ele><time>2026-03-23T14:31:05.999Z</time></trkpt><trkpt lat="42.65668601714159" lon="2.636855373177019"><ele>165.0</ele><time>2026-03-23T14:31:06.999Z</time></trkpt><trkpt lat="42.65672190512755" lon="2.637119004607314"><ele>165.0</ele><time>2026-03-23T14:31:07.999Z</time></trkpt><trkpt lat="42.65676118606566" lon="2.6373706426805974"><ele>165.0</ele><time>2026-03-23T14:31:09.001Z</time></trkpt><trkpt lat="42.656810320049416" lon="2.63761184356448"><ele>165.0</ele><time>2026-03-23T14:31:10.001Z</time></trkpt><trkpt lat="42.65686687535511" lon="2.6378558146412847"><ele>165.0</ele><time>2026-03-23T14:31:11.001Z</time></trkpt><trkpt lat="42.65693189117507" lon="2.638098931628506"><ele>165.0</ele><time>2026-03-23T14:31:12.001Z</time></trkpt><trkpt lat="42.65700210213143" lon="2.6383496049425066"><ele>164.0</ele><time>2026-03-23T14:31:13.001Z</time></trkpt><trkpt lat="42.657070992680076" lon="2.6385956529958996"><ele>163.0</ele><time>2026-03-23T14:31:14.001Z</time></trkpt><trkpt lat="42.657137390625174" lon="2.6388370767409293"><ele>162.0</ele><time>2026-03-23T14:31:15.001Z</time></trkpt><trkpt lat="42.65725251933505" lon="2.63933676365827"><ele>162.33333333333334</ele><time>2026-03-23T14:31:17.001Z</time></trkpt><trkpt lat="42.65729480971768" lon="2.6396041945608073"><ele>162.66666666666669</ele><time>2026-03-23T14:31:18.001Z</time></trkpt><trkpt lat="42.65733203652799" lon="2.6398753632294816"><ele>163.0</ele><time>2026-03-23T14:31:19.001Z</time></trkpt><trkpt lat="42.6573715587794" lon="2.6401413919110195"><ele>163.0</ele><time>2026-03-23T14:31:20.001Z</time></trkpt><trkpt lat="42.65741049588109" lon="2.640391911797601"><ele>163.0</ele><time>2026-03-23T14:31:21.001Z</time></trkpt><trkpt lat="42.65745012303384" lon="2.640620243398908"><ele>163.0</ele><time>2026-03-23T14:31:22.001Z</time></trkpt><trkpt lat="42.65748773318239" lon="2.6408359355076385"><ele>163.0</ele><time>2026-03-23T14:31:23.001Z</time></trkpt><trkpt lat="42.65753251359986" lon="2.64102983024753"><ele>163.0</ele><time>2026-03-23T14:31:24.001Z</time></trkpt><trkpt lat="42.65757372858703" lon="2.641215715450061"><ele>163.0</ele><time>2026-03-23T14:31:25.001Z</time></trkpt><trkpt lat="42.657609225132255" lon="2.64138667650229"><ele>163.0</ele><time>2026-03-23T14:31:26.001Z</time></trkpt><trkpt lat="42.65764926904285" lon="2.6415459884423806"><ele>162.83333333333334</ele><time>2026-03-23T14:31:27.001Z</time></trkpt><trkpt lat="42.65768038687103" lon="2.64168608089177"><ele>162.66666666666669</ele><time>2026-03-23T14:31:28.001Z</time></trkpt><trkpt lat="42.657707970786426" lon="2.6417915162169616"><ele>162.5</ele><time>2026-03-23T14:31:29.001Z</time></trkpt><trkpt lat="42.657741107382215" lon="2.6419003392008134"><ele>162.33333333333334</ele><time>2026-03-23T14:31:31Z</time></trkpt><trkpt lat="42.657788275025645" lon="2.6419633958997486"><ele>162.16666666666666</ele><time>2026-03-23T14:31:37Z</time></trkpt><trkpt lat="42.657846710149194" lon="2.6420826680260565"><ele>162.0</ele><time>2026-03-23T14:31:39Z</time></trkpt><trkpt lat="42.65788566179773" lon="2.6421653216912007"><ele>161.0</ele><time>2026-03-23T14:31:40Z</time></trkpt><trkpt lat="42.657923638696495" lon="2.6422813927389646"><ele>160.0</ele><time>2026-03-23T14:31:41Z</time></trkpt><trkpt lat="42.65795725365176" lon="2.6424309383000524"><ele>159.0</ele><time>2026-03-23T14:31:42Z</time></trkpt><trkpt lat="42.657964227827954" lon="2.6426047268282704"><ele>158.0</ele><time>2026-03-23T14:31:43Z</time></trkpt><trkpt lat="42.65799411638455" lon="2.642793488846351"><ele>158.0</ele><time>2026-03-23T14:31:44Z</time></trkpt><trkpt lat="42.658004076530815" lon="2.642984659003231"><ele>158.0</ele><time>2026-03-23T14:31:45Z</time></trkpt><trkpt lat="42.658024695363835" lon="2.6431628400046696"><ele>158.0</ele><time>2026-03-23T14:31:46Z</time></trkpt><trkpt lat="42.65804073213075" lon="2.6433498995068416"><ele>158.0</ele><time>2026-03-23T14:31:47Z</time></trkpt><trkpt lat="42.65805924937832" lon="2.643539063704157"><ele>158.25</ele><time>2026-03-23T14:31:48Z</time></trkpt><trkpt lat="42.65808154178477" lon="2.6437254062888176"><ele>158.5</ele><time>2026-03-23T14:31:49Z</time></trkpt><trkpt lat="42.658106252696335" lon="2.6439199016099453"><ele>158.75</ele><time>2026-03-23T14:31:50Z</time></trkpt><trkpt lat="42.65813156060259" lon="2.64413078615279"><ele>159.0</ele><time>2026-03-23T14:31:51Z</time></trkpt><trkpt lat="42.658162407676755" lon="2.6443528514995096"><ele>159.33333333333334</ele><time>2026-03-23T14:31:52Z</time></trkpt><trkpt lat="42.65819531042682" lon="2.6445722283376116"><ele>159.66666666666669</ele><time>2026-03-23T14:31:53Z</time></trkpt><trkpt lat="42.65822690387537" lon="2.644799330325113"><ele>160.0</ele><time>2026-03-23T14:31:54Z</time></trkpt><trkpt lat="42.65825960720351" lon="2.6450296275440137"><ele>160.0</ele><time>2026-03-23T14:31:55Z</time></trkpt><trkpt lat="42.65829481361806" lon="2.645258490868221"><ele>160.0</ele><time>2026-03-23T14:31:56Z</time></trkpt><trkpt lat="42.65832210694019" lon="2.645484352196158"><ele>160.0</ele><time>2026-03-23T14:31:57Z</time></trkpt><trkpt lat="42.65834233530458" lon="2.645713070497002"><ele>160.0</ele><time>2026-03-23T14:31:58Z</time></trkpt><trkpt lat="42.65834911458429" lon="2.6459699136513573"><ele>160.0</ele><time>2026-03-23T14:31:59Z</time></trkpt><trkpt lat="42.6583543999686" lon="2.6462311935661615"><ele>160.0</ele><time>2026-03-23T14:32:00Z</time></trkpt><trkpt lat="42.65835861829648" lon="2.6464848586362515"><ele>159.66666666666669</ele><time>2026-03-23T14:32:01Z</time></trkpt><trkpt lat="42.65835784828515" lon="2.6467307189973086"><ele>159.33333333333334</ele><time>2026-03-23T14:32:02Z</time></trkpt><trkpt lat="42.6583503026661" lon="2.6469761131720317"><ele>159.0</ele><time>2026-03-23T14:32:03Z</time></trkpt><trkpt lat="42.65834385636306" lon="2.6472184963071874"><ele>159.33333333333334</ele><time>2026-03-23T14:32:04Z</time></trkpt><trkpt lat="42.65834030648313" lon="2.6474518896844907"><ele>159.66666666666669</ele><time>2026-03-23T14:32:05Z</time></trkpt><trkpt lat="42.65833912797762" lon="2.6476838617215974"><ele>160.0</ele><time>2026-03-23T14:32:06Z</time></trkpt><trkpt lat="42.65834090242487" lon="2.647914696465316"><ele>160.0</ele><time>2026-03-23T14:32:07Z</time></trkpt><trkpt lat="42.65834808876715" lon="2.6481516338029913"><ele>160.0</ele><time>2026-03-23T14:32:08Z</time></trkpt><trkpt lat="42.65836519806879" lon="2.6483915364279738"><ele>160.0</ele><time>2026-03-23T14:32:09Z</time></trkpt><trkpt lat="42.65837101113148" lon="2.6486208119796353"><ele>159.6</ele><time>2026-03-23T14:32:10Z</time></trkpt><trkpt lat="42.65838446051185" lon="2.648798174462407"><ele>159.2</ele><time>2026-03-23T14:32:11Z</time></trkpt><trkpt lat="42.658396642157804" lon="2.6489588188381705"><ele>158.8</ele><time>2026-03-23T14:32:12Z</time></trkpt><trkpt lat="42.658413299680696" lon="2.649049828662272"><ele>158.4</ele><time>2026-03-23T14:32:13Z</time></trkpt><trkpt lat="42.65842341374294" lon="2.649166774719308"><ele>158.0</ele><time>2026-03-23T14:32:15Z</time></trkpt><trkpt lat="42.658435684097775" lon="2.649292299036396"><ele>158.0</ele><time>2026-03-23T14:32:17Z</time></trkpt><trkpt lat="42.65843393686001" lon="2.6494506389973655"><ele>158.0</ele><time>2026-03-23T14:32:18.999Z</time></trkpt><trkpt lat="42.658455351215785" lon="2.6495575068717225"><ele>158.0</ele><time>2026-03-23T14:32:19.999Z</time></trkpt><trkpt lat="42.65846212163355" lon="2.649685776459466"><ele>158.0</ele><time>2026-03-23T14:32:20.999Z</time></trkpt><trkpt lat="42.65846940195665" lon="2.649847598714773"><ele>158.0</ele><time>2026-03-23T14:32:21.999Z</time></trkpt><trkpt lat="42.658475318605845" lon="2.6500267630965837"><ele>157.66666666666666</ele><time>2026-03-23T14:32:22.999Z</time></trkpt><trkpt lat="42.65847156666337" lon="2.6502157072822334"><ele>157.33333333333334</ele><time>2026-03-23T14:32:23.999Z</time></trkpt><trkpt lat="42.658479404782845" lon="2.650429437244865"><ele>157.0</ele><time>2026-03-23T14:32:24.999Z</time></trkpt><trkpt lat="42.65848560730585" lon="2.65065845350162"><ele>156.66666666666669</ele><time>2026-03-23T14:32:25.999Z</time></trkpt><trkpt lat="42.65849161617233" lon="2.650880319352712"><ele>156.33333333333334</ele><time>2026-03-23T14:32:26.999Z</time></trkpt><trkpt lat="42.65849749023844" lon="2.651097207967523"><ele>156.0</ele><time>2026-03-23T14:32:27.999Z</time></trkpt><trkpt lat="42.658503321438914" lon="2.651312513835674"><ele>155.66666666666666</ele><time>2026-03-23T14:32:28.999Z</time></trkpt><trkpt lat="42.65851046885735" lon="2.651532606811544"><ele>155.33333333333331</ele><time>2026-03-23T14:32:29.999Z</time></trkpt><trkpt lat="42.65851810549251" lon="2.651764702551719"><ele>155.0</ele><time>2026-03-23T14:32:30.999Z</time></trkpt><trkpt lat="42.65854463926238" lon="2.6520125396487395"><ele>154.66666666666666</ele><time>2026-03-23T14:32:31.999Z</time></trkpt><trkpt lat="42.6585558995543" lon="2.6522577572986292"><ele>154.33333333333334</ele><time>2026-03-23T14:32:32.999Z</time></trkpt><trkpt lat="42.65857862504642" lon="2.6525078156819157"><ele>154.0</ele><time>2026-03-23T14:32:33.999Z</time></trkpt><trkpt lat="42.65861714089281" lon="2.652760561268189"><ele>153.33333333333334</ele><time>2026-03-23T14:32:34.999Z</time></trkpt><trkpt lat="42.65865327659613" lon="2.6530079458748355"><ele>152.66666666666666</ele><time>2026-03-23T14:32:35.999Z</time></trkpt><trkpt lat="42.65868511060468" lon="2.6532473614512626"><ele>152.0</ele><time>2026-03-23T14:32:36.999Z</time></trkpt><trkpt lat="42.65871611814711" lon="2.653480444678562"><ele>151.66666666666666</ele><time>2026-03-23T14:32:37.999Z</time></trkpt><trkpt lat="42.65874138896243" lon="2.653712504648502"><ele>151.33333333333334</ele><time>2026-03-23T14:32:38.999Z</time></trkpt><trkpt lat="42.65876483999244" lon="2.6539441167982374"><ele>151.0</ele><time>2026-03-23T14:32:39.999Z</time></trkpt><trkpt lat="42.658789331318026" lon="2.6541791471339153"><ele>151.0</ele><time>2026-03-23T14:32:40.999Z</time></trkpt><trkpt lat="42.658818291868286" lon="2.6544120211282145"><ele>151.0</ele><time>2026-03-23T14:32:41.999Z</time></trkpt><trkpt lat="42.65885169762145" lon="2.654655379371286"><ele>151.0</ele><time>2026-03-23T14:32:42.999Z</time></trkpt><trkpt lat="42.658885736208916" lon="2.6548964974177385"><ele>151.0</ele><time>2026-03-23T14:32:43.999Z</time></trkpt><trkpt lat="42.65892142585105" lon="2.6551389019973524"><ele>151.0</ele><time>2026-03-23T14:32:44.999Z</time></trkpt><trkpt lat="42.65895733020314" lon="2.6553837393386757"><ele>151.0</ele><time>2026-03-23T14:32:45.999Z</time></trkpt><trkpt lat="42.658992122439166" lon="2.655624366313969"><ele>150.33333333333334</ele><time>2026-03-23T14:32:46.999Z</time></trkpt><trkpt lat="42.65902919403458" lon="2.655854214301361"><ele>149.66666666666666</ele><time>2026-03-23T14:32:47.999Z</time></trkpt><trkpt lat="42.65905196085519" lon="2.6560905848610723"><ele>149.0</ele><time>2026-03-23T14:32:48.999Z</time></trkpt><trkpt lat="42.659100322855615" lon="2.656331076624183"><ele>148.66666666666666</ele><time>2026-03-23T14:32:49.999Z</time></trkpt><trkpt lat="42.65912030493213" lon="2.656583746564326"><ele>148.33333333333334</ele><time>2026-03-23T14:32:50.999Z</time></trkpt><trkpt lat="42.65914868910393" lon="2.656829997969517"><ele>148.0</ele><time>2026-03-23T14:32:51.999Z</time></trkpt><trkpt lat="42.65917901733739" lon="2.6570727777352148"><ele>148.66666666666669</ele><time>2026-03-23T14:32:52.999Z</time></trkpt><trkpt lat="42.65920074731518" lon="2.65731990690865"><ele>149.33333333333334</ele><time>2026-03-23T14:32:53.999Z</time></trkpt><trkpt lat="42.659220513665154" lon="2.657562099824652"><ele>150.0</ele><time>2026-03-23T14:32:54.999Z</time></trkpt><trkpt lat="42.65924417090784" lon="2.657801888904513"><ele>150.66666666666666</ele><time>2026-03-23T14:32:55.999Z</time></trkpt><trkpt lat="42.65927085816664" lon="2.658039621615929"><ele>151.33333333333331</ele><time>2026-03-23T14:32:56.999Z</time></trkpt><trkpt lat="42.65929241940426" lon="2.6582780817595757"><ele>152.0</ele><time>2026-03-23T14:32:57.999Z</time></trkpt><trkpt lat="42.659309251507686" lon="2.6585198248454374"><ele>152.0</ele><time>2026-03-23T14:32:58.999Z</time></trkpt><trkpt lat="42.659327517035834" lon="2.658762291379672"><ele>152.0</ele><time>2026-03-23T14:32:59.999Z</time></trkpt><trkpt lat="42.659348762569365" lon="2.6590082718555608"><ele>152.0</ele><time>2026-03-23T14:33:00.999Z</time></trkpt><trkpt lat="42.65937114690766" lon="2.659255917860014"><ele>152.33333333333331</ele><time>2026-03-23T14:33:01.999Z</time></trkpt><trkpt lat="42.65938645169623" lon="2.65950307857548"><ele>152.66666666666666</ele><time>2026-03-23T14:33:02.999Z</time></trkpt><trkpt lat="42.659407541608445" lon="2.6597517700726807"><ele>153.0</ele><time>2026-03-23T14:33:03.999Z</time></trkpt><trkpt lat="42.659428375873325" lon="2.660001857032705"><ele>153.0</ele><time>2026-03-23T14:33:04.999Z</time></trkpt><trkpt lat="42.65944973496692" lon="2.660251980504167"><ele>153.0</ele><time>2026-03-23T14:33:05.999Z</time></trkpt><trkpt lat="42.65946821209138" lon="2.660502095833111"><ele>153.0</ele><time>2026-03-23T14:33:06.999Z</time></trkpt><trkpt lat="42.65948513929934" lon="2.660752168681393"><ele>152.0</ele><time>2026-03-23T14:33:07.999Z</time></trkpt><trkpt lat="42.659498474420324" lon="2.661008411961687"><ele>151.0</ele><time>2026-03-23T14:33:08.999Z</time></trkpt><trkpt lat="42.65950935686843" lon="2.6612618639887087"><ele>150.0</ele><time>2026-03-23T14:33:09.999Z</time></trkpt><trkpt lat="42.65951830607418" lon="2.661519857121749"><ele>150.0</ele><time>2026-03-23T14:33:10.999Z</time></trkpt><trkpt lat="42.65952767436689" lon="2.6617778063260165"><ele>150.0</ele><time>2026-03-23T14:33:11.999Z</time></trkpt><trkpt lat="42.65953530582825" lon="2.6620349479608363"><ele>150.0</ele><time>2026-03-23T14:33:12.999Z</time></trkpt><trkpt lat="42.65953560671014" lon="2.6622887231612284"><ele>150.0</ele><time>2026-03-23T14:33:13.999Z</time></trkpt><trkpt lat="42.65951239366742" lon="2.6625359455824853"><ele>150.0</ele><time>2026-03-23T14:33:15.001Z</time></trkpt><trkpt lat="42.659506495339144" lon="2.662777580709277"><ele>150.0</ele><time>2026-03-23T14:33:16.001Z</time></trkpt><trkpt lat="42.65949779175227" lon="2.663014409827882"><ele>150.0</ele><time>2026-03-23T14:33:17.001Z</time></trkpt><trkpt lat="42.6594913662132" lon="2.6632304629024945"><ele>150.0</ele><time>2026-03-23T14:33:18.001Z</time></trkpt><trkpt lat="42.659497574363556" lon="2.6634483699960327"><ele>150.0</ele><time>2026-03-23T14:33:19.001Z</time></trkpt><trkpt lat="42.65947845631699" lon="2.6636720847316413"><ele>151.0</ele><time>2026-03-23T14:33:20.001Z</time></trkpt><trkpt lat="42.65946278016299" lon="2.663899548151361"><ele>152.0</ele><time>2026-03-23T14:33:21.001Z</time></trkpt><trkpt lat="42.659445907892064" lon="2.6641232574246203"><ele>153.0</ele><time>2026-03-23T14:33:22.001Z</time></trkpt><trkpt lat="42.65942791543788" lon="2.6643485208187054"><ele>154.33333333333334</ele><time>2026-03-23T14:33:23.001Z</time></trkpt><trkpt lat="42.65941255701739" lon="2.664573888282132"><ele>155.66666666666669</ele><time>2026-03-23T14:33:24.001Z</time></trkpt><trkpt lat="42.65939119602562" lon="2.664799455270935"><ele>157.0</ele><time>2026-03-23T14:33:25.001Z</time></trkpt><trkpt lat="42.65937217548244" lon="2.6650128320303157"><ele>157.0</ele><time>2026-03-23T14:33:26.001Z</time></trkpt><trkpt lat="42.6593574547066" lon="2.6652116413584737"><ele>157.0</ele><time>2026-03-23T14:33:27.001Z</time></trkpt><trkpt lat="42.659339581270736" lon="2.665416053692011"><ele>157.0</ele><time>2026-03-23T14:33:28.001Z</time></trkpt><trkpt lat="42.65930200885392" lon="2.66584957807475"><ele>157.0</ele><time>2026-03-23T14:33:30Z</time></trkpt><trkpt lat="42.65928407017793" lon="2.6660585641686585"><ele>157.0</ele><time>2026-03-23T14:33:31Z</time></trkpt><trkpt lat="42.65927040521233" lon="2.6662646042215172"><ele>157.0</ele><time>2026-03-23T14:33:32Z</time></trkpt><trkpt lat="42.65925919707973" lon="2.6664739856958426"><ele>157.25</ele><time>2026-03-23T14:33:33Z</time></trkpt><trkpt lat="42.65924942119332" lon="2.6666782246742455"><ele>157.5</ele><time>2026-03-23T14:33:34Z</time></trkpt><trkpt lat="42.659242606870365" lon="2.666874516692343"><ele>157.75</ele><time>2026-03-23T14:33:35Z</time></trkpt><trkpt lat="42.65923193792544" lon="2.6670549031019686"><ele>158.0</ele><time>2026-03-23T14:33:36Z</time></trkpt><trkpt lat="42.659223844085545" lon="2.6672272253857563"><ele>158.0</ele><time>2026-03-23T14:33:37Z</time></trkpt><trkpt lat="42.65921859162455" lon="2.6673944416644715"><ele>158.0</ele><time>2026-03-23T14:33:38Z</time></trkpt><trkpt lat="42.6592103379181" lon="2.6675700291793123"><ele>158.0</ele><time>2026-03-23T14:33:39Z</time></trkpt><trkpt lat="42.659202852716" lon="2.6677516727786124"><ele>158.0</ele><time>2026-03-23T14:33:40Z</time></trkpt><trkpt lat="42.659195069104" lon="2.667929603156098"><ele>157.83333333333331</ele><time>2026-03-23T14:33:41Z</time></trkpt><trkpt lat="42.659181275238026" lon="2.6680871770405954"><ele>157.66666666666666</ele><time>2026-03-23T14:33:42Z</time></trkpt><trkpt lat="42.659173306939515" lon="2.668225894849402"><ele>157.5</ele><time>2026-03-23T14:33:43Z</time></trkpt><trkpt lat="42.65916737896868" lon="2.6683349273833237"><ele>157.33333333333334</ele><time>2026-03-23T14:33:44Z</time></trkpt><trkpt lat="42.65916323660387" lon="2.6684271736154366"><ele>157.16666666666669</ele><time>2026-03-23T14:33:45Z</time></trkpt><trkpt lat="42.65916157931112" lon="2.668513188676124"><ele>157.0</ele><time>2026-03-23T14:33:46Z</time></trkpt><trkpt lat="42.65915809165926" lon="2.6686097495005496"><ele>156.99999999999997</ele><time>2026-03-23T14:33:47Z</time></trkpt><trkpt lat="42.659146498627415" lon="2.6687045699600995"><ele>157.0</ele><time>2026-03-23T14:33:48Z</time></trkpt><trkpt lat="42.659118486071435" lon="2.6687971848848115"><ele>157.0</ele><time>2026-03-23T14:33:49Z</time></trkpt><trkpt lat="42.6590852245509" lon="2.6688855496022623"><ele>157.0</ele><time>2026-03-23T14:33:50Z</time></trkpt><trkpt lat="42.659078708071" lon="2.6689762824839027"><ele>157.0</ele><time>2026-03-23T14:33:51Z</time></trkpt><trkpt lat="42.659105129977625" lon="2.6690623746097364"><ele>156.99999999999997</ele><time>2026-03-23T14:33:52Z</time></trkpt><trkpt lat="42.659143931669696" lon="2.669144822850215"><ele>157.0</ele><time>2026-03-23T14:33:53Z</time></trkpt><trkpt lat="42.659241385559355" lon="2.6691709102180696"><ele>157.0</ele><time>2026-03-23T14:33:54Z</time></trkpt><trkpt lat="42.659341009298274" lon="2.669186188603347"><ele>157.0</ele><time>2026-03-23T14:33:55Z</time></trkpt><trkpt lat="42.6594585451593" lon="2.669234348548893"><ele>157.0</ele><time>2026-03-23T14:33:56Z</time></trkpt><trkpt lat="42.65958223424304" lon="2.6693242001180315"><ele>157.0</ele><time>2026-03-23T14:33:57Z</time></trkpt><trkpt lat="42.65970193574623" lon="2.669431868365375"><ele>155.33333333333334</ele><time>2026-03-23T14:33:58Z</time></trkpt><trkpt lat="42.659837081270275" lon="2.6695564138868084"><ele>153.66666666666666</ele><time>2026-03-23T14:33:59Z</time></trkpt><trkpt lat="42.659983091979356" lon="2.669696786134047"><ele>152.0</ele><time>2026-03-23T14:34:00Z</time></trkpt><trkpt lat="42.660132880997175" lon="2.669833792985425"><ele>151.33333333333331</ele><time>2026-03-23T14:34:01Z</time></trkpt><trkpt lat="42.66028342201871" lon="2.6699931138280744"><ele>150.66666666666666</ele><time>2026-03-23T14:34:02Z</time></trkpt><trkpt lat="42.6604238633062" lon="2.67013864276806"><ele>150.0</ele><time>2026-03-23T14:34:03Z</time></trkpt><trkpt lat="42.660550790168635" lon="2.670290981725815"><ele>149.33333333333334</ele><time>2026-03-23T14:34:04Z</time></trkpt><trkpt lat="42.660670182251934" lon="2.670467478706447"><ele>148.66666666666669</ele><time>2026-03-23T14:34:05Z</time></trkpt><trkpt lat="42.6607778201662" lon="2.670664696363214"><ele>148.0</ele><time>2026-03-23T14:34:06Z</time></trkpt><trkpt lat="42.66087392253403" lon="2.670877543971293"><ele>148.0</ele><time>2026-03-23T14:34:07Z</time></trkpt><trkpt lat="42.66095007425231" lon="2.671101938842688"><ele>148.0</ele><time>2026-03-23T14:34:08Z</time></trkpt><trkpt lat="42.661014603982444" lon="2.6713349489039864"><ele>148.0</ele><time>2026-03-23T14:34:09Z</time></trkpt><trkpt lat="42.66105999085871" lon="2.6715747694912224"><ele>148.66666666666669</ele><time>2026-03-23T14:34:10Z</time></trkpt><trkpt lat="42.6610875472786" lon="2.671825014066534"><ele>149.33333333333334</ele><time>2026-03-23T14:34:11Z</time></trkpt><trkpt lat="42.66109528761638" lon="2.6720867995523987"><ele>150.0</ele><time>2026-03-23T14:34:12Z</time></trkpt><trkpt lat="42.66109211719219" lon="2.672347713270273"><ele>150.33333333333334</ele><time>2026-03-23T14:34:13Z</time></trkpt><trkpt lat="42.66108638066382" lon="2.672602477163515"><ele>150.66666666666669</ele><time>2026-03-23T14:34:14Z</time></trkpt><trkpt lat="42.66108330586438" lon="2.6728534933743457"><ele>151.0</ele><time>2026-03-23T14:34:15Z</time></trkpt><trkpt lat="42.66107929587684" lon="2.673110193777723"><ele>150.0</ele><time>2026-03-23T14:34:16Z</time></trkpt><trkpt lat="42.66107851664383" lon="2.673367750124985"><ele>149.0</ele><time>2026-03-23T14:34:17Z</time></trkpt><trkpt lat="42.66107245769412" lon="2.6738789917677406"><ele>148.66666666666666</ele><time>2026-03-23T14:34:18.999Z</time></trkpt><trkpt lat="42.66106779574659" lon="2.674136705982505"><ele>148.33333333333334</ele><time>2026-03-23T14:34:19.999Z</time></trkpt><trkpt lat="42.661060420607214" lon="2.6743937083218334"><ele>148.0</ele><time>2026-03-23T14:34:20.999Z</time></trkpt><trkpt lat="42.66105619940169" lon="2.6746470098556148"><ele>148.0</ele><time>2026-03-23T14:34:21.999Z</time></trkpt><trkpt lat="42.661051382286104" lon="2.674895948638973"><ele>148.0</ele><time>2026-03-23T14:34:22.999Z</time></trkpt><trkpt lat="42.661045910016306" lon="2.6751421818927565"><ele>148.0</ele><time>2026-03-23T14:34:23.999Z</time></trkpt><trkpt lat="42.6610417015811" lon="2.6753821544212384"><ele>147.66666666666669</ele><time>2026-03-23T14:34:24.999Z</time></trkpt><trkpt lat="42.661041862928876" lon="2.6756119449091376"><ele>147.33333333333334</ele><time>2026-03-23T14:34:25.999Z</time></trkpt><trkpt lat="42.66104084365916" lon="2.6758356039144506"><ele>147.0</ele><time>2026-03-23T14:34:26.999Z</time></trkpt><trkpt lat="42.66104439575683" lon="2.6760392700275033"><ele>147.5</ele><time>2026-03-23T14:34:27.999Z</time></trkpt><trkpt lat="42.66105179934238" lon="2.676233286294891"><ele>148.0</ele><time>2026-03-23T14:34:28.999Z</time></trkpt><trkpt lat="42.66105444927058" lon="2.676419662500565"><ele>148.5</ele><time>2026-03-23T14:34:29.999Z</time></trkpt><trkpt lat="42.661047231104824" lon="2.676600117203792"><ele>149.0</ele><time>2026-03-23T14:34:30.999Z</time></trkpt><trkpt lat="42.66103395024119" lon="2.676762224543598"><ele>149.0</ele><time>2026-03-23T14:34:31.999Z</time></trkpt><trkpt lat="42.66101059675484" lon="2.676923031316047"><ele>149.0</ele><time>2026-03-23T14:34:32.999Z</time></trkpt><trkpt lat="42.66099599235865" lon="2.677099499716358"><ele>149.0</ele><time>2026-03-23T14:34:33.999Z</time></trkpt><trkpt lat="42.66099948534955" lon="2.677280590530365"><ele>149.0</ele><time>2026-03-23T14:34:34.999Z</time></trkpt><trkpt lat="42.660999885263614" lon="2.677478016225486"><ele>148.0</ele><time>2026-03-23T14:34:35.999Z</time></trkpt><trkpt lat="42.66098422702941" lon="2.6776945869050626"><ele>147.0</ele><time>2026-03-23T14:34:36.999Z</time></trkpt><trkpt lat="42.66096337294371" lon="2.677921733259453"><ele>146.0</ele><time>2026-03-23T14:34:37.999Z</time></trkpt><trkpt lat="42.66094246831077" lon="2.6781518174512624"><ele>146.0</ele><time>2026-03-23T14:34:38.999Z</time></trkpt><trkpt lat="42.66092364192392" lon="2.6783801426929164"><ele>146.0</ele><time>2026-03-23T14:34:39.999Z</time></trkpt><trkpt lat="42.66090701418506" lon="2.6786009199898047"><ele>146.0</ele><time>2026-03-23T14:34:40.999Z</time></trkpt><trkpt lat="42.66089064473487" lon="2.6788234854965025"><ele>146.33333333333331</ele><time>2026-03-23T14:34:41.999Z</time></trkpt><trkpt lat="42.66086995748744" lon="2.679044356896598"><ele>146.66666666666666</ele><time>2026-03-23T14:34:42.999Z</time></trkpt><trkpt lat="42.66084272353109" lon="2.679261944804486"><ele>147.0</ele><time>2026-03-23T14:34:43.999Z</time></trkpt><trkpt lat="42.66080336393531" lon="2.6794786447527845"><ele>147.0</ele><time>2026-03-23T14:34:44.999Z</time></trkpt><trkpt lat="42.66074471094468" lon="2.6796950570815774"><ele>147.0</ele><time>2026-03-23T14:34:45.999Z</time></trkpt><trkpt lat="42.660602455101966" lon="2.6801026064823414"><ele>146.66666666666666</ele><time>2026-03-23T14:34:47.999Z</time></trkpt><trkpt lat="42.66050994579012" lon="2.680293704583344"><ele>146.33333333333331</ele><time>2026-03-23T14:34:48.999Z</time></trkpt><trkpt lat="42.660419546788525" lon="2.6804853827845108"><ele>146.0</ele><time>2026-03-23T14:34:49.999Z</time></trkpt><trkpt lat="42.66032929796132" lon="2.680682207489633"><ele>145.66666666666666</ele><time>2026-03-23T14:34:50.999Z</time></trkpt><trkpt lat="42.660239693146615" lon="2.680872762537298"><ele>145.33333333333334</ele><time>2026-03-23T14:34:51.999Z</time></trkpt><trkpt lat="42.660151958344144" lon="2.681063799866823"><ele>145.0</ele><time>2026-03-23T14:34:52.999Z</time></trkpt><trkpt lat="42.660061228376954" lon="2.6812574291956324"><ele>145.0</ele><time>2026-03-23T14:34:53.999Z</time></trkpt><trkpt lat="42.65997166848195" lon="2.68145206445884"><ele>145.0</ele><time>2026-03-23T14:34:54.999Z</time></trkpt><trkpt lat="42.65988602079582" lon="2.6816398870309825"><ele>145.0</ele><time>2026-03-23T14:34:55.999Z</time></trkpt><trkpt lat="42.65980408991133" lon="2.6818230616323215"><ele>145.0</ele><time>2026-03-23T14:34:56.999Z</time></trkpt><trkpt lat="42.65972873992334" lon="2.681987963579583"><ele>145.0</ele><time>2026-03-23T14:34:57.999Z</time></trkpt><trkpt lat="42.65965807379553" lon="2.6821443606386697"><ele>145.0</ele><time>2026-03-23T14:34:58.999Z</time></trkpt><trkpt lat="42.65958710986628" lon="2.6822871062692926"><ele>145.0</ele><time>2026-03-23T14:34:59.999Z</time></trkpt><trkpt lat="42.65951324378989" lon="2.6824197363287654"><ele>145.5</ele><time>2026-03-23T14:35:00.999Z</time></trkpt><trkpt lat="42.65944236852015" lon="2.682537816194676"><ele>146.0</ele><time>2026-03-23T14:35:01.999Z</time></trkpt><trkpt lat="42.65937395799343" lon="2.6826409062680727"><ele>146.5</ele><time>2026-03-23T14:35:02.999Z</time></trkpt><trkpt lat="42.65929392824895" lon="2.682744852585341"><ele>147.0</ele><time>2026-03-23T14:35:03.999Z</time></trkpt><trkpt lat="42.65917857556994" lon="2.682846244860494"><ele>147.0</ele><time>2026-03-23T14:35:05.999Z</time></trkpt><trkpt lat="42.659088427302656" lon="2.6828836062851207"><ele>147.0</ele><time>2026-03-23T14:35:06.999Z</time></trkpt><trkpt lat="42.6589898011141" lon="2.6829312308018722"><ele>147.0</ele><time>2026-03-23T14:35:07.999Z</time></trkpt><trkpt lat="42.65888338066824" lon="2.682973213658975"><ele>147.0</ele><time>2026-03-23T14:35:08.999Z</time></trkpt><trkpt lat="42.65876803999434" lon="2.683006814713883"><ele>147.0</ele><time>2026-03-23T14:35:09.999Z</time></trkpt><trkpt lat="42.6586426839879" lon="2.6830451174719148"><ele>147.25</ele><time>2026-03-23T14:35:10.999Z</time></trkpt><trkpt lat="42.658509560353544" lon="2.683100353399393"><ele>147.5</ele><time>2026-03-23T14:35:11.999Z</time></trkpt><trkpt lat="42.65839095206366" lon="2.683175170269816"><ele>147.75</ele><time>2026-03-23T14:35:12.999Z</time></trkpt><trkpt lat="42.65826960846176" lon="2.6832708856029117"><ele>148.0</ele><time>2026-03-23T14:35:13.999Z</time></trkpt><trkpt lat="42.65815848656268" lon="2.683391245012715"><ele>148.0</ele><time>2026-03-23T14:35:14.998Z</time></trkpt><trkpt lat="42.65804376565554" lon="2.6835074900227944"><ele>148.0</ele><time>2026-03-23T14:35:15.998Z</time></trkpt><trkpt lat="42.65794921986454" lon="2.6836466802166408"><ele>148.0</ele><time>2026-03-23T14:35:16.998Z</time></trkpt><trkpt lat="42.657866700647276" lon="2.683800864679157"><ele>148.0</ele><time>2026-03-23T14:35:17.998Z</time></trkpt><trkpt lat="42.65779471172234" lon="2.6839808925379645"><ele>147.66666666666669</ele><time>2026-03-23T14:35:18.998Z</time></trkpt><trkpt lat="42.657733528395624" lon="2.6841787331506572"><ele>147.33333333333334</ele><time>2026-03-23T14:35:19.998Z</time></trkpt><trkpt lat="42.657684639990535" lon="2.684397284586077"><ele>147.0</ele><time>2026-03-23T14:35:21.001Z</time></trkpt><trkpt lat="42.657638025810684" lon="2.684615738532812"><ele>147.0</ele><time>2026-03-23T14:35:22.001Z</time></trkpt><trkpt lat="42.657585424478846" lon="2.684840120133925"><ele>147.0</ele><time>2026-03-23T14:35:23Z</time></trkpt><trkpt lat="42.65752658097816" lon="2.6850745399956577"><ele>147.0</ele><time>2026-03-23T14:35:24.001Z</time></trkpt><trkpt lat="42.65744679715" lon="2.6853135786661375"><ele>146.0</ele><time>2026-03-23T14:35:25Z</time></trkpt><trkpt lat="42.65738498990039" lon="2.685563061323238"><ele>145.0</ele><time>2026-03-23T14:35:26Z</time></trkpt><trkpt lat="42.65732127724226" lon="2.685823430763554"><ele>144.0</ele><time>2026-03-23T14:35:27Z</time></trkpt><trkpt lat="42.65725451485288" lon="2.686099094852807"><ele>143.66666666666666</ele><time>2026-03-23T14:35:28Z</time></trkpt><trkpt lat="42.657192956245126" lon="2.686362400490319"><ele>143.33333333333331</ele><time>2026-03-23T14:35:29Z</time></trkpt><trkpt lat="42.6571314418363" lon="2.686634502528495"><ele>143.0</ele><time>2026-03-23T14:35:30Z</time></trkpt><trkpt lat="42.657069705548494" lon="2.686909581328097"><ele>142.33333333333331</ele><time>2026-03-23T14:35:31Z</time></trkpt><trkpt lat="42.65700719508017" lon="2.6871740249381997"><ele>141.66666666666666</ele><time>2026-03-23T14:35:32Z</time></trkpt><trkpt lat="42.656951026066345" lon="2.68740771287136"><ele>141.0</ele><time>2026-03-23T14:35:33Z</time></trkpt><trkpt lat="42.65688769802885" lon="2.6876495362106585"><ele>141.33333333333334</ele><time>2026-03-23T14:35:34Z</time></trkpt><trkpt lat="42.65682335970143" lon="2.687898196560758"><ele>141.66666666666669</ele><time>2026-03-23T14:35:35Z</time></trkpt><trkpt lat="42.656733135057316" lon="2.6881300597821314"><ele>142.0</ele><time>2026-03-23T14:35:36Z</time></trkpt><trkpt lat="42.65662815811324" lon="2.688352734802383"><ele>142.0</ele><time>2026-03-23T14:35:37Z</time></trkpt><trkpt lat="42.65651092266508" lon="2.6885608289675442"><ele>142.0</ele><time>2026-03-23T14:35:38Z</time></trkpt><trkpt lat="42.6563880098304" lon="2.6887653166822343"><ele>142.0</ele><time>2026-03-23T14:35:39Z</time></trkpt><trkpt lat="42.65625322154165" lon="2.688962491275772"><ele>142.33333333333334</ele><time>2026-03-23T14:35:40Z</time></trkpt><trkpt lat="42.656113165692744" lon="2.689154678958648"><ele>142.66666666666666</ele><time>2026-03-23T14:35:41Z</time></trkpt><trkpt lat="42.65595983586762" lon="2.689330096255119"><ele>143.0</ele><time>2026-03-23T14:35:42Z</time></trkpt><trkpt lat="42.65583184217403" lon="2.6895435862887562"><ele>142.0</ele><time>2026-03-23T14:35:43Z</time></trkpt><trkpt lat="42.65569709843005" lon="2.689744276514968"><ele>141.0</ele><time>2026-03-23T14:35:44Z</time></trkpt><trkpt lat="42.65555720356944" lon="2.6899349167097597"><ele>140.0</ele><time>2026-03-23T14:35:45Z</time></trkpt><trkpt lat="42.65542776843755" lon="2.6901441683596743"><ele>139.33333333333331</ele><time>2026-03-23T14:35:46Z</time></trkpt><trkpt lat="42.65530313330259" lon="2.6903489260924704"><ele>138.66666666666666</ele><time>2026-03-23T14:35:47Z</time></trkpt><trkpt lat="42.65519477322651" lon="2.690558467425275"><ele>138.0</ele><time>2026-03-23T14:35:48Z</time></trkpt><trkpt lat="42.6550562269414" lon="2.690745201330054"><ele>138.0</ele><time>2026-03-23T14:35:49Z</time></trkpt><trkpt lat="42.65491060386637" lon="2.6909251082169408"><ele>138.0</ele><time>2026-03-23T14:35:50Z</time></trkpt><trkpt lat="42.654767164062065" lon="2.6910964703843616"><ele>138.0</ele><time>2026-03-23T14:35:51Z</time></trkpt><trkpt lat="42.65461056967112" lon="2.691260916649208"><ele>138.0</ele><time>2026-03-23T14:35:52Z</time></trkpt><trkpt lat="42.65448916725925" lon="2.6914669784178487"><ele>138.0</ele><time>2026-03-23T14:35:53Z</time></trkpt><trkpt lat="42.65436424926642" lon="2.691656798350325"><ele>138.0</ele><time>2026-03-23T14:35:54Z</time></trkpt><trkpt lat="42.65426300109731" lon="2.691873127262594"><ele>139.0</ele><time>2026-03-23T14:35:55Z</time></trkpt><trkpt lat="42.65417242937332" lon="2.692108944057166"><ele>140.0</ele><time>2026-03-23T14:35:56Z</time></trkpt><trkpt lat="42.654087445310076" lon="2.692343399354615"><ele>141.0</ele><time>2026-03-23T14:35:57Z</time></trkpt><trkpt lat="42.65399892908451" lon="2.6925845359337495"><ele>140.66666666666666</ele><time>2026-03-23T14:35:58Z</time></trkpt><trkpt lat="42.653910317008275" lon="2.692820287392198"><ele>140.33333333333331</ele><time>2026-03-23T14:35:59Z</time></trkpt><trkpt lat="42.653803062165636" lon="2.6930480088865862"><ele>140.0</ele><time>2026-03-23T14:36:00Z</time></trkpt><trkpt lat="42.65370651907002" lon="2.6932712424119547"><ele>140.33333333333331</ele><time>2026-03-23T14:36:01Z</time></trkpt><trkpt lat="42.653608196851856" lon="2.693492684447209"><ele>140.66666666666666</ele><time>2026-03-23T14:36:02Z</time></trkpt><trkpt lat="42.653503642046054" lon="2.693706226944718"><ele>141.0</ele><time>2026-03-23T14:36:03Z</time></trkpt><trkpt lat="42.65338763854512" lon="2.6939097174993147"><ele>141.0</ele><time>2026-03-23T14:36:04Z</time></trkpt><trkpt lat="42.653263737934694" lon="2.6941106440326195"><ele>141.0</ele><time>2026-03-23T14:36:05Z</time></trkpt><trkpt lat="42.65312890639179" lon="2.694300778957432"><ele>141.0</ele><time>2026-03-23T14:36:06Z</time></trkpt><trkpt lat="42.65299241975248" lon="2.694491045251571"><ele>140.33333333333334</ele><time>2026-03-23T14:36:07Z</time></trkpt><trkpt lat="42.65285807030212" lon="2.6946860199949634"><ele>139.66666666666669</ele><time>2026-03-23T14:36:08Z</time></trkpt><trkpt lat="42.652726548697004" lon="2.694877696473021"><ele>139.0</ele><time>2026-03-23T14:36:08.999Z</time></trkpt><trkpt lat="42.65259513676931" lon="2.6950692131369145"><ele>140.66666666666669</ele><time>2026-03-23T14:36:09.999Z</time></trkpt><trkpt lat="42.65247338152872" lon="2.695272750724322"><ele>142.33333333333334</ele><time>2026-03-23T14:36:10.999Z</time></trkpt><trkpt lat="42.65232569525178" lon="2.6954533545224617"><ele>144.0</ele><time>2026-03-23T14:36:11.999Z</time></trkpt><trkpt lat="42.65219037463421" lon="2.6956448175261745"><ele>144.0</ele><time>2026-03-23T14:36:12.999Z</time></trkpt><trkpt lat="42.65206023574679" lon="2.695837035751823"><ele>144.0</ele><time>2026-03-23T14:36:13.999Z</time></trkpt><trkpt lat="42.651956675114256" lon="2.69603386735237"><ele>144.0</ele><time>2026-03-23T14:36:14.999Z</time></trkpt><trkpt lat="42.65184944247304" lon="2.6962364899337086"><ele>144.0</ele><time>2026-03-23T14:36:15.999Z</time></trkpt><trkpt lat="42.65173843634377" lon="2.696454722294251"><ele>144.0</ele><time>2026-03-23T14:36:16.999Z</time></trkpt><trkpt lat="42.65166397987962" lon="2.6966768208754024"><ele>144.0</ele><time>2026-03-23T14:36:17.999Z</time></trkpt><trkpt lat="42.65156780667397" lon="2.696891145169462"><ele>143.66666666666666</ele><time>2026-03-23T14:36:18.999Z</time></trkpt><trkpt lat="42.65147824746901" lon="2.697113991636924"><ele>143.33333333333331</ele><time>2026-03-23T14:36:19.999Z</time></trkpt><trkpt lat="42.651388739856145" lon="2.697332115801241"><ele>143.0</ele><time>2026-03-23T14:36:20.999Z</time></trkpt><trkpt lat="42.651300266561506" lon="2.6975482186101263"><ele>143.0</ele><time>2026-03-23T14:36:21.999Z</time></trkpt><trkpt lat="42.65122847614204" lon="2.6977633041967355"><ele>143.0</ele><time>2026-03-23T14:36:22.999Z</time></trkpt><trkpt lat="42.651142600261096" lon="2.697955185756162"><ele>143.0</ele><time>2026-03-23T14:36:23.999Z</time></trkpt><trkpt lat="42.65105858075516" lon="2.6981635698871567"><ele>143.0</ele><time>2026-03-23T14:36:24.999Z</time></trkpt><trkpt lat="42.650965723401" lon="2.6983743878737725"><ele>143.0</ele><time>2026-03-23T14:36:25.999Z</time></trkpt><trkpt lat="42.65091584265821" lon="2.6986204331217505"><ele>143.0</ele><time>2026-03-23T14:36:26.999Z</time></trkpt><trkpt lat="42.650873162567315" lon="2.6988738185646297"><ele>142.33333333333331</ele><time>2026-03-23T14:36:27.999Z</time></trkpt><trkpt lat="42.650836696522596" lon="2.699133589586768"><ele>141.66666666666666</ele><time>2026-03-23T14:36:28.999Z</time></trkpt><trkpt lat="42.65080023188205" lon="2.699393482226225"><ele>141.0</ele><time>2026-03-23T14:36:29.999Z</time></trkpt><trkpt lat="42.65076515636956" lon="2.699653003429576"><ele>141.33333333333334</ele><time>2026-03-23T14:36:30.999Z</time></trkpt><trkpt lat="42.65072970553779" lon="2.699908600346795"><ele>141.66666666666669</ele><time>2026-03-23T14:36:31.999Z</time></trkpt><trkpt lat="42.65069437824234" lon="2.700164031060735"><ele>142.0</ele><time>2026-03-23T14:36:32.999Z</time></trkpt><trkpt lat="42.65066033975556" lon="2.7004181664754796"><ele>142.0</ele><time>2026-03-23T14:36:33.999Z</time></trkpt><trkpt lat="42.6506261808066" lon="2.700672916055869"><ele>142.0</ele><time>2026-03-23T14:36:34.999Z</time></trkpt><trkpt lat="42.65057827043373" lon="2.7009154905555985"><ele>142.0</ele><time>2026-03-23T14:36:35.999Z</time></trkpt><trkpt lat="42.650521077024315" lon="2.7011584314798287"><ele>142.33333333333334</ele><time>2026-03-23T14:36:36.999Z</time></trkpt><trkpt lat="42.650459613037086" lon="2.7013965417293826"><ele>142.66666666666666</ele><time>2026-03-23T14:36:37.999Z</time></trkpt><trkpt lat="42.65038949686116" lon="2.701613265235188"><ele>143.0</ele><time>2026-03-23T14:36:38.999Z</time></trkpt><trkpt lat="42.650206400093694" lon="2.7020397204319964"><ele>143.0</ele><time>2026-03-23T14:36:40.999Z</time></trkpt><trkpt lat="42.650098238116854" lon="2.70223355482027"><ele>143.0</ele><time>2026-03-23T14:36:41.999Z</time></trkpt><trkpt lat="42.64997474511847" lon="2.7024198601966716"><ele>143.0</ele><time>2026-03-23T14:36:42.999Z</time></trkpt><trkpt lat="42.64985124835695" lon="2.702609821871965"><ele>143.0</ele><time>2026-03-23T14:36:43.999Z</time></trkpt><trkpt lat="42.64972746265152" lon="2.7028012061052626"><ele>143.0</ele><time>2026-03-23T14:36:44.999Z</time></trkpt><trkpt lat="42.649611766613056" lon="2.7029695757323586"><ele>143.0</ele><time>2026-03-23T14:36:45.999Z</time></trkpt><trkpt lat="42.64950367104814" lon="2.7031281766573905"><ele>143.25</ele><time>2026-03-23T14:36:46.999Z</time></trkpt><trkpt lat="42.649401647331175" lon="2.703293167294498"><ele>143.5</ele><time>2026-03-23T14:36:47.999Z</time></trkpt><trkpt lat="42.64932045333594" lon="2.7034425723786364"><ele>143.75</ele><time>2026-03-23T14:36:48.999Z</time></trkpt><trkpt lat="42.64924428936578" lon="2.7035950560545206"><ele>144.0</ele><time>2026-03-23T14:36:49.999Z</time></trkpt><trkpt lat="42.64917855836508" lon="2.7037386460552413"><ele>143.4</ele><time>2026-03-23T14:36:50.999Z</time></trkpt><trkpt lat="42.64911664833214" lon="2.7038745176864465"><ele>142.8</ele><time>2026-03-23T14:36:51.999Z</time></trkpt><trkpt lat="42.64906268184214" lon="2.7040003026946984"><ele>142.2</ele><time>2026-03-23T14:36:52.999Z</time></trkpt><trkpt lat="42.64901245226156" lon="2.704107524668456"><ele>141.6</ele><time>2026-03-23T14:36:53.999Z</time></trkpt><trkpt lat="42.64896893896782" lon="2.704198355836165"><ele>141.0</ele><time>2026-03-23T14:36:54.999Z</time></trkpt><trkpt lat="42.64891948705826" lon="2.7042761405208258"><ele>141.0</ele><time>2026-03-23T14:36:55.999Z</time></trkpt><trkpt lat="42.64886079262007" lon="2.704348301852808"><ele>141.0</ele><time>2026-03-23T14:36:56.999Z</time></trkpt><trkpt lat="42.64881037616697" lon="2.7044217763409226"><ele>141.0</ele><time>2026-03-23T14:36:57.999Z</time></trkpt><trkpt lat="42.64878214805501" lon="2.704517608583537"><ele>141.0</ele><time>2026-03-23T14:36:58.999Z</time></trkpt><trkpt lat="42.64878280530841" lon="2.7046310733330166"><ele>141.0</ele><time>2026-03-23T14:36:59.999Z</time></trkpt><trkpt lat="42.64879213417691" lon="2.7047564598153513"><ele>141.0</ele><time>2026-03-23T14:37:00.998Z</time></trkpt><trkpt lat="42.648747068525665" lon="2.705037967051857"><ele>141.0</ele><time>2026-03-23T14:37:02.998Z</time></trkpt><trkpt lat="42.64870074915889" lon="2.70518605302823"><ele>141.0</ele><time>2026-03-23T14:37:03.998Z</time></trkpt><trkpt lat="42.648654651008975" lon="2.7053252468958684"><ele>141.0</ele><time>2026-03-23T14:37:04.998Z</time></trkpt><trkpt lat="42.648610963339294" lon="2.7054673173637385"><ele>141.0</ele><time>2026-03-23T14:37:05.998Z</time></trkpt><trkpt lat="42.648566603813336" lon="2.7056087196479117"><ele>141.0</ele><time>2026-03-23T14:37:06.998Z</time></trkpt><trkpt lat="42.64851597304707" lon="2.705743444603432"><ele>141.0</ele><time>2026-03-23T14:37:07.998Z</time></trkpt><trkpt lat="42.648458908367125" lon="2.705870683951608"><ele>141.0</ele><time>2026-03-23T14:37:08.998Z</time></trkpt><trkpt lat="42.648398608857384" lon="2.705984405790665"><ele>141.0</ele><time>2026-03-23T14:37:09.998Z</time></trkpt><trkpt lat="42.64833494908727" lon="2.7060764502152335"><ele>141.0</ele><time>2026-03-23T14:37:10.998Z</time></trkpt><trkpt lat="42.64825796548801" lon="2.7061596195556286"><ele>141.2</ele><time>2026-03-23T14:37:11.998Z</time></trkpt><trkpt lat="42.648164637462976" lon="2.706207703412884"><ele>141.39999999999998</ele><time>2026-03-23T14:37:12.998Z</time></trkpt><trkpt lat="42.64809393687447" lon="2.7062941907687685"><ele>141.6</ele><time>2026-03-23T14:37:13.998Z</time></trkpt><trkpt lat="42.648070737885135" lon="2.70644198700921"><ele>141.79999999999998</ele><time>2026-03-23T14:37:14.998Z</time></trkpt><trkpt lat="42.64802895550746" lon="2.7065790746798055"><ele>142.0</ele><time>2026-03-23T14:37:15.998Z</time></trkpt><trkpt lat="42.64796155743488" lon="2.7067026680323774"><ele>142.0</ele><time>2026-03-23T14:37:16.998Z</time></trkpt><trkpt lat="42.64787406217792" lon="2.7068310493562318"><ele>142.0</ele><time>2026-03-23T14:37:17.998Z</time></trkpt><trkpt lat="42.647753182327406" lon="2.7069236965924532"><ele>142.0</ele><time>2026-03-23T14:37:18.998Z</time></trkpt><trkpt lat="42.647635013046404" lon="2.7070560192982254"><ele>142.0</ele><time>2026-03-23T14:37:19.998Z</time></trkpt><trkpt lat="42.6475146552831" lon="2.7072045837386227"><ele>142.33333333333334</ele><time>2026-03-23T14:37:20.998Z</time></trkpt><trkpt lat="42.64739433112706" lon="2.7073556847956044"><ele>142.66666666666666</ele><time>2026-03-23T14:37:21.998Z</time></trkpt><trkpt lat="42.647264750169235" lon="2.707518410389767"><ele>143.0</ele><time>2026-03-23T14:37:22.998Z</time></trkpt><trkpt lat="42.64714348021107" lon="2.7076709449607415"><ele>142.66666666666666</ele><time>2026-03-23T14:37:23.998Z</time></trkpt><trkpt lat="42.647026941214314" lon="2.7078196310240723"><ele>142.33333333333334</ele><time>2026-03-23T14:37:24.998Z</time></trkpt><trkpt lat="42.64692156118095" lon="2.7079540799439137"><ele>142.0</ele><time>2026-03-23T14:37:25.998Z</time></trkpt><trkpt lat="42.6468049753299" lon="2.708102825786087"><ele>142.66666666666669</ele><time>2026-03-23T14:37:27Z</time></trkpt><trkpt lat="42.646690133146244" lon="2.7082493469717637"><ele>143.33333333333334</ele><time>2026-03-23T14:37:28Z</time></trkpt><trkpt lat="42.6465798028029" lon="2.708387607950646"><ele>144.0</ele><time>2026-03-23T14:37:29Z</time></trkpt><trkpt lat="42.64646412326049" lon="2.7085316108274835"><ele>143.33333333333334</ele><time>2026-03-23T14:37:30Z</time></trkpt><trkpt lat="42.646355454955014" lon="2.7086980385129005"><ele>142.66666666666669</ele><time>2026-03-23T14:37:31Z</time></trkpt><trkpt lat="42.64624979478437" lon="2.7088575703680067"><ele>142.0</ele><time>2026-03-23T14:37:32Z</time></trkpt><trkpt lat="42.646164055066706" lon="2.7090344158809088"><ele>142.0</ele><time>2026-03-23T14:37:33Z</time></trkpt><trkpt lat="42.64609485070211" lon="2.7092246447469015"><ele>142.0</ele><time>2026-03-23T14:37:34Z</time></trkpt><trkpt lat="42.6460448193768" lon="2.7094250461031493"><ele>142.0</ele><time>2026-03-23T14:37:35Z</time></trkpt><trkpt lat="42.646016793078175" lon="2.709645485356594"><ele>142.0</ele><time>2026-03-23T14:37:36Z</time></trkpt><trkpt lat="42.64599734277783" lon="2.7098809981108856"><ele>142.0</ele><time>2026-03-23T14:37:37Z</time></trkpt><trkpt lat="42.64598222332811" lon="2.7101201984609093"><ele>142.0</ele><time>2026-03-23T14:37:38Z</time></trkpt><trkpt lat="42.64596208731457" lon="2.710352438192494"><ele>141.33333333333334</ele><time>2026-03-23T14:37:39Z</time></trkpt><trkpt lat="42.64593962248044" lon="2.710586562403326"><ele>140.66666666666666</ele><time>2026-03-23T14:37:40Z</time></trkpt><trkpt lat="42.64592416325489" lon="2.710819908594869"><ele>140.0</ele><time>2026-03-23T14:37:41Z</time></trkpt><trkpt lat="42.645903921688" lon="2.711046626068324"><ele>139.66666666666666</ele><time>2026-03-23T14:37:42Z</time></trkpt><trkpt lat="42.645886792244426" lon="2.7112783091744075"><ele>139.33333333333334</ele><time>2026-03-23T14:37:43Z</time></trkpt><trkpt lat="42.64586625650537" lon="2.7115064708760053"><ele>139.0</ele><time>2026-03-23T14:37:44Z</time></trkpt><trkpt lat="42.64584831095468" lon="2.7117316548010315"><ele>138.33333333333334</ele><time>2026-03-23T14:37:45Z</time></trkpt><trkpt lat="42.64582959099545" lon="2.7119552750753"><ele>137.66666666666666</ele><time>2026-03-23T14:37:46Z</time></trkpt><trkpt lat="42.645810345980586" lon="2.712184210827253"><ele>137.0</ele><time>2026-03-23T14:37:47Z</time></trkpt><trkpt lat="42.64579580541003" lon="2.7124163492626137"><ele>137.0</ele><time>2026-03-23T14:37:48Z</time></trkpt><trkpt lat="42.64577646982082" lon="2.712650213415264"><ele>137.0</ele><time>2026-03-23T14:37:49Z</time></trkpt><trkpt lat="42.64575612483552" lon="2.712905102341196"><ele>137.0</ele><time>2026-03-23T14:37:50Z</time></trkpt><trkpt lat="42.64573074020861" lon="2.7131725237057456"><ele>136.66666666666666</ele><time>2026-03-23T14:37:51Z</time></trkpt><trkpt lat="42.64569951965295" lon="2.713442510965442"><ele>136.33333333333334</ele><time>2026-03-23T14:37:52Z</time></trkpt><trkpt lat="42.645663576212215" lon="2.713710088779732"><ele>136.0</ele><time>2026-03-23T14:37:53Z</time></trkpt><trkpt lat="42.6456263797644" lon="2.713974545006223"><ele>136.0</ele><time>2026-03-23T14:37:54Z</time></trkpt><trkpt lat="42.64559080136699" lon="2.714238445148063"><ele>136.0</ele><time>2026-03-23T14:37:55Z</time></trkpt><trkpt lat="42.64554860498397" lon="2.7145229490637464"><ele>136.0</ele><time>2026-03-23T14:37:56Z</time></trkpt><trkpt lat="42.64550086564033" lon="2.714818048980733"><ele>135.33333333333334</ele><time>2026-03-23T14:37:57Z</time></trkpt><trkpt lat="42.64546433180895" lon="2.714981816626709"><ele>134.66666666666666</ele><time>2026-03-23T14:37:58Z</time></trkpt><trkpt lat="42.64542710605553" lon="2.7152345961049047"><ele>134.0</ele><time>2026-03-23T14:37:59Z</time></trkpt><trkpt lat="42.64539062197121" lon="2.7154910422459837"><ele>133.33333333333331</ele><time>2026-03-23T14:38:00Z</time></trkpt><trkpt lat="42.64535488084021" lon="2.7157421427836863"><ele>132.66666666666666</ele><time>2026-03-23T14:38:01Z</time></trkpt><trkpt lat="42.645318923399785" lon="2.7159947668446853"><ele>132.0</ele><time>2026-03-23T14:38:02Z</time></trkpt><trkpt lat="42.64527972716167" lon="2.716247016424747"><ele>131.0</ele><time>2026-03-23T14:38:03Z</time></trkpt><trkpt lat="42.64523324461275" lon="2.716496803787241"><ele>130.0</ele><time>2026-03-23T14:38:04Z</time></trkpt><trkpt lat="42.64517589789555" lon="2.716747065733637"><ele>129.0</ele><time>2026-03-23T14:38:05Z</time></trkpt><trkpt lat="42.645115067697425" lon="2.716999805186294"><ele>129.0</ele><time>2026-03-23T14:38:06Z</time></trkpt><trkpt lat="42.645054099676784" lon="2.7172524781711007"><ele>129.0</ele><time>2026-03-23T14:38:07Z</time></trkpt><trkpt lat="42.644990967410656" lon="2.7175141205463946"><ele>129.0</ele><time>2026-03-23T14:38:08Z</time></trkpt><trkpt lat="42.64492777347929" lon="2.7177760185019224"><ele>129.0</ele><time>2026-03-23T14:38:09Z</time></trkpt><trkpt lat="42.644877118962306" lon="2.7180445885448323"><ele>129.0</ele><time>2026-03-23T14:38:10Z</time></trkpt><trkpt lat="42.64481550761247" lon="2.71831003426202"><ele>129.0</ele><time>2026-03-23T14:38:11Z</time></trkpt><trkpt lat="42.64475226194418" lon="2.718573551981804"><ele>128.66666666666666</ele><time>2026-03-23T14:38:11.999Z</time></trkpt><trkpt lat="42.644674512428345" lon="2.7188276803289813"><ele>128.33333333333331</ele><time>2026-03-23T14:38:12.999Z</time></trkpt><trkpt lat="42.64461143410185" lon="2.7190917040961704"><ele>128.0</ele><time>2026-03-23T14:38:13.999Z</time></trkpt><trkpt lat="42.64454828666895" lon="2.7193560171331215"><ele>127.66666666666666</ele><time>2026-03-23T14:38:14.999Z</time></trkpt><trkpt lat="42.64448528249665" lon="2.7196180909114513"><ele>127.33333333333334</ele><time>2026-03-23T14:38:15.999Z</time></trkpt><trkpt lat="42.64443813942928" lon="2.719884725877212"><ele>127.0</ele><time>2026-03-23T14:38:16.999Z</time></trkpt><trkpt lat="42.644357341497994" lon="2.720135980139628"><ele>126.66666666666667</ele><time>2026-03-23T14:38:17.999Z</time></trkpt><trkpt lat="42.64428978951506" lon="2.72039253634925"><ele>126.33333333333334</ele><time>2026-03-23T14:38:18.999Z</time></trkpt><trkpt lat="42.64422121181624" lon="2.720646559869367"><ele>126.0</ele><time>2026-03-23T14:38:19.999Z</time></trkpt><trkpt lat="42.644161660537335" lon="2.7208998073941086"><ele>125.0</ele><time>2026-03-23T14:38:20.999Z</time></trkpt><trkpt lat="42.64408150293384" lon="2.721149122492994"><ele>124.0</ele><time>2026-03-23T14:38:21.999Z</time></trkpt><trkpt lat="42.643976301847474" lon="2.7213877581513994"><ele>123.0</ele><time>2026-03-23T14:38:22.999Z</time></trkpt><trkpt lat="42.64387722758515" lon="2.7216296826702497"><ele>123.0</ele><time>2026-03-23T14:38:23.999Z</time></trkpt><trkpt lat="42.64377050861285" lon="2.7218645459607504"><ele>123.0</ele><time>2026-03-23T14:38:24.999Z</time></trkpt><trkpt lat="42.64366239986364" lon="2.7220964492512008"><ele>123.0</ele><time>2026-03-23T14:38:25.999Z</time></trkpt><trkpt lat="42.643550045424064" lon="2.7223293240194293"><ele>123.33333333333334</ele><time>2026-03-23T14:38:26.999Z</time></trkpt><trkpt lat="42.64343837662453" lon="2.7225551337037808"><ele>123.66666666666667</ele><time>2026-03-23T14:38:27.999Z</time></trkpt><trkpt lat="42.64332683338117" lon="2.722777713940708"><ele>124.0</ele><time>2026-03-23T14:38:28.999Z</time></trkpt><trkpt lat="42.64321483742017" lon="2.722999689830248"><ele>123.33333333333334</ele><time>2026-03-23T14:38:29.999Z</time></trkpt><trkpt lat="42.64310418162792" lon="2.723217979300101"><ele>122.66666666666666</ele><time>2026-03-23T14:38:30.999Z</time></trkpt><trkpt lat="42.64299438370747" lon="2.7234356748240844"><ele>122.0</ele><time>2026-03-23T14:38:31.999Z</time></trkpt><trkpt lat="42.6428986967279" lon="2.723664403784343"><ele>122.0</ele><time>2026-03-23T14:38:32.999Z</time></trkpt><trkpt lat="42.64277366905868" lon="2.723876469192748"><ele>122.0</ele><time>2026-03-23T14:38:33.999Z</time></trkpt><trkpt lat="42.64266433342088" lon="2.7241001601318895"><ele>122.0</ele><time>2026-03-23T14:38:34.999Z</time></trkpt><trkpt lat="42.64255609393881" lon="2.724321608448537"><ele>121.66666666666666</ele><time>2026-03-23T14:38:35.999Z</time></trkpt><trkpt lat="42.642446510897486" lon="2.7245458055627263"><ele>121.33333333333334</ele><time>2026-03-23T14:38:36.999Z</time></trkpt><trkpt lat="42.64233484996964" lon="2.7247742722194714"><ele>121.0</ele><time>2026-03-23T14:38:37.999Z</time></trkpt><trkpt lat="42.64223740096331" lon="2.7250136577679216"><ele>120.66666666666667</ele><time>2026-03-23T14:38:38.999Z</time></trkpt><trkpt lat="42.64211165769815" lon="2.7252309509858947"><ele>120.33333333333334</ele><time>2026-03-23T14:38:39.999Z</time></trkpt><trkpt lat="42.64200269713469" lon="2.725453836847285"><ele>120.0</ele><time>2026-03-23T14:38:40.999Z</time></trkpt><trkpt lat="42.6418921660869" lon="2.7256797194058087"><ele>120.33333333333334</ele><time>2026-03-23T14:38:41.999Z</time></trkpt><trkpt lat="42.64178585164734" lon="2.7259070808534673"><ele>120.66666666666667</ele><time>2026-03-23T14:38:42.999Z</time></trkpt><trkpt lat="42.64170175570726" lon="2.7261522389736323"><ele>121.0</ele><time>2026-03-23T14:38:43.999Z</time></trkpt><trkpt lat="42.64161637368027" lon="2.7263998863881866"><ele>121.0</ele><time>2026-03-23T14:38:44.999Z</time></trkpt><trkpt lat="42.64154467989631" lon="2.7266505314671496"><ele>121.0</ele><time>2026-03-23T14:38:45.999Z</time></trkpt><trkpt lat="42.641456408035495" lon="2.7268939621864847"><ele>121.0</ele><time>2026-03-23T14:38:46.999Z</time></trkpt><trkpt lat="42.64138242299248" lon="2.7271469587008186"><ele>120.66666666666667</ele><time>2026-03-23T14:38:47.999Z</time></trkpt><trkpt lat="42.6413118850895" lon="2.7274020393158276"><ele>120.33333333333334</ele><time>2026-03-23T14:38:48.999Z</time></trkpt><trkpt lat="42.64126440799368" lon="2.727661831260593"><ele>120.0</ele><time>2026-03-23T14:38:49.999Z</time></trkpt><trkpt lat="42.64118494274894" lon="2.727908926544899"><ele>119.66666666666666</ele><time>2026-03-23T14:38:50.999Z</time></trkpt><trkpt lat="42.64111234939009" lon="2.728151580158255"><ele>119.33333333333333</ele><time>2026-03-23T14:38:51.999Z</time></trkpt><trkpt lat="42.64103643463226" lon="2.7283966330499188"><ele>119.0</ele><time>2026-03-23T14:38:52.999Z</time></trkpt><trkpt lat="42.640961306578916" lon="2.7286358972490357"><ele>118.66666666666666</ele><time>2026-03-23T14:38:53.999Z</time></trkpt><trkpt lat="42.64088673327813" lon="2.7288717604901636"><ele>118.33333333333334</ele><time>2026-03-23T14:38:54.999Z</time></trkpt><trkpt lat="42.64081193317669" lon="2.7291162205740216"><ele>118.0</ele><time>2026-03-23T14:38:55.999Z</time></trkpt><trkpt lat="42.64074154222419" lon="2.729368587342867"><ele>117.0</ele><time>2026-03-23T14:38:56.999Z</time></trkpt><trkpt lat="42.64068116172423" lon="2.7296347067189504"><ele>116.0</ele><time>2026-03-23T14:38:57.999Z</time></trkpt><trkpt lat="42.64062600855136" lon="2.7299003228772407"><ele>115.0</ele><time>2026-03-23T14:38:58.999Z</time></trkpt><trkpt lat="42.64056926118837" lon="2.7301736166230657"><ele>115.0</ele><time>2026-03-23T14:38:59.999Z</time></trkpt><trkpt lat="42.64050830587508" lon="2.7304480447569763"><ele>115.0</ele><time>2026-03-23T14:39:00.999Z</time></trkpt><trkpt lat="42.64044389093677" lon="2.7307080171633085"><ele>115.0</ele><time>2026-03-23T14:39:01.999Z</time></trkpt><trkpt lat="42.64033695047057" lon="2.7311620116186144"><ele>114.33333333333334</ele><time>2026-03-23T14:39:03.998Z</time></trkpt><trkpt lat="42.64026610662971" lon="2.7313606170774123"><ele>113.66666666666666</ele><time>2026-03-23T14:39:04.998Z</time></trkpt><trkpt lat="42.64020250492294" lon="2.7315898363614246"><ele>113.0</ele><time>2026-03-23T14:39:05.998Z</time></trkpt><trkpt lat="42.64013756503342" lon="2.731828435358993"><ele>112.33333333333333</ele><time>2026-03-23T14:39:06.998Z</time></trkpt><trkpt lat="42.64007255980476" lon="2.7320672742509178"><ele>111.66666666666666</ele><time>2026-03-23T14:39:07.998Z</time></trkpt><trkpt lat="42.64000900936781" lon="2.7322963317911486"><ele>111.0</ele><time>2026-03-23T14:39:08.998Z</time></trkpt><trkpt lat="42.63994769631128" lon="2.7325158628568578"><ele>110.33333333333334</ele><time>2026-03-23T14:39:09.998Z</time></trkpt><trkpt lat="42.63989846598573" lon="2.7327457974540983"><ele>109.66666666666667</ele><time>2026-03-23T14:39:10.998Z</time></trkpt><trkpt lat="42.63980098101349" lon="2.732953861966072"><ele>109.0</ele><time>2026-03-23T14:39:11.998Z</time></trkpt><trkpt lat="42.63970237057455" lon="2.733165524937958"><ele>109.0</ele><time>2026-03-23T14:39:12.998Z</time></trkpt><trkpt lat="42.63958564314287" lon="2.7333737270881526"><ele>109.0</ele><time>2026-03-23T14:39:13.998Z</time></trkpt><trkpt lat="42.639473398881" lon="2.7335873310639833"><ele>109.0</ele><time>2026-03-23T14:39:14.998Z</time></trkpt><trkpt lat="42.63939235618045" lon="2.7338159754996716"><ele>110.0</ele><time>2026-03-23T14:39:15.998Z</time></trkpt><trkpt lat="42.639310928581914" lon="2.7340499495037727"><ele>111.0</ele><time>2026-03-23T14:39:16.998Z</time></trkpt><trkpt lat="42.639244745772395" lon="2.7342883334357144"><ele>112.0</ele><time>2026-03-23T14:39:17.998Z</time></trkpt><trkpt lat="42.63916289025062" lon="2.7345189807788652"><ele>112.33333333333334</ele><time>2026-03-23T14:39:18.998Z</time></trkpt><trkpt lat="42.63909022998998" lon="2.734750369801395"><ele>112.66666666666666</ele><time>2026-03-23T14:39:19.998Z</time></trkpt><trkpt lat="42.639023671038856" lon="2.7349592798044684"><ele>113.0</ele><time>2026-03-23T14:39:20.998Z</time></trkpt><trkpt lat="42.6389600892554" lon="2.735158845304849"><ele>112.66666666666666</ele><time>2026-03-23T14:39:21.998Z</time></trkpt><trkpt lat="42.63889372863499" lon="2.7353671343373116"><ele>112.33333333333334</ele><time>2026-03-23T14:39:22.998Z</time></trkpt><trkpt lat="42.638826428893694" lon="2.7355783714919513"><ele>112.0</ele><time>2026-03-23T14:39:23.998Z</time></trkpt><trkpt lat="42.63875725352872" lon="2.7357954957722175"><ele>112.0</ele><time>2026-03-23T14:39:24.998Z</time></trkpt><trkpt lat="42.638701065969975" lon="2.736023422266334"><ele>112.0</ele><time>2026-03-23T14:39:25.998Z</time></trkpt><trkpt lat="42.63862871926002" lon="2.73623281892192"><ele>112.0</ele><time>2026-03-23T14:39:26.998Z</time></trkpt><trkpt lat="42.63855228772145" lon="2.736438740652594"><ele>112.0</ele><time>2026-03-23T14:39:27.998Z</time></trkpt><trkpt lat="42.63847946212075" lon="2.7366326479302896"><ele>112.0</ele><time>2026-03-23T14:39:28.998Z</time></trkpt><trkpt lat="42.638405893320524" lon="2.736823437305702"><ele>112.0</ele><time>2026-03-23T14:39:29.998Z</time></trkpt><trkpt lat="42.63833748386619" lon="2.7370004849639518"><ele>112.0</ele><time>2026-03-23T14:39:30.998Z</time></trkpt><trkpt lat="42.638268098946526" lon="2.7371603753672837"><ele>112.0</ele><time>2026-03-23T14:39:31.998Z</time></trkpt><trkpt lat="42.638141872369346" lon="2.737468483587622"><ele>112.0</ele><time>2026-03-23T14:39:34Z</time></trkpt><trkpt lat="42.638069521709355" lon="2.73762129261765"><ele>112.0</ele><time>2026-03-23T14:39:35Z</time></trkpt><trkpt lat="42.63799457649599" lon="2.7377760306596532"><ele>112.0</ele><time>2026-03-23T14:39:36Z</time></trkpt><trkpt lat="42.637918776156006" lon="2.7379401165546176"><ele>112.0</ele><time>2026-03-23T14:39:37Z</time></trkpt><trkpt lat="42.63783447711785" lon="2.738105952940535"><ele>112.0</ele><time>2026-03-23T14:39:38Z</time></trkpt><trkpt lat="42.63775771050826" lon="2.7382706352013435"><ele>112.0</ele><time>2026-03-23T14:39:39Z</time></trkpt><trkpt lat="42.637688985191765" lon="2.7384405183148366"><ele>112.0</ele><time>2026-03-23T14:39:40Z</time></trkpt><trkpt lat="42.63762196537019" lon="2.7386088247539373"><ele>112.0</ele><time>2026-03-23T14:39:41Z</time></trkpt><trkpt lat="42.63756586926268" lon="2.738775973962237"><ele>112.0</ele><time>2026-03-23T14:39:42Z</time></trkpt><trkpt lat="42.63751473870792" lon="2.738947217162105"><ele>111.75</ele><time>2026-03-23T14:39:43Z</time></trkpt><trkpt lat="42.637470399642375" lon="2.7391189876391753"><ele>111.5</ele><time>2026-03-23T14:39:44Z</time></trkpt><trkpt lat="42.63743761385432" lon="2.739296076841015"><ele>111.25</ele><time>2026-03-23T14:39:45Z</time></trkpt><trkpt lat="42.6374143787151" lon="2.739478062275526"><ele>111.0</ele><time>2026-03-23T14:39:46Z</time></trkpt><trkpt lat="42.6374006480531" lon="2.739661524902422"><ele>110.75</ele><time>2026-03-23T14:39:47Z</time></trkpt><trkpt lat="42.637393403822045" lon="2.7398495741572333"><ele>110.5</ele><time>2026-03-23T14:39:48Z</time></trkpt><trkpt lat="42.637387111261866" lon="2.7400382571450566"><ele>110.25</ele><time>2026-03-23T14:39:49Z</time></trkpt><trkpt lat="42.637383007429804" lon="2.740229096223126"><ele>110.0</ele><time>2026-03-23T14:39:50Z</time></trkpt><trkpt lat="42.63738046021382" lon="2.7404268321263863"><ele>109.0</ele><time>2026-03-23T14:39:51Z</time></trkpt><trkpt lat="42.63737260404009" lon="2.740618831161415"><ele>108.0</ele><time>2026-03-23T14:39:52Z</time></trkpt><trkpt lat="42.63735846673909" lon="2.7408000567303965"><ele>107.0</ele><time>2026-03-23T14:39:53Z</time></trkpt><trkpt lat="42.637345100628885" lon="2.7409859353155466"><ele>106.0</ele><time>2026-03-23T14:39:54Z</time></trkpt><trkpt lat="42.63733079198335" lon="2.741168599189946"><ele>105.75</ele><time>2026-03-23T14:39:55Z</time></trkpt><trkpt lat="42.63731804279446" lon="2.7413456673515153"><ele>105.5</ele><time>2026-03-23T14:39:56Z</time></trkpt><trkpt lat="42.63730891132719" lon="2.7415203187018444"><ele>105.25</ele><time>2026-03-23T14:39:57Z</time></trkpt><trkpt lat="42.63730559029611" lon="2.7417035046375258"><ele>105.0</ele><time>2026-03-23T14:39:58Z</time></trkpt><trkpt lat="42.637326452750806" lon="2.7420723046391573"><ele>104.25</ele><time>2026-03-23T14:40:00Z</time></trkpt><trkpt lat="42.63734298015789" lon="2.74225906932699"><ele>103.5</ele><time>2026-03-23T14:40:01Z</time></trkpt><trkpt lat="42.63736239864282" lon="2.742442728925455"><ele>102.75</ele><time>2026-03-23T14:40:02Z</time></trkpt><trkpt lat="42.63738145801262" lon="2.7426283327928123"><ele>102.0</ele><time>2026-03-23T14:40:03Z</time></trkpt><trkpt lat="42.63739904682417" lon="2.742813708767293"><ele>101.75</ele><time>2026-03-23T14:40:04Z</time></trkpt><trkpt lat="42.637415460227935" lon="2.743000916878937"><ele>101.5</ele><time>2026-03-23T14:40:05Z</time></trkpt><trkpt lat="42.63742820324415" lon="2.7431909828298413"><ele>101.25</ele><time>2026-03-23T14:40:06Z</time></trkpt><trkpt lat="42.63743474195836" lon="2.7433808733059464"><ele>101.0</ele><time>2026-03-23T14:40:07Z</time></trkpt><trkpt lat="42.63743164023855" lon="2.743569916011948"><ele>101.0</ele><time>2026-03-23T14:40:08Z</time></trkpt><trkpt lat="42.63741916082236" lon="2.743760070886848"><ele>101.0</ele><time>2026-03-23T14:40:09Z</time></trkpt><trkpt lat="42.63737582284113" lon="2.744139517327798"><ele>101.0</ele><time>2026-03-23T14:40:11Z</time></trkpt><trkpt lat="42.637346811288865" lon="2.7443297533260687"><ele>100.5</ele><time>2026-03-23T14:40:12Z</time></trkpt><trkpt lat="42.63732500478695" lon="2.7445205496457654"><ele>100.0</ele><time>2026-03-23T14:40:13Z</time></trkpt><trkpt lat="42.63730671195855" lon="2.744721428661185"><ele>99.5</ele><time>2026-03-23T14:40:14Z</time></trkpt><trkpt lat="42.6372875005142" lon="2.744920259696488"><ele>99.0</ele><time>2026-03-23T14:40:15Z</time></trkpt><trkpt lat="42.637268834874035" lon="2.7451133643514383"><ele>98.75</ele><time>2026-03-23T14:40:15.999Z</time></trkpt><trkpt lat="42.637253027612594" lon="2.74531045884223"><ele>98.5</ele><time>2026-03-23T14:40:16.999Z</time></trkpt><trkpt lat="42.637239564354644" lon="2.7455104263955765"><ele>98.25</ele><time>2026-03-23T14:40:17.999Z</time></trkpt><trkpt lat="42.637221551457415" lon="2.7457010085605"><ele>98.0</ele><time>2026-03-23T14:40:18.999Z</time></trkpt><trkpt lat="42.6372048764617" lon="2.745896159461136"><ele>97.33333333333333</ele><time>2026-03-23T14:40:19.999Z</time></trkpt><trkpt lat="42.63717304134371" lon="2.7462782454862618"><ele>96.66666666666666</ele><time>2026-03-23T14:40:21.999Z</time></trkpt><trkpt lat="42.63715562075822" lon="2.746469549662232"><ele>96.0</ele><time>2026-03-23T14:40:22.999Z</time></trkpt><trkpt lat="42.637141222098705" lon="2.7466580235845"><ele>96.0</ele><time>2026-03-23T14:40:23.999Z</time></trkpt><trkpt lat="42.637131813717815" lon="2.746848381110931"><ele>96.0</ele><time>2026-03-23T14:40:24.999Z</time></trkpt><trkpt lat="42.63711977132901" lon="2.7470356020905236"><ele>96.0</ele><time>2026-03-23T14:40:25.999Z</time></trkpt><trkpt lat="42.637110062688556" lon="2.7472247807092423"><ele>96.0</ele><time>2026-03-23T14:40:26.999Z</time></trkpt><trkpt lat="42.63710202234862" lon="2.7474151230455863"><ele>96.0</ele><time>2026-03-23T14:40:27.999Z</time></trkpt><trkpt lat="42.63709657208645" lon="2.7476060733064767"><ele>96.0</ele><time>2026-03-23T14:40:28.999Z</time></trkpt><trkpt lat="42.63708917171679" lon="2.747797882942172"><ele>96.0</ele><time>2026-03-23T14:40:29.999Z</time></trkpt><trkpt lat="42.63708141784808" lon="2.74798515669685"><ele>96.0</ele><time>2026-03-23T14:40:30.999Z</time></trkpt><trkpt lat="42.63707595258611" lon="2.7481807633751605"><ele>96.0</ele><time>2026-03-23T14:40:31.999Z</time></trkpt><trkpt lat="42.637070801594575" lon="2.7483650996173323"><ele>96.0</ele><time>2026-03-23T14:40:32.999Z</time></trkpt><trkpt lat="42.63706422443729" lon="2.7485406497638634"><ele>96.0</ele><time>2026-03-23T14:40:33.999Z</time></trkpt><trkpt lat="42.63705982103926" lon="2.7487057287749157"><ele>96.0</ele><time>2026-03-23T14:40:34.999Z</time></trkpt><trkpt lat="42.63705704731781" lon="2.7488717530522093"><ele>96.0</ele><time>2026-03-23T14:40:35.999Z</time></trkpt><trkpt lat="42.637051025958606" lon="2.7490328426561543"><ele>96.0</ele><time>2026-03-23T14:40:36.999Z</time></trkpt><trkpt lat="42.63704374833225" lon="2.7491746170419704"><ele>96.0</ele><time>2026-03-23T14:40:37.999Z</time></trkpt><trkpt lat="42.637040771244195" lon="2.7492931258170024"><ele>96.0</ele><time>2026-03-23T14:40:38.999Z</time></trkpt><trkpt lat="42.63703517331686" lon="2.749404400600697"><ele>96.0</ele><time>2026-03-23T14:40:39.999Z</time></trkpt><trkpt lat="42.637026582997265" lon="2.749513709382479"><ele>95.83333333333333</ele><time>2026-03-23T14:40:40.999Z</time></trkpt><trkpt lat="42.637016235430906" lon="2.749622688020586"><ele>95.66666666666667</ele><time>2026-03-23T14:40:41.999Z</time></trkpt><trkpt lat="42.636988451593844" lon="2.7497294441945783"><ele>95.5</ele><time>2026-03-23T14:40:42.999Z</time></trkpt><trkpt lat="42.636954532465914" lon="2.7498342378194964"><ele>95.33333333333334</ele><time>2026-03-23T14:40:43.999Z</time></trkpt><trkpt lat="42.63690268420304" lon="2.7499396965666425"><ele>95.16666666666667</ele><time>2026-03-23T14:40:44.999Z</time></trkpt><trkpt lat="42.636848468319705" lon="2.7500573059251514"><ele>95.0</ele><time>2026-03-23T14:40:45.999Z</time></trkpt><trkpt lat="42.6368137627399" lon="2.7501645478512207"><ele>95.2</ele><time>2026-03-23T14:40:46.999Z</time></trkpt><trkpt lat="42.636753503314466" lon="2.750296764276075"><ele>95.4</ele><time>2026-03-23T14:40:47.999Z</time></trkpt><trkpt lat="42.63668913161739" lon="2.7504200955024567"><ele>95.6</ele><time>2026-03-23T14:40:48.999Z</time></trkpt><trkpt lat="42.63662903922311" lon="2.750543421997988"><ele>95.8</ele><time>2026-03-23T14:40:49.999Z</time></trkpt><trkpt lat="42.63657279736647" lon="2.7506737627627573"><ele>96.0</ele><time>2026-03-23T14:40:50.999Z</time></trkpt><trkpt lat="42.63651053879247" lon="2.7508079919585584"><ele>96.0</ele><time>2026-03-23T14:40:51.999Z</time></trkpt><trkpt lat="42.636450004761315" lon="2.750938639009118"><ele>96.0</ele><time>2026-03-23T14:40:52.999Z</time></trkpt><trkpt lat="42.63639370133337" lon="2.7510699515896997"><ele>96.0</ele><time>2026-03-23T14:40:53.999Z</time></trkpt><trkpt lat="42.63635054389859" lon="2.7512356481808182"><ele>96.0</ele><time>2026-03-23T14:40:54.999Z</time></trkpt><trkpt lat="42.636297479681154" lon="2.751327888853334"><ele>96.0</ele><time>2026-03-23T14:40:55.999Z</time></trkpt><trkpt lat="42.636254191311764" lon="2.7514268619990427"><ele>96.0</ele><time>2026-03-23T14:40:56.999Z</time></trkpt><trkpt lat="42.63619994779548" lon="2.7515264479286574"><ele>96.0</ele><time>2026-03-23T14:40:57.999Z</time></trkpt><trkpt lat="42.636143294030475" lon="2.751632305431764"><ele>96.0</ele><time>2026-03-23T14:40:58.999Z</time></trkpt><trkpt lat="42.63608225237709" lon="2.75173712837244"><ele>96.0</ele><time>2026-03-23T14:40:59.999Z</time></trkpt><trkpt lat="42.63602458612393" lon="2.751835217883733"><ele>96.0</ele><time>2026-03-23T14:41:00.999Z</time></trkpt><trkpt lat="42.63596315180721" lon="2.7519353959065476"><ele>96.0</ele><time>2026-03-23T14:41:01.999Z</time></trkpt><trkpt lat="42.6358978981852" lon="2.75204160554144"><ele>96.0</ele><time>2026-03-23T14:41:02.999Z</time></trkpt><trkpt lat="42.635846216067215" lon="2.7521494531891886"><ele>96.0</ele><time>2026-03-23T14:41:03.999Z</time></trkpt><trkpt lat="42.6357976353135" lon="2.752232932276495"><ele>96.0</ele><time>2026-03-23T14:41:04.998Z</time></trkpt><trkpt lat="42.63572304233534" lon="2.7523442638787685"><ele>96.0</ele><time>2026-03-23T14:41:06.998Z</time></trkpt><trkpt lat="42.63565417957612" lon="2.7524643453766835"><ele>96.0</ele><time>2026-03-23T14:41:08.998Z</time></trkpt><trkpt lat="42.635614535340736" lon="2.752531189954666"><ele>96.0</ele><time>2026-03-23T14:41:09.998Z</time></trkpt><trkpt lat="42.63556706631421" lon="2.752609734932458"><ele>96.0</ele><time>2026-03-23T14:41:10.998Z</time></trkpt><trkpt lat="42.635520177590216" lon="2.752696046366063"><ele>96.0</ele><time>2026-03-23T14:41:11.998Z</time></trkpt><trkpt lat="42.635472752449935" lon="2.7527830745022333"><ele>96.0</ele><time>2026-03-23T14:41:12.998Z</time></trkpt><trkpt lat="42.63542309914007" lon="2.752871563229536"><ele>96.0</ele><time>2026-03-23T14:41:13.998Z</time></trkpt><trkpt lat="42.635370404417735" lon="2.7529563113072704"><ele>96.16666666666667</ele><time>2026-03-23T14:41:14.998Z</time></trkpt><trkpt lat="42.635323363565064" lon="2.753039300867476"><ele>96.33333333333334</ele><time>2026-03-23T14:41:15.998Z</time></trkpt><trkpt lat="42.635276486970696" lon="2.7531223442091233"><ele>96.5</ele><time>2026-03-23T14:41:16.998Z</time></trkpt><trkpt lat="42.635227482529935" lon="2.7532031552253486"><ele>96.66666666666667</ele><time>2026-03-23T14:41:17.998Z</time></trkpt><trkpt lat="42.63517712948749" lon="2.753281762076705"><ele>96.83333333333334</ele><time>2026-03-23T14:41:18.998Z</time></trkpt><trkpt lat="42.63513356086343" lon="2.753366146077706"><ele>97.0</ele><time>2026-03-23T14:41:19.998Z</time></trkpt><trkpt lat="42.63509272207666" lon="2.7534382844610956"><ele>97.66666666666667</ele><time>2026-03-23T14:41:20.998Z</time></trkpt><trkpt lat="42.63503112566305" lon="2.7535447163760027"><ele>98.33333333333334</ele><time>2026-03-23T14:41:22.998Z</time></trkpt><trkpt lat="42.6349660552178" lon="2.753648850059713"><ele>99.0</ele><time>2026-03-23T14:41:24.998Z</time></trkpt><trkpt lat="42.634922189687636" lon="2.7537166234518446"><ele>99.66666666666666</ele><time>2026-03-23T14:41:25.998Z</time></trkpt><trkpt lat="42.63487722117055" lon="2.753796286748691"><ele>100.33333333333333</ele><time>2026-03-23T14:41:26.998Z</time></trkpt><trkpt lat="42.63483510136626" lon="2.7538837706249795"><ele>101.0</ele><time>2026-03-23T14:41:27.998Z</time></trkpt><trkpt lat="42.63478660303055" lon="2.753961342295951"><ele>100.99999999999999</ele><time>2026-03-23T14:41:28.998Z</time></trkpt><trkpt lat="42.63473728475212" lon="2.754040497865969"><ele>101.0</ele><time>2026-03-23T14:41:29.998Z</time></trkpt><trkpt lat="42.634677561300485" lon="2.754100161236167"><ele>101.0</ele><time>2026-03-23T14:41:30.998Z</time></trkpt><trkpt lat="42.63461980142861" lon="2.75417241805278"><ele>101.0</ele><time>2026-03-23T14:41:31.998Z</time></trkpt><trkpt lat="42.63457830329892" lon="2.754236823581047"><ele>100.99999999999999</ele><time>2026-03-23T14:41:32.998Z</time></trkpt><trkpt lat="42.63452676010101" lon="2.7542905531766704"><ele>101.0</ele><time>2026-03-23T14:41:33.998Z</time></trkpt><trkpt lat="42.63444986073775" lon="2.7543980528075624"><ele>101.4</ele><time>2026-03-23T14:41:35.998Z</time></trkpt><trkpt lat="42.63439231089013" lon="2.754481538985075"><ele>101.8</ele><time>2026-03-23T14:41:40Z</time></trkpt><trkpt lat="42.634342973917995" lon="2.75455654662989"><ele>102.2</ele><time>2026-03-23T14:41:42Z</time></trkpt><trkpt lat="42.634253547592294" lon="2.754635588799268"><ele>102.60000000000001</ele><time>2026-03-23T14:41:44Z</time></trkpt><trkpt lat="42.634150760621246" lon="2.7547277377622357"><ele>103.0</ele><time>2026-03-23T14:41:46Z</time></trkpt><trkpt lat="42.63408147438697" lon="2.7548482125571514"><ele>103.0</ele><time>2026-03-23T14:41:48Z</time></trkpt><trkpt lat="42.63399577709614" lon="2.7549345475835767"><ele>103.0</ele><time>2026-03-23T14:41:50Z</time></trkpt><trkpt lat="42.633911215233994" lon="2.7550364178332094"><ele>103.0</ele><time>2026-03-23T14:41:52Z</time></trkpt><trkpt lat="42.63382644441333" lon="2.7551389862108353"><ele>103.0</ele><time>2026-03-23T14:41:54Z</time></trkpt><trkpt lat="42.63375873021249" lon="2.755231816166197"><ele>103.0</ele><time>2026-03-23T14:41:56Z</time></trkpt><trkpt lat="42.63375162614111" lon="2.7553670982399847"><ele>103.0</ele><time>2026-03-23T14:41:58Z</time></trkpt><trkpt lat="42.63371730984765" lon="2.75549416041114"><ele>103.0</ele><time>2026-03-23T14:42:00Z</time></trkpt><trkpt lat="42.63364735963535" lon="2.7555979725127187"><ele>103.0</ele><time>2026-03-23T14:42:02Z</time></trkpt><trkpt lat="42.63356364098581" lon="2.7556915361786505"><ele>103.0</ele><time>2026-03-23T14:42:04Z</time></trkpt><trkpt lat="42.63348301179738" lon="2.7557523632491705"><ele>103.0</ele><time>2026-03-23T14:42:06Z</time></trkpt><trkpt lat="42.6334091770245" lon="2.755856955668176"><ele>103.42857142857142</ele><time>2026-03-23T14:42:09Z</time></trkpt><trkpt lat="42.63335417027669" lon="2.755905998650639"><ele>103.85714285714286</ele><time>2026-03-23T14:42:11Z</time></trkpt><trkpt lat="42.633258646388335" lon="2.7559250824683104"><ele>104.28571428571428</ele><time>2026-03-23T14:42:13Z</time></trkpt><trkpt lat="42.63318419354543" lon="2.755917670889622"><ele>104.71428571428571</ele><time>2026-03-23T14:42:15Z</time></trkpt><trkpt lat="42.633121178989576" lon="2.7559204314298347"><ele>105.14285714285714</ele><time>2026-03-23T14:42:17Z</time></trkpt><trkpt lat="42.63304928796738" lon="2.7559118423490636"><ele>105.57142857142857</ele><time>2026-03-23T14:42:19Z</time></trkpt><trkpt lat="42.63298030111535" lon="2.755909259111373"><ele>106.0</ele><time>2026-03-23T14:42:20.999Z</time></trkpt><trkpt lat="42.6329136015544" lon="2.7558954916395924"><ele>106.00000000000001</ele><time>2026-03-23T14:42:22.999Z</time></trkpt><trkpt lat="42.63282679160213" lon="2.755900389377918"><ele>106.0</ele><time>2026-03-23T14:42:24.999Z</time></trkpt><trkpt lat="42.63274652176244" lon="2.7558720313903153"><ele>106.0</ele><time>2026-03-23T14:42:26.999Z</time></trkpt><trkpt lat="42.63264621521149" lon="2.755847925452681"><ele>106.0</ele><time>2026-03-23T14:42:28.999Z</time></trkpt><trkpt lat="42.63254745771081" lon="2.7558269872531507"><ele>106.00000000000001</ele><time>2026-03-23T14:42:30.999Z</time></trkpt><trkpt lat="42.63248710680879" lon="2.7558533777423135"><ele>106.0</ele><time>2026-03-23T14:42:31.999Z</time></trkpt><trkpt lat="42.632411622488114" lon="2.7558516890875024"><ele>106.00000000000001</ele><time>2026-03-23T14:42:33.999Z</time></trkpt><trkpt lat="42.63232121653712" lon="2.7558400749359637"><ele>106.0</ele><time>2026-03-23T14:42:35.999Z</time></trkpt><trkpt lat="42.632248963245154" lon="2.755869743418449"><ele>106.0</ele><time>2026-03-23T14:42:37.999Z</time></trkpt><trkpt lat="42.63218161301195" lon="2.7558706844572467"><ele>106.0</ele><time>2026-03-23T14:42:38.999Z</time></trkpt><trkpt lat="42.63212384378549" lon="2.7559235845042664"><ele>106.00000000000001</ele><time>2026-03-23T14:42:40.999Z</time></trkpt><trkpt lat="42.632035197779146" lon="2.7559565697857917"><ele>106.0</ele><time>2026-03-23T14:42:43.999Z</time></trkpt><trkpt lat="42.631969030772645" lon="2.7560086600971823"><ele>105.8</ele><time>2026-03-23T14:42:45.999Z</time></trkpt><trkpt lat="42.63191308404411" lon="2.756082633061679"><ele>105.6</ele><time>2026-03-23T14:42:47.999Z</time></trkpt><trkpt lat="42.63181858631276" lon="2.756164691050838"><ele>105.4</ele><time>2026-03-23T14:42:49.999Z</time></trkpt><trkpt lat="42.63174872729363" lon="2.7562735126646585"><ele>105.2</ele><time>2026-03-23T14:42:51.999Z</time></trkpt><trkpt lat="42.63166826056007" lon="2.75638394193605"><ele>105.0</ele><time>2026-03-23T14:42:53.999Z</time></trkpt><trkpt lat="42.631589296685526" lon="2.756474725832712"><ele>105.0</ele><time>2026-03-23T14:42:55.999Z</time></trkpt><trkpt lat="42.631531148116494" lon="2.756536796831932"><ele>105.0</ele><time>2026-03-23T14:42:57.999Z</time></trkpt><trkpt lat="42.63147637359165" lon="2.756581467883913"><ele>105.0</ele><time>2026-03-23T14:43:00.999Z</time></trkpt><trkpt lat="42.63142912047964" lon="2.7566652949609294"><ele>105.0</ele><time>2026-03-23T14:43:05.999Z</time></trkpt><trkpt lat="42.63135611390955" lon="2.756778628939118"><ele>105.0</ele><time>2026-03-23T14:43:07.999Z</time></trkpt><trkpt lat="42.63127730239834" lon="2.756889861919096"><ele>105.0</ele><time>2026-03-23T14:43:09.998Z</time></trkpt><trkpt lat="42.63122242186485" lon="2.756986199462327"><ele>104.6</ele><time>2026-03-23T14:43:11.998Z</time></trkpt><trkpt lat="42.6311502399833" lon="2.7571205882997982"><ele>104.2</ele><time>2026-03-23T14:43:13.998Z</time></trkpt><trkpt lat="42.63109840480364" lon="2.757207702526595"><ele>103.80000000000001</ele><time>2026-03-23T14:43:14.998Z</time></trkpt><trkpt lat="42.6310447316032" lon="2.7572994279938445"><ele>103.4</ele><time>2026-03-23T14:43:15.998Z</time></trkpt><trkpt lat="42.63099574153967" lon="2.7573717926857815"><ele>103.0</ele><time>2026-03-23T14:43:16.998Z</time></trkpt><trkpt lat="42.63091000633469" lon="2.757492909906982"><ele>102.83333333333334</ele><time>2026-03-23T14:43:18.998Z</time></trkpt><trkpt lat="42.63085480828061" lon="2.757568125762005"><ele>102.66666666666667</ele><time>2026-03-23T14:43:19.998Z</time></trkpt><trkpt lat="42.63080380248614" lon="2.7576453166217227"><ele>102.5</ele><time>2026-03-23T14:43:20.998Z</time></trkpt><trkpt lat="42.63075216361874" lon="2.7577193267983287"><ele>102.33333333333334</ele><time>2026-03-23T14:43:21.998Z</time></trkpt><trkpt lat="42.63065862581111" lon="2.7578449217610856"><ele>102.16666666666667</ele><time>2026-03-23T14:43:23.998Z</time></trkpt><trkpt lat="42.630600850311836" lon="2.7579143535932693"><ele>102.0</ele><time>2026-03-23T14:43:24.998Z</time></trkpt><trkpt lat="42.630548495306925" lon="2.7579969114146894"><ele>101.83333333333333</ele><time>2026-03-23T14:43:25.998Z</time></trkpt><trkpt lat="42.630491294048355" lon="2.758082922713024"><ele>101.66666666666666</ele><time>2026-03-23T14:43:26.998Z</time></trkpt><trkpt lat="42.63043531422855" lon="2.75817506732755"><ele>101.5</ele><time>2026-03-23T14:43:27.998Z</time></trkpt><trkpt lat="42.630372236826155" lon="2.7582584384740128"><ele>101.33333333333333</ele><time>2026-03-23T14:43:28.998Z</time></trkpt><trkpt lat="42.63031221746373" lon="2.7583534483388417"><ele>101.16666666666666</ele><time>2026-03-23T14:43:29.998Z</time></trkpt><trkpt lat="42.63026854713623" lon="2.7584409794324563"><ele>101.0</ele><time>2026-03-23T14:43:30.998Z</time></trkpt><trkpt lat="42.63021944366999" lon="2.7585295608762017"><ele>101.16666666666666</ele><time>2026-03-23T14:43:31.998Z</time></trkpt><trkpt lat="42.63016729001226" lon="2.7585920824567625"><ele>101.33333333333333</ele><time>2026-03-23T14:43:32.998Z</time></trkpt><trkpt lat="42.630101468393164" lon="2.7586988539677106"><ele>101.5</ele><time>2026-03-23T14:43:34.998Z</time></trkpt><trkpt lat="42.630061789136896" lon="2.7587673575646567"><ele>101.66666666666666</ele><time>2026-03-23T14:43:36.998Z</time></trkpt><trkpt lat="42.629990720467184" lon="2.7588240417147327"><ele>101.83333333333333</ele><time>2026-03-23T14:43:38.998Z</time></trkpt><trkpt lat="42.62991741096343" lon="2.7588896643561713"><ele>102.0</ele><time>2026-03-23T14:43:39.998Z</time></trkpt><trkpt lat="42.629772370932685" lon="2.759206051285237"><ele>102.0</ele><time>2026-03-23T14:43:41.998Z</time></trkpt><trkpt lat="42.62973656492106" lon="2.759301166469111"><ele>102.0</ele><time>2026-03-23T14:43:42.998Z</time></trkpt><trkpt lat="42.629694095594324" lon="2.7593969920499046"><ele>102.0</ele><time>2026-03-23T14:43:43.998Z</time></trkpt><trkpt lat="42.629629373484214" lon="2.7594969201614497"><ele>102.0</ele><time>2026-03-23T14:43:45Z</time></trkpt><trkpt lat="42.62957550346375" lon="2.7595942844288444"><ele>102.0</ele><time>2026-03-23T14:43:46Z</time></trkpt><trkpt lat="42.62952850543575" lon="2.7596758914611517"><ele>102.0</ele><time>2026-03-23T14:43:47Z</time></trkpt><trkpt lat="42.629482748772105" lon="2.759744917135985"><ele>102.0</ele><time>2026-03-23T14:43:48Z</time></trkpt><trkpt lat="42.629438342638" lon="2.7598224633027066"><ele>102.0</ele><time>2026-03-23T14:43:49Z</time></trkpt><trkpt lat="42.62938491820206" lon="2.7599545940637085"><ele>102.0</ele><time>2026-03-23T14:43:51Z</time></trkpt><trkpt lat="42.62938217593804" lon="2.760075565998156"><ele>102.0</ele><time>2026-03-23T14:43:53Z</time></trkpt><trkpt lat="42.62944969597963" lon="2.760181902398728"><ele>102.0</ele><time>2026-03-23T14:43:55Z</time></trkpt><trkpt lat="42.62949107240933" lon="2.7602535923912863"><ele>102.0</ele><time>2026-03-23T14:43:56Z</time></trkpt><trkpt lat="42.629520972914975" lon="2.760341527005625"><ele>101.66666666666667</ele><time>2026-03-23T14:43:57Z</time></trkpt><trkpt lat="42.62955455237908" lon="2.7604516515140554"><ele>101.33333333333334</ele><time>2026-03-23T14:43:59Z</time></trkpt><trkpt lat="42.62950707592578" lon="2.76054068712126"><ele>101.0</ele><time>2026-03-23T14:44:05Z</time></trkpt><trkpt lat="42.62938980691439" lon="2.7606441262890873"><ele>100.66666666666667</ele><time>2026-03-23T14:44:07Z</time></trkpt><trkpt lat="42.62932308888359" lon="2.760686312840468"><ele>100.33333333333334</ele><time>2026-03-23T14:44:08Z</time></trkpt><trkpt lat="42.629265475762814" lon="2.7607312493304055"><ele>100.0</ele><time>2026-03-23T14:44:09Z</time></trkpt><trkpt lat="42.62920153178081" lon="2.7607807245405165"><ele>100.00000000000001</ele><time>2026-03-23T14:44:10Z</time></trkpt><trkpt lat="42.62913577352069" lon="2.760836975175141"><ele>100.0</ele><time>2026-03-23T14:44:11Z</time></trkpt><trkpt lat="42.62907477370378" lon="2.760897250736105"><ele>100.0</ele><time>2026-03-23T14:44:12Z</time></trkpt><trkpt lat="42.62901485691284" lon="2.760957499010725"><ele>100.0</ele><time>2026-03-23T14:44:13Z</time></trkpt><trkpt lat="42.62896125253982" lon="2.7610112086597765"><ele>100.00000000000001</ele><time>2026-03-23T14:44:14Z</time></trkpt><trkpt lat="42.628907917163" lon="2.7610653671679937"><ele>100.0</ele><time>2026-03-23T14:44:15Z</time></trkpt><trkpt lat="42.62881798152866" lon="2.761159174279183"><ele>100.0</ele><time>2026-03-23T14:44:17Z</time></trkpt><trkpt lat="42.628749717134504" lon="2.7612236780245167"><ele>100.0</ele><time>2026-03-23T14:44:20Z</time></trkpt><trkpt lat="42.628683082378366" lon="2.7612708514876503"><ele>100.0</ele><time>2026-03-23T14:44:23Z</time></trkpt><trkpt lat="42.62858567292353" lon="2.7613038402993566"><ele>100.0</ele><time>2026-03-23T14:44:25.999Z</time></trkpt><trkpt lat="42.62848144216024" lon="2.7613655301630105"><ele>100.0</ele><time>2026-03-23T14:44:27.999Z</time></trkpt><trkpt lat="42.628426786730344" lon="2.7615200145781635"><ele>99.83333333333334</ele><time>2026-03-23T14:44:29.999Z</time></trkpt><trkpt lat="42.6284167992798" lon="2.761620027052731"><ele>99.66666666666667</ele><time>2026-03-23T14:44:30.999Z</time></trkpt><trkpt lat="42.62840323160163" lon="2.76173496570031"><ele>99.5</ele><time>2026-03-23T14:44:31.999Z</time></trkpt><trkpt lat="42.62837205967979" lon="2.761845442290318"><ele>99.33333333333334</ele><time>2026-03-23T14:44:32.999Z</time></trkpt><trkpt lat="42.628320579860905" lon="2.7619468799414464"><ele>99.16666666666667</ele><time>2026-03-23T14:44:33.999Z</time></trkpt><trkpt lat="42.62827675669335" lon="2.7620287186580454"><ele>99.0</ele><time>2026-03-23T14:44:34.999Z</time></trkpt><trkpt lat="42.62822786442644" lon="2.7621087957645187"><ele>98.83333333333333</ele><time>2026-03-23T14:44:35.999Z</time></trkpt><trkpt lat="42.628178273410455" lon="2.762196253345295"><ele>98.66666666666666</ele><time>2026-03-23T14:44:36.999Z</time></trkpt><trkpt lat="42.62813190608876" lon="2.7622810234058255"><ele>98.5</ele><time>2026-03-23T14:44:37.999Z</time></trkpt><trkpt lat="42.628086156042464" lon="2.762363584939775"><ele>98.33333333333333</ele><time>2026-03-23T14:44:38.999Z</time></trkpt><trkpt lat="42.62804652999307" lon="2.7624388042050185"><ele>98.16666666666666</ele><time>2026-03-23T14:44:39.999Z</time></trkpt><trkpt lat="42.6280000431094" lon="2.7625181117361985"><ele>98.0</ele><time>2026-03-23T14:44:40.999Z</time></trkpt><trkpt lat="42.62795978252493" lon="2.762603150478968"><ele>97.99999999999999</ele><time>2026-03-23T14:44:41.999Z</time></trkpt><trkpt lat="42.627914563884985" lon="2.7626841862284457"><ele>98.0</ele><time>2026-03-23T14:44:42.999Z</time></trkpt><trkpt lat="42.62787326286088" lon="2.7627651875860235"><ele>98.0</ele><time>2026-03-23T14:44:43.999Z</time></trkpt><trkpt lat="42.62782713487694" lon="2.762851393614237"><ele>98.0</ele><time>2026-03-23T14:44:44.999Z</time></trkpt><trkpt lat="42.62778494930411" lon="2.762937887324513"><ele>97.99999999999999</ele><time>2026-03-23T14:44:45.999Z</time></trkpt><trkpt lat="42.62774086661845" lon="2.7630209612160264"><ele>98.0</ele><time>2026-03-23T14:44:46.999Z</time></trkpt><trkpt lat="42.627694288650325" lon="2.7631013170948386"><ele>97.99999999999999</ele><time>2026-03-23T14:44:47.999Z</time></trkpt><trkpt lat="42.62764681859929" lon="2.7631814088377187"><ele>98.0</ele><time>2026-03-23T14:44:48.999Z</time></trkpt><trkpt lat="42.62760338514889" lon="2.7632569087400767"><ele>98.0</ele><time>2026-03-23T14:44:49.999Z</time></trkpt><trkpt lat="42.627557857930476" lon="2.7633368972350993"><ele>98.0</ele><time>2026-03-23T14:44:50.999Z</time></trkpt><trkpt lat="42.62751039536349" lon="2.7634210218553403"><ele>97.99999999999999</ele><time>2026-03-23T14:44:51.999Z</time></trkpt><trkpt lat="42.6274648525598" lon="2.763505177786722"><ele>98.0</ele><time>2026-03-23T14:44:52.999Z</time></trkpt><trkpt lat="42.62742064179911" lon="2.7635915938677953"><ele>98.14285714285714</ele><time>2026-03-23T14:44:53.999Z</time></trkpt><trkpt lat="42.62737669070776" lon="2.7636742410377044"><ele>98.28571428571428</ele><time>2026-03-23T14:44:54.999Z</time></trkpt><trkpt lat="42.62733385950777" lon="2.7637572558049346"><ele>98.42857142857143</ele><time>2026-03-23T14:44:55.999Z</time></trkpt><trkpt lat="42.62728917208688" lon="2.7638374924274007"><ele>98.57142857142857</ele><time>2026-03-23T14:44:56.999Z</time></trkpt><trkpt lat="42.627241041821215" lon="2.7639211460044137"><ele>98.71428571428571</ele><time>2026-03-23T14:44:57.999Z</time></trkpt><trkpt lat="42.62719841949483" lon="2.7640007565135294"><ele>98.85714285714286</ele><time>2026-03-23T14:44:58.999Z</time></trkpt><trkpt lat="42.62715012480011" lon="2.7640783206981334"><ele>99.0</ele><time>2026-03-23T14:44:59.999Z</time></trkpt><trkpt lat="42.627099289669495" lon="2.7641448668465287"><ele>99.0</ele><time>2026-03-23T14:45:00.999Z</time></trkpt><trkpt lat="42.627043249515545" lon="2.7642114192073297"><ele>99.0</ele><time>2026-03-23T14:45:01.999Z</time></trkpt><trkpt lat="42.62700126349948" lon="2.764303161393432"><ele>99.0</ele><time>2026-03-23T14:45:02.999Z</time></trkpt><trkpt lat="42.62696357247586" lon="2.7644027612066275"><ele>99.0</ele><time>2026-03-23T14:45:03.999Z</time></trkpt><trkpt lat="42.62692528797004" lon="2.7644982398975264"><ele>99.0</ele><time>2026-03-23T14:45:04.999Z</time></trkpt><trkpt lat="42.62688516918507" lon="2.764595070760025"><ele>99.0</ele><time>2026-03-23T14:45:05.999Z</time></trkpt><trkpt lat="42.62683506717011" lon="2.7646897552786553"><ele>98.83333333333333</ele><time>2026-03-23T14:45:06.999Z</time></trkpt><trkpt lat="42.62678103657328" lon="2.7647888204169035"><ele>98.66666666666666</ele><time>2026-03-23T14:45:07.999Z</time></trkpt><trkpt lat="42.62673120325128" lon="2.7648790528168665"><ele>98.5</ele><time>2026-03-23T14:45:08.999Z</time></trkpt><trkpt lat="42.626684440072275" lon="2.7649617652087204"><ele>98.33333333333333</ele><time>2026-03-23T14:45:09.999Z</time></trkpt><trkpt lat="42.626634142303146" lon="2.765055637222326"><ele>98.16666666666666</ele><time>2026-03-23T14:45:10.999Z</time></trkpt><trkpt lat="42.62658549811104" lon="2.76514688487069"><ele>98.0</ele><time>2026-03-23T14:45:11.999Z</time></trkpt><trkpt lat="42.626538657906835" lon="2.765238807267507"><ele>97.85714285714286</ele><time>2026-03-23T14:45:12.998Z</time></trkpt><trkpt lat="42.62649609185706" lon="2.765316369678594"><ele>97.71428571428572</ele><time>2026-03-23T14:45:13.998Z</time></trkpt><trkpt lat="42.626453416568424" lon="2.7653901511743353"><ele>97.57142857142857</ele><time>2026-03-23T14:45:14.998Z</time></trkpt><trkpt lat="42.626410498345535" lon="2.7654690086422664"><ele>97.42857142857143</ele><time>2026-03-23T14:45:15.998Z</time></trkpt><trkpt lat="42.62636597441131" lon="2.7655478514685288"><ele>97.28571428571429</ele><time>2026-03-23T14:45:16.998Z</time></trkpt><trkpt lat="42.62631787215126" lon="2.765623407570095"><ele>97.14285714285714</ele><time>2026-03-23T14:45:17.998Z</time></trkpt><trkpt lat="42.626269302187254" lon="2.765695724007804"><ele>97.0</ele><time>2026-03-23T14:45:18.998Z</time></trkpt><trkpt lat="42.626218442632236" lon="2.765765812599747"><ele>97.0</ele><time>2026-03-23T14:45:19.998Z</time></trkpt><trkpt lat="42.626166277670066" lon="2.7658319246275447"><ele>97.0</ele><time>2026-03-23T14:45:20.998Z</time></trkpt><trkpt lat="42.62611661659067" lon="2.7658932232476663"><ele>97.0</ele><time>2026-03-23T14:45:21.998Z</time></trkpt><trkpt lat="42.626069807617235" lon="2.7659614596549886"><ele>97.0</ele><time>2026-03-23T14:45:22.998Z</time></trkpt><trkpt lat="42.626030335105476" lon="2.7660424247493753"><ele>97.0</ele><time>2026-03-23T14:45:23.998Z</time></trkpt><trkpt lat="42.62599721507183" lon="2.7661309846778326"><ele>97.0</ele><time>2026-03-23T14:45:24.998Z</time></trkpt><trkpt lat="42.625966289333576" lon="2.76622390754911"><ele>97.0</ele><time>2026-03-23T14:45:25.998Z</time></trkpt><trkpt lat="42.625930330885126" lon="2.766316870515191"><ele>97.39999999999999</ele><time>2026-03-23T14:45:26.998Z</time></trkpt><trkpt lat="42.62589127411853" lon="2.7664098233728005"><ele>97.8</ele><time>2026-03-23T14:45:27.998Z</time></trkpt><trkpt lat="42.6258460686313" lon="2.7664944654502612"><ele>98.2</ele><time>2026-03-23T14:45:28.998Z</time></trkpt><trkpt lat="42.62575634608402" lon="2.766663300237815"><ele>98.6</ele><time>2026-03-23T14:45:30.998Z</time></trkpt><trkpt lat="42.62571114641368" lon="2.766748281159967"><ele>99.0</ele><time>2026-03-23T14:45:31.998Z</time></trkpt><trkpt lat="42.62566652378454" lon="2.7668290666591924"><ele>99.0</ele><time>2026-03-23T14:45:32.998Z</time></trkpt><trkpt lat="42.62562288481728" lon="2.7669131810767245"><ele>99.0</ele><time>2026-03-23T14:45:33.998Z</time></trkpt><trkpt lat="42.62557622135066" lon="2.767001282268745"><ele>99.0</ele><time>2026-03-23T14:45:34.998Z</time></trkpt><trkpt lat="42.625529404551514" lon="2.7670947022322263"><ele>99.0</ele><time>2026-03-23T14:45:35.998Z</time></trkpt><trkpt lat="42.62548171846938" lon="2.767178216425348"><ele>99.0</ele><time>2026-03-23T14:45:36.998Z</time></trkpt><trkpt lat="42.62543272965711" lon="2.7672616668864727"><ele>99.0</ele><time>2026-03-23T14:45:37.998Z</time></trkpt><trkpt lat="42.62538347685624" lon="2.767351610598721"><ele>99.0</ele><time>2026-03-23T14:45:38.998Z</time></trkpt><trkpt lat="42.62533546356208" lon="2.7674443863982545"><ele>99.0</ele><time>2026-03-23T14:45:39.998Z</time></trkpt><trkpt lat="42.625286327344234" lon="2.767539916973942"><ele>99.0</ele><time>2026-03-23T14:45:40.998Z</time></trkpt><trkpt lat="42.625230851225346" lon="2.76763780819159"><ele>99.0</ele><time>2026-03-23T14:45:41.998Z</time></trkpt><trkpt lat="42.62517522974085" lon="2.767735854936591"><ele>99.0</ele><time>2026-03-23T14:45:42.998Z</time></trkpt><trkpt lat="42.625130198605014" lon="2.7678256468545825"><ele>99.0</ele><time>2026-03-23T14:45:43.998Z</time></trkpt><trkpt lat="42.625081287317435" lon="2.7679203520604103"><ele>99.33333333333333</ele><time>2026-03-23T14:45:44.998Z</time></trkpt><trkpt lat="42.62502435934486" lon="2.7680188187710306"><ele>99.66666666666666</ele><time>2026-03-23T14:45:45.998Z</time></trkpt><trkpt lat="42.62497064157936" lon="2.7681130110871366"><ele>100.0</ele><time>2026-03-23T14:45:46.998Z</time></trkpt><trkpt lat="42.62491919468471" lon="2.7682002336476073"><ele>100.33333333333333</ele><time>2026-03-23T14:45:47.998Z</time></trkpt><trkpt lat="42.62487497686432" lon="2.7682770161892387"><ele>100.66666666666666</ele><time>2026-03-23T14:45:48.998Z</time></trkpt><trkpt lat="42.624831983006736" lon="2.7683516380492135"><ele>101.0</ele><time>2026-03-23T14:45:50Z</time></trkpt><trkpt lat="42.62478412838836" lon="2.7684117825539705"><ele>100.99999999999999</ele><time>2026-03-23T14:45:51Z</time></trkpt><trkpt lat="42.62472759638673" lon="2.7684546916024027"><ele>101.0</ele><time>2026-03-23T14:45:52Z</time></trkpt><trkpt lat="42.62464808264419" lon="2.768578084900833"><ele>101.0</ele><time>2026-03-23T14:45:54Z</time></trkpt><trkpt lat="42.62464185055111" lon="2.768676783615641"><ele>101.0</ele><time>2026-03-23T14:45:55Z</time></trkpt><trkpt lat="42.62462651476138" lon="2.7687859349596766"><ele>100.99999999999999</ele><time>2026-03-23T14:45:56Z</time></trkpt><trkpt lat="42.624582808305824" lon="2.7688865759322794"><ele>101.0</ele><time>2026-03-23T14:45:57Z</time></trkpt><trkpt lat="42.624520624783386" lon="2.7689921461923475"><ele>101.0</ele><time>2026-03-23T14:45:58Z</time></trkpt><trkpt lat="42.62444799340412" lon="2.7691013995512503"><ele>101.0</ele><time>2026-03-23T14:45:59Z</time></trkpt><trkpt lat="42.624384601611865" lon="2.769204692736107"><ele>101.0</ele><time>2026-03-23T14:46:00Z</time></trkpt><trkpt lat="42.624322725055755" lon="2.769315117809823"><ele>101.0</ele><time>2026-03-23T14:46:01Z</time></trkpt><trkpt lat="42.62426133318404" lon="2.769429532865253"><ele>101.0</ele><time>2026-03-23T14:46:02Z</time></trkpt><trkpt lat="42.62419917454081" lon="2.7695425703420615"><ele>100.6</ele><time>2026-03-23T14:46:03Z</time></trkpt><trkpt lat="42.6241366717315" lon="2.76965527749683"><ele>100.19999999999999</ele><time>2026-03-23T14:46:04Z</time></trkpt><trkpt lat="42.62408034154065" lon="2.769765663789476"><ele>99.80000000000001</ele><time>2026-03-23T14:46:05Z</time></trkpt><trkpt lat="42.6240238134877" lon="2.769873686501038"><ele>99.4</ele><time>2026-03-23T14:46:06Z</time></trkpt><trkpt lat="42.623968012775784" lon="2.769973017993712"><ele>99.0</ele><time>2026-03-23T14:46:07Z</time></trkpt><trkpt lat="42.62391676395087" lon="2.770060162520032"><ele>99.0</ele><time>2026-03-23T14:46:08Z</time></trkpt><trkpt lat="42.623866908699554" lon="2.77014523050263"><ele>99.0</ele><time>2026-03-23T14:46:09Z</time></trkpt><trkpt lat="42.62382299130125" lon="2.7702190777316127"><ele>99.0</ele><time>2026-03-23T14:46:10Z</time></trkpt><trkpt lat="42.62377494079748" lon="2.770280632617499"><ele>99.0</ele><time>2026-03-23T14:46:11Z</time></trkpt><trkpt lat="42.62371324579814" lon="2.770330922609371"><ele>99.0</ele><time>2026-03-23T14:46:12Z</time></trkpt><trkpt lat="42.623652276885224" lon="2.7703932207313384"><ele>99.0</ele><time>2026-03-23T14:46:13Z</time></trkpt><trkpt lat="42.623610180264606" lon="2.7704827823233216"><ele>99.0</ele><time>2026-03-23T14:46:14Z</time></trkpt><trkpt lat="42.623590051979576" lon="2.7705987286250937"><ele>99.25</ele><time>2026-03-23T14:46:15Z</time></trkpt><trkpt lat="42.62354844875738" lon="2.770723222887166"><ele>99.5</ele><time>2026-03-23T14:46:16Z</time></trkpt><trkpt lat="42.623486252433736" lon="2.77085102921904"><ele>99.75</ele><time>2026-03-23T14:46:17Z</time></trkpt><trkpt lat="42.62341746558357" lon="2.770990581931022"><ele>100.0</ele><time>2026-03-23T14:46:18Z</time></trkpt><trkpt lat="42.62334452176857" lon="2.7711317178698494"><ele>100.0</ele><time>2026-03-23T14:46:19Z</time></trkpt><trkpt lat="42.6232681658225" lon="2.7712772063846542"><ele>100.0</ele><time>2026-03-23T14:46:20Z</time></trkpt><trkpt lat="42.62318271521558" lon="2.7714296117343857"><ele>100.0</ele><time>2026-03-23T14:46:21Z</time></trkpt><trkpt lat="42.62308950444487" lon="2.771597598998426"><ele>100.0</ele><time>2026-03-23T14:46:22Z</time></trkpt><trkpt lat="42.62299150339757" lon="2.7717772610920792"><ele>100.0</ele><time>2026-03-23T14:46:23Z</time></trkpt><trkpt lat="42.62288806480044" lon="2.7719703836603156"><ele>100.0</ele><time>2026-03-23T14:46:24Z</time></trkpt><trkpt lat="42.622781098090655" lon="2.772163345954321"><ele>100.0</ele><time>2026-03-23T14:46:24.999Z</time></trkpt><trkpt lat="42.622669015644334" lon="2.7723668681120546"><ele>100.0</ele><time>2026-03-23T14:46:25.999Z</time></trkpt><trkpt lat="42.6225570924074" lon="2.7725760904652517"><ele>100.0</ele><time>2026-03-23T14:46:26.999Z</time></trkpt><trkpt lat="42.622442444720406" lon="2.7727938475246194"><ele>100.0</ele><time>2026-03-23T14:46:27.999Z</time></trkpt><trkpt lat="42.62232374865851" lon="2.7730160824378767"><ele>100.0</ele><time>2026-03-23T14:46:28.999Z</time></trkpt><trkpt lat="42.62220915590288" lon="2.773229798077681"><ele>100.0</ele><time>2026-03-23T14:46:29.999Z</time></trkpt><trkpt lat="42.622095572113366" lon="2.773440209709268"><ele>100.0</ele><time>2026-03-23T14:46:30.999Z</time></trkpt><trkpt lat="42.62199213417407" lon="2.7736380204979727"><ele>99.33333333333334</ele><time>2026-03-23T14:46:31.999Z</time></trkpt><trkpt lat="42.621885551784914" lon="2.7738381428672505"><ele>98.66666666666666</ele><time>2026-03-23T14:46:32.999Z</time></trkpt><trkpt lat="42.62177918427863" lon="2.7740350537421548"><ele>98.0</ele><time>2026-03-23T14:46:33.999Z</time></trkpt><trkpt lat="42.62167293639585" lon="2.7742293414418233"><ele>97.66666666666666</ele><time>2026-03-23T14:46:34.999Z</time></trkpt><trkpt lat="42.62156358506516" lon="2.774429754348644"><ele>97.33333333333334</ele><time>2026-03-23T14:46:35.999Z</time></trkpt><trkpt lat="42.621455750965815" lon="2.774628048418739"><ele>97.0</ele><time>2026-03-23T14:46:36.999Z</time></trkpt><trkpt lat="42.621348092891274" lon="2.774829506729929"><ele>97.0</ele><time>2026-03-23T14:46:37.999Z</time></trkpt><trkpt lat="42.621239161383855" lon="2.77503445498973"><ele>97.0</ele><time>2026-03-23T14:46:38.999Z</time></trkpt><trkpt lat="42.62112909230602" lon="2.7752396803086987"><ele>97.0</ele><time>2026-03-23T14:46:39.999Z</time></trkpt><trkpt lat="42.62101793529803" lon="2.775444826318921"><ele>97.0</ele><time>2026-03-23T14:46:40.999Z</time></trkpt><trkpt lat="42.62090557087779" lon="2.7756518923760556"><ele>97.0</ele><time>2026-03-23T14:46:41.999Z</time></trkpt><trkpt lat="42.62079167425742" lon="2.7758595285358267"><ele>97.0</ele><time>2026-03-23T14:46:42.999Z</time></trkpt><trkpt lat="42.62067840886662" lon="2.776068427696832"><ele>96.33333333333334</ele><time>2026-03-23T14:46:43.999Z</time></trkpt><trkpt lat="42.6205687529741" lon="2.7762727237663603"><ele>95.66666666666667</ele><time>2026-03-23T14:46:44.999Z</time></trkpt><trkpt lat="42.620458412546874" lon="2.7764796489965113"><ele>95.0</ele><time>2026-03-23T14:46:45.999Z</time></trkpt><trkpt lat="42.62034914024372" lon="2.776688429139985"><ele>95.0</ele><time>2026-03-23T14:46:46.999Z</time></trkpt><trkpt lat="42.620240359855764" lon="2.7768912682500027"><ele>95.0</ele><time>2026-03-23T14:46:47.999Z</time></trkpt><trkpt lat="42.620132411034604" lon="2.7770941171668557"><ele>95.0</ele><time>2026-03-23T14:46:48.999Z</time></trkpt><trkpt lat="42.62002790563384" lon="2.7772845067213217"><ele>95.0</ele><time>2026-03-23T14:46:49.999Z</time></trkpt><trkpt lat="42.619931872766614" lon="2.7774633735855465"><ele>95.0</ele><time>2026-03-23T14:46:50.999Z</time></trkpt><trkpt lat="42.61984136104596" lon="2.7776378842916642"><ele>95.0</ele><time>2026-03-23T14:46:51.999Z</time></trkpt><trkpt lat="42.619750259595406" lon="2.7778079255488786"><ele>95.0</ele><time>2026-03-23T14:46:52.999Z</time></trkpt><trkpt lat="42.619660825182784" lon="2.777974312856103"><ele>95.0</ele><time>2026-03-23T14:46:53.999Z</time></trkpt><trkpt lat="42.61957613579161" lon="2.7781355585186778"><ele>95.0</ele><time>2026-03-23T14:46:54.999Z</time></trkpt><trkpt lat="42.619499412135255" lon="2.778286410872433"><ele>95.0</ele><time>2026-03-23T14:46:55.999Z</time></trkpt><trkpt lat="42.619427027248165" lon="2.7784320989123046"><ele>95.0</ele><time>2026-03-23T14:46:56.999Z</time></trkpt><trkpt lat="42.6193605496025" lon="2.778571263109307"><ele>95.0</ele><time>2026-03-23T14:46:57.999Z</time></trkpt><trkpt lat="42.61930577442973" lon="2.7786902260975443"><ele>95.0</ele><time>2026-03-23T14:46:58.999Z</time></trkpt><trkpt lat="42.619260009035685" lon="2.7787904966291337"><ele>95.0</ele><time>2026-03-23T14:46:59.999Z</time></trkpt><trkpt lat="42.619230605571715" lon="2.778870039907771"><ele>95.0</ele><time>2026-03-23T14:47:00.999Z</time></trkpt><trkpt lat="42.61920714594953" lon="2.7790074773453424"><ele>95.0</ele><time>2026-03-23T14:47:02.999Z</time></trkpt><trkpt lat="42.619208782324975" lon="2.779117511389576"><ele>95.0</ele><time>2026-03-23T14:47:04.999Z</time></trkpt><trkpt lat="42.618975496424504" lon="2.7795561152867663"><ele>95.0</ele><time>2026-03-23T14:47:05.999Z</time></trkpt><trkpt lat="42.618947303830936" lon="2.779664666373528"><ele>95.0</ele><time>2026-03-23T14:47:06.999Z</time></trkpt><trkpt lat="42.61891509404739" lon="2.779777489610587"><ele>95.0</ele><time>2026-03-23T14:47:07.999Z</time></trkpt><trkpt lat="42.61888002638552" lon="2.779892575922688"><ele>95.0</ele><time>2026-03-23T14:47:08.999Z</time></trkpt><trkpt lat="42.61884780016726" lon="2.780002381145404"><ele>95.0</ele><time>2026-03-23T14:47:09.999Z</time></trkpt><trkpt lat="42.6188250033998" lon="2.7801159346248436"><ele>95.0</ele><time>2026-03-23T14:47:10.999Z</time></trkpt><trkpt lat="42.61879518045221" lon="2.780226605108024"><ele>94.66666666666667</ele><time>2026-03-23T14:47:11.999Z</time></trkpt><trkpt lat="42.61876812536254" lon="2.7803459267019655"><ele>94.33333333333334</ele><time>2026-03-23T14:47:12.999Z</time></trkpt><trkpt lat="42.618743913371645" lon="2.780464655761425"><ele>94.0</ele><time>2026-03-23T14:47:13.999Z</time></trkpt><trkpt lat="42.61872352214181" lon="2.780581474684861"><ele>93.66666666666667</ele><time>2026-03-23T14:47:14.998Z</time></trkpt><trkpt lat="42.618701814025066" lon="2.780696153258136"><ele>93.33333333333333</ele><time>2026-03-23T14:47:15.998Z</time></trkpt><trkpt lat="42.61867850796643" lon="2.7808084067798915"><ele>93.0</ele><time>2026-03-23T14:47:16.998Z</time></trkpt><trkpt lat="42.61865736417235" lon="2.780917620146615"><ele>95.0</ele><time>2026-03-23T14:47:17.998Z</time></trkpt><trkpt lat="42.618638251894986" lon="2.781028100228839"><ele>97.0</ele><time>2026-03-23T14:47:18.998Z</time></trkpt><trkpt lat="42.61861680641644" lon="2.7811457002715603"><ele>99.0</ele><time>2026-03-23T14:47:19.998Z</time></trkpt><trkpt lat="42.61859127786359" lon="2.7812687429351426"><ele>101.0</ele><time>2026-03-23T14:47:20.998Z</time></trkpt><trkpt lat="42.61856799727075" lon="2.78140928566137"><ele>103.0</ele><time>2026-03-23T14:47:21.998Z</time></trkpt><trkpt lat="42.618545414419785" lon="2.7815701031927826"><ele>103.0</ele><time>2026-03-23T14:47:22.998Z</time></trkpt><trkpt lat="42.61852233206111" lon="2.7817459514073604"><ele>103.0</ele><time>2026-03-23T14:47:23.998Z</time></trkpt><trkpt lat="42.61848744500983" lon="2.781925697940844"><ele>103.0</ele><time>2026-03-23T14:47:24.998Z</time></trkpt><trkpt lat="42.61844725299781" lon="2.7821124917325926"><ele>103.0</ele><time>2026-03-23T14:47:25.998Z</time></trkpt><trkpt lat="42.61840555280117" lon="2.7823104139676653"><ele>103.33333333333334</ele><time>2026-03-23T14:47:26.998Z</time></trkpt><trkpt lat="42.618365669948496" lon="2.7825106984919454"><ele>103.66666666666666</ele><time>2026-03-23T14:47:27.998Z</time></trkpt><trkpt lat="42.618321055897866" lon="2.782726215131655"><ele>104.0</ele><time>2026-03-23T14:47:28.998Z</time></trkpt><trkpt lat="42.61828102315576" lon="2.7829318323569576"><ele>103.66666666666666</ele><time>2026-03-23T14:47:29.998Z</time></trkpt><trkpt lat="42.61824003156118" lon="2.7831346808899733"><ele>103.33333333333334</ele><time>2026-03-23T14:47:30.998Z</time></trkpt><trkpt lat="42.618202969631206" lon="2.783340991947602"><ele>103.0</ele><time>2026-03-23T14:47:31.998Z</time></trkpt><trkpt lat="42.61816478130734" lon="2.7835377678615854"><ele>103.0</ele><time>2026-03-23T14:47:32.998Z</time></trkpt><trkpt lat="42.61812989385026" lon="2.7837451945813974"><ele>103.0</ele><time>2026-03-23T14:47:33.998Z</time></trkpt><trkpt lat="42.618097939112246" lon="2.7839579713118483"><ele>103.0</ele><time>2026-03-23T14:47:34.998Z</time></trkpt><trkpt lat="42.61806741853303" lon="2.78418144869508"><ele>103.66666666666667</ele><time>2026-03-23T14:47:35.998Z</time></trkpt><trkpt lat="42.618039908311346" lon="2.784413041767622"><ele>104.33333333333334</ele><time>2026-03-23T14:47:36.998Z</time></trkpt><trkpt lat="42.618019088491316" lon="2.7846519145836237"><ele>105.0</ele><time>2026-03-23T14:47:37.998Z</time></trkpt><trkpt lat="42.61800412511486" lon="2.7848992706728635"><ele>105.0</ele><time>2026-03-23T14:47:38.998Z</time></trkpt><trkpt lat="42.61799355931432" lon="2.7851471075011824"><ele>105.0</ele><time>2026-03-23T14:47:39.998Z</time></trkpt><trkpt lat="42.61798531635417" lon="2.7854040763928976"><ele>105.0</ele><time>2026-03-23T14:47:40.998Z</time></trkpt><trkpt lat="42.61798125285432" lon="2.785663986324182"><ele>105.66666666666666</ele><time>2026-03-23T14:47:41.998Z</time></trkpt><trkpt lat="42.617976848763554" lon="2.785928109167583"><ele>106.33333333333333</ele><time>2026-03-23T14:47:42.998Z</time></trkpt><trkpt lat="42.617971238657155" lon="2.7861921694589293"><ele>107.0</ele><time>2026-03-23T14:47:43.998Z</time></trkpt><trkpt lat="42.617966210969875" lon="2.786456513326138"><ele>109.33333333333333</ele><time>2026-03-23T14:47:44.998Z</time></trkpt><trkpt lat="42.617958524201725" lon="2.786711647744757"><ele>111.66666666666666</ele><time>2026-03-23T14:47:45.998Z</time></trkpt><trkpt lat="42.6179483357647" lon="2.786968176318879"><ele>114.0</ele><time>2026-03-23T14:47:46.998Z</time></trkpt><trkpt lat="42.617934048254966" lon="2.7872297935434447"><ele>114.33333333333334</ele><time>2026-03-23T14:47:47.998Z</time></trkpt><trkpt lat="42.617918991236486" lon="2.7874878960210996"><ele>114.66666666666667</ele><time>2026-03-23T14:47:48.998Z</time></trkpt><trkpt lat="42.61790020985491" lon="2.787746085414786"><ele>115.0</ele><time>2026-03-23T14:47:49.998Z</time></trkpt><trkpt lat="42.617879770371886" lon="2.787984735765433"><ele>115.0</ele><time>2026-03-23T14:47:50.998Z</time></trkpt><trkpt lat="42.61786096234292" lon="2.7882166565756745"><ele>115.0</ele><time>2026-03-23T14:47:51.998Z</time></trkpt><trkpt lat="42.617842735151925" lon="2.7884372006721696"><ele>115.0</ele><time>2026-03-23T14:47:52.998Z</time></trkpt><trkpt lat="42.61782086329834" lon="2.7886739463831383"><ele>114.33333333333334</ele><time>2026-03-23T14:47:53.998Z</time></trkpt><trkpt lat="42.61780271070814" lon="2.788902064965736"><ele>113.66666666666666</ele><time>2026-03-23T14:47:54.998Z</time></trkpt><trkpt lat="42.61778713238507" lon="2.7891253573892576"><ele>113.0</ele><time>2026-03-23T14:47:56Z</time></trkpt><trkpt lat="42.617769768597945" lon="2.7893618478986117"><ele>112.66666666666666</ele><time>2026-03-23T14:47:57Z</time></trkpt><trkpt lat="42.61775202046268" lon="2.78958649487909"><ele>112.33333333333334</ele><time>2026-03-23T14:47:58Z</time></trkpt><trkpt lat="42.617735414118364" lon="2.789807589867902"><ele>112.0</ele><time>2026-03-23T14:47:59Z</time></trkpt><trkpt lat="42.617719485002304" lon="2.7900305142920243"><ele>112.0</ele><time>2026-03-23T14:48:00Z</time></trkpt><trkpt lat="42.61770275693152" lon="2.790247447491529"><ele>112.0</ele><time>2026-03-23T14:48:01Z</time></trkpt><trkpt lat="42.617683957506735" lon="2.7904702656239193"><ele>112.0</ele><time>2026-03-23T14:48:02Z</time></trkpt><trkpt lat="42.61766549173626" lon="2.790680242093571"><ele>112.0</ele><time>2026-03-23T14:48:03Z</time></trkpt><trkpt lat="42.61764700819328" lon="2.7908980862811066"><ele>112.0</ele><time>2026-03-23T14:48:04Z</time></trkpt><trkpt lat="42.61762815973879" lon="2.791117686886171"><ele>112.0</ele><time>2026-03-23T14:48:05Z</time></trkpt><trkpt lat="42.61760776510453" lon="2.7913408073390413"><ele>112.0</ele><time>2026-03-23T14:48:06Z</time></trkpt><trkpt lat="42.61759262978956" lon="2.79155920543688"><ele>112.0</ele><time>2026-03-23T14:48:07Z</time></trkpt><trkpt lat="42.61757414249585" lon="2.791776375183998"><ele>112.0</ele><time>2026-03-23T14:48:08Z</time></trkpt><trkpt lat="42.61755349721602" lon="2.791996439415658"><ele>112.0</ele><time>2026-03-23T14:48:09Z</time></trkpt><trkpt lat="42.61753571736588" lon="2.792225538917259"><ele>112.0</ele><time>2026-03-23T14:48:10Z</time></trkpt><trkpt lat="42.61751730872108" lon="2.7924665411531606"><ele>112.0</ele><time>2026-03-23T14:48:11Z</time></trkpt><trkpt lat="42.61749798518061" lon="2.7927213199352545"><ele>112.0</ele><time>2026-03-23T14:48:12Z</time></trkpt><trkpt lat="42.61747564838336" lon="2.7929787157794275"><ele>112.0</ele><time>2026-03-23T14:48:13Z</time></trkpt><trkpt lat="42.61745431502279" lon="2.793241844966932"><ele>112.0</ele><time>2026-03-23T14:48:14Z</time></trkpt><trkpt lat="42.61743270514369" lon="2.793519018069683"><ele>111.66666666666667</ele><time>2026-03-23T14:48:15Z</time></trkpt><trkpt lat="42.6174119548935" lon="2.793777509290117"><ele>111.33333333333334</ele><time>2026-03-23T14:48:16Z</time></trkpt><trkpt lat="42.617390448787155" lon="2.794033557104991"><ele>111.0</ele><time>2026-03-23T14:48:17Z</time></trkpt><trkpt lat="42.61737046085144" lon="2.7942920690387076"><ele>110.0</ele><time>2026-03-23T14:48:18Z</time></trkpt><trkpt lat="42.617346890444416" lon="2.7945508824890117"><ele>109.0</ele><time>2026-03-23T14:48:19Z</time></trkpt><trkpt lat="42.61732765020354" lon="2.7948001150462622"><ele>108.0</ele><time>2026-03-23T14:48:20Z</time></trkpt><trkpt lat="42.617306899515846" lon="2.795052458894838"><ele>107.66666666666666</ele><time>2026-03-23T14:48:21Z</time></trkpt><trkpt lat="42.617286630908126" lon="2.7953086047211686"><ele>107.33333333333333</ele><time>2026-03-23T14:48:22Z</time></trkpt><trkpt lat="42.61726882965313" lon="2.795556445463984"><ele>107.0</ele><time>2026-03-23T14:48:23Z</time></trkpt><trkpt lat="42.617249559110306" lon="2.795809137045248"><ele>107.33333333333333</ele><time>2026-03-23T14:48:24Z</time></trkpt><trkpt lat="42.61723023027406" lon="2.796063396056055"><ele>107.66666666666666</ele><time>2026-03-23T14:48:25Z</time></trkpt><trkpt lat="42.6172101153331" lon="2.7963221954816118"><ele>108.0</ele><time>2026-03-23T14:48:26Z</time></trkpt><trkpt lat="42.61718963937587" lon="2.796585616766458"><ele>107.33333333333334</ele><time>2026-03-23T14:48:27Z</time></trkpt><trkpt lat="42.61716665909514" lon="2.796852104830297"><ele>106.66666666666667</ele><time>2026-03-23T14:48:28Z</time></trkpt><trkpt lat="42.617146512203114" lon="2.7971184759730203"><ele>106.0</ele><time>2026-03-23T14:48:29Z</time></trkpt><trkpt lat="42.61712616987022" lon="2.797382829833893"><ele>106.0</ele><time>2026-03-23T14:48:30Z</time></trkpt><trkpt lat="42.617105366680455" lon="2.797643704637544"><ele>106.0</ele><time>2026-03-23T14:48:31Z</time></trkpt><trkpt lat="42.617084136628186" lon="2.7979011982559516"><ele>106.0</ele><time>2026-03-23T14:48:32Z</time></trkpt><trkpt lat="42.61706545197512" lon="2.798156562784245"><ele>105.66666666666667</ele><time>2026-03-23T14:48:33Z</time></trkpt><trkpt lat="42.61704423896565" lon="2.798411004483031"><ele>105.33333333333334</ele><time>2026-03-23T14:48:34Z</time></trkpt><trkpt lat="42.61702189634841" lon="2.7986645720276986"><ele>105.0</ele><time>2026-03-23T14:48:35Z</time></trkpt><trkpt lat="42.6169996515792" lon="2.7989206331933953"><ele>105.0</ele><time>2026-03-23T14:48:35.999Z</time></trkpt><trkpt lat="42.616979219345794" lon="2.799179007614302"><ele>105.0</ele><time>2026-03-23T14:48:36.999Z</time></trkpt><trkpt lat="42.616956887737736" lon="2.799437279838033"><ele>105.0</ele><time>2026-03-23T14:48:37.999Z</time></trkpt><trkpt lat="42.61693366674308" lon="2.7996937761349416"><ele>105.0</ele><time>2026-03-23T14:48:38.999Z</time></trkpt><trkpt lat="42.616910552118824" lon="2.7999537119284104"><ele>105.0</ele><time>2026-03-23T14:48:39.999Z</time></trkpt><trkpt lat="42.61688964207452" lon="2.800207889524514"><ele>105.0</ele><time>2026-03-23T14:48:40.999Z</time></trkpt><trkpt lat="42.61684952824508" lon="2.8007368042959957"><ele>105.33333333333334</ele><time>2026-03-23T14:48:42.999Z</time></trkpt><trkpt lat="42.61682796039805" lon="2.8010000081658473"><ele>105.66666666666667</ele><time>2026-03-23T14:48:43.999Z</time></trkpt><trkpt lat="42.616806645275545" lon="2.80125951521426"><ele>106.0</ele><time>2026-03-23T14:48:44.999Z</time></trkpt><trkpt lat="42.616785534328976" lon="2.801528159301029"><ele>106.0</ele><time>2026-03-23T14:48:45.999Z</time></trkpt><trkpt lat="42.61676286105159" lon="2.801799005442615"><ele>106.0</ele><time>2026-03-23T14:48:46.999Z</time></trkpt><trkpt lat="42.61674026350228" lon="2.802074649085449"><ele>106.0</ele><time>2026-03-23T14:48:47.999Z</time></trkpt><trkpt lat="42.61671873665524" lon="2.8023473011310305"><ele>106.0</ele><time>2026-03-23T14:48:48.999Z</time></trkpt><trkpt lat="42.616697280335316" lon="2.8026150339423617"><ele>106.0</ele><time>2026-03-23T14:48:49.999Z</time></trkpt><trkpt lat="42.61667758695153" lon="2.802882236003363"><ele>106.0</ele><time>2026-03-23T14:48:50.999Z</time></trkpt><trkpt lat="42.61665900046068" lon="2.803148018638363"><ele>106.0</ele><time>2026-03-23T14:48:51.999Z</time></trkpt><trkpt lat="42.61663737833193" lon="2.8034184858282103"><ele>106.0</ele><time>2026-03-23T14:48:52.999Z</time></trkpt><trkpt lat="42.616614901199036" lon="2.8036845978469334"><ele>106.0</ele><time>2026-03-23T14:48:53.999Z</time></trkpt><trkpt lat="42.61659305012636" lon="2.8039477014483536"><ele>106.0</ele><time>2026-03-23T14:48:54.999Z</time></trkpt><trkpt lat="42.616571677169084" lon="2.8042049997804845"><ele>106.0</ele><time>2026-03-23T14:48:55.999Z</time></trkpt><trkpt lat="42.616550423207826" lon="2.8044628454716154"><ele>106.0</ele><time>2026-03-23T14:48:56.999Z</time></trkpt><trkpt lat="42.61652690639465" lon="2.8047232121415107"><ele>105.66666666666667</ele><time>2026-03-23T14:48:57.999Z</time></trkpt><trkpt lat="42.61650642386115" lon="2.8049785483848426"><ele>105.33333333333334</ele><time>2026-03-23T14:48:58.999Z</time></trkpt><trkpt lat="42.616487136432106" lon="2.8052347530567894"><ele>105.0</ele><time>2026-03-23T14:48:59.999Z</time></trkpt><trkpt lat="42.616469133946474" lon="2.8054896937227642"><ele>105.0</ele><time>2026-03-23T14:49:00.999Z</time></trkpt><trkpt lat="42.61644881427096" lon="2.8057461850446574"><ele>105.0</ele><time>2026-03-23T14:49:01.999Z</time></trkpt><trkpt lat="42.616428651391466" lon="2.805997863391003"><ele>105.0</ele><time>2026-03-23T14:49:02.999Z</time></trkpt><trkpt lat="42.61641047343374" lon="2.8062482484335156"><ele>105.66666666666666</ele><time>2026-03-23T14:49:03.999Z</time></trkpt><trkpt lat="42.61639079504153" lon="2.8064930225985667"><ele>106.33333333333333</ele><time>2026-03-23T14:49:04.999Z</time></trkpt><trkpt lat="42.616370447861485" lon="2.8067439145747515"><ele>107.0</ele><time>2026-03-23T14:49:05.999Z</time></trkpt><trkpt lat="42.61634948541534" lon="2.8069965254199234"><ele>107.33333333333333</ele><time>2026-03-23T14:49:06.999Z</time></trkpt><trkpt lat="42.61633141327949" lon="2.807248357112587"><ele>107.66666666666666</ele><time>2026-03-23T14:49:07.999Z</time></trkpt><trkpt lat="42.61630895431228" lon="2.8075002587956828"><ele>108.0</ele><time>2026-03-23T14:49:08.999Z</time></trkpt><trkpt lat="42.616282733842986" lon="2.8077523331170076"><ele>107.0</ele><time>2026-03-23T14:49:09.999Z</time></trkpt><trkpt lat="42.61625136210906" lon="2.807992039134057"><ele>106.0</ele><time>2026-03-23T14:49:10.999Z</time></trkpt><trkpt lat="42.61621610761957" lon="2.8082202503207117"><ele>105.0</ele><time>2026-03-23T14:49:11.999Z</time></trkpt><trkpt lat="42.61617793380591" lon="2.808446206132929"><ele>104.0</ele><time>2026-03-23T14:49:12.999Z</time></trkpt><trkpt lat="42.61613848681711" lon="2.808676660577549"><ele>103.0</ele><time>2026-03-23T14:49:13.999Z</time></trkpt><trkpt lat="42.616100602266684" lon="2.808880360592117"><ele>102.0</ele><time>2026-03-23T14:49:14.999Z</time></trkpt><trkpt lat="42.61606322288164" lon="2.8090822936733106"><ele>102.0</ele><time>2026-03-23T14:49:15.999Z</time></trkpt><trkpt lat="42.61602991729713" lon="2.8092824156872362"><ele>102.0</ele><time>2026-03-23T14:49:16.999Z</time></trkpt><trkpt lat="42.6159957533532" lon="2.8094749170224778"><ele>102.0</ele><time>2026-03-23T14:49:17.999Z</time></trkpt><trkpt lat="42.61595579620472" lon="2.8096633955624366"><ele>102.0</ele><time>2026-03-23T14:49:18.999Z</time></trkpt><trkpt lat="42.61592481008592" lon="2.8098481689199177"><ele>101.75</ele><time>2026-03-23T14:49:19.999Z</time></trkpt><trkpt lat="42.615890791347425" lon="2.81002157145417"><ele>101.5</ele><time>2026-03-23T14:49:20.999Z</time></trkpt><trkpt lat="42.61585527922367" lon="2.8101874649698537"><ele>101.25</ele><time>2026-03-23T14:49:21.999Z</time></trkpt><trkpt lat="42.61582186747834" lon="2.8103494316882416"><ele>101.0</ele><time>2026-03-23T14:49:22.999Z</time></trkpt><trkpt lat="42.61578029292799" lon="2.81050196261243"><ele>101.0</ele><time>2026-03-23T14:49:23.999Z</time></trkpt><trkpt lat="42.61572620819759" lon="2.8106392824696185"><ele>101.0</ele><time>2026-03-23T14:49:24.999Z</time></trkpt><trkpt lat="42.61566082768192" lon="2.810774755139756"><ele>101.0</ele><time>2026-03-23T14:49:25.998Z</time></trkpt><trkpt lat="42.615576347804726" lon="2.810897965216875"><ele>101.0</ele><time>2026-03-23T14:49:26.998Z</time></trkpt><trkpt lat="42.61547840588823" lon="2.811011940951887"><ele>99.75</ele><time>2026-03-23T14:49:27.998Z</time></trkpt><trkpt lat="42.61537109758668" lon="2.8111191752493014"><ele>98.5</ele><time>2026-03-23T14:49:28.998Z</time></trkpt><trkpt lat="42.61526430294458" lon="2.811228858902979"><ele>97.25</ele><time>2026-03-23T14:49:29.998Z</time></trkpt><trkpt lat="42.61516023791601" lon="2.8113452634228744"><ele>96.0</ele><time>2026-03-23T14:49:30.998Z</time></trkpt><trkpt lat="42.61506807278247" lon="2.811451340304509"><ele>95.5</ele><time>2026-03-23T14:49:31.998Z</time></trkpt><trkpt lat="42.614977393386845" lon="2.811557957373692"><ele>95.0</ele><time>2026-03-23T14:49:32.998Z</time></trkpt><trkpt lat="42.61488933871742" lon="2.8116619457321317"><ele>94.5</ele><time>2026-03-23T14:49:33.998Z</time></trkpt><trkpt lat="42.614802007380376" lon="2.8117682957085357"><ele>94.0</ele><time>2026-03-23T14:49:34.998Z</time></trkpt><trkpt lat="42.61471557266617" lon="2.811878281624923"><ele>92.25</ele><time>2026-03-23T14:49:35.998Z</time></trkpt><trkpt lat="42.61462504209733" lon="2.8119896398845046"><ele>90.5</ele><time>2026-03-23T14:49:36.998Z</time></trkpt><trkpt lat="42.614532482204844" lon="2.8120962389443163"><ele>88.75</ele><time>2026-03-23T14:49:37.998Z</time></trkpt><trkpt lat="42.61443322216822" lon="2.8122059607680656"><ele>87.0</ele><time>2026-03-23T14:49:38.998Z</time></trkpt><trkpt lat="42.61432482060252" lon="2.812312750013425"><ele>87.0</ele><time>2026-03-23T14:49:39.998Z</time></trkpt><trkpt lat="42.61421623821109" lon="2.81242681414246"><ele>87.0</ele><time>2026-03-23T14:49:40.998Z</time></trkpt><trkpt lat="42.614104320160195" lon="2.812554771427999"><ele>87.0</ele><time>2026-03-23T14:49:41.998Z</time></trkpt><trkpt lat="42.61399427916434" lon="2.8126700911238514"><ele>87.0</ele><time>2026-03-23T14:49:42.998Z</time></trkpt><trkpt lat="42.61389119547513" lon="2.81277355541104"><ele>86.25</ele><time>2026-03-23T14:49:43.998Z</time></trkpt><trkpt lat="42.61378311201352" lon="2.8128778372969014"><ele>85.5</ele><time>2026-03-23T14:49:44.998Z</time></trkpt><trkpt lat="42.61367330167697" lon="2.8129846048916307"><ele>84.75</ele><time>2026-03-23T14:49:45.998Z</time></trkpt><trkpt lat="42.61356109266597" lon="2.813087015405351"><ele>84.0</ele><time>2026-03-23T14:49:46.998Z</time></trkpt><trkpt lat="42.61344878531453" lon="2.8131911112008194"><ele>84.0</ele><time>2026-03-23T14:49:47.998Z</time></trkpt><trkpt lat="42.61333827101473" lon="2.8132954551495244"><ele>84.0</ele><time>2026-03-23T14:49:48.998Z</time></trkpt><trkpt lat="42.61322802677987" lon="2.813407907273825"><ele>84.0</ele><time>2026-03-23T14:49:49.998Z</time></trkpt><trkpt lat="42.61311355924774" lon="2.8135281322948487"><ele>84.0</ele><time>2026-03-23T14:49:50.998Z</time></trkpt><trkpt lat="42.612998167301996" lon="2.8136496314903496"><ele>84.0</ele><time>2026-03-23T14:49:51.998Z</time></trkpt><trkpt lat="42.612879036661454" lon="2.8137764420283444"><ele>84.0</ele><time>2026-03-23T14:49:52.998Z</time></trkpt><trkpt lat="42.61275809746843" lon="2.8139048795102406"><ele>84.0</ele><time>2026-03-23T14:49:53.998Z</time></trkpt><trkpt lat="42.612638238297485" lon="2.814031257839066"><ele>84.0</ele><time>2026-03-23T14:49:54.998Z</time></trkpt><trkpt lat="42.61252110052505" lon="2.8141547907174354"><ele>84.0</ele><time>2026-03-23T14:49:55.998Z</time></trkpt><trkpt lat="42.612406624043246" lon="2.814275117213395"><ele>84.0</ele><time>2026-03-23T14:49:56.998Z</time></trkpt><trkpt lat="42.61230166133852" lon="2.8143966491369015"><ele>84.0</ele><time>2026-03-23T14:49:57.998Z</time></trkpt><trkpt lat="42.61218638282326" lon="2.814513191389201"><ele>84.5</ele><time>2026-03-23T14:49:58.998Z</time></trkpt><trkpt lat="42.61207951678311" lon="2.814634323083533"><ele>85.0</ele><time>2026-03-23T14:49:59.998Z</time></trkpt><trkpt lat="42.61197836860088" lon="2.814757893541858"><ele>85.5</ele><time>2026-03-23T14:50:00.998Z</time></trkpt><trkpt lat="42.6118841015721" lon="2.8148886479604327"><ele>86.0</ele><time>2026-03-23T14:50:02Z</time></trkpt><trkpt lat="42.61180988482278" lon="2.8150282984690893"><ele>86.25</ele><time>2026-03-23T14:50:03Z</time></trkpt><trkpt lat="42.611746191410205" lon="2.8151870975123647"><ele>86.5</ele><time>2026-03-23T14:50:04Z</time></trkpt><trkpt lat="42.61169543532197" lon="2.815352312100646"><ele>86.75</ele><time>2026-03-23T14:50:05Z</time></trkpt><trkpt lat="42.61166560576735" lon="2.8155278139555526"><ele>87.0</ele><time>2026-03-23T14:50:06Z</time></trkpt><trkpt lat="42.611655155759856" lon="2.8157168333151503"><ele>87.0</ele><time>2026-03-23T14:50:07Z</time></trkpt><trkpt lat="42.61166039211656" lon="2.815915257306395"><ele>87.0</ele><time>2026-03-23T14:50:08Z</time></trkpt><trkpt lat="42.61168143504366" lon="2.8161136940160394"><ele>87.0</ele><time>2026-03-23T14:50:09Z</time></trkpt><trkpt lat="42.61170533482322" lon="2.816326548011566"><ele>87.33333333333333</ele><time>2026-03-23T14:50:10Z</time></trkpt><trkpt lat="42.61172565364939" lon="2.8165319143673093"><ele>87.66666666666666</ele><time>2026-03-23T14:50:11Z</time></trkpt><trkpt lat="42.6117482422653" lon="2.8167408440439834"><ele>88.0</ele><time>2026-03-23T14:50:12Z</time></trkpt><trkpt lat="42.61177190787278" lon="2.8169419522073635"><ele>87.33333333333333</ele><time>2026-03-23T14:50:13Z</time></trkpt><trkpt lat="42.611793038019805" lon="2.817145550957031"><ele>86.66666666666667</ele><time>2026-03-23T14:50:14Z</time></trkpt><trkpt lat="42.61181452178911" lon="2.817353500792606"><ele>86.0</ele><time>2026-03-23T14:50:15Z</time></trkpt><trkpt lat="42.611836394583946" lon="2.817565552030234"><ele>86.33333333333334</ele><time>2026-03-23T14:50:16Z</time></trkpt><trkpt lat="42.61185785670374" lon="2.8177798372329046"><ele>86.66666666666667</ele><time>2026-03-23T14:50:17Z</time></trkpt><trkpt lat="42.61187667980905" lon="2.81800710289648"><ele>87.0</ele><time>2026-03-23T14:50:18Z</time></trkpt><trkpt lat="42.61190021128056" lon="2.818237969961819"><ele>87.0</ele><time>2026-03-23T14:50:19Z</time></trkpt><trkpt lat="42.611923479342956" lon="2.8184633950303226"><ele>87.0</ele><time>2026-03-23T14:50:20Z</time></trkpt><trkpt lat="42.611942620966005" lon="2.8186994638769547"><ele>87.0</ele><time>2026-03-23T14:50:21Z</time></trkpt><trkpt lat="42.61196219694675" lon="2.8189262997343367"><ele>86.66666666666667</ele><time>2026-03-23T14:50:22Z</time></trkpt><trkpt lat="42.611988680237424" lon="2.8191518778892237"><ele>86.33333333333334</ele><time>2026-03-23T14:50:23Z</time></trkpt><trkpt lat="42.61200921517595" lon="2.8193731694701074"><ele>86.0</ele><time>2026-03-23T14:50:24Z</time></trkpt><trkpt lat="42.612027970727205" lon="2.819599498987391"><ele>85.66666666666667</ele><time>2026-03-23T14:50:25Z</time></trkpt><trkpt lat="42.61204902062739" lon="2.819824010738598"><ele>85.33333333333333</ele><time>2026-03-23T14:50:26Z</time></trkpt><trkpt lat="42.61206948601633" lon="2.8200471351840135"><ele>85.0</ele><time>2026-03-23T14:50:27Z</time></trkpt><trkpt lat="42.61208975147605" lon="2.8202749612542433"><ele>85.0</ele><time>2026-03-23T14:50:28Z</time></trkpt><trkpt lat="42.61211201383499" lon="2.820508133730743"><ele>85.0</ele><time>2026-03-23T14:50:29Z</time></trkpt><trkpt lat="42.61213353555039" lon="2.820740199848674"><ele>85.0</ele><time>2026-03-23T14:50:30Z</time></trkpt><trkpt lat="42.61215819607676" lon="2.820968362618472"><ele>85.0</ele><time>2026-03-23T14:50:31Z</time></trkpt><trkpt lat="42.61218128631335" lon="2.821188410573132"><ele>85.0</ele><time>2026-03-23T14:50:32Z</time></trkpt><trkpt lat="42.61220101236355" lon="2.82141030043126"><ele>85.0</ele><time>2026-03-23T14:50:33Z</time></trkpt><trkpt lat="42.612220155017184" lon="2.821631496590233"><ele>85.0</ele><time>2026-03-23T14:50:34Z</time></trkpt><trkpt lat="42.61223848407503" lon="2.82185478579749"><ele>85.0</ele><time>2026-03-23T14:50:35Z</time></trkpt><trkpt lat="42.61226210401979" lon="2.822082509306978"><ele>85.0</ele><time>2026-03-23T14:50:36Z</time></trkpt><trkpt lat="42.612281708240616" lon="2.8223004728792946"><ele>85.0</ele><time>2026-03-23T14:50:37Z</time></trkpt><trkpt lat="42.612302611436654" lon="2.8225259663735485"><ele>85.0</ele><time>2026-03-23T14:50:38Z</time></trkpt><trkpt lat="42.61232313502177" lon="2.8227538238189327"><ele>85.0</ele><time>2026-03-23T14:50:39Z</time></trkpt><trkpt lat="42.612342939194846" lon="2.822979472497115"><ele>85.66666666666666</ele><time>2026-03-23T14:50:40Z</time></trkpt><trkpt lat="42.612360911743004" lon="2.8231867924953566"><ele>86.33333333333333</ele><time>2026-03-23T14:50:40.999Z</time></trkpt><trkpt lat="42.61237805495403" lon="2.823387858152057"><ele>87.0</ele><time>2026-03-23T14:50:41.999Z</time></trkpt><trkpt lat="42.61239354792768" lon="2.82358706537797"><ele>87.5</ele><time>2026-03-23T14:50:42.999Z</time></trkpt><trkpt lat="42.61240995059747" lon="2.8237875425742254"><ele>88.0</ele><time>2026-03-23T14:50:43.999Z</time></trkpt><trkpt lat="42.61242716041337" lon="2.8239879432637784"><ele>88.5</ele><time>2026-03-23T14:50:44.999Z</time></trkpt><trkpt lat="42.61243607628661" lon="2.8241878236430287"><ele>89.0</ele><time>2026-03-23T14:50:45.999Z</time></trkpt><trkpt lat="42.6124346492257" lon="2.8243937857085033"><ele>89.0</ele><time>2026-03-23T14:50:46.999Z</time></trkpt><trkpt lat="42.612426885242236" lon="2.824600079850219"><ele>89.0</ele><time>2026-03-23T14:50:47.999Z</time></trkpt><trkpt lat="42.61241889238922" lon="2.824807969420098"><ele>89.0</ele><time>2026-03-23T14:50:48.999Z</time></trkpt><trkpt lat="42.612410335727326" lon="2.8249960648187553"><ele>89.0</ele><time>2026-03-23T14:50:49.999Z</time></trkpt><trkpt lat="42.61239875308975" lon="2.8251625985856097"><ele>89.4</ele><time>2026-03-23T14:50:50.999Z</time></trkpt><trkpt lat="42.61238261119422" lon="2.825326899332255"><ele>89.80000000000001</ele><time>2026-03-23T14:50:51.999Z</time></trkpt><trkpt lat="42.61236484567337" lon="2.8254840398308874"><ele>90.19999999999999</ele><time>2026-03-23T14:50:52.999Z</time></trkpt><trkpt lat="42.612342234145125" lon="2.8256306323910865"><ele>90.6</ele><time>2026-03-23T14:50:53.999Z</time></trkpt><trkpt lat="42.612318818124265" lon="2.8257400318687385"><ele>91.0</ele><time>2026-03-23T14:50:54.999Z</time></trkpt><trkpt lat="42.612262671399385" lon="2.8258725554045574"><ele>91.0</ele><time>2026-03-23T14:50:56.999Z</time></trkpt><trkpt lat="42.61215431860268" lon="2.8259675352480853"><ele>91.0</ele><time>2026-03-23T14:50:58.999Z</time></trkpt><trkpt lat="42.61208027189088" lon="2.825976259137531"><ele>91.0</ele><time>2026-03-23T14:50:59.999Z</time></trkpt><trkpt lat="42.612002846237665" lon="2.8259557821986947"><ele>91.0</ele><time>2026-03-23T14:51:00.999Z</time></trkpt><trkpt lat="42.611919414223834" lon="2.8259083848029287"><ele>91.0</ele><time>2026-03-23T14:51:01.999Z</time></trkpt><trkpt lat="42.61183180856953" lon="2.82584847073982"><ele>92.0</ele><time>2026-03-23T14:51:02.999Z</time></trkpt><trkpt lat="42.611728691187174" lon="2.8257836302073245"><ele>93.0</ele><time>2026-03-23T14:51:03.999Z</time></trkpt><trkpt lat="42.611624885636466" lon="2.8257192120823764"><ele>94.0</ele><time>2026-03-23T14:51:04.999Z</time></trkpt><trkpt lat="42.61150483875848" lon="2.8256440942944328"><ele>95.0</ele><time>2026-03-23T14:51:05.999Z</time></trkpt><trkpt lat="42.611375895278925" lon="2.8255571294172017"><ele>95.0</ele><time>2026-03-23T14:51:06.999Z</time></trkpt><trkpt lat="42.61124074724364" lon="2.825451655710917"><ele>95.0</ele><time>2026-03-23T14:51:07.999Z</time></trkpt><trkpt lat="42.6111079450796" lon="2.825329833839189"><ele>95.0</ele><time>2026-03-23T14:51:08.999Z</time></trkpt><trkpt lat="42.61097449557945" lon="2.8251899189045195"><ele>95.0</ele><time>2026-03-23T14:51:09.999Z</time></trkpt><trkpt lat="42.61084275390254" lon="2.825030088141166"><ele>95.0</ele><time>2026-03-23T14:51:10.999Z</time></trkpt><trkpt lat="42.61071418010406" lon="2.824849343100467"><ele>95.0</ele><time>2026-03-23T14:51:11.999Z</time></trkpt><trkpt lat="42.61059254002909" lon="2.8246585361265883"><ele>95.0</ele><time>2026-03-23T14:51:12.999Z</time></trkpt><trkpt lat="42.61047093862983" lon="2.824447383455243"><ele>95.0</ele><time>2026-03-23T14:51:13.999Z</time></trkpt><trkpt lat="42.610358091356815" lon="2.8242168716142446"><ele>95.0</ele><time>2026-03-23T14:51:14.999Z</time></trkpt><trkpt lat="42.61025027650739" lon="2.8239902206428558"><ele>95.0</ele><time>2026-03-23T14:51:15.999Z</time></trkpt><trkpt lat="42.61015144997033" lon="2.8237586464009015"><ele>95.0</ele><time>2026-03-23T14:51:16.999Z</time></trkpt><trkpt lat="42.61005380247618" lon="2.8235348680058205"><ele>95.0</ele><time>2026-03-23T14:51:17.999Z</time></trkpt><trkpt lat="42.60995274031845" lon="2.823308888378905"><ele>95.0</ele><time>2026-03-23T14:51:18.999Z</time></trkpt><trkpt lat="42.60985316741075" lon="2.8230904069421054"><ele>95.0</ele><time>2026-03-23T14:51:19.999Z</time></trkpt><trkpt lat="42.60974986321659" lon="2.822869005121322"><ele>95.0</ele><time>2026-03-23T14:51:20.999Z</time></trkpt><trkpt lat="42.609650110720516" lon="2.8226506331701846"><ele>95.0</ele><time>2026-03-23T14:51:21.999Z</time></trkpt><trkpt lat="42.609551528510174" lon="2.8224355051812937"><ele>95.0</ele><time>2026-03-23T14:51:22.999Z</time></trkpt><trkpt lat="42.60945515537121" lon="2.8222204892400065"><ele>95.0</ele><time>2026-03-23T14:51:23.999Z</time></trkpt><trkpt lat="42.609358216628216" lon="2.8220035960517333"><ele>97.0</ele><time>2026-03-23T14:51:24.999Z</time></trkpt><trkpt lat="42.609261639198735" lon="2.8217869334084718"><ele>99.0</ele><time>2026-03-23T14:51:25.999Z</time></trkpt><trkpt lat="42.60916385748226" lon="2.8215720402093343"><ele>101.0</ele><time>2026-03-23T14:51:26.999Z</time></trkpt><trkpt lat="42.609067942707355" lon="2.821360264945321"><ele>101.0</ele><time>2026-03-23T14:51:27.999Z</time></trkpt><trkpt lat="42.60897361740552" lon="2.821153307542234"><ele>101.0</ele><time>2026-03-23T14:51:28.999Z</time></trkpt><trkpt lat="42.60887684497575" lon="2.8209545927359785"><ele>101.0</ele><time>2026-03-23T14:51:29.998Z</time></trkpt><trkpt lat="42.608774426414534" lon="2.8207615799296475"><ele>101.0</ele><time>2026-03-23T14:51:30.998Z</time></trkpt><trkpt lat="42.60865968649629" lon="2.820583902161748"><ele>101.0</ele><time>2026-03-23T14:51:31.998Z</time></trkpt><trkpt lat="42.60853987135872" lon="2.820428381102193"><ele>101.0</ele><time>2026-03-23T14:51:32.998Z</time></trkpt><trkpt lat="42.608410072783855" lon="2.8202958688968445"><ele>101.0</ele><time>2026-03-23T14:51:33.998Z</time></trkpt><trkpt lat="42.608276609501495" lon="2.8201744358355887"><ele>101.0</ele><time>2026-03-23T14:51:34.998Z</time></trkpt><trkpt lat="42.608134101498" lon="2.8200678793569054"><ele>101.0</ele><time>2026-03-23T14:51:35.998Z</time></trkpt><trkpt lat="42.607988935665205" lon="2.8199800311777325"><ele>99.66666666666666</ele><time>2026-03-23T14:51:36.998Z</time></trkpt><trkpt lat="42.60783659821119" lon="2.8199116651707214"><ele>98.33333333333334</ele><time>2026-03-23T14:51:37.998Z</time></trkpt><trkpt lat="42.60768149053759" lon="2.819862802293102"><ele>97.0</ele><time>2026-03-23T14:51:38.998Z</time></trkpt><trkpt lat="42.6075236062584" lon="2.819831311108184"><ele>96.75</ele><time>2026-03-23T14:51:39.998Z</time></trkpt><trkpt lat="42.607365400046476" lon="2.819812028960325"><ele>96.5</ele><time>2026-03-23T14:51:40.998Z</time></trkpt><trkpt lat="42.60722134483686" lon="2.8197993542088624"><ele>96.25</ele><time>2026-03-23T14:51:41.998Z</time></trkpt><trkpt lat="42.60709787935595" lon="2.8197912457878633"><ele>96.0</ele><time>2026-03-23T14:51:42.998Z</time></trkpt><trkpt lat="42.606987070153" lon="2.8197793742697854"><ele>97.25</ele><time>2026-03-23T14:51:43.998Z</time></trkpt><trkpt lat="42.60688652950323" lon="2.8197649741002437"><ele>98.5</ele><time>2026-03-23T14:51:44.998Z</time></trkpt><trkpt lat="42.606734333275135" lon="2.819728259547771"><ele>99.75</ele><time>2026-03-23T14:51:46.998Z</time></trkpt><trkpt lat="42.60663684639657" lon="2.8196697539611484"><ele>101.0</ele><time>2026-03-23T14:51:48.998Z</time></trkpt><trkpt lat="42.60652026870775" lon="2.8196078196685326"><ele>101.0</ele><time>2026-03-23T14:51:51.998Z</time></trkpt><trkpt lat="42.606419393564536" lon="2.819666926622245"><ele>101.0</ele><time>2026-03-23T14:51:53.998Z</time></trkpt><trkpt lat="42.60640284822804" lon="2.8197949571120535"><ele>101.0</ele><time>2026-03-23T14:51:55.998Z</time></trkpt><trkpt lat="42.60654775710793" lon="2.8199062600505904"><ele>101.0</ele><time>2026-03-23T14:51:58.998Z</time></trkpt><trkpt lat="42.60662073191762" lon="2.819877346936781"><ele>101.0</ele><time>2026-03-23T14:51:59.998Z</time></trkpt><trkpt lat="42.60669705103088" lon="2.8198267396858907"><ele>101.0</ele><time>2026-03-23T14:52:00.998Z</time></trkpt><trkpt lat="42.606802117734645" lon="2.8197931999152632"><ele>101.0</ele><time>2026-03-23T14:52:01.998Z</time></trkpt><trkpt lat="42.60692376099293" lon="2.8197879689063496"><ele>101.0</ele><time>2026-03-23T14:52:02.998Z</time></trkpt><trkpt lat="42.60706130670215" lon="2.819800603130255"><ele>101.0</ele><time>2026-03-23T14:52:03.998Z</time></trkpt><trkpt lat="42.60721414651058" lon="2.8198195263414503"><ele>99.33333333333333</ele><time>2026-03-23T14:52:04.998Z</time></trkpt><trkpt lat="42.607384413772465" lon="2.8198435417657737"><ele>97.66666666666666</ele><time>2026-03-23T14:52:05.998Z</time></trkpt><trkpt lat="42.60756616087414" lon="2.819872049802953"><ele>96.0</ele><time>2026-03-23T14:52:06.998Z</time></trkpt><trkpt lat="42.60774772896345" lon="2.819911405583594"><ele>96.5</ele><time>2026-03-23T14:52:08Z</time></trkpt><trkpt lat="42.608104597465164" lon="2.820067803790801"><ele>97.0</ele><time>2026-03-23T14:52:10Z</time></trkpt><trkpt lat="42.60827179101538" lon="2.8201931940516274"><ele>97.66666666666667</ele><time>2026-03-23T14:52:11Z</time></trkpt><trkpt lat="42.6084299244208" lon="2.82034011525873"><ele>98.33333333333334</ele><time>2026-03-23T14:52:12Z</time></trkpt><trkpt lat="42.608576007727265" lon="2.8205064461404667"><ele>99.0</ele><time>2026-03-23T14:52:13Z</time></trkpt><trkpt lat="42.60871120091041" lon="2.820690723361862"><ele>100.0</ele><time>2026-03-23T14:52:14Z</time></trkpt><trkpt lat="42.60894228564627" lon="2.8211178072038594"><ele>101.0</ele><time>2026-03-23T14:52:16Z</time></trkpt><trkpt lat="42.60904179074347" lon="2.821346896130484"><ele>101.0</ele><time>2026-03-23T14:52:17Z</time></trkpt><trkpt lat="42.60913964521631" lon="2.8215729957734275"><ele>101.0</ele><time>2026-03-23T14:52:18Z</time></trkpt><trkpt lat="42.60923663937021" lon="2.82178727041972"><ele>101.0</ele><time>2026-03-23T14:52:19Z</time></trkpt><trkpt lat="42.609334575065944" lon="2.8219997405075627"><ele>101.66666666666666</ele><time>2026-03-23T14:52:20Z</time></trkpt><trkpt lat="42.609431528779346" lon="2.8222094274494607"><ele>102.33333333333334</ele><time>2026-03-23T14:52:21Z</time></trkpt><trkpt lat="42.60952819005534" lon="2.822419706316688"><ele>103.0</ele><time>2026-03-23T14:52:22Z</time></trkpt><trkpt lat="42.6096234825712" lon="2.82263197298565"><ele>100.33333333333334</ele><time>2026-03-23T14:52:23Z</time></trkpt><trkpt lat="42.60972399314801" lon="2.8228461050602456"><ele>97.66666666666667</ele><time>2026-03-23T14:52:24Z</time></trkpt><trkpt lat="42.60981843871171" lon="2.8230627830753323"><ele>95.0</ele><time>2026-03-23T14:52:25Z</time></trkpt><trkpt lat="42.609917702334315" lon="2.823280302080778"><ele>95.0</ele><time>2026-03-23T14:52:26Z</time></trkpt><trkpt lat="42.61001550831493" lon="2.8234918795884805"><ele>95.0</ele><time>2026-03-23T14:52:27Z</time></trkpt><trkpt lat="42.610110199095395" lon="2.823708013493417"><ele>95.0</ele><time>2026-03-23T14:52:28Z</time></trkpt><trkpt lat="42.610207428114315" lon="2.8239203152998273"><ele>95.0</ele><time>2026-03-23T14:52:29Z</time></trkpt><trkpt lat="42.61030333395711" lon="2.8241293062736594"><ele>95.0</ele><time>2026-03-23T14:52:30Z</time></trkpt><trkpt lat="42.61039596574031" lon="2.8243337698078994"><ele>95.0</ele><time>2026-03-23T14:52:31Z</time></trkpt><trkpt lat="42.61049679304683" lon="2.8245303879549386"><ele>95.0</ele><time>2026-03-23T14:52:32Z</time></trkpt><trkpt lat="42.61060525642795" lon="2.824716383676021"><ele>95.0</ele><time>2026-03-23T14:52:33Z</time></trkpt><trkpt lat="42.61071520483613" lon="2.8248925033071153"><ele>95.0</ele><time>2026-03-23T14:52:34Z</time></trkpt><trkpt lat="42.61083662520092" lon="2.8250532506879487"><ele>95.0</ele><time>2026-03-23T14:52:35Z</time></trkpt><trkpt lat="42.610964692375674" lon="2.8252019424846804"><ele>95.0</ele><time>2026-03-23T14:52:36Z</time></trkpt><trkpt lat="42.61110012707406" lon="2.8253417436682637"><ele>95.0</ele><time>2026-03-23T14:52:37Z</time></trkpt><trkpt lat="42.61123013017275" lon="2.8254648657396753"><ele>95.0</ele><time>2026-03-23T14:52:38Z</time></trkpt><trkpt lat="42.61134859364592" lon="2.825563101586248"><ele>95.0</ele><time>2026-03-23T14:52:39Z</time></trkpt><trkpt lat="42.611465266333006" lon="2.825652614778983"><ele>95.0</ele><time>2026-03-23T14:52:40Z</time></trkpt><trkpt lat="42.611572741068166" lon="2.825727935183355"><ele>95.0</ele><time>2026-03-23T14:52:41Z</time></trkpt><trkpt lat="42.611676704206296" lon="2.8257920733906734"><ele>95.0</ele><time>2026-03-23T14:52:42Z</time></trkpt><trkpt lat="42.61178654898592" lon="2.825869693694626"><ele>95.0</ele><time>2026-03-23T14:52:43Z</time></trkpt><trkpt lat="42.61186000394915" lon="2.8258873206715385"><ele>95.0</ele><time>2026-03-23T14:52:44Z</time></trkpt><trkpt lat="42.61194127770778" lon="2.825947625196181"><ele>95.0</ele><time>2026-03-23T14:52:45Z</time></trkpt><trkpt lat="42.61202031866804" lon="2.8260058734101032"><ele>95.0</ele><time>2026-03-23T14:52:46Z</time></trkpt><trkpt lat="42.612076422369356" lon="2.8260841052344814"><ele>94.6</ele><time>2026-03-23T14:52:47Z</time></trkpt><trkpt lat="42.612123197188204" lon="2.8261830308731457"><ele>94.2</ele><time>2026-03-23T14:52:47.999Z</time></trkpt><trkpt lat="42.61215459481509" lon="2.8263014815028127"><ele>93.80000000000001</ele><time>2026-03-23T14:52:48.999Z</time></trkpt><trkpt lat="42.612168853029715" lon="2.8264390868877967"><ele>93.4</ele><time>2026-03-23T14:52:49.999Z</time></trkpt><trkpt lat="42.612159220793984" lon="2.826594965871729"><ele>93.0</ele><time>2026-03-23T14:52:50.999Z</time></trkpt><trkpt lat="42.61212843139754" lon="2.8267709571461186"><ele>92.75</ele><time>2026-03-23T14:52:51.999Z</time></trkpt><trkpt lat="42.612081172727905" lon="2.826956923345572"><ele>92.5</ele><time>2026-03-23T14:52:52.999Z</time></trkpt><trkpt lat="42.61205283888273" lon="2.827106203684425"><ele>92.25</ele><time>2026-03-23T14:52:53.999Z</time></trkpt><trkpt lat="42.612001874634565" lon="2.8273162729881025"><ele>92.0</ele><time>2026-03-23T14:52:54.999Z</time></trkpt><trkpt lat="42.61195474041465" lon="2.827530937081217"><ele>91.33333333333334</ele><time>2026-03-23T14:52:55.999Z</time></trkpt><trkpt lat="42.611905482789446" lon="2.8277568744085735"><ele>90.66666666666667</ele><time>2026-03-23T14:52:56.999Z</time></trkpt><trkpt lat="42.61184352908692" lon="2.8279892597525897"><ele>90.0</ele><time>2026-03-23T14:52:57.999Z</time></trkpt><trkpt lat="42.61179239016467" lon="2.8282362113206747"><ele>89.33333333333333</ele><time>2026-03-23T14:52:58.999Z</time></trkpt><trkpt lat="42.611729109882084" lon="2.8284900803505812"><ele>88.66666666666666</ele><time>2026-03-23T14:52:59.999Z</time></trkpt><trkpt lat="42.611670768830635" lon="2.828757111448199"><ele>88.0</ele><time>2026-03-23T14:53:00.999Z</time></trkpt><trkpt lat="42.611616907376224" lon="2.829006208815058"><ele>88.0</ele><time>2026-03-23T14:53:01.999Z</time></trkpt><trkpt lat="42.61156068491704" lon="2.829255683888014"><ele>88.0</ele><time>2026-03-23T14:53:02.999Z</time></trkpt><trkpt lat="42.61150417410252" lon="2.829509494076612"><ele>88.0</ele><time>2026-03-23T14:53:03.999Z</time></trkpt><trkpt lat="42.61145196101484" lon="2.8297640693507398"><ele>87.33333333333333</ele><time>2026-03-23T14:53:04.999Z</time></trkpt><trkpt lat="42.611394335701185" lon="2.8300227579384423"><ele>86.66666666666667</ele><time>2026-03-23T14:53:05.999Z</time></trkpt><trkpt lat="42.61133779263531" lon="2.830279198928306"><ele>86.0</ele><time>2026-03-23T14:53:06.999Z</time></trkpt><trkpt lat="42.61128320936573" lon="2.8305330514335187"><ele>85.33333333333334</ele><time>2026-03-23T14:53:07.999Z</time></trkpt><trkpt lat="42.611230458594335" lon="2.830787787828344"><ele>84.66666666666667</ele><time>2026-03-23T14:53:08.999Z</time></trkpt><trkpt lat="42.61116805108359" lon="2.8310429254866127"><ele>84.0</ele><time>2026-03-23T14:53:09.999Z</time></trkpt><trkpt lat="42.61111243077376" lon="2.831299888035652"><ele>84.0</ele><time>2026-03-23T14:53:10.999Z</time></trkpt><trkpt lat="42.61105625865006" lon="2.831556275381483"><ele>84.0</ele><time>2026-03-23T14:53:11.999Z</time></trkpt><trkpt lat="42.610998755942575" lon="2.831809159714531"><ele>84.0</ele><time>2026-03-23T14:53:12.999Z</time></trkpt><trkpt lat="42.610937015697054" lon="2.832061756359019"><ele>84.0</ele><time>2026-03-23T14:53:13.999Z</time></trkpt><trkpt lat="42.610880175413385" lon="2.832315864909789"><ele>84.0</ele><time>2026-03-23T14:53:14.999Z</time></trkpt><trkpt lat="42.61082378549418" lon="2.8325707552936863"><ele>84.0</ele><time>2026-03-23T14:53:15.999Z</time></trkpt><trkpt lat="42.610777527089326" lon="2.8328117629496328"><ele>84.33333333333333</ele><time>2026-03-23T14:53:16.999Z</time></trkpt><trkpt lat="42.610720948971995" lon="2.833058456470022"><ele>84.66666666666666</ele><time>2026-03-23T14:53:17.999Z</time></trkpt><trkpt lat="42.61066148923015" lon="2.83330369599853"><ele>85.0</ele><time>2026-03-23T14:53:18.999Z</time></trkpt><trkpt lat="42.610606255434284" lon="2.8335512159748597"><ele>85.33333333333333</ele><time>2026-03-23T14:53:19.999Z</time></trkpt><trkpt lat="42.610554053488016" lon="2.833794219462124"><ele>85.66666666666667</ele><time>2026-03-23T14:53:20.999Z</time></trkpt><trkpt lat="42.61050006678504" lon="2.834037399931149"><ele>86.0</ele><time>2026-03-23T14:53:21.999Z</time></trkpt><trkpt lat="42.610446138556206" lon="2.8342835584594535"><ele>86.66666666666667</ele><time>2026-03-23T14:53:22.999Z</time></trkpt><trkpt lat="42.610392013162105" lon="2.834532536650318"><ele>87.33333333333333</ele><time>2026-03-23T14:53:23.999Z</time></trkpt><trkpt lat="42.61033531106259" lon="2.834787428774931"><ele>88.0</ele><time>2026-03-23T14:53:24.999Z</time></trkpt><trkpt lat="42.61027841413866" lon="2.8350412490494126"><ele>89.33333333333333</ele><time>2026-03-23T14:53:25.999Z</time></trkpt><trkpt lat="42.61021905624666" lon="2.835300031189558"><ele>90.66666666666667</ele><time>2026-03-23T14:53:26.999Z</time></trkpt><trkpt lat="42.61016004029172" lon="2.835561505319882"><ele>92.0</ele><time>2026-03-23T14:53:27.999Z</time></trkpt><trkpt lat="42.61009925947624" lon="2.8358229705334654"><ele>92.33333333333334</ele><time>2026-03-23T14:53:28.999Z</time></trkpt><trkpt lat="42.61004233041047" lon="2.8360858824399084"><ele>92.66666666666667</ele><time>2026-03-23T14:53:29.999Z</time></trkpt><trkpt lat="42.6099837244592" lon="2.836343261342174"><ele>93.0</ele><time>2026-03-23T14:53:30.999Z</time></trkpt><trkpt lat="42.609924379722095" lon="2.8365992656580157"><ele>93.0</ele><time>2026-03-23T14:53:31.999Z</time></trkpt><trkpt lat="42.609865118040155" lon="2.8368574027371825"><ele>93.0</ele><time>2026-03-23T14:53:32.999Z</time></trkpt><trkpt lat="42.609807188047334" lon="2.8371212147773566"><ele>93.0</ele><time>2026-03-23T14:53:33.999Z</time></trkpt><trkpt lat="42.60974758097646" lon="2.8373866453083623"><ele>92.33333333333333</ele><time>2026-03-23T14:53:34.999Z</time></trkpt><trkpt lat="42.60968933547019" lon="2.8376443452917877"><ele>91.66666666666666</ele><time>2026-03-23T14:53:35.999Z</time></trkpt><trkpt lat="42.609630707026454" lon="2.8378972669342852"><ele>91.0</ele><time>2026-03-23T14:53:36.998Z</time></trkpt><trkpt lat="42.60957519550312" lon="2.838156469703605"><ele>91.0</ele><time>2026-03-23T14:53:37.998Z</time></trkpt><trkpt lat="42.60952227543686" lon="2.8384063699164823"><ele>91.0</ele><time>2026-03-23T14:53:38.998Z</time></trkpt><trkpt lat="42.609465723071416" lon="2.8386668715783125"><ele>91.0</ele><time>2026-03-23T14:53:39.998Z</time></trkpt><trkpt lat="42.609415071304596" lon="2.838924449991301"><ele>90.0</ele><time>2026-03-23T14:53:40.998Z</time></trkpt><trkpt lat="42.60935992537402" lon="2.839183507269025"><ele>89.0</ele><time>2026-03-23T14:53:41.998Z</time></trkpt><trkpt lat="42.6093041330243" lon="2.8394254024943937"><ele>88.0</ele><time>2026-03-23T14:53:42.998Z</time></trkpt><trkpt lat="42.6092540037033" lon="2.839646085380168"><ele>87.33333333333333</ele><time>2026-03-23T14:53:43.998Z</time></trkpt><trkpt lat="42.60921115908546" lon="2.8398518737219045"><ele>86.66666666666667</ele><time>2026-03-23T14:53:44.998Z</time></trkpt><trkpt lat="42.60916581110735" lon="2.840072284030704"><ele>86.0</ele><time>2026-03-23T14:53:45.998Z</time></trkpt><trkpt lat="42.60911767124416" lon="2.8402976788848617"><ele>85.66666666666667</ele><time>2026-03-23T14:53:46.998Z</time></trkpt><trkpt lat="42.60906566685256" lon="2.8405294780433414"><ele>85.33333333333333</ele><time>2026-03-23T14:53:47.998Z</time></trkpt><trkpt lat="42.60901856110545" lon="2.840767457506005"><ele>85.0</ele><time>2026-03-23T14:53:48.998Z</time></trkpt><trkpt lat="42.608981169502" lon="2.84099556872824"><ele>84.66666666666666</ele><time>2026-03-23T14:53:49.998Z</time></trkpt><trkpt lat="42.60894781512378" lon="2.841232709260891"><ele>84.33333333333333</ele><time>2026-03-23T14:53:50.998Z</time></trkpt><trkpt lat="42.6089201134556" lon="2.8414759522956645"><ele>84.0</ele><time>2026-03-23T14:53:51.998Z</time></trkpt><trkpt lat="42.60889603374816" lon="2.841725858353495"><ele>83.66666666666667</ele><time>2026-03-23T14:53:52.998Z</time></trkpt><trkpt lat="42.60887426055728" lon="2.8419782109638083"><ele>83.33333333333334</ele><time>2026-03-23T14:53:53.998Z</time></trkpt><trkpt lat="42.60885268986658" lon="2.842224058266012"><ele>83.0</ele><time>2026-03-23T14:53:54.998Z</time></trkpt><trkpt lat="42.60882934966526" lon="2.8424851203461623"><ele>82.66666666666667</ele><time>2026-03-23T14:53:55.998Z</time></trkpt><trkpt lat="42.60880602688758" lon="2.842745729136631"><ele>82.33333333333333</ele><time>2026-03-23T14:53:56.998Z</time></trkpt><trkpt lat="42.60878146618683" lon="2.843007587354249"><ele>82.0</ele><time>2026-03-23T14:53:57.998Z</time></trkpt><trkpt lat="42.60875591739453" lon="2.8432690144973796"><ele>82.0</ele><time>2026-03-23T14:53:58.998Z</time></trkpt><trkpt lat="42.60873461657734" lon="2.8435289334313456"><ele>82.0</ele><time>2026-03-23T14:53:59.998Z</time></trkpt><trkpt lat="42.60871251360098" lon="2.843786196005415"><ele>82.0</ele><time>2026-03-23T14:54:00.998Z</time></trkpt><trkpt lat="42.60869042660015" lon="2.8440414347743874"><ele>82.0</ele><time>2026-03-23T14:54:01.998Z</time></trkpt><trkpt lat="42.6086692834555" lon="2.844289155130968"><ele>82.0</ele><time>2026-03-23T14:54:02.998Z</time></trkpt><trkpt lat="42.608648977598854" lon="2.8445363030223927"><ele>82.0</ele><time>2026-03-23T14:54:03.998Z</time></trkpt><trkpt lat="42.60862696219561" lon="2.8447775332131715"><ele>81.33333333333333</ele><time>2026-03-23T14:54:04.998Z</time></trkpt><trkpt lat="42.60860413756694" lon="2.8450171407928146"><ele>80.66666666666667</ele><time>2026-03-23T14:54:05.998Z</time></trkpt><trkpt lat="42.60858032560294" lon="2.8452466315244354"><ele>80.0</ele><time>2026-03-23T14:54:06.998Z</time></trkpt><trkpt lat="42.608550313104" lon="2.8454692966571233"><ele>79.66666666666667</ele><time>2026-03-23T14:54:07.998Z</time></trkpt><trkpt lat="42.608512541742" lon="2.8456850970252847"><ele>79.33333333333333</ele><time>2026-03-23T14:54:08.998Z</time></trkpt><trkpt lat="42.6084710841799" lon="2.845893729461037"><ele>79.0</ele><time>2026-03-23T14:54:09.998Z</time></trkpt><trkpt lat="42.60842776938816" lon="2.846089834014167"><ele>78.5</ele><time>2026-03-23T14:54:10.998Z</time></trkpt><trkpt lat="42.60837352006601" lon="2.846290841117391"><ele>78.0</ele><time>2026-03-23T14:54:11.998Z</time></trkpt><trkpt lat="42.60831033178036" lon="2.8464663810774242"><ele>77.5</ele><time>2026-03-23T14:54:12.998Z</time></trkpt><trkpt lat="42.60824203190873" lon="2.8466364271416884"><ele>77.0</ele><time>2026-03-23T14:54:14Z</time></trkpt><trkpt lat="42.6081783100836" lon="2.8467898244123004"><ele>76.6</ele><time>2026-03-23T14:54:15Z</time></trkpt><trkpt lat="42.60811609919965" lon="2.8469435636915588"><ele>76.2</ele><time>2026-03-23T14:54:16Z</time></trkpt><trkpt lat="42.608063058323786" lon="2.8470774616463412"><ele>75.8</ele><time>2026-03-23T14:54:17Z</time></trkpt><trkpt lat="42.60801878601377" lon="2.84719647007973"><ele>75.4</ele><time>2026-03-23T14:54:18Z</time></trkpt><trkpt lat="42.6079704200893" lon="2.847286966420864"><ele>75.0</ele><time>2026-03-23T14:54:19Z</time></trkpt><trkpt lat="42.60791372859442" lon="2.8473419158224584"><ele>75.0</ele><time>2026-03-23T14:54:20Z</time></trkpt><trkpt lat="42.60784625988054" lon="2.8473774850538964"><ele>75.0</ele><time>2026-03-23T14:54:21Z</time></trkpt><trkpt lat="42.60779020825976" lon="2.8474304250948967"><ele>75.0</ele><time>2026-03-23T14:54:22Z</time></trkpt><trkpt lat="42.60775794296348" lon="2.8475102415940508"><ele>75.0</ele><time>2026-03-23T14:54:23Z</time></trkpt><trkpt lat="42.60774686798147" lon="2.847622832159728"><ele>75.0</ele><time>2026-03-23T14:54:24Z</time></trkpt><trkpt lat="42.60775241767115" lon="2.8477552373369783"><ele>75.0</ele><time>2026-03-23T14:54:25Z</time></trkpt><trkpt lat="42.607743444342866" lon="2.8479036964172404"><ele>75.0</ele><time>2026-03-23T14:54:26Z</time></trkpt><trkpt lat="42.60770820993436" lon="2.8480559725889303"><ele>75.0</ele><time>2026-03-23T14:54:27Z</time></trkpt><trkpt lat="42.60765989406804" lon="2.84822775246726"><ele>75.0</ele><time>2026-03-23T14:54:28Z</time></trkpt><trkpt lat="42.60761120823235" lon="2.84841131871466"><ele>75.0</ele><time>2026-03-23T14:54:29Z</time></trkpt><trkpt lat="42.607561811037044" lon="2.8486189954771914"><ele>74.66666666666667</ele><time>2026-03-23T14:54:30Z</time></trkpt><trkpt lat="42.60751395180748" lon="2.848846703743052"><ele>74.33333333333334</ele><time>2026-03-23T14:54:31Z</time></trkpt><trkpt lat="42.60747257205351" lon="2.8490829367691415"><ele>74.0</ele><time>2026-03-23T14:54:32Z</time></trkpt><trkpt lat="42.6074394704716" lon="2.849328615993093"><ele>73.66666666666667</ele><time>2026-03-23T14:54:33Z</time></trkpt><trkpt lat="42.607423172538354" lon="2.849578174509754"><ele>73.33333333333333</ele><time>2026-03-23T14:54:34Z</time></trkpt><trkpt lat="42.60741928845364" lon="2.8498348419391393"><ele>73.0</ele><time>2026-03-23T14:54:35Z</time></trkpt><trkpt lat="42.6074180350491" lon="2.8500976752460656"><ele>72.66666666666666</ele><time>2026-03-23T14:54:36Z</time></trkpt><trkpt lat="42.607410926666745" lon="2.8503608325894985"><ele>72.33333333333333</ele><time>2026-03-23T14:54:37Z</time></trkpt><trkpt lat="42.60739924430095" lon="2.850618227879839"><ele>72.0</ele><time>2026-03-23T14:54:38Z</time></trkpt><trkpt lat="42.60739490625195" lon="2.850872871258041"><ele>72.0</ele><time>2026-03-23T14:54:39Z</time></trkpt><trkpt lat="42.607387895164464" lon="2.8511272957316054"><ele>72.0</ele><time>2026-03-23T14:54:40Z</time></trkpt><trkpt lat="42.60738180425961" lon="2.851380825529958"><ele>72.0</ele><time>2026-03-23T14:54:41Z</time></trkpt><trkpt lat="42.60737532267174" lon="2.8516381833851385"><ele>71.66666666666667</ele><time>2026-03-23T14:54:42Z</time></trkpt><trkpt lat="42.60736796073407" lon="2.851904909273272"><ele>71.33333333333334</ele><time>2026-03-23T14:54:43Z</time></trkpt><trkpt lat="42.607359194979054" lon="2.8521612573766637"><ele>71.0</ele><time>2026-03-23T14:54:44Z</time></trkpt><trkpt lat="42.6073513704803" lon="2.852409441530766"><ele>70.66666666666667</ele><time>2026-03-23T14:54:45Z</time></trkpt><trkpt lat="42.607346075103905" lon="2.8526473087340802"><ele>70.33333333333333</ele><time>2026-03-23T14:54:46Z</time></trkpt><trkpt lat="42.60734255804918" lon="2.8528864028688323"><ele>70.0</ele><time>2026-03-23T14:54:47Z</time></trkpt><trkpt lat="42.607337131234424" lon="2.8531243218651214"><ele>70.0</ele><time>2026-03-23T14:54:48Z</time></trkpt><trkpt lat="42.60733134124647" lon="2.8533671667701355"><ele>70.0</ele><time>2026-03-23T14:54:49Z</time></trkpt><trkpt lat="42.60732134244112" lon="2.8536108857535747"><ele>70.0</ele><time>2026-03-23T14:54:50Z</time></trkpt><trkpt lat="42.60731340164464" lon="2.853859794838946"><ele>69.0</ele><time>2026-03-23T14:54:50.999Z</time></trkpt><trkpt lat="42.60730866542042" lon="2.8541147298013043"><ele>68.0</ele><time>2026-03-23T14:54:51.999Z</time></trkpt><trkpt lat="42.60730281301985" lon="2.8543760159394207"><ele>67.0</ele><time>2026-03-23T14:54:52.999Z</time></trkpt><trkpt lat="42.60730055076413" lon="2.854650095074492"><ele>66.66666666666666</ele><time>2026-03-23T14:54:53.999Z</time></trkpt><trkpt lat="42.607299544116636" lon="2.854938581538697"><ele>66.33333333333333</ele><time>2026-03-23T14:54:54.999Z</time></trkpt><trkpt lat="42.60730534118029" lon="2.8552252800431863"><ele>66.0</ele><time>2026-03-23T14:54:55.999Z</time></trkpt><trkpt lat="42.60731697665575" lon="2.8555011012314466"><ele>65.66666666666667</ele><time>2026-03-23T14:54:56.999Z</time></trkpt><trkpt lat="42.60733444264779" lon="2.8557694900908577"><ele>65.33333333333334</ele><time>2026-03-23T14:54:57.999Z</time></trkpt><trkpt lat="42.607354728260766" lon="2.8560429740749855"><ele>65.0</ele><time>2026-03-23T14:54:58.999Z</time></trkpt><trkpt lat="42.60737671357778" lon="2.856313555623619"><ele>64.33333333333334</ele><time>2026-03-23T14:54:59.999Z</time></trkpt><trkpt lat="42.60740037099624" lon="2.8565823892904563"><ele>63.66666666666667</ele><time>2026-03-23T14:55:00.999Z</time></trkpt><trkpt lat="42.6074294372353" lon="2.8568493771407955"><ele>63.0</ele><time>2026-03-23T14:55:01.999Z</time></trkpt><trkpt lat="42.60746197448323" lon="2.8571090131487193"><ele>62.33333333333333</ele><time>2026-03-23T14:55:02.999Z</time></trkpt><trkpt lat="42.607497905253354" lon="2.8573666671160374"><ele>61.666666666666664</ele><time>2026-03-23T14:55:03.999Z</time></trkpt><trkpt lat="42.607545747202785" lon="2.857619360702784"><ele>61.0</ele><time>2026-03-23T14:55:04.999Z</time></trkpt><trkpt lat="42.60760317684372" lon="2.8578643737954823"><ele>60.666666666666664</ele><time>2026-03-23T14:55:05.999Z</time></trkpt><trkpt lat="42.607660626862504" lon="2.8581045255457713"><ele>60.33333333333333</ele><time>2026-03-23T14:55:06.999Z</time></trkpt><trkpt lat="42.60771993092792" lon="2.858348990831759"><ele>60.0</ele><time>2026-03-23T14:55:07.999Z</time></trkpt><trkpt lat="42.60776758303202" lon="2.858567755333859"><ele>60.0</ele><time>2026-03-23T14:55:08.999Z</time></trkpt><trkpt lat="42.60781623352519" lon="2.858763300371331"><ele>60.0</ele><time>2026-03-23T14:55:09.999Z</time></trkpt><trkpt lat="42.60785770098245" lon="2.8589405864678286"><ele>60.0</ele><time>2026-03-23T14:55:10.999Z</time></trkpt><trkpt lat="42.6078904386763" lon="2.8590878851781696"><ele>60.0</ele><time>2026-03-23T14:55:11.999Z</time></trkpt><trkpt lat="42.607924933542" lon="2.8592206389867174"><ele>60.6</ele><time>2026-03-23T14:55:12.999Z</time></trkpt><trkpt lat="42.60795629645943" lon="2.8593428380748076"><ele>61.2</ele><time>2026-03-23T14:55:13.999Z</time></trkpt><trkpt lat="42.607997857478885" lon="2.859467503377493"><ele>61.8</ele><time>2026-03-23T14:55:14.999Z</time></trkpt><trkpt lat="42.608046936754945" lon="2.8595864336185657"><ele>62.4</ele><time>2026-03-23T14:55:15.999Z</time></trkpt><trkpt lat="42.60809207582296" lon="2.8596895522475094"><ele>63.0</ele><time>2026-03-23T14:55:16.999Z</time></trkpt><trkpt lat="42.60812532892242" lon="2.859793651493398"><ele>63.0</ele><time>2026-03-23T14:55:17.999Z</time></trkpt><trkpt lat="42.608141826433496" lon="2.8599157073538604"><ele>63.0</ele><time>2026-03-23T14:55:18.999Z</time></trkpt><trkpt lat="42.60814312375262" lon="2.860046364818546"><ele>63.0</ele><time>2026-03-23T14:55:19.999Z</time></trkpt><trkpt lat="42.60814789263162" lon="2.8601661587275977"><ele>63.0</ele><time>2026-03-23T14:55:20.999Z</time></trkpt><trkpt lat="42.608164193640135" lon="2.8602795591705297"><ele>63.0</ele><time>2026-03-23T14:55:21.999Z</time></trkpt><trkpt lat="42.60818414044306" lon="2.8603678672248205"><ele>63.0</ele><time>2026-03-23T14:55:22.999Z</time></trkpt><trkpt lat="42.608207131733806" lon="2.8604878967213248"><ele>63.166666666666664</ele><time>2026-03-23T14:55:24.999Z</time></trkpt><trkpt lat="42.6081988856364" lon="2.8605812156705945"><ele>63.33333333333333</ele><time>2026-03-23T14:55:30.999Z</time></trkpt><trkpt lat="42.60816954137916" lon="2.8606783335354624"><ele>63.5</ele><time>2026-03-23T14:55:34.999Z</time></trkpt><trkpt lat="42.60809251843501" lon="2.860695101178563"><ele>63.666666666666664</ele><time>2026-03-23T14:55:35.999Z</time></trkpt><trkpt lat="42.60800630312711" lon="2.8606158185081614"><ele>63.83333333333333</ele><time>2026-03-23T14:55:36.999Z</time></trkpt><trkpt lat="42.60792766572542" lon="2.8605640254951843"><ele>64.0</ele><time>2026-03-23T14:55:37.999Z</time></trkpt><trkpt lat="42.60782756901978" lon="2.8605164983151"><ele>64.66666666666666</ele><time>2026-03-23T14:55:38.999Z</time></trkpt><trkpt lat="42.607698513574164" lon="2.8604624305166872"><ele>65.33333333333333</ele><time>2026-03-23T14:55:39.998Z</time></trkpt><trkpt lat="42.60755423033414" lon="2.8603672409590075"><ele>66.0</ele><time>2026-03-23T14:55:40.998Z</time></trkpt><trkpt lat="42.60739367687963" lon="2.8602831895015632"><ele>66.0</ele><time>2026-03-23T14:55:41.998Z</time></trkpt><trkpt lat="42.607229119892146" lon="2.8601855768515745"><ele>66.0</ele><time>2026-03-23T14:55:42.998Z</time></trkpt><trkpt lat="42.607069863332185" lon="2.860077309140023"><ele>66.0</ele><time>2026-03-23T14:55:43.998Z</time></trkpt><trkpt lat="42.606939395790555" lon="2.8600035075715424"><ele>65.5</ele><time>2026-03-23T14:55:44.998Z</time></trkpt><trkpt lat="42.60680910753171" lon="2.859947944266675"><ele>65.0</ele><time>2026-03-23T14:55:45.998Z</time></trkpt><trkpt lat="42.60669690513531" lon="2.859857290245891"><ele>64.5</ele><time>2026-03-23T14:55:46.998Z</time></trkpt><trkpt lat="42.60653299081301" lon="2.859782912338211"><ele>64.0</ele><time>2026-03-23T14:55:47.998Z</time></trkpt><trkpt lat="42.60635848976637" lon="2.8596792084361096"><ele>64.0</ele><time>2026-03-23T14:55:48.998Z</time></trkpt><trkpt lat="42.60617373643593" lon="2.859566491624286"><ele>64.0</ele><time>2026-03-23T14:55:49.998Z</time></trkpt><trkpt lat="42.605989248804406" lon="2.8594341601026243"><ele>64.0</ele><time>2026-03-23T14:55:50.998Z</time></trkpt><trkpt lat="42.60579303489335" lon="2.859316837588872"><ele>64.33333333333333</ele><time>2026-03-23T14:55:51.998Z</time></trkpt><trkpt lat="42.6055912338606" lon="2.8591961743562"><ele>64.66666666666667</ele><time>2026-03-23T14:55:52.998Z</time></trkpt><trkpt lat="42.60539688173659" lon="2.859079923767276"><ele>65.0</ele><time>2026-03-23T14:55:53.998Z</time></trkpt><trkpt lat="42.60521037344801" lon="2.858968194409959"><ele>65.0</ele><time>2026-03-23T14:55:54.998Z</time></trkpt><trkpt lat="42.605024531663446" lon="2.8588568643275396"><ele>65.0</ele><time>2026-03-23T14:55:55.998Z</time></trkpt><trkpt lat="42.604830206302445" lon="2.8587404520894704"><ele>65.0</ele><time>2026-03-23T14:55:56.998Z</time></trkpt><trkpt lat="42.604627820960204" lon="2.858642702606602"><ele>64.33333333333334</ele><time>2026-03-23T14:55:57.998Z</time></trkpt><trkpt lat="42.60443362293806" lon="2.858495017390048"><ele>63.66666666666667</ele><time>2026-03-23T14:55:58.998Z</time></trkpt><trkpt lat="42.60422976077409" lon="2.8583620026322434"><ele>63.0</ele><time>2026-03-23T14:55:59.998Z</time></trkpt><trkpt lat="42.60402040727454" lon="2.8582575829302885"><ele>63.0</ele><time>2026-03-23T14:56:00.998Z</time></trkpt><trkpt lat="42.60382557118815" lon="2.858144327327782"><ele>63.0</ele><time>2026-03-23T14:56:01.998Z</time></trkpt><trkpt lat="42.60362926308656" lon="2.858048819986795"><ele>63.0</ele><time>2026-03-23T14:56:02.998Z</time></trkpt><trkpt lat="42.60343351046436" lon="2.8579690458141185"><ele>65.33333333333333</ele><time>2026-03-23T14:56:03.998Z</time></trkpt><trkpt lat="42.603234311480506" lon="2.8579109343128013"><ele>67.66666666666666</ele><time>2026-03-23T14:56:04.998Z</time></trkpt><trkpt lat="42.60303856078111" lon="2.8578662648949256"><ele>70.0</ele><time>2026-03-23T14:56:05.998Z</time></trkpt><trkpt lat="42.60284945906082" lon="2.857831772023783"><ele>68.0</ele><time>2026-03-23T14:56:06.998Z</time></trkpt><trkpt lat="42.60267258386302" lon="2.857789467750354"><ele>66.0</ele><time>2026-03-23T14:56:07.998Z</time></trkpt><trkpt lat="42.60249237915858" lon="2.857742733416245"><ele>64.0</ele><time>2026-03-23T14:56:08.998Z</time></trkpt><trkpt lat="42.60231532989883" lon="2.8577101673110388"><ele>64.0</ele><time>2026-03-23T14:56:09.998Z</time></trkpt><trkpt lat="42.602125537456985" lon="2.8576612143302516"><ele>64.0</ele><time>2026-03-23T14:56:10.998Z</time></trkpt><trkpt lat="42.601935052556556" lon="2.857608171932057"><ele>64.0</ele><time>2026-03-23T14:56:11.998Z</time></trkpt><trkpt lat="42.601750048333884" lon="2.8575524449182566"><ele>63.666666666666664</ele><time>2026-03-23T14:56:12.998Z</time></trkpt><trkpt lat="42.60156338412679" lon="2.8574915032739323"><ele>63.33333333333333</ele><time>2026-03-23T14:56:13.998Z</time></trkpt><trkpt lat="42.601380357781125" lon="2.857422095066918"><ele>63.0</ele><time>2026-03-23T14:56:14.998Z</time></trkpt><trkpt lat="42.601202947555336" lon="2.8573482041068283"><ele>63.0</ele><time>2026-03-23T14:56:15.998Z</time></trkpt><trkpt lat="42.60102944481791" lon="2.8572737115187183"><ele>63.0</ele><time>2026-03-23T14:56:16.998Z</time></trkpt><trkpt lat="42.600853767598494" lon="2.857201086831418"><ele>63.0</ele><time>2026-03-23T14:56:17.998Z</time></trkpt><trkpt lat="42.60067482264868" lon="2.8571216693121273"><ele>63.5</ele><time>2026-03-23T14:56:18.998Z</time></trkpt><trkpt lat="42.60030178624939" lon="2.8569566995813243"><ele>64.0</ele><time>2026-03-23T14:56:21Z</time></trkpt><trkpt lat="42.60011631678289" lon="2.8568735624596178"><ele>63.0</ele><time>2026-03-23T14:56:22Z</time></trkpt><trkpt lat="42.599930962023" lon="2.8567852065764434"><ele>62.0</ele><time>2026-03-23T14:56:23Z</time></trkpt><trkpt lat="42.599743396353475" lon="2.8567010894908194"><ele>61.0</ele><time>2026-03-23T14:56:24Z</time></trkpt><trkpt lat="42.599555794098244" lon="2.856613009313246"><ele>61.666666666666664</ele><time>2026-03-23T14:56:25Z</time></trkpt><trkpt lat="42.59937019608258" lon="2.8565214738336975"><ele>62.33333333333333</ele><time>2026-03-23T14:56:26Z</time></trkpt><trkpt lat="42.59918552801437" lon="2.8564353670483937"><ele>63.0</ele><time>2026-03-23T14:56:27Z</time></trkpt><trkpt lat="42.59900692061727" lon="2.8563527074596173"><ele>63.0</ele><time>2026-03-23T14:56:28Z</time></trkpt><trkpt lat="42.59882294636377" lon="2.856271279490366"><ele>63.0</ele><time>2026-03-23T14:56:29Z</time></trkpt><trkpt lat="42.598628249303395" lon="2.8561862442184083"><ele>63.0</ele><time>2026-03-23T14:56:30Z</time></trkpt><trkpt lat="42.598428927753346" lon="2.8560972422217796"><ele>63.0</ele><time>2026-03-23T14:56:31Z</time></trkpt><trkpt lat="42.598228548570575" lon="2.856005833018963"><ele>63.0</ele><time>2026-03-23T14:56:32Z</time></trkpt><trkpt lat="42.59802597587855" lon="2.8559138971102906"><ele>63.0</ele><time>2026-03-23T14:56:33Z</time></trkpt><trkpt lat="42.59782355522356" lon="2.855822197944004"><ele>64.0</ele><time>2026-03-23T14:56:34Z</time></trkpt><trkpt lat="42.597621089171824" lon="2.855729487946866"><ele>65.0</ele><time>2026-03-23T14:56:35Z</time></trkpt><trkpt lat="42.59741955423185" lon="2.855633125716369"><ele>66.0</ele><time>2026-03-23T14:56:36Z</time></trkpt><trkpt lat="42.597220344933824" lon="2.855532667643029"><ele>66.0</ele><time>2026-03-23T14:56:37Z</time></trkpt><trkpt lat="42.597021887595666" lon="2.855433949188179"><ele>66.0</ele><time>2026-03-23T14:56:38Z</time></trkpt><trkpt lat="42.59682375903552" lon="2.855335884143737"><ele>66.0</ele><time>2026-03-23T14:56:39Z</time></trkpt><trkpt lat="42.59662592697986" lon="2.8552358599079586"><ele>66.0</ele><time>2026-03-23T14:56:40Z</time></trkpt><trkpt lat="42.59642621218284" lon="2.855132486132988"><ele>66.0</ele><time>2026-03-23T14:56:41Z</time></trkpt><trkpt lat="42.59622708042002" lon="2.855034532060129"><ele>66.0</ele><time>2026-03-23T14:56:42Z</time></trkpt><trkpt lat="42.5960274072047" lon="2.8549373594557315"><ele>66.33333333333333</ele><time>2026-03-23T14:56:43Z</time></trkpt><trkpt lat="42.59582588372878" lon="2.8548336078026972"><ele>66.66666666666666</ele><time>2026-03-23T14:56:44Z</time></trkpt><trkpt lat="42.595625178954386" lon="2.854728943879627"><ele>67.0</ele><time>2026-03-23T14:56:45Z</time></trkpt><trkpt lat="42.59541721260877" lon="2.854634306368409"><ele>67.0</ele><time>2026-03-23T14:56:46Z</time></trkpt><trkpt lat="42.5952142251549" lon="2.8545358695985428"><ele>67.0</ele><time>2026-03-23T14:56:47Z</time></trkpt><trkpt lat="42.59501940940203" lon="2.854445296852786"><ele>67.0</ele><time>2026-03-23T14:56:48Z</time></trkpt><trkpt lat="42.594828924328496" lon="2.854361352723016"><ele>67.33333333333333</ele><time>2026-03-23T14:56:49Z</time></trkpt><trkpt lat="42.59463881676001" lon="2.8542732978074694"><ele>67.66666666666667</ele><time>2026-03-23T14:56:50Z</time></trkpt><trkpt lat="42.594442243810924" lon="2.854192471038029"><ele>68.0</ele><time>2026-03-23T14:56:51Z</time></trkpt><trkpt lat="42.59424510789037" lon="2.8541047531421846"><ele>68.0</ele><time>2026-03-23T14:56:52Z</time></trkpt><trkpt lat="42.59404717267327" lon="2.8540107781938904"><ele>68.0</ele><time>2026-03-23T14:56:52.999Z</time></trkpt><trkpt lat="42.5938467297948" lon="2.8539124843355754"><ele>68.0</ele><time>2026-03-23T14:56:53.999Z</time></trkpt><trkpt lat="42.5936442203145" lon="2.8538159077508904"><ele>69.0</ele><time>2026-03-23T14:56:54.999Z</time></trkpt><trkpt lat="42.59344347292877" lon="2.8537229390175405"><ele>70.0</ele><time>2026-03-23T14:56:55.999Z</time></trkpt><trkpt lat="42.59324447956901" lon="2.853634404425319"><ele>71.0</ele><time>2026-03-23T14:56:56.999Z</time></trkpt><trkpt lat="42.59304607889437" lon="2.8535476560291357"><ele>71.0</ele><time>2026-03-23T14:56:57.999Z</time></trkpt><trkpt lat="42.59285068835622" lon="2.8534627634186394"><ele>71.0</ele><time>2026-03-23T14:56:58.999Z</time></trkpt><trkpt lat="42.59265954748934" lon="2.8533791908933637"><ele>71.0</ele><time>2026-03-23T14:56:59.999Z</time></trkpt><trkpt lat="42.59247091021129" lon="2.8532953173185525"><ele>71.66666666666667</ele><time>2026-03-23T14:57:00.999Z</time></trkpt><trkpt lat="42.59228368527224" lon="2.853210824375826"><ele>72.33333333333333</ele><time>2026-03-23T14:57:01.999Z</time></trkpt><trkpt lat="42.592095656790626" lon="2.853129480100888"><ele>73.0</ele><time>2026-03-23T14:57:02.999Z</time></trkpt><trkpt lat="42.59191012862301" lon="2.8530501559371046"><ele>73.66666666666666</ele><time>2026-03-23T14:57:03.999Z</time></trkpt><trkpt lat="42.59172683947479" lon="2.8529663992610823"><ele>74.33333333333333</ele><time>2026-03-23T14:57:04.999Z</time></trkpt><trkpt lat="42.5915482706295" lon="2.852880939928799"><ele>75.0</ele><time>2026-03-23T14:57:05.999Z</time></trkpt><trkpt lat="42.59137270035691" lon="2.8527959850707036"><ele>75.0</ele><time>2026-03-23T14:57:06.999Z</time></trkpt><trkpt lat="42.59119752919501" lon="2.8527189083420867"><ele>75.0</ele><time>2026-03-23T14:57:07.999Z</time></trkpt><trkpt lat="42.591022022940464" lon="2.852645632560633"><ele>75.0</ele><time>2026-03-23T14:57:08.999Z</time></trkpt><trkpt lat="42.590845268875164" lon="2.852569287492193"><ele>76.33333333333333</ele><time>2026-03-23T14:57:09.999Z</time></trkpt><trkpt lat="42.59068124543679" lon="2.852500907796851"><ele>77.66666666666666</ele><time>2026-03-23T14:57:10.999Z</time></trkpt><trkpt lat="42.59052823487239" lon="2.8524347354714337"><ele>79.0</ele><time>2026-03-23T14:57:11.999Z</time></trkpt><trkpt lat="42.59039038517959" lon="2.8523762386673743"><ele>79.75</ele><time>2026-03-23T14:57:12.999Z</time></trkpt><trkpt lat="42.59025659819333" lon="2.8523175518984196"><ele>80.5</ele><time>2026-03-23T14:57:13.999Z</time></trkpt><trkpt lat="42.59013494701771" lon="2.852262094989105"><ele>81.25</ele><time>2026-03-23T14:57:14.999Z</time></trkpt><trkpt lat="42.59003004757632" lon="2.852212876881673"><ele>82.0</ele><time>2026-03-23T14:57:15.999Z</time></trkpt><trkpt lat="42.58993501735892" lon="2.852164932722379"><ele>82.0</ele><time>2026-03-23T14:57:16.999Z</time></trkpt><trkpt lat="42.589851755825386" lon="2.852116167827576"><ele>82.0</ele><time>2026-03-23T14:57:17.999Z</time></trkpt><trkpt lat="42.58978706154936" lon="2.8520687000853897"><ele>82.0</ele><time>2026-03-23T14:57:18.999Z</time></trkpt><trkpt lat="42.58973349822092" lon="2.8520152194051582"><ele>82.0</ele><time>2026-03-23T14:57:19.999Z</time></trkpt><trkpt lat="42.58969084687234" lon="2.8519358402342703"><ele>82.0</ele><time>2026-03-23T14:57:20.999Z</time></trkpt><trkpt lat="42.58967090592244" lon="2.8518317378397917"><ele>82.0</ele><time>2026-03-23T14:57:21.999Z</time></trkpt><trkpt lat="42.589711782462174" lon="2.8515921474456882"><ele>81.75</ele><time>2026-03-23T14:57:23.999Z</time></trkpt><trkpt lat="42.589767848847025" lon="2.8514608298991013"><ele>81.5</ele><time>2026-03-23T14:57:24.999Z</time></trkpt><trkpt lat="42.58983817382414" lon="2.851326120147215"><ele>81.25</ele><time>2026-03-23T14:57:25.999Z</time></trkpt><trkpt lat="42.589914169093745" lon="2.8511886254884047"><ele>81.0</ele><time>2026-03-23T14:57:26.999Z</time></trkpt><trkpt lat="42.58999732109427" lon="2.851058583192234"><ele>80.75</ele><time>2026-03-23T14:57:27.999Z</time></trkpt><trkpt lat="42.59009400364198" lon="2.85094342061307"><ele>80.5</ele><time>2026-03-23T14:57:28.999Z</time></trkpt><trkpt lat="42.59019928167293" lon="2.850842846266152"><ele>80.25</ele><time>2026-03-23T14:57:29.999Z</time></trkpt><trkpt lat="42.59030157480336" lon="2.8507648414309292"><ele>80.0</ele><time>2026-03-23T14:57:30.999Z</time></trkpt><trkpt lat="42.590398214413135" lon="2.850698372596388"><ele>79.4</ele><time>2026-03-23T14:57:31.999Z</time></trkpt><trkpt lat="42.59048282255412" lon="2.850642001818499"><ele>78.8</ele><time>2026-03-23T14:57:32.999Z</time></trkpt><trkpt lat="42.5905490962064" lon="2.850596741939809"><ele>78.2</ele><time>2026-03-23T14:57:33.999Z</time></trkpt><trkpt lat="42.59064505822886" lon="2.850575085008425"><ele>77.6</ele><time>2026-03-23T14:57:35.999Z</time></trkpt><trkpt lat="42.59060962336322" lon="2.8503465580249867"><ele>77.0</ele><time>2026-03-23T14:57:37.999Z</time></trkpt><trkpt lat="42.59056841752716" lon="2.850254298843145"><ele>77.0</ele><time>2026-03-23T14:57:38.999Z</time></trkpt><trkpt lat="42.59052052646399" lon="2.8501338384740107"><ele>77.0</ele><time>2026-03-23T14:57:39.999Z</time></trkpt><trkpt lat="42.59048125460588" lon="2.8499810979080014"><ele>77.0</ele><time>2026-03-23T14:57:40.998Z</time></trkpt><trkpt lat="42.59043627997531" lon="2.8498252028481463"><ele>77.0</ele><time>2026-03-23T14:57:41.998Z</time></trkpt><trkpt lat="42.59037236814104" lon="2.8496811028999187"><ele>77.0</ele><time>2026-03-23T14:57:42.998Z</time></trkpt><trkpt lat="42.59027649661854" lon="2.849547772154442"><ele>77.0</ele><time>2026-03-23T14:57:43.998Z</time></trkpt><trkpt lat="42.59014622708692" lon="2.849445235505264"><ele>77.0</ele><time>2026-03-23T14:57:44.998Z</time></trkpt><trkpt lat="42.59000914266815" lon="2.8493655747585187"><ele>77.0</ele><time>2026-03-23T14:57:45.998Z</time></trkpt><trkpt lat="42.589851371987386" lon="2.849306356024997"><ele>77.0</ele><time>2026-03-23T14:57:46.998Z</time></trkpt><trkpt lat="42.58968130868016" lon="2.8492695758653435"><ele>77.0</ele><time>2026-03-23T14:57:47.998Z</time></trkpt><trkpt lat="42.5895108568769" lon="2.849222036309242"><ele>77.0</ele><time>2026-03-23T14:57:48.998Z</time></trkpt><trkpt lat="42.58933814694411" lon="2.849164424757576"><ele>77.0</ele><time>2026-03-23T14:57:49.998Z</time></trkpt><trkpt lat="42.589164619820124" lon="2.849111241439967"><ele>77.0</ele><time>2026-03-23T14:57:50.998Z</time></trkpt><trkpt lat="42.58900367286473" lon="2.849057624262568"><ele>77.0</ele><time>2026-03-23T14:57:51.998Z</time></trkpt><trkpt lat="42.588852777723744" lon="2.849008276822749"><ele>77.0</ele><time>2026-03-23T14:57:52.998Z</time></trkpt><trkpt lat="42.588706733235725" lon="2.8489656995175148"><ele>77.0</ele><time>2026-03-23T14:57:53.998Z</time></trkpt><trkpt lat="42.58855241199436" lon="2.8489368650415954"><ele>77.0</ele><time>2026-03-23T14:57:54.998Z</time></trkpt><trkpt lat="42.58839718850396" lon="2.8489440995389836"><ele>78.33333333333334</ele><time>2026-03-23T14:57:55.998Z</time></trkpt><trkpt lat="42.58824220790829" lon="2.8489806403664657"><ele>79.66666666666667</ele><time>2026-03-23T14:57:56.998Z</time></trkpt><trkpt lat="42.58808833236117" lon="2.8490449902100967"><ele>81.0</ele><time>2026-03-23T14:57:57.998Z</time></trkpt><trkpt lat="42.58793532708448" lon="2.8491292892341913"><ele>82.25</ele><time>2026-03-23T14:57:58.998Z</time></trkpt><trkpt lat="42.58778426156468" lon="2.849176071708223"><ele>83.5</ele><time>2026-03-23T14:57:59.998Z</time></trkpt><trkpt lat="42.58764448390015" lon="2.849207601820544"><ele>84.75</ele><time>2026-03-23T14:58:00.998Z</time></trkpt><trkpt lat="42.587510704266926" lon="2.8492022609021666"><ele>86.0</ele><time>2026-03-23T14:58:01.998Z</time></trkpt><trkpt lat="42.58738604745293" lon="2.8491659269294822"><ele>86.0</ele><time>2026-03-23T14:58:02.998Z</time></trkpt><trkpt lat="42.58727203402918" lon="2.8490917007520418"><ele>86.0</ele><time>2026-03-23T14:58:03.998Z</time></trkpt><trkpt lat="42.58716968100674" lon="2.8489957485092017"><ele>86.0</ele><time>2026-03-23T14:58:04.998Z</time></trkpt><trkpt lat="42.5870861460162" lon="2.848874921361676"><ele>86.0</ele><time>2026-03-23T14:58:05.998Z</time></trkpt><trkpt lat="42.587014753359036" lon="2.8487315689853747"><ele>86.25</ele><time>2026-03-23T14:58:06.998Z</time></trkpt><trkpt lat="42.586960740106754" lon="2.848556877664425"><ele>86.5</ele><time>2026-03-23T14:58:07.998Z</time></trkpt><trkpt lat="42.58692975557081" lon="2.8483769130558403"><ele>86.75</ele><time>2026-03-23T14:58:08.998Z</time></trkpt><trkpt lat="42.58693143239493" lon="2.848189446798144"><ele>87.0</ele><time>2026-03-23T14:58:09.998Z</time></trkpt><trkpt lat="42.58692750930411" lon="2.8479835129675246"><ele>87.0</ele><time>2026-03-23T14:58:10.998Z</time></trkpt><trkpt lat="42.58691588729719" lon="2.8477614316633764"><ele>87.0</ele><time>2026-03-23T14:58:11.998Z</time></trkpt><trkpt lat="42.58691414004738" lon="2.8475302204888933"><ele>87.0</ele><time>2026-03-23T14:58:12.998Z</time></trkpt><trkpt lat="42.586906215507184" lon="2.847293159269017"><ele>87.33333333333333</ele><time>2026-03-23T14:58:13.998Z</time></trkpt><trkpt lat="42.58689861801773" lon="2.8470439412647366"><ele>87.66666666666666</ele><time>2026-03-23T14:58:14.998Z</time></trkpt><trkpt lat="42.5868857896673" lon="2.846805359001494"><ele>88.0</ele><time>2026-03-23T14:58:15.998Z</time></trkpt><trkpt lat="42.586860347727345" lon="2.8465583375933865"><ele>88.0</ele><time>2026-03-23T14:58:16.998Z</time></trkpt><trkpt lat="42.586824586376075" lon="2.846319194284721"><ele>88.0</ele><time>2026-03-23T14:58:17.998Z</time></trkpt><trkpt lat="42.58677467202029" lon="2.846084910792503"><ele>88.0</ele><time>2026-03-23T14:58:18.998Z</time></trkpt><trkpt lat="42.58671518428231" lon="2.8458526118904186"><ele>87.66666666666666</ele><time>2026-03-23T14:58:19.998Z</time></trkpt><trkpt lat="42.58665463594443" lon="2.8456304647810646"><ele>87.33333333333333</ele><time>2026-03-23T14:58:20.998Z</time></trkpt><trkpt lat="42.58659330244436" lon="2.8454088951525343"><ele>87.0</ele><time>2026-03-23T14:58:21.998Z</time></trkpt><trkpt lat="42.58653339313057" lon="2.8451928786780187"><ele>86.0</ele><time>2026-03-23T14:58:22.998Z</time></trkpt><trkpt lat="42.586476327670454" lon="2.8449797553113116"><ele>85.0</ele><time>2026-03-23T14:58:23.998Z</time></trkpt><trkpt lat="42.58641748989083" lon="2.8447634967837843"><ele>84.0</ele><time>2026-03-23T14:58:24.998Z</time></trkpt><trkpt lat="42.58635956425301" lon="2.84454854438031"><ele>84.0</ele><time>2026-03-23T14:58:26Z</time></trkpt><trkpt lat="42.58629662548954" lon="2.8443342231985853"><ele>84.0</ele><time>2026-03-23T14:58:27Z</time></trkpt><trkpt lat="42.586232874936506" lon="2.844122521016503"><ele>84.0</ele><time>2026-03-23T14:58:28Z</time></trkpt><trkpt lat="42.58617771322958" lon="2.8439121475113325"><ele>83.33333333333333</ele><time>2026-03-23T14:58:29Z</time></trkpt><trkpt lat="42.5861350571588" lon="2.8437022764423685"><ele>82.66666666666666</ele><time>2026-03-23T14:58:30Z</time></trkpt><trkpt lat="42.58610777702127" lon="2.843502037176079"><ele>82.0</ele><time>2026-03-23T14:58:31Z</time></trkpt><trkpt lat="42.586096340943946" lon="2.843296693121122"><ele>81.75</ele><time>2026-03-23T14:58:32Z</time></trkpt><trkpt lat="42.58610399900447" lon="2.843100694487344"><ele>81.5</ele><time>2026-03-23T14:58:33Z</time></trkpt><trkpt lat="42.586122949245166" lon="2.842904307313329"><ele>81.25</ele><time>2026-03-23T14:58:34Z</time></trkpt><trkpt lat="42.586171500851876" lon="2.8427166744407604"><ele>81.0</ele><time>2026-03-23T14:58:35Z</time></trkpt><trkpt lat="42.5862137462636" lon="2.8425239917767184"><ele>80.75</ele><time>2026-03-23T14:58:36Z</time></trkpt><trkpt lat="42.58627138400452" lon="2.8423460124850903"><ele>80.5</ele><time>2026-03-23T14:58:37Z</time></trkpt><trkpt lat="42.58631463804239" lon="2.842179640576558"><ele>80.25</ele><time>2026-03-23T14:58:38Z</time></trkpt><trkpt lat="42.586370999760724" lon="2.842033273784666"><ele>80.0</ele><time>2026-03-23T14:58:39Z</time></trkpt><trkpt lat="42.58641951355097" lon="2.8419085022616137"><ele>80.0</ele><time>2026-03-23T14:58:40Z</time></trkpt><trkpt lat="42.586472077999005" lon="2.8418009942478504"><ele>80.0</ele><time>2026-03-23T14:58:41Z</time></trkpt><trkpt lat="42.586524310597994" lon="2.8417095774084618"><ele>80.0</ele><time>2026-03-23T14:58:42Z</time></trkpt><trkpt lat="42.58657749856122" lon="2.8416270111065107"><ele>80.0</ele><time>2026-03-23T14:58:43Z</time></trkpt><trkpt lat="42.586670177887164" lon="2.8415720872416337"><ele>80.0</ele><time>2026-03-23T14:58:45Z</time></trkpt><trkpt lat="42.58676647615824" lon="2.8416198123308103"><ele>80.0</ele><time>2026-03-23T14:58:47Z</time></trkpt><trkpt lat="42.586866799482976" lon="2.8417815174998635"><ele>80.0</ele><time>2026-03-23T14:58:49Z</time></trkpt><trkpt lat="42.58693834778124" lon="2.8418726754313544"><ele>80.0</ele><time>2026-03-23T14:58:50Z</time></trkpt><trkpt lat="42.58700650838233" lon="2.841954622089345"><ele>80.0</ele><time>2026-03-23T14:58:51Z</time></trkpt><trkpt lat="42.58706541864248" lon="2.842017975082215"><ele>80.0</ele><time>2026-03-23T14:58:52Z</time></trkpt><trkpt lat="42.58712154105192" lon="2.8420794931321898"><ele>80.0</ele><time>2026-03-23T14:58:53Z</time></trkpt><trkpt lat="42.58717358047984" lon="2.842144650078073"><ele>80.0</ele><time>2026-03-23T14:58:56Z</time></trkpt><trkpt lat="42.58734351564781" lon="2.842344291834545"><ele>80.0</ele><time>2026-03-23T14:58:57Z</time></trkpt><trkpt lat="42.58741000422976" lon="2.8424154952433978"><ele>80.0</ele><time>2026-03-23T14:58:58Z</time></trkpt><trkpt lat="42.5874898387275" lon="2.842461719502724"><ele>80.0</ele><time>2026-03-23T14:58:58.999Z</time></trkpt><trkpt lat="42.587652359437115" lon="2.842568213580408"><ele>80.0</ele><time>2026-03-23T14:59:00.999Z</time></trkpt><trkpt lat="42.587768678539284" lon="2.842601606179439"><ele>80.0</ele><time>2026-03-23T14:59:01.999Z</time></trkpt><trkpt lat="42.587892173072966" lon="2.842610220776107"><ele>80.0</ele><time>2026-03-23T14:59:02.999Z</time></trkpt><trkpt lat="42.588019360663566" lon="2.8425835177986998"><ele>79.75</ele><time>2026-03-23T14:59:03.999Z</time></trkpt><trkpt lat="42.58814310241847" lon="2.842522056286936"><ele>79.5</ele><time>2026-03-23T14:59:04.999Z</time></trkpt><trkpt lat="42.58826502164703" lon="2.84246212705534"><ele>79.25</ele><time>2026-03-23T14:59:05.999Z</time></trkpt><trkpt lat="42.588380936288765" lon="2.842410588133366"><ele>79.0</ele><time>2026-03-23T14:59:06.999Z</time></trkpt><trkpt lat="42.58849203751938" lon="2.8423614865122175"><ele>79.0</ele><time>2026-03-23T14:59:07.999Z</time></trkpt><trkpt lat="42.58859901753656" lon="2.8423133326150403"><ele>79.0</ele><time>2026-03-23T14:59:08.999Z</time></trkpt><trkpt lat="42.58869471741187" lon="2.842278976378386"><ele>79.0</ele><time>2026-03-23T14:59:09.999Z</time></trkpt><trkpt lat="42.5887741346168" lon="2.8422527306412606"><ele>79.0</ele><time>2026-03-23T14:59:10.999Z</time></trkpt><trkpt lat="42.5888435357169" lon="2.8422215446926535"><ele>79.0</ele><time>2026-03-23T14:59:11.999Z</time></trkpt><trkpt lat="42.58894446265372" lon="2.842178970067578"><ele>79.16666666666666</ele><time>2026-03-23T14:59:13.999Z</time></trkpt><trkpt lat="42.58902031935046" lon="2.842177219900993"><ele>79.33333333333333</ele><time>2026-03-23T14:59:15.999Z</time></trkpt><trkpt lat="42.589030847133714" lon="2.8423025640158683"><ele>79.5</ele><time>2026-03-23T14:59:17.999Z</time></trkpt><trkpt lat="42.589053349506386" lon="2.8423882905580835"><ele>79.66666666666667</ele><time>2026-03-23T14:59:18.999Z</time></trkpt><trkpt lat="42.589092617640404" lon="2.842498612459579"><ele>79.83333333333334</ele><time>2026-03-23T14:59:19.999Z</time></trkpt><trkpt lat="42.58911902315178" lon="2.8426084784645336"><ele>80.0</ele><time>2026-03-23T14:59:20.999Z</time></trkpt><trkpt lat="42.58914806155471" lon="2.8427203095637097"><ele>80.0</ele><time>2026-03-23T14:59:21.999Z</time></trkpt><trkpt lat="42.58917644182298" lon="2.842826920044226"><ele>80.0</ele><time>2026-03-23T14:59:22.999Z</time></trkpt><trkpt lat="42.58920573707862" lon="2.8429285554298738"><ele>80.0</ele><time>2026-03-23T14:59:23.999Z</time></trkpt><trkpt lat="42.58923568775156" lon="2.8430341524438636"><ele>80.0</ele><time>2026-03-23T14:59:24.999Z</time></trkpt><trkpt lat="42.58925089668065" lon="2.8431514646096163"><ele>80.0</ele><time>2026-03-23T14:59:25.999Z</time></trkpt><trkpt lat="42.589286973050235" lon="2.843246075241772"><ele>80.0</ele><time>2026-03-23T14:59:26.999Z</time></trkpt><trkpt lat="42.58931088041268" lon="2.843349803222336"><ele>80.0</ele><time>2026-03-23T14:59:27.999Z</time></trkpt><trkpt lat="42.58933641084445" lon="2.843450914865862"><ele>80.0</ele><time>2026-03-23T14:59:28.999Z</time></trkpt><trkpt lat="42.589362486082436" lon="2.843551801980392"><ele>80.0</ele><time>2026-03-23T14:59:29.999Z</time></trkpt><trkpt lat="42.58939042611588" lon="2.843667308776166"><ele>80.0</ele><time>2026-03-23T14:59:30.999Z</time></trkpt><trkpt lat="42.58941940965315" lon="2.843785385791144"><ele>80.0</ele><time>2026-03-23T14:59:31.999Z</time></trkpt><trkpt lat="42.58944812933526" lon="2.8439061773830567"><ele>80.0</ele><time>2026-03-23T14:59:32.999Z</time></trkpt><trkpt lat="42.58947999883634" lon="2.844009584490394"><ele>79.66666666666667</ele><time>2026-03-23T14:59:33.999Z</time></trkpt><trkpt lat="42.58950682050834" lon="2.8441135255561525"><ele>79.33333333333334</ele><time>2026-03-23T14:59:34.999Z</time></trkpt><trkpt lat="42.589533804206724" lon="2.844213115570624"><ele>79.0</ele><time>2026-03-23T14:59:35.999Z</time></trkpt><trkpt lat="42.589556335176084" lon="2.8443227218721026"><ele>78.66666666666667</ele><time>2026-03-23T14:59:36.999Z</time></trkpt><trkpt lat="42.5895780388173" lon="2.8444275671474726"><ele>78.33333333333333</ele><time>2026-03-23T14:59:37.999Z</time></trkpt><trkpt lat="42.58959910185771" lon="2.8445165717777874"><ele>78.0</ele><time>2026-03-23T14:59:38.999Z</time></trkpt><trkpt lat="42.589672099522915" lon="2.844648266803582"><ele>78.0</ele><time>2026-03-23T14:59:40.999Z</time></trkpt><trkpt lat="42.589729325964605" lon="2.8446859389129777"><ele>78.0</ele><time>2026-03-23T14:59:41.999Z</time></trkpt><trkpt lat="42.58984040487653" lon="2.844667894509618"><ele>78.0</ele><time>2026-03-23T14:59:43.999Z</time></trkpt><trkpt lat="42.58994525729253" lon="2.844569046765791"><ele>78.0</ele><time>2026-03-23T14:59:45.999Z</time></trkpt><trkpt lat="42.59006218937938" lon="2.8444304002372336"><ele>78.0</ele><time>2026-03-23T14:59:47.999Z</time></trkpt><trkpt lat="42.59013989426091" lon="2.844385148287617"><ele>78.0</ele><time>2026-03-23T14:59:48.999Z</time></trkpt><trkpt lat="42.59021569755356" lon="2.844317993819447"><ele>78.0</ele><time>2026-03-23T14:59:49.998Z</time></trkpt><trkpt lat="42.59030232263615" lon="2.8442450423775516"><ele>78.0</ele><time>2026-03-23T14:59:50.998Z</time></trkpt><trkpt lat="42.590400803390864" lon="2.84417471251826"><ele>78.0</ele><time>2026-03-23T14:59:51.998Z</time></trkpt><trkpt lat="42.59049267564854" lon="2.8440886541662587"><ele>77.6</ele><time>2026-03-23T14:59:52.998Z</time></trkpt><trkpt lat="42.59059473770087" lon="2.844019180367157"><ele>77.19999999999999</ele><time>2026-03-23T14:59:53.998Z</time></trkpt><trkpt lat="42.59067774562546" lon="2.843939195925573"><ele>76.8</ele><time>2026-03-23T14:59:54.998Z</time></trkpt><trkpt lat="42.59075502535952" lon="2.8438625169222966"><ele>76.39999999999999</ele><time>2026-03-23T14:59:55.998Z</time></trkpt><trkpt lat="42.590827933286654" lon="2.8437964744845674"><ele>76.0</ele><time>2026-03-23T14:59:56.998Z</time></trkpt><trkpt lat="42.590889109925655" lon="2.843740208851819"><ele>76.0</ele><time>2026-03-23T14:59:57.998Z</time></trkpt><trkpt lat="42.590980484408746" lon="2.8436675064267183"><ele>76.0</ele><time>2026-03-23T14:59:59.998Z</time></trkpt><trkpt lat="42.59108251736368" lon="2.8436759160098584"><ele>76.0</ele><time>2026-03-23T15:00:01.998Z</time></trkpt><trkpt lat="42.591183603926254" lon="2.84362595496844"><ele>76.0</ele><time>2026-03-23T15:00:03.998Z</time></trkpt><trkpt lat="42.59118777797268" lon="2.8434749967160537"><ele>76.0</ele><time>2026-03-23T15:00:05.998Z</time></trkpt><trkpt lat="42.591146341500405" lon="2.843405613038692"><ele>76.16666666666666</ele><time>2026-03-23T15:00:06.998Z</time></trkpt><trkpt lat="42.59108421035231" lon="2.8433627308733977"><ele>76.33333333333333</ele><time>2026-03-23T15:00:07.998Z</time></trkpt><trkpt lat="42.59101510687944" lon="2.8433379635639966"><ele>76.5</ele><time>2026-03-23T15:00:08.998Z</time></trkpt><trkpt lat="42.59093849713224" lon="2.8433245467334154"><ele>76.66666666666667</ele><time>2026-03-23T15:00:09.998Z</time></trkpt><trkpt lat="42.590913655432274" lon="2.84318602091903"><ele>76.83333333333334</ele><time>2026-03-23T15:00:10.998Z</time></trkpt><trkpt lat="42.59088507758194" lon="2.8430759266348455"><ele>77.0</ele><time>2026-03-23T15:00:11.998Z</time></trkpt><trkpt lat="42.59085094950915" lon="2.84294994437768"><ele>77.0</ele><time>2026-03-23T15:00:12.998Z</time></trkpt><trkpt lat="42.59080645354714" lon="2.842837717789629"><ele>77.0</ele><time>2026-03-23T15:00:13.998Z</time></trkpt><trkpt lat="42.590781740624855" lon="2.8427195083870385"><ele>77.0</ele><time>2026-03-23T15:00:14.998Z</time></trkpt><trkpt lat="42.59076669151394" lon="2.8426158673269075"><ele>77.0</ele><time>2026-03-23T15:00:15.998Z</time></trkpt><trkpt lat="42.59076508622538" lon="2.8425217209869067"><ele>77.0</ele><time>2026-03-23T15:00:16.998Z</time></trkpt><trkpt lat="42.5907774900203" lon="2.8424361037746952"><ele>77.0</ele><time>2026-03-23T15:00:17.998Z</time></trkpt><trkpt lat="42.59082816533472" lon="2.842371309934514"><ele>77.33333333333334</ele><time>2026-03-23T15:00:18.998Z</time></trkpt><trkpt lat="42.59085936661712" lon="2.8422930975695153"><ele>77.66666666666667</ele><time>2026-03-23T15:00:19.998Z</time></trkpt><trkpt lat="42.5909555199067" lon="2.842207159378207"><ele>78.0</ele><time>2026-03-23T15:00:21.998Z</time></trkpt><trkpt lat="42.59103614457849" lon="2.842196703358799"><ele>78.33333333333333</ele><time>2026-03-23T15:00:23.998Z</time></trkpt><trkpt lat="42.59105371593793" lon="2.8423082535861566"><ele>78.66666666666666</ele><time>2026-03-23T15:00:25.998Z</time></trkpt><trkpt lat="42.59106725953711" lon="2.842400181570826"><ele>79.0</ele><time>2026-03-23T15:00:27.998Z</time></trkpt><trkpt lat="42.59098527343678" lon="2.8424386344815855"><ele>79.0</ele><time>2026-03-23T15:00:29.998Z</time></trkpt><trkpt lat="42.590885924267354" lon="2.842437258618634"><ele>79.0</ele><time>2026-03-23T15:00:32Z</time></trkpt><trkpt lat="42.59081837190832" lon="2.842555436064393"><ele>79.0</ele><time>2026-03-23T15:00:34Z</time></trkpt><trkpt lat="42.590823943972154" lon="2.8426436158012036"><ele>79.0</ele><time>2026-03-23T15:00:35Z</time></trkpt><trkpt lat="42.59085020208237" lon="2.842730113515252"><ele>79.0</ele><time>2026-03-23T15:00:36Z</time></trkpt><trkpt lat="42.59087557166345" lon="2.8428117489381517"><ele>79.0</ele><time>2026-03-23T15:00:37Z</time></trkpt><trkpt lat="42.59090680868272" lon="2.8429612552876584"><ele>77.0</ele><time>2026-03-23T15:00:39Z</time></trkpt><trkpt lat="42.590926821852946" lon="2.843054097861441"><ele>77.0</ele><time>2026-03-23T15:00:41Z</time></trkpt><trkpt lat="42.5909776520648" lon="2.843105851950441"><ele>77.0</ele><time>2026-03-23T15:00:43Z</time></trkpt></trkseg></trk></gpx>